<?xml version="1.0" encoding="UTF-8"?>
<gpx creator="Garmin Connect" version="1.1"
  xsi:schemaLocation="http://www.topografix.com/GPX/1/1 http://www.topografix.com/GPX/11.xsd"
  xmlns:ns3="http://www.garmin.com/xmlschemas/TrackPointExtension/v1"
  xmlns="http://www.topografix.com/GPX/1/1"
  xmlns:xsi="http://www.w3.org/2001/XMLSchema-instance" xmlns:ns2="http://www.garmin.com/xmlschemas/GpxExtensions/v3">
  <metadata>
    <link href="connect.garmin.com">
      <text>Garmin Connect</text>
    </link>
    <time>2021-06-24T16:22:51.000Z</time>
  </metadata>
  <trk>
    <name>Fresno County Hiking</name>
    <type>hiking</type>
    <trkseg>
      <trkpt lat="36.794499345123767852783203125" lon="-118.58310864306986331939697265625">
        <ele>1552.800048828125</ele>
        <time>2021-06-24T16:22:51.000Z</time>
        <extensions>
          <ns3:TrackPointExtension>
            <ns3:atemp>32.0</ns3:atemp>
            <ns3:hr>77</ns3:hr>
          </ns3:TrackPointExtension>
        </extensions>
      </trkpt>
      <trkpt lat="36.7944998480379581451416015625" lon="-118.58310830779373645782470703125">
        <ele>1552.800048828125</ele>
        <time>2021-06-24T16:22:52.000Z</time>
        <extensions>
          <ns3:TrackPointExtension>
            <ns3:atemp>32.0</ns3:atemp>
            <ns3:hr>77</ns3:hr>
          </ns3:TrackPointExtension>
        </extensions>
      </trkpt>
      <trkpt lat="36.79452893324196338653564453125" lon="-118.583094812929630279541015625">
        <ele>1552.800048828125</ele>
        <time>2021-06-24T16:22:55.000Z</time>
        <extensions>
          <ns3:TrackPointExtension>
            <ns3:atemp>32.0</ns3:atemp>
            <ns3:hr>80</ns3:hr>
          </ns3:TrackPointExtension>
        </extensions>
      </trkpt>
      <trkpt lat="36.79455592297017574310302734375" lon="-118.58308232389390468597412109375">
        <ele>1553</ele>
        <time>2021-06-24T16:22:57.000Z</time>
        <extensions>
          <ns3:TrackPointExtension>
            <ns3:atemp>32.0</ns3:atemp>
            <ns3:hr>81</ns3:hr>
          </ns3:TrackPointExtension>
        </extensions>
      </trkpt>
      <trkpt lat="36.79458039812743663787841796875" lon="-118.5830768756568431854248046875">
        <ele>1553.4000244140625</ele>
        <time>2021-06-24T16:22:59.000Z</time>
        <extensions>
          <ns3:TrackPointExtension>
            <ns3:atemp>32.0</ns3:atemp>
            <ns3:hr>81</ns3:hr>
          </ns3:TrackPointExtension>
        </extensions>
      </trkpt>
      <trkpt lat="36.794607974588871002197265625" lon="-118.58307779766619205474853515625">
        <ele>1553.5999755859375</ele>
        <time>2021-06-24T16:23:03.000Z</time>
        <extensions>
          <ns3:TrackPointExtension>
            <ns3:atemp>32.0</ns3:atemp>
            <ns3:hr>79</ns3:hr>
          </ns3:TrackPointExtension>
        </extensions>
      </trkpt>
      <trkpt lat="36.79463957436382770538330078125" lon="-118.58304980210959911346435546875">
        <ele>1553.800048828125</ele>
        <time>2021-06-24T16:23:08.000Z</time>
        <extensions>
          <ns3:TrackPointExtension>
            <ns3:atemp>32.0</ns3:atemp>
            <ns3:hr>78</ns3:hr>
          </ns3:TrackPointExtension>
        </extensions>
      </trkpt>
      <trkpt lat="36.7946460284292697906494140625" lon="-118.58303320594131946563720703125">
        <ele>1554</ele>
        <time>2021-06-24T16:23:10.000Z</time>
        <extensions>
          <ns3:TrackPointExtension>
            <ns3:atemp>32.0</ns3:atemp>
            <ns3:hr>77</ns3:hr>
          </ns3:TrackPointExtension>
        </extensions>
      </trkpt>
      <trkpt lat="36.794652901589870452880859375" lon="-118.58293983153998851776123046875">
        <ele>1553.4000244140625</ele>
        <time>2021-06-24T16:23:17.000Z</time>
        <extensions>
          <ns3:TrackPointExtension>
            <ns3:atemp>32.0</ns3:atemp>
            <ns3:hr>79</ns3:hr>
          </ns3:TrackPointExtension>
        </extensions>
      </trkpt>
      <trkpt lat="36.7946827411651611328125" lon="-118.5828177072107791900634765625">
        <ele>1553.199951171875</ele>
        <time>2021-06-24T16:23:25.000Z</time>
        <extensions>
          <ns3:TrackPointExtension>
            <ns3:atemp>32.0</ns3:atemp>
            <ns3:hr>79</ns3:hr>
          </ns3:TrackPointExtension>
        </extensions>
      </trkpt>
      <trkpt lat="36.79471568204462528228759765625" lon="-118.582713268697261810302734375">
        <ele>1554.199951171875</ele>
        <time>2021-06-24T16:23:31.000Z</time>
        <extensions>
          <ns3:TrackPointExtension>
            <ns3:atemp>31.0</ns3:atemp>
            <ns3:hr>82</ns3:hr>
          </ns3:TrackPointExtension>
        </extensions>
      </trkpt>
      <trkpt lat="36.7947348766028881072998046875" lon="-118.582624085247516632080078125">
        <ele>1554.4000244140625</ele>
        <time>2021-06-24T16:23:37.000Z</time>
        <extensions>
          <ns3:TrackPointExtension>
            <ns3:atemp>31.0</ns3:atemp>
            <ns3:hr>85</ns3:hr>
          </ns3:TrackPointExtension>
        </extensions>
      </trkpt>
      <trkpt lat="36.79473898373544216156005859375" lon="-118.5826145298779010772705078125">
        <ele>1554.4000244140625</ele>
        <time>2021-06-24T16:23:38.000Z</time>
        <extensions>
          <ns3:TrackPointExtension>
            <ns3:atemp>31.0</ns3:atemp>
            <ns3:hr>86</ns3:hr>
          </ns3:TrackPointExtension>
        </extensions>
      </trkpt>
      <trkpt lat="36.79474350996315479278564453125" lon="-118.58259064145386219024658203125">
        <ele>1554.4000244140625</ele>
        <time>2021-06-24T16:23:41.000Z</time>
        <extensions>
          <ns3:TrackPointExtension>
            <ns3:atemp>31.0</ns3:atemp>
            <ns3:hr>89</ns3:hr>
          </ns3:TrackPointExtension>
        </extensions>
      </trkpt>
      <trkpt lat="36.79474317468702793121337890625" lon="-118.58256583102047443389892578125">
        <ele>1554.4000244140625</ele>
        <time>2021-06-24T16:23:43.000Z</time>
        <extensions>
          <ns3:TrackPointExtension>
            <ns3:atemp>31.0</ns3:atemp>
            <ns3:hr>92</ns3:hr>
          </ns3:TrackPointExtension>
        </extensions>
      </trkpt>
      <trkpt lat="36.79476111195981502532958984375" lon="-118.58252945356070995330810546875">
        <ele>1554.5999755859375</ele>
        <time>2021-06-24T16:23:47.000Z</time>
        <extensions>
          <ns3:TrackPointExtension>
            <ns3:atemp>31.0</ns3:atemp>
            <ns3:hr>95</ns3:hr>
          </ns3:TrackPointExtension>
        </extensions>
      </trkpt>
      <trkpt lat="36.7947640456259250640869140625" lon="-118.5825219936668872833251953125">
        <ele>1554.5999755859375</ele>
        <time>2021-06-24T16:23:48.000Z</time>
        <extensions>
          <ns3:TrackPointExtension>
            <ns3:atemp>31.0</ns3:atemp>
            <ns3:hr>95</ns3:hr>
          </ns3:TrackPointExtension>
        </extensions>
      </trkpt>
      <trkpt lat="36.79479539394378662109375" lon="-118.5824225842952728271484375">
        <ele>1554.5999755859375</ele>
        <time>2021-06-24T16:23:54.000Z</time>
        <extensions>
          <ns3:TrackPointExtension>
            <ns3:atemp>31.0</ns3:atemp>
            <ns3:hr>93</ns3:hr>
          </ns3:TrackPointExtension>
        </extensions>
      </trkpt>
      <trkpt lat="36.794797740876674652099609375" lon="-118.5823758132755756378173828125">
        <ele>1554.5999755859375</ele>
        <time>2021-06-24T16:23:57.000Z</time>
        <extensions>
          <ns3:TrackPointExtension>
            <ns3:atemp>31.0</ns3:atemp>
            <ns3:hr>90</ns3:hr>
          </ns3:TrackPointExtension>
        </extensions>
      </trkpt>
      <trkpt lat="36.79479581303894519805908203125" lon="-118.582329042255878448486328125">
        <ele>1554.800048828125</ele>
        <time>2021-06-24T16:24:01.000Z</time>
        <extensions>
          <ns3:TrackPointExtension>
            <ns3:atemp>31.0</ns3:atemp>
            <ns3:hr>89</ns3:hr>
          </ns3:TrackPointExtension>
        </extensions>
      </trkpt>
      <trkpt lat="36.794787012040615081787109375" lon="-118.58229341916739940643310546875">
        <ele>1554.800048828125</ele>
        <time>2021-06-24T16:24:03.000Z</time>
        <extensions>
          <ns3:TrackPointExtension>
            <ns3:atemp>31.0</ns3:atemp>
            <ns3:hr>90</ns3:hr>
          </ns3:TrackPointExtension>
        </extensions>
      </trkpt>
      <trkpt lat="36.7947657220065593719482421875" lon="-118.582176826894283294677734375">
        <ele>1555.4000244140625</ele>
        <time>2021-06-24T16:24:08.000Z</time>
        <extensions>
          <ns3:TrackPointExtension>
            <ns3:atemp>31.0</ns3:atemp>
            <ns3:hr>88</ns3:hr>
          </ns3:TrackPointExtension>
        </extensions>
      </trkpt>
      <trkpt lat="36.79475055076181888580322265625" lon="-118.5820737294852733612060546875">
        <ele>1555.4000244140625</ele>
        <time>2021-06-24T16:24:16.000Z</time>
        <extensions>
          <ns3:TrackPointExtension>
            <ns3:atemp>31.0</ns3:atemp>
            <ns3:hr>91</ns3:hr>
          </ns3:TrackPointExtension>
        </extensions>
      </trkpt>
      <trkpt lat="36.79472364485263824462890625" lon="-118.5819687880575656890869140625">
        <ele>1555.4000244140625</ele>
        <time>2021-06-24T16:24:24.000Z</time>
        <extensions>
          <ns3:TrackPointExtension>
            <ns3:atemp>31.0</ns3:atemp>
            <ns3:hr>91</ns3:hr>
          </ns3:TrackPointExtension>
        </extensions>
      </trkpt>
      <trkpt lat="36.79468751884996891021728515625" lon="-118.58191707171499729156494140625">
        <ele>1555.800048828125</ele>
        <time>2021-06-24T16:24:30.000Z</time>
        <extensions>
          <ns3:TrackPointExtension>
            <ns3:atemp>31.0</ns3:atemp>
            <ns3:hr>94</ns3:hr>
          </ns3:TrackPointExtension>
        </extensions>
      </trkpt>
      <trkpt lat="36.79468299262225627899169921875" lon="-118.5818799398839473724365234375">
        <ele>1555.800048828125</ele>
        <time>2021-06-24T16:24:34.000Z</time>
        <extensions>
          <ns3:TrackPointExtension>
            <ns3:atemp>31.0</ns3:atemp>
            <ns3:hr>95</ns3:hr>
          </ns3:TrackPointExtension>
        </extensions>
      </trkpt>
      <trkpt lat="36.79465767927467823028564453125" lon="-118.58185001648962497711181640625">
        <ele>1555.800048828125</ele>
        <time>2021-06-24T16:24:36.000Z</time>
        <extensions>
          <ns3:TrackPointExtension>
            <ns3:atemp>31.0</ns3:atemp>
            <ns3:hr>98</ns3:hr>
          </ns3:TrackPointExtension>
        </extensions>
      </trkpt>
      <trkpt lat="36.79460235871374607086181640625" lon="-118.58176016248762607574462890625">
        <ele>1556</ele>
        <time>2021-06-24T16:24:42.000Z</time>
        <extensions>
          <ns3:TrackPointExtension>
            <ns3:atemp>31.0</ns3:atemp>
            <ns3:hr>95</ns3:hr>
          </ns3:TrackPointExtension>
        </extensions>
      </trkpt>
      <trkpt lat="36.794601269066333770751953125" lon="-118.58174859546124935150146484375">
        <ele>1556.199951171875</ele>
        <time>2021-06-24T16:24:43.000Z</time>
        <extensions>
          <ns3:TrackPointExtension>
            <ns3:atemp>31.0</ns3:atemp>
            <ns3:hr>94</ns3:hr>
          </ns3:TrackPointExtension>
        </extensions>
      </trkpt>
      <trkpt lat="36.794596575200557708740234375" lon="-118.58171112835407257080078125">
        <ele>1556.199951171875</ele>
        <time>2021-06-24T16:24:46.000Z</time>
        <extensions>
          <ns3:TrackPointExtension>
            <ns3:atemp>31.0</ns3:atemp>
            <ns3:hr>91</ns3:hr>
          </ns3:TrackPointExtension>
        </extensions>
      </trkpt>
      <trkpt lat="36.7945990897715091705322265625" lon="-118.581686653196811676025390625">
        <ele>1556.199951171875</ele>
        <time>2021-06-24T16:24:49.000Z</time>
        <extensions>
          <ns3:TrackPointExtension>
            <ns3:atemp>31.0</ns3:atemp>
            <ns3:hr>88</ns3:hr>
          </ns3:TrackPointExtension>
        </extensions>
      </trkpt>
      <trkpt lat="36.7945902049541473388671875" lon="-118.58164415694773197174072265625">
        <ele>1555.800048828125</ele>
        <time>2021-06-24T16:24:52.000Z</time>
        <extensions>
          <ns3:TrackPointExtension>
            <ns3:atemp>31.0</ns3:atemp>
            <ns3:hr>87</ns3:hr>
          </ns3:TrackPointExtension>
        </extensions>
      </trkpt>
      <trkpt lat="36.79458928294479846954345703125" lon="-118.5815755091607570648193359375">
        <ele>1555.199951171875</ele>
        <time>2021-06-24T16:24:58.000Z</time>
        <extensions>
          <ns3:TrackPointExtension>
            <ns3:atemp>31.0</ns3:atemp>
            <ns3:hr>85</ns3:hr>
          </ns3:TrackPointExtension>
        </extensions>
      </trkpt>
      <trkpt lat="36.794590540230274200439453125" lon="-118.58150434680283069610595703125">
        <ele>1556.5999755859375</ele>
        <time>2021-06-24T16:25:06.000Z</time>
        <extensions>
          <ns3:TrackPointExtension>
            <ns3:atemp>31.0</ns3:atemp>
            <ns3:hr>83</ns3:hr>
          </ns3:TrackPointExtension>
        </extensions>
      </trkpt>
      <trkpt lat="36.7945970781147480010986328125" lon="-118.5814880020916461944580078125">
        <ele>1557</ele>
        <time>2021-06-24T16:25:09.000Z</time>
        <extensions>
          <ns3:TrackPointExtension>
            <ns3:atemp>31.0</ns3:atemp>
            <ns3:hr>81</ns3:hr>
          </ns3:TrackPointExtension>
        </extensions>
      </trkpt>
      <trkpt lat="36.7946027778089046478271484375" lon="-118.58147199265658855438232421875">
        <ele>1557.199951171875</ele>
        <time>2021-06-24T16:25:11.000Z</time>
        <extensions>
          <ns3:TrackPointExtension>
            <ns3:atemp>31.0</ns3:atemp>
            <ns3:hr>80</ns3:hr>
          </ns3:TrackPointExtension>
        </extensions>
      </trkpt>
      <trkpt lat="36.7946091480553150177001953125" lon="-118.58146746642887592315673828125">
        <ele>1557.199951171875</ele>
        <time>2021-06-24T16:25:12.000Z</time>
        <extensions>
          <ns3:TrackPointExtension>
            <ns3:atemp>31.0</ns3:atemp>
            <ns3:hr>80</ns3:hr>
          </ns3:TrackPointExtension>
        </extensions>
      </trkpt>
      <trkpt lat="36.79461677558720111846923828125" lon="-118.58145891688764095306396484375">
        <ele>1557.199951171875</ele>
        <time>2021-06-24T16:25:13.000Z</time>
        <extensions>
          <ns3:TrackPointExtension>
            <ns3:atemp>31.0</ns3:atemp>
            <ns3:hr>81</ns3:hr>
          </ns3:TrackPointExtension>
        </extensions>
      </trkpt>
      <trkpt lat="36.79461996071040630340576171875" lon="-118.5814333520829677581787109375">
        <ele>1557</ele>
        <time>2021-06-24T16:25:15.000Z</time>
        <extensions>
          <ns3:TrackPointExtension>
            <ns3:atemp>31.0</ns3:atemp>
            <ns3:hr>84</ns3:hr>
          </ns3:TrackPointExtension>
        </extensions>
      </trkpt>
      <trkpt lat="36.79462482221424579620361328125" lon="-118.58140795491635799407958984375">
        <ele>1556.5999755859375</ele>
        <time>2021-06-24T16:25:17.000Z</time>
        <extensions>
          <ns3:TrackPointExtension>
            <ns3:atemp>31.0</ns3:atemp>
            <ns3:hr>85</ns3:hr>
          </ns3:TrackPointExtension>
        </extensions>
      </trkpt>
      <trkpt lat="36.79462482221424579620361328125" lon="-118.581390269100666046142578125">
        <ele>1556.5999755859375</ele>
        <time>2021-06-24T16:25:18.000Z</time>
        <extensions>
          <ns3:TrackPointExtension>
            <ns3:atemp>31.0</ns3:atemp>
            <ns3:hr>86</ns3:hr>
          </ns3:TrackPointExtension>
        </extensions>
      </trkpt>
      <trkpt lat="36.79462574422359466552734375" lon="-118.5813740082085132598876953125">
        <ele>1556.5999755859375</ele>
        <time>2021-06-24T16:25:19.000Z</time>
        <extensions>
          <ns3:TrackPointExtension>
            <ns3:atemp>31.0</ns3:atemp>
            <ns3:hr>86</ns3:hr>
          </ns3:TrackPointExtension>
        </extensions>
      </trkpt>
      <trkpt lat="36.7946182005107402801513671875" lon="-118.5813250578939914703369140625">
        <ele>1556.5999755859375</ele>
        <time>2021-06-24T16:25:22.000Z</time>
        <extensions>
          <ns3:TrackPointExtension>
            <ns3:atemp>31.0</ns3:atemp>
            <ns3:hr>88</ns3:hr>
          </ns3:TrackPointExtension>
        </extensions>
      </trkpt>
      <trkpt lat="36.7946004308760166168212890625" lon="-118.5812479443848133087158203125">
        <ele>1556.4000244140625</ele>
        <time>2021-06-24T16:25:27.000Z</time>
        <extensions>
          <ns3:TrackPointExtension>
            <ns3:atemp>31.0</ns3:atemp>
            <ns3:hr>91</ns3:hr>
          </ns3:TrackPointExtension>
        </extensions>
      </trkpt>
      <trkpt lat="36.7946125008165836334228515625" lon="-118.5811359621584415435791015625">
        <ele>1556</ele>
        <time>2021-06-24T16:25:34.000Z</time>
        <extensions>
          <ns3:TrackPointExtension>
            <ns3:atemp>31.0</ns3:atemp>
            <ns3:hr>91</ns3:hr>
          </ns3:TrackPointExtension>
        </extensions>
      </trkpt>
      <trkpt lat="36.79461610503494739532470703125" lon="-118.581123389303684234619140625">
        <ele>1556</ele>
        <time>2021-06-24T16:25:35.000Z</time>
        <extensions>
          <ns3:TrackPointExtension>
            <ns3:atemp>31.0</ns3:atemp>
            <ns3:hr>91</ns3:hr>
          </ns3:TrackPointExtension>
        </extensions>
      </trkpt>
      <trkpt lat="36.79462633095681667327880859375" lon="-118.5810286737978458404541015625">
        <ele>1555.5999755859375</ele>
        <time>2021-06-24T16:25:41.000Z</time>
        <extensions>
          <ns3:TrackPointExtension>
            <ns3:atemp>31.0</ns3:atemp>
            <ns3:hr>89</ns3:hr>
          </ns3:TrackPointExtension>
        </extensions>
      </trkpt>
      <trkpt lat="36.79462281055748462677001953125" lon="-118.58096958138048648834228515625">
        <ele>1555.4000244140625</ele>
        <time>2021-06-24T16:25:46.000Z</time>
        <extensions>
          <ns3:TrackPointExtension>
            <ns3:atemp>31.0</ns3:atemp>
            <ns3:hr>86</ns3:hr>
          </ns3:TrackPointExtension>
        </extensions>
      </trkpt>
      <trkpt lat="36.79462683387100696563720703125" lon="-118.58095818199217319488525390625">
        <ele>1555.4000244140625</ele>
        <time>2021-06-24T16:25:47.000Z</time>
        <extensions>
          <ns3:TrackPointExtension>
            <ns3:atemp>31.0</ns3:atemp>
            <ns3:hr>86</ns3:hr>
          </ns3:TrackPointExtension>
        </extensions>
      </trkpt>
      <trkpt lat="36.79463890381157398223876953125" lon="-118.5809193737804889678955078125">
        <ele>1555.199951171875</ele>
        <time>2021-06-24T16:25:51.000Z</time>
        <extensions>
          <ns3:TrackPointExtension>
            <ns3:atemp>31.0</ns3:atemp>
            <ns3:hr>86</ns3:hr>
          </ns3:TrackPointExtension>
        </extensions>
      </trkpt>
      <trkpt lat="36.79463286884129047393798828125" lon="-118.580888696014881134033203125">
        <ele>1555</ele>
        <time>2021-06-24T16:25:53.000Z</time>
        <extensions>
          <ns3:TrackPointExtension>
            <ns3:atemp>31.0</ns3:atemp>
            <ns3:hr>86</ns3:hr>
          </ns3:TrackPointExtension>
        </extensions>
      </trkpt>
      <trkpt lat="36.79463219828903675079345703125" lon="-118.58087553642690181732177734375">
        <ele>1555</ele>
        <time>2021-06-24T16:25:54.000Z</time>
        <extensions>
          <ns3:TrackPointExtension>
            <ns3:atemp>31.0</ns3:atemp>
            <ns3:hr>86</ns3:hr>
          </ns3:TrackPointExtension>
        </extensions>
      </trkpt>
      <trkpt lat="36.7946359701454639434814453125" lon="-118.58085659332573413848876953125">
        <ele>1555</ele>
        <time>2021-06-24T16:25:56.000Z</time>
        <extensions>
          <ns3:TrackPointExtension>
            <ns3:atemp>31.0</ns3:atemp>
            <ns3:hr>86</ns3:hr>
          </ns3:TrackPointExtension>
        </extensions>
      </trkpt>
      <trkpt lat="36.794646196067333221435546875" lon="-118.5808365605771541595458984375">
        <ele>1555</ele>
        <time>2021-06-24T16:25:58.000Z</time>
        <extensions>
          <ns3:TrackPointExtension>
            <ns3:atemp>31.0</ns3:atemp>
            <ns3:hr>85</ns3:hr>
          </ns3:TrackPointExtension>
        </extensions>
      </trkpt>
      <trkpt lat="36.7946601100265979766845703125" lon="-118.58080244623124599456787109375">
        <ele>1555</ele>
        <time>2021-06-24T16:26:01.000Z</time>
        <extensions>
          <ns3:TrackPointExtension>
            <ns3:atemp>31.0</ns3:atemp>
            <ns3:hr>84</ns3:hr>
          </ns3:TrackPointExtension>
        </extensions>
      </trkpt>
      <trkpt lat="36.79466136731207370758056640625" lon="-118.5807855986058712005615234375">
        <ele>1555.199951171875</ele>
        <time>2021-06-24T16:26:03.000Z</time>
        <extensions>
          <ns3:TrackPointExtension>
            <ns3:atemp>31.0</ns3:atemp>
            <ns3:hr>84</ns3:hr>
          </ns3:TrackPointExtension>
        </extensions>
      </trkpt>
      <trkpt lat="36.79466840811073780059814453125" lon="-118.5807671584188938140869140625">
        <ele>1555.4000244140625</ele>
        <time>2021-06-24T16:26:05.000Z</time>
        <extensions>
          <ns3:TrackPointExtension>
            <ns3:atemp>31.0</ns3:atemp>
            <ns3:hr>83</ns3:hr>
          </ns3:TrackPointExtension>
        </extensions>
      </trkpt>
      <trkpt lat="36.79469204507768154144287109375" lon="-118.58068191446363925933837890625">
        <ele>1555.800048828125</ele>
        <time>2021-06-24T16:26:10.000Z</time>
        <extensions>
          <ns3:TrackPointExtension>
            <ns3:atemp>31.0</ns3:atemp>
            <ns3:hr>82</ns3:hr>
          </ns3:TrackPointExtension>
        </extensions>
      </trkpt>
      <trkpt lat="36.79469992406666278839111328125" lon="-118.5806662403047084808349609375">
        <ele>1555.800048828125</ele>
        <time>2021-06-24T16:26:11.000Z</time>
        <extensions>
          <ns3:TrackPointExtension>
            <ns3:atemp>31.0</ns3:atemp>
            <ns3:hr>82</ns3:hr>
          </ns3:TrackPointExtension>
        </extensions>
      </trkpt>
      <trkpt lat="36.79470042698085308074951171875" lon="-118.5806216485798358917236328125">
        <ele>1555.5999755859375</ele>
        <time>2021-06-24T16:26:13.000Z</time>
        <extensions>
          <ns3:TrackPointExtension>
            <ns3:atemp>31.0</ns3:atemp>
            <ns3:hr>81</ns3:hr>
          </ns3:TrackPointExtension>
        </extensions>
      </trkpt>
      <trkpt lat="36.79469606839120388031005859375" lon="-118.58054009266197681427001953125">
        <ele>1555.5999755859375</ele>
        <time>2021-06-24T16:26:17.000Z</time>
        <extensions>
          <ns3:TrackPointExtension>
            <ns3:atemp>31.0</ns3:atemp>
            <ns3:hr>81</ns3:hr>
          </ns3:TrackPointExtension>
        </extensions>
      </trkpt>
      <trkpt lat="36.79469690658152103424072265625" lon="-118.58052215538918972015380859375">
        <ele>1555.5999755859375</ele>
        <time>2021-06-24T16:26:18.000Z</time>
        <extensions>
          <ns3:TrackPointExtension>
            <ns3:atemp>31.0</ns3:atemp>
            <ns3:hr>81</ns3:hr>
          </ns3:TrackPointExtension>
        </extensions>
      </trkpt>
      <trkpt lat="36.79469824768602848052978515625" lon="-118.5805079899728298187255859375">
        <ele>1555.800048828125</ele>
        <time>2021-06-24T16:26:19.000Z</time>
        <extensions>
          <ns3:TrackPointExtension>
            <ns3:atemp>31.0</ns3:atemp>
            <ns3:hr>78</ns3:hr>
          </ns3:TrackPointExtension>
        </extensions>
      </trkpt>
      <trkpt lat="36.7946979962289333343505859375" lon="-118.58049667440354824066162109375">
        <ele>1555.800048828125</ele>
        <time>2021-06-24T16:26:20.000Z</time>
        <extensions>
          <ns3:TrackPointExtension>
            <ns3:atemp>31.0</ns3:atemp>
            <ns3:hr>82</ns3:hr>
          </ns3:TrackPointExtension>
        </extensions>
      </trkpt>
      <trkpt lat="36.79469657130539417266845703125" lon="-118.580487705767154693603515625">
        <ele>1555.800048828125</ele>
        <time>2021-06-24T16:26:21.000Z</time>
        <extensions>
          <ns3:TrackPointExtension>
            <ns3:atemp>31.0</ns3:atemp>
            <ns3:hr>82</ns3:hr>
          </ns3:TrackPointExtension>
        </extensions>
      </trkpt>
      <trkpt lat="36.79469690658152103424072265625" lon="-118.580452837049961090087890625">
        <ele>1555.800048828125</ele>
        <time>2021-06-24T16:26:23.000Z</time>
        <extensions>
          <ns3:TrackPointExtension>
            <ns3:atemp>31.0</ns3:atemp>
            <ns3:hr>82</ns3:hr>
          </ns3:TrackPointExtension>
        </extensions>
      </trkpt>
      <trkpt lat="36.79469606839120388031005859375" lon="-118.58043833635747432708740234375">
        <ele>1555.800048828125</ele>
        <time>2021-06-24T16:26:24.000Z</time>
        <extensions>
          <ns3:TrackPointExtension>
            <ns3:atemp>31.0</ns3:atemp>
            <ns3:hr>82</ns3:hr>
          </ns3:TrackPointExtension>
        </extensions>
      </trkpt>
      <trkpt lat="36.79469824768602848052978515625" lon="-118.5803762264549732208251953125">
        <ele>1556</ele>
        <time>2021-06-24T16:26:29.000Z</time>
        <extensions>
          <ns3:TrackPointExtension>
            <ns3:atemp>31.0</ns3:atemp>
            <ns3:hr>82</ns3:hr>
          </ns3:TrackPointExtension>
        </extensions>
      </trkpt>
      <trkpt lat="36.79470562376081943511962890625" lon="-118.5803680121898651123046875">
        <ele>1556.199951171875</ele>
        <time>2021-06-24T16:26:30.000Z</time>
        <extensions>
          <ns3:TrackPointExtension>
            <ns3:atemp>31.0</ns3:atemp>
            <ns3:hr>85</ns3:hr>
          </ns3:TrackPointExtension>
        </extensions>
      </trkpt>
      <trkpt lat="36.7947057075798511505126953125" lon="-118.58031579293310642242431640625">
        <ele>1556.199951171875</ele>
        <time>2021-06-24T16:26:34.000Z</time>
        <extensions>
          <ns3:TrackPointExtension>
            <ns3:atemp>31.0</ns3:atemp>
            <ns3:hr>82</ns3:hr>
          </ns3:TrackPointExtension>
        </extensions>
      </trkpt>
      <trkpt lat="36.7947036959230899810791015625" lon="-118.58026281930506229400634765625">
        <ele>1556.199951171875</ele>
        <time>2021-06-24T16:26:38.000Z</time>
        <extensions>
          <ns3:TrackPointExtension>
            <ns3:atemp>31.0</ns3:atemp>
            <ns3:hr>83</ns3:hr>
          </ns3:TrackPointExtension>
        </extensions>
      </trkpt>
      <trkpt lat="36.79472138173878192901611328125" lon="-118.58016642741858959197998046875">
        <ele>1556.199951171875</ele>
        <time>2021-06-24T16:26:46.000Z</time>
        <extensions>
          <ns3:TrackPointExtension>
            <ns3:atemp>31.0</ns3:atemp>
            <ns3:hr>85</ns3:hr>
          </ns3:TrackPointExtension>
        </extensions>
      </trkpt>
      <trkpt lat="36.79472171701490879058837890625" lon="-118.58006718568503856658935546875">
        <ele>1555.800048828125</ele>
        <time>2021-06-24T16:26:53.000Z</time>
        <extensions>
          <ns3:TrackPointExtension>
            <ns3:atemp>31.0</ns3:atemp>
            <ns3:hr>88</ns3:hr>
          </ns3:TrackPointExtension>
        </extensions>
      </trkpt>
      <trkpt lat="36.7947135865688323974609375" lon="-118.58004488982260227203369140625">
        <ele>1556</ele>
        <time>2021-06-24T16:26:55.000Z</time>
        <extensions>
          <ns3:TrackPointExtension>
            <ns3:atemp>31.0</ns3:atemp>
            <ns3:hr>86</ns3:hr>
          </ns3:TrackPointExtension>
        </extensions>
      </trkpt>
      <trkpt lat="36.79472322575747966766357421875" lon="-118.57996995560824871063232421875">
        <ele>1556</ele>
        <time>2021-06-24T16:27:01.000Z</time>
        <extensions>
          <ns3:TrackPointExtension>
            <ns3:atemp>31.0</ns3:atemp>
            <ns3:hr>88</ns3:hr>
          </ns3:TrackPointExtension>
        </extensions>
      </trkpt>
      <trkpt lat="36.794728673994541168212890625" lon="-118.57993156649172306060791015625">
        <ele>1556</ele>
        <time>2021-06-24T16:27:03.000Z</time>
        <extensions>
          <ns3:TrackPointExtension>
            <ns3:atemp>31.0</ns3:atemp>
            <ns3:hr>89</ns3:hr>
          </ns3:TrackPointExtension>
        </extensions>
      </trkpt>
      <trkpt lat="36.794723309576511383056640625" lon="-118.57988395728170871734619140625">
        <ele>1555.800048828125</ele>
        <time>2021-06-24T16:27:06.000Z</time>
        <extensions>
          <ns3:TrackPointExtension>
            <ns3:atemp>31.0</ns3:atemp>
            <ns3:hr>92</ns3:hr>
          </ns3:TrackPointExtension>
        </extensions>
      </trkpt>
      <trkpt lat="36.7947271652519702911376953125" lon="-118.57982176356017589569091796875">
        <ele>1555.5999755859375</ele>
        <time>2021-06-24T16:27:09.000Z</time>
        <extensions>
          <ns3:TrackPointExtension>
            <ns3:atemp>31.0</ns3:atemp>
            <ns3:hr>92</ns3:hr>
          </ns3:TrackPointExtension>
        </extensions>
      </trkpt>
      <trkpt lat="36.794728003442287445068359375" lon="-118.57980701141059398651123046875">
        <ele>1555.5999755859375</ele>
        <time>2021-06-24T16:27:10.000Z</time>
        <extensions>
          <ns3:TrackPointExtension>
            <ns3:atemp>31.0</ns3:atemp>
            <ns3:hr>92</ns3:hr>
          </ns3:TrackPointExtension>
        </extensions>
      </trkpt>
      <trkpt lat="36.79471559822559356689453125" lon="-118.57972973026335239410400390625">
        <ele>1555.4000244140625</ele>
        <time>2021-06-24T16:27:17.000Z</time>
        <extensions>
          <ns3:TrackPointExtension>
            <ns3:atemp>31.0</ns3:atemp>
            <ns3:hr>89</ns3:hr>
          </ns3:TrackPointExtension>
        </extensions>
      </trkpt>
      <trkpt lat="36.79470746777951717376708984375" lon="-118.57971020042896270751953125">
        <ele>1555.4000244140625</ele>
        <time>2021-06-24T16:27:18.000Z</time>
        <extensions>
          <ns3:TrackPointExtension>
            <ns3:atemp>31.0</ns3:atemp>
            <ns3:hr>90</ns3:hr>
          </ns3:TrackPointExtension>
        </extensions>
      </trkpt>
      <trkpt lat="36.79471082054078578948974609375" lon="-118.57963241636753082275390625">
        <ele>1555.199951171875</ele>
        <time>2021-06-24T16:27:24.000Z</time>
        <extensions>
          <ns3:TrackPointExtension>
            <ns3:atemp>31.0</ns3:atemp>
            <ns3:hr>89</ns3:hr>
          </ns3:TrackPointExtension>
        </extensions>
      </trkpt>
      <trkpt lat="36.794713251292705535888671875" lon="-118.5795544646680355072021484375">
        <ele>1555.5999755859375</ele>
        <time>2021-06-24T16:27:29.000Z</time>
        <extensions>
          <ns3:TrackPointExtension>
            <ns3:atemp>31.0</ns3:atemp>
            <ns3:hr>89</ns3:hr>
          </ns3:TrackPointExtension>
        </extensions>
      </trkpt>
      <trkpt lat="36.7947120778262615203857421875" lon="-118.57951096259057521820068359375">
        <ele>1555.5999755859375</ele>
        <time>2021-06-24T16:27:31.000Z</time>
        <extensions>
          <ns3:TrackPointExtension>
            <ns3:atemp>31.0</ns3:atemp>
            <ns3:hr>86</ns3:hr>
          </ns3:TrackPointExtension>
        </extensions>
      </trkpt>
      <trkpt lat="36.7947204597294330596923828125" lon="-118.57949503697454929351806640625">
        <ele>1555.5999755859375</ele>
        <time>2021-06-24T16:27:32.000Z</time>
        <extensions>
          <ns3:TrackPointExtension>
            <ns3:atemp>31.0</ns3:atemp>
            <ns3:hr>85</ns3:hr>
          </ns3:TrackPointExtension>
        </extensions>
      </trkpt>
      <trkpt lat="36.79473076947033405303955078125" lon="-118.57948699034750461578369140625">
        <ele>1555.5999755859375</ele>
        <time>2021-06-24T16:27:33.000Z</time>
        <extensions>
          <ns3:TrackPointExtension>
            <ns3:atemp>31.0</ns3:atemp>
            <ns3:hr>88</ns3:hr>
          </ns3:TrackPointExtension>
        </extensions>
      </trkpt>
      <trkpt lat="36.79473663680255413055419921875" lon="-118.57947056181728839874267578125">
        <ele>1555.800048828125</ele>
        <time>2021-06-24T16:27:34.000Z</time>
        <extensions>
          <ns3:TrackPointExtension>
            <ns3:atemp>31.0</ns3:atemp>
            <ns3:hr>88</ns3:hr>
          </ns3:TrackPointExtension>
        </extensions>
      </trkpt>
      <trkpt lat="36.7947469465434551239013671875" lon="-118.57942731119692325592041015625">
        <ele>1556.199951171875</ele>
        <time>2021-06-24T16:27:39.000Z</time>
        <extensions>
          <ns3:TrackPointExtension>
            <ns3:atemp>31.0</ns3:atemp>
            <ns3:hr>88</ns3:hr>
          </ns3:TrackPointExtension>
        </extensions>
      </trkpt>
      <trkpt lat="36.79476178251206874847412109375" lon="-118.5793603397905826568603515625">
        <ele>1556.4000244140625</ele>
        <time>2021-06-24T16:27:45.000Z</time>
        <extensions>
          <ns3:TrackPointExtension>
            <ns3:atemp>31.0</ns3:atemp>
            <ns3:hr>85</ns3:hr>
          </ns3:TrackPointExtension>
        </extensions>
      </trkpt>
      <trkpt lat="36.794793047010898590087890625" lon="-118.57930744998157024383544921875">
        <ele>1556.5999755859375</ele>
        <time>2021-06-24T16:27:49.000Z</time>
        <extensions>
          <ns3:TrackPointExtension>
            <ns3:atemp>31.0</ns3:atemp>
            <ns3:hr>89</ns3:hr>
          </ns3:TrackPointExtension>
        </extensions>
      </trkpt>
      <trkpt lat="36.794825233519077301025390625" lon="-118.5792141593992710113525390625">
        <ele>1556.5999755859375</ele>
        <time>2021-06-24T16:27:57.000Z</time>
        <extensions>
          <ns3:TrackPointExtension>
            <ns3:atemp>31.0</ns3:atemp>
            <ns3:hr>90</ns3:hr>
          </ns3:TrackPointExtension>
        </extensions>
      </trkpt>
      <trkpt lat="36.79487644694745540618896484375" lon="-118.5791605152189731597900390625">
        <ele>1557</ele>
        <time>2021-06-24T16:28:04.000Z</time>
        <extensions>
          <ns3:TrackPointExtension>
            <ns3:atemp>31.0</ns3:atemp>
            <ns3:hr>92</ns3:hr>
          </ns3:TrackPointExtension>
        </extensions>
      </trkpt>
      <trkpt lat="36.79490963928401470184326171875" lon="-118.579096309840679168701171875">
        <ele>1557.4000244140625</ele>
        <time>2021-06-24T16:28:10.000Z</time>
        <extensions>
          <ns3:TrackPointExtension>
            <ns3:atemp>31.0</ns3:atemp>
            <ns3:hr>92</ns3:hr>
          </ns3:TrackPointExtension>
        </extensions>
      </trkpt>
      <trkpt lat="36.79492623545229434967041015625" lon="-118.5790716670453548431396484375">
        <ele>1557.4000244140625</ele>
        <time>2021-06-24T16:28:13.000Z</time>
        <extensions>
          <ns3:TrackPointExtension>
            <ns3:atemp>31.0</ns3:atemp>
            <ns3:hr>91</ns3:hr>
          </ns3:TrackPointExtension>
        </extensions>
      </trkpt>
      <trkpt lat="36.794964373111724853515625" lon="-118.5790321044623851776123046875">
        <ele>1557.4000244140625</ele>
        <time>2021-06-24T16:28:17.000Z</time>
        <extensions>
          <ns3:TrackPointExtension>
            <ns3:atemp>31.0</ns3:atemp>
            <ns3:hr>93</ns3:hr>
          </ns3:TrackPointExtension>
        </extensions>
      </trkpt>
      <trkpt lat="36.794984154403209686279296875" lon="-118.57901953160762786865234375">
        <ele>1557.4000244140625</ele>
        <time>2021-06-24T16:28:18.000Z</time>
        <extensions>
          <ns3:TrackPointExtension>
            <ns3:atemp>31.0</ns3:atemp>
            <ns3:hr>89</ns3:hr>
          </ns3:TrackPointExtension>
        </extensions>
      </trkpt>
      <trkpt lat="36.79499857127666473388671875" lon="-118.5790066234767436981201171875">
        <ele>1557.4000244140625</ele>
        <time>2021-06-24T16:28:19.000Z</time>
        <extensions>
          <ns3:TrackPointExtension>
            <ns3:atemp>31.0</ns3:atemp>
            <ns3:hr>93</ns3:hr>
          </ns3:TrackPointExtension>
        </extensions>
      </trkpt>
      <trkpt lat="36.79502748884260654449462890625" lon="-118.57898005284368991851806640625">
        <ele>1557.4000244140625</ele>
        <time>2021-06-24T16:28:21.000Z</time>
        <extensions>
          <ns3:TrackPointExtension>
            <ns3:atemp>31.0</ns3:atemp>
            <ns3:hr>96</ns3:hr>
          </ns3:TrackPointExtension>
        </extensions>
      </trkpt>
      <trkpt lat="36.795036457479000091552734375" lon="-118.57896680943667888641357421875">
        <ele>1557.5999755859375</ele>
        <time>2021-06-24T16:28:22.000Z</time>
        <extensions>
          <ns3:TrackPointExtension>
            <ns3:atemp>31.0</ns3:atemp>
            <ns3:hr>93</ns3:hr>
          </ns3:TrackPointExtension>
        </extensions>
      </trkpt>
      <trkpt lat="36.79505498148500919342041015625" lon="-118.57894803397357463836669921875">
        <ele>1557.5999755859375</ele>
        <time>2021-06-24T16:28:24.000Z</time>
        <extensions>
          <ns3:TrackPointExtension>
            <ns3:atemp>31.0</ns3:atemp>
            <ns3:hr>94</ns3:hr>
          </ns3:TrackPointExtension>
        </extensions>
      </trkpt>
      <trkpt lat="36.79509370587766170501708984375" lon="-118.578930683434009552001953125">
        <ele>1558</ele>
        <time>2021-06-24T16:28:27.000Z</time>
        <extensions>
          <ns3:TrackPointExtension>
            <ns3:atemp>31.0</ns3:atemp>
            <ns3:hr>95</ns3:hr>
          </ns3:TrackPointExtension>
        </extensions>
      </trkpt>
      <trkpt lat="36.795132346451282501220703125" lon="-118.57887041755020618438720703125">
        <ele>1558.199951171875</ele>
        <time>2021-06-24T16:28:33.000Z</time>
        <extensions>
          <ns3:TrackPointExtension>
            <ns3:atemp>31.0</ns3:atemp>
            <ns3:hr>94</ns3:hr>
          </ns3:TrackPointExtension>
        </extensions>
      </trkpt>
      <trkpt lat="36.79513863287866115570068359375" lon="-118.57886069454252719879150390625">
        <ele>1558.199951171875</ele>
        <time>2021-06-24T16:28:34.000Z</time>
        <extensions>
          <ns3:TrackPointExtension>
            <ns3:atemp>31.0</ns3:atemp>
            <ns3:hr>97</ns3:hr>
          </ns3:TrackPointExtension>
        </extensions>
      </trkpt>
      <trkpt lat="36.79518037475645542144775390625" lon="-118.57877000235021114349365234375">
        <ele>1557.4000244140625</ele>
        <time>2021-06-24T16:28:40.000Z</time>
        <extensions>
          <ns3:TrackPointExtension>
            <ns3:atemp>31.0</ns3:atemp>
            <ns3:hr>97</ns3:hr>
          </ns3:TrackPointExtension>
        </extensions>
      </trkpt>
      <trkpt lat="36.79520803503692150115966796875" lon="-118.5787618719041347503662109375">
        <ele>1557.4000244140625</ele>
        <time>2021-06-24T16:28:43.000Z</time>
        <extensions>
          <ns3:TrackPointExtension>
            <ns3:atemp>31.0</ns3:atemp>
            <ns3:hr>100</ns3:hr>
          </ns3:TrackPointExtension>
        </extensions>
      </trkpt>
      <trkpt lat="36.79525312967598438262939453125" lon="-118.5787109099328517913818359375">
        <ele>1558.4000244140625</ele>
        <time>2021-06-24T16:28:49.000Z</time>
        <extensions>
          <ns3:TrackPointExtension>
            <ns3:atemp>31.0</ns3:atemp>
            <ns3:hr>102</ns3:hr>
          </ns3:TrackPointExtension>
        </extensions>
      </trkpt>
      <trkpt lat="36.7952582426369190216064453125" lon="-118.57865751720964908599853515625">
        <ele>1558.4000244140625</ele>
        <time>2021-06-24T16:28:54.000Z</time>
        <extensions>
          <ns3:TrackPointExtension>
            <ns3:atemp>31.0</ns3:atemp>
            <ns3:hr>99</ns3:hr>
          </ns3:TrackPointExtension>
        </extensions>
      </trkpt>
      <trkpt lat="36.79526821710169315338134765625" lon="-118.57862382195889949798583984375">
        <ele>1558.5999755859375</ele>
        <time>2021-06-24T16:28:57.000Z</time>
        <extensions>
          <ns3:TrackPointExtension>
            <ns3:atemp>31.0</ns3:atemp>
            <ns3:hr>98</ns3:hr>
          </ns3:TrackPointExtension>
        </extensions>
      </trkpt>
      <trkpt lat="36.79530560038983821868896484375" lon="-118.57858392409980297088623046875">
        <ele>1559</ele>
        <time>2021-06-24T16:29:03.000Z</time>
        <extensions>
          <ns3:TrackPointExtension>
            <ns3:atemp>31.0</ns3:atemp>
            <ns3:hr>96</ns3:hr>
          </ns3:TrackPointExtension>
        </extensions>
      </trkpt>
      <trkpt lat="36.79531984962522983551025390625" lon="-118.57852374203503131866455078125">
        <ele>1559.199951171875</ele>
        <time>2021-06-24T16:29:07.000Z</time>
        <extensions>
          <ns3:TrackPointExtension>
            <ns3:atemp>31.0</ns3:atemp>
            <ns3:hr>95</ns3:hr>
          </ns3:TrackPointExtension>
        </extensions>
      </trkpt>
      <trkpt lat="36.79533342830836772918701171875" lon="-118.5785023681819438934326171875">
        <ele>1559.199951171875</ele>
        <time>2021-06-24T16:29:09.000Z</time>
        <extensions>
          <ns3:TrackPointExtension>
            <ns3:atemp>31.0</ns3:atemp>
            <ns3:hr>94</ns3:hr>
          </ns3:TrackPointExtension>
        </extensions>
      </trkpt>
      <trkpt lat="36.79537005722522735595703125" lon="-118.57840941287577152252197265625">
        <ele>1559</ele>
        <time>2021-06-24T16:29:15.000Z</time>
        <extensions>
          <ns3:TrackPointExtension>
            <ns3:atemp>31.0</ns3:atemp>
            <ns3:hr>95</ns3:hr>
          </ns3:TrackPointExtension>
        </extensions>
      </trkpt>
      <trkpt lat="36.7953672073781490325927734375" lon="-118.5783491469919681549072265625">
        <ele>1558.800048828125</ele>
        <time>2021-06-24T16:29:19.000Z</time>
        <extensions>
          <ns3:TrackPointExtension>
            <ns3:atemp>31.0</ns3:atemp>
            <ns3:hr>98</ns3:hr>
          </ns3:TrackPointExtension>
        </extensions>
      </trkpt>
      <trkpt lat="36.79538774304091930389404296875" lon="-118.5783075727522373199462890625">
        <ele>1558.5999755859375</ele>
        <time>2021-06-24T16:29:22.000Z</time>
        <extensions>
          <ns3:TrackPointExtension>
            <ns3:atemp>31.0</ns3:atemp>
            <ns3:hr>100</ns3:hr>
          </ns3:TrackPointExtension>
        </extensions>
      </trkpt>
      <trkpt lat="36.79539210163056850433349609375" lon="-118.578280247747898101806640625">
        <ele>1558.800048828125</ele>
        <time>2021-06-24T16:29:24.000Z</time>
        <extensions>
          <ns3:TrackPointExtension>
            <ns3:atemp>31.0</ns3:atemp>
            <ns3:hr>100</ns3:hr>
          </ns3:TrackPointExtension>
        </extensions>
      </trkpt>
      <trkpt lat="36.7954007349908351898193359375" lon="-118.578215539455413818359375">
        <ele>1558.4000244140625</ele>
        <time>2021-06-24T16:29:28.000Z</time>
        <extensions>
          <ns3:TrackPointExtension>
            <ns3:atemp>31.0</ns3:atemp>
            <ns3:hr>103</ns3:hr>
          </ns3:TrackPointExtension>
        </extensions>
      </trkpt>
      <trkpt lat="36.7954040877521038055419921875" lon="-118.57820212841033935546875">
        <ele>1558.4000244140625</ele>
        <time>2021-06-24T16:29:29.000Z</time>
        <extensions>
          <ns3:TrackPointExtension>
            <ns3:atemp>31.0</ns3:atemp>
            <ns3:hr>103</ns3:hr>
          </ns3:TrackPointExtension>
        </extensions>
      </trkpt>
      <trkpt lat="36.79543535225093364715576171875" lon="-118.5781328938901424407958984375">
        <ele>1558.199951171875</ele>
        <time>2021-06-24T16:29:34.000Z</time>
        <extensions>
          <ns3:TrackPointExtension>
            <ns3:atemp>31.0</ns3:atemp>
            <ns3:hr>106</ns3:hr>
          </ns3:TrackPointExtension>
        </extensions>
      </trkpt>
      <trkpt lat="36.79544381797313690185546875" lon="-118.578079752624034881591796875">
        <ele>1558.199951171875</ele>
        <time>2021-06-24T16:29:37.000Z</time>
        <extensions>
          <ns3:TrackPointExtension>
            <ns3:atemp>31.0</ns3:atemp>
            <ns3:hr>106</ns3:hr>
          </ns3:TrackPointExtension>
        </extensions>
      </trkpt>
      <trkpt lat="36.79544172249734401702880859375" lon="-118.57806005515158176422119140625">
        <ele>1558.199951171875</ele>
        <time>2021-06-24T16:29:38.000Z</time>
        <extensions>
          <ns3:TrackPointExtension>
            <ns3:atemp>31.0</ns3:atemp>
            <ns3:hr>103</ns3:hr>
          </ns3:TrackPointExtension>
        </extensions>
      </trkpt>
      <trkpt lat="36.7954429797828197479248046875" lon="-118.57804513536393642425537109375">
        <ele>1558.199951171875</ele>
        <time>2021-06-24T16:29:39.000Z</time>
        <extensions>
          <ns3:TrackPointExtension>
            <ns3:atemp>31.0</ns3:atemp>
            <ns3:hr>103</ns3:hr>
          </ns3:TrackPointExtension>
        </extensions>
      </trkpt>
      <trkpt lat="36.79544356651604175567626953125" lon="-118.577988557517528533935546875">
        <ele>1558.199951171875</ele>
        <time>2021-06-24T16:29:42.000Z</time>
        <extensions>
          <ns3:TrackPointExtension>
            <ns3:atemp>31.0</ns3:atemp>
            <ns3:hr>106</ns3:hr>
          </ns3:TrackPointExtension>
        </extensions>
      </trkpt>
      <trkpt lat="36.79546837694942951202392578125" lon="-118.57791303656995296478271484375">
        <ele>1558.199951171875</ele>
        <time>2021-06-24T16:29:47.000Z</time>
        <extensions>
          <ns3:TrackPointExtension>
            <ns3:atemp>31.0</ns3:atemp>
            <ns3:hr>103</ns3:hr>
          </ns3:TrackPointExtension>
        </extensions>
      </trkpt>
      <trkpt lat="36.79547734558582305908203125" lon="-118.57788001187145709991455078125">
        <ele>1558.4000244140625</ele>
        <time>2021-06-24T16:29:50.000Z</time>
        <extensions>
          <ns3:TrackPointExtension>
            <ns3:atemp>31.0</ns3:atemp>
            <ns3:hr>104</ns3:hr>
          </ns3:TrackPointExtension>
        </extensions>
      </trkpt>
      <trkpt lat="36.7954889126121997833251953125" lon="-118.57784338295459747314453125">
        <ele>1558.199951171875</ele>
        <time>2021-06-24T16:29:53.000Z</time>
        <extensions>
          <ns3:TrackPointExtension>
            <ns3:atemp>31.0</ns3:atemp>
            <ns3:hr>99</ns3:hr>
          </ns3:TrackPointExtension>
        </extensions>
      </trkpt>
      <trkpt lat="36.79549251683056354522705078125" lon="-118.5778279602527618408203125">
        <ele>1558</ele>
        <time>2021-06-24T16:29:54.000Z</time>
        <extensions>
          <ns3:TrackPointExtension>
            <ns3:atemp>31.0</ns3:atemp>
            <ns3:hr>101</ns3:hr>
          </ns3:TrackPointExtension>
        </extensions>
      </trkpt>
      <trkpt lat="36.7955358512699604034423828125" lon="-118.57771237380802631378173828125">
        <ele>1558</ele>
        <time>2021-06-24T16:30:03.000Z</time>
        <extensions>
          <ns3:TrackPointExtension>
            <ns3:atemp>31.0</ns3:atemp>
            <ns3:hr>99</ns3:hr>
          </ns3:TrackPointExtension>
        </extensions>
      </trkpt>
      <trkpt lat="36.795536689460277557373046875" lon="-118.5776081867516040802001953125">
        <ele>1558.4000244140625</ele>
        <time>2021-06-24T16:30:10.000Z</time>
        <extensions>
          <ns3:TrackPointExtension>
            <ns3:atemp>32.0</ns3:atemp>
            <ns3:hr>98</ns3:hr>
          </ns3:TrackPointExtension>
        </extensions>
      </trkpt>
      <trkpt lat="36.7955303192138671875" lon="-118.5775253735482692718505859375">
        <ele>1557.800048828125</ele>
        <time>2021-06-24T16:30:15.000Z</time>
        <extensions>
          <ns3:TrackPointExtension>
            <ns3:atemp>32.0</ns3:atemp>
            <ns3:hr>95</ns3:hr>
          </ns3:TrackPointExtension>
        </extensions>
      </trkpt>
      <trkpt lat="36.79553962312638759613037109375" lon="-118.57748941518366336822509765625">
        <ele>1558</ele>
        <time>2021-06-24T16:30:18.000Z</time>
        <extensions>
          <ns3:TrackPointExtension>
            <ns3:atemp>32.0</ns3:atemp>
            <ns3:hr>93</ns3:hr>
          </ns3:TrackPointExtension>
        </extensions>
      </trkpt>
      <trkpt lat="36.7955479212105274200439453125" lon="-118.57745119370520114898681640625">
        <ele>1557.5999755859375</ele>
        <time>2021-06-24T16:30:21.000Z</time>
        <extensions>
          <ns3:TrackPointExtension>
            <ns3:atemp>32.0</ns3:atemp>
            <ns3:hr>94</ns3:hr>
          </ns3:TrackPointExtension>
        </extensions>
      </trkpt>
      <trkpt lat="36.79557415656745433807373046875" lon="-118.57733108103275299072265625">
        <ele>1557.800048828125</ele>
        <time>2021-06-24T16:30:30.000Z</time>
        <extensions>
          <ns3:TrackPointExtension>
            <ns3:atemp>32.0</ns3:atemp>
            <ns3:hr>95</ns3:hr>
          </ns3:TrackPointExtension>
        </extensions>
      </trkpt>
      <trkpt lat="36.79555370472371578216552734375" lon="-118.57715539634227752685546875">
        <ele>1557.4000244140625</ele>
        <time>2021-06-24T16:30:39.000Z</time>
        <extensions>
          <ns3:TrackPointExtension>
            <ns3:atemp>32.0</ns3:atemp>
            <ns3:hr>97</ns3:hr>
          </ns3:TrackPointExtension>
        </extensions>
      </trkpt>
      <trkpt lat="36.7955794371664524078369140625" lon="-118.57705556787550449371337890625">
        <ele>1557.800048828125</ele>
        <time>2021-06-24T16:30:47.000Z</time>
        <extensions>
          <ns3:TrackPointExtension>
            <ns3:atemp>32.0</ns3:atemp>
            <ns3:hr>96</ns3:hr>
          </ns3:TrackPointExtension>
        </extensions>
      </trkpt>
      <trkpt lat="36.79559477604925632476806640625" lon="-118.5770103894174098968505859375">
        <ele>1558.199951171875</ele>
        <time>2021-06-24T16:30:51.000Z</time>
        <extensions>
          <ns3:TrackPointExtension>
            <ns3:atemp>32.0</ns3:atemp>
            <ns3:hr>93</ns3:hr>
          </ns3:TrackPointExtension>
        </extensions>
      </trkpt>
      <trkpt lat="36.79559527896344661712646484375" lon="-118.57698314823210239410400390625">
        <ele>1558</ele>
        <time>2021-06-24T16:30:53.000Z</time>
        <extensions>
          <ns3:TrackPointExtension>
            <ns3:atemp>32.0</ns3:atemp>
            <ns3:hr>92</ns3:hr>
          </ns3:TrackPointExtension>
        </extensions>
      </trkpt>
      <trkpt lat="36.79559008218348026275634765625" lon="-118.5769664682447910308837890625">
        <ele>1558</ele>
        <time>2021-06-24T16:30:55.000Z</time>
        <extensions>
          <ns3:TrackPointExtension>
            <ns3:atemp>32.0</ns3:atemp>
            <ns3:hr>91</ns3:hr>
          </ns3:TrackPointExtension>
        </extensions>
      </trkpt>
      <trkpt lat="36.79558999836444854736328125" lon="-118.57696269638836383819580078125">
        <ele>1558</ele>
        <time>2021-06-24T16:30:57.000Z</time>
        <extensions>
          <ns3:TrackPointExtension>
            <ns3:atemp>32.0</ns3:atemp>
            <ns3:hr>90</ns3:hr>
          </ns3:TrackPointExtension>
        </extensions>
      </trkpt>
      <trkpt lat="36.795597374439239501953125" lon="-118.57685121707618236541748046875">
        <ele>1558.199951171875</ele>
        <time>2021-06-24T16:31:03.000Z</time>
        <extensions>
          <ns3:TrackPointExtension>
            <ns3:atemp>32.0</ns3:atemp>
            <ns3:hr>92</ns3:hr>
          </ns3:TrackPointExtension>
        </extensions>
      </trkpt>
      <trkpt lat="36.79559913463890552520751953125" lon="-118.57680746354162693023681640625">
        <ele>1558.4000244140625</ele>
        <time>2021-06-24T16:31:07.000Z</time>
        <extensions>
          <ns3:TrackPointExtension>
            <ns3:atemp>32.0</ns3:atemp>
            <ns3:hr>96</ns3:hr>
          </ns3:TrackPointExtension>
        </extensions>
      </trkpt>
      <trkpt lat="36.79560081101953983306884765625" lon="-118.576782234013080596923828125">
        <ele>1558.4000244140625</ele>
        <time>2021-06-24T16:31:09.000Z</time>
        <extensions>
          <ns3:TrackPointExtension>
            <ns3:atemp>32.0</ns3:atemp>
            <ns3:hr>100</ns3:hr>
          </ns3:TrackPointExtension>
        </extensions>
      </trkpt>
      <trkpt lat="36.79559930227696895599365234375" lon="-118.57676488347351551055908203125">
        <ele>1558.5999755859375</ele>
        <time>2021-06-24T16:31:11.000Z</time>
        <extensions>
          <ns3:TrackPointExtension>
            <ns3:atemp>32.0</ns3:atemp>
            <ns3:hr>103</ns3:hr>
          </ns3:TrackPointExtension>
        </extensions>
      </trkpt>
      <trkpt lat="36.79559804499149322509765625" lon="-118.576757423579692840576171875">
        <ele>1558.800048828125</ele>
        <time>2021-06-24T16:31:12.000Z</time>
        <extensions>
          <ns3:TrackPointExtension>
            <ns3:atemp>32.0</ns3:atemp>
            <ns3:hr>105</ns3:hr>
          </ns3:TrackPointExtension>
        </extensions>
      </trkpt>
      <trkpt lat="36.7956210114061832427978515625" lon="-118.576730601489543914794921875">
        <ele>1559</ele>
        <time>2021-06-24T16:31:16.000Z</time>
        <extensions>
          <ns3:TrackPointExtension>
            <ns3:atemp>32.0</ns3:atemp>
            <ns3:hr>108</ns3:hr>
          </ns3:TrackPointExtension>
        </extensions>
      </trkpt>
      <trkpt lat="36.7956309020519256591796875" lon="-118.57671777717769145965576171875">
        <ele>1559.199951171875</ele>
        <time>2021-06-24T16:31:17.000Z</time>
        <extensions>
          <ns3:TrackPointExtension>
            <ns3:atemp>32.0</ns3:atemp>
            <ns3:hr>110</ns3:hr>
          </ns3:TrackPointExtension>
        </extensions>
      </trkpt>
      <trkpt lat="36.79563266225159168243408203125" lon="-118.5767019353806972503662109375">
        <ele>1559.199951171875</ele>
        <time>2021-06-24T16:31:18.000Z</time>
        <extensions>
          <ns3:TrackPointExtension>
            <ns3:atemp>32.0</ns3:atemp>
            <ns3:hr>110</ns3:hr>
          </ns3:TrackPointExtension>
        </extensions>
      </trkpt>
      <trkpt lat="36.7956364341080188751220703125" lon="-118.57664317823946475982666015625">
        <ele>1559.199951171875</ele>
        <time>2021-06-24T16:31:22.000Z</time>
        <extensions>
          <ns3:TrackPointExtension>
            <ns3:atemp>31.0</ns3:atemp>
            <ns3:hr>113</ns3:hr>
          </ns3:TrackPointExtension>
        </extensions>
      </trkpt>
      <trkpt lat="36.795643977820873260498046875" lon="-118.57658383436501026153564453125">
        <ele>1559.199951171875</ele>
        <time>2021-06-24T16:31:26.000Z</time>
        <extensions>
          <ns3:TrackPointExtension>
            <ns3:atemp>31.0</ns3:atemp>
            <ns3:hr>114</ns3:hr>
          </ns3:TrackPointExtension>
        </extensions>
      </trkpt>
      <trkpt lat="36.79564137943089008331298828125" lon="-118.5765708424150943756103515625">
        <ele>1559.199951171875</ele>
        <time>2021-06-24T16:31:27.000Z</time>
        <extensions>
          <ns3:TrackPointExtension>
            <ns3:atemp>31.0</ns3:atemp>
            <ns3:hr>115</ns3:hr>
          </ns3:TrackPointExtension>
        </extensions>
      </trkpt>
      <trkpt lat="36.79563098587095737457275390625" lon="-118.5765404999256134033203125">
        <ele>1559.4000244140625</ele>
        <time>2021-06-24T16:31:30.000Z</time>
        <extensions>
          <ns3:TrackPointExtension>
            <ns3:atemp>31.0</ns3:atemp>
            <ns3:hr>118</ns3:hr>
          </ns3:TrackPointExtension>
        </extensions>
      </trkpt>
      <trkpt lat="36.79563425481319427490234375" lon="-118.57650890015065670013427734375">
        <ele>1559.5999755859375</ele>
        <time>2021-06-24T16:31:32.000Z</time>
        <extensions>
          <ns3:TrackPointExtension>
            <ns3:atemp>31.0</ns3:atemp>
            <ns3:hr>117</ns3:hr>
          </ns3:TrackPointExtension>
        </extensions>
      </trkpt>
      <trkpt lat="36.79563157260417938232421875" lon="-118.57649825513362884521484375">
        <ele>1559.5999755859375</ele>
        <time>2021-06-24T16:31:33.000Z</time>
        <extensions>
          <ns3:TrackPointExtension>
            <ns3:atemp>31.0</ns3:atemp>
            <ns3:hr>120</ns3:hr>
          </ns3:TrackPointExtension>
        </extensions>
      </trkpt>
      <trkpt lat="36.7956317402422428131103515625" lon="-118.57645559124648571014404296875">
        <ele>1559.800048828125</ele>
        <time>2021-06-24T16:31:36.000Z</time>
        <extensions>
          <ns3:TrackPointExtension>
            <ns3:atemp>31.0</ns3:atemp>
            <ns3:hr>117</ns3:hr>
          </ns3:TrackPointExtension>
        </extensions>
      </trkpt>
      <trkpt lat="36.7956303991377353668212890625" lon="-118.576438240706920623779296875">
        <ele>1559.800048828125</ele>
        <time>2021-06-24T16:31:37.000Z</time>
        <extensions>
          <ns3:TrackPointExtension>
            <ns3:atemp>31.0</ns3:atemp>
            <ns3:hr>114</ns3:hr>
          </ns3:TrackPointExtension>
        </extensions>
      </trkpt>
      <trkpt lat="36.7956268787384033203125" lon="-118.5764095745980739593505859375">
        <ele>1559.800048828125</ele>
        <time>2021-06-24T16:31:39.000Z</time>
        <extensions>
          <ns3:TrackPointExtension>
            <ns3:atemp>31.0</ns3:atemp>
            <ns3:hr>114</ns3:hr>
          </ns3:TrackPointExtension>
        </extensions>
      </trkpt>
      <trkpt lat="36.79563718847930431365966796875" lon="-118.57636640779674053192138671875">
        <ele>1559.800048828125</ele>
        <time>2021-06-24T16:31:42.000Z</time>
        <extensions>
          <ns3:TrackPointExtension>
            <ns3:atemp>31.0</ns3:atemp>
            <ns3:hr>111</ns3:hr>
          </ns3:TrackPointExtension>
        </extensions>
      </trkpt>
      <trkpt lat="36.79563886485993862152099609375" lon="-118.57631594873964786529541015625">
        <ele>1559.800048828125</ele>
        <time>2021-06-24T16:31:45.000Z</time>
        <extensions>
          <ns3:TrackPointExtension>
            <ns3:atemp>31.0</ns3:atemp>
            <ns3:hr>108</ns3:hr>
          </ns3:TrackPointExtension>
        </extensions>
      </trkpt>
      <trkpt lat="36.7956320755183696746826171875" lon="-118.57629264704883098602294921875">
        <ele>1560</ele>
        <time>2021-06-24T16:31:47.000Z</time>
        <extensions>
          <ns3:TrackPointExtension>
            <ns3:atemp>31.0</ns3:atemp>
            <ns3:hr>107</ns3:hr>
          </ns3:TrackPointExtension>
        </extensions>
      </trkpt>
      <trkpt lat="36.79559175856411457061767578125" lon="-118.57620430178940296173095703125">
        <ele>1560</ele>
        <time>2021-06-24T16:31:53.000Z</time>
        <extensions>
          <ns3:TrackPointExtension>
            <ns3:atemp>31.0</ns3:atemp>
            <ns3:hr>104</ns3:hr>
          </ns3:TrackPointExtension>
        </extensions>
      </trkpt>
      <trkpt lat="36.79556895978748798370361328125" lon="-118.5761584527790546417236328125">
        <ele>1560</ele>
        <time>2021-06-24T16:31:56.000Z</time>
        <extensions>
          <ns3:TrackPointExtension>
            <ns3:atemp>31.0</ns3:atemp>
            <ns3:hr>103</ns3:hr>
          </ns3:TrackPointExtension>
        </extensions>
      </trkpt>
      <trkpt lat="36.7955482564866542816162109375" lon="-118.5760746337473392486572265625">
        <ele>1560</ele>
        <time>2021-06-24T16:32:02.000Z</time>
        <extensions>
          <ns3:TrackPointExtension>
            <ns3:atemp>31.0</ns3:atemp>
            <ns3:hr>100</ns3:hr>
          </ns3:TrackPointExtension>
        </extensions>
      </trkpt>
      <trkpt lat="36.79555110633373260498046875" lon="-118.5760618932545185089111328125">
        <ele>1560</ele>
        <time>2021-06-24T16:32:03.000Z</time>
        <extensions>
          <ns3:TrackPointExtension>
            <ns3:atemp>31.0</ns3:atemp>
            <ns3:hr>99</ns3:hr>
          </ns3:TrackPointExtension>
        </extensions>
      </trkpt>
      <trkpt lat="36.795554123818874359130859375" lon="-118.57605175115168094635009765625">
        <ele>1560</ele>
        <time>2021-06-24T16:32:04.000Z</time>
        <extensions>
          <ns3:TrackPointExtension>
            <ns3:atemp>31.0</ns3:atemp>
            <ns3:hr>99</ns3:hr>
          </ns3:TrackPointExtension>
        </extensions>
      </trkpt>
      <trkpt lat="36.79553878493607044219970703125" lon="-118.57593541033565998077392578125">
        <ele>1560</ele>
        <time>2021-06-24T16:32:12.000Z</time>
        <extensions>
          <ns3:TrackPointExtension>
            <ns3:atemp>32.0</ns3:atemp>
            <ns3:hr>98</ns3:hr>
          </ns3:TrackPointExtension>
        </extensions>
      </trkpt>
      <trkpt lat="36.79554599337279796600341796875" lon="-118.575928620994091033935546875">
        <ele>1560</ele>
        <time>2021-06-24T16:32:15.000Z</time>
        <extensions>
          <ns3:TrackPointExtension>
            <ns3:atemp>32.0</ns3:atemp>
            <ns3:hr>98</ns3:hr>
          </ns3:TrackPointExtension>
        </extensions>
      </trkpt>
      <trkpt lat="36.7955611646175384521484375" lon="-118.5759197361767292022705078125">
        <ele>1559.800048828125</ele>
        <time>2021-06-24T16:32:17.000Z</time>
        <extensions>
          <ns3:TrackPointExtension>
            <ns3:atemp>32.0</ns3:atemp>
            <ns3:hr>100</ns3:hr>
          </ns3:TrackPointExtension>
        </extensions>
      </trkpt>
      <trkpt lat="36.79556091316044330596923828125" lon="-118.57590456493198871612548828125">
        <ele>1559.800048828125</ele>
        <time>2021-06-24T16:32:18.000Z</time>
        <extensions>
          <ns3:TrackPointExtension>
            <ns3:atemp>32.0</ns3:atemp>
            <ns3:hr>101</ns3:hr>
          </ns3:TrackPointExtension>
        </extensions>
      </trkpt>
      <trkpt lat="36.795514561235904693603515625" lon="-118.57581169344484806060791015625">
        <ele>1559.800048828125</ele>
        <time>2021-06-24T16:32:24.000Z</time>
        <extensions>
          <ns3:TrackPointExtension>
            <ns3:atemp>32.0</ns3:atemp>
            <ns3:hr>100</ns3:hr>
          </ns3:TrackPointExtension>
        </extensions>
      </trkpt>
      <trkpt lat="36.79547139443457126617431640625" lon="-118.57571060769259929656982421875">
        <ele>1559.5999755859375</ele>
        <time>2021-06-24T16:32:33.000Z</time>
        <extensions>
          <ns3:TrackPointExtension>
            <ns3:atemp>32.0</ns3:atemp>
            <ns3:hr>97</ns3:hr>
          </ns3:TrackPointExtension>
        </extensions>
      </trkpt>
      <trkpt lat="36.79546435363590717315673828125" lon="-118.57568831183016300201416015625">
        <ele>1559.5999755859375</ele>
        <time>2021-06-24T16:32:35.000Z</time>
        <extensions>
          <ns3:TrackPointExtension>
            <ns3:atemp>32.0</ns3:atemp>
            <ns3:hr>97</ns3:hr>
          </ns3:TrackPointExtension>
        </extensions>
      </trkpt>
      <trkpt lat="36.7954470030963420867919921875" lon="-118.57564019970595836639404296875">
        <ele>1559.800048828125</ele>
        <time>2021-06-24T16:32:40.000Z</time>
        <extensions>
          <ns3:TrackPointExtension>
            <ns3:atemp>32.0</ns3:atemp>
            <ns3:hr>96</ns3:hr>
          </ns3:TrackPointExtension>
        </extensions>
      </trkpt>
      <trkpt lat="36.79541431367397308349609375" lon="-118.57555805705487728118896484375">
        <ele>1559.800048828125</ele>
        <time>2021-06-24T16:32:46.000Z</time>
        <extensions>
          <ns3:TrackPointExtension>
            <ns3:atemp>32.0</ns3:atemp>
            <ns3:hr>93</ns3:hr>
          </ns3:TrackPointExtension>
        </extensions>
      </trkpt>
      <trkpt lat="36.79540568031370639801025390625" lon="-118.575528971850872039794921875">
        <ele>1560</ele>
        <time>2021-06-24T16:32:48.000Z</time>
        <extensions>
          <ns3:TrackPointExtension>
            <ns3:atemp>32.0</ns3:atemp>
            <ns3:hr>96</ns3:hr>
          </ns3:TrackPointExtension>
        </extensions>
      </trkpt>
      <trkpt lat="36.79540358483791351318359375" lon="-118.575495444238185882568359375">
        <ele>1560</ele>
        <time>2021-06-24T16:32:51.000Z</time>
        <extensions>
          <ns3:TrackPointExtension>
            <ns3:atemp>32.0</ns3:atemp>
            <ns3:hr>98</ns3:hr>
          </ns3:TrackPointExtension>
        </extensions>
      </trkpt>
      <trkpt lat="36.7954024113714694976806640625" lon="-118.5753809474408626556396484375">
        <ele>1559.800048828125</ele>
        <time>2021-06-24T16:33:00.000Z</time>
        <extensions>
          <ns3:TrackPointExtension>
            <ns3:atemp>32.0</ns3:atemp>
            <ns3:hr>96</ns3:hr>
          </ns3:TrackPointExtension>
        </extensions>
      </trkpt>
      <trkpt lat="36.79540048353374004364013671875" lon="-118.57531062327325344085693359375">
        <ele>1560</ele>
        <time>2021-06-24T16:33:05.000Z</time>
        <extensions>
          <ns3:TrackPointExtension>
            <ns3:atemp>32.0</ns3:atemp>
            <ns3:hr>99</ns3:hr>
          </ns3:TrackPointExtension>
        </extensions>
      </trkpt>
      <trkpt lat="36.79539998061954975128173828125" lon="-118.57527240179479122161865234375">
        <ele>1560</ele>
        <time>2021-06-24T16:33:08.000Z</time>
        <extensions>
          <ns3:TrackPointExtension>
            <ns3:atemp>32.0</ns3:atemp>
            <ns3:hr>98</ns3:hr>
          </ns3:TrackPointExtension>
        </extensions>
      </trkpt>
      <trkpt lat="36.795401908457279205322265625" lon="-118.57526234351098537445068359375">
        <ele>1560</ele>
        <time>2021-06-24T16:33:09.000Z</time>
        <extensions>
          <ns3:TrackPointExtension>
            <ns3:atemp>32.0</ns3:atemp>
            <ns3:hr>99</ns3:hr>
          </ns3:TrackPointExtension>
        </extensions>
      </trkpt>
      <trkpt lat="36.79538086988031864166259765625" lon="-118.57519478537142276763916015625">
        <ele>1560.4000244140625</ele>
        <time>2021-06-24T16:33:15.000Z</time>
        <extensions>
          <ns3:TrackPointExtension>
            <ns3:atemp>32.0</ns3:atemp>
            <ns3:hr>98</ns3:hr>
          </ns3:TrackPointExtension>
        </extensions>
      </trkpt>
      <trkpt lat="36.795372404158115386962890625" lon="-118.575157485902309417724609375">
        <ele>1560.4000244140625</ele>
        <time>2021-06-24T16:33:18.000Z</time>
        <extensions>
          <ns3:TrackPointExtension>
            <ns3:atemp>32.0</ns3:atemp>
            <ns3:hr>98</ns3:hr>
          </ns3:TrackPointExtension>
        </extensions>
      </trkpt>
      <trkpt lat="36.795372404158115386962890625" lon="-118.57514432631433010101318359375">
        <ele>1560.4000244140625</ele>
        <time>2021-06-24T16:33:19.000Z</time>
        <extensions>
          <ns3:TrackPointExtension>
            <ns3:atemp>32.0</ns3:atemp>
            <ns3:hr>97</ns3:hr>
          </ns3:TrackPointExtension>
        </extensions>
      </trkpt>
      <trkpt lat="36.7953651957213878631591796875" lon="-118.57512169517576694488525390625">
        <ele>1560.199951171875</ele>
        <time>2021-06-24T16:33:21.000Z</time>
        <extensions>
          <ns3:TrackPointExtension>
            <ns3:atemp>32.0</ns3:atemp>
            <ns3:hr>94</ns3:hr>
          </ns3:TrackPointExtension>
        </extensions>
      </trkpt>
      <trkpt lat="36.795352287590503692626953125" lon="-118.5751110501587390899658203125">
        <ele>1560.199951171875</ele>
        <time>2021-06-24T16:33:23.000Z</time>
        <extensions>
          <ns3:TrackPointExtension>
            <ns3:atemp>32.0</ns3:atemp>
            <ns3:hr>94</ns3:hr>
          </ns3:TrackPointExtension>
        </extensions>
      </trkpt>
      <trkpt lat="36.79533845745027065277099609375" lon="-118.5751144029200077056884765625">
        <ele>1560.199951171875</ele>
        <time>2021-06-24T16:33:25.000Z</time>
        <extensions>
          <ns3:TrackPointExtension>
            <ns3:atemp>33.0</ns3:atemp>
            <ns3:hr>97</ns3:hr>
          </ns3:TrackPointExtension>
        </extensions>
      </trkpt>
      <trkpt lat="36.795326136052608489990234375" lon="-118.5751311667263507843017578125">
        <ele>1560</ele>
        <time>2021-06-24T16:33:28.000Z</time>
        <extensions>
          <ns3:TrackPointExtension>
            <ns3:atemp>33.0</ns3:atemp>
            <ns3:hr>97</ns3:hr>
          </ns3:TrackPointExtension>
        </extensions>
      </trkpt>
      <trkpt lat="36.7953390441834926605224609375" lon="-118.57511951588094234466552734375">
        <ele>1560</ele>
        <time>2021-06-24T16:33:33.000Z</time>
        <extensions>
          <ns3:TrackPointExtension>
            <ns3:atemp>33.0</ns3:atemp>
            <ns3:hr>96</ns3:hr>
          </ns3:TrackPointExtension>
        </extensions>
      </trkpt>
      <trkpt lat="36.79535421542823314666748046875" lon="-118.57509621419012546539306640625">
        <ele>1560</ele>
        <time>2021-06-24T16:33:36.000Z</time>
        <extensions>
          <ns3:TrackPointExtension>
            <ns3:atemp>33.0</ns3:atemp>
            <ns3:hr>93</ns3:hr>
          </ns3:TrackPointExtension>
        </extensions>
      </trkpt>
      <trkpt lat="36.7953380383551120758056640625" lon="-118.57507827691733837127685546875">
        <ele>1560</ele>
        <time>2021-06-24T16:33:38.000Z</time>
        <extensions>
          <ns3:TrackPointExtension>
            <ns3:atemp>33.0</ns3:atemp>
            <ns3:hr>93</ns3:hr>
          </ns3:TrackPointExtension>
        </extensions>
      </trkpt>
      <trkpt lat="36.79531850852072238922119140625" lon="-118.5750644467771053314208984375">
        <ele>1559.800048828125</ele>
        <time>2021-06-24T16:33:40.000Z</time>
        <extensions>
          <ns3:TrackPointExtension>
            <ns3:atemp>33.0</ns3:atemp>
            <ns3:hr>95</ns3:hr>
          </ns3:TrackPointExtension>
        </extensions>
      </trkpt>
      <trkpt lat="36.79531641304492950439453125" lon="-118.57506754808127880096435546875">
        <ele>1559.800048828125</ele>
        <time>2021-06-24T16:33:57.000Z</time>
        <extensions>
          <ns3:TrackPointExtension>
            <ns3:atemp>33.0</ns3:atemp>
            <ns3:hr>94</ns3:hr>
          </ns3:TrackPointExtension>
        </extensions>
      </trkpt>
      <trkpt lat="36.7953128926455974578857421875" lon="-118.575066961348056793212890625">
        <ele>1559.800048828125</ele>
        <time>2021-06-24T16:34:06.000Z</time>
        <extensions>
          <ns3:TrackPointExtension>
            <ns3:atemp>33.0</ns3:atemp>
            <ns3:hr>91</ns3:hr>
          </ns3:TrackPointExtension>
        </extensions>
      </trkpt>
      <trkpt lat="36.7953092046082019805908203125" lon="-118.5750661231577396392822265625">
        <ele>1559.800048828125</ele>
        <time>2021-06-24T16:34:15.000Z</time>
        <extensions>
          <ns3:TrackPointExtension>
            <ns3:atemp>33.0</ns3:atemp>
            <ns3:hr>88</ns3:hr>
          </ns3:TrackPointExtension>
        </extensions>
      </trkpt>
      <trkpt lat="36.79530308581888675689697265625" lon="-118.57497182674705982208251953125">
        <ele>1560.800048828125</ele>
        <time>2021-06-24T16:34:29.000Z</time>
        <extensions>
          <ns3:TrackPointExtension>
            <ns3:atemp>33.0</ns3:atemp>
            <ns3:hr>85</ns3:hr>
          </ns3:TrackPointExtension>
        </extensions>
      </trkpt>
      <trkpt lat="36.7952971346676349639892578125" lon="-118.57486319728195667266845703125">
        <ele>1560.800048828125</ele>
        <time>2021-06-24T16:34:35.000Z</time>
        <extensions>
          <ns3:TrackPointExtension>
            <ns3:atemp>32.0</ns3:atemp>
            <ns3:hr>85</ns3:hr>
          </ns3:TrackPointExtension>
        </extensions>
      </trkpt>
      <trkpt lat="36.7952967993915081024169921875" lon="-118.57483394443988800048828125">
        <ele>1561</ele>
        <time>2021-06-24T16:34:37.000Z</time>
        <extensions>
          <ns3:TrackPointExtension>
            <ns3:atemp>32.0</ns3:atemp>
            <ns3:hr>85</ns3:hr>
          </ns3:TrackPointExtension>
        </extensions>
      </trkpt>
      <trkpt lat="36.79528824985027313232421875" lon="-118.574784658849239349365234375">
        <ele>1560.800048828125</ele>
        <time>2021-06-24T16:34:41.000Z</time>
        <extensions>
          <ns3:TrackPointExtension>
            <ns3:atemp>32.0</ns3:atemp>
            <ns3:hr>84</ns3:hr>
          </ns3:TrackPointExtension>
        </extensions>
      </trkpt>
      <trkpt lat="36.7953051812946796417236328125" lon="-118.57471995055675506591796875">
        <ele>1560.800048828125</ele>
        <time>2021-06-24T16:34:45.000Z</time>
        <extensions>
          <ns3:TrackPointExtension>
            <ns3:atemp>32.0</ns3:atemp>
            <ns3:hr>87</ns3:hr>
          </ns3:TrackPointExtension>
        </extensions>
      </trkpt>
      <trkpt lat="36.7953008227050304412841796875" lon="-118.5746480338275432586669921875">
        <ele>1561.199951171875</ele>
        <time>2021-06-24T16:34:49.000Z</time>
        <extensions>
          <ns3:TrackPointExtension>
            <ns3:atemp>32.0</ns3:atemp>
            <ns3:hr>89</ns3:hr>
          </ns3:TrackPointExtension>
        </extensions>
      </trkpt>
      <trkpt lat="36.79531213827431201934814453125" lon="-118.57457787729799747467041015625">
        <ele>1561.4000244140625</ele>
        <time>2021-06-24T16:34:53.000Z</time>
        <extensions>
          <ns3:TrackPointExtension>
            <ns3:atemp>32.0</ns3:atemp>
            <ns3:hr>92</ns3:hr>
          </ns3:TrackPointExtension>
        </extensions>
      </trkpt>
      <trkpt lat="36.79531549103558063507080078125" lon="-118.5745300166308879852294921875">
        <ele>1561.4000244140625</ele>
        <time>2021-06-24T16:34:57.000Z</time>
        <extensions>
          <ns3:TrackPointExtension>
            <ns3:atemp>32.0</ns3:atemp>
            <ns3:hr>95</ns3:hr>
          </ns3:TrackPointExtension>
        </extensions>
      </trkpt>
      <trkpt lat="36.79530643858015537261962890625" lon="-118.57447142712771892547607421875">
        <ele>1561.800048828125</ele>
        <time>2021-06-24T16:35:02.000Z</time>
        <extensions>
          <ns3:TrackPointExtension>
            <ns3:atemp>32.0</ns3:atemp>
            <ns3:hr>96</ns3:hr>
          </ns3:TrackPointExtension>
        </extensions>
      </trkpt>
      <trkpt lat="36.7952934466302394866943359375" lon="-118.574402444064617156982421875">
        <ele>1562.4000244140625</ele>
        <time>2021-06-24T16:35:07.000Z</time>
        <extensions>
          <ns3:TrackPointExtension>
            <ns3:atemp>32.0</ns3:atemp>
            <ns3:hr>99</ns3:hr>
          </ns3:TrackPointExtension>
        </extensions>
      </trkpt>
      <trkpt lat="36.795294620096683502197265625" lon="-118.57439096085727214813232421875">
        <ele>1562.4000244140625</ele>
        <time>2021-06-24T16:35:08.000Z</time>
        <extensions>
          <ns3:TrackPointExtension>
            <ns3:atemp>32.0</ns3:atemp>
            <ns3:hr>100</ns3:hr>
          </ns3:TrackPointExtension>
        </extensions>
      </trkpt>
      <trkpt lat="36.79528850130736827850341796875" lon="-118.5743544995784759521484375">
        <ele>1562.4000244140625</ele>
        <time>2021-06-24T16:35:11.000Z</time>
        <extensions>
          <ns3:TrackPointExtension>
            <ns3:atemp>32.0</ns3:atemp>
            <ns3:hr>101</ns3:hr>
          </ns3:TrackPointExtension>
        </extensions>
      </trkpt>
      <trkpt lat="36.79523971863090991973876953125" lon="-118.574226088821887969970703125">
        <ele>1562.4000244140625</ele>
        <time>2021-06-24T16:35:21.000Z</time>
        <extensions>
          <ns3:TrackPointExtension>
            <ns3:atemp>32.0</ns3:atemp>
            <ns3:hr>104</ns3:hr>
          </ns3:TrackPointExtension>
        </extensions>
      </trkpt>
      <trkpt lat="36.79523737169802188873291015625" lon="-118.574213348329067230224609375">
        <ele>1562.5999755859375</ele>
        <time>2021-06-24T16:35:22.000Z</time>
        <extensions>
          <ns3:TrackPointExtension>
            <ns3:atemp>32.0</ns3:atemp>
            <ns3:hr>104</ns3:hr>
          </ns3:TrackPointExtension>
        </extensions>
      </trkpt>
      <trkpt lat="36.795217506587505340576171875" lon="-118.5741882026195526123046875">
        <ele>1562.5999755859375</ele>
        <time>2021-06-24T16:35:24.000Z</time>
        <extensions>
          <ns3:TrackPointExtension>
            <ns3:atemp>32.0</ns3:atemp>
            <ns3:hr>106</ns3:hr>
          </ns3:TrackPointExtension>
        </extensions>
      </trkpt>
      <trkpt lat="36.7952059395611286163330078125" lon="-118.5741615481674671173095703125">
        <ele>1562.5999755859375</ele>
        <time>2021-06-24T16:35:26.000Z</time>
        <extensions>
          <ns3:TrackPointExtension>
            <ns3:atemp>32.0</ns3:atemp>
            <ns3:hr>105</ns3:hr>
          </ns3:TrackPointExtension>
        </extensions>
      </trkpt>
      <trkpt lat="36.7951942048966884613037109375" lon="-118.5741303674876689910888671875">
        <ele>1562.800048828125</ele>
        <time>2021-06-24T16:35:28.000Z</time>
        <extensions>
          <ns3:TrackPointExtension>
            <ns3:atemp>32.0</ns3:atemp>
            <ns3:hr>106</ns3:hr>
          </ns3:TrackPointExtension>
        </extensions>
      </trkpt>
      <trkpt lat="36.7951677180826663970947265625" lon="-118.5741109214723110198974609375">
        <ele>1563</ele>
        <time>2021-06-24T16:35:31.000Z</time>
        <extensions>
          <ns3:TrackPointExtension>
            <ns3:atemp>32.0</ns3:atemp>
            <ns3:hr>109</ns3:hr>
          </ns3:TrackPointExtension>
        </extensions>
      </trkpt>
      <trkpt lat="36.79514986462891101837158203125" lon="-118.57408921234309673309326171875">
        <ele>1563.199951171875</ele>
        <time>2021-06-24T16:35:33.000Z</time>
        <extensions>
          <ns3:TrackPointExtension>
            <ns3:atemp>32.0</ns3:atemp>
            <ns3:hr>109</ns3:hr>
          </ns3:TrackPointExtension>
        </extensions>
      </trkpt>
      <trkpt lat="36.79514131508767604827880859375" lon="-118.574068844318389892578125">
        <ele>1563.199951171875</ele>
        <time>2021-06-24T16:35:35.000Z</time>
        <extensions>
          <ns3:TrackPointExtension>
            <ns3:atemp>32.0</ns3:atemp>
            <ns3:hr>108</ns3:hr>
          </ns3:TrackPointExtension>
        </extensions>
      </trkpt>
      <trkpt lat="36.79513410665094852447509765625" lon="-118.57397488318383693695068359375">
        <ele>1563.4000244140625</ele>
        <time>2021-06-24T16:35:40.000Z</time>
        <extensions>
          <ns3:TrackPointExtension>
            <ns3:atemp>32.0</ns3:atemp>
            <ns3:hr>108</ns3:hr>
          </ns3:TrackPointExtension>
        </extensions>
      </trkpt>
      <trkpt lat="36.79513628594577312469482421875" lon="-118.5739355720579624176025390625">
        <ele>1563.4000244140625</ele>
        <time>2021-06-24T16:35:42.000Z</time>
        <extensions>
          <ns3:TrackPointExtension>
            <ns3:atemp>32.0</ns3:atemp>
            <ns3:hr>108</ns3:hr>
          </ns3:TrackPointExtension>
        </extensions>
      </trkpt>
      <trkpt lat="36.7951405607163906097412109375" lon="-118.5739235021173954010009765625">
        <ele>1563.4000244140625</ele>
        <time>2021-06-24T16:35:43.000Z</time>
        <extensions>
          <ns3:TrackPointExtension>
            <ns3:atemp>32.0</ns3:atemp>
            <ns3:hr>107</ns3:hr>
          </ns3:TrackPointExtension>
        </extensions>
      </trkpt>
      <trkpt lat="36.7951454222202301025390625" lon="-118.57389056123793125152587890625">
        <ele>1563.5999755859375</ele>
        <time>2021-06-24T16:35:46.000Z</time>
        <extensions>
          <ns3:TrackPointExtension>
            <ns3:atemp>32.0</ns3:atemp>
            <ns3:hr>106</ns3:hr>
          </ns3:TrackPointExtension>
        </extensions>
      </trkpt>
      <trkpt lat="36.7951070331037044525146484375" lon="-118.573846556246280670166015625">
        <ele>1563.800048828125</ele>
        <time>2021-06-24T16:35:50.000Z</time>
        <extensions>
          <ns3:TrackPointExtension>
            <ns3:atemp>32.0</ns3:atemp>
            <ns3:hr>103</ns3:hr>
          </ns3:TrackPointExtension>
        </extensions>
      </trkpt>
      <trkpt lat="36.7951060272753238677978515625" lon="-118.57382065616548061370849609375">
        <ele>1564</ele>
        <time>2021-06-24T16:35:52.000Z</time>
        <extensions>
          <ns3:TrackPointExtension>
            <ns3:atemp>32.0</ns3:atemp>
            <ns3:hr>103</ns3:hr>
          </ns3:TrackPointExtension>
        </extensions>
      </trkpt>
      <trkpt lat="36.79507308639585971832275390625" lon="-118.57377723790705204010009765625">
        <ele>1564</ele>
        <time>2021-06-24T16:35:56.000Z</time>
        <extensions>
          <ns3:TrackPointExtension>
            <ns3:atemp>32.0</ns3:atemp>
            <ns3:hr>98</ns3:hr>
          </ns3:TrackPointExtension>
        </extensions>
      </trkpt>
      <trkpt lat="36.7950547300279140472412109375" lon="-118.57371470890939235687255859375">
        <ele>1564.199951171875</ele>
        <time>2021-06-24T16:36:00.000Z</time>
        <extensions>
          <ns3:TrackPointExtension>
            <ns3:atemp>32.0</ns3:atemp>
            <ns3:hr>101</ns3:hr>
          </ns3:TrackPointExtension>
        </extensions>
      </trkpt>
      <trkpt lat="36.79505296982824802398681640625" lon="-118.5737000405788421630859375">
        <ele>1564.199951171875</ele>
        <time>2021-06-24T16:36:01.000Z</time>
        <extensions>
          <ns3:TrackPointExtension>
            <ns3:atemp>32.0</ns3:atemp>
            <ns3:hr>101</ns3:hr>
          </ns3:TrackPointExtension>
        </extensions>
      </trkpt>
      <trkpt lat="36.7950354516506195068359375" lon="-118.57364170253276824951171875">
        <ele>1564.199951171875</ele>
        <time>2021-06-24T16:36:04.000Z</time>
        <extensions>
          <ns3:TrackPointExtension>
            <ns3:atemp>32.0</ns3:atemp>
            <ns3:hr>100</ns3:hr>
          </ns3:TrackPointExtension>
        </extensions>
      </trkpt>
      <trkpt lat="36.7950188554823398590087890625" lon="-118.57361018657684326171875">
        <ele>1564.199951171875</ele>
        <time>2021-06-24T16:36:06.000Z</time>
        <extensions>
          <ns3:TrackPointExtension>
            <ns3:atemp>32.0</ns3:atemp>
            <ns3:hr>100</ns3:hr>
          </ns3:TrackPointExtension>
        </extensions>
      </trkpt>
      <trkpt lat="36.79499882273375988006591796875" lon="-118.57350197620689868927001953125">
        <ele>1564.4000244140625</ele>
        <time>2021-06-24T16:36:14.000Z</time>
        <extensions>
          <ns3:TrackPointExtension>
            <ns3:atemp>32.0</ns3:atemp>
            <ns3:hr>97</ns3:hr>
          </ns3:TrackPointExtension>
        </extensions>
      </trkpt>
      <trkpt lat="36.79498842917382717132568359375" lon="-118.57349275611340999603271484375">
        <ele>1564.5999755859375</ele>
        <time>2021-06-24T16:36:15.000Z</time>
        <extensions>
          <ns3:TrackPointExtension>
            <ns3:atemp>32.0</ns3:atemp>
            <ns3:hr>97</ns3:hr>
          </ns3:TrackPointExtension>
        </extensions>
      </trkpt>
      <trkpt lat="36.79497904144227504730224609375" lon="-118.57348211109638214111328125">
        <ele>1564.5999755859375</ele>
        <time>2021-06-24T16:36:16.000Z</time>
        <extensions>
          <ns3:TrackPointExtension>
            <ns3:atemp>32.0</ns3:atemp>
            <ns3:hr>97</ns3:hr>
          </ns3:TrackPointExtension>
        </extensions>
      </trkpt>
      <trkpt lat="36.794951297342777252197265625" lon="-118.57341614551842212677001953125">
        <ele>1564.4000244140625</ele>
        <time>2021-06-24T16:36:20.000Z</time>
        <extensions>
          <ns3:TrackPointExtension>
            <ns3:atemp>32.0</ns3:atemp>
            <ns3:hr>103</ns3:hr>
          </ns3:TrackPointExtension>
        </extensions>
      </trkpt>
      <trkpt lat="36.7949447594583034515380859375" lon="-118.57340055517852306365966796875">
        <ele>1564.4000244140625</ele>
        <time>2021-06-24T16:36:21.000Z</time>
        <extensions>
          <ns3:TrackPointExtension>
            <ns3:atemp>32.0</ns3:atemp>
            <ns3:hr>99</ns3:hr>
          </ns3:TrackPointExtension>
        </extensions>
      </trkpt>
      <trkpt lat="36.7949209548532962799072265625" lon="-118.57335160486400127410888671875">
        <ele>1564.199951171875</ele>
        <time>2021-06-24T16:36:25.000Z</time>
        <extensions>
          <ns3:TrackPointExtension>
            <ns3:atemp>32.0</ns3:atemp>
            <ns3:hr>97</ns3:hr>
          </ns3:TrackPointExtension>
        </extensions>
      </trkpt>
      <trkpt lat="36.7949179373681545257568359375" lon="-118.57333970256149768829345703125">
        <ele>1564.199951171875</ele>
        <time>2021-06-24T16:36:26.000Z</time>
        <extensions>
          <ns3:TrackPointExtension>
            <ns3:atemp>32.0</ns3:atemp>
            <ns3:hr>97</ns3:hr>
          </ns3:TrackPointExtension>
        </extensions>
      </trkpt>
      <trkpt lat="36.7949015088379383087158203125" lon="-118.57329091988503932952880859375">
        <ele>1564.199951171875</ele>
        <time>2021-06-24T16:36:29.000Z</time>
        <extensions>
          <ns3:TrackPointExtension>
            <ns3:atemp>32.0</ns3:atemp>
            <ns3:hr>93</ns3:hr>
          </ns3:TrackPointExtension>
        </extensions>
      </trkpt>
      <trkpt lat="36.79489471949636936187744140625" lon="-118.5732817836105823516845703125">
        <ele>1564.199951171875</ele>
        <time>2021-06-24T16:36:30.000Z</time>
        <extensions>
          <ns3:TrackPointExtension>
            <ns3:atemp>32.0</ns3:atemp>
            <ns3:hr>92</ns3:hr>
          </ns3:TrackPointExtension>
        </extensions>
      </trkpt>
      <trkpt lat="36.794862784445285797119140625" lon="-118.573239706456661224365234375">
        <ele>1564</ele>
        <time>2021-06-24T16:36:34.000Z</time>
        <extensions>
          <ns3:TrackPointExtension>
            <ns3:atemp>32.0</ns3:atemp>
            <ns3:hr>91</ns3:hr>
          </ns3:TrackPointExtension>
        </extensions>
      </trkpt>
      <trkpt lat="36.79479899816215038299560546875" lon="-118.5731681250035762786865234375">
        <ele>1564</ele>
        <time>2021-06-24T16:36:41.000Z</time>
        <extensions>
          <ns3:TrackPointExtension>
            <ns3:atemp>32.0</ns3:atemp>
            <ns3:hr>90</ns3:hr>
          </ns3:TrackPointExtension>
        </extensions>
      </trkpt>
      <trkpt lat="36.79473412223160266876220703125" lon="-118.5730616748332977294921875">
        <ele>1564</ele>
        <time>2021-06-24T16:36:50.000Z</time>
        <extensions>
          <ns3:TrackPointExtension>
            <ns3:atemp>32.0</ns3:atemp>
            <ns3:hr>91</ns3:hr>
          </ns3:TrackPointExtension>
        </extensions>
      </trkpt>
      <trkpt lat="36.794743426144123077392578125" lon="-118.57299118302762508392333984375">
        <ele>1563.800048828125</ele>
        <time>2021-06-24T16:36:56.000Z</time>
        <extensions>
          <ns3:TrackPointExtension>
            <ns3:atemp>32.0</ns3:atemp>
            <ns3:hr>90</ns3:hr>
          </ns3:TrackPointExtension>
        </extensions>
      </trkpt>
      <trkpt lat="36.7947570048272609710693359375" lon="-118.572955392301082611083984375">
        <ele>1563.4000244140625</ele>
        <time>2021-06-24T16:37:00.000Z</time>
        <extensions>
          <ns3:TrackPointExtension>
            <ns3:atemp>32.0</ns3:atemp>
            <ns3:hr>89</ns3:hr>
          </ns3:TrackPointExtension>
        </extensions>
      </trkpt>
      <trkpt lat="36.79475172422826290130615234375" lon="-118.5729344375431537628173828125">
        <ele>1563</ele>
        <time>2021-06-24T16:37:02.000Z</time>
        <extensions>
          <ns3:TrackPointExtension>
            <ns3:atemp>32.0</ns3:atemp>
            <ns3:hr>90</ns3:hr>
          </ns3:TrackPointExtension>
        </extensions>
      </trkpt>
      <trkpt lat="36.79474644362926483154296875" lon="-118.57290602289140224456787109375">
        <ele>1562.800048828125</ele>
        <time>2021-06-24T16:37:04.000Z</time>
        <extensions>
          <ns3:TrackPointExtension>
            <ns3:atemp>32.0</ns3:atemp>
            <ns3:hr>93</ns3:hr>
          </ns3:TrackPointExtension>
        </extensions>
      </trkpt>
      <trkpt lat="36.79474032483994960784912109375" lon="-118.57287098653614521026611328125">
        <ele>1562.5999755859375</ele>
        <time>2021-06-24T16:37:07.000Z</time>
        <extensions>
          <ns3:TrackPointExtension>
            <ns3:atemp>32.0</ns3:atemp>
            <ns3:hr>95</ns3:hr>
          </ns3:TrackPointExtension>
        </extensions>
      </trkpt>
      <trkpt lat="36.7947228066623210906982421875" lon="-118.57283628545701503753662109375">
        <ele>1562.5999755859375</ele>
        <time>2021-06-24T16:37:09.000Z</time>
        <extensions>
          <ns3:TrackPointExtension>
            <ns3:atemp>32.0</ns3:atemp>
            <ns3:hr>95</ns3:hr>
          </ns3:TrackPointExtension>
        </extensions>
      </trkpt>
      <trkpt lat="36.79471249692142009735107421875" lon="-118.5728107206523418426513671875">
        <ele>1562.4000244140625</ele>
        <time>2021-06-24T16:37:11.000Z</time>
        <extensions>
          <ns3:TrackPointExtension>
            <ns3:atemp>32.0</ns3:atemp>
            <ns3:hr>94</ns3:hr>
          </ns3:TrackPointExtension>
        </extensions>
      </trkpt>
      <trkpt lat="36.79471559822559356689453125" lon="-118.57280175201594829559326171875">
        <ele>1562.4000244140625</ele>
        <time>2021-06-24T16:37:12.000Z</time>
        <extensions>
          <ns3:TrackPointExtension>
            <ns3:atemp>32.0</ns3:atemp>
            <ns3:hr>94</ns3:hr>
          </ns3:TrackPointExtension>
        </extensions>
      </trkpt>
      <trkpt lat="36.79472607560455799102783203125" lon="-118.57268440537154674530029296875">
        <ele>1562</ele>
        <time>2021-06-24T16:37:19.000Z</time>
        <extensions>
          <ns3:TrackPointExtension>
            <ns3:atemp>32.0</ns3:atemp>
            <ns3:hr>92</ns3:hr>
          </ns3:TrackPointExtension>
        </extensions>
      </trkpt>
      <trkpt lat="36.7946946434676647186279296875" lon="-118.5726177692413330078125">
        <ele>1561.5999755859375</ele>
        <time>2021-06-24T16:37:23.000Z</time>
        <extensions>
          <ns3:TrackPointExtension>
            <ns3:atemp>32.0</ns3:atemp>
            <ns3:hr>95</ns3:hr>
          </ns3:TrackPointExtension>
        </extensions>
      </trkpt>
      <trkpt lat="36.7946611158549785614013671875" lon="-118.5725572519004344940185546875">
        <ele>1561.800048828125</ele>
        <time>2021-06-24T16:37:27.000Z</time>
        <extensions>
          <ns3:TrackPointExtension>
            <ns3:atemp>32.0</ns3:atemp>
            <ns3:hr>94</ns3:hr>
          </ns3:TrackPointExtension>
        </extensions>
      </trkpt>
      <trkpt lat="36.79465147666633129119873046875" lon="-118.57254325412213802337646484375">
        <ele>1561.800048828125</ele>
        <time>2021-06-24T16:37:28.000Z</time>
        <extensions>
          <ns3:TrackPointExtension>
            <ns3:atemp>32.0</ns3:atemp>
            <ns3:hr>92</ns3:hr>
          </ns3:TrackPointExtension>
        </extensions>
      </trkpt>
      <trkpt lat="36.79461040534079074859619140625" lon="-118.572492040693759918212890625">
        <ele>1561.800048828125</ele>
        <time>2021-06-24T16:37:33.000Z</time>
        <extensions>
          <ns3:TrackPointExtension>
            <ns3:atemp>32.0</ns3:atemp>
            <ns3:hr>91</ns3:hr>
          </ns3:TrackPointExtension>
        </extensions>
      </trkpt>
      <trkpt lat="36.794610321521759033203125" lon="-118.5724801383912563323974609375">
        <ele>1561.800048828125</ele>
        <time>2021-06-24T16:37:34.000Z</time>
        <extensions>
          <ns3:TrackPointExtension>
            <ns3:atemp>32.0</ns3:atemp>
            <ns3:hr>88</ns3:hr>
          </ns3:TrackPointExtension>
        </extensions>
      </trkpt>
      <trkpt lat="36.794609986245632171630859375" lon="-118.57244736514985561370849609375">
        <ele>1562</ele>
        <time>2021-06-24T16:37:37.000Z</time>
        <extensions>
          <ns3:TrackPointExtension>
            <ns3:atemp>32.0</ns3:atemp>
            <ns3:hr>90</ns3:hr>
          </ns3:TrackPointExtension>
        </extensions>
      </trkpt>
      <trkpt lat="36.79461367428302764892578125" lon="-118.5724362172186374664306640625">
        <ele>1562</ele>
        <time>2021-06-24T16:37:38.000Z</time>
        <extensions>
          <ns3:TrackPointExtension>
            <ns3:atemp>32.0</ns3:atemp>
            <ns3:hr>94</ns3:hr>
          </ns3:TrackPointExtension>
        </extensions>
      </trkpt>
      <trkpt lat="36.7946088127791881561279296875" lon="-118.57241316698491573333740234375">
        <ele>1562</ele>
        <time>2021-06-24T16:37:40.000Z</time>
        <extensions>
          <ns3:TrackPointExtension>
            <ns3:atemp>32.0</ns3:atemp>
            <ns3:hr>91</ns3:hr>
          </ns3:TrackPointExtension>
        </extensions>
      </trkpt>
      <trkpt lat="36.7946036159992218017578125" lon="-118.57239858247339725494384765625">
        <ele>1562</ele>
        <time>2021-06-24T16:37:41.000Z</time>
        <extensions>
          <ns3:TrackPointExtension>
            <ns3:atemp>32.0</ns3:atemp>
            <ns3:hr>89</ns3:hr>
          </ns3:TrackPointExtension>
        </extensions>
      </trkpt>
      <trkpt lat="36.7945863492786884307861328125" lon="-118.572353236377239227294921875">
        <ele>1562.199951171875</ele>
        <time>2021-06-24T16:37:45.000Z</time>
        <extensions>
          <ns3:TrackPointExtension>
            <ns3:atemp>32.0</ns3:atemp>
            <ns3:hr>92</ns3:hr>
          </ns3:TrackPointExtension>
        </extensions>
      </trkpt>
      <trkpt lat="36.79457168094813823699951171875" lon="-118.5723212175071239471435546875">
        <ele>1562.199951171875</ele>
        <time>2021-06-24T16:37:47.000Z</time>
        <extensions>
          <ns3:TrackPointExtension>
            <ns3:atemp>32.0</ns3:atemp>
            <ns3:hr>93</ns3:hr>
          </ns3:TrackPointExtension>
        </extensions>
      </trkpt>
      <trkpt lat="36.7945633828639984130859375" lon="-118.57229783199727535247802734375">
        <ele>1562.199951171875</ele>
        <time>2021-06-24T16:37:49.000Z</time>
        <extensions>
          <ns3:TrackPointExtension>
            <ns3:atemp>32.0</ns3:atemp>
            <ns3:hr>93</ns3:hr>
          </ns3:TrackPointExtension>
        </extensions>
      </trkpt>
      <trkpt lat="36.794548295438289642333984375" lon="-118.57225508429110050201416015625">
        <ele>1562.199951171875</ele>
        <time>2021-06-24T16:37:51.000Z</time>
        <extensions>
          <ns3:TrackPointExtension>
            <ns3:atemp>32.0</ns3:atemp>
            <ns3:hr>96</ns3:hr>
          </ns3:TrackPointExtension>
        </extensions>
      </trkpt>
      <trkpt lat="36.7945159412920475006103515625" lon="-118.57217143289744853973388671875">
        <ele>1562.199951171875</ele>
        <time>2021-06-24T16:37:55.000Z</time>
        <extensions>
          <ns3:TrackPointExtension>
            <ns3:atemp>32.0</ns3:atemp>
            <ns3:hr>96</ns3:hr>
          </ns3:TrackPointExtension>
        </extensions>
      </trkpt>
      <trkpt lat="36.7944522388279438018798828125" lon="-118.57211041264235973358154296875">
        <ele>1562.199951171875</ele>
        <time>2021-06-24T16:38:03.000Z</time>
        <extensions>
          <ns3:TrackPointExtension>
            <ns3:atemp>32.0</ns3:atemp>
            <ns3:hr>95</ns3:hr>
          </ns3:TrackPointExtension>
        </extensions>
      </trkpt>
      <trkpt lat="36.79442449472844600677490234375" lon="-118.572045452892780303955078125">
        <ele>1562.4000244140625</ele>
        <time>2021-06-24T16:38:08.000Z</time>
        <extensions>
          <ns3:TrackPointExtension>
            <ns3:atemp>32.0</ns3:atemp>
            <ns3:hr>96</ns3:hr>
          </ns3:TrackPointExtension>
        </extensions>
      </trkpt>
      <trkpt lat="36.79440119303762912750244140625" lon="-118.57200463302433490753173828125">
        <ele>1562.4000244140625</ele>
        <time>2021-06-24T16:38:12.000Z</time>
        <extensions>
          <ns3:TrackPointExtension>
            <ns3:atemp>32.0</ns3:atemp>
            <ns3:hr>95</ns3:hr>
          </ns3:TrackPointExtension>
        </extensions>
      </trkpt>
      <trkpt lat="36.79438090883195400238037109375" lon="-118.57198954559862613677978515625">
        <ele>1562.199951171875</ele>
        <time>2021-06-24T16:38:15.000Z</time>
        <extensions>
          <ns3:TrackPointExtension>
            <ns3:atemp>32.0</ns3:atemp>
            <ns3:hr>96</ns3:hr>
          </ns3:TrackPointExtension>
        </extensions>
      </trkpt>
      <trkpt lat="36.794382669031620025634765625" lon="-118.571969009935855865478515625">
        <ele>1562.199951171875</ele>
        <time>2021-06-24T16:38:17.000Z</time>
        <extensions>
          <ns3:TrackPointExtension>
            <ns3:atemp>32.0</ns3:atemp>
            <ns3:hr>96</ns3:hr>
          </ns3:TrackPointExtension>
        </extensions>
      </trkpt>
      <trkpt lat="36.7943727783858776092529296875" lon="-118.57193648815155029296875">
        <ele>1562.4000244140625</ele>
        <time>2021-06-24T16:38:19.000Z</time>
        <extensions>
          <ns3:TrackPointExtension>
            <ns3:atemp>32.0</ns3:atemp>
            <ns3:hr>93</ns3:hr>
          </ns3:TrackPointExtension>
        </extensions>
      </trkpt>
      <trkpt lat="36.7943261750042438507080078125" lon="-118.57189633883535861968994140625">
        <ele>1562.4000244140625</ele>
        <time>2021-06-24T16:38:24.000Z</time>
        <extensions>
          <ns3:TrackPointExtension>
            <ns3:atemp>32.0</ns3:atemp>
            <ns3:hr>93</ns3:hr>
          </ns3:TrackPointExtension>
        </extensions>
      </trkpt>
      <trkpt lat="36.79429985582828521728515625" lon="-118.57188611291348934173583984375">
        <ele>1562.800048828125</ele>
        <time>2021-06-24T16:38:27.000Z</time>
        <extensions>
          <ns3:TrackPointExtension>
            <ns3:atemp>32.0</ns3:atemp>
            <ns3:hr>91</ns3:hr>
          </ns3:TrackPointExtension>
        </extensions>
      </trkpt>
      <trkpt lat="36.794282756745815277099609375" lon="-118.57187421061098575592041015625">
        <ele>1563</ele>
        <time>2021-06-24T16:38:30.000Z</time>
        <extensions>
          <ns3:TrackPointExtension>
            <ns3:atemp>32.0</ns3:atemp>
            <ns3:hr>91</ns3:hr>
          </ns3:TrackPointExtension>
        </extensions>
      </trkpt>
      <trkpt lat="36.794256605207920074462890625" lon="-118.57185342349112033843994140625">
        <ele>1563</ele>
        <time>2021-06-24T16:38:33.000Z</time>
        <extensions>
          <ns3:TrackPointExtension>
            <ns3:atemp>32.0</ns3:atemp>
            <ns3:hr>90</ns3:hr>
          </ns3:TrackPointExtension>
        </extensions>
      </trkpt>
      <trkpt lat="36.79422433488070964813232421875" lon="-118.57178653590381145477294921875">
        <ele>1562.800048828125</ele>
        <time>2021-06-24T16:38:38.000Z</time>
        <extensions>
          <ns3:TrackPointExtension>
            <ns3:atemp>32.0</ns3:atemp>
            <ns3:hr>87</ns3:hr>
          </ns3:TrackPointExtension>
        </extensions>
      </trkpt>
      <trkpt lat="36.794208325445652008056640625" lon="-118.571747727692127227783203125">
        <ele>1562.800048828125</ele>
        <time>2021-06-24T16:38:41.000Z</time>
        <extensions>
          <ns3:TrackPointExtension>
            <ns3:atemp>32.0</ns3:atemp>
            <ns3:hr>87</ns3:hr>
          </ns3:TrackPointExtension>
        </extensions>
      </trkpt>
      <trkpt lat="36.79420120082795619964599609375" lon="-118.5717351548373699188232421875">
        <ele>1563</ele>
        <time>2021-06-24T16:38:42.000Z</time>
        <extensions>
          <ns3:TrackPointExtension>
            <ns3:atemp>32.0</ns3:atemp>
            <ns3:hr>87</ns3:hr>
          </ns3:TrackPointExtension>
        </extensions>
      </trkpt>
      <trkpt lat="36.79418443702161312103271484375" lon="-118.57171445153653621673583984375">
        <ele>1563.4000244140625</ele>
        <time>2021-06-24T16:38:44.000Z</time>
        <extensions>
          <ns3:TrackPointExtension>
            <ns3:atemp>32.0</ns3:atemp>
            <ns3:hr>85</ns3:hr>
          </ns3:TrackPointExtension>
        </extensions>
      </trkpt>
      <trkpt lat="36.794146634638309478759765625" lon="-118.57167237438261508941650390625">
        <ele>1563.4000244140625</ele>
        <time>2021-06-24T16:38:47.000Z</time>
        <extensions>
          <ns3:TrackPointExtension>
            <ns3:atemp>32.0</ns3:atemp>
            <ns3:hr>83</ns3:hr>
          </ns3:TrackPointExtension>
        </extensions>
      </trkpt>
      <trkpt lat="36.794061474502086639404296875" lon="-118.57158671133220195770263671875">
        <ele>1563.199951171875</ele>
        <time>2021-06-24T16:38:55.000Z</time>
        <extensions>
          <ns3:TrackPointExtension>
            <ns3:atemp>32.0</ns3:atemp>
            <ns3:hr>83</ns3:hr>
          </ns3:TrackPointExtension>
        </extensions>
      </trkpt>
      <trkpt lat="36.7940510809421539306640625" lon="-118.57153482735157012939453125">
        <ele>1563.4000244140625</ele>
        <time>2021-06-24T16:38:59.000Z</time>
        <extensions>
          <ns3:TrackPointExtension>
            <ns3:atemp>32.0</ns3:atemp>
            <ns3:hr>86</ns3:hr>
          </ns3:TrackPointExtension>
        </extensions>
      </trkpt>
      <trkpt lat="36.79403725080192089080810546875" lon="-118.57150590978562831878662109375">
        <ele>1563.199951171875</ele>
        <time>2021-06-24T16:39:02.000Z</time>
        <extensions>
          <ns3:TrackPointExtension>
            <ns3:atemp>32.0</ns3:atemp>
            <ns3:hr>87</ns3:hr>
          </ns3:TrackPointExtension>
        </extensions>
      </trkpt>
      <trkpt lat="36.79401679895818233489990234375" lon="-118.5714857093989849090576171875">
        <ele>1563.4000244140625</ele>
        <time>2021-06-24T16:39:05.000Z</time>
        <extensions>
          <ns3:TrackPointExtension>
            <ns3:atemp>32.0</ns3:atemp>
            <ns3:hr>89</ns3:hr>
          </ns3:TrackPointExtension>
        </extensions>
      </trkpt>
      <trkpt lat="36.7939989455044269561767578125" lon="-118.57147187925875186920166015625">
        <ele>1563.4000244140625</ele>
        <time>2021-06-24T16:39:07.000Z</time>
        <extensions>
          <ns3:TrackPointExtension>
            <ns3:atemp>32.0</ns3:atemp>
            <ns3:hr>91</ns3:hr>
          </ns3:TrackPointExtension>
        </extensions>
      </trkpt>
      <trkpt lat="36.79398008622229099273681640625" lon="-118.57144908048212528228759765625">
        <ele>1563.4000244140625</ele>
        <time>2021-06-24T16:39:09.000Z</time>
        <extensions>
          <ns3:TrackPointExtension>
            <ns3:atemp>32.0</ns3:atemp>
            <ns3:hr>92</ns3:hr>
          </ns3:TrackPointExtension>
        </extensions>
      </trkpt>
      <trkpt lat="36.79389752447605133056640625" lon="-118.57136811129748821258544921875">
        <ele>1563</ele>
        <time>2021-06-24T16:39:16.000Z</time>
        <extensions>
          <ns3:TrackPointExtension>
            <ns3:atemp>32.0</ns3:atemp>
            <ns3:hr>93</ns3:hr>
          </ns3:TrackPointExtension>
        </extensions>
      </trkpt>
      <trkpt lat="36.7938812635838985443115234375" lon="-118.571325950324535369873046875">
        <ele>1563</ele>
        <time>2021-06-24T16:39:19.000Z</time>
        <extensions>
          <ns3:TrackPointExtension>
            <ns3:atemp>32.0</ns3:atemp>
            <ns3:hr>89</ns3:hr>
          </ns3:TrackPointExtension>
        </extensions>
      </trkpt>
      <trkpt lat="36.7938651703298091888427734375" lon="-118.57130273245275020599365234375">
        <ele>1563</ele>
        <time>2021-06-24T16:39:22.000Z</time>
        <extensions>
          <ns3:TrackPointExtension>
            <ns3:atemp>32.0</ns3:atemp>
            <ns3:hr>92</ns3:hr>
          </ns3:TrackPointExtension>
        </extensions>
      </trkpt>
      <trkpt lat="36.793852262198925018310546875" lon="-118.57128093950450420379638671875">
        <ele>1562.800048828125</ele>
        <time>2021-06-24T16:39:24.000Z</time>
        <extensions>
          <ns3:TrackPointExtension>
            <ns3:atemp>32.0</ns3:atemp>
            <ns3:hr>91</ns3:hr>
          </ns3:TrackPointExtension>
        </extensions>
      </trkpt>
      <trkpt lat="36.79384790360927581787109375" lon="-118.5712694562971591949462890625">
        <ele>1562.800048828125</ele>
        <time>2021-06-24T16:39:25.000Z</time>
        <extensions>
          <ns3:TrackPointExtension>
            <ns3:atemp>32.0</ns3:atemp>
            <ns3:hr>91</ns3:hr>
          </ns3:TrackPointExtension>
        </extensions>
      </trkpt>
      <trkpt lat="36.79381881840527057647705078125" lon="-118.5712265409529209136962890625">
        <ele>1562.4000244140625</ele>
        <time>2021-06-24T16:39:29.000Z</time>
        <extensions>
          <ns3:TrackPointExtension>
            <ns3:atemp>32.0</ns3:atemp>
            <ns3:hr>91</ns3:hr>
          </ns3:TrackPointExtension>
        </extensions>
      </trkpt>
      <trkpt lat="36.79380138404667377471923828125" lon="-118.57121639885008335113525390625">
        <ele>1562.4000244140625</ele>
        <time>2021-06-24T16:39:30.000Z</time>
        <extensions>
          <ns3:TrackPointExtension>
            <ns3:atemp>32.0</ns3:atemp>
            <ns3:hr>91</ns3:hr>
          </ns3:TrackPointExtension>
        </extensions>
      </trkpt>
      <trkpt lat="36.7937260307371616363525390625" lon="-118.57113794423639774322509765625">
        <ele>1562.4000244140625</ele>
        <time>2021-06-24T16:39:39.000Z</time>
        <extensions>
          <ns3:TrackPointExtension>
            <ns3:atemp>32.0</ns3:atemp>
            <ns3:hr>92</ns3:hr>
          </ns3:TrackPointExtension>
        </extensions>
      </trkpt>
      <trkpt lat="36.79372183978557586669921875" lon="-118.5711262933909893035888671875">
        <ele>1562.4000244140625</ele>
        <time>2021-06-24T16:39:40.000Z</time>
        <extensions>
          <ns3:TrackPointExtension>
            <ns3:atemp>32.0</ns3:atemp>
            <ns3:hr>93</ns3:hr>
          </ns3:TrackPointExtension>
        </extensions>
      </trkpt>
      <trkpt lat="36.793709434568881988525390625" lon="-118.57109486125409603118896484375">
        <ele>1562.199951171875</ele>
        <time>2021-06-24T16:39:43.000Z</time>
        <extensions>
          <ns3:TrackPointExtension>
            <ns3:atemp>32.0</ns3:atemp>
            <ns3:hr>92</ns3:hr>
          </ns3:TrackPointExtension>
        </extensions>
      </trkpt>
      <trkpt lat="36.7936925031244754791259765625" lon="-118.57106485404074192047119140625">
        <ele>1562.5999755859375</ele>
        <time>2021-06-24T16:39:46.000Z</time>
        <extensions>
          <ns3:TrackPointExtension>
            <ns3:atemp>32.0</ns3:atemp>
            <ns3:hr>93</ns3:hr>
          </ns3:TrackPointExtension>
        </extensions>
      </trkpt>
      <trkpt lat="36.793684624135494232177734375" lon="-118.5710552148520946502685546875">
        <ele>1562.5999755859375</ele>
        <time>2021-06-24T16:39:47.000Z</time>
        <extensions>
          <ns3:TrackPointExtension>
            <ns3:atemp>32.0</ns3:atemp>
            <ns3:hr>90</ns3:hr>
          </ns3:TrackPointExtension>
        </extensions>
      </trkpt>
      <trkpt lat="36.79366811178624629974365234375" lon="-118.5710495151579380035400390625">
        <ele>1562.5999755859375</ele>
        <time>2021-06-24T16:39:48.000Z</time>
        <extensions>
          <ns3:TrackPointExtension>
            <ns3:atemp>32.0</ns3:atemp>
            <ns3:hr>94</ns3:hr>
          </ns3:TrackPointExtension>
        </extensions>
      </trkpt>
      <trkpt lat="36.7936210893094539642333984375" lon="-118.5709935240447521209716796875">
        <ele>1562.5999755859375</ele>
        <time>2021-06-24T16:39:53.000Z</time>
        <extensions>
          <ns3:TrackPointExtension>
            <ns3:atemp>32.0</ns3:atemp>
            <ns3:hr>94</ns3:hr>
          </ns3:TrackPointExtension>
        </extensions>
      </trkpt>
      <trkpt lat="36.79360273294150829315185546875" lon="-118.570971228182315826416015625">
        <ele>1562.5999755859375</ele>
        <time>2021-06-24T16:39:55.000Z</time>
        <extensions>
          <ns3:TrackPointExtension>
            <ns3:atemp>32.0</ns3:atemp>
            <ns3:hr>98</ns3:hr>
          </ns3:TrackPointExtension>
        </extensions>
      </trkpt>
      <trkpt lat="36.79358161054551601409912109375" lon="-118.57094951905310153961181640625">
        <ele>1562.5999755859375</ele>
        <time>2021-06-24T16:39:57.000Z</time>
        <extensions>
          <ns3:TrackPointExtension>
            <ns3:atemp>32.0</ns3:atemp>
            <ns3:hr>101</ns3:hr>
          </ns3:TrackPointExtension>
        </extensions>
      </trkpt>
      <trkpt lat="36.79356618784368038177490234375" lon="-118.57093258760869503021240234375">
        <ele>1562.199951171875</ele>
        <time>2021-06-24T16:39:59.000Z</time>
        <extensions>
          <ns3:TrackPointExtension>
            <ns3:atemp>32.0</ns3:atemp>
            <ns3:hr>105</ns3:hr>
          </ns3:TrackPointExtension>
        </extensions>
      </trkpt>
      <trkpt lat="36.793553195893764495849609375" lon="-118.5709177516400814056396484375">
        <ele>1562.4000244140625</ele>
        <time>2021-06-24T16:40:01.000Z</time>
        <extensions>
          <ns3:TrackPointExtension>
            <ns3:atemp>32.0</ns3:atemp>
            <ns3:hr>109</ns3:hr>
          </ns3:TrackPointExtension>
        </extensions>
      </trkpt>
      <trkpt lat="36.79354640655219554901123046875" lon="-118.57090861536562442779541015625">
        <ele>1562.4000244140625</ele>
        <time>2021-06-24T16:40:02.000Z</time>
        <extensions>
          <ns3:TrackPointExtension>
            <ns3:atemp>32.0</ns3:atemp>
            <ns3:hr>110</ns3:hr>
          </ns3:TrackPointExtension>
        </extensions>
      </trkpt>
      <trkpt lat="36.79346879012882709503173828125" lon="-118.5708300769329071044921875">
        <ele>1562.199951171875</ele>
        <time>2021-06-24T16:40:12.000Z</time>
        <extensions>
          <ns3:TrackPointExtension>
            <ns3:atemp>32.0</ns3:atemp>
            <ns3:hr>109</ns3:hr>
          </ns3:TrackPointExtension>
        </extensions>
      </trkpt>
      <trkpt lat="36.79343878291547298431396484375" lon="-118.5707871615886688232421875">
        <ele>1562.199951171875</ele>
        <time>2021-06-24T16:40:16.000Z</time>
        <extensions>
          <ns3:TrackPointExtension>
            <ns3:atemp>32.0</ns3:atemp>
            <ns3:hr>106</ns3:hr>
          </ns3:TrackPointExtension>
        </extensions>
      </trkpt>
      <trkpt lat="36.79342746734619140625" lon="-118.570775091648101806640625">
        <ele>1562.199951171875</ele>
        <time>2021-06-24T16:40:17.000Z</time>
        <extensions>
          <ns3:TrackPointExtension>
            <ns3:atemp>32.0</ns3:atemp>
            <ns3:hr>103</ns3:hr>
          </ns3:TrackPointExtension>
        </extensions>
      </trkpt>
      <trkpt lat="36.793403662741184234619140625" lon="-118.570742905139923095703125">
        <ele>1562.199951171875</ele>
        <time>2021-06-24T16:40:20.000Z</time>
        <extensions>
          <ns3:TrackPointExtension>
            <ns3:atemp>32.0</ns3:atemp>
            <ns3:hr>97</ns3:hr>
          </ns3:TrackPointExtension>
        </extensions>
      </trkpt>
      <trkpt lat="36.79339536465704441070556640625" lon="-118.5707294940948486328125">
        <ele>1562</ele>
        <time>2021-06-24T16:40:21.000Z</time>
        <extensions>
          <ns3:TrackPointExtension>
            <ns3:atemp>32.0</ns3:atemp>
            <ns3:hr>94</ns3:hr>
          </ns3:TrackPointExtension>
        </extensions>
      </trkpt>
      <trkpt lat="36.79334490559995174407958984375" lon="-118.5706522129476070404052734375">
        <ele>1562</ele>
        <time>2021-06-24T16:40:28.000Z</time>
        <extensions>
          <ns3:TrackPointExtension>
            <ns3:atemp>32.0</ns3:atemp>
            <ns3:hr>91</ns3:hr>
          </ns3:TrackPointExtension>
        </extensions>
      </trkpt>
      <trkpt lat="36.79333434440195560455322265625" lon="-118.5706441663205623626708984375">
        <ele>1562</ele>
        <time>2021-06-24T16:40:29.000Z</time>
        <extensions>
          <ns3:TrackPointExtension>
            <ns3:atemp>32.0</ns3:atemp>
            <ns3:hr>90</ns3:hr>
          </ns3:TrackPointExtension>
        </extensions>
      </trkpt>
      <trkpt lat="36.7932331748306751251220703125" lon="-118.57054643332958221435546875">
        <ele>1561.800048828125</ele>
        <time>2021-06-24T16:40:38.000Z</time>
        <extensions>
          <ns3:TrackPointExtension>
            <ns3:atemp>32.0</ns3:atemp>
            <ns3:hr>89</ns3:hr>
          </ns3:TrackPointExtension>
        </extensions>
      </trkpt>
      <trkpt lat="36.79309613071382045745849609375" lon="-118.57044140808284282684326171875">
        <ele>1561.5999755859375</ele>
        <time>2021-06-24T16:40:50.000Z</time>
        <extensions>
          <ns3:TrackPointExtension>
            <ns3:atemp>32.0</ns3:atemp>
            <ns3:hr>88</ns3:hr>
          </ns3:TrackPointExtension>
        </extensions>
      </trkpt>
      <trkpt lat="36.79302656091749668121337890625" lon="-118.5703860037028789520263671875">
        <ele>1561.5999755859375</ele>
        <time>2021-06-24T16:40:56.000Z</time>
        <extensions>
          <ns3:TrackPointExtension>
            <ns3:atemp>32.0</ns3:atemp>
            <ns3:hr>87</ns3:hr>
          </ns3:TrackPointExtension>
        </extensions>
      </trkpt>
      <trkpt lat="36.79292849265038967132568359375" lon="-118.57028583995997905731201171875">
        <ele>1562</ele>
        <time>2021-06-24T16:41:06.000Z</time>
        <extensions>
          <ns3:TrackPointExtension>
            <ns3:atemp>33.0</ns3:atemp>
            <ns3:hr>87</ns3:hr>
          </ns3:TrackPointExtension>
        </extensions>
      </trkpt>
      <trkpt lat="36.79288239218294620513916015625" lon="-118.5702264122664928436279296875">
        <ele>1562.199951171875</ele>
        <time>2021-06-24T16:41:12.000Z</time>
        <extensions>
          <ns3:TrackPointExtension>
            <ns3:atemp>33.0</ns3:atemp>
            <ns3:hr>86</ns3:hr>
          </ns3:TrackPointExtension>
        </extensions>
      </trkpt>
      <trkpt lat="36.7928694002330303192138671875" lon="-118.57020034454762935638427734375">
        <ele>1562.4000244140625</ele>
        <time>2021-06-24T16:41:15.000Z</time>
        <extensions>
          <ns3:TrackPointExtension>
            <ns3:atemp>33.0</ns3:atemp>
            <ns3:hr>84</ns3:hr>
          </ns3:TrackPointExtension>
        </extensions>
      </trkpt>
      <trkpt lat="36.7928529717028141021728515625" lon="-118.57017628848552703857421875">
        <ele>1562.5999755859375</ele>
        <time>2021-06-24T16:41:18.000Z</time>
        <extensions>
          <ns3:TrackPointExtension>
            <ns3:atemp>33.0</ns3:atemp>
            <ns3:hr>81</ns3:hr>
          </ns3:TrackPointExtension>
        </extensions>
      </trkpt>
      <trkpt lat="36.79284802637994289398193359375" lon="-118.5701670683920383453369140625">
        <ele>1562.5999755859375</ele>
        <time>2021-06-24T16:41:19.000Z</time>
        <extensions>
          <ns3:TrackPointExtension>
            <ns3:atemp>33.0</ns3:atemp>
            <ns3:hr>84</ns3:hr>
          </ns3:TrackPointExtension>
        </extensions>
      </trkpt>
      <trkpt lat="36.7928506247699260711669921875" lon="-118.570159189403057098388671875">
        <ele>1562.5999755859375</ele>
        <time>2021-06-24T16:41:20.000Z</time>
        <extensions>
          <ns3:TrackPointExtension>
            <ns3:atemp>33.0</ns3:atemp>
            <ns3:hr>85</ns3:hr>
          </ns3:TrackPointExtension>
        </extensions>
      </trkpt>
      <trkpt lat="36.792839057743549346923828125" lon="-118.57012541033327579498291015625">
        <ele>1562.5999755859375</ele>
        <time>2021-06-24T16:41:23.000Z</time>
        <extensions>
          <ns3:TrackPointExtension>
            <ns3:atemp>33.0</ns3:atemp>
            <ns3:hr>85</ns3:hr>
          </ns3:TrackPointExtension>
        </extensions>
      </trkpt>
      <trkpt lat="36.7927942983806133270263671875" lon="-118.57008517719805240631103515625">
        <ele>1562.4000244140625</ele>
        <time>2021-06-24T16:41:27.000Z</time>
        <extensions>
          <ns3:TrackPointExtension>
            <ns3:atemp>33.0</ns3:atemp>
            <ns3:hr>83</ns3:hr>
          </ns3:TrackPointExtension>
        </extensions>
      </trkpt>
      <trkpt lat="36.79278030060231685638427734375" lon="-118.5700718499720096588134765625">
        <ele>1562.199951171875</ele>
        <time>2021-06-24T16:41:29.000Z</time>
        <extensions>
          <ns3:TrackPointExtension>
            <ns3:atemp>33.0</ns3:atemp>
            <ns3:hr>82</ns3:hr>
          </ns3:TrackPointExtension>
        </extensions>
      </trkpt>
      <trkpt lat="36.79277376271784305572509765625" lon="-118.5700678266584873199462890625">
        <ele>1562.199951171875</ele>
        <time>2021-06-24T16:41:30.000Z</time>
        <extensions>
          <ns3:TrackPointExtension>
            <ns3:atemp>33.0</ns3:atemp>
            <ns3:hr>81</ns3:hr>
          </ns3:TrackPointExtension>
        </extensions>
      </trkpt>
      <trkpt lat="36.79274392314255237579345703125" lon="-118.57004863210022449493408203125">
        <ele>1562.199951171875</ele>
        <time>2021-06-24T16:41:33.000Z</time>
        <extensions>
          <ns3:TrackPointExtension>
            <ns3:atemp>33.0</ns3:atemp>
            <ns3:hr>81</ns3:hr>
          </ns3:TrackPointExtension>
        </extensions>
      </trkpt>
      <trkpt lat="36.79270385764539241790771484375" lon="-118.5699999332427978515625">
        <ele>1562.4000244140625</ele>
        <time>2021-06-24T16:41:37.000Z</time>
        <extensions>
          <ns3:TrackPointExtension>
            <ns3:atemp>33.0</ns3:atemp>
            <ns3:hr>82</ns3:hr>
          </ns3:TrackPointExtension>
        </extensions>
      </trkpt>
      <trkpt lat="36.79268273524940013885498046875" lon="-118.5699786432087421417236328125">
        <ele>1562.4000244140625</ele>
        <time>2021-06-24T16:41:39.000Z</time>
        <extensions>
          <ns3:TrackPointExtension>
            <ns3:atemp>33.0</ns3:atemp>
            <ns3:hr>85</ns3:hr>
          </ns3:TrackPointExtension>
        </extensions>
      </trkpt>
      <trkpt lat="36.79265675134956836700439453125" lon="-118.56993497349321842193603515625">
        <ele>1562.199951171875</ele>
        <time>2021-06-24T16:41:43.000Z</time>
        <extensions>
          <ns3:TrackPointExtension>
            <ns3:atemp>33.0</ns3:atemp>
            <ns3:hr>87</ns3:hr>
          </ns3:TrackPointExtension>
        </extensions>
      </trkpt>
      <trkpt lat="36.792645268142223358154296875" lon="-118.569909073412418365478515625">
        <ele>1562.4000244140625</ele>
        <time>2021-06-24T16:41:45.000Z</time>
        <extensions>
          <ns3:TrackPointExtension>
            <ns3:atemp>33.0</ns3:atemp>
            <ns3:hr>87</ns3:hr>
          </ns3:TrackPointExtension>
        </extensions>
      </trkpt>
      <trkpt lat="36.79261945188045501708984375" lon="-118.56987646780908107757568359375">
        <ele>1562.4000244140625</ele>
        <time>2021-06-24T16:41:48.000Z</time>
        <extensions>
          <ns3:TrackPointExtension>
            <ns3:atemp>32.0</ns3:atemp>
            <ns3:hr>90</ns3:hr>
          </ns3:TrackPointExtension>
        </extensions>
      </trkpt>
      <trkpt lat="36.79259958676993846893310546875" lon="-118.56979365460574626922607421875">
        <ele>1562.4000244140625</ele>
        <time>2021-06-24T16:41:53.000Z</time>
        <extensions>
          <ns3:TrackPointExtension>
            <ns3:atemp>32.0</ns3:atemp>
            <ns3:hr>89</ns3:hr>
          </ns3:TrackPointExtension>
        </extensions>
      </trkpt>
      <trkpt lat="36.792587600648403167724609375" lon="-118.56975392438471317291259765625">
        <ele>1562.5999755859375</ele>
        <time>2021-06-24T16:41:57.000Z</time>
        <extensions>
          <ns3:TrackPointExtension>
            <ns3:atemp>32.0</ns3:atemp>
            <ns3:hr>92</ns3:hr>
          </ns3:TrackPointExtension>
        </extensions>
      </trkpt>
      <trkpt lat="36.79258265532553195953369140625" lon="-118.56971452943980693817138671875">
        <ele>1562.5999755859375</ele>
        <time>2021-06-24T16:42:00.000Z</time>
        <extensions>
          <ns3:TrackPointExtension>
            <ns3:atemp>32.0</ns3:atemp>
            <ns3:hr>96</ns3:hr>
          </ns3:TrackPointExtension>
        </extensions>
      </trkpt>
      <trkpt lat="36.79256438277661800384521484375" lon="-118.56968686915934085845947265625">
        <ele>1562.4000244140625</ele>
        <time>2021-06-24T16:42:02.000Z</time>
        <extensions>
          <ns3:TrackPointExtension>
            <ns3:atemp>32.0</ns3:atemp>
            <ns3:hr>98</ns3:hr>
          </ns3:TrackPointExtension>
        </extensions>
      </trkpt>
      <trkpt lat="36.79250520654022693634033203125" lon="-118.56962484307587146759033203125">
        <ele>1562.199951171875</ele>
        <time>2021-06-24T16:42:09.000Z</time>
        <extensions>
          <ns3:TrackPointExtension>
            <ns3:atemp>33.0</ns3:atemp>
            <ns3:hr>96</ns3:hr>
          </ns3:TrackPointExtension>
        </extensions>
      </trkpt>
      <trkpt lat="36.7924202978610992431640625" lon="-118.5695023834705352783203125">
        <ele>1562</ele>
        <time>2021-06-24T16:42:17.000Z</time>
        <extensions>
          <ns3:TrackPointExtension>
            <ns3:atemp>33.0</ns3:atemp>
            <ns3:hr>99</ns3:hr>
          </ns3:TrackPointExtension>
        </extensions>
      </trkpt>
      <trkpt lat="36.792337484657764434814453125" lon="-118.5694100148975849151611328125">
        <ele>1562.5999755859375</ele>
        <time>2021-06-24T16:42:27.000Z</time>
        <extensions>
          <ns3:TrackPointExtension>
            <ns3:atemp>33.0</ns3:atemp>
            <ns3:hr>98</ns3:hr>
          </ns3:TrackPointExtension>
        </extensions>
      </trkpt>
      <trkpt lat="36.79227923043072223663330078125" lon="-118.5692993737757205963134765625">
        <ele>1562.4000244140625</ele>
        <time>2021-06-24T16:42:35.000Z</time>
        <extensions>
          <ns3:TrackPointExtension>
            <ns3:atemp>33.0</ns3:atemp>
            <ns3:hr>98</ns3:hr>
          </ns3:TrackPointExtension>
        </extensions>
      </trkpt>
      <trkpt lat="36.79225257597863674163818359375" lon="-118.56923994608223438262939453125">
        <ele>1562</ele>
        <time>2021-06-24T16:42:40.000Z</time>
        <extensions>
          <ns3:TrackPointExtension>
            <ns3:atemp>33.0</ns3:atemp>
            <ns3:hr>101</ns3:hr>
          </ns3:TrackPointExtension>
        </extensions>
      </trkpt>
      <trkpt lat="36.79223966784775257110595703125" lon="-118.56921714730560779571533203125">
        <ele>1562.199951171875</ele>
        <time>2021-06-24T16:42:42.000Z</time>
        <extensions>
          <ns3:TrackPointExtension>
            <ns3:atemp>33.0</ns3:atemp>
            <ns3:hr>99</ns3:hr>
          </ns3:TrackPointExtension>
        </extensions>
      </trkpt>
      <trkpt lat="36.79218417964875698089599609375" lon="-118.569128215312957763671875">
        <ele>1562.800048828125</ele>
        <time>2021-06-24T16:42:50.000Z</time>
        <extensions>
          <ns3:TrackPointExtension>
            <ns3:atemp>33.0</ns3:atemp>
            <ns3:hr>96</ns3:hr>
          </ns3:TrackPointExtension>
        </extensions>
      </trkpt>
      <trkpt lat="36.7921783961355686187744140625" lon="-118.5691139660775661468505859375">
        <ele>1562.800048828125</ele>
        <time>2021-06-24T16:42:51.000Z</time>
        <extensions>
          <ns3:TrackPointExtension>
            <ns3:atemp>33.0</ns3:atemp>
            <ns3:hr>96</ns3:hr>
          </ns3:TrackPointExtension>
        </extensions>
      </trkpt>
      <trkpt lat="36.792153082787990570068359375" lon="-118.569029308855533599853515625">
        <ele>1563.199951171875</ele>
        <time>2021-06-24T16:42:59.000Z</time>
        <extensions>
          <ns3:TrackPointExtension>
            <ns3:atemp>33.0</ns3:atemp>
            <ns3:hr>95</ns3:hr>
          </ns3:TrackPointExtension>
        </extensions>
      </trkpt>
      <trkpt lat="36.79213020019233226776123046875" lon="-118.56895864941179752349853515625">
        <ele>1563.4000244140625</ele>
        <time>2021-06-24T16:43:06.000Z</time>
        <extensions>
          <ns3:TrackPointExtension>
            <ns3:atemp>33.0</ns3:atemp>
            <ns3:hr>97</ns3:hr>
          </ns3:TrackPointExtension>
        </extensions>
      </trkpt>
      <trkpt lat="36.792105138301849365234375" lon="-118.56892109848558902740478515625">
        <ele>1563.4000244140625</ele>
        <time>2021-06-24T16:43:10.000Z</time>
        <extensions>
          <ns3:TrackPointExtension>
            <ns3:atemp>33.0</ns3:atemp>
            <ns3:hr>97</ns3:hr>
          </ns3:TrackPointExtension>
        </extensions>
      </trkpt>
      <trkpt lat="36.7920918948948383331298828125" lon="-118.5689003951847553253173828125">
        <ele>1563.4000244140625</ele>
        <time>2021-06-24T16:43:12.000Z</time>
        <extensions>
          <ns3:TrackPointExtension>
            <ns3:atemp>33.0</ns3:atemp>
            <ns3:hr>100</ns3:hr>
          </ns3:TrackPointExtension>
        </extensions>
      </trkpt>
      <trkpt lat="36.79207655601203441619873046875" lon="-118.56888078153133392333984375">
        <ele>1563</ele>
        <time>2021-06-24T16:43:14.000Z</time>
        <extensions>
          <ns3:TrackPointExtension>
            <ns3:atemp>33.0</ns3:atemp>
            <ns3:hr>103</ns3:hr>
          </ns3:TrackPointExtension>
        </extensions>
      </trkpt>
      <trkpt lat="36.79207102395594120025634765625" lon="-118.56884147040545940399169921875">
        <ele>1562.800048828125</ele>
        <time>2021-06-24T16:43:17.000Z</time>
        <extensions>
          <ns3:TrackPointExtension>
            <ns3:atemp>33.0</ns3:atemp>
            <ns3:hr>106</ns3:hr>
          </ns3:TrackPointExtension>
        </extensions>
      </trkpt>
      <trkpt lat="36.79205107502639293670654296875" lon="-118.56879721395671367645263671875">
        <ele>1562.800048828125</ele>
        <time>2021-06-24T16:43:20.000Z</time>
        <extensions>
          <ns3:TrackPointExtension>
            <ns3:atemp>33.0</ns3:atemp>
            <ns3:hr>109</ns3:hr>
          </ns3:TrackPointExtension>
        </extensions>
      </trkpt>
      <trkpt lat="36.7920399270951747894287109375" lon="-118.56876653619110584259033203125">
        <ele>1562.800048828125</ele>
        <time>2021-06-24T16:43:22.000Z</time>
        <extensions>
          <ns3:TrackPointExtension>
            <ns3:atemp>33.0</ns3:atemp>
            <ns3:hr>109</ns3:hr>
          </ns3:TrackPointExtension>
        </extensions>
      </trkpt>
      <trkpt lat="36.7919819243252277374267578125" lon="-118.568644411861896514892578125">
        <ele>1563</ele>
        <time>2021-06-24T16:43:31.000Z</time>
        <extensions>
          <ns3:TrackPointExtension>
            <ns3:atemp>32.0</ns3:atemp>
            <ns3:hr>109</ns3:hr>
          </ns3:TrackPointExtension>
        </extensions>
      </trkpt>
      <trkpt lat="36.79197161458432674407958984375" lon="-118.56861029751598834991455078125">
        <ele>1563.199951171875</ele>
        <time>2021-06-24T16:43:34.000Z</time>
        <extensions>
          <ns3:TrackPointExtension>
            <ns3:atemp>32.0</ns3:atemp>
            <ns3:hr>106</ns3:hr>
          </ns3:TrackPointExtension>
        </extensions>
      </trkpt>
      <trkpt lat="36.791965663433074951171875" lon="-118.568582721054553985595703125">
        <ele>1563.199951171875</ele>
        <time>2021-06-24T16:43:36.000Z</time>
        <extensions>
          <ns3:TrackPointExtension>
            <ns3:atemp>32.0</ns3:atemp>
            <ns3:hr>103</ns3:hr>
          </ns3:TrackPointExtension>
        </extensions>
      </trkpt>
      <trkpt lat="36.791961304843425750732421875" lon="-118.56853745877742767333984375">
        <ele>1563.5999755859375</ele>
        <time>2021-06-24T16:43:40.000Z</time>
        <extensions>
          <ns3:TrackPointExtension>
            <ns3:atemp>32.0</ns3:atemp>
            <ns3:hr>103</ns3:hr>
          </ns3:TrackPointExtension>
        </extensions>
      </trkpt>
      <trkpt lat="36.79194965399801731109619140625" lon="-118.56851004995405673980712890625">
        <ele>1563.4000244140625</ele>
        <time>2021-06-24T16:43:42.000Z</time>
        <extensions>
          <ns3:TrackPointExtension>
            <ns3:atemp>32.0</ns3:atemp>
            <ns3:hr>100</ns3:hr>
          </ns3:TrackPointExtension>
        </extensions>
      </trkpt>
      <trkpt lat="36.791906319558620452880859375" lon="-118.56843880377709865570068359375">
        <ele>1562.800048828125</ele>
        <time>2021-06-24T16:43:48.000Z</time>
        <extensions>
          <ns3:TrackPointExtension>
            <ns3:atemp>32.0</ns3:atemp>
            <ns3:hr>98</ns3:hr>
          </ns3:TrackPointExtension>
        </extensions>
      </trkpt>
      <trkpt lat="36.79189148359000682830810546875" lon="-118.56841483153402805328369140625">
        <ele>1562.5999755859375</ele>
        <time>2021-06-24T16:43:50.000Z</time>
        <extensions>
          <ns3:TrackPointExtension>
            <ns3:atemp>32.0</ns3:atemp>
            <ns3:hr>98</ns3:hr>
          </ns3:TrackPointExtension>
        </extensions>
      </trkpt>
      <trkpt lat="36.791878156363964080810546875" lon="-118.56837878935039043426513671875">
        <ele>1562.5999755859375</ele>
        <time>2021-06-24T16:43:53.000Z</time>
        <extensions>
          <ns3:TrackPointExtension>
            <ns3:atemp>32.0</ns3:atemp>
            <ns3:hr>98</ns3:hr>
          </ns3:TrackPointExtension>
        </extensions>
      </trkpt>
      <trkpt lat="36.7918704450130462646484375" lon="-118.56833905912935733795166015625">
        <ele>1562.800048828125</ele>
        <time>2021-06-24T16:43:56.000Z</time>
        <extensions>
          <ns3:TrackPointExtension>
            <ns3:atemp>32.0</ns3:atemp>
            <ns3:hr>96</ns3:hr>
          </ns3:TrackPointExtension>
        </extensions>
      </trkpt>
      <trkpt lat="36.79185376502573490142822265625" lon="-118.568289019167423248291015625">
        <ele>1562.800048828125</ele>
        <time>2021-06-24T16:44:00.000Z</time>
        <extensions>
          <ns3:TrackPointExtension>
            <ns3:atemp>32.0</ns3:atemp>
            <ns3:hr>95</ns3:hr>
          </ns3:TrackPointExtension>
        </extensions>
      </trkpt>
      <trkpt lat="36.79183348082005977630615234375" lon="-118.56825071386992931365966796875">
        <ele>1562.800048828125</ele>
        <time>2021-06-24T16:44:03.000Z</time>
        <extensions>
          <ns3:TrackPointExtension>
            <ns3:atemp>32.0</ns3:atemp>
            <ns3:hr>94</ns3:hr>
          </ns3:TrackPointExtension>
        </extensions>
      </trkpt>
      <trkpt lat="36.7917479015886783599853515625" lon="-118.568103946745395660400390625">
        <ele>1563</ele>
        <time>2021-06-24T16:44:14.000Z</time>
        <extensions>
          <ns3:TrackPointExtension>
            <ns3:atemp>32.0</ns3:atemp>
            <ns3:hr>96</ns3:hr>
          </ns3:TrackPointExtension>
        </extensions>
      </trkpt>
      <trkpt lat="36.791723258793354034423828125" lon="-118.56806413270533084869384765625">
        <ele>1562.800048828125</ele>
        <time>2021-06-24T16:44:17.000Z</time>
        <extensions>
          <ns3:TrackPointExtension>
            <ns3:atemp>32.0</ns3:atemp>
            <ns3:hr>93</ns3:hr>
          </ns3:TrackPointExtension>
        </extensions>
      </trkpt>
      <trkpt lat="36.79166366346180438995361328125" lon="-118.56799355708062648773193359375">
        <ele>1562.4000244140625</ele>
        <time>2021-06-24T16:44:23.000Z</time>
        <extensions>
          <ns3:TrackPointExtension>
            <ns3:atemp>32.0</ns3:atemp>
            <ns3:hr>91</ns3:hr>
          </ns3:TrackPointExtension>
        </extensions>
      </trkpt>
      <trkpt lat="36.79160214029252529144287109375" lon="-118.56789766810834407806396484375">
        <ele>1562.199951171875</ele>
        <time>2021-06-24T16:44:30.000Z</time>
        <extensions>
          <ns3:TrackPointExtension>
            <ns3:atemp>32.0</ns3:atemp>
            <ns3:hr>91</ns3:hr>
          </ns3:TrackPointExtension>
        </extensions>
      </trkpt>
      <trkpt lat="36.79156810976564884185791015625" lon="-118.5678405873477458953857421875">
        <ele>1562</ele>
        <time>2021-06-24T16:44:35.000Z</time>
        <extensions>
          <ns3:TrackPointExtension>
            <ns3:atemp>32.0</ns3:atemp>
            <ns3:hr>88</ns3:hr>
          </ns3:TrackPointExtension>
        </extensions>
      </trkpt>
      <trkpt lat="36.79151597432792186737060546875" lon="-118.56778644025325775146484375">
        <ele>1562</ele>
        <time>2021-06-24T16:44:40.000Z</time>
        <extensions>
          <ns3:TrackPointExtension>
            <ns3:atemp>32.0</ns3:atemp>
            <ns3:hr>91</ns3:hr>
          </ns3:TrackPointExtension>
        </extensions>
      </trkpt>
      <trkpt lat="36.79139762185513973236083984375" lon="-118.56767588295042514801025390625">
        <ele>1561.4000244140625</ele>
        <time>2021-06-24T16:44:51.000Z</time>
        <extensions>
          <ns3:TrackPointExtension>
            <ns3:atemp>32.0</ns3:atemp>
            <ns3:hr>88</ns3:hr>
          </ns3:TrackPointExtension>
        </extensions>
      </trkpt>
      <trkpt lat="36.79136392660439014434814453125" lon="-118.567626513540744781494140625">
        <ele>1561.4000244140625</ele>
        <time>2021-06-24T16:44:56.000Z</time>
        <extensions>
          <ns3:TrackPointExtension>
            <ns3:atemp>32.0</ns3:atemp>
            <ns3:hr>92</ns3:hr>
          </ns3:TrackPointExtension>
        </extensions>
      </trkpt>
      <trkpt lat="36.79135118611156940460205078125" lon="-118.56761771254241466522216796875">
        <ele>1562</ele>
        <time>2021-06-24T16:44:58.000Z</time>
        <extensions>
          <ns3:TrackPointExtension>
            <ns3:atemp>32.0</ns3:atemp>
            <ns3:hr>92</ns3:hr>
          </ns3:TrackPointExtension>
        </extensions>
      </trkpt>
      <trkpt lat="36.79134112782776355743408203125" lon="-118.567611090838909149169921875">
        <ele>1562</ele>
        <time>2021-06-24T16:44:59.000Z</time>
        <extensions>
          <ns3:TrackPointExtension>
            <ns3:atemp>32.0</ns3:atemp>
            <ns3:hr>92</ns3:hr>
          </ns3:TrackPointExtension>
        </extensions>
      </trkpt>
      <trkpt lat="36.7912902496755123138427734375" lon="-118.5675351507961750030517578125">
        <ele>1562.199951171875</ele>
        <time>2021-06-24T16:45:05.000Z</time>
        <extensions>
          <ns3:TrackPointExtension>
            <ns3:atemp>32.0</ns3:atemp>
            <ns3:hr>95</ns3:hr>
          </ns3:TrackPointExtension>
        </extensions>
      </trkpt>
      <trkpt lat="36.79127189330756664276123046875" lon="-118.56751260347664356231689453125">
        <ele>1562.199951171875</ele>
        <time>2021-06-24T16:45:08.000Z</time>
        <extensions>
          <ns3:TrackPointExtension>
            <ns3:atemp>32.0</ns3:atemp>
            <ns3:hr>96</ns3:hr>
          </ns3:TrackPointExtension>
        </extensions>
      </trkpt>
      <trkpt lat="36.7912490107119083404541015625" lon="-118.5674647428095340728759765625">
        <ele>1562.199951171875</ele>
        <time>2021-06-24T16:45:12.000Z</time>
        <extensions>
          <ns3:TrackPointExtension>
            <ns3:atemp>32.0</ns3:atemp>
            <ns3:hr>99</ns3:hr>
          </ns3:TrackPointExtension>
        </extensions>
      </trkpt>
      <trkpt lat="36.79119243286550045013427734375" lon="-118.56742995791137218475341796875">
        <ele>1562.199951171875</ele>
        <time>2021-06-24T16:45:17.000Z</time>
        <extensions>
          <ns3:TrackPointExtension>
            <ns3:atemp>32.0</ns3:atemp>
            <ns3:hr>99</ns3:hr>
          </ns3:TrackPointExtension>
        </extensions>
      </trkpt>
      <trkpt lat="36.79112135432660579681396484375" lon="-118.5673306323587894439697265625">
        <ele>1562.4000244140625</ele>
        <time>2021-06-24T16:45:24.000Z</time>
        <extensions>
          <ns3:TrackPointExtension>
            <ns3:atemp>32.0</ns3:atemp>
            <ns3:hr>102</ns3:hr>
          </ns3:TrackPointExtension>
        </extensions>
      </trkpt>
      <trkpt lat="36.79109034128487110137939453125" lon="-118.56730070896446704864501953125">
        <ele>1562.4000244140625</ele>
        <time>2021-06-24T16:45:28.000Z</time>
        <extensions>
          <ns3:TrackPointExtension>
            <ns3:atemp>32.0</ns3:atemp>
            <ns3:hr>103</ns3:hr>
          </ns3:TrackPointExtension>
        </extensions>
      </trkpt>
      <trkpt lat="36.79107961244881153106689453125" lon="-118.567283190786838531494140625">
        <ele>1562.4000244140625</ele>
        <time>2021-06-24T16:45:30.000Z</time>
        <extensions>
          <ns3:TrackPointExtension>
            <ns3:atemp>32.0</ns3:atemp>
            <ns3:hr>106</ns3:hr>
          </ns3:TrackPointExtension>
        </extensions>
      </trkpt>
      <trkpt lat="36.79106268100440502166748046875" lon="-118.56725913472473621368408203125">
        <ele>1562.4000244140625</ele>
        <time>2021-06-24T16:45:32.000Z</time>
        <extensions>
          <ns3:TrackPointExtension>
            <ns3:atemp>32.0</ns3:atemp>
            <ns3:hr>107</ns3:hr>
          </ns3:TrackPointExtension>
        </extensions>
      </trkpt>
      <trkpt lat="36.79102764464914798736572265625" lon="-118.56724237091839313507080078125">
        <ele>1562.5999755859375</ele>
        <time>2021-06-24T16:45:35.000Z</time>
        <extensions>
          <ns3:TrackPointExtension>
            <ns3:atemp>32.0</ns3:atemp>
            <ns3:hr>105</ns3:hr>
          </ns3:TrackPointExtension>
        </extensions>
      </trkpt>
      <trkpt lat="36.7910025827586650848388671875" lon="-118.56720683164894580841064453125">
        <ele>1562.5999755859375</ele>
        <time>2021-06-24T16:45:39.000Z</time>
        <extensions>
          <ns3:TrackPointExtension>
            <ns3:atemp>32.0</ns3:atemp>
            <ns3:hr>105</ns3:hr>
          </ns3:TrackPointExtension>
        </extensions>
      </trkpt>
      <trkpt lat="36.790952794253826141357421875" lon="-118.5671460628509521484375">
        <ele>1562.5999755859375</ele>
        <time>2021-06-24T16:45:46.000Z</time>
        <extensions>
          <ns3:TrackPointExtension>
            <ns3:atemp>32.0</ns3:atemp>
            <ns3:hr>105</ns3:hr>
          </ns3:TrackPointExtension>
        </extensions>
      </trkpt>
      <trkpt lat="36.7909211106598377227783203125" lon="-118.56711563654243946075439453125">
        <ele>1562.5999755859375</ele>
        <time>2021-06-24T16:45:49.000Z</time>
        <extensions>
          <ns3:TrackPointExtension>
            <ns3:atemp>32.0</ns3:atemp>
            <ns3:hr>108</ns3:hr>
          </ns3:TrackPointExtension>
        </extensions>
      </trkpt>
      <trkpt lat="36.79090283811092376708984375" lon="-118.56709820218384265899658203125">
        <ele>1562.5999755859375</ele>
        <time>2021-06-24T16:45:51.000Z</time>
        <extensions>
          <ns3:TrackPointExtension>
            <ns3:atemp>32.0</ns3:atemp>
            <ns3:hr>109</ns3:hr>
          </ns3:TrackPointExtension>
        </extensions>
      </trkpt>
      <trkpt lat="36.79089688695967197418212890625" lon="-118.56708881445229053497314453125">
        <ele>1562.5999755859375</ele>
        <time>2021-06-24T16:45:52.000Z</time>
        <extensions>
          <ns3:TrackPointExtension>
            <ns3:atemp>32.0</ns3:atemp>
            <ns3:hr>110</ns3:hr>
          </ns3:TrackPointExtension>
        </extensions>
      </trkpt>
      <trkpt lat="36.79088867269456386566162109375" lon="-118.567046485841274261474609375">
        <ele>1563</ele>
        <time>2021-06-24T16:45:55.000Z</time>
        <extensions>
          <ns3:TrackPointExtension>
            <ns3:atemp>32.0</ns3:atemp>
            <ns3:hr>113</ns3:hr>
          </ns3:TrackPointExtension>
        </extensions>
      </trkpt>
      <trkpt lat="36.790877692401409149169921875" lon="-118.5670235194265842437744140625">
        <ele>1563</ele>
        <time>2021-06-24T16:45:57.000Z</time>
        <extensions>
          <ns3:TrackPointExtension>
            <ns3:atemp>32.0</ns3:atemp>
            <ns3:hr>116</ns3:hr>
          </ns3:TrackPointExtension>
        </extensions>
      </trkpt>
      <trkpt lat="36.79087107069790363311767578125" lon="-118.566987477242946624755859375">
        <ele>1562.800048828125</ele>
        <time>2021-06-24T16:46:00.000Z</time>
        <extensions>
          <ns3:TrackPointExtension>
            <ns3:atemp>32.0</ns3:atemp>
            <ns3:hr>118</ns3:hr>
          </ns3:TrackPointExtension>
        </extensions>
      </trkpt>
      <trkpt lat="36.7908564023673534393310546875" lon="-118.56696945615112781524658203125">
        <ele>1562.800048828125</ele>
        <time>2021-06-24T16:46:02.000Z</time>
        <extensions>
          <ns3:TrackPointExtension>
            <ns3:atemp>32.0</ns3:atemp>
            <ns3:hr>121</ns3:hr>
          </ns3:TrackPointExtension>
        </extensions>
      </trkpt>
      <trkpt lat="36.79085212759673595428466796875" lon="-118.56695973314344882965087890625">
        <ele>1562.800048828125</ele>
        <time>2021-06-24T16:46:03.000Z</time>
        <extensions>
          <ns3:TrackPointExtension>
            <ns3:atemp>32.0</ns3:atemp>
            <ns3:hr>119</ns3:hr>
          </ns3:TrackPointExtension>
        </extensions>
      </trkpt>
      <trkpt lat="36.79082371294498443603515625" lon="-118.5669299773871898651123046875">
        <ele>1563.199951171875</ele>
        <time>2021-06-24T16:46:06.000Z</time>
        <extensions>
          <ns3:TrackPointExtension>
            <ns3:atemp>32.0</ns3:atemp>
            <ns3:hr>116</ns3:hr>
          </ns3:TrackPointExtension>
        </extensions>
      </trkpt>
      <trkpt lat="36.7907957173883914947509765625" lon="-118.5668847151100635528564453125">
        <ele>1563.4000244140625</ele>
        <time>2021-06-24T16:46:10.000Z</time>
        <extensions>
          <ns3:TrackPointExtension>
            <ns3:atemp>32.0</ns3:atemp>
            <ns3:hr>114</ns3:hr>
          </ns3:TrackPointExtension>
        </extensions>
      </trkpt>
      <trkpt lat="36.79076428525149822235107421875" lon="-118.56682696379721164703369140625">
        <ele>1563.4000244140625</ele>
        <time>2021-06-24T16:46:14.000Z</time>
        <extensions>
          <ns3:TrackPointExtension>
            <ns3:atemp>32.0</ns3:atemp>
            <ns3:hr>116</ns3:hr>
          </ns3:TrackPointExtension>
        </extensions>
      </trkpt>
      <trkpt lat="36.79072522558271884918212890625" lon="-118.5667308233678340911865234375">
        <ele>1563.5999755859375</ele>
        <time>2021-06-24T16:46:22.000Z</time>
        <extensions>
          <ns3:TrackPointExtension>
            <ns3:atemp>32.0</ns3:atemp>
            <ns3:hr>116</ns3:hr>
          </ns3:TrackPointExtension>
        </extensions>
      </trkpt>
      <trkpt lat="36.790693290531635284423828125" lon="-118.56664038263261318206787109375">
        <ele>1563.199951171875</ele>
        <time>2021-06-24T16:46:29.000Z</time>
        <extensions>
          <ns3:TrackPointExtension>
            <ns3:atemp>32.0</ns3:atemp>
            <ns3:hr>113</ns3:hr>
          </ns3:TrackPointExtension>
        </extensions>
      </trkpt>
      <trkpt lat="36.7906877584755420684814453125" lon="-118.56660333462059497833251953125">
        <ele>1563.4000244140625</ele>
        <time>2021-06-24T16:46:32.000Z</time>
        <extensions>
          <ns3:TrackPointExtension>
            <ns3:atemp>32.0</ns3:atemp>
            <ns3:hr>110</ns3:hr>
          </ns3:TrackPointExtension>
        </extensions>
      </trkpt>
      <trkpt lat="36.79065800271928310394287109375" lon="-118.56653795577585697174072265625">
        <ele>1563.4000244140625</ele>
        <time>2021-06-24T16:46:37.000Z</time>
        <extensions>
          <ns3:TrackPointExtension>
            <ns3:atemp>32.0</ns3:atemp>
            <ns3:hr>109</ns3:hr>
          </ns3:TrackPointExtension>
        </extensions>
      </trkpt>
      <trkpt lat="36.79062816314399242401123046875" lon="-118.56647140346467494964599609375">
        <ele>1563.4000244140625</ele>
        <time>2021-06-24T16:46:42.000Z</time>
        <extensions>
          <ns3:TrackPointExtension>
            <ns3:atemp>32.0</ns3:atemp>
            <ns3:hr>105</ns3:hr>
          </ns3:TrackPointExtension>
        </extensions>
      </trkpt>
      <trkpt lat="36.7906076274812221527099609375" lon="-118.56643033213913440704345703125">
        <ele>1563.4000244140625</ele>
        <time>2021-06-24T16:46:46.000Z</time>
        <extensions>
          <ns3:TrackPointExtension>
            <ns3:atemp>32.0</ns3:atemp>
            <ns3:hr>104</ns3:hr>
          </ns3:TrackPointExtension>
        </extensions>
      </trkpt>
      <trkpt lat="36.7906044423580169677734375" lon="-118.56641851365566253662109375">
        <ele>1563.5999755859375</ele>
        <time>2021-06-24T16:46:47.000Z</time>
        <extensions>
          <ns3:TrackPointExtension>
            <ns3:atemp>32.0</ns3:atemp>
            <ns3:hr>103</ns3:hr>
          </ns3:TrackPointExtension>
        </extensions>
      </trkpt>
      <trkpt lat="36.79057267494499683380126953125" lon="-118.56630963273346424102783203125">
        <ele>1563.4000244140625</ele>
        <time>2021-06-24T16:46:56.000Z</time>
        <extensions>
          <ns3:TrackPointExtension>
            <ns3:atemp>32.0</ns3:atemp>
            <ns3:hr>102</ns3:hr>
          </ns3:TrackPointExtension>
        </extensions>
      </trkpt>
      <trkpt lat="36.79056177847087383270263671875" lon="-118.5662825591862201690673828125">
        <ele>1563.4000244140625</ele>
        <time>2021-06-24T16:46:58.000Z</time>
        <extensions>
          <ns3:TrackPointExtension>
            <ns3:atemp>32.0</ns3:atemp>
            <ns3:hr>102</ns3:hr>
          </ns3:TrackPointExtension>
        </extensions>
      </trkpt>
      <trkpt lat="36.790553145110607147216796875" lon="-118.56622598133981227874755859375">
        <ele>1563.4000244140625</ele>
        <time>2021-06-24T16:47:02.000Z</time>
        <extensions>
          <ns3:TrackPointExtension>
            <ns3:atemp>32.0</ns3:atemp>
            <ns3:hr>102</ns3:hr>
          </ns3:TrackPointExtension>
        </extensions>
      </trkpt>
      <trkpt lat="36.7905077151954174041748046875" lon="-118.5661340318620204925537109375">
        <ele>1563.199951171875</ele>
        <time>2021-06-24T16:47:09.000Z</time>
        <extensions>
          <ns3:TrackPointExtension>
            <ns3:atemp>32.0</ns3:atemp>
            <ns3:hr>102</ns3:hr>
          </ns3:TrackPointExtension>
        </extensions>
      </trkpt>
      <trkpt lat="36.7904909513890743255615234375" lon="-118.56607963331043720245361328125">
        <ele>1563.199951171875</ele>
        <time>2021-06-24T16:47:13.000Z</time>
        <extensions>
          <ns3:TrackPointExtension>
            <ns3:atemp>32.0</ns3:atemp>
            <ns3:hr>104</ns3:hr>
          </ns3:TrackPointExtension>
        </extensions>
      </trkpt>
      <trkpt lat="36.79047896526753902435302734375" lon="-118.566050045192241668701171875">
        <ele>1563</ele>
        <time>2021-06-24T16:47:17.000Z</time>
        <extensions>
          <ns3:TrackPointExtension>
            <ns3:atemp>33.0</ns3:atemp>
            <ns3:hr>104</ns3:hr>
          </ns3:TrackPointExtension>
        </extensions>
      </trkpt>
      <trkpt lat="36.7904473654925823211669921875" lon="-118.5659633763134479522705078125">
        <ele>1563</ele>
        <time>2021-06-24T16:47:24.000Z</time>
        <extensions>
          <ns3:TrackPointExtension>
            <ns3:atemp>33.0</ns3:atemp>
            <ns3:hr>105</ns3:hr>
          </ns3:TrackPointExtension>
        </extensions>
      </trkpt>
      <trkpt lat="36.79037176072597503662109375" lon="-118.565824069082736968994140625">
        <ele>1562.5999755859375</ele>
        <time>2021-06-24T16:47:34.000Z</time>
        <extensions>
          <ns3:TrackPointExtension>
            <ns3:atemp>33.0</ns3:atemp>
            <ns3:hr>103</ns3:hr>
          </ns3:TrackPointExtension>
        </extensions>
      </trkpt>
      <trkpt lat="36.790361702442169189453125" lon="-118.56580386869609355926513671875">
        <ele>1562.5999755859375</ele>
        <time>2021-06-24T16:47:36.000Z</time>
        <extensions>
          <ns3:TrackPointExtension>
            <ns3:atemp>33.0</ns3:atemp>
            <ns3:hr>102</ns3:hr>
          </ns3:TrackPointExtension>
        </extensions>
      </trkpt>
      <trkpt lat="36.79035340435802936553955078125" lon="-118.5657726041972637176513671875">
        <ele>1562.5999755859375</ele>
        <time>2021-06-24T16:47:39.000Z</time>
        <extensions>
          <ns3:TrackPointExtension>
            <ns3:atemp>33.0</ns3:atemp>
            <ns3:hr>100</ns3:hr>
          </ns3:TrackPointExtension>
        </extensions>
      </trkpt>
      <trkpt lat="36.7903538234531879425048828125" lon="-118.56576061807572841644287109375">
        <ele>1562.5999755859375</ele>
        <time>2021-06-24T16:47:41.000Z</time>
        <extensions>
          <ns3:TrackPointExtension>
            <ns3:atemp>33.0</ns3:atemp>
            <ns3:hr>97</ns3:hr>
          </ns3:TrackPointExtension>
        </extensions>
      </trkpt>
      <trkpt lat="36.79035390727221965789794921875" lon="-118.56573949567973613739013671875">
        <ele>1562.199951171875</ele>
        <time>2021-06-24T16:47:43.000Z</time>
        <extensions>
          <ns3:TrackPointExtension>
            <ns3:atemp>33.0</ns3:atemp>
            <ns3:hr>95</ns3:hr>
          </ns3:TrackPointExtension>
        </extensions>
      </trkpt>
      <trkpt lat="36.7903316952288150787353515625" lon="-118.56568761169910430908203125">
        <ele>1562.199951171875</ele>
        <time>2021-06-24T16:47:46.000Z</time>
        <extensions>
          <ns3:TrackPointExtension>
            <ns3:atemp>33.0</ns3:atemp>
            <ns3:hr>93</ns3:hr>
          </ns3:TrackPointExtension>
        </extensions>
      </trkpt>
      <trkpt lat="36.79031367413699626922607421875" lon="-118.56565064750611782073974609375">
        <ele>1562.4000244140625</ele>
        <time>2021-06-24T16:47:50.000Z</time>
        <extensions>
          <ns3:TrackPointExtension>
            <ns3:atemp>33.0</ns3:atemp>
            <ns3:hr>92</ns3:hr>
          </ns3:TrackPointExtension>
        </extensions>
      </trkpt>
      <trkpt lat="36.79030998609960079193115234375" lon="-118.56562064029276371002197265625">
        <ele>1562.4000244140625</ele>
        <time>2021-06-24T16:47:52.000Z</time>
        <extensions>
          <ns3:TrackPointExtension>
            <ns3:atemp>33.0</ns3:atemp>
            <ns3:hr>91</ns3:hr>
          </ns3:TrackPointExtension>
        </extensions>
      </trkpt>
      <trkpt lat="36.79025776684284210205078125" lon="-118.56549591757357120513916015625">
        <ele>1562.4000244140625</ele>
        <time>2021-06-24T16:48:01.000Z</time>
        <extensions>
          <ns3:TrackPointExtension>
            <ns3:atemp>33.0</ns3:atemp>
            <ns3:hr>93</ns3:hr>
          </ns3:TrackPointExtension>
        </extensions>
      </trkpt>
      <trkpt lat="36.7902056314051151275634765625" lon="-118.56538209132850170135498046875">
        <ele>1562.800048828125</ele>
        <time>2021-06-24T16:48:10.000Z</time>
        <extensions>
          <ns3:TrackPointExtension>
            <ns3:atemp>33.0</ns3:atemp>
            <ns3:hr>95</ns3:hr>
          </ns3:TrackPointExtension>
        </extensions>
      </trkpt>
      <trkpt lat="36.79011753760278224945068359375" lon="-118.5653172992169857025146484375">
        <ele>1563</ele>
        <time>2021-06-24T16:48:19.000Z</time>
        <extensions>
          <ns3:TrackPointExtension>
            <ns3:atemp>33.0</ns3:atemp>
            <ns3:hr>97</ns3:hr>
          </ns3:TrackPointExtension>
        </extensions>
      </trkpt>
      <trkpt lat="36.79006255231797695159912109375" lon="-118.56526256538927555084228515625">
        <ele>1563</ele>
        <time>2021-06-24T16:48:24.000Z</time>
        <extensions>
          <ns3:TrackPointExtension>
            <ns3:atemp>33.0</ns3:atemp>
            <ns3:hr>102</ns3:hr>
          </ns3:TrackPointExtension>
        </extensions>
      </trkpt>
      <trkpt lat="36.79004981182515621185302734375" lon="-118.56525502167642116546630859375">
        <ele>1563</ele>
        <time>2021-06-24T16:48:25.000Z</time>
        <extensions>
          <ns3:TrackPointExtension>
            <ns3:atemp>33.0</ns3:atemp>
            <ns3:hr>99</ns3:hr>
          </ns3:TrackPointExtension>
        </extensions>
      </trkpt>
      <trkpt lat="36.7900138534605503082275390625" lon="-118.5652378387749195098876953125">
        <ele>1562.800048828125</ele>
        <time>2021-06-24T16:48:28.000Z</time>
        <extensions>
          <ns3:TrackPointExtension>
            <ns3:atemp>33.0</ns3:atemp>
            <ns3:hr>99</ns3:hr>
          </ns3:TrackPointExtension>
        </extensions>
      </trkpt>
      <trkpt lat="36.78995224647223949432373046875" lon="-118.56521881185472011566162109375">
        <ele>1562.800048828125</ele>
        <time>2021-06-24T16:48:33.000Z</time>
        <extensions>
          <ns3:TrackPointExtension>
            <ns3:atemp>33.0</ns3:atemp>
            <ns3:hr>98</ns3:hr>
          </ns3:TrackPointExtension>
        </extensions>
      </trkpt>
      <trkpt lat="36.78990530781447887420654296875" lon="-118.565201461315155029296875">
        <ele>1562.800048828125</ele>
        <time>2021-06-24T16:48:36.000Z</time>
        <extensions>
          <ns3:TrackPointExtension>
            <ns3:atemp>33.0</ns3:atemp>
            <ns3:hr>97</ns3:hr>
          </ns3:TrackPointExtension>
        </extensions>
      </trkpt>
      <trkpt lat="36.78989164531230926513671875" lon="-118.5651955939829349517822265625">
        <ele>1562.800048828125</ele>
        <time>2021-06-24T16:48:37.000Z</time>
        <extensions>
          <ns3:TrackPointExtension>
            <ns3:atemp>33.0</ns3:atemp>
            <ns3:hr>96</ns3:hr>
          </ns3:TrackPointExtension>
        </extensions>
      </trkpt>
      <trkpt lat="36.7898767255246639251708984375" lon="-118.56519006192684173583984375">
        <ele>1562.800048828125</ele>
        <time>2021-06-24T16:48:38.000Z</time>
        <extensions>
          <ns3:TrackPointExtension>
            <ns3:atemp>33.0</ns3:atemp>
            <ns3:hr>93</ns3:hr>
          </ns3:TrackPointExtension>
        </extensions>
      </trkpt>
      <trkpt lat="36.7897808365523815155029296875" lon="-118.56510330922901630401611328125">
        <ele>1562.800048828125</ele>
        <time>2021-06-24T16:48:48.000Z</time>
        <extensions>
          <ns3:TrackPointExtension>
            <ns3:atemp>33.0</ns3:atemp>
            <ns3:hr>93</ns3:hr>
          </ns3:TrackPointExtension>
        </extensions>
      </trkpt>
      <trkpt lat="36.7897721193730831146240234375" lon="-118.56502778828144073486328125">
        <ele>1563</ele>
        <time>2021-06-24T16:48:54.000Z</time>
        <extensions>
          <ns3:TrackPointExtension>
            <ns3:atemp>33.0</ns3:atemp>
            <ns3:hr>93</ns3:hr>
          </ns3:TrackPointExtension>
        </extensions>
      </trkpt>
      <trkpt lat="36.7897623963654041290283203125" lon="-118.56500423513352870941162109375">
        <ele>1563</ele>
        <time>2021-06-24T16:48:56.000Z</time>
        <extensions>
          <ns3:TrackPointExtension>
            <ns3:atemp>33.0</ns3:atemp>
            <ns3:hr>93</ns3:hr>
          </ns3:TrackPointExtension>
        </extensions>
      </trkpt>
      <trkpt lat="36.78974487818777561187744140625" lon="-118.5649568773806095123291015625">
        <ele>1563</ele>
        <time>2021-06-24T16:49:00.000Z</time>
        <extensions>
          <ns3:TrackPointExtension>
            <ns3:atemp>33.0</ns3:atemp>
            <ns3:hr>96</ns3:hr>
          </ns3:TrackPointExtension>
        </extensions>
      </trkpt>
      <trkpt lat="36.7896996997296810150146484375" lon="-118.56487062759697437286376953125">
        <ele>1563</ele>
        <time>2021-06-24T16:49:07.000Z</time>
        <extensions>
          <ns3:TrackPointExtension>
            <ns3:atemp>33.0</ns3:atemp>
            <ns3:hr>97</ns3:hr>
          </ns3:TrackPointExtension>
        </extensions>
      </trkpt>
      <trkpt lat="36.78964647464454174041748046875" lon="-118.56475981883704662322998046875">
        <ele>1563.4000244140625</ele>
        <time>2021-06-24T16:49:16.000Z</time>
        <extensions>
          <ns3:TrackPointExtension>
            <ns3:atemp>34.0</ns3:atemp>
            <ns3:hr>98</ns3:hr>
          </ns3:TrackPointExtension>
        </extensions>
      </trkpt>
      <trkpt lat="36.78963155485689640045166015625" lon="-118.5647144727408885955810546875">
        <ele>1563.4000244140625</ele>
        <time>2021-06-24T16:49:20.000Z</time>
        <extensions>
          <ns3:TrackPointExtension>
            <ns3:atemp>34.0</ns3:atemp>
            <ns3:hr>97</ns3:hr>
          </ns3:TrackPointExtension>
        </extensions>
      </trkpt>
      <trkpt lat="36.78962434642016887664794921875" lon="-118.56468153186142444610595703125">
        <ele>1563.4000244140625</ele>
        <time>2021-06-24T16:49:23.000Z</time>
        <extensions>
          <ns3:TrackPointExtension>
            <ns3:atemp>34.0</ns3:atemp>
            <ns3:hr>97</ns3:hr>
          </ns3:TrackPointExtension>
        </extensions>
      </trkpt>
      <trkpt lat="36.78961529396474361419677734375" lon="-118.56464431621134281158447265625">
        <ele>1563.4000244140625</ele>
        <time>2021-06-24T16:49:26.000Z</time>
        <extensions>
          <ns3:TrackPointExtension>
            <ns3:atemp>34.0</ns3:atemp>
            <ns3:hr>100</ns3:hr>
          </ns3:TrackPointExtension>
        </extensions>
      </trkpt>
      <trkpt lat="36.78960221819579601287841796875" lon="-118.56462118215858936309814453125">
        <ele>1563.4000244140625</ele>
        <time>2021-06-24T16:49:28.000Z</time>
        <extensions>
          <ns3:TrackPointExtension>
            <ns3:atemp>34.0</ns3:atemp>
            <ns3:hr>101</ns3:hr>
          </ns3:TrackPointExtension>
        </extensions>
      </trkpt>
      <trkpt lat="36.7895176447927951812744140625" lon="-118.564465530216693878173828125">
        <ele>1563.5999755859375</ele>
        <time>2021-06-24T16:49:39.000Z</time>
        <extensions>
          <ns3:TrackPointExtension>
            <ns3:atemp>34.0</ns3:atemp>
            <ns3:hr>100</ns3:hr>
          </ns3:TrackPointExtension>
        </extensions>
      </trkpt>
      <trkpt lat="36.7894998751580715179443359375" lon="-118.56444264762103557586669921875">
        <ele>1563.800048828125</ele>
        <time>2021-06-24T16:49:42.000Z</time>
        <extensions>
          <ns3:TrackPointExtension>
            <ns3:atemp>34.0</ns3:atemp>
            <ns3:hr>100</ns3:hr>
          </ns3:TrackPointExtension>
        </extensions>
      </trkpt>
      <trkpt lat="36.78947129286825656890869140625" lon="-118.5644154064357280731201171875">
        <ele>1563.800048828125</ele>
        <time>2021-06-24T16:49:45.000Z</time>
        <extensions>
          <ns3:TrackPointExtension>
            <ns3:atemp>34.0</ns3:atemp>
            <ns3:hr>98</ns3:hr>
          </ns3:TrackPointExtension>
        </extensions>
      </trkpt>
      <trkpt lat="36.78941982798278331756591796875" lon="-118.564343154430389404296875">
        <ele>1564</ele>
        <time>2021-06-24T16:49:51.000Z</time>
        <extensions>
          <ns3:TrackPointExtension>
            <ns3:atemp>34.0</ns3:atemp>
            <ns3:hr>101</ns3:hr>
          </ns3:TrackPointExtension>
        </extensions>
      </trkpt>
      <trkpt lat="36.78940105251967906951904296875" lon="-118.56432102620601654052734375">
        <ele>1564.199951171875</ele>
        <time>2021-06-24T16:49:53.000Z</time>
        <extensions>
          <ns3:TrackPointExtension>
            <ns3:atemp>34.0</ns3:atemp>
            <ns3:hr>100</ns3:hr>
          </ns3:TrackPointExtension>
        </extensions>
      </trkpt>
      <trkpt lat="36.78935595788061618804931640625" lon="-118.56422245502471923828125">
        <ele>1564</ele>
        <time>2021-06-24T16:50:01.000Z</time>
        <extensions>
          <ns3:TrackPointExtension>
            <ns3:atemp>34.0</ns3:atemp>
            <ns3:hr>97</ns3:hr>
          </ns3:TrackPointExtension>
        </extensions>
      </trkpt>
      <trkpt lat="36.7893491685390472412109375" lon="-118.5642075352370738983154296875">
        <ele>1564.199951171875</ele>
        <time>2021-06-24T16:50:02.000Z</time>
        <extensions>
          <ns3:TrackPointExtension>
            <ns3:atemp>34.0</ns3:atemp>
            <ns3:hr>97</ns3:hr>
          </ns3:TrackPointExtension>
        </extensions>
      </trkpt>
      <trkpt lat="36.78932963870465755462646484375" lon="-118.5641522146761417388916015625">
        <ele>1564.199951171875</ele>
        <time>2021-06-24T16:50:06.000Z</time>
        <extensions>
          <ns3:TrackPointExtension>
            <ns3:atemp>34.0</ns3:atemp>
            <ns3:hr>100</ns3:hr>
          </ns3:TrackPointExtension>
        </extensions>
      </trkpt>
      <trkpt lat="36.78932460956275463104248046875" lon="-118.5641398094594478607177734375">
        <ele>1564.4000244140625</ele>
        <time>2021-06-24T16:50:07.000Z</time>
        <extensions>
          <ns3:TrackPointExtension>
            <ns3:atemp>34.0</ns3:atemp>
            <ns3:hr>100</ns3:hr>
          </ns3:TrackPointExtension>
        </extensions>
      </trkpt>
      <trkpt lat="36.78930021822452545166015625" lon="-118.56409865431487560272216796875">
        <ele>1564.199951171875</ele>
        <time>2021-06-24T16:50:11.000Z</time>
        <extensions>
          <ns3:TrackPointExtension>
            <ns3:atemp>34.0</ns3:atemp>
            <ns3:hr>101</ns3:hr>
          </ns3:TrackPointExtension>
        </extensions>
      </trkpt>
      <trkpt lat="36.789234839379787445068359375" lon="-118.564010225236415863037109375">
        <ele>1564.199951171875</ele>
        <time>2021-06-24T16:50:20.000Z</time>
        <extensions>
          <ns3:TrackPointExtension>
            <ns3:atemp>34.0</ns3:atemp>
            <ns3:hr>98</ns3:hr>
          </ns3:TrackPointExtension>
        </extensions>
      </trkpt>
      <trkpt lat="36.7892202548682689666748046875" lon="-118.56399782001972198486328125">
        <ele>1564.199951171875</ele>
        <time>2021-06-24T16:50:21.000Z</time>
        <extensions>
          <ns3:TrackPointExtension>
            <ns3:atemp>34.0</ns3:atemp>
            <ns3:hr>98</ns3:hr>
          </ns3:TrackPointExtension>
        </extensions>
      </trkpt>
      <trkpt lat="36.78916233591735363006591796875" lon="-118.56392615474760532379150390625">
        <ele>1564.199951171875</ele>
        <time>2021-06-24T16:50:28.000Z</time>
        <extensions>
          <ns3:TrackPointExtension>
            <ns3:atemp>34.0</ns3:atemp>
            <ns3:hr>95</ns3:hr>
          </ns3:TrackPointExtension>
        </extensions>
      </trkpt>
      <trkpt lat="36.78914439864456653594970703125" lon="-118.56390352360904216766357421875">
        <ele>1564.199951171875</ele>
        <time>2021-06-24T16:50:30.000Z</time>
        <extensions>
          <ns3:TrackPointExtension>
            <ns3:atemp>34.0</ns3:atemp>
            <ns3:hr>94</ns3:hr>
          </ns3:TrackPointExtension>
        </extensions>
      </trkpt>
      <trkpt lat="36.78909176029264926910400390625" lon="-118.563817776739597320556640625">
        <ele>1564.199951171875</ele>
        <time>2021-06-24T16:50:37.000Z</time>
        <extensions>
          <ns3:TrackPointExtension>
            <ns3:atemp>34.0</ns3:atemp>
            <ns3:hr>91</ns3:hr>
          </ns3:TrackPointExtension>
        </extensions>
      </trkpt>
      <trkpt lat="36.78908455185592174530029296875" lon="-118.56380210258066654205322265625">
        <ele>1564.199951171875</ele>
        <time>2021-06-24T16:50:38.000Z</time>
        <extensions>
          <ns3:TrackPointExtension>
            <ns3:atemp>34.0</ns3:atemp>
            <ns3:hr>91</ns3:hr>
          </ns3:TrackPointExtension>
        </extensions>
      </trkpt>
      <trkpt lat="36.7890278063714504241943359375" lon="-118.563687689602375030517578125">
        <ele>1564.199951171875</ele>
        <time>2021-06-24T16:50:47.000Z</time>
        <extensions>
          <ns3:TrackPointExtension>
            <ns3:atemp>34.0</ns3:atemp>
            <ns3:hr>90</ns3:hr>
          </ns3:TrackPointExtension>
        </extensions>
      </trkpt>
      <trkpt lat="36.7889667861163616180419921875" lon="-118.5635617934167385101318359375">
        <ele>1564.199951171875</ele>
        <time>2021-06-24T16:50:57.000Z</time>
        <extensions>
          <ns3:TrackPointExtension>
            <ns3:atemp>34.0</ns3:atemp>
            <ns3:hr>89</ns3:hr>
          </ns3:TrackPointExtension>
        </extensions>
      </trkpt>
      <trkpt lat="36.7889201827347278594970703125" lon="-118.56342114508152008056640625">
        <ele>1564.199951171875</ele>
        <time>2021-06-24T16:51:07.000Z</time>
        <extensions>
          <ns3:TrackPointExtension>
            <ns3:atemp>34.0</ns3:atemp>
            <ns3:hr>90</ns3:hr>
          </ns3:TrackPointExtension>
        </extensions>
      </trkpt>
      <trkpt lat="36.788881123065948486328125" lon="-118.563308157026767730712890625">
        <ele>1564</ele>
        <time>2021-06-24T16:51:15.000Z</time>
        <extensions>
          <ns3:TrackPointExtension>
            <ns3:atemp>34.0</ns3:atemp>
            <ns3:hr>88</ns3:hr>
          </ns3:TrackPointExtension>
        </extensions>
      </trkpt>
      <trkpt lat="36.78885522298514842987060546875" lon="-118.56319625861942768096923828125">
        <ele>1564</ele>
        <time>2021-06-24T16:51:25.000Z</time>
        <extensions>
          <ns3:TrackPointExtension>
            <ns3:atemp>34.0</ns3:atemp>
            <ns3:hr>86</ns3:hr>
          </ns3:TrackPointExtension>
        </extensions>
      </trkpt>
      <trkpt lat="36.7888517864048480987548828125" lon="-118.56318418867886066436767578125">
        <ele>1564</ele>
        <time>2021-06-24T16:51:26.000Z</time>
        <extensions>
          <ns3:TrackPointExtension>
            <ns3:atemp>34.0</ns3:atemp>
            <ns3:hr>86</ns3:hr>
          </ns3:TrackPointExtension>
        </extensions>
      </trkpt>
      <trkpt lat="36.7888457514345645904541015625" lon="-118.56313875876367092132568359375">
        <ele>1564</ele>
        <time>2021-06-24T16:51:29.000Z</time>
        <extensions>
          <ns3:TrackPointExtension>
            <ns3:atemp>34.0</ns3:atemp>
            <ns3:hr>83</ns3:hr>
          </ns3:TrackPointExtension>
        </extensions>
      </trkpt>
      <trkpt lat="36.78883074782788753509521484375" lon="-118.5630833543837070465087890625">
        <ele>1564.4000244140625</ele>
        <time>2021-06-24T16:51:33.000Z</time>
        <extensions>
          <ns3:TrackPointExtension>
            <ns3:atemp>34.0</ns3:atemp>
            <ns3:hr>81</ns3:hr>
          </ns3:TrackPointExtension>
        </extensions>
      </trkpt>
      <trkpt lat="36.788808368146419525146484375" lon="-118.5629556141793727874755859375">
        <ele>1564.4000244140625</ele>
        <time>2021-06-24T16:51:42.000Z</time>
        <extensions>
          <ns3:TrackPointExtension>
            <ns3:atemp>34.0</ns3:atemp>
            <ns3:hr>82</ns3:hr>
          </ns3:TrackPointExtension>
        </extensions>
      </trkpt>
      <trkpt lat="36.7888175882399082183837890625" lon="-118.56280423700809478759765625">
        <ele>1565</ele>
        <time>2021-06-24T16:51:52.000Z</time>
        <extensions>
          <ns3:TrackPointExtension>
            <ns3:atemp>34.0</ns3:atemp>
            <ns3:hr>84</ns3:hr>
          </ns3:TrackPointExtension>
        </extensions>
      </trkpt>
      <trkpt lat="36.78882144391536712646484375" lon="-118.5627725534141063690185546875">
        <ele>1565</ele>
        <time>2021-06-24T16:51:54.000Z</time>
        <extensions>
          <ns3:TrackPointExtension>
            <ns3:atemp>34.0</ns3:atemp>
            <ns3:hr>87</ns3:hr>
          </ns3:TrackPointExtension>
        </extensions>
      </trkpt>
      <trkpt lat="36.78882773034274578094482421875" lon="-118.56270876713097095489501953125">
        <ele>1564.800048828125</ele>
        <time>2021-06-24T16:51:59.000Z</time>
        <extensions>
          <ns3:TrackPointExtension>
            <ns3:atemp>34.0</ns3:atemp>
            <ns3:hr>88</ns3:hr>
          </ns3:TrackPointExtension>
        </extensions>
      </trkpt>
      <trkpt lat="36.78882521577179431915283203125" lon="-118.56267373077571392059326171875">
        <ele>1564.800048828125</ele>
        <time>2021-06-24T16:52:01.000Z</time>
        <extensions>
          <ns3:TrackPointExtension>
            <ns3:atemp>34.0</ns3:atemp>
            <ns3:hr>88</ns3:hr>
          </ns3:TrackPointExtension>
        </extensions>
      </trkpt>
      <trkpt lat="36.78884650580585002899169921875" lon="-118.56256283819675445556640625">
        <ele>1565</ele>
        <time>2021-06-24T16:52:11.000Z</time>
        <extensions>
          <ns3:TrackPointExtension>
            <ns3:atemp>34.0</ns3:atemp>
            <ns3:hr>87</ns3:hr>
          </ns3:TrackPointExtension>
        </extensions>
      </trkpt>
      <trkpt lat="36.7888641916215419769287109375" lon="-118.5624439828097820281982421875">
        <ele>1565.199951171875</ele>
        <time>2021-06-24T16:52:19.000Z</time>
        <extensions>
          <ns3:TrackPointExtension>
            <ns3:atemp>34.0</ns3:atemp>
            <ns3:hr>88</ns3:hr>
          </ns3:TrackPointExtension>
        </extensions>
      </trkpt>
      <trkpt lat="36.7888675443828105926513671875" lon="-118.56243073940277099609375">
        <ele>1565.199951171875</ele>
        <time>2021-06-24T16:52:20.000Z</time>
        <extensions>
          <ns3:TrackPointExtension>
            <ns3:atemp>34.0</ns3:atemp>
            <ns3:hr>88</ns3:hr>
          </ns3:TrackPointExtension>
        </extensions>
      </trkpt>
      <trkpt lat="36.788859330117702484130859375" lon="-118.56235505081713199615478515625">
        <ele>1565.199951171875</ele>
        <time>2021-06-24T16:52:26.000Z</time>
        <extensions>
          <ns3:TrackPointExtension>
            <ns3:atemp>34.0</ns3:atemp>
            <ns3:hr>88</ns3:hr>
          </ns3:TrackPointExtension>
        </extensions>
      </trkpt>
      <trkpt lat="36.78886829875409603118896484375" lon="-118.56229905970394611358642578125">
        <ele>1565.4000244140625</ele>
        <time>2021-06-24T16:52:29.000Z</time>
        <extensions>
          <ns3:TrackPointExtension>
            <ns3:atemp>34.0</ns3:atemp>
            <ns3:hr>88</ns3:hr>
          </ns3:TrackPointExtension>
        </extensions>
      </trkpt>
      <trkpt lat="36.7888672091066837310791015625" lon="-118.562227226793766021728515625">
        <ele>1565.199951171875</ele>
        <time>2021-06-24T16:52:33.000Z</time>
        <extensions>
          <ns3:TrackPointExtension>
            <ns3:atemp>34.0</ns3:atemp>
            <ns3:hr>87</ns3:hr>
          </ns3:TrackPointExtension>
        </extensions>
      </trkpt>
      <trkpt lat="36.788872741162776947021484375" lon="-118.56219269335269927978515625">
        <ele>1565.199951171875</ele>
        <time>2021-06-24T16:52:36.000Z</time>
        <extensions>
          <ns3:TrackPointExtension>
            <ns3:atemp>34.0</ns3:atemp>
            <ns3:hr>88</ns3:hr>
          </ns3:TrackPointExtension>
        </extensions>
      </trkpt>
      <trkpt lat="36.78887684829533100128173828125" lon="-118.562166206538677215576171875">
        <ele>1565.199951171875</ele>
        <time>2021-06-24T16:52:38.000Z</time>
        <extensions>
          <ns3:TrackPointExtension>
            <ns3:atemp>34.0</ns3:atemp>
            <ns3:hr>87</ns3:hr>
          </ns3:TrackPointExtension>
        </extensions>
      </trkpt>
      <trkpt lat="36.78888238035142421722412109375" lon="-118.56213846243917942047119140625">
        <ele>1565.4000244140625</ele>
        <time>2021-06-24T16:52:40.000Z</time>
        <extensions>
          <ns3:TrackPointExtension>
            <ns3:atemp>34.0</ns3:atemp>
            <ns3:hr>86</ns3:hr>
          </ns3:TrackPointExtension>
        </extensions>
      </trkpt>
      <trkpt lat="36.78889646194875240325927734375" lon="-118.5620034299790859222412109375">
        <ele>1565.199951171875</ele>
        <time>2021-06-24T16:52:49.000Z</time>
        <extensions>
          <ns3:TrackPointExtension>
            <ns3:atemp>34.0</ns3:atemp>
            <ns3:hr>84</ns3:hr>
          </ns3:TrackPointExtension>
        </extensions>
      </trkpt>
      <trkpt lat="36.78889143280684947967529296875" lon="-118.56186051853001117706298828125">
        <ele>1565</ele>
        <time>2021-06-24T16:52:58.000Z</time>
        <extensions>
          <ns3:TrackPointExtension>
            <ns3:atemp>34.0</ns3:atemp>
            <ns3:hr>82</ns3:hr>
          </ns3:TrackPointExtension>
        </extensions>
      </trkpt>
      <trkpt lat="36.78886578418314456939697265625" lon="-118.56177317909896373748779296875">
        <ele>1565</ele>
        <time>2021-06-24T16:53:05.000Z</time>
        <extensions>
          <ns3:TrackPointExtension>
            <ns3:atemp>34.0</ns3:atemp>
            <ns3:hr>83</ns3:hr>
          </ns3:TrackPointExtension>
        </extensions>
      </trkpt>
      <trkpt lat="36.7888628505170345306396484375" lon="-118.5617601871490478515625">
        <ele>1565</ele>
        <time>2021-06-24T16:53:06.000Z</time>
        <extensions>
          <ns3:TrackPointExtension>
            <ns3:atemp>34.0</ns3:atemp>
            <ns3:hr>83</ns3:hr>
          </ns3:TrackPointExtension>
        </extensions>
      </trkpt>
      <trkpt lat="36.78882546722888946533203125" lon="-118.56165784411132335662841796875">
        <ele>1565</ele>
        <time>2021-06-24T16:53:14.000Z</time>
        <extensions>
          <ns3:TrackPointExtension>
            <ns3:atemp>34.0</ns3:atemp>
            <ns3:hr>84</ns3:hr>
          </ns3:TrackPointExtension>
        </extensions>
      </trkpt>
      <trkpt lat="36.78879755549132823944091796875" lon="-118.56151065789163112640380859375">
        <ele>1564.800048828125</ele>
        <time>2021-06-24T16:53:24.000Z</time>
        <extensions>
          <ns3:TrackPointExtension>
            <ns3:atemp>34.0</ns3:atemp>
            <ns3:hr>85</ns3:hr>
          </ns3:TrackPointExtension>
        </extensions>
      </trkpt>
      <trkpt lat="36.78880761377513408660888671875" lon="-118.56147796846926212310791015625">
        <ele>1564.800048828125</ele>
        <time>2021-06-24T16:53:26.000Z</time>
        <extensions>
          <ns3:TrackPointExtension>
            <ns3:atemp>34.0</ns3:atemp>
            <ns3:hr>85</ns3:hr>
          </ns3:TrackPointExtension>
        </extensions>
      </trkpt>
      <trkpt lat="36.78879923187196254730224609375" lon="-118.56144343502819538116455078125">
        <ele>1564.800048828125</ele>
        <time>2021-06-24T16:53:29.000Z</time>
        <extensions>
          <ns3:TrackPointExtension>
            <ns3:atemp>34.0</ns3:atemp>
            <ns3:hr>82</ns3:hr>
          </ns3:TrackPointExtension>
        </extensions>
      </trkpt>
      <trkpt lat="36.78880090825259685516357421875" lon="-118.56144092045724391937255859375">
        <ele>1564.5999755859375</ele>
        <time>2021-06-24T16:53:31.000Z</time>
        <extensions>
          <ns3:TrackPointExtension>
            <ns3:atemp>34.0</ns3:atemp>
            <ns3:hr>81</ns3:hr>
          </ns3:TrackPointExtension>
        </extensions>
      </trkpt>
      <trkpt lat="36.78880593739449977874755859375" lon="-118.5614477097988128662109375">
        <ele>1564.5999755859375</ele>
        <time>2021-06-24T16:53:32.000Z</time>
        <extensions>
          <ns3:TrackPointExtension>
            <ns3:atemp>34.0</ns3:atemp>
            <ns3:hr>80</ns3:hr>
          </ns3:TrackPointExtension>
        </extensions>
      </trkpt>
      <trkpt lat="36.78880526684224605560302734375" lon="-118.56145776808261871337890625">
        <ele>1564.5999755859375</ele>
        <time>2021-06-24T16:53:33.000Z</time>
        <extensions>
          <ns3:TrackPointExtension>
            <ns3:atemp>34.0</ns3:atemp>
            <ns3:hr>80</ns3:hr>
          </ns3:TrackPointExtension>
        </extensions>
      </trkpt>
      <trkpt lat="36.78878565318882465362548828125" lon="-118.5614676587283611297607421875">
        <ele>1564.5999755859375</ele>
        <time>2021-06-24T16:53:39.000Z</time>
        <extensions>
          <ns3:TrackPointExtension>
            <ns3:atemp>34.0</ns3:atemp>
            <ns3:hr>83</ns3:hr>
          </ns3:TrackPointExtension>
        </extensions>
      </trkpt>
      <trkpt lat="36.78878749720752239227294921875" lon="-118.561440669000148773193359375">
        <ele>1564</ele>
        <time>2021-06-24T16:53:45.000Z</time>
        <extensions>
          <ns3:TrackPointExtension>
            <ns3:atemp>34.0</ns3:atemp>
            <ns3:hr>83</ns3:hr>
          </ns3:TrackPointExtension>
        </extensions>
      </trkpt>
      <trkpt lat="36.78877777419984340667724609375" lon="-118.5613664053380489349365234375">
        <ele>1564</ele>
        <time>2021-06-24T16:53:50.000Z</time>
        <extensions>
          <ns3:TrackPointExtension>
            <ns3:atemp>34.0</ns3:atemp>
            <ns3:hr>83</ns3:hr>
          </ns3:TrackPointExtension>
        </extensions>
      </trkpt>
      <trkpt lat="36.788741983473300933837890625" lon="-118.5612614639103412628173828125">
        <ele>1564</ele>
        <time>2021-06-24T16:53:57.000Z</time>
        <extensions>
          <ns3:TrackPointExtension>
            <ns3:atemp>34.0</ns3:atemp>
            <ns3:hr>82</ns3:hr>
          </ns3:TrackPointExtension>
        </extensions>
      </trkpt>
      <trkpt lat="36.78876352496445178985595703125" lon="-118.56117521412670612335205078125">
        <ele>1564</ele>
        <time>2021-06-24T16:54:03.000Z</time>
        <extensions>
          <ns3:TrackPointExtension>
            <ns3:atemp>34.0</ns3:atemp>
            <ns3:hr>84</ns3:hr>
          </ns3:TrackPointExtension>
        </extensions>
      </trkpt>
      <trkpt lat="36.7887646146118640899658203125" lon="-118.5611595399677753448486328125">
        <ele>1563.800048828125</ele>
        <time>2021-06-24T16:54:05.000Z</time>
        <extensions>
          <ns3:TrackPointExtension>
            <ns3:atemp>34.0</ns3:atemp>
            <ns3:hr>86</ns3:hr>
          </ns3:TrackPointExtension>
        </extensions>
      </trkpt>
      <trkpt lat="36.7887629382312297821044921875" lon="-118.5611447878181934356689453125">
        <ele>1563.800048828125</ele>
        <time>2021-06-24T16:54:07.000Z</time>
        <extensions>
          <ns3:TrackPointExtension>
            <ns3:atemp>34.0</ns3:atemp>
            <ns3:hr>86</ns3:hr>
          </ns3:TrackPointExtension>
        </extensions>
      </trkpt>
      <trkpt lat="36.788763105869293212890625" lon="-118.56110950000584125518798828125">
        <ele>1563.800048828125</ele>
        <time>2021-06-24T16:54:09.000Z</time>
        <extensions>
          <ns3:TrackPointExtension>
            <ns3:atemp>34.0</ns3:atemp>
            <ns3:hr>86</ns3:hr>
          </ns3:TrackPointExtension>
        </extensions>
      </trkpt>
      <trkpt lat="36.7887703143060207366943359375" lon="-118.56100640259683132171630859375">
        <ele>1564.4000244140625</ele>
        <time>2021-06-24T16:54:15.000Z</time>
        <extensions>
          <ns3:TrackPointExtension>
            <ns3:atemp>34.0</ns3:atemp>
            <ns3:hr>85</ns3:hr>
          </ns3:TrackPointExtension>
        </extensions>
      </trkpt>
      <trkpt lat="36.7887696437537670135498046875" lon="-118.56100036762654781341552734375">
        <ele>1564.4000244140625</ele>
        <time>2021-06-24T16:54:16.000Z</time>
        <extensions>
          <ns3:TrackPointExtension>
            <ns3:atemp>34.0</ns3:atemp>
            <ns3:hr>85</ns3:hr>
          </ns3:TrackPointExtension>
        </extensions>
      </trkpt>
      <trkpt lat="36.78880912251770496368408203125" lon="-118.5609292052686214447021484375">
        <ele>1565</ele>
        <time>2021-06-24T16:54:22.000Z</time>
        <extensions>
          <ns3:TrackPointExtension>
            <ns3:atemp>34.0</ns3:atemp>
            <ns3:hr>86</ns3:hr>
          </ns3:TrackPointExtension>
        </extensions>
      </trkpt>
      <trkpt lat="36.78882136009633541107177734375" lon="-118.5608815960586071014404296875">
        <ele>1564.800048828125</ele>
        <time>2021-06-24T16:54:25.000Z</time>
        <extensions>
          <ns3:TrackPointExtension>
            <ns3:atemp>34.0</ns3:atemp>
            <ns3:hr>88</ns3:hr>
          </ns3:TrackPointExtension>
        </extensions>
      </trkpt>
      <trkpt lat="36.78882504813373088836669921875" lon="-118.5608383454382419586181640625">
        <ele>1564.800048828125</ele>
        <time>2021-06-24T16:54:28.000Z</time>
        <extensions>
          <ns3:TrackPointExtension>
            <ns3:atemp>34.0</ns3:atemp>
            <ns3:hr>89</ns3:hr>
          </ns3:TrackPointExtension>
        </extensions>
      </trkpt>
      <trkpt lat="36.7888370342552661895751953125" lon="-118.56076776981353759765625">
        <ele>1565.199951171875</ele>
        <time>2021-06-24T16:54:32.000Z</time>
        <extensions>
          <ns3:TrackPointExtension>
            <ns3:atemp>34.0</ns3:atemp>
            <ns3:hr>90</ns3:hr>
          </ns3:TrackPointExtension>
        </extensions>
      </trkpt>
      <trkpt lat="36.78887735120952129364013671875" lon="-118.560733236372470855712890625">
        <ele>1565.199951171875</ele>
        <time>2021-06-24T16:54:34.000Z</time>
        <extensions>
          <ns3:TrackPointExtension>
            <ns3:atemp>34.0</ns3:atemp>
            <ns3:hr>91</ns3:hr>
          </ns3:TrackPointExtension>
        </extensions>
      </trkpt>
      <trkpt lat="36.78888036869466304779052734375" lon="-118.56064648367464542388916015625">
        <ele>1565.199951171875</ele>
        <time>2021-06-24T16:54:38.000Z</time>
        <extensions>
          <ns3:TrackPointExtension>
            <ns3:atemp>34.0</ns3:atemp>
            <ns3:hr>94</ns3:hr>
          </ns3:TrackPointExtension>
        </extensions>
      </trkpt>
      <trkpt lat="36.78889025934040546417236328125" lon="-118.56059753336012363433837890625">
        <ele>1565.199951171875</ele>
        <time>2021-06-24T16:54:41.000Z</time>
        <extensions>
          <ns3:TrackPointExtension>
            <ns3:atemp>34.0</ns3:atemp>
            <ns3:hr>93</ns3:hr>
          </ns3:TrackPointExtension>
        </extensions>
      </trkpt>
      <trkpt lat="36.788897551596164703369140625" lon="-118.5605865530669689178466796875">
        <ele>1565.199951171875</ele>
        <time>2021-06-24T16:54:42.000Z</time>
        <extensions>
          <ns3:TrackPointExtension>
            <ns3:atemp>34.0</ns3:atemp>
            <ns3:hr>92</ns3:hr>
          </ns3:TrackPointExtension>
        </extensions>
      </trkpt>
      <trkpt lat="36.78889998234808444976806640625" lon="-118.560522012412548065185546875">
        <ele>1565.4000244140625</ele>
        <time>2021-06-24T16:54:46.000Z</time>
        <extensions>
          <ns3:TrackPointExtension>
            <ns3:atemp>34.0</ns3:atemp>
            <ns3:hr>94</ns3:hr>
          </ns3:TrackPointExtension>
        </extensions>
      </trkpt>
      <trkpt lat="36.78889713250100612640380859375" lon="-118.5604504309594631195068359375">
        <ele>1565.4000244140625</ele>
        <time>2021-06-24T16:54:51.000Z</time>
        <extensions>
          <ns3:TrackPointExtension>
            <ns3:atemp>34.0</ns3:atemp>
            <ns3:hr>98</ns3:hr>
          </ns3:TrackPointExtension>
        </extensions>
      </trkpt>
      <trkpt lat="36.7888906784355640411376953125" lon="-118.560401983559131622314453125">
        <ele>1565.800048828125</ele>
        <time>2021-06-24T16:54:55.000Z</time>
        <extensions>
          <ns3:TrackPointExtension>
            <ns3:atemp>34.0</ns3:atemp>
            <ns3:hr>99</ns3:hr>
          </ns3:TrackPointExtension>
        </extensions>
      </trkpt>
      <trkpt lat="36.78889243863523006439208984375" lon="-118.560356386005878448486328125">
        <ele>1566</ele>
        <time>2021-06-24T16:54:59.000Z</time>
        <extensions>
          <ns3:TrackPointExtension>
            <ns3:atemp>34.0</ns3:atemp>
            <ns3:hr>98</ns3:hr>
          </ns3:TrackPointExtension>
        </extensions>
      </trkpt>
      <trkpt lat="36.78891892544925212860107421875" lon="-118.56026493944227695465087890625">
        <ele>1566</ele>
        <time>2021-06-24T16:55:06.000Z</time>
        <extensions>
          <ns3:TrackPointExtension>
            <ns3:atemp>34.0</ns3:atemp>
            <ns3:hr>100</ns3:hr>
          </ns3:TrackPointExtension>
        </extensions>
      </trkpt>
      <trkpt lat="36.78897164762020111083984375" lon="-118.56014507822692394256591796875">
        <ele>1566.199951171875</ele>
        <time>2021-06-24T16:55:16.000Z</time>
        <extensions>
          <ns3:TrackPointExtension>
            <ns3:atemp>34.0</ns3:atemp>
            <ns3:hr>103</ns3:hr>
          </ns3:TrackPointExtension>
        </extensions>
      </trkpt>
      <trkpt lat="36.78897374309599399566650390625" lon="-118.5601020790636539459228515625">
        <ele>1566.5999755859375</ele>
        <time>2021-06-24T16:55:19.000Z</time>
        <extensions>
          <ns3:TrackPointExtension>
            <ns3:atemp>34.0</ns3:atemp>
            <ns3:hr>102</ns3:hr>
          </ns3:TrackPointExtension>
        </extensions>
      </trkpt>
      <trkpt lat="36.788984052836894989013671875" lon="-118.56004558503627777099609375">
        <ele>1566.5999755859375</ele>
        <time>2021-06-24T16:55:22.000Z</time>
        <extensions>
          <ns3:TrackPointExtension>
            <ns3:atemp>34.0</ns3:atemp>
            <ns3:hr>100</ns3:hr>
          </ns3:TrackPointExtension>
        </extensions>
      </trkpt>
      <trkpt lat="36.78898564539849758148193359375" lon="-118.5600276477634906768798828125">
        <ele>1566.5999755859375</ele>
        <time>2021-06-24T16:55:23.000Z</time>
        <extensions>
          <ns3:TrackPointExtension>
            <ns3:atemp>34.0</ns3:atemp>
            <ns3:hr>99</ns3:hr>
          </ns3:TrackPointExtension>
        </extensions>
      </trkpt>
      <trkpt lat="36.7889790236949920654296875" lon="-118.56000535190105438232421875">
        <ele>1566.5999755859375</ele>
        <time>2021-06-24T16:55:25.000Z</time>
        <extensions>
          <ns3:TrackPointExtension>
            <ns3:atemp>34.0</ns3:atemp>
            <ns3:hr>99</ns3:hr>
          </ns3:TrackPointExtension>
        </extensions>
      </trkpt>
      <trkpt lat="36.78898849524557590484619140625" lon="-118.559991605579853057861328125">
        <ele>1566.5999755859375</ele>
        <time>2021-06-24T16:55:26.000Z</time>
        <extensions>
          <ns3:TrackPointExtension>
            <ns3:atemp>34.0</ns3:atemp>
            <ns3:hr>102</ns3:hr>
          </ns3:TrackPointExtension>
        </extensions>
      </trkpt>
      <trkpt lat="36.789015233516693115234375" lon="-118.5599347762763500213623046875">
        <ele>1566.800048828125</ele>
        <time>2021-06-24T16:55:30.000Z</time>
        <extensions>
          <ns3:TrackPointExtension>
            <ns3:atemp>34.0</ns3:atemp>
            <ns3:hr>100</ns3:hr>
          </ns3:TrackPointExtension>
        </extensions>
      </trkpt>
      <trkpt lat="36.78902956657111644744873046875" lon="-118.55990342795848846435546875">
        <ele>1567</ele>
        <time>2021-06-24T16:55:32.000Z</time>
        <extensions>
          <ns3:TrackPointExtension>
            <ns3:atemp>34.0</ns3:atemp>
            <ns3:hr>100</ns3:hr>
          </ns3:TrackPointExtension>
        </extensions>
      </trkpt>
      <trkpt lat="36.78905756212770938873291015625" lon="-118.559831343591213226318359375">
        <ele>1567</ele>
        <time>2021-06-24T16:55:37.000Z</time>
        <extensions>
          <ns3:TrackPointExtension>
            <ns3:atemp>34.0</ns3:atemp>
            <ns3:hr>103</ns3:hr>
          </ns3:TrackPointExtension>
        </extensions>
      </trkpt>
      <trkpt lat="36.7890626750886440277099609375" lon="-118.559819273650646209716796875">
        <ele>1567</ele>
        <time>2021-06-24T16:55:38.000Z</time>
        <extensions>
          <ns3:TrackPointExtension>
            <ns3:atemp>34.0</ns3:atemp>
            <ns3:hr>104</ns3:hr>
          </ns3:TrackPointExtension>
        </extensions>
      </trkpt>
      <trkpt lat="36.7890868149697780609130859375" lon="-118.55968139134347438812255859375">
        <ele>1567.4000244140625</ele>
        <time>2021-06-24T16:55:46.000Z</time>
        <extensions>
          <ns3:TrackPointExtension>
            <ns3:atemp>34.0</ns3:atemp>
            <ns3:hr>105</ns3:hr>
          </ns3:TrackPointExtension>
        </extensions>
      </trkpt>
      <trkpt lat="36.7890863120555877685546875" lon="-118.55966077186167240142822265625">
        <ele>1567.199951171875</ele>
        <time>2021-06-24T16:55:48.000Z</time>
        <extensions>
          <ns3:TrackPointExtension>
            <ns3:atemp>34.0</ns3:atemp>
            <ns3:hr>106</ns3:hr>
          </ns3:TrackPointExtension>
        </extensions>
      </trkpt>
      <trkpt lat="36.78907549940049648284912109375" lon="-118.559643588960170745849609375">
        <ele>1566.800048828125</ele>
        <time>2021-06-24T16:55:50.000Z</time>
        <extensions>
          <ns3:TrackPointExtension>
            <ns3:atemp>34.0</ns3:atemp>
            <ns3:hr>103</ns3:hr>
          </ns3:TrackPointExtension>
        </extensions>
      </trkpt>
      <trkpt lat="36.7890630103647708892822265625" lon="-118.5596256516873836517333984375">
        <ele>1566.5999755859375</ele>
        <time>2021-06-24T16:55:52.000Z</time>
        <extensions>
          <ns3:TrackPointExtension>
            <ns3:atemp>34.0</ns3:atemp>
            <ns3:hr>103</ns3:hr>
          </ns3:TrackPointExtension>
        </extensions>
      </trkpt>
      <trkpt lat="36.78902504034340381622314453125" lon="-118.559604026377201080322265625">
        <ele>1565.800048828125</ele>
        <time>2021-06-24T16:55:57.000Z</time>
        <extensions>
          <ns3:TrackPointExtension>
            <ns3:atemp>34.0</ns3:atemp>
            <ns3:hr>100</ns3:hr>
          </ns3:TrackPointExtension>
        </extensions>
      </trkpt>
      <trkpt lat="36.78901330567896366119384765625" lon="-118.55960645712912082672119140625">
        <ele>1565.4000244140625</ele>
        <time>2021-06-24T16:55:58.000Z</time>
        <extensions>
          <ns3:TrackPointExtension>
            <ns3:atemp>34.0</ns3:atemp>
            <ns3:hr>99</ns3:hr>
          </ns3:TrackPointExtension>
        </extensions>
      </trkpt>
      <trkpt lat="36.78899302147328853607177734375" lon="-118.5596055351197719573974609375">
        <ele>1565.199951171875</ele>
        <time>2021-06-24T16:56:00.000Z</time>
        <extensions>
          <ns3:TrackPointExtension>
            <ns3:atemp>34.0</ns3:atemp>
            <ns3:hr>97</ns3:hr>
          </ns3:TrackPointExtension>
        </extensions>
      </trkpt>
      <trkpt lat="36.78896921686828136444091796875" lon="-118.55957041494548320770263671875">
        <ele>1564.5999755859375</ele>
        <time>2021-06-24T16:56:03.000Z</time>
        <extensions>
          <ns3:TrackPointExtension>
            <ns3:atemp>34.0</ns3:atemp>
            <ns3:hr>94</ns3:hr>
          </ns3:TrackPointExtension>
        </extensions>
      </trkpt>
      <trkpt lat="36.7889674566686153411865234375" lon="-118.5595505498349666595458984375">
        <ele>1564.199951171875</ele>
        <time>2021-06-24T16:56:04.000Z</time>
        <extensions>
          <ns3:TrackPointExtension>
            <ns3:atemp>34.0</ns3:atemp>
            <ns3:hr>95</ns3:hr>
          </ns3:TrackPointExtension>
        </extensions>
      </trkpt>
      <trkpt lat="36.7889677919447422027587890625" lon="-118.55951358564198017120361328125">
        <ele>1564</ele>
        <time>2021-06-24T16:56:07.000Z</time>
        <extensions>
          <ns3:TrackPointExtension>
            <ns3:atemp>34.0</ns3:atemp>
            <ns3:hr>94</ns3:hr>
          </ns3:TrackPointExtension>
        </extensions>
      </trkpt>
      <trkpt lat="36.78897508420050144195556640625" lon="-118.5595049522817134857177734375">
        <ele>1564</ele>
        <time>2021-06-24T16:56:08.000Z</time>
        <extensions>
          <ns3:TrackPointExtension>
            <ns3:atemp>34.0</ns3:atemp>
            <ns3:hr>94</ns3:hr>
          </ns3:TrackPointExtension>
        </extensions>
      </trkpt>
      <trkpt lat="36.78898246027529239654541015625" lon="-118.55949707329273223876953125">
        <ele>1564</ele>
        <time>2021-06-24T16:56:09.000Z</time>
        <extensions>
          <ns3:TrackPointExtension>
            <ns3:atemp>34.0</ns3:atemp>
            <ns3:hr>93</ns3:hr>
          </ns3:TrackPointExtension>
        </extensions>
      </trkpt>
      <trkpt lat="36.7890058457851409912109375" lon="-118.55945558287203311920166015625">
        <ele>1564</ele>
        <time>2021-06-24T16:56:14.000Z</time>
        <extensions>
          <ns3:TrackPointExtension>
            <ns3:atemp>34.0</ns3:atemp>
            <ns3:hr>92</ns3:hr>
          </ns3:TrackPointExtension>
        </extensions>
      </trkpt>
      <trkpt lat="36.78901062346994876861572265625" lon="-118.5594311915338039398193359375">
        <ele>1564</ele>
        <time>2021-06-24T16:56:16.000Z</time>
        <extensions>
          <ns3:TrackPointExtension>
            <ns3:atemp>34.0</ns3:atemp>
            <ns3:hr>87</ns3:hr>
          </ns3:TrackPointExtension>
        </extensions>
      </trkpt>
      <trkpt lat="36.78900249302387237548828125" lon="-118.55940411798655986785888671875">
        <ele>1564</ele>
        <time>2021-06-24T16:56:18.000Z</time>
        <extensions>
          <ns3:TrackPointExtension>
            <ns3:atemp>34.0</ns3:atemp>
            <ns3:hr>84</ns3:hr>
          </ns3:TrackPointExtension>
        </extensions>
      </trkpt>
      <trkpt lat="36.78899654187262058258056640625" lon="-118.55939271859824657440185546875">
        <ele>1564</ele>
        <time>2021-06-24T16:56:19.000Z</time>
        <extensions>
          <ns3:TrackPointExtension>
            <ns3:atemp>34.0</ns3:atemp>
            <ns3:hr>91</ns3:hr>
          </ns3:TrackPointExtension>
        </extensions>
      </trkpt>
      <trkpt lat="36.788993440568447113037109375" lon="-118.55938819237053394317626953125">
        <ele>1564</ele>
        <time>2021-06-24T16:56:20.000Z</time>
        <extensions>
          <ns3:TrackPointExtension>
            <ns3:atemp>34.0</ns3:atemp>
            <ns3:hr>92</ns3:hr>
          </ns3:TrackPointExtension>
        </extensions>
      </trkpt>
      <trkpt lat="36.78898547776043415069580078125" lon="-118.55938433669507503509521484375">
        <ele>1563.800048828125</ele>
        <time>2021-06-24T16:56:22.000Z</time>
        <extensions>
          <ns3:TrackPointExtension>
            <ns3:atemp>34.0</ns3:atemp>
            <ns3:hr>94</ns3:hr>
          </ns3:TrackPointExtension>
        </extensions>
      </trkpt>
      <trkpt lat="36.78897273726761341094970703125" lon="-118.55936162173748016357421875">
        <ele>1563.4000244140625</ele>
        <time>2021-06-24T16:56:24.000Z</time>
        <extensions>
          <ns3:TrackPointExtension>
            <ns3:atemp>34.0</ns3:atemp>
            <ns3:hr>96</ns3:hr>
          </ns3:TrackPointExtension>
        </extensions>
      </trkpt>
      <trkpt lat="36.788961589336395263671875" lon="-118.559347204864025115966796875">
        <ele>1563.199951171875</ele>
        <time>2021-06-24T16:56:26.000Z</time>
        <extensions>
          <ns3:TrackPointExtension>
            <ns3:atemp>34.0</ns3:atemp>
            <ns3:hr>97</ns3:hr>
          </ns3:TrackPointExtension>
        </extensions>
      </trkpt>
      <trkpt lat="36.78896049968898296356201171875" lon="-118.55931359343230724334716796875">
        <ele>1563</ele>
        <time>2021-06-24T16:56:30.000Z</time>
        <extensions>
          <ns3:TrackPointExtension>
            <ns3:atemp>33.0</ns3:atemp>
            <ns3:hr>94</ns3:hr>
          </ns3:TrackPointExtension>
        </extensions>
      </trkpt>
      <trkpt lat="36.78897432982921600341796875" lon="-118.5593078099191188812255859375">
        <ele>1562.800048828125</ele>
        <time>2021-06-24T16:56:31.000Z</time>
        <extensions>
          <ns3:TrackPointExtension>
            <ns3:atemp>33.0</ns3:atemp>
            <ns3:hr>93</ns3:hr>
          </ns3:TrackPointExtension>
        </extensions>
      </trkpt>
      <trkpt lat="36.78897458128631114959716796875" lon="-118.5592813231050968170166015625">
        <ele>1562.800048828125</ele>
        <time>2021-06-24T16:56:33.000Z</time>
        <extensions>
          <ns3:TrackPointExtension>
            <ns3:atemp>33.0</ns3:atemp>
            <ns3:hr>97</ns3:hr>
          </ns3:TrackPointExtension>
        </extensions>
      </trkpt>
      <trkpt lat="36.7889466695487499237060546875" lon="-118.55928291566669940948486328125">
        <ele>1563</ele>
        <time>2021-06-24T16:56:37.000Z</time>
        <extensions>
          <ns3:TrackPointExtension>
            <ns3:atemp>33.0</ns3:atemp>
            <ns3:hr>98</ns3:hr>
          </ns3:TrackPointExtension>
        </extensions>
      </trkpt>
      <trkpt lat="36.788943149149417877197265625" lon="-118.55927771888673305511474609375">
        <ele>1562.800048828125</ele>
        <time>2021-06-24T16:56:41.000Z</time>
        <extensions>
          <ns3:TrackPointExtension>
            <ns3:atemp>33.0</ns3:atemp>
            <ns3:hr>95</ns3:hr>
          </ns3:TrackPointExtension>
        </extensions>
      </trkpt>
      <trkpt lat="36.7889335937798023223876953125" lon="-118.55926179327070713043212890625">
        <ele>1562.800048828125</ele>
        <time>2021-06-24T16:56:43.000Z</time>
        <extensions>
          <ns3:TrackPointExtension>
            <ns3:atemp>33.0</ns3:atemp>
            <ns3:hr>95</ns3:hr>
          </ns3:TrackPointExtension>
        </extensions>
      </trkpt>
      <trkpt lat="36.78892898373305797576904296875" lon="-118.55924226343631744384765625">
        <ele>1562.199951171875</ele>
        <time>2021-06-24T16:56:45.000Z</time>
        <extensions>
          <ns3:TrackPointExtension>
            <ns3:atemp>33.0</ns3:atemp>
            <ns3:hr>94</ns3:hr>
          </ns3:TrackPointExtension>
        </extensions>
      </trkpt>
      <trkpt lat="36.78892496041953563690185546875" lon="-118.55922357179224491119384765625">
        <ele>1561.4000244140625</ele>
        <time>2021-06-24T16:56:47.000Z</time>
        <extensions>
          <ns3:TrackPointExtension>
            <ns3:atemp>33.0</ns3:atemp>
            <ns3:hr>93</ns3:hr>
          </ns3:TrackPointExtension>
        </extensions>
      </trkpt>
      <trkpt lat="36.788915656507015228271484375" lon="-118.55920831672847270965576171875">
        <ele>1561.4000244140625</ele>
        <time>2021-06-24T16:56:49.000Z</time>
        <extensions>
          <ns3:TrackPointExtension>
            <ns3:atemp>33.0</ns3:atemp>
            <ns3:hr>93</ns3:hr>
          </ns3:TrackPointExtension>
        </extensions>
      </trkpt>
      <trkpt lat="36.78890735842287540435791015625" lon="-118.55919624678790569305419921875">
        <ele>1561</ele>
        <time>2021-06-24T16:56:50.000Z</time>
        <extensions>
          <ns3:TrackPointExtension>
            <ns3:atemp>33.0</ns3:atemp>
            <ns3:hr>95</ns3:hr>
          </ns3:TrackPointExtension>
        </extensions>
      </trkpt>
      <trkpt lat="36.7889017425477504730224609375" lon="-118.55915131978690624237060546875">
        <ele>1560.5999755859375</ele>
        <time>2021-06-24T16:56:53.000Z</time>
        <extensions>
          <ns3:TrackPointExtension>
            <ns3:atemp>33.0</ns3:atemp>
            <ns3:hr>92</ns3:hr>
          </ns3:TrackPointExtension>
        </extensions>
      </trkpt>
      <trkpt lat="36.7888950370252132415771484375" lon="-118.5591244138777256011962890625">
        <ele>1560.4000244140625</ele>
        <time>2021-06-24T16:56:55.000Z</time>
        <extensions>
          <ns3:TrackPointExtension>
            <ns3:atemp>33.0</ns3:atemp>
            <ns3:hr>91</ns3:hr>
          </ns3:TrackPointExtension>
        </extensions>
      </trkpt>
      <trkpt lat="36.78887751884758472442626953125" lon="-118.55908677913248538970947265625">
        <ele>1560.199951171875</ele>
        <time>2021-06-24T16:56:57.000Z</time>
        <extensions>
          <ns3:TrackPointExtension>
            <ns3:atemp>33.0</ns3:atemp>
            <ns3:hr>90</ns3:hr>
          </ns3:TrackPointExtension>
        </extensions>
      </trkpt>
      <trkpt lat="36.78887081332504749298095703125" lon="-118.55907806195318698883056640625">
        <ele>1560</ele>
        <time>2021-06-24T16:57:00.000Z</time>
        <extensions>
          <ns3:TrackPointExtension>
            <ns3:atemp>33.0</ns3:atemp>
            <ns3:hr>90</ns3:hr>
          </ns3:TrackPointExtension>
        </extensions>
      </trkpt>
      <trkpt lat="36.7888574860990047454833984375" lon="-118.55907236225903034210205078125">
        <ele>1560</ele>
        <time>2021-06-24T16:57:01.000Z</time>
        <extensions>
          <ns3:TrackPointExtension>
            <ns3:atemp>33.0</ns3:atemp>
            <ns3:hr>90</ns3:hr>
          </ns3:TrackPointExtension>
        </extensions>
      </trkpt>
      <trkpt lat="36.788847260177135467529296875" lon="-118.55906029231846332550048828125">
        <ele>1560</ele>
        <time>2021-06-24T16:57:02.000Z</time>
        <extensions>
          <ns3:TrackPointExtension>
            <ns3:atemp>33.0</ns3:atemp>
            <ns3:hr>90</ns3:hr>
          </ns3:TrackPointExtension>
        </extensions>
      </trkpt>
      <trkpt lat="36.788833849132061004638671875" lon="-118.55900354683399200439453125">
        <ele>1560</ele>
        <time>2021-06-24T16:57:06.000Z</time>
        <extensions>
          <ns3:TrackPointExtension>
            <ns3:atemp>33.0</ns3:atemp>
            <ns3:hr>90</ns3:hr>
          </ns3:TrackPointExtension>
        </extensions>
      </trkpt>
      <trkpt lat="36.788823120296001434326171875" lon="-118.55889466591179370880126953125">
        <ele>1560</ele>
        <time>2021-06-24T16:57:14.000Z</time>
        <extensions>
          <ns3:TrackPointExtension>
            <ns3:atemp>33.0</ns3:atemp>
            <ns3:hr>92</ns3:hr>
          </ns3:TrackPointExtension>
        </extensions>
      </trkpt>
      <trkpt lat="36.788818426430225372314453125" lon="-118.55887605808675289154052734375">
        <ele>1560.199951171875</ele>
        <time>2021-06-24T16:57:16.000Z</time>
        <extensions>
          <ns3:TrackPointExtension>
            <ns3:atemp>33.0</ns3:atemp>
            <ns3:hr>92</ns3:hr>
          </ns3:TrackPointExtension>
        </extensions>
      </trkpt>
      <trkpt lat="36.78882152773439884185791015625" lon="-118.5588164627552032470703125">
        <ele>1560.4000244140625</ele>
        <time>2021-06-24T16:57:20.000Z</time>
        <extensions>
          <ns3:TrackPointExtension>
            <ns3:atemp>33.0</ns3:atemp>
            <ns3:hr>90</ns3:hr>
          </ns3:TrackPointExtension>
        </extensions>
      </trkpt>
      <trkpt lat="36.78882404230535030364990234375" lon="-118.55878360569477081298828125">
        <ele>1560.199951171875</ele>
        <time>2021-06-24T16:57:23.000Z</time>
        <extensions>
          <ns3:TrackPointExtension>
            <ns3:atemp>33.0</ns3:atemp>
            <ns3:hr>90</ns3:hr>
          </ns3:TrackPointExtension>
        </extensions>
      </trkpt>
      <trkpt lat="36.7888261377811431884765625" lon="-118.55875016190111637115478515625">
        <ele>1560.199951171875</ele>
        <time>2021-06-24T16:57:25.000Z</time>
        <extensions>
          <ns3:TrackPointExtension>
            <ns3:atemp>33.0</ns3:atemp>
            <ns3:hr>89</ns3:hr>
          </ns3:TrackPointExtension>
        </extensions>
      </trkpt>
      <trkpt lat="36.7888276465237140655517578125" lon="-118.55873004533350467681884765625">
        <ele>1560.4000244140625</ele>
        <time>2021-06-24T16:57:26.000Z</time>
        <extensions>
          <ns3:TrackPointExtension>
            <ns3:atemp>33.0</ns3:atemp>
            <ns3:hr>89</ns3:hr>
          </ns3:TrackPointExtension>
        </extensions>
      </trkpt>
      <trkpt lat="36.78883208893239498138427734375" lon="-118.55871009640395641326904296875">
        <ele>1560.199951171875</ele>
        <time>2021-06-24T16:57:27.000Z</time>
        <extensions>
          <ns3:TrackPointExtension>
            <ns3:atemp>33.0</ns3:atemp>
            <ns3:hr>88</ns3:hr>
          </ns3:TrackPointExtension>
        </extensions>
      </trkpt>
      <trkpt lat="36.7888420633971691131591796875" lon="-118.5586448013782501220703125">
        <ele>1560.4000244140625</ele>
        <time>2021-06-24T16:57:31.000Z</time>
        <extensions>
          <ns3:TrackPointExtension>
            <ns3:atemp>33.0</ns3:atemp>
            <ns3:hr>88</ns3:hr>
          </ns3:TrackPointExtension>
        </extensions>
      </trkpt>
      <trkpt lat="36.78883644752204418182373046875" lon="-118.55861663818359375">
        <ele>1560.4000244140625</ele>
        <time>2021-06-24T16:57:33.000Z</time>
        <extensions>
          <ns3:TrackPointExtension>
            <ns3:atemp>33.0</ns3:atemp>
            <ns3:hr>88</ns3:hr>
          </ns3:TrackPointExtension>
        </extensions>
      </trkpt>
      <trkpt lat="36.7888474278151988983154296875" lon="-118.55853625573217868804931640625">
        <ele>1560.5999755859375</ele>
        <time>2021-06-24T16:57:38.000Z</time>
        <extensions>
          <ns3:TrackPointExtension>
            <ns3:atemp>33.0</ns3:atemp>
            <ns3:hr>86</ns3:hr>
          </ns3:TrackPointExtension>
        </extensions>
      </trkpt>
      <trkpt lat="36.788855977356433868408203125" lon="-118.558506667613983154296875">
        <ele>1560.800048828125</ele>
        <time>2021-06-24T16:57:41.000Z</time>
        <extensions>
          <ns3:TrackPointExtension>
            <ns3:atemp>33.0</ns3:atemp>
            <ns3:hr>86</ns3:hr>
          </ns3:TrackPointExtension>
        </extensions>
      </trkpt>
      <trkpt lat="36.788856647908687591552734375" lon="-118.55848613195121288299560546875">
        <ele>1560.800048828125</ele>
        <time>2021-06-24T16:57:43.000Z</time>
        <extensions>
          <ns3:TrackPointExtension>
            <ns3:atemp>33.0</ns3:atemp>
            <ns3:hr>86</ns3:hr>
          </ns3:TrackPointExtension>
        </extensions>
      </trkpt>
      <trkpt lat="36.7888578213751316070556640625" lon="-118.558474481105804443359375">
        <ele>1560.800048828125</ele>
        <time>2021-06-24T16:57:44.000Z</time>
        <extensions>
          <ns3:TrackPointExtension>
            <ns3:atemp>33.0</ns3:atemp>
            <ns3:hr>86</ns3:hr>
          </ns3:TrackPointExtension>
        </extensions>
      </trkpt>
      <trkpt lat="36.788855306804180145263671875" lon="-118.55845310725271701812744140625">
        <ele>1560.800048828125</ele>
        <time>2021-06-24T16:57:46.000Z</time>
        <extensions>
          <ns3:TrackPointExtension>
            <ns3:atemp>33.0</ns3:atemp>
            <ns3:hr>85</ns3:hr>
          </ns3:TrackPointExtension>
        </extensions>
      </trkpt>
      <trkpt lat="36.78884499706327915191650390625" lon="-118.55840717442333698272705078125">
        <ele>1560.800048828125</ele>
        <time>2021-06-24T16:57:50.000Z</time>
        <extensions>
          <ns3:TrackPointExtension>
            <ns3:atemp>33.0</ns3:atemp>
            <ns3:hr>86</ns3:hr>
          </ns3:TrackPointExtension>
        </extensions>
      </trkpt>
      <trkpt lat="36.7888467572629451751708984375" lon="-118.55839141644537448883056640625">
        <ele>1561.199951171875</ele>
        <time>2021-06-24T16:57:51.000Z</time>
        <extensions>
          <ns3:TrackPointExtension>
            <ns3:atemp>33.0</ns3:atemp>
            <ns3:hr>87</ns3:hr>
          </ns3:TrackPointExtension>
        </extensions>
      </trkpt>
      <trkpt lat="36.78885304369032382965087890625" lon="-118.55837590992450714111328125">
        <ele>1561.199951171875</ele>
        <time>2021-06-24T16:57:52.000Z</time>
        <extensions>
          <ns3:TrackPointExtension>
            <ns3:atemp>33.0</ns3:atemp>
            <ns3:hr>89</ns3:hr>
          </ns3:TrackPointExtension>
        </extensions>
      </trkpt>
      <trkpt lat="36.7888529598712921142578125" lon="-118.558331318199634552001953125">
        <ele>1561.4000244140625</ele>
        <time>2021-06-24T16:57:55.000Z</time>
        <extensions>
          <ns3:TrackPointExtension>
            <ns3:atemp>33.0</ns3:atemp>
            <ns3:hr>91</ns3:hr>
          </ns3:TrackPointExtension>
        </extensions>
      </trkpt>
      <trkpt lat="36.78882404230535030364990234375" lon="-118.55828605592250823974609375">
        <ele>1561.4000244140625</ele>
        <time>2021-06-24T16:57:59.000Z</time>
        <extensions>
          <ns3:TrackPointExtension>
            <ns3:atemp>33.0</ns3:atemp>
            <ns3:hr>89</ns3:hr>
          </ns3:TrackPointExtension>
        </extensions>
      </trkpt>
      <trkpt lat="36.788818426430225372314453125" lon="-118.55826250277459621429443359375">
        <ele>1561.4000244140625</ele>
        <time>2021-06-24T16:58:00.000Z</time>
        <extensions>
          <ns3:TrackPointExtension>
            <ns3:atemp>32.0</ns3:atemp>
            <ns3:hr>88</ns3:hr>
          </ns3:TrackPointExtension>
        </extensions>
      </trkpt>
      <trkpt lat="36.78877626545727252960205078125" lon="-118.55818907730281352996826171875">
        <ele>1561.4000244140625</ele>
        <time>2021-06-24T16:58:04.000Z</time>
        <extensions>
          <ns3:TrackPointExtension>
            <ns3:atemp>32.0</ns3:atemp>
            <ns3:hr>87</ns3:hr>
          </ns3:TrackPointExtension>
        </extensions>
      </trkpt>
      <trkpt lat="36.78877525962889194488525390625" lon="-118.55817147530615329742431640625">
        <ele>1561.4000244140625</ele>
        <time>2021-06-24T16:58:05.000Z</time>
        <extensions>
          <ns3:TrackPointExtension>
            <ns3:atemp>32.0</ns3:atemp>
            <ns3:hr>88</ns3:hr>
          </ns3:TrackPointExtension>
        </extensions>
      </trkpt>
      <trkpt lat="36.7887887544929981231689453125" lon="-118.55813778005540370941162109375">
        <ele>1561.4000244140625</ele>
        <time>2021-06-24T16:58:07.000Z</time>
        <extensions>
          <ns3:TrackPointExtension>
            <ns3:atemp>32.0</ns3:atemp>
            <ns3:hr>86</ns3:hr>
          </ns3:TrackPointExtension>
        </extensions>
      </trkpt>
      <trkpt lat="36.78879369981586933135986328125" lon="-118.55810777284204959869384765625">
        <ele>1561.199951171875</ele>
        <time>2021-06-24T16:58:09.000Z</time>
        <extensions>
          <ns3:TrackPointExtension>
            <ns3:atemp>32.0</ns3:atemp>
            <ns3:hr>86</ns3:hr>
          </ns3:TrackPointExtension>
        </extensions>
      </trkpt>
      <trkpt lat="36.7888021655380725860595703125" lon="-118.5580927692353725433349609375">
        <ele>1561</ele>
        <time>2021-06-24T16:58:11.000Z</time>
        <extensions>
          <ns3:TrackPointExtension>
            <ns3:atemp>32.0</ns3:atemp>
            <ns3:hr>86</ns3:hr>
          </ns3:TrackPointExtension>
        </extensions>
      </trkpt>
      <trkpt lat="36.78882119245827198028564453125" lon="-118.55804339982569217681884765625">
        <ele>1560.5999755859375</ele>
        <time>2021-06-24T16:58:14.000Z</time>
        <extensions>
          <ns3:TrackPointExtension>
            <ns3:atemp>32.0</ns3:atemp>
            <ns3:hr>87</ns3:hr>
          </ns3:TrackPointExtension>
        </extensions>
      </trkpt>
      <trkpt lat="36.7888226173818111419677734375" lon="-118.55802051723003387451171875">
        <ele>1560.5999755859375</ele>
        <time>2021-06-24T16:58:15.000Z</time>
        <extensions>
          <ns3:TrackPointExtension>
            <ns3:atemp>32.0</ns3:atemp>
            <ns3:hr>88</ns3:hr>
          </ns3:TrackPointExtension>
        </extensions>
      </trkpt>
      <trkpt lat="36.78880342282354831695556640625" lon="-118.5579626820981502532958984375">
        <ele>1560.5999755859375</ele>
        <time>2021-06-24T16:58:19.000Z</time>
        <extensions>
          <ns3:TrackPointExtension>
            <ns3:atemp>32.0</ns3:atemp>
            <ns3:hr>89</ns3:hr>
          </ns3:TrackPointExtension>
        </extensions>
      </trkpt>
      <trkpt lat="36.78880828432738780975341796875" lon="-118.5579412244260311126708984375">
        <ele>1560.5999755859375</ele>
        <time>2021-06-24T16:58:21.000Z</time>
        <extensions>
          <ns3:TrackPointExtension>
            <ns3:atemp>32.0</ns3:atemp>
            <ns3:hr>88</ns3:hr>
          </ns3:TrackPointExtension>
        </extensions>
      </trkpt>
      <trkpt lat="36.7888115532696247100830078125" lon="-118.55790342204272747039794921875">
        <ele>1560.5999755859375</ele>
        <time>2021-06-24T16:58:25.000Z</time>
        <extensions>
          <ns3:TrackPointExtension>
            <ns3:atemp>32.0</ns3:atemp>
            <ns3:hr>89</ns3:hr>
          </ns3:TrackPointExtension>
        </extensions>
      </trkpt>
      <trkpt lat="36.7888058535754680633544921875" lon="-118.55787894688546657562255859375">
        <ele>1560.800048828125</ele>
        <time>2021-06-24T16:58:27.000Z</time>
        <extensions>
          <ns3:TrackPointExtension>
            <ns3:atemp>32.0</ns3:atemp>
            <ns3:hr>90</ns3:hr>
          </ns3:TrackPointExtension>
        </extensions>
      </trkpt>
      <trkpt lat="36.788811720907688140869140625" lon="-118.55775992386043071746826171875">
        <ele>1560.800048828125</ele>
        <time>2021-06-24T16:58:34.000Z</time>
        <extensions>
          <ns3:TrackPointExtension>
            <ns3:atemp>32.0</ns3:atemp>
            <ns3:hr>87</ns3:hr>
          </ns3:TrackPointExtension>
        </extensions>
      </trkpt>
      <trkpt lat="36.78881448693573474884033203125" lon="-118.55774533934891223907470703125">
        <ele>1560.800048828125</ele>
        <time>2021-06-24T16:58:35.000Z</time>
        <extensions>
          <ns3:TrackPointExtension>
            <ns3:atemp>32.0</ns3:atemp>
            <ns3:hr>87</ns3:hr>
          </ns3:TrackPointExtension>
        </extensions>
      </trkpt>
      <trkpt lat="36.78884030319750308990478515625" lon="-118.55769823305308818817138671875">
        <ele>1560.800048828125</ele>
        <time>2021-06-24T16:58:38.000Z</time>
        <extensions>
          <ns3:TrackPointExtension>
            <ns3:atemp>32.0</ns3:atemp>
            <ns3:hr>87</ns3:hr>
          </ns3:TrackPointExtension>
        </extensions>
      </trkpt>
      <trkpt lat="36.788848601281642913818359375" lon="-118.55766152031719684600830078125">
        <ele>1560.800048828125</ele>
        <time>2021-06-24T16:58:40.000Z</time>
        <extensions>
          <ns3:TrackPointExtension>
            <ns3:atemp>32.0</ns3:atemp>
            <ns3:hr>87</ns3:hr>
          </ns3:TrackPointExtension>
        </extensions>
      </trkpt>
      <trkpt lat="36.78885069675743579864501953125" lon="-118.55764995329082012176513671875">
        <ele>1560.800048828125</ele>
        <time>2021-06-24T16:58:41.000Z</time>
        <extensions>
          <ns3:TrackPointExtension>
            <ns3:atemp>32.0</ns3:atemp>
            <ns3:hr>87</ns3:hr>
          </ns3:TrackPointExtension>
        </extensions>
      </trkpt>
      <trkpt lat="36.78885756991803646087646484375" lon="-118.55759832076728343963623046875">
        <ele>1561.5999755859375</ele>
        <time>2021-06-24T16:58:45.000Z</time>
        <extensions>
          <ns3:TrackPointExtension>
            <ns3:atemp>32.0</ns3:atemp>
            <ns3:hr>87</ns3:hr>
          </ns3:TrackPointExtension>
        </extensions>
      </trkpt>
      <trkpt lat="36.78885019384324550628662109375" lon="-118.557555489242076873779296875">
        <ele>1561.5999755859375</ele>
        <time>2021-06-24T16:58:48.000Z</time>
        <extensions>
          <ns3:TrackPointExtension>
            <ns3:atemp>32.0</ns3:atemp>
            <ns3:hr>88</ns3:hr>
          </ns3:TrackPointExtension>
        </extensions>
      </trkpt>
      <trkpt lat="36.78881465457379817962646484375" lon="-118.55744727887213230133056640625">
        <ele>1561.5999755859375</ele>
        <time>2021-06-24T16:58:56.000Z</time>
        <extensions>
          <ns3:TrackPointExtension>
            <ns3:atemp>32.0</ns3:atemp>
            <ns3:hr>89</ns3:hr>
          </ns3:TrackPointExtension>
        </extensions>
      </trkpt>
      <trkpt lat="36.788795627653598785400390625" lon="-118.55735667049884796142578125">
        <ele>1561</ele>
        <time>2021-06-24T16:59:02.000Z</time>
        <extensions>
          <ns3:TrackPointExtension>
            <ns3:atemp>32.0</ns3:atemp>
            <ns3:hr>90</ns3:hr>
          </ns3:TrackPointExtension>
        </extensions>
      </trkpt>
      <trkpt lat="36.78878950886428356170654296875" lon="-118.55734317563474178314208984375">
        <ele>1561.199951171875</ele>
        <time>2021-06-24T16:59:03.000Z</time>
        <extensions>
          <ns3:TrackPointExtension>
            <ns3:atemp>32.0</ns3:atemp>
            <ns3:hr>90</ns3:hr>
          </ns3:TrackPointExtension>
        </extensions>
      </trkpt>
      <trkpt lat="36.7887854017317295074462890625" lon="-118.557325489819049835205078125">
        <ele>1561.199951171875</ele>
        <time>2021-06-24T16:59:05.000Z</time>
        <extensions>
          <ns3:TrackPointExtension>
            <ns3:atemp>32.0</ns3:atemp>
            <ns3:hr>87</ns3:hr>
          </ns3:TrackPointExtension>
        </extensions>
      </trkpt>
      <trkpt lat="36.78878531791269779205322265625" lon="-118.5573075525462627410888671875">
        <ele>1561.4000244140625</ele>
        <time>2021-06-24T16:59:06.000Z</time>
        <extensions>
          <ns3:TrackPointExtension>
            <ns3:atemp>32.0</ns3:atemp>
            <ns3:hr>87</ns3:hr>
          </ns3:TrackPointExtension>
        </extensions>
      </trkpt>
      <trkpt lat="36.78878079168498516082763671875" lon="-118.55729154311120510101318359375">
        <ele>1561.4000244140625</ele>
        <time>2021-06-24T16:59:07.000Z</time>
        <extensions>
          <ns3:TrackPointExtension>
            <ns3:atemp>32.0</ns3:atemp>
            <ns3:hr>88</ns3:hr>
          </ns3:TrackPointExtension>
        </extensions>
      </trkpt>
      <trkpt lat="36.7887683026492595672607421875" lon="-118.5572800599038600921630859375">
        <ele>1561.4000244140625</ele>
        <time>2021-06-24T16:59:08.000Z</time>
        <extensions>
          <ns3:TrackPointExtension>
            <ns3:atemp>32.0</ns3:atemp>
            <ns3:hr>89</ns3:hr>
          </ns3:TrackPointExtension>
        </extensions>
      </trkpt>
      <trkpt lat="36.78876117803156375885009765625" lon="-118.55721426196396350860595703125">
        <ele>1561.800048828125</ele>
        <time>2021-06-24T16:59:12.000Z</time>
        <extensions>
          <ns3:TrackPointExtension>
            <ns3:atemp>32.0</ns3:atemp>
            <ns3:hr>93</ns3:hr>
          </ns3:TrackPointExtension>
        </extensions>
      </trkpt>
      <trkpt lat="36.788739971816539764404296875" lon="-118.5571362264454364776611328125">
        <ele>1562</ele>
        <time>2021-06-24T16:59:16.000Z</time>
        <extensions>
          <ns3:TrackPointExtension>
            <ns3:atemp>32.0</ns3:atemp>
            <ns3:hr>96</ns3:hr>
          </ns3:TrackPointExtension>
        </extensions>
      </trkpt>
      <trkpt lat="36.78874743171036243438720703125" lon="-118.55710563249886035919189453125">
        <ele>1562.199951171875</ele>
        <time>2021-06-24T16:59:18.000Z</time>
        <extensions>
          <ns3:TrackPointExtension>
            <ns3:atemp>32.0</ns3:atemp>
            <ns3:hr>98</ns3:hr>
          </ns3:TrackPointExtension>
        </extensions>
      </trkpt>
      <trkpt lat="36.788721866905689239501953125" lon="-118.557080738246440887451171875">
        <ele>1562.4000244140625</ele>
        <time>2021-06-24T16:59:20.000Z</time>
        <extensions>
          <ns3:TrackPointExtension>
            <ns3:atemp>32.0</ns3:atemp>
            <ns3:hr>98</ns3:hr>
          </ns3:TrackPointExtension>
        </extensions>
      </trkpt>
      <trkpt lat="36.78870745003223419189453125" lon="-118.5570540837943553924560546875">
        <ele>1562.800048828125</ele>
        <time>2021-06-24T16:59:22.000Z</time>
        <extensions>
          <ns3:TrackPointExtension>
            <ns3:atemp>32.0</ns3:atemp>
            <ns3:hr>101</ns3:hr>
          </ns3:TrackPointExtension>
        </extensions>
      </trkpt>
      <trkpt lat="36.78869144059717655181884765625" lon="-118.5570383258163928985595703125">
        <ele>1562.800048828125</ele>
        <time>2021-06-24T16:59:23.000Z</time>
        <extensions>
          <ns3:TrackPointExtension>
            <ns3:atemp>32.0</ns3:atemp>
            <ns3:hr>102</ns3:hr>
          </ns3:TrackPointExtension>
        </extensions>
      </trkpt>
      <trkpt lat="36.78867903538048267364501953125" lon="-118.55702399276196956634521484375">
        <ele>1563</ele>
        <time>2021-06-24T16:59:24.000Z</time>
        <extensions>
          <ns3:TrackPointExtension>
            <ns3:atemp>32.0</ns3:atemp>
            <ns3:hr>101</ns3:hr>
          </ns3:TrackPointExtension>
        </extensions>
      </trkpt>
      <trkpt lat="36.78867048583924770355224609375" lon="-118.55701125226914882659912109375">
        <ele>1563</ele>
        <time>2021-06-24T16:59:25.000Z</time>
        <extensions>
          <ns3:TrackPointExtension>
            <ns3:atemp>32.0</ns3:atemp>
            <ns3:hr>101</ns3:hr>
          </ns3:TrackPointExtension>
        </extensions>
      </trkpt>
      <trkpt lat="36.788660846650600433349609375" lon="-118.556988872587680816650390625">
        <ele>1563</ele>
        <time>2021-06-24T16:59:27.000Z</time>
        <extensions>
          <ns3:TrackPointExtension>
            <ns3:atemp>32.0</ns3:atemp>
            <ns3:hr>101</ns3:hr>
          </ns3:TrackPointExtension>
        </extensions>
      </trkpt>
      <trkpt lat="36.78865992464125156402587890625" lon="-118.55697722174227237701416015625">
        <ele>1563</ele>
        <time>2021-06-24T16:59:28.000Z</time>
        <extensions>
          <ns3:TrackPointExtension>
            <ns3:atemp>32.0</ns3:atemp>
            <ns3:hr>100</ns3:hr>
          </ns3:TrackPointExtension>
        </extensions>
      </trkpt>
      <trkpt lat="36.78865673951804637908935546875" lon="-118.55694956146180629730224609375">
        <ele>1563</ele>
        <time>2021-06-24T16:59:30.000Z</time>
        <extensions>
          <ns3:TrackPointExtension>
            <ns3:atemp>32.0</ns3:atemp>
            <ns3:hr>100</ns3:hr>
          </ns3:TrackPointExtension>
        </extensions>
      </trkpt>
      <trkpt lat="36.78864953108131885528564453125" lon="-118.5569038800895214080810546875">
        <ele>1562.800048828125</ele>
        <time>2021-06-24T16:59:33.000Z</time>
        <extensions>
          <ns3:TrackPointExtension>
            <ns3:atemp>32.0</ns3:atemp>
            <ns3:hr>98</ns3:hr>
          </ns3:TrackPointExtension>
        </extensions>
      </trkpt>
      <trkpt lat="36.78863779641687870025634765625" lon="-118.5568676702678203582763671875">
        <ele>1562.800048828125</ele>
        <time>2021-06-24T16:59:35.000Z</time>
        <extensions>
          <ns3:TrackPointExtension>
            <ns3:atemp>32.0</ns3:atemp>
            <ns3:hr>95</ns3:hr>
          </ns3:TrackPointExtension>
        </extensions>
      </trkpt>
      <trkpt lat="36.78861164487898349761962890625" lon="-118.55682425200939178466796875">
        <ele>1563</ele>
        <time>2021-06-24T16:59:39.000Z</time>
        <extensions>
          <ns3:TrackPointExtension>
            <ns3:atemp>32.0</ns3:atemp>
            <ns3:hr>96</ns3:hr>
          </ns3:TrackPointExtension>
        </extensions>
      </trkpt>
      <trkpt lat="36.78860141895711421966552734375" lon="-118.55681008659303188323974609375">
        <ele>1562.800048828125</ele>
        <time>2021-06-24T16:59:40.000Z</time>
        <extensions>
          <ns3:TrackPointExtension>
            <ns3:atemp>32.0</ns3:atemp>
            <ns3:hr>93</ns3:hr>
          </ns3:TrackPointExtension>
        </extensions>
      </trkpt>
      <trkpt lat="36.78856722079217433929443359375" lon="-118.55678041465580463409423828125">
        <ele>1562.5999755859375</ele>
        <time>2021-06-24T16:59:41.000Z</time>
        <extensions>
          <ns3:TrackPointExtension>
            <ns3:atemp>32.0</ns3:atemp>
            <ns3:hr>92</ns3:hr>
          </ns3:TrackPointExtension>
        </extensions>
      </trkpt>
      <trkpt lat="36.78852832876145839691162109375" lon="-118.55670983903110027313232421875">
        <ele>1561.800048828125</ele>
        <time>2021-06-24T16:59:48.000Z</time>
        <extensions>
          <ns3:TrackPointExtension>
            <ns3:atemp>32.0</ns3:atemp>
            <ns3:hr>91</ns3:hr>
          </ns3:TrackPointExtension>
        </extensions>
      </trkpt>
      <trkpt lat="36.78852313198149204254150390625" lon="-118.55669056065380573272705078125">
        <ele>1561.800048828125</ele>
        <time>2021-06-24T16:59:50.000Z</time>
        <extensions>
          <ns3:TrackPointExtension>
            <ns3:atemp>32.0</ns3:atemp>
            <ns3:hr>94</ns3:hr>
          </ns3:TrackPointExtension>
        </extensions>
      </trkpt>
      <trkpt lat="36.78853000514209270477294921875" lon="-118.55667983181774616241455078125">
        <ele>1562</ele>
        <time>2021-06-24T16:59:52.000Z</time>
        <extensions>
          <ns3:TrackPointExtension>
            <ns3:atemp>32.0</ns3:atemp>
            <ns3:hr>95</ns3:hr>
          </ns3:TrackPointExtension>
        </extensions>
      </trkpt>
      <trkpt lat="36.78852028213441371917724609375" lon="-118.55665795505046844482421875">
        <ele>1562.199951171875</ele>
        <time>2021-06-24T16:59:54.000Z</time>
        <extensions>
          <ns3:TrackPointExtension>
            <ns3:atemp>31.0</ns3:atemp>
            <ns3:hr>97</ns3:hr>
          </ns3:TrackPointExtension>
        </extensions>
      </trkpt>
      <trkpt lat="36.7885178513824939727783203125" lon="-118.55662886984646320343017578125">
        <ele>1562.199951171875</ele>
        <time>2021-06-24T16:59:56.000Z</time>
        <extensions>
          <ns3:TrackPointExtension>
            <ns3:atemp>32.0</ns3:atemp>
            <ns3:hr>93</ns3:hr>
          </ns3:TrackPointExtension>
        </extensions>
      </trkpt>
      <trkpt lat="36.7885352857410907745361328125" lon="-118.5565548576414585113525390625">
        <ele>1562.4000244140625</ele>
        <time>2021-06-24T17:00:01.000Z</time>
        <extensions>
          <ns3:TrackPointExtension>
            <ns3:atemp>31.0</ns3:atemp>
            <ns3:hr>93</ns3:hr>
          </ns3:TrackPointExtension>
        </extensions>
      </trkpt>
      <trkpt lat="36.7885458469390869140625" lon="-118.55652518570423126220703125">
        <ele>1562.4000244140625</ele>
        <time>2021-06-24T17:00:03.000Z</time>
        <extensions>
          <ns3:TrackPointExtension>
            <ns3:atemp>31.0</ns3:atemp>
            <ns3:hr>91</ns3:hr>
          </ns3:TrackPointExtension>
        </extensions>
      </trkpt>
      <trkpt lat="36.78856671787798404693603515625" lon="-118.556490652263164520263671875">
        <ele>1562.4000244140625</ele>
        <time>2021-06-24T17:00:07.000Z</time>
        <extensions>
          <ns3:TrackPointExtension>
            <ns3:atemp>31.0</ns3:atemp>
            <ns3:hr>90</ns3:hr>
          </ns3:TrackPointExtension>
        </extensions>
      </trkpt>
      <trkpt lat="36.78859823383390903472900390625" lon="-118.5564294643700122833251953125">
        <ele>1562.5999755859375</ele>
        <time>2021-06-24T17:00:12.000Z</time>
        <extensions>
          <ns3:TrackPointExtension>
            <ns3:atemp>31.0</ns3:atemp>
            <ns3:hr>90</ns3:hr>
          </ns3:TrackPointExtension>
        </extensions>
      </trkpt>
      <trkpt lat="36.78859102539718151092529296875" lon="-118.55641982518136501312255859375">
        <ele>1562.5999755859375</ele>
        <time>2021-06-24T17:00:13.000Z</time>
        <extensions>
          <ns3:TrackPointExtension>
            <ns3:atemp>31.0</ns3:atemp>
            <ns3:hr>89</ns3:hr>
          </ns3:TrackPointExtension>
        </extensions>
      </trkpt>
      <trkpt lat="36.78856931626796722412109375" lon="-118.5563139617443084716796875">
        <ele>1562.800048828125</ele>
        <time>2021-06-24T17:00:18.000Z</time>
        <extensions>
          <ns3:TrackPointExtension>
            <ns3:atemp>31.0</ns3:atemp>
            <ns3:hr>89</ns3:hr>
          </ns3:TrackPointExtension>
        </extensions>
      </trkpt>
      <trkpt lat="36.78856839425861835479736328125" lon="-118.556285798549652099609375">
        <ele>1563</ele>
        <time>2021-06-24T17:00:22.000Z</time>
        <extensions>
          <ns3:TrackPointExtension>
            <ns3:atemp>31.0</ns3:atemp>
            <ns3:hr>92</ns3:hr>
          </ns3:TrackPointExtension>
        </extensions>
      </trkpt>
      <trkpt lat="36.78856663405895233154296875" lon="-118.55626794509589672088623046875">
        <ele>1563.4000244140625</ele>
        <time>2021-06-24T17:00:24.000Z</time>
        <extensions>
          <ns3:TrackPointExtension>
            <ns3:atemp>31.0</ns3:atemp>
            <ns3:hr>93</ns3:hr>
          </ns3:TrackPointExtension>
        </extensions>
      </trkpt>
      <trkpt lat="36.7885721661150455474853515625" lon="-118.556235171854496002197265625">
        <ele>1563.4000244140625</ele>
        <time>2021-06-24T17:00:27.000Z</time>
        <extensions>
          <ns3:TrackPointExtension>
            <ns3:atemp>31.0</ns3:atemp>
            <ns3:hr>93</ns3:hr>
          </ns3:TrackPointExtension>
        </extensions>
      </trkpt>
      <trkpt lat="36.78857208229601383209228515625" lon="-118.5562132112681865692138671875">
        <ele>1563.4000244140625</ele>
        <time>2021-06-24T17:00:29.000Z</time>
        <extensions>
          <ns3:TrackPointExtension>
            <ns3:atemp>31.0</ns3:atemp>
            <ns3:hr>95</ns3:hr>
          </ns3:TrackPointExtension>
        </extensions>
      </trkpt>
      <trkpt lat="36.788575351238250732421875" lon="-118.55617649853229522705078125">
        <ele>1563.199951171875</ele>
        <time>2021-06-24T17:00:31.000Z</time>
        <extensions>
          <ns3:TrackPointExtension>
            <ns3:atemp>31.0</ns3:atemp>
            <ns3:hr>96</ns3:hr>
          </ns3:TrackPointExtension>
        </extensions>
      </trkpt>
      <trkpt lat="36.78856805898249149322509765625" lon="-118.55614556930959224700927734375">
        <ele>1563.4000244140625</ele>
        <time>2021-06-24T17:00:33.000Z</time>
        <extensions>
          <ns3:TrackPointExtension>
            <ns3:atemp>31.0</ns3:atemp>
            <ns3:hr>98</ns3:hr>
          </ns3:TrackPointExtension>
        </extensions>
      </trkpt>
      <trkpt lat="36.78856688551604747772216796875" lon="-118.55611212551593780517578125">
        <ele>1563.4000244140625</ele>
        <time>2021-06-24T17:00:36.000Z</time>
        <extensions>
          <ns3:TrackPointExtension>
            <ns3:atemp>31.0</ns3:atemp>
            <ns3:hr>101</ns3:hr>
          </ns3:TrackPointExtension>
        </extensions>
      </trkpt>
      <trkpt lat="36.788567639887332916259765625" lon="-118.5560713894665241241455078125">
        <ele>1563.5999755859375</ele>
        <time>2021-06-24T17:00:39.000Z</time>
        <extensions>
          <ns3:TrackPointExtension>
            <ns3:atemp>31.0</ns3:atemp>
            <ns3:hr>103</ns3:hr>
          </ns3:TrackPointExtension>
        </extensions>
      </trkpt>
      <trkpt lat="36.7885577492415904998779296875" lon="-118.5560415498912334442138671875">
        <ele>1563.800048828125</ele>
        <time>2021-06-24T17:00:40.000Z</time>
        <extensions>
          <ns3:TrackPointExtension>
            <ns3:atemp>31.0</ns3:atemp>
            <ns3:hr>102</ns3:hr>
          </ns3:TrackPointExtension>
        </extensions>
      </trkpt>
      <trkpt lat="36.7885708250105381011962890625" lon="-118.5559972934424877166748046875">
        <ele>1563.800048828125</ele>
        <time>2021-06-24T17:00:43.000Z</time>
        <extensions>
          <ns3:TrackPointExtension>
            <ns3:atemp>31.0</ns3:atemp>
            <ns3:hr>100</ns3:hr>
          </ns3:TrackPointExtension>
        </extensions>
      </trkpt>
      <trkpt lat="36.788564957678318023681640625" lon="-118.55598815716803073883056640625">
        <ele>1563.800048828125</ele>
        <time>2021-06-24T17:00:44.000Z</time>
        <extensions>
          <ns3:TrackPointExtension>
            <ns3:atemp>31.0</ns3:atemp>
            <ns3:hr>99</ns3:hr>
          </ns3:TrackPointExtension>
        </extensions>
      </trkpt>
      <trkpt lat="36.78856202401220798492431640625" lon="-118.5559701360762119293212890625">
        <ele>1563.800048828125</ele>
        <time>2021-06-24T17:00:46.000Z</time>
        <extensions>
          <ns3:TrackPointExtension>
            <ns3:atemp>31.0</ns3:atemp>
            <ns3:hr>96</ns3:hr>
          </ns3:TrackPointExtension>
        </extensions>
      </trkpt>
      <trkpt lat="36.7885678075253963470458984375" lon="-118.55594524182379245758056640625">
        <ele>1563.800048828125</ele>
        <time>2021-06-24T17:00:48.000Z</time>
        <extensions>
          <ns3:TrackPointExtension>
            <ns3:atemp>31.0</ns3:atemp>
            <ns3:hr>98</ns3:hr>
          </ns3:TrackPointExtension>
        </extensions>
      </trkpt>
      <trkpt lat="36.78858297877013683319091796875" lon="-118.55591707862913608551025390625">
        <ele>1563.800048828125</ele>
        <time>2021-06-24T17:00:50.000Z</time>
        <extensions>
          <ns3:TrackPointExtension>
            <ns3:atemp>31.0</ns3:atemp>
            <ns3:hr>97</ns3:hr>
          </ns3:TrackPointExtension>
        </extensions>
      </trkpt>
      <trkpt lat="36.78858943283557891845703125" lon="-118.55590425431728363037109375">
        <ele>1563.800048828125</ele>
        <time>2021-06-24T17:00:51.000Z</time>
        <extensions>
          <ns3:TrackPointExtension>
            <ns3:atemp>31.0</ns3:atemp>
            <ns3:hr>96</ns3:hr>
          </ns3:TrackPointExtension>
        </extensions>
      </trkpt>
      <trkpt lat="36.78862438537180423736572265625" lon="-118.55585253797471523284912109375">
        <ele>1564</ele>
        <time>2021-06-24T17:00:55.000Z</time>
        <extensions>
          <ns3:TrackPointExtension>
            <ns3:atemp>31.0</ns3:atemp>
            <ns3:hr>96</ns3:hr>
          </ns3:TrackPointExtension>
        </extensions>
      </trkpt>
      <trkpt lat="36.78862254135310649871826171875" lon="-118.55583560653030872344970703125">
        <ele>1564.4000244140625</ele>
        <time>2021-06-24T17:00:58.000Z</time>
        <extensions>
          <ns3:TrackPointExtension>
            <ns3:atemp>31.0</ns3:atemp>
            <ns3:hr>96</ns3:hr>
          </ns3:TrackPointExtension>
        </extensions>
      </trkpt>
      <trkpt lat="36.78863964043557643890380859375" lon="-118.5557934455573558807373046875">
        <ele>1564.5999755859375</ele>
        <time>2021-06-24T17:01:03.000Z</time>
        <extensions>
          <ns3:TrackPointExtension>
            <ns3:atemp>31.0</ns3:atemp>
            <ns3:hr>96</ns3:hr>
          </ns3:TrackPointExtension>
        </extensions>
      </trkpt>
      <trkpt lat="36.78864114917814731597900390625" lon="-118.55578380636870861053466796875">
        <ele>1564.5999755859375</ele>
        <time>2021-06-24T17:01:04.000Z</time>
        <extensions>
          <ns3:TrackPointExtension>
            <ns3:atemp>31.0</ns3:atemp>
            <ns3:hr>97</ns3:hr>
          </ns3:TrackPointExtension>
        </extensions>
      </trkpt>
      <trkpt lat="36.78865254856646060943603515625" lon="-118.555747680366039276123046875">
        <ele>1565</ele>
        <time>2021-06-24T17:01:07.000Z</time>
        <extensions>
          <ns3:TrackPointExtension>
            <ns3:atemp>31.0</ns3:atemp>
            <ns3:hr>97</ns3:hr>
          </ns3:TrackPointExtension>
        </extensions>
      </trkpt>
      <trkpt lat="36.788658834993839263916015625" lon="-118.55570434592664241790771484375">
        <ele>1565.199951171875</ele>
        <time>2021-06-24T17:01:10.000Z</time>
        <extensions>
          <ns3:TrackPointExtension>
            <ns3:atemp>31.0</ns3:atemp>
            <ns3:hr>98</ns3:hr>
          </ns3:TrackPointExtension>
        </extensions>
      </trkpt>
      <trkpt lat="36.788670904934406280517578125" lon="-118.55568439699709415435791015625">
        <ele>1565.199951171875</ele>
        <time>2021-06-24T17:01:11.000Z</time>
        <extensions>
          <ns3:TrackPointExtension>
            <ns3:atemp>31.0</ns3:atemp>
            <ns3:hr>97</ns3:hr>
          </ns3:TrackPointExtension>
        </extensions>
      </trkpt>
      <trkpt lat="36.788703761994838714599609375" lon="-118.55562354438006877899169921875">
        <ele>1565.199951171875</ele>
        <time>2021-06-24T17:01:13.000Z</time>
        <extensions>
          <ns3:TrackPointExtension>
            <ns3:atemp>31.0</ns3:atemp>
            <ns3:hr>97</ns3:hr>
          </ns3:TrackPointExtension>
        </extensions>
      </trkpt>
      <trkpt lat="36.7887166701257228851318359375" lon="-118.55557434260845184326171875">
        <ele>1565.4000244140625</ele>
        <time>2021-06-24T17:01:15.000Z</time>
        <extensions>
          <ns3:TrackPointExtension>
            <ns3:atemp>31.0</ns3:atemp>
            <ns3:hr>98</ns3:hr>
          </ns3:TrackPointExtension>
        </extensions>
      </trkpt>
      <trkpt lat="36.78871541284024715423583984375" lon="-118.55552832596004009246826171875">
        <ele>1565.5999755859375</ele>
        <time>2021-06-24T17:01:18.000Z</time>
        <extensions>
          <ns3:TrackPointExtension>
            <ns3:atemp>31.0</ns3:atemp>
            <ns3:hr>99</ns3:hr>
          </ns3:TrackPointExtension>
        </extensions>
      </trkpt>
      <trkpt lat="36.7887123115360736846923828125" lon="-118.55551156215369701385498046875">
        <ele>1565.5999755859375</ele>
        <time>2021-06-24T17:01:19.000Z</time>
        <extensions>
          <ns3:TrackPointExtension>
            <ns3:atemp>31.0</ns3:atemp>
            <ns3:hr>99</ns3:hr>
          </ns3:TrackPointExtension>
        </extensions>
      </trkpt>
      <trkpt lat="36.78870418108999729156494140625" lon="-118.55544785968959331512451171875">
        <ele>1565.5999755859375</ele>
        <time>2021-06-24T17:01:22.000Z</time>
        <extensions>
          <ns3:TrackPointExtension>
            <ns3:atemp>31.0</ns3:atemp>
            <ns3:hr>99</ns3:hr>
          </ns3:TrackPointExtension>
        </extensions>
      </trkpt>
      <trkpt lat="36.78871658630669116973876953125" lon="-118.5554253123700618743896484375">
        <ele>1565.800048828125</ele>
        <time>2021-06-24T17:01:24.000Z</time>
        <extensions>
          <ns3:TrackPointExtension>
            <ns3:atemp>31.0</ns3:atemp>
            <ns3:hr>103</ns3:hr>
          </ns3:TrackPointExtension>
        </extensions>
      </trkpt>
      <trkpt lat="36.78872664459049701690673828125" lon="-118.55541047640144824981689453125">
        <ele>1565.800048828125</ele>
        <time>2021-06-24T17:01:25.000Z</time>
        <extensions>
          <ns3:TrackPointExtension>
            <ns3:atemp>31.0</ns3:atemp>
            <ns3:hr>100</ns3:hr>
          </ns3:TrackPointExtension>
        </extensions>
      </trkpt>
      <trkpt lat="36.78873133845627307891845703125" lon="-118.55539421550929546356201171875">
        <ele>1565.800048828125</ele>
        <time>2021-06-24T17:01:26.000Z</time>
        <extensions>
          <ns3:TrackPointExtension>
            <ns3:atemp>31.0</ns3:atemp>
            <ns3:hr>99</ns3:hr>
          </ns3:TrackPointExtension>
        </extensions>
      </trkpt>
      <trkpt lat="36.788735948503017425537109375" lon="-118.555363118648529052734375">
        <ele>1565.800048828125</ele>
        <time>2021-06-24T17:01:28.000Z</time>
        <extensions>
          <ns3:TrackPointExtension>
            <ns3:atemp>31.0</ns3:atemp>
            <ns3:hr>98</ns3:hr>
          </ns3:TrackPointExtension>
        </extensions>
      </trkpt>
      <trkpt lat="36.788751371204853057861328125" lon="-118.55529950000345706939697265625">
        <ele>1565.5999755859375</ele>
        <time>2021-06-24T17:01:31.000Z</time>
        <extensions>
          <ns3:TrackPointExtension>
            <ns3:atemp>31.0</ns3:atemp>
            <ns3:hr>97</ns3:hr>
          </ns3:TrackPointExtension>
        </extensions>
      </trkpt>
      <trkpt lat="36.7886898480355739593505859375" lon="-118.5552134178578853607177734375">
        <ele>1565.199951171875</ele>
        <time>2021-06-24T17:01:38.000Z</time>
        <extensions>
          <ns3:TrackPointExtension>
            <ns3:atemp>31.0</ns3:atemp>
            <ns3:hr>96</ns3:hr>
          </ns3:TrackPointExtension>
        </extensions>
      </trkpt>
      <trkpt lat="36.788691692054271697998046875" lon="-118.55519154109060764312744140625">
        <ele>1565.199951171875</ele>
        <time>2021-06-24T17:01:40.000Z</time>
        <extensions>
          <ns3:TrackPointExtension>
            <ns3:atemp>31.0</ns3:atemp>
            <ns3:hr>96</ns3:hr>
          </ns3:TrackPointExtension>
        </extensions>
      </trkpt>
      <trkpt lat="36.78869680501520633697509765625" lon="-118.55517125688493251800537109375">
        <ele>1565.199951171875</ele>
        <time>2021-06-24T17:01:42.000Z</time>
        <extensions>
          <ns3:TrackPointExtension>
            <ns3:atemp>31.0</ns3:atemp>
            <ns3:hr>96</ns3:hr>
          </ns3:TrackPointExtension>
        </extensions>
      </trkpt>
      <trkpt lat="36.78869864903390407562255859375" lon="-118.555159606039524078369140625">
        <ele>1565.199951171875</ele>
        <time>2021-06-24T17:01:43.000Z</time>
        <extensions>
          <ns3:TrackPointExtension>
            <ns3:atemp>31.0</ns3:atemp>
            <ns3:hr>96</ns3:hr>
          </ns3:TrackPointExtension>
        </extensions>
      </trkpt>
      <trkpt lat="36.78870954550802707672119140625" lon="-118.555118031799793243408203125">
        <ele>1565</ele>
        <time>2021-06-24T17:01:46.000Z</time>
        <extensions>
          <ns3:TrackPointExtension>
            <ns3:atemp>31.0</ns3:atemp>
            <ns3:hr>94</ns3:hr>
          </ns3:TrackPointExtension>
        </extensions>
      </trkpt>
      <trkpt lat="36.78873100318014621734619140625" lon="-118.55509221553802490234375">
        <ele>1565.199951171875</ele>
        <time>2021-06-24T17:01:49.000Z</time>
        <extensions>
          <ns3:TrackPointExtension>
            <ns3:atemp>31.0</ns3:atemp>
            <ns3:hr>93</ns3:hr>
          </ns3:TrackPointExtension>
        </extensions>
      </trkpt>
      <trkpt lat="36.78873117081820964813232421875" lon="-118.55508257634937763214111328125">
        <ele>1565.199951171875</ele>
        <time>2021-06-24T17:01:50.000Z</time>
        <extensions>
          <ns3:TrackPointExtension>
            <ns3:atemp>31.0</ns3:atemp>
            <ns3:hr>93</ns3:hr>
          </ns3:TrackPointExtension>
        </extensions>
      </trkpt>
      <trkpt lat="36.78874508477747440338134765625" lon="-118.55504385195672512054443359375">
        <ele>1565.199951171875</ele>
        <time>2021-06-24T17:01:54.000Z</time>
        <extensions>
          <ns3:TrackPointExtension>
            <ns3:atemp>31.0</ns3:atemp>
            <ns3:hr>89</ns3:hr>
          </ns3:TrackPointExtension>
        </extensions>
      </trkpt>
      <trkpt lat="36.78874969482421875" lon="-118.55503597296774387359619140625">
        <ele>1565.199951171875</ele>
        <time>2021-06-24T17:01:55.000Z</time>
        <extensions>
          <ns3:TrackPointExtension>
            <ns3:atemp>31.0</ns3:atemp>
            <ns3:hr>91</ns3:hr>
          </ns3:TrackPointExtension>
        </extensions>
      </trkpt>
      <trkpt lat="36.7887595854699611663818359375" lon="-118.55499490164220333099365234375">
        <ele>1565.199951171875</ele>
        <time>2021-06-24T17:01:58.000Z</time>
        <extensions>
          <ns3:TrackPointExtension>
            <ns3:atemp>31.0</ns3:atemp>
            <ns3:hr>94</ns3:hr>
          </ns3:TrackPointExtension>
        </extensions>
      </trkpt>
      <trkpt lat="36.7887617647647857666015625" lon="-118.55497813783586025238037109375">
        <ele>1565.199951171875</ele>
        <time>2021-06-24T17:01:59.000Z</time>
        <extensions>
          <ns3:TrackPointExtension>
            <ns3:atemp>31.0</ns3:atemp>
            <ns3:hr>94</ns3:hr>
          </ns3:TrackPointExtension>
        </extensions>
      </trkpt>
      <trkpt lat="36.7887689732015132904052734375" lon="-118.55491963215172290802001953125">
        <ele>1565.199951171875</ele>
        <time>2021-06-24T17:02:02.000Z</time>
        <extensions>
          <ns3:TrackPointExtension>
            <ns3:atemp>31.0</ns3:atemp>
            <ns3:hr>97</ns3:hr>
          </ns3:TrackPointExtension>
        </extensions>
      </trkpt>
      <trkpt lat="36.7887662909924983978271484375" lon="-118.5547732003033161163330078125">
        <ele>1565.4000244140625</ele>
        <time>2021-06-24T17:02:11.000Z</time>
        <extensions>
          <ns3:TrackPointExtension>
            <ns3:atemp>31.0</ns3:atemp>
            <ns3:hr>99</ns3:hr>
          </ns3:TrackPointExtension>
        </extensions>
      </trkpt>
      <trkpt lat="36.78875497542321681976318359375" lon="-118.55475752614438533782958984375">
        <ele>1565.4000244140625</ele>
        <time>2021-06-24T17:02:13.000Z</time>
        <extensions>
          <ns3:TrackPointExtension>
            <ns3:atemp>31.0</ns3:atemp>
            <ns3:hr>99</ns3:hr>
          </ns3:TrackPointExtension>
        </extensions>
      </trkpt>
      <trkpt lat="36.78874340839684009552001953125" lon="-118.55470530688762664794921875">
        <ele>1565.199951171875</ele>
        <time>2021-06-24T17:02:17.000Z</time>
        <extensions>
          <ns3:TrackPointExtension>
            <ns3:atemp>31.0</ns3:atemp>
            <ns3:hr>98</ns3:hr>
          </ns3:TrackPointExtension>
        </extensions>
      </trkpt>
      <trkpt lat="36.78875296376645565032958984375" lon="-118.554686866700649261474609375">
        <ele>1565.199951171875</ele>
        <time>2021-06-24T17:02:18.000Z</time>
        <extensions>
          <ns3:TrackPointExtension>
            <ns3:atemp>31.0</ns3:atemp>
            <ns3:hr>97</ns3:hr>
          </ns3:TrackPointExtension>
        </extensions>
      </trkpt>
      <trkpt lat="36.78875950165092945098876953125" lon="-118.55467018671333789825439453125">
        <ele>1565.199951171875</ele>
        <time>2021-06-24T17:02:19.000Z</time>
        <extensions>
          <ns3:TrackPointExtension>
            <ns3:atemp>31.0</ns3:atemp>
            <ns3:hr>94</ns3:hr>
          </ns3:TrackPointExtension>
        </extensions>
      </trkpt>
      <trkpt lat="36.7887639440596103668212890625" lon="-118.554652668535709381103515625">
        <ele>1565.199951171875</ele>
        <time>2021-06-24T17:02:20.000Z</time>
        <extensions>
          <ns3:TrackPointExtension>
            <ns3:atemp>31.0</ns3:atemp>
            <ns3:hr>97</ns3:hr>
          </ns3:TrackPointExtension>
        </extensions>
      </trkpt>
      <trkpt lat="36.78878213278949260711669921875" lon="-118.5545924864709377288818359375">
        <ele>1565.199951171875</ele>
        <time>2021-06-24T17:02:24.000Z</time>
        <extensions>
          <ns3:TrackPointExtension>
            <ns3:atemp>31.0</ns3:atemp>
            <ns3:hr>95</ns3:hr>
          </ns3:TrackPointExtension>
        </extensions>
      </trkpt>
      <trkpt lat="36.788784563541412353515625" lon="-118.55454546399414539337158203125">
        <ele>1565.199951171875</ele>
        <time>2021-06-24T17:02:27.000Z</time>
        <extensions>
          <ns3:TrackPointExtension>
            <ns3:atemp>31.0</ns3:atemp>
            <ns3:hr>96</ns3:hr>
          </ns3:TrackPointExtension>
        </extensions>
      </trkpt>
      <trkpt lat="36.7888025008141994476318359375" lon="-118.55449902825057506561279296875">
        <ele>1565.199951171875</ele>
        <time>2021-06-24T17:02:30.000Z</time>
        <extensions>
          <ns3:TrackPointExtension>
            <ns3:atemp>31.0</ns3:atemp>
            <ns3:hr>97</ns3:hr>
          </ns3:TrackPointExtension>
        </extensions>
      </trkpt>
      <trkpt lat="36.78880778141319751739501953125" lon="-118.5544858686625957489013671875">
        <ele>1565.199951171875</ele>
        <time>2021-06-24T17:02:31.000Z</time>
        <extensions>
          <ns3:TrackPointExtension>
            <ns3:atemp>31.0</ns3:atemp>
            <ns3:hr>96</ns3:hr>
          </ns3:TrackPointExtension>
        </extensions>
      </trkpt>
      <trkpt lat="36.7888403870165348052978515625" lon="-118.554451502859592437744140625">
        <ele>1565.5999755859375</ele>
        <time>2021-06-24T17:02:36.000Z</time>
        <extensions>
          <ns3:TrackPointExtension>
            <ns3:atemp>31.0</ns3:atemp>
            <ns3:hr>96</ns3:hr>
          </ns3:TrackPointExtension>
        </extensions>
      </trkpt>
      <trkpt lat="36.788859665393829345703125" lon="-118.55434832163155078887939453125">
        <ele>1565.4000244140625</ele>
        <time>2021-06-24T17:02:44.000Z</time>
        <extensions>
          <ns3:TrackPointExtension>
            <ns3:atemp>31.0</ns3:atemp>
            <ns3:hr>95</ns3:hr>
          </ns3:TrackPointExtension>
        </extensions>
      </trkpt>
      <trkpt lat="36.788874752819538116455078125" lon="-118.5542860440909862518310546875">
        <ele>1565.5999755859375</ele>
        <time>2021-06-24T17:02:48.000Z</time>
        <extensions>
          <ns3:TrackPointExtension>
            <ns3:atemp>31.0</ns3:atemp>
            <ns3:hr>91</ns3:hr>
          </ns3:TrackPointExtension>
        </extensions>
      </trkpt>
      <trkpt lat="36.788894198834896087646484375" lon="-118.554248996078968048095703125">
        <ele>1565.5999755859375</ele>
        <time>2021-06-24T17:02:51.000Z</time>
        <extensions>
          <ns3:TrackPointExtension>
            <ns3:atemp>31.0</ns3:atemp>
            <ns3:hr>93</ns3:hr>
          </ns3:TrackPointExtension>
        </extensions>
      </trkpt>
      <trkpt lat="36.7888985574245452880859375" lon="-118.554231561720371246337890625">
        <ele>1565.800048828125</ele>
        <time>2021-06-24T17:02:52.000Z</time>
        <extensions>
          <ns3:TrackPointExtension>
            <ns3:atemp>31.0</ns3:atemp>
            <ns3:hr>93</ns3:hr>
          </ns3:TrackPointExtension>
        </extensions>
      </trkpt>
      <trkpt lat="36.78892211057245731353759765625" lon="-118.5541566275060176849365234375">
        <ele>1565.800048828125</ele>
        <time>2021-06-24T17:02:56.000Z</time>
        <extensions>
          <ns3:TrackPointExtension>
            <ns3:atemp>31.0</ns3:atemp>
            <ns3:hr>97</ns3:hr>
          </ns3:TrackPointExtension>
        </extensions>
      </trkpt>
      <trkpt lat="36.78892747499048709869384765625" lon="-118.5541271232068538665771484375">
        <ele>1565.800048828125</ele>
        <time>2021-06-24T17:02:58.000Z</time>
        <extensions>
          <ns3:TrackPointExtension>
            <ns3:atemp>31.0</ns3:atemp>
            <ns3:hr>96</ns3:hr>
          </ns3:TrackPointExtension>
        </extensions>
      </trkpt>
      <trkpt lat="36.7889503575861454010009765625" lon="-118.55406987480819225311279296875">
        <ele>1565.800048828125</ele>
        <time>2021-06-24T17:03:03.000Z</time>
        <extensions>
          <ns3:TrackPointExtension>
            <ns3:atemp>31.0</ns3:atemp>
            <ns3:hr>93</ns3:hr>
          </ns3:TrackPointExtension>
        </extensions>
      </trkpt>
      <trkpt lat="36.78895547054708003997802734375" lon="-118.55401237495243549346923828125">
        <ele>1565.800048828125</ele>
        <time>2021-06-24T17:03:06.000Z</time>
        <extensions>
          <ns3:TrackPointExtension>
            <ns3:atemp>31.0</ns3:atemp>
            <ns3:hr>90</ns3:hr>
          </ns3:TrackPointExtension>
        </extensions>
      </trkpt>
      <trkpt lat="36.788948513567447662353515625" lon="-118.55392805300652980804443359375">
        <ele>1566.199951171875</ele>
        <time>2021-06-24T17:03:13.000Z</time>
        <extensions>
          <ns3:TrackPointExtension>
            <ns3:atemp>31.0</ns3:atemp>
            <ns3:hr>93</ns3:hr>
          </ns3:TrackPointExtension>
        </extensions>
      </trkpt>
      <trkpt lat="36.788957230746746063232421875" lon="-118.55389100499451160430908203125">
        <ele>1566.199951171875</ele>
        <time>2021-06-24T17:03:16.000Z</time>
        <extensions>
          <ns3:TrackPointExtension>
            <ns3:atemp>31.0</ns3:atemp>
            <ns3:hr>91</ns3:hr>
          </ns3:TrackPointExtension>
        </extensions>
      </trkpt>
      <trkpt lat="36.78896427154541015625" lon="-118.55387608520686626434326171875">
        <ele>1566.4000244140625</ele>
        <time>2021-06-24T17:03:17.000Z</time>
        <extensions>
          <ns3:TrackPointExtension>
            <ns3:atemp>31.0</ns3:atemp>
            <ns3:hr>90</ns3:hr>
          </ns3:TrackPointExtension>
        </extensions>
      </trkpt>
      <trkpt lat="36.78898430429399013519287109375" lon="-118.5538329184055328369140625">
        <ele>1566.4000244140625</ele>
        <time>2021-06-24T17:03:20.000Z</time>
        <extensions>
          <ns3:TrackPointExtension>
            <ns3:atemp>31.0</ns3:atemp>
            <ns3:hr>88</ns3:hr>
          </ns3:TrackPointExtension>
        </extensions>
      </trkpt>
      <trkpt lat="36.788992770016193389892578125" lon="-118.55381657369434833526611328125">
        <ele>1566.4000244140625</ele>
        <time>2021-06-24T17:03:22.000Z</time>
        <extensions>
          <ns3:TrackPointExtension>
            <ns3:atemp>31.0</ns3:atemp>
            <ns3:hr>88</ns3:hr>
          </ns3:TrackPointExtension>
        </extensions>
      </trkpt>
      <trkpt lat="36.78901028819382190704345703125" lon="-118.5537814535200595855712890625">
        <ele>1566.5999755859375</ele>
        <time>2021-06-24T17:03:25.000Z</time>
        <extensions>
          <ns3:TrackPointExtension>
            <ns3:atemp>30.0</ns3:atemp>
            <ns3:hr>88</ns3:hr>
          </ns3:TrackPointExtension>
        </extensions>
      </trkpt>
      <trkpt lat="36.789026968181133270263671875" lon="-118.5537492670118808746337890625">
        <ele>1567</ele>
        <time>2021-06-24T17:03:28.000Z</time>
        <extensions>
          <ns3:TrackPointExtension>
            <ns3:atemp>31.0</ns3:atemp>
            <ns3:hr>89</ns3:hr>
          </ns3:TrackPointExtension>
        </extensions>
      </trkpt>
      <trkpt lat="36.789061166346073150634765625" lon="-118.55369704775512218475341796875">
        <ele>1567.5999755859375</ele>
        <time>2021-06-24T17:03:33.000Z</time>
        <extensions>
          <ns3:TrackPointExtension>
            <ns3:atemp>30.0</ns3:atemp>
            <ns3:hr>92</ns3:hr>
          </ns3:TrackPointExtension>
        </extensions>
      </trkpt>
      <trkpt lat="36.78906510584056377410888671875" lon="-118.55369268916547298431396484375">
        <ele>1567.5999755859375</ele>
        <time>2021-06-24T17:03:34.000Z</time>
        <extensions>
          <ns3:TrackPointExtension>
            <ns3:atemp>30.0</ns3:atemp>
            <ns3:hr>93</ns3:hr>
          </ns3:TrackPointExtension>
        </extensions>
      </trkpt>
      <trkpt lat="36.78908237256109714508056640625" lon="-118.55364658869802951812744140625">
        <ele>1568.199951171875</ele>
        <time>2021-06-24T17:03:38.000Z</time>
        <extensions>
          <ns3:TrackPointExtension>
            <ns3:atemp>30.0</ns3:atemp>
            <ns3:hr>96</ns3:hr>
          </ns3:TrackPointExtension>
        </extensions>
      </trkpt>
      <trkpt lat="36.78909259848296642303466796875" lon="-118.5536049306392669677734375">
        <ele>1568.4000244140625</ele>
        <time>2021-06-24T17:03:41.000Z</time>
        <extensions>
          <ns3:TrackPointExtension>
            <ns3:atemp>30.0</ns3:atemp>
            <ns3:hr>97</ns3:hr>
          </ns3:TrackPointExtension>
        </extensions>
      </trkpt>
      <trkpt lat="36.78909829817712306976318359375" lon="-118.55359193868935108184814453125">
        <ele>1568.5999755859375</ele>
        <time>2021-06-24T17:03:42.000Z</time>
        <extensions>
          <ns3:TrackPointExtension>
            <ns3:atemp>30.0</ns3:atemp>
            <ns3:hr>99</ns3:hr>
          </ns3:TrackPointExtension>
        </extensions>
      </trkpt>
      <trkpt lat="36.78913660347461700439453125" lon="-118.55350971221923828125">
        <ele>1568.5999755859375</ele>
        <time>2021-06-24T17:03:48.000Z</time>
        <extensions>
          <ns3:TrackPointExtension>
            <ns3:atemp>30.0</ns3:atemp>
            <ns3:hr>100</ns3:hr>
          </ns3:TrackPointExtension>
        </extensions>
      </trkpt>
      <trkpt lat="36.7891418002545833587646484375" lon="-118.55349454097449779510498046875">
        <ele>1568.5999755859375</ele>
        <time>2021-06-24T17:03:49.000Z</time>
        <extensions>
          <ns3:TrackPointExtension>
            <ns3:atemp>30.0</ns3:atemp>
            <ns3:hr>100</ns3:hr>
          </ns3:TrackPointExtension>
        </extensions>
      </trkpt>
      <trkpt lat="36.78915529511868953704833984375" lon="-118.5534441657364368438720703125">
        <ele>1568.5999755859375</ele>
        <time>2021-06-24T17:03:53.000Z</time>
        <extensions>
          <ns3:TrackPointExtension>
            <ns3:atemp>30.0</ns3:atemp>
            <ns3:hr>100</ns3:hr>
          </ns3:TrackPointExtension>
        </extensions>
      </trkpt>
      <trkpt lat="36.7891632579267024993896484375" lon="-118.5534304194152355194091796875">
        <ele>1568.4000244140625</ele>
        <time>2021-06-24T17:03:54.000Z</time>
        <extensions>
          <ns3:TrackPointExtension>
            <ns3:atemp>30.0</ns3:atemp>
            <ns3:hr>100</ns3:hr>
          </ns3:TrackPointExtension>
        </extensions>
      </trkpt>
      <trkpt lat="36.78918756544589996337890625" lon="-118.55339161120355129241943359375">
        <ele>1568.800048828125</ele>
        <time>2021-06-24T17:03:58.000Z</time>
        <extensions>
          <ns3:TrackPointExtension>
            <ns3:atemp>30.0</ns3:atemp>
            <ns3:hr>99</ns3:hr>
          </ns3:TrackPointExtension>
        </extensions>
      </trkpt>
      <trkpt lat="36.78919485770165920257568359375" lon="-118.55335003696382045745849609375">
        <ele>1568.800048828125</ele>
        <time>2021-06-24T17:04:01.000Z</time>
        <extensions>
          <ns3:TrackPointExtension>
            <ns3:atemp>30.0</ns3:atemp>
            <ns3:hr>95</ns3:hr>
          </ns3:TrackPointExtension>
        </extensions>
      </trkpt>
      <trkpt lat="36.78919963538646697998046875" lon="-118.55333872139453887939453125">
        <ele>1568.800048828125</ele>
        <time>2021-06-24T17:04:02.000Z</time>
        <extensions>
          <ns3:TrackPointExtension>
            <ns3:atemp>30.0</ns3:atemp>
            <ns3:hr>94</ns3:hr>
          </ns3:TrackPointExtension>
        </extensions>
      </trkpt>
      <trkpt lat="36.78920458070933818817138671875" lon="-118.55332891456782817840576171875">
        <ele>1569</ele>
        <time>2021-06-24T17:04:03.000Z</time>
        <extensions>
          <ns3:TrackPointExtension>
            <ns3:atemp>30.0</ns3:atemp>
            <ns3:hr>94</ns3:hr>
          </ns3:TrackPointExtension>
        </extensions>
      </trkpt>
      <trkpt lat="36.78920893929898738861083984375" lon="-118.55330192483961582183837890625">
        <ele>1569.199951171875</ele>
        <time>2021-06-24T17:04:06.000Z</time>
        <extensions>
          <ns3:TrackPointExtension>
            <ns3:atemp>30.0</ns3:atemp>
            <ns3:hr>97</ns3:hr>
          </ns3:TrackPointExtension>
        </extensions>
      </trkpt>
      <trkpt lat="36.78921212442219257354736328125" lon="-118.55329169891774654388427734375">
        <ele>1569.199951171875</ele>
        <time>2021-06-24T17:04:07.000Z</time>
        <extensions>
          <ns3:TrackPointExtension>
            <ns3:atemp>30.0</ns3:atemp>
            <ns3:hr>97</ns3:hr>
          </ns3:TrackPointExtension>
        </extensions>
      </trkpt>
      <trkpt lat="36.78920441307127475738525390625" lon="-118.55321760289371013641357421875">
        <ele>1569.800048828125</ele>
        <time>2021-06-24T17:04:11.000Z</time>
        <extensions>
          <ns3:TrackPointExtension>
            <ns3:atemp>30.0</ns3:atemp>
            <ns3:hr>98</ns3:hr>
          </ns3:TrackPointExtension>
        </extensions>
      </trkpt>
      <trkpt lat="36.78920592181384563446044921875" lon="-118.55317451991140842437744140625">
        <ele>1569.800048828125</ele>
        <time>2021-06-24T17:04:14.000Z</time>
        <extensions>
          <ns3:TrackPointExtension>
            <ns3:atemp>30.0</ns3:atemp>
            <ns3:hr>99</ns3:hr>
          </ns3:TrackPointExtension>
        </extensions>
      </trkpt>
      <trkpt lat="36.78921841084957122802734375" lon="-118.55314685963094234466552734375">
        <ele>1570</ele>
        <time>2021-06-24T17:04:16.000Z</time>
        <extensions>
          <ns3:TrackPointExtension>
            <ns3:atemp>30.0</ns3:atemp>
            <ns3:hr>102</ns3:hr>
          </ns3:TrackPointExtension>
        </extensions>
      </trkpt>
      <trkpt lat="36.78923157043755054473876953125" lon="-118.5531243123114109039306640625">
        <ele>1570</ele>
        <time>2021-06-24T17:04:18.000Z</time>
        <extensions>
          <ns3:TrackPointExtension>
            <ns3:atemp>30.0</ns3:atemp>
            <ns3:hr>105</ns3:hr>
          </ns3:TrackPointExtension>
        </extensions>
      </trkpt>
      <trkpt lat="36.7892329953610897064208984375" lon="-118.553119786083698272705078125">
        <ele>1570.199951171875</ele>
        <time>2021-06-24T17:04:19.000Z</time>
        <extensions>
          <ns3:TrackPointExtension>
            <ns3:atemp>30.0</ns3:atemp>
            <ns3:hr>106</ns3:hr>
          </ns3:TrackPointExtension>
        </extensions>
      </trkpt>
      <trkpt lat="36.78923408500850200653076171875" lon="-118.55311073362827301025390625">
        <ele>1570.199951171875</ele>
        <time>2021-06-24T17:04:20.000Z</time>
        <extensions>
          <ns3:TrackPointExtension>
            <ns3:atemp>30.0</ns3:atemp>
            <ns3:hr>107</ns3:hr>
          </ns3:TrackPointExtension>
        </extensions>
      </trkpt>
      <trkpt lat="36.7892712168395519256591796875" lon="-118.5530300997197628021240234375">
        <ele>1570.199951171875</ele>
        <time>2021-06-24T17:04:26.000Z</time>
        <extensions>
          <ns3:TrackPointExtension>
            <ns3:atemp>30.0</ns3:atemp>
            <ns3:hr>109</ns3:hr>
          </ns3:TrackPointExtension>
        </extensions>
      </trkpt>
      <trkpt lat="36.78925503976643085479736328125" lon="-118.55293563567101955413818359375">
        <ele>1570.5999755859375</ele>
        <time>2021-06-24T17:04:33.000Z</time>
        <extensions>
          <ns3:TrackPointExtension>
            <ns3:atemp>30.0</ns3:atemp>
            <ns3:hr>107</ns3:hr>
          </ns3:TrackPointExtension>
        </extensions>
      </trkpt>
      <trkpt lat="36.78924967534840106964111328125" lon="-118.55287201702594757080078125">
        <ele>1570.5999755859375</ele>
        <time>2021-06-24T17:04:38.000Z</time>
        <extensions>
          <ns3:TrackPointExtension>
            <ns3:atemp>30.0</ns3:atemp>
            <ns3:hr>103</ns3:hr>
          </ns3:TrackPointExtension>
        </extensions>
      </trkpt>
      <trkpt lat="36.78924514912068843841552734375" lon="-118.55285458266735076904296875">
        <ele>1570.800048828125</ele>
        <time>2021-06-24T17:04:39.000Z</time>
        <extensions>
          <ns3:TrackPointExtension>
            <ns3:atemp>30.0</ns3:atemp>
            <ns3:hr>108</ns3:hr>
          </ns3:TrackPointExtension>
        </extensions>
      </trkpt>
      <trkpt lat="36.78924716077744960784912109375" lon="-118.55283739976584911346435546875">
        <ele>1570.800048828125</ele>
        <time>2021-06-24T17:04:40.000Z</time>
        <extensions>
          <ns3:TrackPointExtension>
            <ns3:atemp>30.0</ns3:atemp>
            <ns3:hr>107</ns3:hr>
          </ns3:TrackPointExtension>
        </extensions>
      </trkpt>
      <trkpt lat="36.78924280218780040740966796875" lon="-118.55282465927302837371826171875">
        <ele>1570.800048828125</ele>
        <time>2021-06-24T17:04:43.000Z</time>
        <extensions>
          <ns3:TrackPointExtension>
            <ns3:atemp>30.0</ns3:atemp>
            <ns3:hr>104</ns3:hr>
          </ns3:TrackPointExtension>
        </extensions>
      </trkpt>
      <trkpt lat="36.7892417125403881072998046875" lon="-118.55282851494848728179931640625">
        <ele>1570.800048828125</ele>
        <time>2021-06-24T17:04:44.000Z</time>
        <extensions>
          <ns3:TrackPointExtension>
            <ns3:atemp>30.0</ns3:atemp>
            <ns3:hr>103</ns3:hr>
          </ns3:TrackPointExtension>
        </extensions>
      </trkpt>
      <trkpt lat="36.7892480827867984771728515625" lon="-118.5528342984616756439208984375">
        <ele>1570.800048828125</ele>
        <time>2021-06-24T17:04:47.000Z</time>
        <extensions>
          <ns3:TrackPointExtension>
            <ns3:atemp>30.0</ns3:atemp>
            <ns3:hr>100</ns3:hr>
          </ns3:TrackPointExtension>
        </extensions>
      </trkpt>
      <trkpt lat="36.7892487533390522003173828125" lon="-118.552826754748821258544921875">
        <ele>1571</ele>
        <time>2021-06-24T17:04:49.000Z</time>
        <extensions>
          <ns3:TrackPointExtension>
            <ns3:atemp>30.0</ns3:atemp>
            <ns3:hr>97</ns3:hr>
          </ns3:TrackPointExtension>
        </extensions>
      </trkpt>
      <trkpt lat="36.7892511002719402313232421875" lon="-118.55281242169439792633056640625">
        <ele>1571.199951171875</ele>
        <time>2021-06-24T17:04:52.000Z</time>
        <extensions>
          <ns3:TrackPointExtension>
            <ns3:atemp>30.0</ns3:atemp>
            <ns3:hr>94</ns3:hr>
          </ns3:TrackPointExtension>
        </extensions>
      </trkpt>
      <trkpt lat="36.78925202228128910064697265625" lon="-118.552809990942478179931640625">
        <ele>1571.4000244140625</ele>
        <time>2021-06-24T17:04:55.000Z</time>
        <extensions>
          <ns3:TrackPointExtension>
            <ns3:atemp>30.0</ns3:atemp>
            <ns3:hr>91</ns3:hr>
          </ns3:TrackPointExtension>
        </extensions>
      </trkpt>
      <trkpt lat="36.78924431093037128448486328125" lon="-118.55280789546668529510498046875">
        <ele>1571.4000244140625</ele>
        <time>2021-06-24T17:04:58.000Z</time>
        <extensions>
          <ns3:TrackPointExtension>
            <ns3:atemp>30.0</ns3:atemp>
            <ns3:hr>94</ns3:hr>
          </ns3:TrackPointExtension>
        </extensions>
      </trkpt>
      <trkpt lat="36.7891920916736125946044921875" lon="-118.55278207920491695404052734375">
        <ele>1571.5999755859375</ele>
        <time>2021-06-24T17:05:05.000Z</time>
        <extensions>
          <ns3:TrackPointExtension>
            <ns3:atemp>30.0</ns3:atemp>
            <ns3:hr>97</ns3:hr>
          </ns3:TrackPointExtension>
        </extensions>
      </trkpt>
      <trkpt lat="36.78918647579848766326904296875" lon="-118.552769087255001068115234375">
        <ele>1571.5999755859375</ele>
        <time>2021-06-24T17:05:07.000Z</time>
        <extensions>
          <ns3:TrackPointExtension>
            <ns3:atemp>30.0</ns3:atemp>
            <ns3:hr>96</ns3:hr>
          </ns3:TrackPointExtension>
        </extensions>
      </trkpt>
      <trkpt lat="36.789190582931041717529296875" lon="-118.55275559239089488983154296875">
        <ele>1571.199951171875</ele>
        <time>2021-06-24T17:05:14.000Z</time>
        <extensions>
          <ns3:TrackPointExtension>
            <ns3:atemp>30.0</ns3:atemp>
            <ns3:hr>94</ns3:hr>
          </ns3:TrackPointExtension>
        </extensions>
      </trkpt>
      <trkpt lat="36.7891721427440643310546875" lon="-118.55275274254381656646728515625">
        <ele>1571.4000244140625</ele>
        <time>2021-06-24T17:05:22.000Z</time>
        <extensions>
          <ns3:TrackPointExtension>
            <ns3:atemp>30.0</ns3:atemp>
            <ns3:hr>92</ns3:hr>
          </ns3:TrackPointExtension>
        </extensions>
      </trkpt>
      <trkpt lat="36.78916920907795429229736328125" lon="-118.552752323448657989501953125">
        <ele>1571.5999755859375</ele>
        <time>2021-06-24T17:05:34.000Z</time>
        <extensions>
          <ns3:TrackPointExtension>
            <ns3:atemp>30.0</ns3:atemp>
            <ns3:hr>91</ns3:hr>
          </ns3:TrackPointExtension>
        </extensions>
      </trkpt>
      <trkpt lat="36.78908555768430233001708984375" lon="-118.5527296923100948333740234375">
        <ele>1571.5999755859375</ele>
        <time>2021-06-24T17:05:45.000Z</time>
        <extensions>
          <ns3:TrackPointExtension>
            <ns3:atemp>30.0</ns3:atemp>
            <ns3:hr>93</ns3:hr>
          </ns3:TrackPointExtension>
        </extensions>
      </trkpt>
      <trkpt lat="36.7890325002372264862060546875" lon="-118.55272809974849224090576171875">
        <ele>1571.4000244140625</ele>
        <time>2021-06-24T17:05:48.000Z</time>
        <extensions>
          <ns3:TrackPointExtension>
            <ns3:atemp>30.0</ns3:atemp>
            <ns3:hr>92</ns3:hr>
          </ns3:TrackPointExtension>
        </extensions>
      </trkpt>
      <trkpt lat="36.788991428911685943603515625" lon="-118.5527179576456546783447265625">
        <ele>1571.4000244140625</ele>
        <time>2021-06-24T17:05:50.000Z</time>
        <extensions>
          <ns3:TrackPointExtension>
            <ns3:atemp>30.0</ns3:atemp>
            <ns3:hr>92</ns3:hr>
          </ns3:TrackPointExtension>
        </extensions>
      </trkpt>
      <trkpt lat="36.7889785207808017730712890625" lon="-118.55270865373313426971435546875">
        <ele>1571.4000244140625</ele>
        <time>2021-06-24T17:05:52.000Z</time>
        <extensions>
          <ns3:TrackPointExtension>
            <ns3:atemp>30.0</ns3:atemp>
            <ns3:hr>91</ns3:hr>
          </ns3:TrackPointExtension>
        </extensions>
      </trkpt>
      <trkpt lat="36.7889486812055110931396484375" lon="-118.55268987827003002166748046875">
        <ele>1570.5999755859375</ele>
        <time>2021-06-24T17:05:56.000Z</time>
        <extensions>
          <ns3:TrackPointExtension>
            <ns3:atemp>30.0</ns3:atemp>
            <ns3:hr>91</ns3:hr>
          </ns3:TrackPointExtension>
        </extensions>
      </trkpt>
      <trkpt lat="36.78889042697846889495849609375" lon="-118.55267663486301898956298828125">
        <ele>1569.800048828125</ele>
        <time>2021-06-24T17:06:02.000Z</time>
        <extensions>
          <ns3:TrackPointExtension>
            <ns3:atemp>30.0</ns3:atemp>
            <ns3:hr>90</ns3:hr>
          </ns3:TrackPointExtension>
        </extensions>
      </trkpt>
      <trkpt lat="36.78883426822721958160400390625" lon="-118.55269775725901126861572265625">
        <ele>1569.800048828125</ele>
        <time>2021-06-24T17:06:09.000Z</time>
        <extensions>
          <ns3:TrackPointExtension>
            <ns3:atemp>30.0</ns3:atemp>
            <ns3:hr>87</ns3:hr>
          </ns3:TrackPointExtension>
        </extensions>
      </trkpt>
      <trkpt lat="36.78881146945059299468994140625" lon="-118.5527394153177738189697265625">
        <ele>1569.800048828125</ele>
        <time>2021-06-24T17:06:11.000Z</time>
        <extensions>
          <ns3:TrackPointExtension>
            <ns3:atemp>30.0</ns3:atemp>
            <ns3:hr>89</ns3:hr>
          </ns3:TrackPointExtension>
        </extensions>
      </trkpt>
      <trkpt lat="36.78876578807830810546875" lon="-118.55276095680892467498779296875">
        <ele>1569.5999755859375</ele>
        <time>2021-06-24T17:06:15.000Z</time>
        <extensions>
          <ns3:TrackPointExtension>
            <ns3:atemp>30.0</ns3:atemp>
            <ns3:hr>91</ns3:hr>
          </ns3:TrackPointExtension>
        </extensions>
      </trkpt>
      <trkpt lat="36.78874894045293331146240234375" lon="-118.5527796484529972076416015625">
        <ele>1569.800048828125</ele>
        <time>2021-06-24T17:06:17.000Z</time>
        <extensions>
          <ns3:TrackPointExtension>
            <ns3:atemp>30.0</ns3:atemp>
            <ns3:hr>94</ns3:hr>
          </ns3:TrackPointExtension>
        </extensions>
      </trkpt>
      <trkpt lat="36.78873754106462001800537109375" lon="-118.5527917183935642242431640625">
        <ele>1569.800048828125</ele>
        <time>2021-06-24T17:06:19.000Z</time>
        <extensions>
          <ns3:TrackPointExtension>
            <ns3:atemp>30.0</ns3:atemp>
            <ns3:hr>91</ns3:hr>
          </ns3:TrackPointExtension>
        </extensions>
      </trkpt>
      <trkpt lat="36.788729913532733917236328125" lon="-118.55279364623129367828369140625">
        <ele>1569.800048828125</ele>
        <time>2021-06-24T17:06:20.000Z</time>
        <extensions>
          <ns3:TrackPointExtension>
            <ns3:atemp>30.0</ns3:atemp>
            <ns3:hr>90</ns3:hr>
          </ns3:TrackPointExtension>
        </extensions>
      </trkpt>
      <trkpt lat="36.788725219666957855224609375" lon="-118.55279582552611827850341796875">
        <ele>1569.800048828125</ele>
        <time>2021-06-24T17:06:21.000Z</time>
        <extensions>
          <ns3:TrackPointExtension>
            <ns3:atemp>30.0</ns3:atemp>
            <ns3:hr>90</ns3:hr>
          </ns3:TrackPointExtension>
        </extensions>
      </trkpt>
      <trkpt lat="36.78872932679951190948486328125" lon="-118.552799262106418609619140625">
        <ele>1569.800048828125</ele>
        <time>2021-06-24T17:06:24.000Z</time>
        <extensions>
          <ns3:TrackPointExtension>
            <ns3:atemp>30.0</ns3:atemp>
            <ns3:hr>87</ns3:hr>
          </ns3:TrackPointExtension>
        </extensions>
      </trkpt>
      <trkpt lat="36.78872882388532161712646484375" lon="-118.552798591554164886474609375">
        <ele>1569.800048828125</ele>
        <time>2021-06-24T17:06:26.000Z</time>
        <extensions>
          <ns3:TrackPointExtension>
            <ns3:atemp>30.0</ns3:atemp>
            <ns3:hr>90</ns3:hr>
          </ns3:TrackPointExtension>
        </extensions>
      </trkpt>
      <trkpt lat="36.7887257225811481475830078125" lon="-118.55280051939189434051513671875">
        <ele>1569.5999755859375</ele>
        <time>2021-06-24T17:06:27.000Z</time>
        <extensions>
          <ns3:TrackPointExtension>
            <ns3:atemp>30.0</ns3:atemp>
            <ns3:hr>90</ns3:hr>
          </ns3:TrackPointExtension>
        </extensions>
      </trkpt>
      <trkpt lat="36.78869135677814483642578125" lon="-118.5528175346553325653076171875">
        <ele>1569.5999755859375</ele>
        <time>2021-06-24T17:06:33.000Z</time>
        <extensions>
          <ns3:TrackPointExtension>
            <ns3:atemp>30.0</ns3:atemp>
            <ns3:hr>92</ns3:hr>
          </ns3:TrackPointExtension>
        </extensions>
      </trkpt>
      <trkpt lat="36.78865514695644378662109375" lon="-118.5528272576630115509033203125">
        <ele>1569.800048828125</ele>
        <time>2021-06-24T17:06:38.000Z</time>
        <extensions>
          <ns3:TrackPointExtension>
            <ns3:atemp>30.0</ns3:atemp>
            <ns3:hr>92</ns3:hr>
          </ns3:TrackPointExtension>
        </extensions>
      </trkpt>
      <trkpt lat="36.7886102199554443359375" lon="-118.5528269223868846893310546875">
        <ele>1569.5999755859375</ele>
        <time>2021-06-24T17:06:44.000Z</time>
        <extensions>
          <ns3:TrackPointExtension>
            <ns3:atemp>30.0</ns3:atemp>
            <ns3:hr>92</ns3:hr>
          </ns3:TrackPointExtension>
        </extensions>
      </trkpt>
      <trkpt lat="36.78859638981521129608154296875" lon="-118.55281569063663482666015625">
        <ele>1569.5999755859375</ele>
        <time>2021-06-24T17:06:48.000Z</time>
        <extensions>
          <ns3:TrackPointExtension>
            <ns3:atemp>30.0</ns3:atemp>
            <ns3:hr>95</ns3:hr>
          </ns3:TrackPointExtension>
        </extensions>
      </trkpt>
      <trkpt lat="36.78860208950936794281005859375" lon="-118.55278761126101016998291015625">
        <ele>1569.4000244140625</ele>
        <time>2021-06-24T17:06:50.000Z</time>
        <extensions>
          <ns3:TrackPointExtension>
            <ns3:atemp>30.0</ns3:atemp>
            <ns3:hr>96</ns3:hr>
          </ns3:TrackPointExtension>
        </extensions>
      </trkpt>
      <trkpt lat="36.7886395566165447235107421875" lon="-118.5527622140944004058837890625">
        <ele>1569.5999755859375</ele>
        <time>2021-06-24T17:06:57.000Z</time>
        <extensions>
          <ns3:TrackPointExtension>
            <ns3:atemp>30.0</ns3:atemp>
            <ns3:hr>96</ns3:hr>
          </ns3:TrackPointExtension>
        </extensions>
      </trkpt>
      <trkpt lat="36.78871281445026397705078125" lon="-118.55274184606969356536865234375">
        <ele>1569.800048828125</ele>
        <time>2021-06-24T17:07:04.000Z</time>
        <extensions>
          <ns3:TrackPointExtension>
            <ns3:atemp>30.0</ns3:atemp>
            <ns3:hr>94</ns3:hr>
          </ns3:TrackPointExtension>
        </extensions>
      </trkpt>
      <trkpt lat="36.78871541284024715423583984375" lon="-118.5527078993618488311767578125">
        <ele>1569.5999755859375</ele>
        <time>2021-06-24T17:07:07.000Z</time>
        <extensions>
          <ns3:TrackPointExtension>
            <ns3:atemp>30.0</ns3:atemp>
            <ns3:hr>91</ns3:hr>
          </ns3:TrackPointExtension>
        </extensions>
      </trkpt>
      <trkpt lat="36.788707114756107330322265625" lon="-118.55268954299390316009521484375">
        <ele>1569.800048828125</ele>
        <time>2021-06-24T17:07:09.000Z</time>
        <extensions>
          <ns3:TrackPointExtension>
            <ns3:atemp>30.0</ns3:atemp>
            <ns3:hr>89</ns3:hr>
          </ns3:TrackPointExtension>
        </extensions>
      </trkpt>
      <trkpt lat="36.78869940340518951416015625" lon="-118.55270563624799251556396484375">
        <ele>1569.800048828125</ele>
        <time>2021-06-24T17:07:11.000Z</time>
        <extensions>
          <ns3:TrackPointExtension>
            <ns3:atemp>30.0</ns3:atemp>
            <ns3:hr>86</ns3:hr>
          </ns3:TrackPointExtension>
        </extensions>
      </trkpt>
      <trkpt lat="36.78874156437814235687255859375" lon="-118.5527203045785427093505859375">
        <ele>1569.800048828125</ele>
        <time>2021-06-24T17:07:14.000Z</time>
        <extensions>
          <ns3:TrackPointExtension>
            <ns3:atemp>30.0</ns3:atemp>
            <ns3:hr>83</ns3:hr>
          </ns3:TrackPointExtension>
        </extensions>
      </trkpt>
      <trkpt lat="36.7887751758098602294921875" lon="-118.5527172870934009552001953125">
        <ele>1569.199951171875</ele>
        <time>2021-06-24T17:07:16.000Z</time>
        <extensions>
          <ns3:TrackPointExtension>
            <ns3:atemp>30.0</ns3:atemp>
            <ns3:hr>82</ns3:hr>
          </ns3:TrackPointExtension>
        </extensions>
      </trkpt>
      <trkpt lat="36.78880191408097743988037109375" lon="-118.5527363978326320648193359375">
        <ele>1569</ele>
        <time>2021-06-24T17:07:19.000Z</time>
        <extensions>
          <ns3:TrackPointExtension>
            <ns3:atemp>30.0</ns3:atemp>
            <ns3:hr>82</ns3:hr>
          </ns3:TrackPointExtension>
        </extensions>
      </trkpt>
      <trkpt lat="36.78882236592471599578857421875" lon="-118.55276967398822307586669921875">
        <ele>1568.4000244140625</ele>
        <time>2021-06-24T17:07:22.000Z</time>
        <extensions>
          <ns3:TrackPointExtension>
            <ns3:atemp>30.0</ns3:atemp>
            <ns3:hr>82</ns3:hr>
          </ns3:TrackPointExtension>
        </extensions>
      </trkpt>
      <trkpt lat="36.7888449132442474365234375" lon="-118.5528141818940639495849609375">
        <ele>1569.4000244140625</ele>
        <time>2021-06-24T17:07:26.000Z</time>
        <extensions>
          <ns3:TrackPointExtension>
            <ns3:atemp>30.0</ns3:atemp>
            <ns3:hr>84</ns3:hr>
          </ns3:TrackPointExtension>
        </extensions>
      </trkpt>
      <trkpt lat="36.78896963596343994140625" lon="-118.5526703484356403350830078125">
        <ele>1571.800048828125</ele>
        <time>2021-06-24T17:15:30.000Z</time>
        <extensions>
          <ns3:TrackPointExtension>
            <ns3:atemp>30.0</ns3:atemp>
            <ns3:hr>76</ns3:hr>
          </ns3:TrackPointExtension>
        </extensions>
      </trkpt>
      <trkpt lat="36.788963936269283294677734375" lon="-118.55266137979924678802490234375">
        <ele>1572</ele>
        <time>2021-06-24T17:15:31.000Z</time>
        <extensions>
          <ns3:TrackPointExtension>
            <ns3:atemp>30.0</ns3:atemp>
            <ns3:hr>77</ns3:hr>
          </ns3:TrackPointExtension>
        </extensions>
      </trkpt>
      <trkpt lat="36.78881230764091014862060546875" lon="-118.55250849388539791107177734375">
        <ele>1572.199951171875</ele>
        <time>2021-06-24T17:15:39.000Z</time>
        <extensions>
          <ns3:TrackPointExtension>
            <ns3:atemp>30.0</ns3:atemp>
            <ns3:hr>77</ns3:hr>
          </ns3:TrackPointExtension>
        </extensions>
      </trkpt>
      <trkpt lat="36.78879654966294765472412109375" lon="-118.55250178836286067962646484375">
        <ele>1572.199951171875</ele>
        <time>2021-06-24T17:15:40.000Z</time>
        <extensions>
          <ns3:TrackPointExtension>
            <ns3:atemp>30.0</ns3:atemp>
            <ns3:hr>79</ns3:hr>
          </ns3:TrackPointExtension>
        </extensions>
      </trkpt>
      <trkpt lat="36.7887817136943340301513671875" lon="-118.552499525249004364013671875">
        <ele>1572.199951171875</ele>
        <time>2021-06-24T17:15:41.000Z</time>
        <extensions>
          <ns3:TrackPointExtension>
            <ns3:atemp>30.0</ns3:atemp>
            <ns3:hr>76</ns3:hr>
          </ns3:TrackPointExtension>
        </extensions>
      </trkpt>
      <trkpt lat="36.78876671008765697479248046875" lon="-118.55250413529574871063232421875">
        <ele>1572.4000244140625</ele>
        <time>2021-06-24T17:15:44.000Z</time>
        <extensions>
          <ns3:TrackPointExtension>
            <ns3:atemp>30.0</ns3:atemp>
            <ns3:hr>76</ns3:hr>
          </ns3:TrackPointExtension>
        </extensions>
      </trkpt>
      <trkpt lat="36.7887644469738006591796875" lon="-118.552494831383228302001953125">
        <ele>1572.5999755859375</ele>
        <time>2021-06-24T17:15:47.000Z</time>
        <extensions>
          <ns3:TrackPointExtension>
            <ns3:atemp>30.0</ns3:atemp>
            <ns3:hr>76</ns3:hr>
          </ns3:TrackPointExtension>
        </extensions>
      </trkpt>
      <trkpt lat="36.78875011391937732696533203125" lon="-118.552472703158855438232421875">
        <ele>1572.800048828125</ele>
        <time>2021-06-24T17:15:51.000Z</time>
        <extensions>
          <ns3:TrackPointExtension>
            <ns3:atemp>31.0</ns3:atemp>
            <ns3:hr>79</ns3:hr>
          </ns3:TrackPointExtension>
        </extensions>
      </trkpt>
      <trkpt lat="36.7887216992676258087158203125" lon="-118.55244562961161136627197265625">
        <ele>1572.800048828125</ele>
        <time>2021-06-24T17:15:54.000Z</time>
        <extensions>
          <ns3:TrackPointExtension>
            <ns3:atemp>31.0</ns3:atemp>
            <ns3:hr>82</ns3:hr>
          </ns3:TrackPointExtension>
        </extensions>
      </trkpt>
      <trkpt lat="36.7887136526405811309814453125" lon="-118.5524408519268035888671875">
        <ele>1572.800048828125</ele>
        <time>2021-06-24T17:15:55.000Z</time>
        <extensions>
          <ns3:TrackPointExtension>
            <ns3:atemp>31.0</ns3:atemp>
            <ns3:hr>84</ns3:hr>
          </ns3:TrackPointExtension>
        </extensions>
      </trkpt>
      <trkpt lat="36.78867601789534091949462890625" lon="-118.55246390216052532196044921875">
        <ele>1572.800048828125</ele>
        <time>2021-06-24T17:15:59.000Z</time>
        <extensions>
          <ns3:TrackPointExtension>
            <ns3:atemp>31.0</ns3:atemp>
            <ns3:hr>89</ns3:hr>
          </ns3:TrackPointExtension>
        </extensions>
      </trkpt>
      <trkpt lat="36.78865824826061725616455078125" lon="-118.5524730384349822998046875">
        <ele>1572.800048828125</ele>
        <time>2021-06-24T17:16:00.000Z</time>
        <extensions>
          <ns3:TrackPointExtension>
            <ns3:atemp>31.0</ns3:atemp>
            <ns3:hr>86</ns3:hr>
          </ns3:TrackPointExtension>
        </extensions>
      </trkpt>
      <trkpt lat="36.78858884610235691070556640625" lon="-118.552476055920124053955078125">
        <ele>1573</ele>
        <time>2021-06-24T17:16:04.000Z</time>
        <extensions>
          <ns3:TrackPointExtension>
            <ns3:atemp>31.0</ns3:atemp>
            <ns3:hr>91</ns3:hr>
          </ns3:TrackPointExtension>
        </extensions>
      </trkpt>
      <trkpt lat="36.7885745130479335784912109375" lon="-118.552480749785900115966796875">
        <ele>1573</ele>
        <time>2021-06-24T17:16:05.000Z</time>
        <extensions>
          <ns3:TrackPointExtension>
            <ns3:atemp>31.0</ns3:atemp>
            <ns3:hr>94</ns3:hr>
          </ns3:TrackPointExtension>
        </extensions>
      </trkpt>
      <trkpt lat="36.788532435894012451171875" lon="-118.55246256105601787567138671875">
        <ele>1573.199951171875</ele>
        <time>2021-06-24T17:16:08.000Z</time>
        <extensions>
          <ns3:TrackPointExtension>
            <ns3:atemp>31.0</ns3:atemp>
            <ns3:hr>97</ns3:hr>
          </ns3:TrackPointExtension>
        </extensions>
      </trkpt>
      <trkpt lat="36.78851592354476451873779296875" lon="-118.55247194878756999969482421875">
        <ele>1573.199951171875</ele>
        <time>2021-06-24T17:16:09.000Z</time>
        <extensions>
          <ns3:TrackPointExtension>
            <ns3:atemp>31.0</ns3:atemp>
            <ns3:hr>97</ns3:hr>
          </ns3:TrackPointExtension>
        </extensions>
      </trkpt>
      <trkpt lat="36.78846982307732105255126953125" lon="-118.5524504072964191436767578125">
        <ele>1573.4000244140625</ele>
        <time>2021-06-24T17:16:11.000Z</time>
        <extensions>
          <ns3:TrackPointExtension>
            <ns3:atemp>31.0</ns3:atemp>
            <ns3:hr>100</ns3:hr>
          </ns3:TrackPointExtension>
        </extensions>
      </trkpt>
      <trkpt lat="36.78842204622924327850341796875" lon="-118.55242811143398284912109375">
        <ele>1573.4000244140625</ele>
        <time>2021-06-24T17:16:13.000Z</time>
        <extensions>
          <ns3:TrackPointExtension>
            <ns3:atemp>31.0</ns3:atemp>
            <ns3:hr>97</ns3:hr>
          </ns3:TrackPointExtension>
        </extensions>
      </trkpt>
      <trkpt lat="36.7884209565818309783935546875" lon="-118.55243070982396602630615234375">
        <ele>1573.5999755859375</ele>
        <time>2021-06-24T17:16:14.000Z</time>
        <extensions>
          <ns3:TrackPointExtension>
            <ns3:atemp>31.0</ns3:atemp>
            <ns3:hr>100</ns3:hr>
          </ns3:TrackPointExtension>
        </extensions>
      </trkpt>
      <trkpt lat="36.788418106734752655029296875" lon="-118.552431128919124603271484375">
        <ele>1573.5999755859375</ele>
        <time>2021-06-24T17:16:15.000Z</time>
        <extensions>
          <ns3:TrackPointExtension>
            <ns3:atemp>31.0</ns3:atemp>
            <ns3:hr>97</ns3:hr>
          </ns3:TrackPointExtension>
        </extensions>
      </trkpt>
      <trkpt lat="36.78841265849769115447998046875" lon="-118.55242853052914142608642578125">
        <ele>1573.5999755859375</ele>
        <time>2021-06-24T17:16:16.000Z</time>
        <extensions>
          <ns3:TrackPointExtension>
            <ns3:atemp>31.0</ns3:atemp>
            <ns3:hr>97</ns3:hr>
          </ns3:TrackPointExtension>
        </extensions>
      </trkpt>
      <trkpt lat="36.788399331271648406982421875" lon="-118.55242920108139514923095703125">
        <ele>1574</ele>
        <time>2021-06-24T17:16:19.000Z</time>
        <extensions>
          <ns3:TrackPointExtension>
            <ns3:atemp>31.0</ns3:atemp>
            <ns3:hr>95</ns3:hr>
          </ns3:TrackPointExtension>
        </extensions>
      </trkpt>
      <trkpt lat="36.78838298656046390533447265625" lon="-118.5524262674152851104736328125">
        <ele>1574</ele>
        <time>2021-06-24T17:16:22.000Z</time>
        <extensions>
          <ns3:TrackPointExtension>
            <ns3:atemp>31.0</ns3:atemp>
            <ns3:hr>93</ns3:hr>
          </ns3:TrackPointExtension>
        </extensions>
      </trkpt>
      <trkpt lat="36.78836890496313571929931640625" lon="-118.55242098681628704071044921875">
        <ele>1574.199951171875</ele>
        <time>2021-06-24T17:16:25.000Z</time>
        <extensions>
          <ns3:TrackPointExtension>
            <ns3:atemp>31.0</ns3:atemp>
            <ns3:hr>90</ns3:hr>
          </ns3:TrackPointExtension>
        </extensions>
      </trkpt>
      <trkpt lat="36.7883545719087123870849609375" lon="-118.552402965724468231201171875">
        <ele>1574.4000244140625</ele>
        <time>2021-06-24T17:16:28.000Z</time>
        <extensions>
          <ns3:TrackPointExtension>
            <ns3:atemp>31.0</ns3:atemp>
            <ns3:hr>91</ns3:hr>
          </ns3:TrackPointExtension>
        </extensions>
      </trkpt>
      <trkpt lat="36.78829480893909931182861328125" lon="-118.55235225521028041839599609375">
        <ele>1574.800048828125</ele>
        <time>2021-06-24T17:16:34.000Z</time>
        <extensions>
          <ns3:TrackPointExtension>
            <ns3:atemp>31.0</ns3:atemp>
            <ns3:hr>92</ns3:hr>
          </ns3:TrackPointExtension>
        </extensions>
      </trkpt>
      <trkpt lat="36.7882630415260791778564453125" lon="-118.552321828901767730712890625">
        <ele>1575.199951171875</ele>
        <time>2021-06-24T17:16:38.000Z</time>
        <extensions>
          <ns3:TrackPointExtension>
            <ns3:atemp>31.0</ns3:atemp>
            <ns3:hr>93</ns3:hr>
          </ns3:TrackPointExtension>
        </extensions>
      </trkpt>
      <trkpt lat="36.78825683891773223876953125" lon="-118.55231344699859619140625">
        <ele>1575.4000244140625</ele>
        <time>2021-06-24T17:16:41.000Z</time>
        <extensions>
          <ns3:TrackPointExtension>
            <ns3:atemp>31.0</ns3:atemp>
            <ns3:hr>92</ns3:hr>
          </ns3:TrackPointExtension>
        </extensions>
      </trkpt>
      <trkpt lat="36.78817595355212688446044921875" lon="-118.552235662937164306640625">
        <ele>1575.800048828125</ele>
        <time>2021-06-24T17:16:48.000Z</time>
        <extensions>
          <ns3:TrackPointExtension>
            <ns3:atemp>31.0</ns3:atemp>
            <ns3:hr>90</ns3:hr>
          </ns3:TrackPointExtension>
        </extensions>
      </trkpt>
      <trkpt lat="36.7880940623581409454345703125" lon="-118.5521808452904224395751953125">
        <ele>1576.199951171875</ele>
        <time>2021-06-24T17:16:55.000Z</time>
        <extensions>
          <ns3:TrackPointExtension>
            <ns3:atemp>31.0</ns3:atemp>
            <ns3:hr>92</ns3:hr>
          </ns3:TrackPointExtension>
        </extensions>
      </trkpt>
      <trkpt lat="36.788081489503383636474609375" lon="-118.55217154137790203094482421875">
        <ele>1576.199951171875</ele>
        <time>2021-06-24T17:16:56.000Z</time>
        <extensions>
          <ns3:TrackPointExtension>
            <ns3:atemp>31.0</ns3:atemp>
            <ns3:hr>92</ns3:hr>
          </ns3:TrackPointExtension>
        </extensions>
      </trkpt>
      <trkpt lat="36.78807822056114673614501953125" lon="-118.55215947143733501434326171875">
        <ele>1576.199951171875</ele>
        <time>2021-06-24T17:16:59.000Z</time>
        <extensions>
          <ns3:TrackPointExtension>
            <ns3:atemp>31.0</ns3:atemp>
            <ns3:hr>91</ns3:hr>
          </ns3:TrackPointExtension>
        </extensions>
      </trkpt>
      <trkpt lat="36.78805910982191562652587890625" lon="-118.55213197879493236541748046875">
        <ele>1576.199951171875</ele>
        <time>2021-06-24T17:17:01.000Z</time>
        <extensions>
          <ns3:TrackPointExtension>
            <ns3:atemp>31.0</ns3:atemp>
            <ns3:hr>92</ns3:hr>
          </ns3:TrackPointExtension>
        </extensions>
      </trkpt>
      <trkpt lat="36.78803622722625732421875" lon="-118.55210549198091030120849609375">
        <ele>1576.199951171875</ele>
        <time>2021-06-24T17:17:03.000Z</time>
        <extensions>
          <ns3:TrackPointExtension>
            <ns3:atemp>31.0</ns3:atemp>
            <ns3:hr>92</ns3:hr>
          </ns3:TrackPointExtension>
        </extensions>
      </trkpt>
      <trkpt lat="36.788002364337444305419921875" lon="-118.55205905623733997344970703125">
        <ele>1576.4000244140625</ele>
        <time>2021-06-24T17:17:07.000Z</time>
        <extensions>
          <ns3:TrackPointExtension>
            <ns3:atemp>31.0</ns3:atemp>
            <ns3:hr>93</ns3:hr>
          </ns3:TrackPointExtension>
        </extensions>
      </trkpt>
      <trkpt lat="36.7879834212362766265869140625" lon="-118.55204648338258266448974609375">
        <ele>1576.5999755859375</ele>
        <time>2021-06-24T17:17:09.000Z</time>
        <extensions>
          <ns3:TrackPointExtension>
            <ns3:atemp>31.0</ns3:atemp>
            <ns3:hr>93</ns3:hr>
          </ns3:TrackPointExtension>
        </extensions>
      </trkpt>
      <trkpt lat="36.78796581923961639404296875" lon="-118.5520331561565399169921875">
        <ele>1576.800048828125</ele>
        <time>2021-06-24T17:17:12.000Z</time>
        <extensions>
          <ns3:TrackPointExtension>
            <ns3:atemp>31.0</ns3:atemp>
            <ns3:hr>93</ns3:hr>
          </ns3:TrackPointExtension>
        </extensions>
      </trkpt>
      <trkpt lat="36.787961460649967193603515625" lon="-118.55203206650912761688232421875">
        <ele>1577</ele>
        <time>2021-06-24T17:17:13.000Z</time>
        <extensions>
          <ns3:TrackPointExtension>
            <ns3:atemp>31.0</ns3:atemp>
            <ns3:hr>92</ns3:hr>
          </ns3:TrackPointExtension>
        </extensions>
      </trkpt>
      <trkpt lat="36.78795265965163707733154296875" lon="-118.55202904902398586273193359375">
        <ele>1577.199951171875</ele>
        <time>2021-06-24T17:17:14.000Z</time>
        <extensions>
          <ns3:TrackPointExtension>
            <ns3:atemp>31.0</ns3:atemp>
            <ns3:hr>92</ns3:hr>
          </ns3:TrackPointExtension>
        </extensions>
      </trkpt>
      <trkpt lat="36.7879007756710052490234375" lon="-118.55197708122432231903076171875">
        <ele>1577.5999755859375</ele>
        <time>2021-06-24T17:17:19.000Z</time>
        <extensions>
          <ns3:TrackPointExtension>
            <ns3:atemp>31.0</ns3:atemp>
            <ns3:hr>92</ns3:hr>
          </ns3:TrackPointExtension>
        </extensions>
      </trkpt>
      <trkpt lat="36.787835061550140380859375" lon="-118.5519178211688995361328125">
        <ele>1577.800048828125</ele>
        <time>2021-06-24T17:17:23.000Z</time>
        <extensions>
          <ns3:TrackPointExtension>
            <ns3:atemp>31.0</ns3:atemp>
            <ns3:hr>93</ns3:hr>
          </ns3:TrackPointExtension>
        </extensions>
      </trkpt>
      <trkpt lat="36.787843443453311920166015625" lon="-118.55190818198025226593017578125">
        <ele>1577.800048828125</ele>
        <time>2021-06-24T17:17:24.000Z</time>
        <extensions>
          <ns3:TrackPointExtension>
            <ns3:atemp>31.0</ns3:atemp>
            <ns3:hr>93</ns3:hr>
          </ns3:TrackPointExtension>
        </extensions>
      </trkpt>
      <trkpt lat="36.78784914314746856689453125" lon="-118.55191572569310665130615234375">
        <ele>1577.800048828125</ele>
        <time>2021-06-24T17:17:27.000Z</time>
        <extensions>
          <ns3:TrackPointExtension>
            <ns3:atemp>31.0</ns3:atemp>
            <ns3:hr>93</ns3:hr>
          </ns3:TrackPointExtension>
        </extensions>
      </trkpt>
      <trkpt lat="36.78784838877618312835693359375" lon="-118.551921509206295013427734375">
        <ele>1577.800048828125</ele>
        <time>2021-06-24T17:17:29.000Z</time>
        <extensions>
          <ns3:TrackPointExtension>
            <ns3:atemp>31.0</ns3:atemp>
            <ns3:hr>93</ns3:hr>
          </ns3:TrackPointExtension>
        </extensions>
      </trkpt>
      <trkpt lat="36.7878426052629947662353515625" lon="-118.55190281756222248077392578125">
        <ele>1577.5999755859375</ele>
        <time>2021-06-24T17:17:34.000Z</time>
        <extensions>
          <ns3:TrackPointExtension>
            <ns3:atemp>31.0</ns3:atemp>
            <ns3:hr>92</ns3:hr>
          </ns3:TrackPointExtension>
        </extensions>
      </trkpt>
      <trkpt lat="36.7878325469791889190673828125" lon="-118.5518844611942768096923828125">
        <ele>1577</ele>
        <time>2021-06-24T17:17:39.000Z</time>
        <extensions>
          <ns3:TrackPointExtension>
            <ns3:atemp>31.0</ns3:atemp>
            <ns3:hr>91</ns3:hr>
          </ns3:TrackPointExtension>
        </extensions>
      </trkpt>
      <trkpt lat="36.78782626055181026458740234375" lon="-118.55187155306339263916015625">
        <ele>1576.800048828125</ele>
        <time>2021-06-24T17:17:41.000Z</time>
        <extensions>
          <ns3:TrackPointExtension>
            <ns3:atemp>31.0</ns3:atemp>
            <ns3:hr>90</ns3:hr>
          </ns3:TrackPointExtension>
        </extensions>
      </trkpt>
      <trkpt lat="36.78782902657985687255859375" lon="-118.55184766463935375213623046875">
        <ele>1577</ele>
        <time>2021-06-24T17:17:44.000Z</time>
        <extensions>
          <ns3:TrackPointExtension>
            <ns3:atemp>31.0</ns3:atemp>
            <ns3:hr>93</ns3:hr>
          </ns3:TrackPointExtension>
        </extensions>
      </trkpt>
      <trkpt lat="36.78783095441758632659912109375" lon="-118.55184146203100681304931640625">
        <ele>1577</ele>
        <time>2021-06-24T17:17:45.000Z</time>
        <extensions>
          <ns3:TrackPointExtension>
            <ns3:atemp>31.0</ns3:atemp>
            <ns3:hr>92</ns3:hr>
          </ns3:TrackPointExtension>
        </extensions>
      </trkpt>
      <trkpt lat="36.7878291942179203033447265625" lon="-118.55181924998760223388671875">
        <ele>1577.4000244140625</ele>
        <time>2021-06-24T17:17:48.000Z</time>
        <extensions>
          <ns3:TrackPointExtension>
            <ns3:atemp>31.0</ns3:atemp>
            <ns3:hr>91</ns3:hr>
          </ns3:TrackPointExtension>
        </extensions>
      </trkpt>
      <trkpt lat="36.78778753615915775299072265625" lon="-118.551733084022998809814453125">
        <ele>1577.5999755859375</ele>
        <time>2021-06-24T17:17:52.000Z</time>
        <extensions>
          <ns3:TrackPointExtension>
            <ns3:atemp>31.0</ns3:atemp>
            <ns3:hr>91</ns3:hr>
          </ns3:TrackPointExtension>
        </extensions>
      </trkpt>
      <trkpt lat="36.78778200410306453704833984375" lon="-118.5517111234366893768310546875">
        <ele>1578</ele>
        <time>2021-06-24T17:17:54.000Z</time>
        <extensions>
          <ns3:TrackPointExtension>
            <ns3:atemp>31.0</ns3:atemp>
            <ns3:hr>89</ns3:hr>
          </ns3:TrackPointExtension>
        </extensions>
      </trkpt>
      <trkpt lat="36.787767671048641204833984375" lon="-118.55167835019528865814208984375">
        <ele>1578.199951171875</ele>
        <time>2021-06-24T17:17:58.000Z</time>
        <extensions>
          <ns3:TrackPointExtension>
            <ns3:atemp>31.0</ns3:atemp>
            <ns3:hr>88</ns3:hr>
          </ns3:TrackPointExtension>
        </extensions>
      </trkpt>
      <trkpt lat="36.78775266744196414947509765625" lon="-118.55165856890380382537841796875">
        <ele>1578.4000244140625</ele>
        <time>2021-06-24T17:18:01.000Z</time>
        <extensions>
          <ns3:TrackPointExtension>
            <ns3:atemp>31.0</ns3:atemp>
            <ns3:hr>88</ns3:hr>
          </ns3:TrackPointExtension>
        </extensions>
      </trkpt>
      <trkpt lat="36.78774193860590457916259765625" lon="-118.5516487620770931243896484375">
        <ele>1578.4000244140625</ele>
        <time>2021-06-24T17:18:03.000Z</time>
        <extensions>
          <ns3:TrackPointExtension>
            <ns3:atemp>31.0</ns3:atemp>
            <ns3:hr>90</ns3:hr>
          </ns3:TrackPointExtension>
        </extensions>
      </trkpt>
      <trkpt lat="36.78772282786667346954345703125" lon="-118.55157910846173763275146484375">
        <ele>1578.800048828125</ele>
        <time>2021-06-24T17:18:09.000Z</time>
        <extensions>
          <ns3:TrackPointExtension>
            <ns3:atemp>31.0</ns3:atemp>
            <ns3:hr>87</ns3:hr>
          </ns3:TrackPointExtension>
        </extensions>
      </trkpt>
      <trkpt lat="36.78774462081491947174072265625" lon="-118.5515401326119899749755859375">
        <ele>1579.199951171875</ele>
        <time>2021-06-24T17:18:12.000Z</time>
        <extensions>
          <ns3:TrackPointExtension>
            <ns3:atemp>31.0</ns3:atemp>
            <ns3:hr>84</ns3:hr>
          </ns3:TrackPointExtension>
        </extensions>
      </trkpt>
      <trkpt lat="36.787756942212581634521484375" lon="-118.55153367854654788970947265625">
        <ele>1579.4000244140625</ele>
        <time>2021-06-24T17:18:14.000Z</time>
        <extensions>
          <ns3:TrackPointExtension>
            <ns3:atemp>31.0</ns3:atemp>
            <ns3:hr>84</ns3:hr>
          </ns3:TrackPointExtension>
        </extensions>
      </trkpt>
      <trkpt lat="36.787776052951812744140625" lon="-118.5515283979475498199462890625">
        <ele>1579.5999755859375</ele>
        <time>2021-06-24T17:18:17.000Z</time>
        <extensions>
          <ns3:TrackPointExtension>
            <ns3:atemp>31.0</ns3:atemp>
            <ns3:hr>83</ns3:hr>
          </ns3:TrackPointExtension>
        </extensions>
      </trkpt>
      <trkpt lat="36.78781754337251186370849609375" lon="-118.5515032522380352020263671875">
        <ele>1579.800048828125</ele>
        <time>2021-06-24T17:18:20.000Z</time>
        <extensions>
          <ns3:TrackPointExtension>
            <ns3:atemp>31.0</ns3:atemp>
            <ns3:hr>79</ns3:hr>
          </ns3:TrackPointExtension>
        </extensions>
      </trkpt>
      <trkpt lat="36.78784377872943878173828125" lon="-118.5514698922634124755859375">
        <ele>1579.800048828125</ele>
        <time>2021-06-24T17:18:26.000Z</time>
        <extensions>
          <ns3:TrackPointExtension>
            <ns3:atemp>31.0</ns3:atemp>
            <ns3:hr>78</ns3:hr>
          </ns3:TrackPointExtension>
        </extensions>
      </trkpt>
      <trkpt lat="36.78784771822392940521240234375" lon="-118.55139235965907573699951171875">
        <ele>1579.199951171875</ele>
        <time>2021-06-24T17:18:32.000Z</time>
        <extensions>
          <ns3:TrackPointExtension>
            <ns3:atemp>31.0</ns3:atemp>
            <ns3:hr>78</ns3:hr>
          </ns3:TrackPointExtension>
        </extensions>
      </trkpt>
      <trkpt lat="36.78783975541591644287109375" lon="-118.55134843848645687103271484375">
        <ele>1578.4000244140625</ele>
        <time>2021-06-24T17:18:37.000Z</time>
        <extensions>
          <ns3:TrackPointExtension>
            <ns3:atemp>31.0</ns3:atemp>
            <ns3:hr>77</ns3:hr>
          </ns3:TrackPointExtension>
        </extensions>
      </trkpt>
      <trkpt lat="36.7878498136997222900390625" lon="-118.5513292439281940460205078125">
        <ele>1578.4000244140625</ele>
        <time>2021-06-24T17:18:39.000Z</time>
        <extensions>
          <ns3:TrackPointExtension>
            <ns3:atemp>31.0</ns3:atemp>
            <ns3:hr>76</ns3:hr>
          </ns3:TrackPointExtension>
        </extensions>
      </trkpt>
      <trkpt lat="36.78785475902259349822998046875" lon="-118.55132195167243480682373046875">
        <ele>1578.5999755859375</ele>
        <time>2021-06-24T17:18:40.000Z</time>
        <extensions>
          <ns3:TrackPointExtension>
            <ns3:atemp>31.0</ns3:atemp>
            <ns3:hr>75</ns3:hr>
          </ns3:TrackPointExtension>
        </extensions>
      </trkpt>
      <trkpt lat="36.7878583632409572601318359375" lon="-118.55130535550415515899658203125">
        <ele>1578.5999755859375</ele>
        <time>2021-06-24T17:18:42.000Z</time>
        <extensions>
          <ns3:TrackPointExtension>
            <ns3:atemp>31.0</ns3:atemp>
            <ns3:hr>74</ns3:hr>
          </ns3:TrackPointExtension>
        </extensions>
      </trkpt>
      <trkpt lat="36.787858195602893829345703125" lon="-118.5512695647776126861572265625">
        <ele>1579</ele>
        <time>2021-06-24T17:18:45.000Z</time>
        <extensions>
          <ns3:TrackPointExtension>
            <ns3:atemp>31.0</ns3:atemp>
            <ns3:hr>74</ns3:hr>
          </ns3:TrackPointExtension>
        </extensions>
      </trkpt>
      <trkpt lat="36.78785911761224269866943359375" lon="-118.551259338855743408203125">
        <ele>1579</ele>
        <time>2021-06-24T17:18:46.000Z</time>
        <extensions>
          <ns3:TrackPointExtension>
            <ns3:atemp>31.0</ns3:atemp>
            <ns3:hr>74</ns3:hr>
          </ns3:TrackPointExtension>
        </extensions>
      </trkpt>
      <trkpt lat="36.7878637276589870452880859375" lon="-118.55121600441634654998779296875">
        <ele>1579.4000244140625</ele>
        <time>2021-06-24T17:18:50.000Z</time>
        <extensions>
          <ns3:TrackPointExtension>
            <ns3:atemp>31.0</ns3:atemp>
            <ns3:hr>72</ns3:hr>
          </ns3:TrackPointExtension>
        </extensions>
      </trkpt>
      <trkpt lat="36.7878563515841960906982421875" lon="-118.55118214152753353118896484375">
        <ele>1579.5999755859375</ele>
        <time>2021-06-24T17:18:53.000Z</time>
        <extensions>
          <ns3:TrackPointExtension>
            <ns3:atemp>31.0</ns3:atemp>
            <ns3:hr>69</ns3:hr>
          </ns3:TrackPointExtension>
        </extensions>
      </trkpt>
      <trkpt lat="36.78786498494446277618408203125" lon="-118.55112564750015735626220703125">
        <ele>1579.4000244140625</ele>
        <time>2021-06-24T17:18:58.000Z</time>
        <extensions>
          <ns3:TrackPointExtension>
            <ns3:atemp>31.0</ns3:atemp>
            <ns3:hr>69</ns3:hr>
          </ns3:TrackPointExtension>
        </extensions>
      </trkpt>
      <trkpt lat="36.78788267076015472412109375" lon="-118.5511099733412265777587890625">
        <ele>1579.199951171875</ele>
        <time>2021-06-24T17:18:59.000Z</time>
        <extensions>
          <ns3:TrackPointExtension>
            <ns3:atemp>31.0</ns3:atemp>
            <ns3:hr>69</ns3:hr>
          </ns3:TrackPointExtension>
        </extensions>
      </trkpt>
      <trkpt lat="36.78788828663527965545654296875" lon="-118.5510811395943164825439453125">
        <ele>1579.199951171875</ele>
        <time>2021-06-24T17:19:01.000Z</time>
        <extensions>
          <ns3:TrackPointExtension>
            <ns3:atemp>31.0</ns3:atemp>
            <ns3:hr>70</ns3:hr>
          </ns3:TrackPointExtension>
        </extensions>
      </trkpt>
      <trkpt lat="36.7879026196897029876708984375" lon="-118.55099069885909557342529296875">
        <ele>1579.199951171875</ele>
        <time>2021-06-24T17:19:07.000Z</time>
        <extensions>
          <ns3:TrackPointExtension>
            <ns3:atemp>31.0</ns3:atemp>
            <ns3:hr>70</ns3:hr>
          </ns3:TrackPointExtension>
        </extensions>
      </trkpt>
      <trkpt lat="36.7879203893244266510009765625" lon="-118.550935126841068267822265625">
        <ele>1579.199951171875</ele>
        <time>2021-06-24T17:19:11.000Z</time>
        <extensions>
          <ns3:TrackPointExtension>
            <ns3:atemp>31.0</ns3:atemp>
            <ns3:hr>73</ns3:hr>
          </ns3:TrackPointExtension>
        </extensions>
      </trkpt>
      <trkpt lat="36.78791661746799945831298828125" lon="-118.55091157369315624237060546875">
        <ele>1579.4000244140625</ele>
        <time>2021-06-24T17:19:13.000Z</time>
        <extensions>
          <ns3:TrackPointExtension>
            <ns3:atemp>31.0</ns3:atemp>
            <ns3:hr>74</ns3:hr>
          </ns3:TrackPointExtension>
        </extensions>
      </trkpt>
      <trkpt lat="36.78790857084095478057861328125" lon="-118.55088307522237300872802734375">
        <ele>1579.800048828125</ele>
        <time>2021-06-24T17:19:15.000Z</time>
        <extensions>
          <ns3:TrackPointExtension>
            <ns3:atemp>31.0</ns3:atemp>
            <ns3:hr>73</ns3:hr>
          </ns3:TrackPointExtension>
        </extensions>
      </trkpt>
      <trkpt lat="36.78788191638886928558349609375" lon="-118.55081467889249324798583984375">
        <ele>1580.4000244140625</ele>
        <time>2021-06-24T17:19:19.000Z</time>
        <extensions>
          <ns3:TrackPointExtension>
            <ns3:atemp>31.0</ns3:atemp>
            <ns3:hr>74</ns3:hr>
          </ns3:TrackPointExtension>
        </extensions>
      </trkpt>
      <trkpt lat="36.78787269629538059234619140625" lon="-118.5507780499756336212158203125">
        <ele>1580.800048828125</ele>
        <time>2021-06-24T17:19:21.000Z</time>
        <extensions>
          <ns3:TrackPointExtension>
            <ns3:atemp>31.0</ns3:atemp>
            <ns3:hr>77</ns3:hr>
          </ns3:TrackPointExtension>
        </extensions>
      </trkpt>
      <trkpt lat="36.7878637276589870452880859375" lon="-118.55074678547680377960205078125">
        <ele>1581</ele>
        <time>2021-06-24T17:19:23.000Z</time>
        <extensions>
          <ns3:TrackPointExtension>
            <ns3:atemp>31.0</ns3:atemp>
            <ns3:hr>77</ns3:hr>
          </ns3:TrackPointExtension>
        </extensions>
      </trkpt>
      <trkpt lat="36.78786129690706729888916015625" lon="-118.55072490870952606201171875">
        <ele>1581</ele>
        <time>2021-06-24T17:19:25.000Z</time>
        <extensions>
          <ns3:TrackPointExtension>
            <ns3:atemp>31.0</ns3:atemp>
            <ns3:hr>80</ns3:hr>
          </ns3:TrackPointExtension>
        </extensions>
      </trkpt>
      <trkpt lat="36.7878543399274349212646484375" lon="-118.5506881959736347198486328125">
        <ele>1581.199951171875</ele>
        <time>2021-06-24T17:19:28.000Z</time>
        <extensions>
          <ns3:TrackPointExtension>
            <ns3:atemp>31.0</ns3:atemp>
            <ns3:hr>84</ns3:hr>
          </ns3:TrackPointExtension>
        </extensions>
      </trkpt>
      <trkpt lat="36.787844784557819366455078125" lon="-118.55066078715026378631591796875">
        <ele>1581.199951171875</ele>
        <time>2021-06-24T17:19:30.000Z</time>
        <extensions>
          <ns3:TrackPointExtension>
            <ns3:atemp>31.0</ns3:atemp>
            <ns3:hr>85</ns3:hr>
          </ns3:TrackPointExtension>
        </extensions>
      </trkpt>
      <trkpt lat="36.7878310382366180419921875" lon="-118.55058032087981700897216796875">
        <ele>1580.5999755859375</ele>
        <time>2021-06-24T17:19:36.000Z</time>
        <extensions>
          <ns3:TrackPointExtension>
            <ns3:atemp>31.0</ns3:atemp>
            <ns3:hr>87</ns3:hr>
          </ns3:TrackPointExtension>
        </extensions>
      </trkpt>
      <trkpt lat="36.78782843984663486480712890625" lon="-118.550553582608699798583984375">
        <ele>1580.4000244140625</ele>
        <time>2021-06-24T17:19:38.000Z</time>
        <extensions>
          <ns3:TrackPointExtension>
            <ns3:atemp>31.0</ns3:atemp>
            <ns3:hr>87</ns3:hr>
          </ns3:TrackPointExtension>
        </extensions>
      </trkpt>
      <trkpt lat="36.7878390848636627197265625" lon="-118.55041670612990856170654296875">
        <ele>1580.5999755859375</ele>
        <time>2021-06-24T17:19:48.000Z</time>
        <extensions>
          <ns3:TrackPointExtension>
            <ns3:atemp>31.0</ns3:atemp>
            <ns3:hr>84</ns3:hr>
          </ns3:TrackPointExtension>
        </extensions>
      </trkpt>
      <trkpt lat="36.78784034214913845062255859375" lon="-118.55040849186480045318603515625">
        <ele>1580.5999755859375</ele>
        <time>2021-06-24T17:19:49.000Z</time>
        <extensions>
          <ns3:TrackPointExtension>
            <ns3:atemp>31.0</ns3:atemp>
            <ns3:hr>83</ns3:hr>
          </ns3:TrackPointExtension>
        </extensions>
      </trkpt>
      <trkpt lat="36.78782642818987369537353515625" lon="-118.55036607943475246429443359375">
        <ele>1581</ele>
        <time>2021-06-24T17:19:53.000Z</time>
        <extensions>
          <ns3:TrackPointExtension>
            <ns3:atemp>31.0</ns3:atemp>
            <ns3:hr>82</ns3:hr>
          </ns3:TrackPointExtension>
        </extensions>
      </trkpt>
      <trkpt lat="36.78782257251441478729248046875" lon="-118.550329618155956268310546875">
        <ele>1581.4000244140625</ele>
        <time>2021-06-24T17:19:56.000Z</time>
        <extensions>
          <ns3:TrackPointExtension>
            <ns3:atemp>31.0</ns3:atemp>
            <ns3:hr>79</ns3:hr>
          </ns3:TrackPointExtension>
        </extensions>
      </trkpt>
      <trkpt lat="36.78779558278620243072509765625" lon="-118.550282679498195648193359375">
        <ele>1581.5999755859375</ele>
        <time>2021-06-24T17:20:00.000Z</time>
        <extensions>
          <ns3:TrackPointExtension>
            <ns3:atemp>31.0</ns3:atemp>
            <ns3:hr>83</ns3:hr>
          </ns3:TrackPointExtension>
        </extensions>
      </trkpt>
      <trkpt lat="36.787791810929775238037109375" lon="-118.55027505196630954742431640625">
        <ele>1581.5999755859375</ele>
        <time>2021-06-24T17:20:01.000Z</time>
        <extensions>
          <ns3:TrackPointExtension>
            <ns3:atemp>31.0</ns3:atemp>
            <ns3:hr>82</ns3:hr>
          </ns3:TrackPointExtension>
        </extensions>
      </trkpt>
      <trkpt lat="36.78774143569171428680419921875" lon="-118.5502265207469463348388671875">
        <ele>1581.5999755859375</ele>
        <time>2021-06-24T17:20:06.000Z</time>
        <extensions>
          <ns3:TrackPointExtension>
            <ns3:atemp>31.0</ns3:atemp>
            <ns3:hr>83</ns3:hr>
          </ns3:TrackPointExtension>
        </extensions>
      </trkpt>
      <trkpt lat="36.78771561942994594573974609375" lon="-118.550205565989017486572265625">
        <ele>1581.5999755859375</ele>
        <time>2021-06-24T17:20:08.000Z</time>
        <extensions>
          <ns3:TrackPointExtension>
            <ns3:atemp>31.0</ns3:atemp>
            <ns3:hr>85</ns3:hr>
          </ns3:TrackPointExtension>
        </extensions>
      </trkpt>
      <trkpt lat="36.78767739795148372650146484375" lon="-118.55018251575529575347900390625">
        <ele>1582.199951171875</ele>
        <time>2021-06-24T17:20:11.000Z</time>
        <extensions>
          <ns3:TrackPointExtension>
            <ns3:atemp>31.0</ns3:atemp>
            <ns3:hr>82</ns3:hr>
          </ns3:TrackPointExtension>
        </extensions>
      </trkpt>
      <trkpt lat="36.78766809403896331787109375" lon="-118.55017773807048797607421875">
        <ele>1582.4000244140625</ele>
        <time>2021-06-24T17:20:12.000Z</time>
        <extensions>
          <ns3:TrackPointExtension>
            <ns3:atemp>31.0</ns3:atemp>
            <ns3:hr>79</ns3:hr>
          </ns3:TrackPointExtension>
        </extensions>
      </trkpt>
      <trkpt lat="36.7876639030873775482177734375" lon="-118.55017128400504589080810546875">
        <ele>1582.4000244140625</ele>
        <time>2021-06-24T17:20:13.000Z</time>
        <extensions>
          <ns3:TrackPointExtension>
            <ns3:atemp>31.0</ns3:atemp>
            <ns3:hr>81</ns3:hr>
          </ns3:TrackPointExtension>
        </extensions>
      </trkpt>
      <trkpt lat="36.7876593768596649169921875" lon="-118.55017161928117275238037109375">
        <ele>1582.800048828125</ele>
        <time>2021-06-24T17:20:14.000Z</time>
        <extensions>
          <ns3:TrackPointExtension>
            <ns3:atemp>31.0</ns3:atemp>
            <ns3:hr>81</ns3:hr>
          </ns3:TrackPointExtension>
        </extensions>
      </trkpt>
      <trkpt lat="36.78764521144330501556396484375" lon="-118.55016189627349376678466796875">
        <ele>1582.800048828125</ele>
        <time>2021-06-24T17:20:15.000Z</time>
        <extensions>
          <ns3:TrackPointExtension>
            <ns3:atemp>31.0</ns3:atemp>
            <ns3:hr>84</ns3:hr>
          </ns3:TrackPointExtension>
        </extensions>
      </trkpt>
      <trkpt lat="36.78762190975248813629150390625" lon="-118.55013255961239337921142578125">
        <ele>1583.4000244140625</ele>
        <time>2021-06-24T17:20:21.000Z</time>
        <extensions>
          <ns3:TrackPointExtension>
            <ns3:atemp>31.0</ns3:atemp>
            <ns3:hr>85</ns3:hr>
          </ns3:TrackPointExtension>
        </extensions>
      </trkpt>
      <trkpt lat="36.78760263137519359588623046875" lon="-118.5501085035502910614013671875">
        <ele>1583.4000244140625</ele>
        <time>2021-06-24T17:20:23.000Z</time>
        <extensions>
          <ns3:TrackPointExtension>
            <ns3:atemp>31.0</ns3:atemp>
            <ns3:hr>86</ns3:hr>
          </ns3:TrackPointExtension>
        </extensions>
      </trkpt>
      <trkpt lat="36.7875844426453113555908203125" lon="-118.5500900633633136749267578125">
        <ele>1583.4000244140625</ele>
        <time>2021-06-24T17:20:27.000Z</time>
        <extensions>
          <ns3:TrackPointExtension>
            <ns3:atemp>31.0</ns3:atemp>
            <ns3:hr>88</ns3:hr>
          </ns3:TrackPointExtension>
        </extensions>
      </trkpt>
      <trkpt lat="36.78758201189339160919189453125" lon="-118.55008788406848907470703125">
        <ele>1583.4000244140625</ele>
        <time>2021-06-24T17:20:28.000Z</time>
        <extensions>
          <ns3:TrackPointExtension>
            <ns3:atemp>31.0</ns3:atemp>
            <ns3:hr>89</ns3:hr>
          </ns3:TrackPointExtension>
        </extensions>
      </trkpt>
      <trkpt lat="36.78758117370307445526123046875" lon="-118.5500793345272541046142578125">
        <ele>1583.4000244140625</ele>
        <time>2021-06-24T17:20:29.000Z</time>
        <extensions>
          <ns3:TrackPointExtension>
            <ns3:atemp>31.0</ns3:atemp>
            <ns3:hr>89</ns3:hr>
          </ns3:TrackPointExtension>
        </extensions>
      </trkpt>
      <trkpt lat="36.7875998653471469879150390625" lon="-118.55007790960371494293212890625">
        <ele>1583.199951171875</ele>
        <time>2021-06-24T17:20:35.000Z</time>
        <extensions>
          <ns3:TrackPointExtension>
            <ns3:atemp>31.0</ns3:atemp>
            <ns3:hr>90</ns3:hr>
          </ns3:TrackPointExtension>
        </extensions>
      </trkpt>
      <trkpt lat="36.78760011680424213409423828125" lon="-118.5500451363623142242431640625">
        <ele>1583.199951171875</ele>
        <time>2021-06-24T17:20:42.000Z</time>
        <extensions>
          <ns3:TrackPointExtension>
            <ns3:atemp>31.0</ns3:atemp>
            <ns3:hr>89</ns3:hr>
          </ns3:TrackPointExtension>
        </extensions>
      </trkpt>
      <trkpt lat="36.78757212124764919281005859375" lon="-118.550003059208393096923828125">
        <ele>1583</ele>
        <time>2021-06-24T17:20:50.000Z</time>
        <extensions>
          <ns3:TrackPointExtension>
            <ns3:atemp>31.0</ns3:atemp>
            <ns3:hr>91</ns3:hr>
          </ns3:TrackPointExtension>
        </extensions>
      </trkpt>
      <trkpt lat="36.78755602799355983734130859375" lon="-118.5499857924878597259521484375">
        <ele>1582.5999755859375</ele>
        <time>2021-06-24T17:20:56.000Z</time>
        <extensions>
          <ns3:TrackPointExtension>
            <ns3:atemp>31.0</ns3:atemp>
            <ns3:hr>88</ns3:hr>
          </ns3:TrackPointExtension>
        </extensions>
      </trkpt>
      <trkpt lat="36.78754965774714946746826171875" lon="-118.5499733872711658477783203125">
        <ele>1582.5999755859375</ele>
        <time>2021-06-24T17:20:57.000Z</time>
        <extensions>
          <ns3:TrackPointExtension>
            <ns3:atemp>31.0</ns3:atemp>
            <ns3:hr>90</ns3:hr>
          </ns3:TrackPointExtension>
        </extensions>
      </trkpt>
      <trkpt lat="36.7875378392636775970458984375" lon="-118.549928963184356689453125">
        <ele>1582.4000244140625</ele>
        <time>2021-06-24T17:21:02.000Z</time>
        <extensions>
          <ns3:TrackPointExtension>
            <ns3:atemp>31.0</ns3:atemp>
            <ns3:hr>88</ns3:hr>
          </ns3:TrackPointExtension>
        </extensions>
      </trkpt>
      <trkpt lat="36.78751663304865360260009765625" lon="-118.54986517690122127532958984375">
        <ele>1582.5999755859375</ele>
        <time>2021-06-24T17:21:08.000Z</time>
        <extensions>
          <ns3:TrackPointExtension>
            <ns3:atemp>31.0</ns3:atemp>
            <ns3:hr>88</ns3:hr>
          </ns3:TrackPointExtension>
        </extensions>
      </trkpt>
      <trkpt lat="36.78750338964164257049560546875" lon="-118.54984003119170665740966796875">
        <ele>1582.5999755859375</ele>
        <time>2021-06-24T17:21:10.000Z</time>
        <extensions>
          <ns3:TrackPointExtension>
            <ns3:atemp>31.0</ns3:atemp>
            <ns3:hr>87</ns3:hr>
          </ns3:TrackPointExtension>
        </extensions>
      </trkpt>
      <trkpt lat="36.7874982766807079315185546875" lon="-118.549826703965663909912109375">
        <ele>1582.5999755859375</ele>
        <time>2021-06-24T17:21:12.000Z</time>
        <extensions>
          <ns3:TrackPointExtension>
            <ns3:atemp>31.0</ns3:atemp>
            <ns3:hr>86</ns3:hr>
          </ns3:TrackPointExtension>
        </extensions>
      </trkpt>
      <trkpt lat="36.787492744624614715576171875" lon="-118.5498015582561492919921875">
        <ele>1582.5999755859375</ele>
        <time>2021-06-24T17:21:14.000Z</time>
        <extensions>
          <ns3:TrackPointExtension>
            <ns3:atemp>31.0</ns3:atemp>
            <ns3:hr>86</ns3:hr>
          </ns3:TrackPointExtension>
        </extensions>
      </trkpt>
      <trkpt lat="36.78748243488371372222900390625" lon="-118.54977649636566638946533203125">
        <ele>1582.800048828125</ele>
        <time>2021-06-24T17:21:16.000Z</time>
        <extensions>
          <ns3:TrackPointExtension>
            <ns3:atemp>31.0</ns3:atemp>
            <ns3:hr>86</ns3:hr>
          </ns3:TrackPointExtension>
        </extensions>
      </trkpt>
      <trkpt lat="36.78743583150207996368408203125" lon="-118.54971799068152904510498046875">
        <ele>1583.4000244140625</ele>
        <time>2021-06-24T17:21:23.000Z</time>
        <extensions>
          <ns3:TrackPointExtension>
            <ns3:atemp>31.0</ns3:atemp>
            <ns3:hr>84</ns3:hr>
          </ns3:TrackPointExtension>
        </extensions>
      </trkpt>
      <trkpt lat="36.787410266697406768798828125" lon="-118.5496156476438045501708984375">
        <ele>1583.199951171875</ele>
        <time>2021-06-24T17:21:29.000Z</time>
        <extensions>
          <ns3:TrackPointExtension>
            <ns3:atemp>31.0</ns3:atemp>
            <ns3:hr>85</ns3:hr>
          </ns3:TrackPointExtension>
        </extensions>
      </trkpt>
      <trkpt lat="36.78740146569907665252685546875" lon="-118.549608774483203887939453125">
        <ele>1583.199951171875</ele>
        <time>2021-06-24T17:21:31.000Z</time>
        <extensions>
          <ns3:TrackPointExtension>
            <ns3:atemp>31.0</ns3:atemp>
            <ns3:hr>89</ns3:hr>
          </ns3:TrackPointExtension>
        </extensions>
      </trkpt>
      <trkpt lat="36.78738252259790897369384765625" lon="-118.5495874844491481781005859375">
        <ele>1583.5999755859375</ele>
        <time>2021-06-24T17:21:34.000Z</time>
        <extensions>
          <ns3:TrackPointExtension>
            <ns3:atemp>31.0</ns3:atemp>
            <ns3:hr>89</ns3:hr>
          </ns3:TrackPointExtension>
        </extensions>
      </trkpt>
      <trkpt lat="36.787370704114437103271484375" lon="-118.54958019219338893890380859375">
        <ele>1583.5999755859375</ele>
        <time>2021-06-24T17:21:35.000Z</time>
        <extensions>
          <ns3:TrackPointExtension>
            <ns3:atemp>31.0</ns3:atemp>
            <ns3:hr>91</ns3:hr>
          </ns3:TrackPointExtension>
        </extensions>
      </trkpt>
      <trkpt lat="36.7873551137745380401611328125" lon="-118.54956745170056819915771484375">
        <ele>1583.5999755859375</ele>
        <time>2021-06-24T17:21:36.000Z</time>
        <extensions>
          <ns3:TrackPointExtension>
            <ns3:atemp>31.0</ns3:atemp>
            <ns3:hr>94</ns3:hr>
          </ns3:TrackPointExtension>
        </extensions>
      </trkpt>
      <trkpt lat="36.78734832443296909332275390625" lon="-118.54956342838704586029052734375">
        <ele>1583.5999755859375</ele>
        <time>2021-06-24T17:21:37.000Z</time>
        <extensions>
          <ns3:TrackPointExtension>
            <ns3:atemp>31.0</ns3:atemp>
            <ns3:hr>96</ns3:hr>
          </ns3:TrackPointExtension>
        </extensions>
      </trkpt>
      <trkpt lat="36.7873279564082622528076171875" lon="-118.5495596565306186676025390625">
        <ele>1583.5999755859375</ele>
        <time>2021-06-24T17:21:39.000Z</time>
        <extensions>
          <ns3:TrackPointExtension>
            <ns3:atemp>31.0</ns3:atemp>
            <ns3:hr>97</ns3:hr>
          </ns3:TrackPointExtension>
        </extensions>
      </trkpt>
      <trkpt lat="36.78731739521026611328125" lon="-118.5495613329112529754638671875">
        <ele>1584</ele>
        <time>2021-06-24T17:21:40.000Z</time>
        <extensions>
          <ns3:TrackPointExtension>
            <ns3:atemp>31.0</ns3:atemp>
            <ns3:hr>97</ns3:hr>
          </ns3:TrackPointExtension>
        </extensions>
      </trkpt>
      <trkpt lat="36.78729384206235408782958984375" lon="-118.5495663620531558990478515625">
        <ele>1584.199951171875</ele>
        <time>2021-06-24T17:21:42.000Z</time>
        <extensions>
          <ns3:TrackPointExtension>
            <ns3:atemp>31.0</ns3:atemp>
            <ns3:hr>99</ns3:hr>
          </ns3:TrackPointExtension>
        </extensions>
      </trkpt>
      <trkpt lat="36.78725427947938442230224609375" lon="-118.5495747439563274383544921875">
        <ele>1584.4000244140625</ele>
        <time>2021-06-24T17:21:45.000Z</time>
        <extensions>
          <ns3:TrackPointExtension>
            <ns3:atemp>31.0</ns3:atemp>
            <ns3:hr>100</ns3:hr>
          </ns3:TrackPointExtension>
        </extensions>
      </trkpt>
      <trkpt lat="36.78722645156085491180419921875" lon="-118.54957289993762969970703125">
        <ele>1584.5999755859375</ele>
        <time>2021-06-24T17:21:47.000Z</time>
        <extensions>
          <ns3:TrackPointExtension>
            <ns3:atemp>31.0</ns3:atemp>
            <ns3:hr>103</ns3:hr>
          </ns3:TrackPointExtension>
        </extensions>
      </trkpt>
      <trkpt lat="36.7871871404349803924560546875" lon="-118.5495690442621707916259765625">
        <ele>1584.800048828125</ele>
        <time>2021-06-24T17:21:50.000Z</time>
        <extensions>
          <ns3:TrackPointExtension>
            <ns3:atemp>31.0</ns3:atemp>
            <ns3:hr>102</ns3:hr>
          </ns3:TrackPointExtension>
        </extensions>
      </trkpt>
      <trkpt lat="36.78717297501862049102783203125" lon="-118.5495670326054096221923828125">
        <ele>1585</ele>
        <time>2021-06-24T17:21:51.000Z</time>
        <extensions>
          <ns3:TrackPointExtension>
            <ns3:atemp>31.0</ns3:atemp>
            <ns3:hr>103</ns3:hr>
          </ns3:TrackPointExtension>
        </extensions>
      </trkpt>
      <trkpt lat="36.78712486289441585540771484375" lon="-118.54955948889255523681640625">
        <ele>1585.5999755859375</ele>
        <time>2021-06-24T17:21:56.000Z</time>
        <extensions>
          <ns3:TrackPointExtension>
            <ns3:atemp>31.0</ns3:atemp>
            <ns3:hr>104</ns3:hr>
          </ns3:TrackPointExtension>
        </extensions>
      </trkpt>
      <trkpt lat="36.7870801873505115509033203125" lon="-118.54955085553228855133056640625">
        <ele>1585.5999755859375</ele>
        <time>2021-06-24T17:22:00.000Z</time>
        <extensions>
          <ns3:TrackPointExtension>
            <ns3:atemp>31.0</ns3:atemp>
            <ns3:hr>107</ns3:hr>
          </ns3:TrackPointExtension>
        </extensions>
      </trkpt>
      <trkpt lat="36.787054874002933502197265625" lon="-118.5495563037693500518798828125">
        <ele>1586</ele>
        <time>2021-06-24T17:22:02.000Z</time>
        <extensions>
          <ns3:TrackPointExtension>
            <ns3:atemp>31.0</ns3:atemp>
            <ns3:hr>107</ns3:hr>
          </ns3:TrackPointExtension>
        </extensions>
      </trkpt>
      <trkpt lat="36.78704339079558849334716796875" lon="-118.54956845752894878387451171875">
        <ele>1586</ele>
        <time>2021-06-24T17:22:04.000Z</time>
        <extensions>
          <ns3:TrackPointExtension>
            <ns3:atemp>31.0</ns3:atemp>
            <ns3:hr>108</ns3:hr>
          </ns3:TrackPointExtension>
        </extensions>
      </trkpt>
      <trkpt lat="36.78700290620326995849609375" lon="-118.549596704542636871337890625">
        <ele>1586.199951171875</ele>
        <time>2021-06-24T17:22:08.000Z</time>
        <extensions>
          <ns3:TrackPointExtension>
            <ns3:atemp>31.0</ns3:atemp>
            <ns3:hr>107</ns3:hr>
          </ns3:TrackPointExtension>
        </extensions>
      </trkpt>
      <trkpt lat="36.7869705520570278167724609375" lon="-118.54958740063011646270751953125">
        <ele>1586.5999755859375</ele>
        <time>2021-06-24T17:22:12.000Z</time>
        <extensions>
          <ns3:TrackPointExtension>
            <ns3:atemp>31.0</ns3:atemp>
            <ns3:hr>108</ns3:hr>
          </ns3:TrackPointExtension>
        </extensions>
      </trkpt>
      <trkpt lat="36.7869380302727222442626953125" lon="-118.5496183298528194427490234375">
        <ele>1587</ele>
        <time>2021-06-24T17:22:17.000Z</time>
        <extensions>
          <ns3:TrackPointExtension>
            <ns3:atemp>31.0</ns3:atemp>
            <ns3:hr>106</ns3:hr>
          </ns3:TrackPointExtension>
        </extensions>
      </trkpt>
      <trkpt lat="36.78693710826337337493896484375" lon="-118.5496310703456401824951171875">
        <ele>1587.199951171875</ele>
        <time>2021-06-24T17:22:19.000Z</time>
        <extensions>
          <ns3:TrackPointExtension>
            <ns3:atemp>31.0</ns3:atemp>
            <ns3:hr>104</ns3:hr>
          </ns3:TrackPointExtension>
        </extensions>
      </trkpt>
      <trkpt lat="36.78690458647906780242919921875" lon="-118.54963098652660846710205078125">
        <ele>1587.4000244140625</ele>
        <time>2021-06-24T17:22:23.000Z</time>
        <extensions>
          <ns3:TrackPointExtension>
            <ns3:atemp>31.0</ns3:atemp>
            <ns3:hr>105</ns3:hr>
          </ns3:TrackPointExtension>
        </extensions>
      </trkpt>
      <trkpt lat="36.7868920974433422088623046875" lon="-118.54963065125048160552978515625">
        <ele>1587.5999755859375</ele>
        <time>2021-06-24T17:22:25.000Z</time>
        <extensions>
          <ns3:TrackPointExtension>
            <ns3:atemp>31.0</ns3:atemp>
            <ns3:hr>105</ns3:hr>
          </ns3:TrackPointExtension>
        </extensions>
      </trkpt>
      <trkpt lat="36.78688111715018749237060546875" lon="-118.54963735677301883697509765625">
        <ele>1587.800048828125</ele>
        <time>2021-06-24T17:22:27.000Z</time>
        <extensions>
          <ns3:TrackPointExtension>
            <ns3:atemp>31.0</ns3:atemp>
            <ns3:hr>104</ns3:hr>
          </ns3:TrackPointExtension>
        </extensions>
      </trkpt>
      <trkpt lat="36.7868582345545291900634765625" lon="-118.5496314056217670440673828125">
        <ele>1588</ele>
        <time>2021-06-24T17:22:29.000Z</time>
        <extensions>
          <ns3:TrackPointExtension>
            <ns3:atemp>31.0</ns3:atemp>
            <ns3:hr>103</ns3:hr>
          </ns3:TrackPointExtension>
        </extensions>
      </trkpt>
      <trkpt lat="36.7868260480463504791259765625" lon="-118.54962998069822788238525390625">
        <ele>1588.199951171875</ele>
        <time>2021-06-24T17:22:32.000Z</time>
        <extensions>
          <ns3:TrackPointExtension>
            <ns3:atemp>31.0</ns3:atemp>
            <ns3:hr>102</ns3:hr>
          </ns3:TrackPointExtension>
        </extensions>
      </trkpt>
      <trkpt lat="36.78680115379393100738525390625" lon="-118.54963182471692562103271484375">
        <ele>1588.5999755859375</ele>
        <time>2021-06-24T17:22:35.000Z</time>
        <extensions>
          <ns3:TrackPointExtension>
            <ns3:atemp>31.0</ns3:atemp>
            <ns3:hr>100</ns3:hr>
          </ns3:TrackPointExtension>
        </extensions>
      </trkpt>
      <trkpt lat="36.7867677100002765655517578125" lon="-118.5496421344578266143798828125">
        <ele>1589</ele>
        <time>2021-06-24T17:22:40.000Z</time>
        <extensions>
          <ns3:TrackPointExtension>
            <ns3:atemp>31.0</ns3:atemp>
            <ns3:hr>100</ns3:hr>
          </ns3:TrackPointExtension>
        </extensions>
      </trkpt>
      <trkpt lat="36.78672051988542079925537109375" lon="-118.54963081888854503631591796875">
        <ele>1589.4000244140625</ele>
        <time>2021-06-24T17:22:43.000Z</time>
        <extensions>
          <ns3:TrackPointExtension>
            <ns3:atemp>31.0</ns3:atemp>
            <ns3:hr>100</ns3:hr>
          </ns3:TrackPointExtension>
        </extensions>
      </trkpt>
      <trkpt lat="36.78670459426939487457275390625" lon="-118.5496314056217670440673828125">
        <ele>1589.4000244140625</ele>
        <time>2021-06-24T17:22:44.000Z</time>
        <extensions>
          <ns3:TrackPointExtension>
            <ns3:atemp>31.0</ns3:atemp>
            <ns3:hr>101</ns3:hr>
          </ns3:TrackPointExtension>
        </extensions>
      </trkpt>
      <trkpt lat="36.78669235669076442718505859375" lon="-118.54963333345949649810791015625">
        <ele>1589.800048828125</ele>
        <time>2021-06-24T17:22:45.000Z</time>
        <extensions>
          <ns3:TrackPointExtension>
            <ns3:atemp>31.0</ns3:atemp>
            <ns3:hr>101</ns3:hr>
          </ns3:TrackPointExtension>
        </extensions>
      </trkpt>
      <trkpt lat="36.78666318766772747039794921875" lon="-118.5496381111443042755126953125">
        <ele>1589.800048828125</ele>
        <time>2021-06-24T17:22:47.000Z</time>
        <extensions>
          <ns3:TrackPointExtension>
            <ns3:atemp>31.0</ns3:atemp>
            <ns3:hr>104</ns3:hr>
          </ns3:TrackPointExtension>
        </extensions>
      </trkpt>
      <trkpt lat="36.78660132922232151031494140625" lon="-118.5496545396745204925537109375">
        <ele>1589.800048828125</ele>
        <time>2021-06-24T17:22:51.000Z</time>
        <extensions>
          <ns3:TrackPointExtension>
            <ns3:atemp>31.0</ns3:atemp>
            <ns3:hr>105</ns3:hr>
          </ns3:TrackPointExtension>
        </extensions>
      </trkpt>
      <trkpt lat="36.786579452455043792724609375" lon="-118.54967356659471988677978515625">
        <ele>1590.4000244140625</ele>
        <time>2021-06-24T17:22:53.000Z</time>
        <extensions>
          <ns3:TrackPointExtension>
            <ns3:atemp>31.0</ns3:atemp>
            <ns3:hr>107</ns3:hr>
          </ns3:TrackPointExtension>
        </extensions>
      </trkpt>
      <trkpt lat="36.78655522875487804412841796875" lon="-118.5497001372277736663818359375">
        <ele>1590.4000244140625</ele>
        <time>2021-06-24T17:22:55.000Z</time>
        <extensions>
          <ns3:TrackPointExtension>
            <ns3:atemp>31.0</ns3:atemp>
            <ns3:hr>102</ns3:hr>
          </ns3:TrackPointExtension>
        </extensions>
      </trkpt>
      <trkpt lat="36.78654533810913562774658203125" lon="-118.54970960877835750579833984375">
        <ele>1590.4000244140625</ele>
        <time>2021-06-24T17:22:56.000Z</time>
        <extensions>
          <ns3:TrackPointExtension>
            <ns3:atemp>31.0</ns3:atemp>
            <ns3:hr>102</ns3:hr>
          </ns3:TrackPointExtension>
        </extensions>
      </trkpt>
      <trkpt lat="36.7865313403308391571044921875" lon="-118.54971279390156269073486328125">
        <ele>1590.4000244140625</ele>
        <time>2021-06-24T17:22:57.000Z</time>
        <extensions>
          <ns3:TrackPointExtension>
            <ns3:atemp>31.0</ns3:atemp>
            <ns3:hr>101</ns3:hr>
          </ns3:TrackPointExtension>
        </extensions>
      </trkpt>
      <trkpt lat="36.78652991540729999542236328125" lon="-118.54972000233829021453857421875">
        <ele>1590.5999755859375</ele>
        <time>2021-06-24T17:22:58.000Z</time>
        <extensions>
          <ns3:TrackPointExtension>
            <ns3:atemp>31.0</ns3:atemp>
            <ns3:hr>101</ns3:hr>
          </ns3:TrackPointExtension>
        </extensions>
      </trkpt>
      <trkpt lat="36.78653242997825145721435546875" lon="-118.549730814993381500244140625">
        <ele>1590.5999755859375</ele>
        <time>2021-06-24T17:22:59.000Z</time>
        <extensions>
          <ns3:TrackPointExtension>
            <ns3:atemp>31.0</ns3:atemp>
            <ns3:hr>100</ns3:hr>
          </ns3:TrackPointExtension>
        </extensions>
      </trkpt>
      <trkpt lat="36.78651466034352779388427734375" lon="-118.5497319884598255157470703125">
        <ele>1590.800048828125</ele>
        <time>2021-06-24T17:23:02.000Z</time>
        <extensions>
          <ns3:TrackPointExtension>
            <ns3:atemp>31.0</ns3:atemp>
            <ns3:hr>100</ns3:hr>
          </ns3:TrackPointExtension>
        </extensions>
      </trkpt>
      <trkpt lat="36.78650979883968830108642578125" lon="-118.5497343353927135467529296875">
        <ele>1590.800048828125</ele>
        <time>2021-06-24T17:23:03.000Z</time>
        <extensions>
          <ns3:TrackPointExtension>
            <ns3:atemp>31.0</ns3:atemp>
            <ns3:hr>100</ns3:hr>
          </ns3:TrackPointExtension>
        </extensions>
      </trkpt>
      <trkpt lat="36.786484234035015106201171875" lon="-118.5497333295643329620361328125">
        <ele>1591.5999755859375</ele>
        <time>2021-06-24T17:23:07.000Z</time>
        <extensions>
          <ns3:TrackPointExtension>
            <ns3:atemp>31.0</ns3:atemp>
            <ns3:hr>101</ns3:hr>
          </ns3:TrackPointExtension>
        </extensions>
      </trkpt>
      <trkpt lat="36.7864765226840972900390625" lon="-118.54973089881241321563720703125">
        <ele>1591.5999755859375</ele>
        <time>2021-06-24T17:23:08.000Z</time>
        <extensions>
          <ns3:TrackPointExtension>
            <ns3:atemp>31.0</ns3:atemp>
            <ns3:hr>101</ns3:hr>
          </ns3:TrackPointExtension>
        </extensions>
      </trkpt>
      <trkpt lat="36.78647316992282867431640625" lon="-118.54972654022276401519775390625">
        <ele>1591.800048828125</ele>
        <time>2021-06-24T17:23:09.000Z</time>
        <extensions>
          <ns3:TrackPointExtension>
            <ns3:atemp>31.0</ns3:atemp>
            <ns3:hr>101</ns3:hr>
          </ns3:TrackPointExtension>
        </extensions>
      </trkpt>
      <trkpt lat="36.78648297674953937530517578125" lon="-118.54972670786082744598388671875">
        <ele>1591.800048828125</ele>
        <time>2021-06-24T17:23:11.000Z</time>
        <extensions>
          <ns3:TrackPointExtension>
            <ns3:atemp>31.0</ns3:atemp>
            <ns3:hr>102</ns3:hr>
          </ns3:TrackPointExtension>
        </extensions>
      </trkpt>
      <trkpt lat="36.78647694177925586700439453125" lon="-118.5497195832431316375732421875">
        <ele>1592.199951171875</ele>
        <time>2021-06-24T17:23:13.000Z</time>
        <extensions>
          <ns3:TrackPointExtension>
            <ns3:atemp>31.0</ns3:atemp>
            <ns3:hr>101</ns3:hr>
          </ns3:TrackPointExtension>
        </extensions>
      </trkpt>
      <trkpt lat="36.786463446915149688720703125" lon="-118.54971371591091156005859375">
        <ele>1592.4000244140625</ele>
        <time>2021-06-24T17:23:15.000Z</time>
        <extensions>
          <ns3:TrackPointExtension>
            <ns3:atemp>31.0</ns3:atemp>
            <ns3:hr>101</ns3:hr>
          </ns3:TrackPointExtension>
        </extensions>
      </trkpt>
      <trkpt lat="36.78645866923034191131591796875" lon="-118.54971094988286495208740234375">
        <ele>1592.5999755859375</ele>
        <time>2021-06-24T17:23:16.000Z</time>
        <extensions>
          <ns3:TrackPointExtension>
            <ns3:atemp>31.0</ns3:atemp>
            <ns3:hr>102</ns3:hr>
          </ns3:TrackPointExtension>
        </extensions>
      </trkpt>
      <trkpt lat="36.78644190542399883270263671875" lon="-118.549725115299224853515625">
        <ele>1593</ele>
        <time>2021-06-24T17:23:21.000Z</time>
        <extensions>
          <ns3:TrackPointExtension>
            <ns3:atemp>31.0</ns3:atemp>
            <ns3:hr>100</ns3:hr>
          </ns3:TrackPointExtension>
        </extensions>
      </trkpt>
      <trkpt lat="36.78640519268810749053955078125" lon="-118.54973743669688701629638671875">
        <ele>1593.5999755859375</ele>
        <time>2021-06-24T17:23:25.000Z</time>
        <extensions>
          <ns3:TrackPointExtension>
            <ns3:atemp>31.0</ns3:atemp>
            <ns3:hr>100</ns3:hr>
          </ns3:TrackPointExtension>
        </extensions>
      </trkpt>
      <trkpt lat="36.78637367673218250274658203125" lon="-118.5497356764972209930419921875">
        <ele>1593.800048828125</ele>
        <time>2021-06-24T17:23:27.000Z</time>
        <extensions>
          <ns3:TrackPointExtension>
            <ns3:atemp>31.0</ns3:atemp>
            <ns3:hr>101</ns3:hr>
          </ns3:TrackPointExtension>
        </extensions>
      </trkpt>
      <trkpt lat="36.78634149022400379180908203125" lon="-118.5497323237359523773193359375">
        <ele>1593.800048828125</ele>
        <time>2021-06-24T17:23:29.000Z</time>
        <extensions>
          <ns3:TrackPointExtension>
            <ns3:atemp>31.0</ns3:atemp>
            <ns3:hr>101</ns3:hr>
          </ns3:TrackPointExtension>
        </extensions>
      </trkpt>
      <trkpt lat="36.78628935478627681732177734375" lon="-118.54974481277167797088623046875">
        <ele>1594.5999755859375</ele>
        <time>2021-06-24T17:23:33.000Z</time>
        <extensions>
          <ns3:TrackPointExtension>
            <ns3:atemp>31.0</ns3:atemp>
            <ns3:hr>102</ns3:hr>
          </ns3:TrackPointExtension>
        </extensions>
      </trkpt>
      <trkpt lat="36.7862726747989654541015625" lon="-118.54976467788219451904296875">
        <ele>1594.800048828125</ele>
        <time>2021-06-24T17:23:36.000Z</time>
        <extensions>
          <ns3:TrackPointExtension>
            <ns3:atemp>31.0</ns3:atemp>
            <ns3:hr>102</ns3:hr>
          </ns3:TrackPointExtension>
        </extensions>
      </trkpt>
      <trkpt lat="36.78625498898327350616455078125" lon="-118.54977414943277835845947265625">
        <ele>1595</ele>
        <time>2021-06-24T17:23:38.000Z</time>
        <extensions>
          <ns3:TrackPointExtension>
            <ns3:atemp>31.0</ns3:atemp>
            <ns3:hr>103</ns3:hr>
          </ns3:TrackPointExtension>
        </extensions>
      </trkpt>
      <trkpt lat="36.78624627180397510528564453125" lon="-118.54978068731725215911865234375">
        <ele>1595</ele>
        <time>2021-06-24T17:23:39.000Z</time>
        <extensions>
          <ns3:TrackPointExtension>
            <ns3:atemp>31.0</ns3:atemp>
            <ns3:hr>103</ns3:hr>
          </ns3:TrackPointExtension>
        </extensions>
      </trkpt>
      <trkpt lat="36.7862151749432086944580078125" lon="-118.54979242198169231414794921875">
        <ele>1595.4000244140625</ele>
        <time>2021-06-24T17:23:43.000Z</time>
        <extensions>
          <ns3:TrackPointExtension>
            <ns3:atemp>31.0</ns3:atemp>
            <ns3:hr>103</ns3:hr>
          </ns3:TrackPointExtension>
        </extensions>
      </trkpt>
      <trkpt lat="36.7862017638981342315673828125" lon="-118.5497909970581531524658203125">
        <ele>1595.5999755859375</ele>
        <time>2021-06-24T17:23:44.000Z</time>
        <extensions>
          <ns3:TrackPointExtension>
            <ns3:atemp>31.0</ns3:atemp>
            <ns3:hr>105</ns3:hr>
          </ns3:TrackPointExtension>
        </extensions>
      </trkpt>
      <trkpt lat="36.78616530261933803558349609375" lon="-118.54977783747017383575439453125">
        <ele>1595.800048828125</ele>
        <time>2021-06-24T17:23:47.000Z</time>
        <extensions>
          <ns3:TrackPointExtension>
            <ns3:atemp>31.0</ns3:atemp>
            <ns3:hr>106</ns3:hr>
          </ns3:TrackPointExtension>
        </extensions>
      </trkpt>
      <trkpt lat="36.78614384494721889495849609375" lon="-118.54976543225347995758056640625">
        <ele>1596</ele>
        <time>2021-06-24T17:23:49.000Z</time>
        <extensions>
          <ns3:TrackPointExtension>
            <ns3:atemp>31.0</ns3:atemp>
            <ns3:hr>106</ns3:hr>
          </ns3:TrackPointExtension>
        </extensions>
      </trkpt>
      <trkpt lat="36.7861357145011425018310546875" lon="-118.549763001501560211181640625">
        <ele>1596</ele>
        <time>2021-06-24T17:23:50.000Z</time>
        <extensions>
          <ns3:TrackPointExtension>
            <ns3:atemp>31.0</ns3:atemp>
            <ns3:hr>109</ns3:hr>
          </ns3:TrackPointExtension>
        </extensions>
      </trkpt>
      <trkpt lat="36.78612942807376384735107421875" lon="-118.54976677335798740386962890625">
        <ele>1596.199951171875</ele>
        <time>2021-06-24T17:23:51.000Z</time>
        <extensions>
          <ns3:TrackPointExtension>
            <ns3:atemp>31.0</ns3:atemp>
            <ns3:hr>108</ns3:hr>
          </ns3:TrackPointExtension>
        </extensions>
      </trkpt>
      <trkpt lat="36.7861035279929637908935546875" lon="-118.54975872673094272613525390625">
        <ele>1596.4000244140625</ele>
        <time>2021-06-24T17:23:54.000Z</time>
        <extensions>
          <ns3:TrackPointExtension>
            <ns3:atemp>31.0</ns3:atemp>
            <ns3:hr>106</ns3:hr>
          </ns3:TrackPointExtension>
        </extensions>
      </trkpt>
      <trkpt lat="36.78608165122568607330322265625" lon="-118.5497594811022281646728515625">
        <ele>1597</ele>
        <time>2021-06-24T17:23:57.000Z</time>
        <extensions>
          <ns3:TrackPointExtension>
            <ns3:atemp>31.0</ns3:atemp>
            <ns3:hr>103</ns3:hr>
          </ns3:TrackPointExtension>
        </extensions>
      </trkpt>
      <trkpt lat="36.78606941364705562591552734375" lon="-118.5497755743563175201416015625">
        <ele>1597.199951171875</ele>
        <time>2021-06-24T17:24:00.000Z</time>
        <extensions>
          <ns3:TrackPointExtension>
            <ns3:atemp>31.0</ns3:atemp>
            <ns3:hr>103</ns3:hr>
          </ns3:TrackPointExtension>
        </extensions>
      </trkpt>
      <trkpt lat="36.78603731095790863037109375" lon="-118.54978756047785282135009765625">
        <ele>1597.5999755859375</ele>
        <time>2021-06-24T17:24:05.000Z</time>
        <extensions>
          <ns3:TrackPointExtension>
            <ns3:atemp>31.0</ns3:atemp>
            <ns3:hr>104</ns3:hr>
          </ns3:TrackPointExtension>
        </extensions>
      </trkpt>
      <trkpt lat="36.78603437729179859161376953125" lon="-118.5497899912297725677490234375">
        <ele>1597.800048828125</ele>
        <time>2021-06-24T17:24:06.000Z</time>
        <extensions>
          <ns3:TrackPointExtension>
            <ns3:atemp>31.0</ns3:atemp>
            <ns3:hr>104</ns3:hr>
          </ns3:TrackPointExtension>
        </extensions>
      </trkpt>
      <trkpt lat="36.78602163679897785186767578125" lon="-118.5497956909239292144775390625">
        <ele>1598.199951171875</ele>
        <time>2021-06-24T17:24:08.000Z</time>
        <extensions>
          <ns3:TrackPointExtension>
            <ns3:atemp>31.0</ns3:atemp>
            <ns3:hr>105</ns3:hr>
          </ns3:TrackPointExtension>
        </extensions>
      </trkpt>
      <trkpt lat="36.78602180443704128265380859375" lon="-118.5498000495135784149169921875">
        <ele>1598.4000244140625</ele>
        <time>2021-06-24T17:24:09.000Z</time>
        <extensions>
          <ns3:TrackPointExtension>
            <ns3:atemp>31.0</ns3:atemp>
            <ns3:hr>104</ns3:hr>
          </ns3:TrackPointExtension>
        </extensions>
      </trkpt>
      <trkpt lat="36.7860151827335357666015625" lon="-118.5498151369392871856689453125">
        <ele>1598.5999755859375</ele>
        <time>2021-06-24T17:24:11.000Z</time>
        <extensions>
          <ns3:TrackPointExtension>
            <ns3:atemp>31.0</ns3:atemp>
            <ns3:hr>103</ns3:hr>
          </ns3:TrackPointExtension>
        </extensions>
      </trkpt>
      <trkpt lat="36.78598643280565738677978515625" lon="-118.5498359240591526031494140625">
        <ele>1598.800048828125</ele>
        <time>2021-06-24T17:24:14.000Z</time>
        <extensions>
          <ns3:TrackPointExtension>
            <ns3:atemp>31.0</ns3:atemp>
            <ns3:hr>101</ns3:hr>
          </ns3:TrackPointExtension>
        </extensions>
      </trkpt>
      <trkpt lat="36.7859643884003162384033203125" lon="-118.5498493351042270660400390625">
        <ele>1599.4000244140625</ele>
        <time>2021-06-24T17:24:16.000Z</time>
        <extensions>
          <ns3:TrackPointExtension>
            <ns3:atemp>31.0</ns3:atemp>
            <ns3:hr>102</ns3:hr>
          </ns3:TrackPointExtension>
        </extensions>
      </trkpt>
      <trkpt lat="36.785955168306827545166015625" lon="-118.54985210113227367401123046875">
        <ele>1599.4000244140625</ele>
        <time>2021-06-24T17:24:17.000Z</time>
        <extensions>
          <ns3:TrackPointExtension>
            <ns3:atemp>31.0</ns3:atemp>
            <ns3:hr>103</ns3:hr>
          </ns3:TrackPointExtension>
        </extensions>
      </trkpt>
      <trkpt lat="36.7859144322574138641357421875" lon="-118.54987330734729766845703125">
        <ele>1600.199951171875</ele>
        <time>2021-06-24T17:24:22.000Z</time>
        <extensions>
          <ns3:TrackPointExtension>
            <ns3:atemp>31.0</ns3:atemp>
            <ns3:hr>103</ns3:hr>
          </ns3:TrackPointExtension>
        </extensions>
      </trkpt>
      <trkpt lat="36.7859030328691005706787109375" lon="-118.54987573809921741485595703125">
        <ele>1600.4000244140625</ele>
        <time>2021-06-24T17:24:23.000Z</time>
        <extensions>
          <ns3:TrackPointExtension>
            <ns3:atemp>31.0</ns3:atemp>
            <ns3:hr>100</ns3:hr>
          </ns3:TrackPointExtension>
        </extensions>
      </trkpt>
      <trkpt lat="36.7858788929879665374755859375" lon="-118.5498677752912044525146484375">
        <ele>1601.199951171875</ele>
        <time>2021-06-24T17:24:27.000Z</time>
        <extensions>
          <ns3:TrackPointExtension>
            <ns3:atemp>31.0</ns3:atemp>
            <ns3:hr>102</ns3:hr>
          </ns3:TrackPointExtension>
        </extensions>
      </trkpt>
      <trkpt lat="36.78586724214255809783935546875" lon="-118.5498620755970478057861328125">
        <ele>1601.199951171875</ele>
        <time>2021-06-24T17:24:28.000Z</time>
        <extensions>
          <ns3:TrackPointExtension>
            <ns3:atemp>31.0</ns3:atemp>
            <ns3:hr>103</ns3:hr>
          </ns3:TrackPointExtension>
        </extensions>
      </trkpt>
      <trkpt lat="36.7858269251883029937744140625" lon="-118.5498463176190853118896484375">
        <ele>1601.4000244140625</ele>
        <time>2021-06-24T17:24:31.000Z</time>
        <extensions>
          <ns3:TrackPointExtension>
            <ns3:atemp>31.0</ns3:atemp>
            <ns3:hr>103</ns3:hr>
          </ns3:TrackPointExtension>
        </extensions>
      </trkpt>
      <trkpt lat="36.7858151905238628387451171875" lon="-118.5498429648578166961669921875">
        <ele>1601.800048828125</ele>
        <time>2021-06-24T17:24:32.000Z</time>
        <extensions>
          <ns3:TrackPointExtension>
            <ns3:atemp>31.0</ns3:atemp>
            <ns3:hr>102</ns3:hr>
          </ns3:TrackPointExtension>
        </extensions>
      </trkpt>
      <trkpt lat="36.78579733707010746002197265625" lon="-118.54984288103878498077392578125">
        <ele>1601.800048828125</ele>
        <time>2021-06-24T17:24:33.000Z</time>
        <extensions>
          <ns3:TrackPointExtension>
            <ns3:atemp>31.0</ns3:atemp>
            <ns3:hr>104</ns3:hr>
          </ns3:TrackPointExtension>
        </extensions>
      </trkpt>
      <trkpt lat="36.78577906452119350433349609375" lon="-118.54985344223678112030029296875">
        <ele>1602.199951171875</ele>
        <time>2021-06-24T17:24:35.000Z</time>
        <extensions>
          <ns3:TrackPointExtension>
            <ns3:atemp>31.0</ns3:atemp>
            <ns3:hr>103</ns3:hr>
          </ns3:TrackPointExtension>
        </extensions>
      </trkpt>
      <trkpt lat="36.78573966957628726959228515625" lon="-118.549858890473842620849609375">
        <ele>1602.5999755859375</ele>
        <time>2021-06-24T17:24:39.000Z</time>
        <extensions>
          <ns3:TrackPointExtension>
            <ns3:atemp>31.0</ns3:atemp>
            <ns3:hr>102</ns3:hr>
          </ns3:TrackPointExtension>
        </extensions>
      </trkpt>
      <trkpt lat="36.78573028184473514556884765625" lon="-118.54986752383410930633544921875">
        <ele>1602.5999755859375</ele>
        <time>2021-06-24T17:24:40.000Z</time>
        <extensions>
          <ns3:TrackPointExtension>
            <ns3:atemp>31.0</ns3:atemp>
            <ns3:hr>103</ns3:hr>
          </ns3:TrackPointExtension>
        </extensions>
      </trkpt>
      <trkpt lat="36.78571905009448528289794921875" lon="-118.54987733066082000732421875">
        <ele>1603</ele>
        <time>2021-06-24T17:24:41.000Z</time>
        <extensions>
          <ns3:TrackPointExtension>
            <ns3:atemp>31.0</ns3:atemp>
            <ns3:hr>104</ns3:hr>
          </ns3:TrackPointExtension>
        </extensions>
      </trkpt>
      <trkpt lat="36.7856901325285434722900390625" lon="-118.5498825274407863616943359375">
        <ele>1603.4000244140625</ele>
        <time>2021-06-24T17:24:43.000Z</time>
        <extensions>
          <ns3:TrackPointExtension>
            <ns3:atemp>31.0</ns3:atemp>
            <ns3:hr>105</ns3:hr>
          </ns3:TrackPointExtension>
        </extensions>
      </trkpt>
      <trkpt lat="36.78566305898129940032958984375" lon="-118.54988546110689640045166015625">
        <ele>1603.800048828125</ele>
        <time>2021-06-24T17:24:45.000Z</time>
        <extensions>
          <ns3:TrackPointExtension>
            <ns3:atemp>31.0</ns3:atemp>
            <ns3:hr>107</ns3:hr>
          </ns3:TrackPointExtension>
        </extensions>
      </trkpt>
      <trkpt lat="36.78563623689115047454833984375" lon="-118.54988135397434234619140625">
        <ele>1604</ele>
        <time>2021-06-24T17:24:47.000Z</time>
        <extensions>
          <ns3:TrackPointExtension>
            <ns3:atemp>31.0</ns3:atemp>
            <ns3:hr>108</ns3:hr>
          </ns3:TrackPointExtension>
        </extensions>
      </trkpt>
      <trkpt lat="36.785617880523204803466796875" lon="-118.54989099316298961639404296875">
        <ele>1604.199951171875</ele>
        <time>2021-06-24T17:24:49.000Z</time>
        <extensions>
          <ns3:TrackPointExtension>
            <ns3:atemp>31.0</ns3:atemp>
            <ns3:hr>108</ns3:hr>
          </ns3:TrackPointExtension>
        </extensions>
      </trkpt>
      <trkpt lat="36.7855999432504177093505859375" lon="-118.549905158579349517822265625">
        <ele>1604.4000244140625</ele>
        <time>2021-06-24T17:24:51.000Z</time>
        <extensions>
          <ns3:TrackPointExtension>
            <ns3:atemp>31.0</ns3:atemp>
            <ns3:hr>110</ns3:hr>
          </ns3:TrackPointExtension>
        </extensions>
      </trkpt>
      <trkpt lat="36.7855741269886493682861328125" lon="-118.5499155521392822265625">
        <ele>1604.5999755859375</ele>
        <time>2021-06-24T17:24:53.000Z</time>
        <extensions>
          <ns3:TrackPointExtension>
            <ns3:atemp>31.0</ns3:atemp>
            <ns3:hr>111</ns3:hr>
          </ns3:TrackPointExtension>
        </extensions>
      </trkpt>
      <trkpt lat="36.78554780781269073486328125" lon="-118.54992116801440715789794921875">
        <ele>1605.199951171875</ele>
        <time>2021-06-24T17:24:56.000Z</time>
        <extensions>
          <ns3:TrackPointExtension>
            <ns3:atemp>31.0</ns3:atemp>
            <ns3:hr>114</ns3:hr>
          </ns3:TrackPointExtension>
        </extensions>
      </trkpt>
      <trkpt lat="36.785542108118534088134765625" lon="-118.54991479776799678802490234375">
        <ele>1605.4000244140625</ele>
        <time>2021-06-24T17:24:57.000Z</time>
        <extensions>
          <ns3:TrackPointExtension>
            <ns3:atemp>31.0</ns3:atemp>
            <ns3:hr>115</ns3:hr>
          </ns3:TrackPointExtension>
        </extensions>
      </trkpt>
      <trkpt lat="36.7855369113385677337646484375" lon="-118.54991865344345569610595703125">
        <ele>1605.800048828125</ele>
        <time>2021-06-24T17:24:59.000Z</time>
        <extensions>
          <ns3:TrackPointExtension>
            <ns3:atemp>31.0</ns3:atemp>
            <ns3:hr>114</ns3:hr>
          </ns3:TrackPointExtension>
        </extensions>
      </trkpt>
      <trkpt lat="36.785544455051422119140625" lon="-118.54992217384278774261474609375">
        <ele>1606.199951171875</ele>
        <time>2021-06-24T17:25:02.000Z</time>
        <extensions>
          <ns3:TrackPointExtension>
            <ns3:atemp>31.0</ns3:atemp>
            <ns3:hr>114</ns3:hr>
          </ns3:TrackPointExtension>
        </extensions>
      </trkpt>
      <trkpt lat="36.78555124439299106597900390625" lon="-118.54992250911891460418701171875">
        <ele>1606.4000244140625</ele>
        <time>2021-06-24T17:25:03.000Z</time>
        <extensions>
          <ns3:TrackPointExtension>
            <ns3:atemp>31.0</ns3:atemp>
            <ns3:hr>115</ns3:hr>
          </ns3:TrackPointExtension>
        </extensions>
      </trkpt>
      <trkpt lat="36.785595752298831939697265625" lon="-118.54992988519370555877685546875">
        <ele>1606.800048828125</ele>
        <time>2021-06-24T17:25:09.000Z</time>
        <extensions>
          <ns3:TrackPointExtension>
            <ns3:atemp>31.0</ns3:atemp>
            <ns3:hr>116</ns3:hr>
          </ns3:TrackPointExtension>
        </extensions>
      </trkpt>
      <trkpt lat="36.7856128513813018798828125" lon="-118.549943380057811737060546875">
        <ele>1606.800048828125</ele>
        <time>2021-06-24T17:25:11.000Z</time>
        <extensions>
          <ns3:TrackPointExtension>
            <ns3:atemp>31.0</ns3:atemp>
            <ns3:hr>117</ns3:hr>
          </ns3:TrackPointExtension>
        </extensions>
      </trkpt>
      <trkpt lat="36.78560991771519184112548828125" lon="-118.549938686192035675048828125">
        <ele>1606.800048828125</ele>
        <time>2021-06-24T17:25:12.000Z</time>
        <extensions>
          <ns3:TrackPointExtension>
            <ns3:atemp>31.0</ns3:atemp>
            <ns3:hr>116</ns3:hr>
          </ns3:TrackPointExtension>
        </extensions>
      </trkpt>
      <trkpt lat="36.785624586045742034912109375" lon="-118.549943380057811737060546875">
        <ele>1606.800048828125</ele>
        <time>2021-06-24T17:25:14.000Z</time>
        <extensions>
          <ns3:TrackPointExtension>
            <ns3:atemp>31.0</ns3:atemp>
            <ns3:hr>116</ns3:hr>
          </ns3:TrackPointExtension>
        </extensions>
      </trkpt>
      <trkpt lat="36.7856559343636035919189453125" lon="-118.54995645582675933837890625">
        <ele>1607</ele>
        <time>2021-06-24T17:25:16.000Z</time>
        <extensions>
          <ns3:TrackPointExtension>
            <ns3:atemp>31.0</ns3:atemp>
            <ns3:hr>117</ns3:hr>
          </ns3:TrackPointExtension>
        </extensions>
      </trkpt>
      <trkpt lat="36.7856753803789615631103515625" lon="-118.5499571263790130615234375">
        <ele>1607</ele>
        <time>2021-06-24T17:25:18.000Z</time>
        <extensions>
          <ns3:TrackPointExtension>
            <ns3:atemp>31.0</ns3:atemp>
            <ns3:hr>116</ns3:hr>
          </ns3:TrackPointExtension>
        </extensions>
      </trkpt>
      <trkpt lat="36.78568418137729167938232421875" lon="-118.5499613173305988311767578125">
        <ele>1607</ele>
        <time>2021-06-24T17:25:19.000Z</time>
        <extensions>
          <ns3:TrackPointExtension>
            <ns3:atemp>31.0</ns3:atemp>
            <ns3:hr>117</ns3:hr>
          </ns3:TrackPointExtension>
        </extensions>
      </trkpt>
      <trkpt lat="36.785695664584636688232421875" lon="-118.5499584674835205078125">
        <ele>1607.199951171875</ele>
        <time>2021-06-24T17:25:20.000Z</time>
        <extensions>
          <ns3:TrackPointExtension>
            <ns3:atemp>31.0</ns3:atemp>
            <ns3:hr>117</ns3:hr>
          </ns3:TrackPointExtension>
        </extensions>
      </trkpt>
      <trkpt lat="36.78571335040032863616943359375" lon="-118.5499391891062259674072265625">
        <ele>1607.199951171875</ele>
        <time>2021-06-24T17:25:22.000Z</time>
        <extensions>
          <ns3:TrackPointExtension>
            <ns3:atemp>31.0</ns3:atemp>
            <ns3:hr>118</ns3:hr>
          </ns3:TrackPointExtension>
        </extensions>
      </trkpt>
      <trkpt lat="36.78573413752019405364990234375" lon="-118.54992552660405635833740234375">
        <ele>1607.5999755859375</ele>
        <time>2021-06-24T17:25:25.000Z</time>
        <extensions>
          <ns3:TrackPointExtension>
            <ns3:atemp>31.0</ns3:atemp>
            <ns3:hr>116</ns3:hr>
          </ns3:TrackPointExtension>
        </extensions>
      </trkpt>
      <trkpt lat="36.7858148552477359771728515625" lon="-118.54987607337534427642822265625">
        <ele>1608.199951171875</ele>
        <time>2021-06-24T17:25:34.000Z</time>
        <extensions>
          <ns3:TrackPointExtension>
            <ns3:atemp>31.0</ns3:atemp>
            <ns3:hr>114</ns3:hr>
          </ns3:TrackPointExtension>
        </extensions>
      </trkpt>
      <trkpt lat="36.78582063876092433929443359375" lon="-118.54987456463277339935302734375">
        <ele>1608.800048828125</ele>
        <time>2021-06-24T17:25:35.000Z</time>
        <extensions>
          <ns3:TrackPointExtension>
            <ns3:atemp>31.0</ns3:atemp>
            <ns3:hr>114</ns3:hr>
          </ns3:TrackPointExtension>
        </extensions>
      </trkpt>
      <trkpt lat="36.78583078086376190185546875" lon="-118.54986282996833324432373046875">
        <ele>1608.800048828125</ele>
        <time>2021-06-24T17:25:37.000Z</time>
        <extensions>
          <ns3:TrackPointExtension>
            <ns3:atemp>31.0</ns3:atemp>
            <ns3:hr>111</ns3:hr>
          </ns3:TrackPointExtension>
        </extensions>
      </trkpt>
      <trkpt lat="36.78584377281367778778076171875" lon="-118.54985360987484455108642578125">
        <ele>1609.199951171875</ele>
        <time>2021-06-24T17:25:40.000Z</time>
        <extensions>
          <ns3:TrackPointExtension>
            <ns3:atemp>31.0</ns3:atemp>
            <ns3:hr>111</ns3:hr>
          </ns3:TrackPointExtension>
        </extensions>
      </trkpt>
      <trkpt lat="36.7858467064797878265380859375" lon="-118.5498557053506374359130859375">
        <ele>1609.199951171875</ele>
        <time>2021-06-24T17:25:41.000Z</time>
        <extensions>
          <ns3:TrackPointExtension>
            <ns3:atemp>31.0</ns3:atemp>
            <ns3:hr>111</ns3:hr>
          </ns3:TrackPointExtension>
        </extensions>
      </trkpt>
      <trkpt lat="36.785847879946231842041015625" lon="-118.54985729791224002838134765625">
        <ele>1609.199951171875</ele>
        <time>2021-06-24T17:25:42.000Z</time>
        <extensions>
          <ns3:TrackPointExtension>
            <ns3:atemp>31.0</ns3:atemp>
            <ns3:hr>109</ns3:hr>
          </ns3:TrackPointExtension>
        </extensions>
      </trkpt>
      <trkpt lat="36.785849891602993011474609375" lon="-118.5498540289700031280517578125">
        <ele>1609.199951171875</ele>
        <time>2021-06-24T17:25:44.000Z</time>
        <extensions>
          <ns3:TrackPointExtension>
            <ns3:atemp>31.0</ns3:atemp>
            <ns3:hr>111</ns3:hr>
          </ns3:TrackPointExtension>
        </extensions>
      </trkpt>
      <trkpt lat="36.78585701622068881988525390625" lon="-118.5498444736003875732421875">
        <ele>1609.199951171875</ele>
        <time>2021-06-24T17:25:46.000Z</time>
        <extensions>
          <ns3:TrackPointExtension>
            <ns3:atemp>31.0</ns3:atemp>
            <ns3:hr>108</ns3:hr>
          </ns3:TrackPointExtension>
        </extensions>
      </trkpt>
      <trkpt lat="36.78586296737194061279296875" lon="-118.54984514415264129638671875">
        <ele>1609.199951171875</ele>
        <time>2021-06-24T17:25:47.000Z</time>
        <extensions>
          <ns3:TrackPointExtension>
            <ns3:atemp>31.0</ns3:atemp>
            <ns3:hr>110</ns3:hr>
          </ns3:TrackPointExtension>
        </extensions>
      </trkpt>
      <trkpt lat="36.7858741991221904754638671875" lon="-118.54976643808186054229736328125">
        <ele>1609.4000244140625</ele>
        <time>2021-06-24T17:25:54.000Z</time>
        <extensions>
          <ns3:TrackPointExtension>
            <ns3:atemp>31.0</ns3:atemp>
            <ns3:hr>111</ns3:hr>
          </ns3:TrackPointExtension>
        </extensions>
      </trkpt>
      <trkpt lat="36.78588149137794971466064453125" lon="-118.54974322021007537841796875">
        <ele>1609.800048828125</ele>
        <time>2021-06-24T17:25:57.000Z</time>
        <extensions>
          <ns3:TrackPointExtension>
            <ns3:atemp>31.0</ns3:atemp>
            <ns3:hr>109</ns3:hr>
          </ns3:TrackPointExtension>
        </extensions>
      </trkpt>
      <trkpt lat="36.78590110503137111663818359375" lon="-118.54971681721508502960205078125">
        <ele>1610.4000244140625</ele>
        <time>2021-06-24T17:26:00.000Z</time>
        <extensions>
          <ns3:TrackPointExtension>
            <ns3:atemp>31.0</ns3:atemp>
            <ns3:hr>109</ns3:hr>
          </ns3:TrackPointExtension>
        </extensions>
      </trkpt>
      <trkpt lat="36.78591015748679637908935546875" lon="-118.54968245141208171844482421875">
        <ele>1610.800048828125</ele>
        <time>2021-06-24T17:26:03.000Z</time>
        <extensions>
          <ns3:TrackPointExtension>
            <ns3:atemp>31.0</ns3:atemp>
            <ns3:hr>108</ns3:hr>
          </ns3:TrackPointExtension>
        </extensions>
      </trkpt>
      <trkpt lat="36.78591652773320674896240234375" lon="-118.5496862232685089111328125">
        <ele>1610.800048828125</ele>
        <time>2021-06-24T17:26:05.000Z</time>
        <extensions>
          <ns3:TrackPointExtension>
            <ns3:atemp>31.0</ns3:atemp>
            <ns3:hr>108</ns3:hr>
          </ns3:TrackPointExtension>
        </extensions>
      </trkpt>
      <trkpt lat="36.785933710634708404541015625" lon="-118.54967339895665645599365234375">
        <ele>1611.4000244140625</ele>
        <time>2021-06-24T17:26:07.000Z</time>
        <extensions>
          <ns3:TrackPointExtension>
            <ns3:atemp>31.0</ns3:atemp>
            <ns3:hr>107</ns3:hr>
          </ns3:TrackPointExtension>
        </extensions>
      </trkpt>
      <trkpt lat="36.78596380166709423065185546875" lon="-118.549634255468845367431640625">
        <ele>1611.800048828125</ele>
        <time>2021-06-24T17:26:13.000Z</time>
        <extensions>
          <ns3:TrackPointExtension>
            <ns3:atemp>31.0</ns3:atemp>
            <ns3:hr>107</ns3:hr>
          </ns3:TrackPointExtension>
        </extensions>
      </trkpt>
      <trkpt lat="36.78596883080899715423583984375" lon="-118.54962495155632495880126953125">
        <ele>1612</ele>
        <time>2021-06-24T17:26:14.000Z</time>
        <extensions>
          <ns3:TrackPointExtension>
            <ns3:atemp>31.0</ns3:atemp>
            <ns3:hr>107</ns3:hr>
          </ns3:TrackPointExtension>
        </extensions>
      </trkpt>
      <trkpt lat="36.78597562015056610107421875" lon="-118.549612797796726226806640625">
        <ele>1612</ele>
        <time>2021-06-24T17:26:15.000Z</time>
        <extensions>
          <ns3:TrackPointExtension>
            <ns3:atemp>31.0</ns3:atemp>
            <ns3:hr>107</ns3:hr>
          </ns3:TrackPointExtension>
        </extensions>
      </trkpt>
      <trkpt lat="36.785995401442050933837890625" lon="-118.54958354495465755462646484375">
        <ele>1612.199951171875</ele>
        <time>2021-06-24T17:26:18.000Z</time>
        <extensions>
          <ns3:TrackPointExtension>
            <ns3:atemp>31.0</ns3:atemp>
            <ns3:hr>108</ns3:hr>
          </ns3:TrackPointExtension>
        </extensions>
      </trkpt>
      <trkpt lat="36.78601442836225032806396484375" lon="-118.54956485331058502197265625">
        <ele>1612.5999755859375</ele>
        <time>2021-06-24T17:26:22.000Z</time>
        <extensions>
          <ns3:TrackPointExtension>
            <ns3:atemp>31.0</ns3:atemp>
            <ns3:hr>108</ns3:hr>
          </ns3:TrackPointExtension>
        </extensions>
      </trkpt>
      <trkpt lat="36.786060445010662078857421875" lon="-118.54954540729522705078125">
        <ele>1613</ele>
        <time>2021-06-24T17:26:26.000Z</time>
        <extensions>
          <ns3:TrackPointExtension>
            <ns3:atemp>31.0</ns3:atemp>
            <ns3:hr>109</ns3:hr>
          </ns3:TrackPointExtension>
        </extensions>
      </trkpt>
      <trkpt lat="36.78607486188411712646484375" lon="-118.5495172441005706787109375">
        <ele>1613</ele>
        <time>2021-06-24T17:26:28.000Z</time>
        <extensions>
          <ns3:TrackPointExtension>
            <ns3:atemp>31.0</ns3:atemp>
            <ns3:hr>109</ns3:hr>
          </ns3:TrackPointExtension>
        </extensions>
      </trkpt>
      <trkpt lat="36.786091290414333343505859375" lon="-118.5494506917893886566162109375">
        <ele>1613.199951171875</ele>
        <time>2021-06-24T17:26:31.000Z</time>
        <extensions>
          <ns3:TrackPointExtension>
            <ns3:atemp>31.0</ns3:atemp>
            <ns3:hr>110</ns3:hr>
          </ns3:TrackPointExtension>
        </extensions>
      </trkpt>
      <trkpt lat="36.7860897816717624664306640625" lon="-118.54940350167453289031982421875">
        <ele>1613.800048828125</ele>
        <time>2021-06-24T17:26:35.000Z</time>
        <extensions>
          <ns3:TrackPointExtension>
            <ns3:atemp>31.0</ns3:atemp>
            <ns3:hr>113</ns3:hr>
          </ns3:TrackPointExtension>
        </extensions>
      </trkpt>
      <trkpt lat="36.7860800586640834808349609375" lon="-118.549408614635467529296875">
        <ele>1613.800048828125</ele>
        <time>2021-06-24T17:26:36.000Z</time>
        <extensions>
          <ns3:TrackPointExtension>
            <ns3:atemp>31.0</ns3:atemp>
            <ns3:hr>114</ns3:hr>
          </ns3:TrackPointExtension>
        </extensions>
      </trkpt>
      <trkpt lat="36.78604963235557079315185546875" lon="-118.54942537844181060791015625">
        <ele>1614</ele>
        <time>2021-06-24T17:26:39.000Z</time>
        <extensions>
          <ns3:TrackPointExtension>
            <ns3:atemp>31.0</ns3:atemp>
            <ns3:hr>115</ns3:hr>
          </ns3:TrackPointExtension>
        </extensions>
      </trkpt>
      <trkpt lat="36.78603806532919406890869140625" lon="-118.5494367778301239013671875">
        <ele>1614.4000244140625</ele>
        <time>2021-06-24T17:26:41.000Z</time>
        <extensions>
          <ns3:TrackPointExtension>
            <ns3:atemp>31.0</ns3:atemp>
            <ns3:hr>118</ns3:hr>
          </ns3:TrackPointExtension>
        </extensions>
      </trkpt>
      <trkpt lat="36.78602549247443675994873046875" lon="-118.5494439862668514251708984375">
        <ele>1614.5999755859375</ele>
        <time>2021-06-24T17:26:43.000Z</time>
        <extensions>
          <ns3:TrackPointExtension>
            <ns3:atemp>31.0</ns3:atemp>
            <ns3:hr>120</ns3:hr>
          </ns3:TrackPointExtension>
        </extensions>
      </trkpt>
      <trkpt lat="36.7859888635575771331787109375" lon="-118.54945429600775241851806640625">
        <ele>1614.800048828125</ele>
        <time>2021-06-24T17:26:46.000Z</time>
        <extensions>
          <ns3:TrackPointExtension>
            <ns3:atemp>31.0</ns3:atemp>
            <ns3:hr>119</ns3:hr>
          </ns3:TrackPointExtension>
        </extensions>
      </trkpt>
      <trkpt lat="36.785978637635707855224609375" lon="-118.54944826103746891021728515625">
        <ele>1615</ele>
        <time>2021-06-24T17:26:48.000Z</time>
        <extensions>
          <ns3:TrackPointExtension>
            <ns3:atemp>31.0</ns3:atemp>
            <ns3:hr>119</ns3:hr>
          </ns3:TrackPointExtension>
        </extensions>
      </trkpt>
      <trkpt lat="36.78594318218529224395751953125" lon="-118.54944683611392974853515625">
        <ele>1615.199951171875</ele>
        <time>2021-06-24T17:26:52.000Z</time>
        <extensions>
          <ns3:TrackPointExtension>
            <ns3:atemp>30.0</ns3:atemp>
            <ns3:hr>120</ns3:hr>
          </ns3:TrackPointExtension>
        </extensions>
      </trkpt>
      <trkpt lat="36.7859228141605854034423828125" lon="-118.54945245198905467987060546875">
        <ele>1615.199951171875</ele>
        <time>2021-06-24T17:26:54.000Z</time>
        <extensions>
          <ns3:TrackPointExtension>
            <ns3:atemp>30.0</ns3:atemp>
            <ns3:hr>121</ns3:hr>
          </ns3:TrackPointExtension>
        </extensions>
      </trkpt>
      <trkpt lat="36.7859073914587497711181640625" lon="-118.54946485720574855804443359375">
        <ele>1615.5999755859375</ele>
        <time>2021-06-24T17:26:56.000Z</time>
        <extensions>
          <ns3:TrackPointExtension>
            <ns3:atemp>30.0</ns3:atemp>
            <ns3:hr>124</ns3:hr>
          </ns3:TrackPointExtension>
        </extensions>
      </trkpt>
      <trkpt lat="36.78590093739330768585205078125" lon="-118.5494637675583362579345703125">
        <ele>1615.5999755859375</ele>
        <time>2021-06-24T17:26:57.000Z</time>
        <extensions>
          <ns3:TrackPointExtension>
            <ns3:atemp>30.0</ns3:atemp>
            <ns3:hr>123</ns3:hr>
          </ns3:TrackPointExtension>
        </extensions>
      </trkpt>
      <trkpt lat="36.78587344475090503692626953125" lon="-118.54948815889656543731689453125">
        <ele>1615.800048828125</ele>
        <time>2021-06-24T17:27:00.000Z</time>
        <extensions>
          <ns3:TrackPointExtension>
            <ns3:atemp>30.0</ns3:atemp>
            <ns3:hr>121</ns3:hr>
          </ns3:TrackPointExtension>
        </extensions>
      </trkpt>
      <trkpt lat="36.7858510650694370269775390625" lon="-118.54954297654330730438232421875">
        <ele>1616.4000244140625</ele>
        <time>2021-06-24T17:27:05.000Z</time>
        <extensions>
          <ns3:TrackPointExtension>
            <ns3:atemp>30.0</ns3:atemp>
            <ns3:hr>120</ns3:hr>
          </ns3:TrackPointExtension>
        </extensions>
      </trkpt>
      <trkpt lat="36.78584913723170757293701171875" lon="-118.5495494306087493896484375">
        <ele>1616.4000244140625</ele>
        <time>2021-06-24T17:27:06.000Z</time>
        <extensions>
          <ns3:TrackPointExtension>
            <ns3:atemp>30.0</ns3:atemp>
            <ns3:hr>121</ns3:hr>
          </ns3:TrackPointExtension>
        </extensions>
      </trkpt>
      <trkpt lat="36.78584427572786808013916015625" lon="-118.54955437593162059783935546875">
        <ele>1616.4000244140625</ele>
        <time>2021-06-24T17:27:08.000Z</time>
        <extensions>
          <ns3:TrackPointExtension>
            <ns3:atemp>30.0</ns3:atemp>
            <ns3:hr>120</ns3:hr>
          </ns3:TrackPointExtension>
        </extensions>
      </trkpt>
      <trkpt lat="36.78582533262670040130615234375" lon="-118.54957214556634426116943359375">
        <ele>1617.199951171875</ele>
        <time>2021-06-24T17:27:12.000Z</time>
        <extensions>
          <ns3:TrackPointExtension>
            <ns3:atemp>30.0</ns3:atemp>
            <ns3:hr>122</ns3:hr>
          </ns3:TrackPointExtension>
        </extensions>
      </trkpt>
      <trkpt lat="36.78580932319164276123046875" lon="-118.54958035983145236968994140625">
        <ele>1617.4000244140625</ele>
        <time>2021-06-24T17:27:14.000Z</time>
        <extensions>
          <ns3:TrackPointExtension>
            <ns3:atemp>30.0</ns3:atemp>
            <ns3:hr>121</ns3:hr>
          </ns3:TrackPointExtension>
        </extensions>
      </trkpt>
      <trkpt lat="36.78580152802169322967529296875" lon="-118.54958287440240383148193359375">
        <ele>1617.4000244140625</ele>
        <time>2021-06-24T17:27:15.000Z</time>
        <extensions>
          <ns3:TrackPointExtension>
            <ns3:atemp>30.0</ns3:atemp>
            <ns3:hr>120</ns3:hr>
          </ns3:TrackPointExtension>
        </extensions>
      </trkpt>
      <trkpt lat="36.78578208200633525848388671875" lon="-118.5495945252478122711181640625">
        <ele>1618</ele>
        <time>2021-06-24T17:27:18.000Z</time>
        <extensions>
          <ns3:TrackPointExtension>
            <ns3:atemp>30.0</ns3:atemp>
            <ns3:hr>118</ns3:hr>
          </ns3:TrackPointExtension>
        </extensions>
      </trkpt>
      <trkpt lat="36.78577386774122714996337890625" lon="-118.54959511198103427886962890625">
        <ele>1618</ele>
        <time>2021-06-24T17:27:19.000Z</time>
        <extensions>
          <ns3:TrackPointExtension>
            <ns3:atemp>30.0</ns3:atemp>
            <ns3:hr>118</ns3:hr>
          </ns3:TrackPointExtension>
        </extensions>
      </trkpt>
      <trkpt lat="36.7857488058507442474365234375" lon="-118.54960818774998188018798828125">
        <ele>1618.4000244140625</ele>
        <time>2021-06-24T17:27:22.000Z</time>
        <extensions>
          <ns3:TrackPointExtension>
            <ns3:atemp>30.0</ns3:atemp>
            <ns3:hr>118</ns3:hr>
          </ns3:TrackPointExtension>
        </extensions>
      </trkpt>
      <trkpt lat="36.78572910837829113006591796875" lon="-118.54961070232093334197998046875">
        <ele>1618.5999755859375</ele>
        <time>2021-06-24T17:27:24.000Z</time>
        <extensions>
          <ns3:TrackPointExtension>
            <ns3:atemp>30.0</ns3:atemp>
            <ns3:hr>116</ns3:hr>
          </ns3:TrackPointExtension>
        </extensions>
      </trkpt>
      <trkpt lat="36.78571452386677265167236328125" lon="-118.54961640201508998870849609375">
        <ele>1618.800048828125</ele>
        <time>2021-06-24T17:27:27.000Z</time>
        <extensions>
          <ns3:TrackPointExtension>
            <ns3:atemp>30.0</ns3:atemp>
            <ns3:hr>117</ns3:hr>
          </ns3:TrackPointExtension>
        </extensions>
      </trkpt>
      <trkpt lat="36.78570128045976161956787109375" lon="-118.5496270470321178436279296875">
        <ele>1619.5999755859375</ele>
        <time>2021-06-24T17:27:30.000Z</time>
        <extensions>
          <ns3:TrackPointExtension>
            <ns3:atemp>30.0</ns3:atemp>
            <ns3:hr>117</ns3:hr>
          </ns3:TrackPointExtension>
        </extensions>
      </trkpt>
      <trkpt lat="36.78569532930850982666015625" lon="-118.549632914364337921142578125">
        <ele>1619.5999755859375</ele>
        <time>2021-06-24T17:27:31.000Z</time>
        <extensions>
          <ns3:TrackPointExtension>
            <ns3:atemp>30.0</ns3:atemp>
            <ns3:hr>116</ns3:hr>
          </ns3:TrackPointExtension>
        </extensions>
      </trkpt>
      <trkpt lat="36.78569105453789234161376953125" lon="-118.54963635094463825225830078125">
        <ele>1619.800048828125</ele>
        <time>2021-06-24T17:27:32.000Z</time>
        <extensions>
          <ns3:TrackPointExtension>
            <ns3:atemp>30.0</ns3:atemp>
            <ns3:hr>116</ns3:hr>
          </ns3:TrackPointExtension>
        </extensions>
      </trkpt>
      <trkpt lat="36.78565911948680877685546875" lon="-118.5496337525546550750732421875">
        <ele>1620.199951171875</ele>
        <time>2021-06-24T17:27:35.000Z</time>
        <extensions>
          <ns3:TrackPointExtension>
            <ns3:atemp>30.0</ns3:atemp>
            <ns3:hr>117</ns3:hr>
          </ns3:TrackPointExtension>
        </extensions>
      </trkpt>
      <trkpt lat="36.78562634624540805816650390625" lon="-118.5496352612972259521484375">
        <ele>1620.5999755859375</ele>
        <time>2021-06-24T17:27:38.000Z</time>
        <extensions>
          <ns3:TrackPointExtension>
            <ns3:atemp>30.0</ns3:atemp>
            <ns3:hr>119</ns3:hr>
          </ns3:TrackPointExtension>
        </extensions>
      </trkpt>
      <trkpt lat="36.7855861969292163848876953125" lon="-118.549621514976024627685546875">
        <ele>1621.4000244140625</ele>
        <time>2021-06-24T17:27:43.000Z</time>
        <extensions>
          <ns3:TrackPointExtension>
            <ns3:atemp>30.0</ns3:atemp>
            <ns3:hr>122</ns3:hr>
          </ns3:TrackPointExtension>
        </extensions>
      </trkpt>
      <trkpt lat="36.785568930208683013916015625" lon="-118.54963115416467189788818359375">
        <ele>1621.5999755859375</ele>
        <time>2021-06-24T17:27:45.000Z</time>
        <extensions>
          <ns3:TrackPointExtension>
            <ns3:atemp>30.0</ns3:atemp>
            <ns3:hr>123</ns3:hr>
          </ns3:TrackPointExtension>
        </extensions>
      </trkpt>
      <trkpt lat="36.78555979393422603607177734375" lon="-118.54962612502276897430419921875">
        <ele>1621.800048828125</ele>
        <time>2021-06-24T17:27:46.000Z</time>
        <extensions>
          <ns3:TrackPointExtension>
            <ns3:atemp>30.0</ns3:atemp>
            <ns3:hr>124</ns3:hr>
          </ns3:TrackPointExtension>
        </extensions>
      </trkpt>
      <trkpt lat="36.78551319055259227752685546875" lon="-118.54962293989956378936767578125">
        <ele>1622.199951171875</ele>
        <time>2021-06-24T17:27:49.000Z</time>
        <extensions>
          <ns3:TrackPointExtension>
            <ns3:atemp>30.0</ns3:atemp>
            <ns3:hr>123</ns3:hr>
          </ns3:TrackPointExtension>
        </extensions>
      </trkpt>
      <trkpt lat="36.785485446453094482421875" lon="-118.54961472563445568084716796875">
        <ele>1622.4000244140625</ele>
        <time>2021-06-24T17:27:52.000Z</time>
        <extensions>
          <ns3:TrackPointExtension>
            <ns3:atemp>30.0</ns3:atemp>
            <ns3:hr>121</ns3:hr>
          </ns3:TrackPointExtension>
        </extensions>
      </trkpt>
      <trkpt lat="36.78547228686511516571044921875" lon="-118.5496257059276103973388671875">
        <ele>1622.4000244140625</ele>
        <time>2021-06-24T17:27:54.000Z</time>
        <extensions>
          <ns3:TrackPointExtension>
            <ns3:atemp>30.0</ns3:atemp>
            <ns3:hr>122</ns3:hr>
          </ns3:TrackPointExtension>
        </extensions>
      </trkpt>
      <trkpt lat="36.7854715324938297271728515625" lon="-118.54962545447051525115966796875">
        <ele>1622.5999755859375</ele>
        <time>2021-06-24T17:27:55.000Z</time>
        <extensions>
          <ns3:TrackPointExtension>
            <ns3:atemp>30.0</ns3:atemp>
            <ns3:hr>121</ns3:hr>
          </ns3:TrackPointExtension>
        </extensions>
      </trkpt>
      <trkpt lat="36.785454265773296356201171875" lon="-118.54963215999305248260498046875">
        <ele>1622.5999755859375</ele>
        <time>2021-06-24T17:27:57.000Z</time>
        <extensions>
          <ns3:TrackPointExtension>
            <ns3:atemp>30.0</ns3:atemp>
            <ns3:hr>120</ns3:hr>
          </ns3:TrackPointExtension>
        </extensions>
      </trkpt>
      <trkpt lat="36.7854438722133636474609375" lon="-118.54963190853595733642578125">
        <ele>1623</ele>
        <time>2021-06-24T17:27:59.000Z</time>
        <extensions>
          <ns3:TrackPointExtension>
            <ns3:atemp>30.0</ns3:atemp>
            <ns3:hr>120</ns3:hr>
          </ns3:TrackPointExtension>
        </extensions>
      </trkpt>
      <trkpt lat="36.78542685694992542266845703125" lon="-118.54963450692594051361083984375">
        <ele>1623.199951171875</ele>
        <time>2021-06-24T17:28:02.000Z</time>
        <extensions>
          <ns3:TrackPointExtension>
            <ns3:atemp>30.0</ns3:atemp>
            <ns3:hr>120</ns3:hr>
          </ns3:TrackPointExtension>
        </extensions>
      </trkpt>
      <trkpt lat="36.7853984422981739044189453125" lon="-118.54964104481041431427001953125">
        <ele>1623.4000244140625</ele>
        <time>2021-06-24T17:28:07.000Z</time>
        <extensions>
          <ns3:TrackPointExtension>
            <ns3:atemp>30.0</ns3:atemp>
            <ns3:hr>117</ns3:hr>
          </ns3:TrackPointExtension>
        </extensions>
      </trkpt>
      <trkpt lat="36.7853964306414127349853515625" lon="-118.5496468283236026763916015625">
        <ele>1623.4000244140625</ele>
        <time>2021-06-24T17:28:09.000Z</time>
        <extensions>
          <ns3:TrackPointExtension>
            <ns3:atemp>30.0</ns3:atemp>
            <ns3:hr>115</ns3:hr>
          </ns3:TrackPointExtension>
        </extensions>
      </trkpt>
      <trkpt lat="36.78536835126578807830810546875" lon="-118.5496558807790279388427734375">
        <ele>1624</ele>
        <time>2021-06-24T17:28:12.000Z</time>
        <extensions>
          <ns3:TrackPointExtension>
            <ns3:atemp>30.0</ns3:atemp>
            <ns3:hr>113</ns3:hr>
          </ns3:TrackPointExtension>
        </extensions>
      </trkpt>
      <trkpt lat="36.7853499948978424072265625" lon="-118.54967373423278331756591796875">
        <ele>1624.4000244140625</ele>
        <time>2021-06-24T17:28:15.000Z</time>
        <extensions>
          <ns3:TrackPointExtension>
            <ns3:atemp>30.0</ns3:atemp>
            <ns3:hr>113</ns3:hr>
          </ns3:TrackPointExtension>
        </extensions>
      </trkpt>
      <trkpt lat="36.78533180616796016693115234375" lon="-118.549672476947307586669921875">
        <ele>1624.5999755859375</ele>
        <time>2021-06-24T17:28:18.000Z</time>
        <extensions>
          <ns3:TrackPointExtension>
            <ns3:atemp>30.0</ns3:atemp>
            <ns3:hr>110</ns3:hr>
          </ns3:TrackPointExtension>
        </extensions>
      </trkpt>
      <trkpt lat="36.78532208316028118133544921875" lon="-118.549677841365337371826171875">
        <ele>1624.5999755859375</ele>
        <time>2021-06-24T17:28:21.000Z</time>
        <extensions>
          <ns3:TrackPointExtension>
            <ns3:atemp>30.0</ns3:atemp>
            <ns3:hr>107</ns3:hr>
          </ns3:TrackPointExtension>
        </extensions>
      </trkpt>
      <trkpt lat="36.78532191552221775054931640625" lon="-118.549681864678859710693359375">
        <ele>1624.5999755859375</ele>
        <time>2021-06-24T17:28:22.000Z</time>
        <extensions>
          <ns3:TrackPointExtension>
            <ns3:atemp>30.0</ns3:atemp>
            <ns3:hr>107</ns3:hr>
          </ns3:TrackPointExtension>
        </extensions>
      </trkpt>
      <trkpt lat="36.78531579673290252685546875" lon="-118.54970055632293224334716796875">
        <ele>1624.5999755859375</ele>
        <time>2021-06-24T17:28:26.000Z</time>
        <extensions>
          <ns3:TrackPointExtension>
            <ns3:atemp>30.0</ns3:atemp>
            <ns3:hr>104</ns3:hr>
          </ns3:TrackPointExtension>
        </extensions>
      </trkpt>
      <trkpt lat="36.7853097617626190185546875" lon="-118.54972100816667079925537109375">
        <ele>1624.5999755859375</ele>
        <time>2021-06-24T17:28:31.000Z</time>
        <extensions>
          <ns3:TrackPointExtension>
            <ns3:atemp>30.0</ns3:atemp>
            <ns3:hr>101</ns3:hr>
          </ns3:TrackPointExtension>
        </extensions>
      </trkpt>
      <trkpt lat="36.78530632518231868743896484375" lon="-118.5497224330902099609375">
        <ele>1624.5999755859375</ele>
        <time>2021-06-24T17:28:32.000Z</time>
        <extensions>
          <ns3:TrackPointExtension>
            <ns3:atemp>30.0</ns3:atemp>
            <ns3:hr>100</ns3:hr>
          </ns3:TrackPointExtension>
        </extensions>
      </trkpt>
      <trkpt lat="36.7852963507175445556640625" lon="-118.549740202724933624267578125">
        <ele>1624.800048828125</ele>
        <time>2021-06-24T17:28:37.000Z</time>
        <extensions>
          <ns3:TrackPointExtension>
            <ns3:atemp>30.0</ns3:atemp>
            <ns3:hr>99</ns3:hr>
          </ns3:TrackPointExtension>
        </extensions>
      </trkpt>
      <trkpt lat="36.7852831073105335235595703125" lon="-118.54973785579204559326171875">
        <ele>1624.800048828125</ele>
        <time>2021-06-24T17:28:44.000Z</time>
        <extensions>
          <ns3:TrackPointExtension>
            <ns3:atemp>30.0</ns3:atemp>
            <ns3:hr>101</ns3:hr>
          </ns3:TrackPointExtension>
        </extensions>
      </trkpt>
      <trkpt lat="36.7852831073105335235595703125" lon="-118.54973785579204559326171875">
        <ele>1624.800048828125</ele>
        <time>2021-06-24T17:28:52.000Z</time>
        <extensions>
          <ns3:TrackPointExtension>
            <ns3:atemp>30.0</ns3:atemp>
            <ns3:hr>104</ns3:hr>
          </ns3:TrackPointExtension>
        </extensions>
      </trkpt>
      <trkpt lat="36.7852831073105335235595703125" lon="-118.54973911307752132415771484375">
        <ele>1625</ele>
        <time>2021-06-24T17:28:58.000Z</time>
        <extensions>
          <ns3:TrackPointExtension>
            <ns3:atemp>30.0</ns3:atemp>
            <ns3:hr>101</ns3:hr>
          </ns3:TrackPointExtension>
        </extensions>
      </trkpt>
      <trkpt lat="36.7852817662060260772705078125" lon="-118.54974112473428249359130859375">
        <ele>1625</ele>
        <time>2021-06-24T17:29:01.000Z</time>
        <extensions>
          <ns3:TrackPointExtension>
            <ns3:atemp>30.0</ns3:atemp>
            <ns3:hr>98</ns3:hr>
          </ns3:TrackPointExtension>
        </extensions>
      </trkpt>
      <trkpt lat="36.78528050892055034637451171875" lon="-118.54974430985748767852783203125">
        <ele>1625</ele>
        <time>2021-06-24T17:29:03.000Z</time>
        <extensions>
          <ns3:TrackPointExtension>
            <ns3:atemp>30.0</ns3:atemp>
            <ns3:hr>95</ns3:hr>
          </ns3:TrackPointExtension>
        </extensions>
      </trkpt>
      <trkpt lat="36.7852787487208843231201171875" lon="-118.54975260794162750244140625">
        <ele>1625.199951171875</ele>
        <time>2021-06-24T17:29:06.000Z</time>
        <extensions>
          <ns3:TrackPointExtension>
            <ns3:atemp>30.0</ns3:atemp>
            <ns3:hr>92</ns3:hr>
          </ns3:TrackPointExtension>
        </extensions>
      </trkpt>
      <trkpt lat="36.7852753959596157073974609375" lon="-118.549759648740291595458984375">
        <ele>1626.199951171875</ele>
        <time>2021-06-24T17:29:10.000Z</time>
        <extensions>
          <ns3:TrackPointExtension>
            <ns3:atemp>30.0</ns3:atemp>
            <ns3:hr>93</ns3:hr>
          </ns3:TrackPointExtension>
        </extensions>
      </trkpt>
      <trkpt lat="36.78527346812188625335693359375" lon="-118.54976342059671878814697265625">
        <ele>1626.5999755859375</ele>
        <time>2021-06-24T17:29:13.000Z</time>
        <extensions>
          <ns3:TrackPointExtension>
            <ns3:atemp>30.0</ns3:atemp>
            <ns3:hr>96</ns3:hr>
          </ns3:TrackPointExtension>
        </extensions>
      </trkpt>
      <trkpt lat="36.7852717079222202301025390625" lon="-118.5497635044157505035400390625">
        <ele>1627.199951171875</ele>
        <time>2021-06-24T17:29:14.000Z</time>
        <extensions>
          <ns3:TrackPointExtension>
            <ns3:atemp>30.0</ns3:atemp>
            <ns3:hr>98</ns3:hr>
          </ns3:TrackPointExtension>
        </extensions>
      </trkpt>
      <trkpt lat="36.7852479033172130584716796875" lon="-118.54976643808186054229736328125">
        <ele>1627.4000244140625</ele>
        <time>2021-06-24T17:29:16.000Z</time>
        <extensions>
          <ns3:TrackPointExtension>
            <ns3:atemp>30.0</ns3:atemp>
            <ns3:hr>101</ns3:hr>
          </ns3:TrackPointExtension>
        </extensions>
      </trkpt>
      <trkpt lat="36.78521194495260715484619140625" lon="-118.549768365919589996337890625">
        <ele>1627.4000244140625</ele>
        <time>2021-06-24T17:29:18.000Z</time>
        <extensions>
          <ns3:TrackPointExtension>
            <ns3:atemp>30.0</ns3:atemp>
            <ns3:hr>105</ns3:hr>
          </ns3:TrackPointExtension>
        </extensions>
      </trkpt>
      <trkpt lat="36.78517162799835205078125" lon="-118.54977616108953952789306640625">
        <ele>1627.800048828125</ele>
        <time>2021-06-24T17:29:20.000Z</time>
        <extensions>
          <ns3:TrackPointExtension>
            <ns3:atemp>30.0</ns3:atemp>
            <ns3:hr>106</ns3:hr>
          </ns3:TrackPointExtension>
        </extensions>
      </trkpt>
      <trkpt lat="36.785096190869808197021484375" lon="-118.54979409836232662200927734375">
        <ele>1628</ele>
        <time>2021-06-24T17:29:26.000Z</time>
        <extensions>
          <ns3:TrackPointExtension>
            <ns3:atemp>30.0</ns3:atemp>
            <ns3:hr>103</ns3:hr>
          </ns3:TrackPointExtension>
        </extensions>
      </trkpt>
      <trkpt lat="36.7850896529853343963623046875" lon="-118.54980566538870334625244140625">
        <ele>1628.199951171875</ele>
        <time>2021-06-24T17:29:27.000Z</time>
        <extensions>
          <ns3:TrackPointExtension>
            <ns3:atemp>30.0</ns3:atemp>
            <ns3:hr>103</ns3:hr>
          </ns3:TrackPointExtension>
        </extensions>
      </trkpt>
      <trkpt lat="36.78507062606513500213623046875" lon="-118.54981438256800174713134765625">
        <ele>1628.4000244140625</ele>
        <time>2021-06-24T17:29:29.000Z</time>
        <extensions>
          <ns3:TrackPointExtension>
            <ns3:atemp>30.0</ns3:atemp>
            <ns3:hr>102</ns3:hr>
          </ns3:TrackPointExtension>
        </extensions>
      </trkpt>
      <trkpt lat="36.78503223694860935211181640625" lon="-118.5498069226741790771484375">
        <ele>1628.800048828125</ele>
        <time>2021-06-24T17:29:33.000Z</time>
        <extensions>
          <ns3:TrackPointExtension>
            <ns3:atemp>30.0</ns3:atemp>
            <ns3:hr>100</ns3:hr>
          </ns3:TrackPointExtension>
        </extensions>
      </trkpt>
      <trkpt lat="36.785028465092182159423828125" lon="-118.54980583302676677703857421875">
        <ele>1628.800048828125</ele>
        <time>2021-06-24T17:29:34.000Z</time>
        <extensions>
          <ns3:TrackPointExtension>
            <ns3:atemp>30.0</ns3:atemp>
            <ns3:hr>99</ns3:hr>
          </ns3:TrackPointExtension>
        </extensions>
      </trkpt>
      <trkpt lat="36.78502502851188182830810546875" lon="-118.54980918578803539276123046875">
        <ele>1629.199951171875</ele>
        <time>2021-06-24T17:29:35.000Z</time>
        <extensions>
          <ns3:TrackPointExtension>
            <ns3:atemp>30.0</ns3:atemp>
            <ns3:hr>100</ns3:hr>
          </ns3:TrackPointExtension>
        </extensions>
      </trkpt>
      <trkpt lat="36.78502100519835948944091796875" lon="-118.54981220327317714691162109375">
        <ele>1629.4000244140625</ele>
        <time>2021-06-24T17:29:36.000Z</time>
        <extensions>
          <ns3:TrackPointExtension>
            <ns3:atemp>30.0</ns3:atemp>
            <ns3:hr>97</ns3:hr>
          </ns3:TrackPointExtension>
        </extensions>
      </trkpt>
      <trkpt lat="36.78501446731388568878173828125" lon="-118.549812622368335723876953125">
        <ele>1629.4000244140625</ele>
        <time>2021-06-24T17:29:37.000Z</time>
        <extensions>
          <ns3:TrackPointExtension>
            <ns3:atemp>30.0</ns3:atemp>
            <ns3:hr>100</ns3:hr>
          </ns3:TrackPointExtension>
        </extensions>
      </trkpt>
      <trkpt lat="36.7850021459162235260009765625" lon="-118.5498121194541454315185546875">
        <ele>1629.800048828125</ele>
        <time>2021-06-24T17:29:40.000Z</time>
        <extensions>
          <ns3:TrackPointExtension>
            <ns3:atemp>30.0</ns3:atemp>
            <ns3:hr>101</ns3:hr>
          </ns3:TrackPointExtension>
        </extensions>
      </trkpt>
      <trkpt lat="36.78500021807849407196044921875" lon="-118.5498131252825260162353515625">
        <ele>1629.800048828125</ele>
        <time>2021-06-24T17:29:41.000Z</time>
        <extensions>
          <ns3:TrackPointExtension>
            <ns3:atemp>30.0</ns3:atemp>
            <ns3:hr>100</ns3:hr>
          </ns3:TrackPointExtension>
        </extensions>
      </trkpt>
      <trkpt lat="36.78497917950153350830078125" lon="-118.54979418218135833740234375">
        <ele>1630.5999755859375</ele>
        <time>2021-06-24T17:29:45.000Z</time>
        <extensions>
          <ns3:TrackPointExtension>
            <ns3:atemp>30.0</ns3:atemp>
            <ns3:hr>102</ns3:hr>
          </ns3:TrackPointExtension>
        </extensions>
      </trkpt>
      <trkpt lat="36.7849649302661418914794921875" lon="-118.54980465956032276153564453125">
        <ele>1630.800048828125</ele>
        <time>2021-06-24T17:29:46.000Z</time>
        <extensions>
          <ns3:TrackPointExtension>
            <ns3:atemp>30.0</ns3:atemp>
            <ns3:hr>101</ns3:hr>
          </ns3:TrackPointExtension>
        </extensions>
      </trkpt>
      <trkpt lat="36.78493869490921497344970703125" lon="-118.54979686439037322998046875">
        <ele>1631</ele>
        <time>2021-06-24T17:29:49.000Z</time>
        <extensions>
          <ns3:TrackPointExtension>
            <ns3:atemp>30.0</ns3:atemp>
            <ns3:hr>98</ns3:hr>
          </ns3:TrackPointExtension>
        </extensions>
      </trkpt>
      <trkpt lat="36.78493031300604343414306640625" lon="-118.54979091323912143707275390625">
        <ele>1631</ele>
        <time>2021-06-24T17:29:50.000Z</time>
        <extensions>
          <ns3:TrackPointExtension>
            <ns3:atemp>30.0</ns3:atemp>
            <ns3:hr>102</ns3:hr>
          </ns3:TrackPointExtension>
        </extensions>
      </trkpt>
      <trkpt lat="36.78491774015128612518310546875" lon="-118.54977733455598354339599609375">
        <ele>1631.4000244140625</ele>
        <time>2021-06-24T17:29:53.000Z</time>
        <extensions>
          <ns3:TrackPointExtension>
            <ns3:atemp>30.0</ns3:atemp>
            <ns3:hr>103</ns3:hr>
          </ns3:TrackPointExtension>
        </extensions>
      </trkpt>
      <trkpt lat="36.78492008708417415618896484375" lon="-118.5497836209833621978759765625">
        <ele>1631.4000244140625</ele>
        <time>2021-06-24T17:29:54.000Z</time>
        <extensions>
          <ns3:TrackPointExtension>
            <ns3:atemp>30.0</ns3:atemp>
            <ns3:hr>104</ns3:hr>
          </ns3:TrackPointExtension>
        </extensions>
      </trkpt>
      <trkpt lat="36.78492796607315540313720703125" lon="-118.54979476891458034515380859375">
        <ele>1631.5999755859375</ele>
        <time>2021-06-24T17:29:55.000Z</time>
        <extensions>
          <ns3:TrackPointExtension>
            <ns3:atemp>30.0</ns3:atemp>
            <ns3:hr>105</ns3:hr>
          </ns3:TrackPointExtension>
        </extensions>
      </trkpt>
      <trkpt lat="36.7849530279636383056640625" lon="-118.5498444736003875732421875">
        <ele>1631.800048828125</ele>
        <time>2021-06-24T17:29:58.000Z</time>
        <extensions>
          <ns3:TrackPointExtension>
            <ns3:atemp>30.0</ns3:atemp>
            <ns3:hr>106</ns3:hr>
          </ns3:TrackPointExtension>
        </extensions>
      </trkpt>
      <trkpt lat="36.78499317727982997894287109375" lon="-118.54982511140406131744384765625">
        <ele>1632.199951171875</ele>
        <time>2021-06-24T17:30:03.000Z</time>
        <extensions>
          <ns3:TrackPointExtension>
            <ns3:atemp>30.0</ns3:atemp>
            <ns3:hr>107</ns3:hr>
          </ns3:TrackPointExtension>
        </extensions>
      </trkpt>
      <trkpt lat="36.7850018106400966644287109375" lon="-118.5498211719095706939697265625">
        <ele>1632.4000244140625</ele>
        <time>2021-06-24T17:30:04.000Z</time>
        <extensions>
          <ns3:TrackPointExtension>
            <ns3:atemp>30.0</ns3:atemp>
            <ns3:hr>107</ns3:hr>
          </ns3:TrackPointExtension>
        </extensions>
      </trkpt>
      <trkpt lat="36.78500927053391933441162109375" lon="-118.5498124547302722930908203125">
        <ele>1632.5999755859375</ele>
        <time>2021-06-24T17:30:05.000Z</time>
        <extensions>
          <ns3:TrackPointExtension>
            <ns3:atemp>30.0</ns3:atemp>
            <ns3:hr>106</ns3:hr>
          </ns3:TrackPointExtension>
        </extensions>
      </trkpt>
      <trkpt lat="36.7850138805806636810302734375" lon="-118.5498020611703395843505859375">
        <ele>1632.5999755859375</ele>
        <time>2021-06-24T17:30:06.000Z</time>
        <extensions>
          <ns3:TrackPointExtension>
            <ns3:atemp>30.0</ns3:atemp>
            <ns3:hr>106</ns3:hr>
          </ns3:TrackPointExtension>
        </extensions>
      </trkpt>
      <trkpt lat="36.78502167575061321258544921875" lon="-118.5498010553419589996337890625">
        <ele>1632.800048828125</ele>
        <time>2021-06-24T17:30:07.000Z</time>
        <extensions>
          <ns3:TrackPointExtension>
            <ns3:atemp>30.0</ns3:atemp>
            <ns3:hr>107</ns3:hr>
          </ns3:TrackPointExtension>
        </extensions>
      </trkpt>
      <trkpt lat="36.7850343324244022369384765625" lon="-118.54979778639972209930419921875">
        <ele>1633</ele>
        <time>2021-06-24T17:30:09.000Z</time>
        <extensions>
          <ns3:TrackPointExtension>
            <ns3:atemp>30.0</ns3:atemp>
            <ns3:hr>106</ns3:hr>
          </ns3:TrackPointExtension>
        </extensions>
      </trkpt>
      <trkpt lat="36.78508135490119457244873046875" lon="-118.5497618280351161956787109375">
        <ele>1633.5999755859375</ele>
        <time>2021-06-24T17:30:15.000Z</time>
        <extensions>
          <ns3:TrackPointExtension>
            <ns3:atemp>30.0</ns3:atemp>
            <ns3:hr>106</ns3:hr>
          </ns3:TrackPointExtension>
        </extensions>
      </trkpt>
      <trkpt lat="36.78508621640503406524658203125" lon="-118.5497618280351161956787109375">
        <ele>1633.800048828125</ele>
        <time>2021-06-24T17:30:16.000Z</time>
        <extensions>
          <ns3:TrackPointExtension>
            <ns3:atemp>30.0</ns3:atemp>
            <ns3:hr>106</ns3:hr>
          </ns3:TrackPointExtension>
        </extensions>
      </trkpt>
      <trkpt lat="36.7851191572844982147216796875" lon="-118.54973475448787212371826171875">
        <ele>1634.4000244140625</ele>
        <time>2021-06-24T17:30:21.000Z</time>
        <extensions>
          <ns3:TrackPointExtension>
            <ns3:atemp>30.0</ns3:atemp>
            <ns3:hr>108</ns3:hr>
          </ns3:TrackPointExtension>
        </extensions>
      </trkpt>
      <trkpt lat="36.78514639846980571746826171875" lon="-118.54971237480640411376953125">
        <ele>1634.800048828125</ele>
        <time>2021-06-24T17:30:24.000Z</time>
        <extensions>
          <ns3:TrackPointExtension>
            <ns3:atemp>30.0</ns3:atemp>
            <ns3:hr>108</ns3:hr>
          </ns3:TrackPointExtension>
        </extensions>
      </trkpt>
      <trkpt lat="36.7851738072931766510009765625" lon="-118.54969468899071216583251953125">
        <ele>1635</ele>
        <time>2021-06-24T17:30:28.000Z</time>
        <extensions>
          <ns3:TrackPointExtension>
            <ns3:atemp>30.0</ns3:atemp>
            <ns3:hr>108</ns3:hr>
          </ns3:TrackPointExtension>
        </extensions>
      </trkpt>
      <trkpt lat="36.78524949587881565093994140625" lon="-118.54961774311959743499755859375">
        <ele>1635.4000244140625</ele>
        <time>2021-06-24T17:30:37.000Z</time>
        <extensions>
          <ns3:TrackPointExtension>
            <ns3:atemp>30.0</ns3:atemp>
            <ns3:hr>107</ns3:hr>
          </ns3:TrackPointExtension>
        </extensions>
      </trkpt>
      <trkpt lat="36.78531085141003131866455078125" lon="-118.54957767762243747711181640625">
        <ele>1635</ele>
        <time>2021-06-24T17:30:42.000Z</time>
        <extensions>
          <ns3:TrackPointExtension>
            <ns3:atemp>30.0</ns3:atemp>
            <ns3:hr>107</ns3:hr>
          </ns3:TrackPointExtension>
        </extensions>
      </trkpt>
      <trkpt lat="36.78532644174993038177490234375" lon="-118.54955739341676235198974609375">
        <ele>1634.800048828125</ele>
        <time>2021-06-24T17:30:44.000Z</time>
        <extensions>
          <ns3:TrackPointExtension>
            <ns3:atemp>30.0</ns3:atemp>
            <ns3:hr>105</ns3:hr>
          </ns3:TrackPointExtension>
        </extensions>
      </trkpt>
      <trkpt lat="36.7853333987295627593994140625" lon="-118.54954884387552738189697265625">
        <ele>1635</ele>
        <time>2021-06-24T17:30:45.000Z</time>
        <extensions>
          <ns3:TrackPointExtension>
            <ns3:atemp>30.0</ns3:atemp>
            <ns3:hr>107</ns3:hr>
          </ns3:TrackPointExtension>
        </extensions>
      </trkpt>
      <trkpt lat="36.78534689359366893768310546875" lon="-118.549545742571353912353515625">
        <ele>1635</ele>
        <time>2021-06-24T17:30:48.000Z</time>
        <extensions>
          <ns3:TrackPointExtension>
            <ns3:atemp>30.0</ns3:atemp>
            <ns3:hr>105</ns3:hr>
          </ns3:TrackPointExtension>
        </extensions>
      </trkpt>
      <trkpt lat="36.78535225801169872283935546875" lon="-118.54952990077435970306396484375">
        <ele>1635</ele>
        <time>2021-06-24T17:30:49.000Z</time>
        <extensions>
          <ns3:TrackPointExtension>
            <ns3:atemp>30.0</ns3:atemp>
            <ns3:hr>106</ns3:hr>
          </ns3:TrackPointExtension>
        </extensions>
      </trkpt>
      <trkpt lat="36.7853924073278903961181640625" lon="-118.549477346241474151611328125">
        <ele>1635.800048828125</ele>
        <time>2021-06-24T17:30:54.000Z</time>
        <extensions>
          <ns3:TrackPointExtension>
            <ns3:atemp>30.0</ns3:atemp>
            <ns3:hr>103</ns3:hr>
          </ns3:TrackPointExtension>
        </extensions>
      </trkpt>
      <trkpt lat="36.78540891967713832855224609375" lon="-118.5494664497673511505126953125">
        <ele>1635.800048828125</ele>
        <time>2021-06-24T17:30:56.000Z</time>
        <extensions>
          <ns3:TrackPointExtension>
            <ns3:atemp>30.0</ns3:atemp>
            <ns3:hr>104</ns3:hr>
          </ns3:TrackPointExtension>
        </extensions>
      </trkpt>
      <trkpt lat="36.78541931323707103729248046875" lon="-118.54947055689990520477294921875">
        <ele>1636</ele>
        <time>2021-06-24T17:30:58.000Z</time>
        <extensions>
          <ns3:TrackPointExtension>
            <ns3:atemp>30.0</ns3:atemp>
            <ns3:hr>106</ns3:hr>
          </ns3:TrackPointExtension>
        </extensions>
      </trkpt>
      <trkpt lat="36.785443536937236785888671875" lon="-118.549458570778369903564453125">
        <ele>1636.4000244140625</ele>
        <time>2021-06-24T17:31:01.000Z</time>
        <extensions>
          <ns3:TrackPointExtension>
            <ns3:atemp>30.0</ns3:atemp>
            <ns3:hr>109</ns3:hr>
          </ns3:TrackPointExtension>
        </extensions>
      </trkpt>
      <trkpt lat="36.78546759299933910369873046875" lon="-118.54943417944014072418212890625">
        <ele>1636.800048828125</ele>
        <time>2021-06-24T17:31:04.000Z</time>
        <extensions>
          <ns3:TrackPointExtension>
            <ns3:atemp>30.0</ns3:atemp>
            <ns3:hr>109</ns3:hr>
          </ns3:TrackPointExtension>
        </extensions>
      </trkpt>
      <trkpt lat="36.78548184223473072052001953125" lon="-118.5494185052812099456787109375">
        <ele>1636.800048828125</ele>
        <time>2021-06-24T17:31:05.000Z</time>
        <extensions>
          <ns3:TrackPointExtension>
            <ns3:atemp>30.0</ns3:atemp>
            <ns3:hr>109</ns3:hr>
          </ns3:TrackPointExtension>
        </extensions>
      </trkpt>
      <trkpt lat="36.785554848611354827880859375" lon="-118.54935555718839168548583984375">
        <ele>1637.199951171875</ele>
        <time>2021-06-24T17:31:11.000Z</time>
        <extensions>
          <ns3:TrackPointExtension>
            <ns3:atemp>30.0</ns3:atemp>
            <ns3:hr>109</ns3:hr>
          </ns3:TrackPointExtension>
        </extensions>
      </trkpt>
      <trkpt lat="36.78556851111352443695068359375" lon="-118.5493484325706958770751953125">
        <ele>1637.199951171875</ele>
        <time>2021-06-24T17:31:12.000Z</time>
        <extensions>
          <ns3:TrackPointExtension>
            <ns3:atemp>30.0</ns3:atemp>
            <ns3:hr>108</ns3:hr>
          </ns3:TrackPointExtension>
        </extensions>
      </trkpt>
      <trkpt lat="36.78559742867946624755859375" lon="-118.54930895380675792694091796875">
        <ele>1637</ele>
        <time>2021-06-24T17:31:16.000Z</time>
        <extensions>
          <ns3:TrackPointExtension>
            <ns3:atemp>30.0</ns3:atemp>
            <ns3:hr>107</ns3:hr>
          </ns3:TrackPointExtension>
        </extensions>
      </trkpt>
      <trkpt lat="36.78563372232019901275634765625" lon="-118.5492609255015850067138671875">
        <ele>1637</ele>
        <time>2021-06-24T17:31:23.000Z</time>
        <extensions>
          <ns3:TrackPointExtension>
            <ns3:atemp>30.0</ns3:atemp>
            <ns3:hr>104</ns3:hr>
          </ns3:TrackPointExtension>
        </extensions>
      </trkpt>
      <trkpt lat="36.78563363850116729736328125" lon="-118.54923225939273834228515625">
        <ele>1636.800048828125</ele>
        <time>2021-06-24T17:31:24.000Z</time>
        <extensions>
          <ns3:TrackPointExtension>
            <ns3:atemp>30.0</ns3:atemp>
            <ns3:hr>106</ns3:hr>
          </ns3:TrackPointExtension>
        </extensions>
      </trkpt>
      <trkpt lat="36.78564914502203464508056640625" lon="-118.54913947172462940216064453125">
        <ele>1636.5999755859375</ele>
        <time>2021-06-24T17:31:29.000Z</time>
        <extensions>
          <ns3:TrackPointExtension>
            <ns3:atemp>30.0</ns3:atemp>
            <ns3:hr>104</ns3:hr>
          </ns3:TrackPointExtension>
        </extensions>
      </trkpt>
      <trkpt lat="36.78565199486911296844482421875" lon="-118.5491167567670345306396484375">
        <ele>1636.5999755859375</ele>
        <time>2021-06-24T17:31:31.000Z</time>
        <extensions>
          <ns3:TrackPointExtension>
            <ns3:atemp>30.0</ns3:atemp>
            <ns3:hr>103</ns3:hr>
          </ns3:TrackPointExtension>
        </extensions>
      </trkpt>
      <trkpt lat="36.78568770177662372589111328125" lon="-118.54904450476169586181640625">
        <ele>1637.4000244140625</ele>
        <time>2021-06-24T17:31:39.000Z</time>
        <extensions>
          <ns3:TrackPointExtension>
            <ns3:atemp>30.0</ns3:atemp>
            <ns3:hr>101</ns3:hr>
          </ns3:TrackPointExtension>
        </extensions>
      </trkpt>
      <trkpt lat="36.78569725714623928070068359375" lon="-118.54903645813465118408203125">
        <ele>1637.4000244140625</ele>
        <time>2021-06-24T17:31:40.000Z</time>
        <extensions>
          <ns3:TrackPointExtension>
            <ns3:atemp>30.0</ns3:atemp>
            <ns3:hr>102</ns3:hr>
          </ns3:TrackPointExtension>
        </extensions>
      </trkpt>
      <trkpt lat="36.78571267984807491302490234375" lon="-118.54900854639708995819091796875">
        <ele>1637.800048828125</ele>
        <time>2021-06-24T17:31:44.000Z</time>
        <extensions>
          <ns3:TrackPointExtension>
            <ns3:atemp>30.0</ns3:atemp>
            <ns3:hr>100</ns3:hr>
          </ns3:TrackPointExtension>
        </extensions>
      </trkpt>
      <trkpt lat="36.7857174575328826904296875" lon="-118.54900368489325046539306640625">
        <ele>1638</ele>
        <time>2021-06-24T17:31:45.000Z</time>
        <extensions>
          <ns3:TrackPointExtension>
            <ns3:atemp>30.0</ns3:atemp>
            <ns3:hr>99</ns3:hr>
          </ns3:TrackPointExtension>
        </extensions>
      </trkpt>
      <trkpt lat="36.78572558797895908355712890625" lon="-118.54900184087455272674560546875">
        <ele>1638</ele>
        <time>2021-06-24T17:31:46.000Z</time>
        <extensions>
          <ns3:TrackPointExtension>
            <ns3:atemp>30.0</ns3:atemp>
            <ns3:hr>99</ns3:hr>
          </ns3:TrackPointExtension>
        </extensions>
      </trkpt>
      <trkpt lat="36.78576665930449962615966796875" lon="-118.5489678941667079925537109375">
        <ele>1638.800048828125</ele>
        <time>2021-06-24T17:31:51.000Z</time>
        <extensions>
          <ns3:TrackPointExtension>
            <ns3:atemp>30.0</ns3:atemp>
            <ns3:hr>99</ns3:hr>
          </ns3:TrackPointExtension>
        </extensions>
      </trkpt>
      <trkpt lat="36.7857925593852996826171875" lon="-118.54894232936203479766845703125">
        <ele>1639.199951171875</ele>
        <time>2021-06-24T17:31:55.000Z</time>
        <extensions>
          <ns3:TrackPointExtension>
            <ns3:atemp>30.0</ns3:atemp>
            <ns3:hr>99</ns3:hr>
          </ns3:TrackPointExtension>
        </extensions>
      </trkpt>
      <trkpt lat="36.78581929765641689300537109375" lon="-118.5488855838775634765625">
        <ele>1639.800048828125</ele>
        <time>2021-06-24T17:32:00.000Z</time>
        <extensions>
          <ns3:TrackPointExtension>
            <ns3:atemp>30.0</ns3:atemp>
            <ns3:hr>102</ns3:hr>
          </ns3:TrackPointExtension>
        </extensions>
      </trkpt>
      <trkpt lat="36.785823404788970947265625" lon="-118.54887711815536022186279296875">
        <ele>1640.199951171875</ele>
        <time>2021-06-24T17:32:01.000Z</time>
        <extensions>
          <ns3:TrackPointExtension>
            <ns3:atemp>30.0</ns3:atemp>
            <ns3:hr>102</ns3:hr>
          </ns3:TrackPointExtension>
        </extensions>
      </trkpt>
      <trkpt lat="36.78583589382469654083251953125" lon="-118.5488574206829071044921875">
        <ele>1640.4000244140625</ele>
        <time>2021-06-24T17:32:03.000Z</time>
        <extensions>
          <ns3:TrackPointExtension>
            <ns3:atemp>30.0</ns3:atemp>
            <ns3:hr>103</ns3:hr>
          </ns3:TrackPointExtension>
        </extensions>
      </trkpt>
      <trkpt lat="36.7858400009572505950927734375" lon="-118.54885180480778217315673828125">
        <ele>1640.5999755859375</ele>
        <time>2021-06-24T17:32:04.000Z</time>
        <extensions>
          <ns3:TrackPointExtension>
            <ns3:atemp>30.0</ns3:atemp>
            <ns3:hr>99</ns3:hr>
          </ns3:TrackPointExtension>
        </extensions>
      </trkpt>
      <trkpt lat="36.78585064597427845001220703125" lon="-118.548820205032825469970703125">
        <ele>1640.800048828125</ele>
        <time>2021-06-24T17:32:07.000Z</time>
        <extensions>
          <ns3:TrackPointExtension>
            <ns3:atemp>30.0</ns3:atemp>
            <ns3:hr>104</ns3:hr>
          </ns3:TrackPointExtension>
        </extensions>
      </trkpt>
      <trkpt lat="36.785864643752574920654296875" lon="-118.54880335740745067596435546875">
        <ele>1641</ele>
        <time>2021-06-24T17:32:10.000Z</time>
        <extensions>
          <ns3:TrackPointExtension>
            <ns3:atemp>30.0</ns3:atemp>
            <ns3:hr>104</ns3:hr>
          </ns3:TrackPointExtension>
        </extensions>
      </trkpt>
      <trkpt lat="36.785876713693141937255859375" lon="-118.5487801395356655120849609375">
        <ele>1641.199951171875</ele>
        <time>2021-06-24T17:32:12.000Z</time>
        <extensions>
          <ns3:TrackPointExtension>
            <ns3:atemp>30.0</ns3:atemp>
            <ns3:hr>103</ns3:hr>
          </ns3:TrackPointExtension>
        </extensions>
      </trkpt>
      <trkpt lat="36.7858832515776157379150390625" lon="-118.5487647168338298797607421875">
        <ele>1641.5999755859375</ele>
        <time>2021-06-24T17:32:13.000Z</time>
        <extensions>
          <ns3:TrackPointExtension>
            <ns3:atemp>30.0</ns3:atemp>
            <ns3:hr>103</ns3:hr>
          </ns3:TrackPointExtension>
        </extensions>
      </trkpt>
      <trkpt lat="36.78590076975524425506591796875" lon="-118.5487348772585391998291015625">
        <ele>1641.5999755859375</ele>
        <time>2021-06-24T17:32:15.000Z</time>
        <extensions>
          <ns3:TrackPointExtension>
            <ns3:atemp>30.0</ns3:atemp>
            <ns3:hr>104</ns3:hr>
          </ns3:TrackPointExtension>
        </extensions>
      </trkpt>
      <trkpt lat="36.7859177850186824798583984375" lon="-118.54870176874101161956787109375">
        <ele>1642.199951171875</ele>
        <time>2021-06-24T17:32:19.000Z</time>
        <extensions>
          <ns3:TrackPointExtension>
            <ns3:atemp>30.0</ns3:atemp>
            <ns3:hr>104</ns3:hr>
          </ns3:TrackPointExtension>
        </extensions>
      </trkpt>
      <trkpt lat="36.78592356853187084197998046875" lon="-118.54868148453533649444580078125">
        <ele>1642.4000244140625</ele>
        <time>2021-06-24T17:32:22.000Z</time>
        <extensions>
          <ns3:TrackPointExtension>
            <ns3:atemp>30.0</ns3:atemp>
            <ns3:hr>105</ns3:hr>
          </ns3:TrackPointExtension>
        </extensions>
      </trkpt>
      <trkpt lat="36.78592625074088573455810546875" lon="-118.54867704212665557861328125">
        <ele>1642.800048828125</ele>
        <time>2021-06-24T17:32:23.000Z</time>
        <extensions>
          <ns3:TrackPointExtension>
            <ns3:atemp>30.0</ns3:atemp>
            <ns3:hr>106</ns3:hr>
          </ns3:TrackPointExtension>
        </extensions>
      </trkpt>
      <trkpt lat="36.78593329153954982757568359375" lon="-118.54865801520645618438720703125">
        <ele>1643.199951171875</ele>
        <time>2021-06-24T17:32:25.000Z</time>
        <extensions>
          <ns3:TrackPointExtension>
            <ns3:atemp>30.0</ns3:atemp>
            <ns3:hr>104</ns3:hr>
          </ns3:TrackPointExtension>
        </extensions>
      </trkpt>
      <trkpt lat="36.78593932650983333587646484375" lon="-118.54865097440779209136962890625">
        <ele>1643.4000244140625</ele>
        <time>2021-06-24T17:32:26.000Z</time>
        <extensions>
          <ns3:TrackPointExtension>
            <ns3:atemp>30.0</ns3:atemp>
            <ns3:hr>102</ns3:hr>
          </ns3:TrackPointExtension>
        </extensions>
      </trkpt>
      <trkpt lat="36.78594435565173625946044921875" lon="-118.548617027699947357177734375">
        <ele>1643.5999755859375</ele>
        <time>2021-06-24T17:32:28.000Z</time>
        <extensions>
          <ns3:TrackPointExtension>
            <ns3:atemp>30.0</ns3:atemp>
            <ns3:hr>101</ns3:hr>
          </ns3:TrackPointExtension>
        </extensions>
      </trkpt>
      <trkpt lat="36.7859667353332042694091796875" lon="-118.548588193953037261962890625">
        <ele>1644.4000244140625</ele>
        <time>2021-06-24T17:32:32.000Z</time>
        <extensions>
          <ns3:TrackPointExtension>
            <ns3:atemp>30.0</ns3:atemp>
            <ns3:hr>104</ns3:hr>
          </ns3:TrackPointExtension>
        </extensions>
      </trkpt>
      <trkpt lat="36.78598090074956417083740234375" lon="-118.548570759594440460205078125">
        <ele>1644.800048828125</ele>
        <time>2021-06-24T17:32:35.000Z</time>
        <extensions>
          <ns3:TrackPointExtension>
            <ns3:atemp>30.0</ns3:atemp>
            <ns3:hr>104</ns3:hr>
          </ns3:TrackPointExtension>
        </extensions>
      </trkpt>
      <trkpt lat="36.78598928265273571014404296875" lon="-118.54855827055871486663818359375">
        <ele>1644.800048828125</ele>
        <time>2021-06-24T17:32:37.000Z</time>
        <extensions>
          <ns3:TrackPointExtension>
            <ns3:atemp>30.0</ns3:atemp>
            <ns3:hr>109</ns3:hr>
          </ns3:TrackPointExtension>
        </extensions>
      </trkpt>
      <trkpt lat="36.7860203795135021209716796875" lon="-118.54851351119577884674072265625">
        <ele>1645.4000244140625</ele>
        <time>2021-06-24T17:32:41.000Z</time>
        <extensions>
          <ns3:TrackPointExtension>
            <ns3:atemp>30.0</ns3:atemp>
            <ns3:hr>112</ns3:hr>
          </ns3:TrackPointExtension>
        </extensions>
      </trkpt>
      <trkpt lat="36.78603387437760829925537109375" lon="-118.54848233051598072052001953125">
        <ele>1646</ele>
        <time>2021-06-24T17:32:45.000Z</time>
        <extensions>
          <ns3:TrackPointExtension>
            <ns3:atemp>30.0</ns3:atemp>
            <ns3:hr>115</ns3:hr>
          </ns3:TrackPointExtension>
        </extensions>
      </trkpt>
      <trkpt lat="36.78603890351951122283935546875" lon="-118.5484685003757476806640625">
        <ele>1646.199951171875</ele>
        <time>2021-06-24T17:32:47.000Z</time>
        <extensions>
          <ns3:TrackPointExtension>
            <ns3:atemp>30.0</ns3:atemp>
            <ns3:hr>115</ns3:hr>
          </ns3:TrackPointExtension>
        </extensions>
      </trkpt>
      <trkpt lat="36.7860475368797779083251953125" lon="-118.5484562627971172332763671875">
        <ele>1646.5999755859375</ele>
        <time>2021-06-24T17:32:50.000Z</time>
        <extensions>
          <ns3:TrackPointExtension>
            <ns3:atemp>30.0</ns3:atemp>
            <ns3:hr>116</ns3:hr>
          </ns3:TrackPointExtension>
        </extensions>
      </trkpt>
      <trkpt lat="36.78606874309480190277099609375" lon="-118.548454754054546356201171875">
        <ele>1647</ele>
        <time>2021-06-24T17:32:52.000Z</time>
        <extensions>
          <ns3:TrackPointExtension>
            <ns3:atemp>30.0</ns3:atemp>
            <ns3:hr>116</ns3:hr>
          </ns3:TrackPointExtension>
        </extensions>
      </trkpt>
      <trkpt lat="36.78606639616191387176513671875" lon="-118.54845031164586544036865234375">
        <ele>1647</ele>
        <time>2021-06-24T17:32:53.000Z</time>
        <extensions>
          <ns3:TrackPointExtension>
            <ns3:atemp>30.0</ns3:atemp>
            <ns3:hr>116</ns3:hr>
          </ns3:TrackPointExtension>
        </extensions>
      </trkpt>
      <trkpt lat="36.78609430789947509765625" lon="-118.5484009422361850738525390625">
        <ele>1647.800048828125</ele>
        <time>2021-06-24T17:32:58.000Z</time>
        <extensions>
          <ns3:TrackPointExtension>
            <ns3:atemp>30.0</ns3:atemp>
            <ns3:hr>116</ns3:hr>
          </ns3:TrackPointExtension>
        </extensions>
      </trkpt>
      <trkpt lat="36.78609766066074371337890625" lon="-118.548394404351711273193359375">
        <ele>1647.800048828125</ele>
        <time>2021-06-24T17:32:59.000Z</time>
        <extensions>
          <ns3:TrackPointExtension>
            <ns3:atemp>30.0</ns3:atemp>
            <ns3:hr>116</ns3:hr>
          </ns3:TrackPointExtension>
        </extensions>
      </trkpt>
      <trkpt lat="36.7861055396497249603271484375" lon="-118.54838023893535137176513671875">
        <ele>1647.800048828125</ele>
        <time>2021-06-24T17:33:01.000Z</time>
        <extensions>
          <ns3:TrackPointExtension>
            <ns3:atemp>30.0</ns3:atemp>
            <ns3:hr>118</ns3:hr>
          </ns3:TrackPointExtension>
        </extensions>
      </trkpt>
      <trkpt lat="36.78612138144671916961669921875" lon="-118.54831553064286708831787109375">
        <ele>1648</ele>
        <time>2021-06-24T17:33:07.000Z</time>
        <extensions>
          <ns3:TrackPointExtension>
            <ns3:atemp>30.0</ns3:atemp>
            <ns3:hr>117</ns3:hr>
          </ns3:TrackPointExtension>
        </extensions>
      </trkpt>
      <trkpt lat="36.78614594042301177978515625" lon="-118.54827026836574077606201171875">
        <ele>1648.800048828125</ele>
        <time>2021-06-24T17:33:12.000Z</time>
        <extensions>
          <ns3:TrackPointExtension>
            <ns3:atemp>30.0</ns3:atemp>
            <ns3:hr>118</ns3:hr>
          </ns3:TrackPointExtension>
        </extensions>
      </trkpt>
      <trkpt lat="36.78615759126842021942138671875" lon="-118.548252917826175689697265625">
        <ele>1648.800048828125</ele>
        <time>2021-06-24T17:33:14.000Z</time>
        <extensions>
          <ns3:TrackPointExtension>
            <ns3:atemp>30.0</ns3:atemp>
            <ns3:hr>119</ns3:hr>
          </ns3:TrackPointExtension>
        </extensions>
      </trkpt>
      <trkpt lat="36.78616982884705066680908203125" lon="-118.54817085899412631988525390625">
        <ele>1649.800048828125</ele>
        <time>2021-06-24T17:33:20.000Z</time>
        <extensions>
          <ns3:TrackPointExtension>
            <ns3:atemp>30.0</ns3:atemp>
            <ns3:hr>120</ns3:hr>
          </ns3:TrackPointExtension>
        </extensions>
      </trkpt>
      <trkpt lat="36.786122135818004608154296875" lon="-118.54816214181482791900634765625">
        <ele>1650.199951171875</ele>
        <time>2021-06-24T17:33:25.000Z</time>
        <extensions>
          <ns3:TrackPointExtension>
            <ns3:atemp>30.0</ns3:atemp>
            <ns3:hr>120</ns3:hr>
          </ns3:TrackPointExtension>
        </extensions>
      </trkpt>
      <trkpt lat="36.7860689945518970489501953125" lon="-118.5481759719550609588623046875">
        <ele>1650.5999755859375</ele>
        <time>2021-06-24T17:33:31.000Z</time>
        <extensions>
          <ns3:TrackPointExtension>
            <ns3:atemp>30.0</ns3:atemp>
            <ns3:hr>120</ns3:hr>
          </ns3:TrackPointExtension>
        </extensions>
      </trkpt>
      <trkpt lat="36.7860495485365390777587890625" lon="-118.5481793247163295745849609375">
        <ele>1650.5999755859375</ele>
        <time>2021-06-24T17:33:33.000Z</time>
        <extensions>
          <ns3:TrackPointExtension>
            <ns3:atemp>30.0</ns3:atemp>
            <ns3:hr>119</ns3:hr>
          </ns3:TrackPointExtension>
        </extensions>
      </trkpt>
      <trkpt lat="36.78603387437760829925537109375" lon="-118.5481927357614040374755859375">
        <ele>1651</ele>
        <time>2021-06-24T17:33:36.000Z</time>
        <extensions>
          <ns3:TrackPointExtension>
            <ns3:atemp>30.0</ns3:atemp>
            <ns3:hr>120</ns3:hr>
          </ns3:TrackPointExtension>
        </extensions>
      </trkpt>
      <trkpt lat="36.78602834232151508331298828125" lon="-118.5481940768659114837646484375">
        <ele>1651</ele>
        <time>2021-06-24T17:33:37.000Z</time>
        <extensions>
          <ns3:TrackPointExtension>
            <ns3:atemp>30.0</ns3:atemp>
            <ns3:hr>122</ns3:hr>
          </ns3:TrackPointExtension>
        </extensions>
      </trkpt>
      <trkpt lat="36.7860156856477260589599609375" lon="-118.548208661377429962158203125">
        <ele>1651</ele>
        <time>2021-06-24T17:33:39.000Z</time>
        <extensions>
          <ns3:TrackPointExtension>
            <ns3:atemp>30.0</ns3:atemp>
            <ns3:hr>119</ns3:hr>
          </ns3:TrackPointExtension>
        </extensions>
      </trkpt>
      <trkpt lat="36.785981319844722747802734375" lon="-118.548217378556728363037109375">
        <ele>1651.4000244140625</ele>
        <time>2021-06-24T17:33:43.000Z</time>
        <extensions>
          <ns3:TrackPointExtension>
            <ns3:atemp>30.0</ns3:atemp>
            <ns3:hr>118</ns3:hr>
          </ns3:TrackPointExtension>
        </extensions>
      </trkpt>
      <trkpt lat="36.7859400808811187744140625" lon="-118.54826875962316989898681640625">
        <ele>1652</ele>
        <time>2021-06-24T17:33:50.000Z</time>
        <extensions>
          <ns3:TrackPointExtension>
            <ns3:atemp>30.0</ns3:atemp>
            <ns3:hr>116</ns3:hr>
          </ns3:TrackPointExtension>
        </extensions>
      </trkpt>
      <trkpt lat="36.7859094031155109405517578125" lon="-118.54829306714236736297607421875">
        <ele>1652.800048828125</ele>
        <time>2021-06-24T17:33:55.000Z</time>
        <extensions>
          <ns3:TrackPointExtension>
            <ns3:atemp>30.0</ns3:atemp>
            <ns3:hr>118</ns3:hr>
          </ns3:TrackPointExtension>
        </extensions>
      </trkpt>
      <trkpt lat="36.7858983390033245086669921875" lon="-118.548305220901966094970703125">
        <ele>1653.199951171875</ele>
        <time>2021-06-24T17:33:57.000Z</time>
        <extensions>
          <ns3:TrackPointExtension>
            <ns3:atemp>30.0</ns3:atemp>
            <ns3:hr>119</ns3:hr>
          </ns3:TrackPointExtension>
        </extensions>
      </trkpt>
      <trkpt lat="36.785882748663425445556640625" lon="-118.5483275167644023895263671875">
        <ele>1653.5999755859375</ele>
        <time>2021-06-24T17:33:59.000Z</time>
        <extensions>
          <ns3:TrackPointExtension>
            <ns3:atemp>30.0</ns3:atemp>
            <ns3:hr>116</ns3:hr>
          </ns3:TrackPointExtension>
        </extensions>
      </trkpt>
      <trkpt lat="36.78586967289447784423828125" lon="-118.54834151454269886016845703125">
        <ele>1654</ele>
        <time>2021-06-24T17:34:01.000Z</time>
        <extensions>
          <ns3:TrackPointExtension>
            <ns3:atemp>30.0</ns3:atemp>
            <ns3:hr>115</ns3:hr>
          </ns3:TrackPointExtension>
        </extensions>
      </trkpt>
      <trkpt lat="36.7858674935996532440185546875" lon="-118.54835459031164646148681640625">
        <ele>1654.4000244140625</ele>
        <time>2021-06-24T17:34:03.000Z</time>
        <extensions>
          <ns3:TrackPointExtension>
            <ns3:atemp>30.0</ns3:atemp>
            <ns3:hr>115</ns3:hr>
          </ns3:TrackPointExtension>
        </extensions>
      </trkpt>
      <trkpt lat="36.78586606867611408233642578125" lon="-118.54836431331932544708251953125">
        <ele>1654.5999755859375</ele>
        <time>2021-06-24T17:34:04.000Z</time>
        <extensions>
          <ns3:TrackPointExtension>
            <ns3:atemp>30.0</ns3:atemp>
            <ns3:hr>115</ns3:hr>
          </ns3:TrackPointExtension>
        </extensions>
      </trkpt>
      <trkpt lat="36.78586875088512897491455078125" lon="-118.548384346067905426025390625">
        <ele>1655</ele>
        <time>2021-06-24T17:34:06.000Z</time>
        <extensions>
          <ns3:TrackPointExtension>
            <ns3:atemp>30.0</ns3:atemp>
            <ns3:hr>115</ns3:hr>
          </ns3:TrackPointExtension>
        </extensions>
      </trkpt>
      <trkpt lat="36.785857938230037689208984375" lon="-118.54839264415204524993896484375">
        <ele>1655.199951171875</ele>
        <time>2021-06-24T17:34:08.000Z</time>
        <extensions>
          <ns3:TrackPointExtension>
            <ns3:atemp>30.0</ns3:atemp>
            <ns3:hr>115</ns3:hr>
          </ns3:TrackPointExtension>
        </extensions>
      </trkpt>
      <trkpt lat="36.7858500592410564422607421875" lon="-118.54839675128459930419921875">
        <ele>1655.199951171875</ele>
        <time>2021-06-24T17:34:09.000Z</time>
        <extensions>
          <ns3:TrackPointExtension>
            <ns3:atemp>30.0</ns3:atemp>
            <ns3:hr>115</ns3:hr>
          </ns3:TrackPointExtension>
        </extensions>
      </trkpt>
      <trkpt lat="36.78584025241434574127197265625" lon="-118.5483962483704090118408203125">
        <ele>1655.4000244140625</ele>
        <time>2021-06-24T17:34:10.000Z</time>
        <extensions>
          <ns3:TrackPointExtension>
            <ns3:atemp>30.0</ns3:atemp>
            <ns3:hr>117</ns3:hr>
          </ns3:TrackPointExtension>
        </extensions>
      </trkpt>
      <trkpt lat="36.7858235724270343780517578125" lon="-118.54839582927525043487548828125">
        <ele>1655.5999755859375</ele>
        <time>2021-06-24T17:34:12.000Z</time>
        <extensions>
          <ns3:TrackPointExtension>
            <ns3:atemp>31.0</ns3:atemp>
            <ns3:hr>114</ns3:hr>
          </ns3:TrackPointExtension>
        </extensions>
      </trkpt>
      <trkpt lat="36.7857950739562511444091796875" lon="-118.54841795749962329864501953125">
        <ele>1656.199951171875</ele>
        <time>2021-06-24T17:34:17.000Z</time>
        <extensions>
          <ns3:TrackPointExtension>
            <ns3:atemp>30.0</ns3:atemp>
            <ns3:hr>113</ns3:hr>
          </ns3:TrackPointExtension>
        </extensions>
      </trkpt>
      <trkpt lat="36.78577705286443233489990234375" lon="-118.5484250821173191070556640625">
        <ele>1656.199951171875</ele>
        <time>2021-06-24T17:34:20.000Z</time>
        <extensions>
          <ns3:TrackPointExtension>
            <ns3:atemp>31.0</ns3:atemp>
            <ns3:hr>113</ns3:hr>
          </ns3:TrackPointExtension>
        </extensions>
      </trkpt>
      <trkpt lat="36.785772107541561126708984375" lon="-118.54842483066022396087646484375">
        <ele>1656.4000244140625</ele>
        <time>2021-06-24T17:34:22.000Z</time>
        <extensions>
          <ns3:TrackPointExtension>
            <ns3:atemp>30.0</ns3:atemp>
            <ns3:hr>112</ns3:hr>
          </ns3:TrackPointExtension>
        </extensions>
      </trkpt>
      <trkpt lat="36.78577168844640254974365234375" lon="-118.54843354783952236175537109375">
        <ele>1656.4000244140625</ele>
        <time>2021-06-24T17:34:23.000Z</time>
        <extensions>
          <ns3:TrackPointExtension>
            <ns3:atemp>30.0</ns3:atemp>
            <ns3:hr>111</ns3:hr>
          </ns3:TrackPointExtension>
        </extensions>
      </trkpt>
      <trkpt lat="36.785775460302829742431640625" lon="-118.54844276793301105499267578125">
        <ele>1656.4000244140625</ele>
        <time>2021-06-24T17:34:24.000Z</time>
        <extensions>
          <ns3:TrackPointExtension>
            <ns3:atemp>31.0</ns3:atemp>
            <ns3:hr>111</ns3:hr>
          </ns3:TrackPointExtension>
        </extensions>
      </trkpt>
      <trkpt lat="36.78574536927044391632080078125" lon="-118.54845131747424602508544921875">
        <ele>1656.4000244140625</ele>
        <time>2021-06-24T17:34:30.000Z</time>
        <extensions>
          <ns3:TrackPointExtension>
            <ns3:atemp>31.0</ns3:atemp>
            <ns3:hr>110</ns3:hr>
          </ns3:TrackPointExtension>
        </extensions>
      </trkpt>
      <trkpt lat="36.78574134595692157745361328125" lon="-118.5484631359577178955078125">
        <ele>1656.4000244140625</ele>
        <time>2021-06-24T17:34:32.000Z</time>
        <extensions>
          <ns3:TrackPointExtension>
            <ns3:atemp>31.0</ns3:atemp>
            <ns3:hr>107</ns3:hr>
          </ns3:TrackPointExtension>
        </extensions>
      </trkpt>
      <trkpt lat="36.78573195822536945343017578125" lon="-118.54847663082182407379150390625">
        <ele>1656.5999755859375</ele>
        <time>2021-06-24T17:34:36.000Z</time>
        <extensions>
          <ns3:TrackPointExtension>
            <ns3:atemp>31.0</ns3:atemp>
            <ns3:hr>107</ns3:hr>
          </ns3:TrackPointExtension>
        </extensions>
      </trkpt>
      <trkpt lat="36.7857206426560878753662109375" lon="-118.548464477062225341796875">
        <ele>1657</ele>
        <time>2021-06-24T17:34:38.000Z</time>
        <extensions>
          <ns3:TrackPointExtension>
            <ns3:atemp>31.0</ns3:atemp>
            <ns3:hr>102</ns3:hr>
          </ns3:TrackPointExtension>
        </extensions>
      </trkpt>
      <trkpt lat="36.78571418859064579010009765625" lon="-118.54845919646322727203369140625">
        <ele>1657.199951171875</ele>
        <time>2021-06-24T17:34:39.000Z</time>
        <extensions>
          <ns3:TrackPointExtension>
            <ns3:atemp>30.0</ns3:atemp>
            <ns3:hr>106</ns3:hr>
          </ns3:TrackPointExtension>
        </extensions>
      </trkpt>
      <trkpt lat="36.7857058905065059661865234375" lon="-118.5484669916331768035888671875">
        <ele>1657.5999755859375</ele>
        <time>2021-06-24T17:34:41.000Z</time>
        <extensions>
          <ns3:TrackPointExtension>
            <ns3:atemp>30.0</ns3:atemp>
            <ns3:hr>105</ns3:hr>
          </ns3:TrackPointExtension>
        </extensions>
      </trkpt>
      <trkpt lat="36.785699017345905303955078125" lon="-118.54847327806055545806884765625">
        <ele>1658</ele>
        <time>2021-06-24T17:34:43.000Z</time>
        <extensions>
          <ns3:TrackPointExtension>
            <ns3:atemp>30.0</ns3:atemp>
            <ns3:hr>105</ns3:hr>
          </ns3:TrackPointExtension>
        </extensions>
      </trkpt>
      <trkpt lat="36.78567043505609035491943359375" lon="-118.54850764386355876922607421875">
        <ele>1658.4000244140625</ele>
        <time>2021-06-24T17:34:49.000Z</time>
        <extensions>
          <ns3:TrackPointExtension>
            <ns3:atemp>30.0</ns3:atemp>
            <ns3:hr>105</ns3:hr>
          </ns3:TrackPointExtension>
        </extensions>
      </trkpt>
      <trkpt lat="36.78567177616059780120849609375" lon="-118.5485139302909374237060546875">
        <ele>1659</ele>
        <time>2021-06-24T17:34:50.000Z</time>
        <extensions>
          <ns3:TrackPointExtension>
            <ns3:atemp>30.0</ns3:atemp>
            <ns3:hr>104</ns3:hr>
          </ns3:TrackPointExtension>
        </extensions>
      </trkpt>
      <trkpt lat="36.7856535874307155609130859375" lon="-118.54852004908025264739990234375">
        <ele>1659.5999755859375</ele>
        <time>2021-06-24T17:34:54.000Z</time>
        <extensions>
          <ns3:TrackPointExtension>
            <ns3:atemp>30.0</ns3:atemp>
            <ns3:hr>103</ns3:hr>
          </ns3:TrackPointExtension>
        </extensions>
      </trkpt>
      <trkpt lat="36.78564704954624176025390625" lon="-118.548518121242523193359375">
        <ele>1659.5999755859375</ele>
        <time>2021-06-24T17:34:55.000Z</time>
        <extensions>
          <ns3:TrackPointExtension>
            <ns3:atemp>30.0</ns3:atemp>
            <ns3:hr>104</ns3:hr>
          </ns3:TrackPointExtension>
        </extensions>
      </trkpt>
      <trkpt lat="36.78561528213322162628173828125" lon="-118.54851518757641315460205078125">
        <ele>1660.199951171875</ele>
        <time>2021-06-24T17:35:00.000Z</time>
        <extensions>
          <ns3:TrackPointExtension>
            <ns3:atemp>30.0</ns3:atemp>
            <ns3:hr>104</ns3:hr>
          </ns3:TrackPointExtension>
        </extensions>
      </trkpt>
      <trkpt lat="36.785610504448413848876953125" lon="-118.54852004908025264739990234375">
        <ele>1660.5999755859375</ele>
        <time>2021-06-24T17:35:01.000Z</time>
        <extensions>
          <ns3:TrackPointExtension>
            <ns3:atemp>30.0</ns3:atemp>
            <ns3:hr>104</ns3:hr>
          </ns3:TrackPointExtension>
        </extensions>
      </trkpt>
      <trkpt lat="36.78560555912554264068603515625" lon="-118.54852289892733097076416015625">
        <ele>1660.800048828125</ele>
        <time>2021-06-24T17:35:02.000Z</time>
        <extensions>
          <ns3:TrackPointExtension>
            <ns3:atemp>30.0</ns3:atemp>
            <ns3:hr>105</ns3:hr>
          </ns3:TrackPointExtension>
        </extensions>
      </trkpt>
      <trkpt lat="36.78559231571853160858154296875" lon="-118.54854653589427471160888671875">
        <ele>1661</ele>
        <time>2021-06-24T17:35:04.000Z</time>
        <extensions>
          <ns3:TrackPointExtension>
            <ns3:atemp>30.0</ns3:atemp>
            <ns3:hr>105</ns3:hr>
          </ns3:TrackPointExtension>
        </extensions>
      </trkpt>
      <trkpt lat="36.78558091633021831512451171875" lon="-118.548558019101619720458984375">
        <ele>1661.4000244140625</ele>
        <time>2021-06-24T17:35:07.000Z</time>
        <extensions>
          <ns3:TrackPointExtension>
            <ns3:atemp>30.0</ns3:atemp>
            <ns3:hr>105</ns3:hr>
          </ns3:TrackPointExtension>
        </extensions>
      </trkpt>
      <trkpt lat="36.785565577447414398193359375" lon="-118.548558019101619720458984375">
        <ele>1661.5999755859375</ele>
        <time>2021-06-24T17:35:09.000Z</time>
        <extensions>
          <ns3:TrackPointExtension>
            <ns3:atemp>30.0</ns3:atemp>
            <ns3:hr>106</ns3:hr>
          </ns3:TrackPointExtension>
        </extensions>
      </trkpt>
      <trkpt lat="36.7855473048985004425048828125" lon="-118.54856162331998348236083984375">
        <ele>1662</ele>
        <time>2021-06-24T17:35:12.000Z</time>
        <extensions>
          <ns3:TrackPointExtension>
            <ns3:atemp>30.0</ns3:atemp>
            <ns3:hr>105</ns3:hr>
          </ns3:TrackPointExtension>
        </extensions>
      </trkpt>
      <trkpt lat="36.7855338938534259796142578125" lon="-118.54856614954769611358642578125">
        <ele>1662.199951171875</ele>
        <time>2021-06-24T17:35:14.000Z</time>
        <extensions>
          <ns3:TrackPointExtension>
            <ns3:atemp>30.0</ns3:atemp>
            <ns3:hr>107</ns3:hr>
          </ns3:TrackPointExtension>
        </extensions>
      </trkpt>
      <trkpt lat="36.78551503457129001617431640625" lon="-118.5485744476318359375">
        <ele>1662.800048828125</ele>
        <time>2021-06-24T17:35:16.000Z</time>
        <extensions>
          <ns3:TrackPointExtension>
            <ns3:atemp>30.0</ns3:atemp>
            <ns3:hr>108</ns3:hr>
          </ns3:TrackPointExtension>
        </extensions>
      </trkpt>
      <trkpt lat="36.78550614975392818450927734375" lon="-118.54855977930128574371337890625">
        <ele>1663.4000244140625</ele>
        <time>2021-06-24T17:35:19.000Z</time>
        <extensions>
          <ns3:TrackPointExtension>
            <ns3:atemp>30.0</ns3:atemp>
            <ns3:hr>107</ns3:hr>
          </ns3:TrackPointExtension>
        </extensions>
      </trkpt>
      <trkpt lat="36.78550497628748416900634765625" lon="-118.54854452423751354217529296875">
        <ele>1663.5999755859375</ele>
        <time>2021-06-24T17:35:21.000Z</time>
        <extensions>
          <ns3:TrackPointExtension>
            <ns3:atemp>30.0</ns3:atemp>
            <ns3:hr>106</ns3:hr>
          </ns3:TrackPointExtension>
        </extensions>
      </trkpt>
      <trkpt lat="36.78552509285509586334228515625" lon="-118.5485436022281646728515625">
        <ele>1664</ele>
        <time>2021-06-24T17:35:23.000Z</time>
        <extensions>
          <ns3:TrackPointExtension>
            <ns3:atemp>30.0</ns3:atemp>
            <ns3:hr>105</ns3:hr>
          </ns3:TrackPointExtension>
        </extensions>
      </trkpt>
      <trkpt lat="36.7855350673198699951171875" lon="-118.54853689670562744140625">
        <ele>1664.199951171875</ele>
        <time>2021-06-24T17:35:24.000Z</time>
        <extensions>
          <ns3:TrackPointExtension>
            <ns3:atemp>30.0</ns3:atemp>
            <ns3:hr>104</ns3:hr>
          </ns3:TrackPointExtension>
        </extensions>
      </trkpt>
      <trkpt lat="36.78555987775325775146484375" lon="-118.54851149953901767730712890625">
        <ele>1665</ele>
        <time>2021-06-24T17:35:30.000Z</time>
        <extensions>
          <ns3:TrackPointExtension>
            <ns3:atemp>30.0</ns3:atemp>
            <ns3:hr>106</ns3:hr>
          </ns3:TrackPointExtension>
        </extensions>
      </trkpt>
      <trkpt lat="36.78558175452053546905517578125" lon="-118.54849222116172313690185546875">
        <ele>1665.199951171875</ele>
        <time>2021-06-24T17:35:33.000Z</time>
        <extensions>
          <ns3:TrackPointExtension>
            <ns3:atemp>30.0</ns3:atemp>
            <ns3:hr>107</ns3:hr>
          </ns3:TrackPointExtension>
        </extensions>
      </trkpt>
      <trkpt lat="36.78560941480100154876708984375" lon="-118.54847026057541370391845703125">
        <ele>1665.5999755859375</ele>
        <time>2021-06-24T17:35:37.000Z</time>
        <extensions>
          <ns3:TrackPointExtension>
            <ns3:atemp>30.0</ns3:atemp>
            <ns3:hr>104</ns3:hr>
          </ns3:TrackPointExtension>
        </extensions>
      </trkpt>
      <trkpt lat="36.78561444394290447235107421875" lon="-118.54845701716840267181396484375">
        <ele>1665.5999755859375</ele>
        <time>2021-06-24T17:35:38.000Z</time>
        <extensions>
          <ns3:TrackPointExtension>
            <ns3:atemp>30.0</ns3:atemp>
            <ns3:hr>107</ns3:hr>
          </ns3:TrackPointExtension>
        </extensions>
      </trkpt>
      <trkpt lat="36.78561444394290447235107421875" lon="-118.54844695888459682464599609375">
        <ele>1665.5999755859375</ele>
        <time>2021-06-24T17:35:39.000Z</time>
        <extensions>
          <ns3:TrackPointExtension>
            <ns3:atemp>30.0</ns3:atemp>
            <ns3:hr>106</ns3:hr>
          </ns3:TrackPointExtension>
        </extensions>
      </trkpt>
      <trkpt lat="36.78562114946544170379638671875" lon="-118.54843203909695148468017578125">
        <ele>1666.199951171875</ele>
        <time>2021-06-24T17:35:41.000Z</time>
        <extensions>
          <ns3:TrackPointExtension>
            <ns3:atemp>30.0</ns3:atemp>
            <ns3:hr>107</ns3:hr>
          </ns3:TrackPointExtension>
        </extensions>
      </trkpt>
      <trkpt lat="36.7856504023075103759765625" lon="-118.5484063066542148590087890625">
        <ele>1666.5999755859375</ele>
        <time>2021-06-24T17:35:46.000Z</time>
        <extensions>
          <ns3:TrackPointExtension>
            <ns3:atemp>30.0</ns3:atemp>
            <ns3:hr>109</ns3:hr>
          </ns3:TrackPointExtension>
        </extensions>
      </trkpt>
      <trkpt lat="36.78566909395158290863037109375" lon="-118.548389039933681488037109375">
        <ele>1666.800048828125</ele>
        <time>2021-06-24T17:35:48.000Z</time>
        <extensions>
          <ns3:TrackPointExtension>
            <ns3:atemp>30.0</ns3:atemp>
            <ns3:hr>112</ns3:hr>
          </ns3:TrackPointExtension>
        </extensions>
      </trkpt>
      <trkpt lat="36.785678900778293609619140625" lon="-118.5483700968325138092041015625">
        <ele>1667</ele>
        <time>2021-06-24T17:35:51.000Z</time>
        <extensions>
          <ns3:TrackPointExtension>
            <ns3:atemp>30.0</ns3:atemp>
            <ns3:hr>115</ns3:hr>
          </ns3:TrackPointExtension>
        </extensions>
      </trkpt>
      <trkpt lat="36.78568284027278423309326171875" lon="-118.548368252813816070556640625">
        <ele>1667.199951171875</ele>
        <time>2021-06-24T17:35:52.000Z</time>
        <extensions>
          <ns3:TrackPointExtension>
            <ns3:atemp>30.0</ns3:atemp>
            <ns3:hr>116</ns3:hr>
          </ns3:TrackPointExtension>
        </extensions>
      </trkpt>
      <trkpt lat="36.78569507785141468048095703125" lon="-118.5483023710548877716064453125">
        <ele>1668.4000244140625</ele>
        <time>2021-06-24T17:35:59.000Z</time>
        <extensions>
          <ns3:TrackPointExtension>
            <ns3:atemp>30.0</ns3:atemp>
            <ns3:hr>116</ns3:hr>
          </ns3:TrackPointExtension>
        </extensions>
      </trkpt>
      <trkpt lat="36.78567395545542240142822265625" lon="-118.54830010794103145599365234375">
        <ele>1668.4000244140625</ele>
        <time>2021-06-24T17:36:03.000Z</time>
        <extensions>
          <ns3:TrackPointExtension>
            <ns3:atemp>30.0</ns3:atemp>
            <ns3:hr>113</ns3:hr>
          </ns3:TrackPointExtension>
        </extensions>
      </trkpt>
      <trkpt lat="36.7856745421886444091796875" lon="-118.548299856483936309814453125">
        <ele>1668.4000244140625</ele>
        <time>2021-06-24T17:36:04.000Z</time>
        <extensions>
          <ns3:TrackPointExtension>
            <ns3:atemp>30.0</ns3:atemp>
            <ns3:hr>112</ns3:hr>
          </ns3:TrackPointExtension>
        </extensions>
      </trkpt>
      <trkpt lat="36.78561293520033359527587890625" lon="-118.5483362339437007904052734375">
        <ele>1668.800048828125</ele>
        <time>2021-06-24T17:36:10.000Z</time>
        <extensions>
          <ns3:TrackPointExtension>
            <ns3:atemp>30.0</ns3:atemp>
            <ns3:hr>109</ns3:hr>
          </ns3:TrackPointExtension>
        </extensions>
      </trkpt>
      <trkpt lat="36.78559315390884876251220703125" lon="-118.54833782650530338287353515625">
        <ele>1669.199951171875</ele>
        <time>2021-06-24T17:36:12.000Z</time>
        <extensions>
          <ns3:TrackPointExtension>
            <ns3:atemp>30.0</ns3:atemp>
            <ns3:hr>109</ns3:hr>
          </ns3:TrackPointExtension>
        </extensions>
      </trkpt>
      <trkpt lat="36.7855846881866455078125" lon="-118.54834201745688915252685546875">
        <ele>1669.4000244140625</ele>
        <time>2021-06-24T17:36:13.000Z</time>
        <extensions>
          <ns3:TrackPointExtension>
            <ns3:atemp>30.0</ns3:atemp>
            <ns3:hr>109</ns3:hr>
          </ns3:TrackPointExtension>
        </extensions>
      </trkpt>
      <trkpt lat="36.78554520942270755767822265625" lon="-118.54837319813668727874755859375">
        <ele>1670.199951171875</ele>
        <time>2021-06-24T17:36:20.000Z</time>
        <extensions>
          <ns3:TrackPointExtension>
            <ns3:atemp>30.0</ns3:atemp>
            <ns3:hr>107</ns3:hr>
          </ns3:TrackPointExtension>
        </extensions>
      </trkpt>
      <trkpt lat="36.78554235957562923431396484375" lon="-118.54838158003985881805419921875">
        <ele>1670.5999755859375</ele>
        <time>2021-06-24T17:36:21.000Z</time>
        <extensions>
          <ns3:TrackPointExtension>
            <ns3:atemp>30.0</ns3:atemp>
            <ns3:hr>108</ns3:hr>
          </ns3:TrackPointExtension>
        </extensions>
      </trkpt>
      <trkpt lat="36.78549977950751781463623046875" lon="-118.5484066419303417205810546875">
        <ele>1670.800048828125</ele>
        <time>2021-06-24T17:36:26.000Z</time>
        <extensions>
          <ns3:TrackPointExtension>
            <ns3:atemp>30.0</ns3:atemp>
            <ns3:hr>108</ns3:hr>
          </ns3:TrackPointExtension>
        </extensions>
      </trkpt>
      <trkpt lat="36.78549139760434627532958984375" lon="-118.54841879568994045257568359375">
        <ele>1671.5999755859375</ele>
        <time>2021-06-24T17:36:29.000Z</time>
        <extensions>
          <ns3:TrackPointExtension>
            <ns3:atemp>30.0</ns3:atemp>
            <ns3:hr>107</ns3:hr>
          </ns3:TrackPointExtension>
        </extensions>
      </trkpt>
      <trkpt lat="36.78547807037830352783203125" lon="-118.54843203909695148468017578125">
        <ele>1671.800048828125</ele>
        <time>2021-06-24T17:36:31.000Z</time>
        <extensions>
          <ns3:TrackPointExtension>
            <ns3:atemp>30.0</ns3:atemp>
            <ns3:hr>106</ns3:hr>
          </ns3:TrackPointExtension>
        </extensions>
      </trkpt>
      <trkpt lat="36.78542920388281345367431640625" lon="-118.548477552831172943115234375">
        <ele>1672.199951171875</ele>
        <time>2021-06-24T17:36:37.000Z</time>
        <extensions>
          <ns3:TrackPointExtension>
            <ns3:atemp>30.0</ns3:atemp>
            <ns3:hr>109</ns3:hr>
          </ns3:TrackPointExtension>
        </extensions>
      </trkpt>
      <trkpt lat="36.78541093133389949798583984375" lon="-118.5484683327376842498779296875">
        <ele>1672.199951171875</ele>
        <time>2021-06-24T17:36:40.000Z</time>
        <extensions>
          <ns3:TrackPointExtension>
            <ns3:atemp>30.0</ns3:atemp>
            <ns3:hr>112</ns3:hr>
          </ns3:TrackPointExtension>
        </extensions>
      </trkpt>
      <trkpt lat="36.7854063212871551513671875" lon="-118.54847545735538005828857421875">
        <ele>1672.5999755859375</ele>
        <time>2021-06-24T17:36:43.000Z</time>
        <extensions>
          <ns3:TrackPointExtension>
            <ns3:atemp>30.0</ns3:atemp>
            <ns3:hr>116</ns3:hr>
          </ns3:TrackPointExtension>
        </extensions>
      </trkpt>
      <trkpt lat="36.7854058183729648590087890625" lon="-118.54847311042249202728271484375">
        <ele>1672.800048828125</ele>
        <time>2021-06-24T17:36:44.000Z</time>
        <extensions>
          <ns3:TrackPointExtension>
            <ns3:atemp>30.0</ns3:atemp>
            <ns3:hr>113</ns3:hr>
          </ns3:TrackPointExtension>
        </extensions>
      </trkpt>
      <trkpt lat="36.7854063212871551513671875" lon="-118.5484679974615573883056640625">
        <ele>1673</ele>
        <time>2021-06-24T17:36:45.000Z</time>
        <extensions>
          <ns3:TrackPointExtension>
            <ns3:atemp>30.0</ns3:atemp>
            <ns3:hr>117</ns3:hr>
          </ns3:TrackPointExtension>
        </extensions>
      </trkpt>
      <trkpt lat="36.78541562519967555999755859375" lon="-118.5484555922448635101318359375">
        <ele>1673.4000244140625</ele>
        <time>2021-06-24T17:36:48.000Z</time>
        <extensions>
          <ns3:TrackPointExtension>
            <ns3:atemp>30.0</ns3:atemp>
            <ns3:hr>119</ns3:hr>
          </ns3:TrackPointExtension>
        </extensions>
      </trkpt>
      <trkpt lat="36.78543356247246265411376953125" lon="-118.54842734523117542266845703125">
        <ele>1673.5999755859375</ele>
        <time>2021-06-24T17:36:52.000Z</time>
        <extensions>
          <ns3:TrackPointExtension>
            <ns3:atemp>30.0</ns3:atemp>
            <ns3:hr>119</ns3:hr>
          </ns3:TrackPointExtension>
        </extensions>
      </trkpt>
      <trkpt lat="36.78542912006378173828125" lon="-118.54842969216406345367431640625">
        <ele>1673.800048828125</ele>
        <time>2021-06-24T17:36:54.000Z</time>
        <extensions>
          <ns3:TrackPointExtension>
            <ns3:atemp>30.0</ns3:atemp>
            <ns3:hr>119</ns3:hr>
          </ns3:TrackPointExtension>
        </extensions>
      </trkpt>
      <trkpt lat="36.78543238900601863861083984375" lon="-118.54842516593635082244873046875">
        <ele>1673.800048828125</ele>
        <time>2021-06-24T17:36:55.000Z</time>
        <extensions>
          <ns3:TrackPointExtension>
            <ns3:atemp>30.0</ns3:atemp>
            <ns3:hr>118</ns3:hr>
          </ns3:TrackPointExtension>
        </extensions>
      </trkpt>
      <trkpt lat="36.785462312400341033935546875" lon="-118.54840454645454883575439453125">
        <ele>1674.800048828125</ele>
        <time>2021-06-24T17:37:00.000Z</time>
        <extensions>
          <ns3:TrackPointExtension>
            <ns3:atemp>30.0</ns3:atemp>
            <ns3:hr>118</ns3:hr>
          </ns3:TrackPointExtension>
        </extensions>
      </trkpt>
      <trkpt lat="36.78549550473690032958984375" lon="-118.54837596416473388671875">
        <ele>1675</ele>
        <time>2021-06-24T17:37:04.000Z</time>
        <extensions>
          <ns3:TrackPointExtension>
            <ns3:atemp>30.0</ns3:atemp>
            <ns3:hr>116</ns3:hr>
          </ns3:TrackPointExtension>
        </extensions>
      </trkpt>
      <trkpt lat="36.78551939316093921661376953125" lon="-118.548323325812816619873046875">
        <ele>1675.199951171875</ele>
        <time>2021-06-24T17:37:09.000Z</time>
        <extensions>
          <ns3:TrackPointExtension>
            <ns3:atemp>30.0</ns3:atemp>
            <ns3:hr>113</ns3:hr>
          </ns3:TrackPointExtension>
        </extensions>
      </trkpt>
      <trkpt lat="36.7855255119502544403076171875" lon="-118.54831360280513763427734375">
        <ele>1675.199951171875</ele>
        <time>2021-06-24T17:37:10.000Z</time>
        <extensions>
          <ns3:TrackPointExtension>
            <ns3:atemp>30.0</ns3:atemp>
            <ns3:hr>111</ns3:hr>
          </ns3:TrackPointExtension>
        </extensions>
      </trkpt>
      <trkpt lat="36.78553431294858455657958984375" lon="-118.5483017005026340484619140625">
        <ele>1675.199951171875</ele>
        <time>2021-06-24T17:37:12.000Z</time>
        <extensions>
          <ns3:TrackPointExtension>
            <ns3:atemp>30.0</ns3:atemp>
            <ns3:hr>109</ns3:hr>
          </ns3:TrackPointExtension>
        </extensions>
      </trkpt>
      <trkpt lat="36.785546801984310150146484375" lon="-118.54826875962316989898681640625">
        <ele>1675.4000244140625</ele>
        <time>2021-06-24T17:37:16.000Z</time>
        <extensions>
          <ns3:TrackPointExtension>
            <ns3:atemp>30.0</ns3:atemp>
            <ns3:hr>107</ns3:hr>
          </ns3:TrackPointExtension>
        </extensions>
      </trkpt>
      <trkpt lat="36.7855811677873134613037109375" lon="-118.54821695946156978607177734375">
        <ele>1675.5999755859375</ele>
        <time>2021-06-24T17:37:20.000Z</time>
        <extensions>
          <ns3:TrackPointExtension>
            <ns3:atemp>30.0</ns3:atemp>
            <ns3:hr>104</ns3:hr>
          </ns3:TrackPointExtension>
        </extensions>
      </trkpt>
      <trkpt lat="36.78557940758764743804931640625" lon="-118.54819550178945064544677734375">
        <ele>1676</ele>
        <time>2021-06-24T17:37:22.000Z</time>
        <extensions>
          <ns3:TrackPointExtension>
            <ns3:atemp>30.0</ns3:atemp>
            <ns3:hr>104</ns3:hr>
          </ns3:TrackPointExtension>
        </extensions>
      </trkpt>
      <trkpt lat="36.785552836954593658447265625" lon="-118.54820103384554386138916015625">
        <ele>1676.5999755859375</ele>
        <time>2021-06-24T17:37:27.000Z</time>
        <extensions>
          <ns3:TrackPointExtension>
            <ns3:atemp>30.0</ns3:atemp>
            <ns3:hr>102</ns3:hr>
          </ns3:TrackPointExtension>
        </extensions>
      </trkpt>
      <trkpt lat="36.78547672927379608154296875" lon="-118.548260629177093505859375">
        <ele>1677</ele>
        <time>2021-06-24T17:37:36.000Z</time>
        <extensions>
          <ns3:TrackPointExtension>
            <ns3:atemp>30.0</ns3:atemp>
            <ns3:hr>101</ns3:hr>
          </ns3:TrackPointExtension>
        </extensions>
      </trkpt>
      <trkpt lat="36.78546340204775333404541015625" lon="-118.54827060364186763763427734375">
        <ele>1677.199951171875</ele>
        <time>2021-06-24T17:37:38.000Z</time>
        <extensions>
          <ns3:TrackPointExtension>
            <ns3:atemp>30.0</ns3:atemp>
            <ns3:hr>101</ns3:hr>
          </ns3:TrackPointExtension>
        </extensions>
      </trkpt>
      <trkpt lat="36.785451583564281463623046875" lon="-118.5482996888458728790283203125">
        <ele>1677.199951171875</ele>
        <time>2021-06-24T17:37:41.000Z</time>
        <extensions>
          <ns3:TrackPointExtension>
            <ns3:atemp>30.0</ns3:atemp>
            <ns3:hr>98</ns3:hr>
          </ns3:TrackPointExtension>
        </extensions>
      </trkpt>
      <trkpt lat="36.7854369990527629852294921875" lon="-118.54830748401582241058349609375">
        <ele>1677.4000244140625</ele>
        <time>2021-06-24T17:37:43.000Z</time>
        <extensions>
          <ns3:TrackPointExtension>
            <ns3:atemp>30.0</ns3:atemp>
            <ns3:hr>95</ns3:hr>
          </ns3:TrackPointExtension>
        </extensions>
      </trkpt>
      <trkpt lat="36.78541411645710468292236328125" lon="-118.54833547957241535186767578125">
        <ele>1678</ele>
        <time>2021-06-24T17:37:48.000Z</time>
        <extensions>
          <ns3:TrackPointExtension>
            <ns3:atemp>30.0</ns3:atemp>
            <ns3:hr>95</ns3:hr>
          </ns3:TrackPointExtension>
        </extensions>
      </trkpt>
      <trkpt lat="36.7853907309472560882568359375" lon="-118.5483504831790924072265625">
        <ele>1678.199951171875</ele>
        <time>2021-06-24T17:37:53.000Z</time>
        <extensions>
          <ns3:TrackPointExtension>
            <ns3:atemp>30.0</ns3:atemp>
            <ns3:hr>98</ns3:hr>
          </ns3:TrackPointExtension>
        </extensions>
      </trkpt>
      <trkpt lat="36.78539416752755641937255859375" lon="-118.54836615733802318572998046875">
        <ele>1678.4000244140625</ele>
        <time>2021-06-24T17:37:55.000Z</time>
        <extensions>
          <ns3:TrackPointExtension>
            <ns3:atemp>30.0</ns3:atemp>
            <ns3:hr>98</ns3:hr>
          </ns3:TrackPointExtension>
        </extensions>
      </trkpt>
      <trkpt lat="36.785403303802013397216796875" lon="-118.54835693724453449249267578125">
        <ele>1678.199951171875</ele>
        <time>2021-06-24T17:38:02.000Z</time>
        <extensions>
          <ns3:TrackPointExtension>
            <ns3:atemp>30.0</ns3:atemp>
            <ns3:hr>97</ns3:hr>
          </ns3:TrackPointExtension>
        </extensions>
      </trkpt>
      <trkpt lat="36.78540221415460109710693359375" lon="-118.54836146347224712371826171875">
        <ele>1678.199951171875</ele>
        <time>2021-06-24T17:38:13.000Z</time>
        <extensions>
          <ns3:TrackPointExtension>
            <ns3:atemp>30.0</ns3:atemp>
            <ns3:hr>94</ns3:hr>
          </ns3:TrackPointExtension>
        </extensions>
      </trkpt>
      <trkpt lat="36.78539500571787357330322265625" lon="-118.54836816899478435516357421875">
        <ele>1678.4000244140625</ele>
        <time>2021-06-24T17:38:23.000Z</time>
        <extensions>
          <ns3:TrackPointExtension>
            <ns3:atemp>30.0</ns3:atemp>
            <ns3:hr>97</ns3:hr>
          </ns3:TrackPointExtension>
        </extensions>
      </trkpt>
      <trkpt lat="36.7853944189846515655517578125" lon="-118.5483741201460361480712890625">
        <ele>1679.199951171875</ele>
        <time>2021-06-24T17:38:27.000Z</time>
        <extensions>
          <ns3:TrackPointExtension>
            <ns3:atemp>30.0</ns3:atemp>
            <ns3:hr>99</ns3:hr>
          </ns3:TrackPointExtension>
        </extensions>
      </trkpt>
      <trkpt lat="36.78532107733190059661865234375" lon="-118.54840454645454883575439453125">
        <ele>1680.199951171875</ele>
        <time>2021-06-24T17:38:34.000Z</time>
        <extensions>
          <ns3:TrackPointExtension>
            <ns3:atemp>30.0</ns3:atemp>
            <ns3:hr>97</ns3:hr>
          </ns3:TrackPointExtension>
        </extensions>
      </trkpt>
      <trkpt lat="36.78525033406913280487060546875" lon="-118.54844561778008937835693359375">
        <ele>1680.800048828125</ele>
        <time>2021-06-24T17:38:41.000Z</time>
        <extensions>
          <ns3:TrackPointExtension>
            <ns3:atemp>30.0</ns3:atemp>
            <ns3:hr>97</ns3:hr>
          </ns3:TrackPointExtension>
        </extensions>
      </trkpt>
      <trkpt lat="36.7852291278541088104248046875" lon="-118.54845173656940460205078125">
        <ele>1681.4000244140625</ele>
        <time>2021-06-24T17:38:43.000Z</time>
        <extensions>
          <ns3:TrackPointExtension>
            <ns3:atemp>30.0</ns3:atemp>
            <ns3:hr>95</ns3:hr>
          </ns3:TrackPointExtension>
        </extensions>
      </trkpt>
      <trkpt lat="36.78518177010118961334228515625" lon="-118.54845617897808551788330078125">
        <ele>1681.800048828125</ele>
        <time>2021-06-24T17:38:49.000Z</time>
        <extensions>
          <ns3:TrackPointExtension>
            <ns3:atemp>30.0</ns3:atemp>
            <ns3:hr>100</ns3:hr>
          </ns3:TrackPointExtension>
        </extensions>
      </trkpt>
      <trkpt lat="36.7851738072931766510009765625" lon="-118.54846179485321044921875">
        <ele>1681.800048828125</ele>
        <time>2021-06-24T17:38:50.000Z</time>
        <extensions>
          <ns3:TrackPointExtension>
            <ns3:atemp>30.0</ns3:atemp>
            <ns3:hr>100</ns3:hr>
          </ns3:TrackPointExtension>
        </extensions>
      </trkpt>
      <trkpt lat="36.78512779064476490020751953125" lon="-118.54848685674369335174560546875">
        <ele>1682.4000244140625</ele>
        <time>2021-06-24T17:38:56.000Z</time>
        <extensions>
          <ns3:TrackPointExtension>
            <ns3:atemp>30.0</ns3:atemp>
            <ns3:hr>102</ns3:hr>
          </ns3:TrackPointExtension>
        </extensions>
      </trkpt>
      <trkpt lat="36.785125695168972015380859375" lon="-118.54849372990429401397705078125">
        <ele>1682.5999755859375</ele>
        <time>2021-06-24T17:38:57.000Z</time>
        <extensions>
          <ns3:TrackPointExtension>
            <ns3:atemp>30.0</ns3:atemp>
            <ns3:hr>103</ns3:hr>
          </ns3:TrackPointExtension>
        </extensions>
      </trkpt>
      <trkpt lat="36.785118989646434783935546875" lon="-118.54850596748292446136474609375">
        <ele>1682.800048828125</ele>
        <time>2021-06-24T17:38:58.000Z</time>
        <extensions>
          <ns3:TrackPointExtension>
            <ns3:atemp>30.0</ns3:atemp>
            <ns3:hr>103</ns3:hr>
          </ns3:TrackPointExtension>
        </extensions>
      </trkpt>
      <trkpt lat="36.78509493358433246612548828125" lon="-118.54851870797574520111083984375">
        <ele>1683</ele>
        <time>2021-06-24T17:39:01.000Z</time>
        <extensions>
          <ns3:TrackPointExtension>
            <ns3:atemp>30.0</ns3:atemp>
            <ns3:hr>104</ns3:hr>
          </ns3:TrackPointExtension>
        </extensions>
      </trkpt>
      <trkpt lat="36.7850631661713123321533203125" lon="-118.54851937852799892425537109375">
        <ele>1683.5999755859375</ele>
        <time>2021-06-24T17:39:04.000Z</time>
        <extensions>
          <ns3:TrackPointExtension>
            <ns3:atemp>30.0</ns3:atemp>
            <ns3:hr>105</ns3:hr>
          </ns3:TrackPointExtension>
        </extensions>
      </trkpt>
      <trkpt lat="36.7850500904023647308349609375" lon="-118.5485489666461944580078125">
        <ele>1684.199951171875</ele>
        <time>2021-06-24T17:39:09.000Z</time>
        <extensions>
          <ns3:TrackPointExtension>
            <ns3:atemp>30.0</ns3:atemp>
            <ns3:hr>108</ns3:hr>
          </ns3:TrackPointExtension>
        </extensions>
      </trkpt>
      <trkpt lat="36.78503441624343395233154296875" lon="-118.54855877347290515899658203125">
        <ele>1684.4000244140625</ele>
        <time>2021-06-24T17:39:11.000Z</time>
        <extensions>
          <ns3:TrackPointExtension>
            <ns3:atemp>30.0</ns3:atemp>
            <ns3:hr>106</ns3:hr>
          </ns3:TrackPointExtension>
        </extensions>
      </trkpt>
      <trkpt lat="36.785011701285839080810546875" lon="-118.54856246151030063629150390625">
        <ele>1684.5999755859375</ele>
        <time>2021-06-24T17:39:13.000Z</time>
        <extensions>
          <ns3:TrackPointExtension>
            <ns3:atemp>30.0</ns3:atemp>
            <ns3:hr>106</ns3:hr>
          </ns3:TrackPointExtension>
        </extensions>
      </trkpt>
      <trkpt lat="36.78498881869018077850341796875" lon="-118.54858743958175182342529296875">
        <ele>1685</ele>
        <time>2021-06-24T17:39:16.000Z</time>
        <extensions>
          <ns3:TrackPointExtension>
            <ns3:atemp>30.0</ns3:atemp>
            <ns3:hr>109</ns3:hr>
          </ns3:TrackPointExtension>
        </extensions>
      </trkpt>
      <trkpt lat="36.78495864383876323699951171875" lon="-118.54859716258943080902099609375">
        <ele>1685.199951171875</ele>
        <time>2021-06-24T17:39:19.000Z</time>
        <extensions>
          <ns3:TrackPointExtension>
            <ns3:atemp>30.0</ns3:atemp>
            <ns3:hr>112</ns3:hr>
          </ns3:TrackPointExtension>
        </extensions>
      </trkpt>
      <trkpt lat="36.78494389168918132781982421875" lon="-118.54859783314168453216552734375">
        <ele>1685.199951171875</ele>
        <time>2021-06-24T17:39:20.000Z</time>
        <extensions>
          <ns3:TrackPointExtension>
            <ns3:atemp>30.0</ns3:atemp>
            <ns3:hr>109</ns3:hr>
          </ns3:TrackPointExtension>
        </extensions>
      </trkpt>
      <trkpt lat="36.78490030579268932342529296875" lon="-118.5486312769353389739990234375">
        <ele>1685.5999755859375</ele>
        <time>2021-06-24T17:39:24.000Z</time>
        <extensions>
          <ns3:TrackPointExtension>
            <ns3:atemp>30.0</ns3:atemp>
            <ns3:hr>112</ns3:hr>
          </ns3:TrackPointExtension>
        </extensions>
      </trkpt>
      <trkpt lat="36.7848958633840084075927734375" lon="-118.54865952394902706146240234375">
        <ele>1685.5999755859375</ele>
        <time>2021-06-24T17:39:26.000Z</time>
        <extensions>
          <ns3:TrackPointExtension>
            <ns3:atemp>30.0</ns3:atemp>
            <ns3:hr>114</ns3:hr>
          </ns3:TrackPointExtension>
        </extensions>
      </trkpt>
      <trkpt lat="36.78488488309085369110107421875" lon="-118.54869053699076175689697265625">
        <ele>1685.5999755859375</ele>
        <time>2021-06-24T17:39:29.000Z</time>
        <extensions>
          <ns3:TrackPointExtension>
            <ns3:atemp>30.0</ns3:atemp>
            <ns3:hr>112</ns3:hr>
          </ns3:TrackPointExtension>
        </extensions>
      </trkpt>
      <trkpt lat="36.7848767526447772979736328125" lon="-118.5487016849219799041748046875">
        <ele>1685.800048828125</ele>
        <time>2021-06-24T17:39:30.000Z</time>
        <extensions>
          <ns3:TrackPointExtension>
            <ns3:atemp>30.0</ns3:atemp>
            <ns3:hr>112</ns3:hr>
          </ns3:TrackPointExtension>
        </extensions>
      </trkpt>
      <trkpt lat="36.784864850342273712158203125" lon="-118.54871450923383235931396484375">
        <ele>1685.800048828125</ele>
        <time>2021-06-24T17:39:32.000Z</time>
        <extensions>
          <ns3:TrackPointExtension>
            <ns3:atemp>30.0</ns3:atemp>
            <ns3:hr>110</ns3:hr>
          </ns3:TrackPointExtension>
        </extensions>
      </trkpt>
      <trkpt lat="36.78484900854527950286865234375" lon="-118.54872087948024272918701171875">
        <ele>1686.199951171875</ele>
        <time>2021-06-24T17:39:35.000Z</time>
        <extensions>
          <ns3:TrackPointExtension>
            <ns3:atemp>30.0</ns3:atemp>
            <ns3:hr>108</ns3:hr>
          </ns3:TrackPointExtension>
        </extensions>
      </trkpt>
      <trkpt lat="36.78483827970921993255615234375" lon="-118.5487372241914272308349609375">
        <ele>1686.5999755859375</ele>
        <time>2021-06-24T17:39:37.000Z</time>
        <extensions>
          <ns3:TrackPointExtension>
            <ns3:atemp>30.0</ns3:atemp>
            <ns3:hr>107</ns3:hr>
          </ns3:TrackPointExtension>
        </extensions>
      </trkpt>
      <trkpt lat="36.78481690585613250732421875" lon="-118.54874703101813793182373046875">
        <ele>1686.800048828125</ele>
        <time>2021-06-24T17:39:39.000Z</time>
        <extensions>
          <ns3:TrackPointExtension>
            <ns3:atemp>30.0</ns3:atemp>
            <ns3:hr>106</ns3:hr>
          </ns3:TrackPointExtension>
        </extensions>
      </trkpt>
      <trkpt lat="36.784790419042110443115234375" lon="-118.54876848869025707244873046875">
        <ele>1687.4000244140625</ele>
        <time>2021-06-24T17:39:43.000Z</time>
        <extensions>
          <ns3:TrackPointExtension>
            <ns3:atemp>30.0</ns3:atemp>
            <ns3:hr>103</ns3:hr>
          </ns3:TrackPointExtension>
        </extensions>
      </trkpt>
      <trkpt lat="36.78476887755095958709716796875" lon="-118.54877150617539882659912109375">
        <ele>1687.4000244140625</ele>
        <time>2021-06-24T17:39:45.000Z</time>
        <extensions>
          <ns3:TrackPointExtension>
            <ns3:atemp>30.0</ns3:atemp>
            <ns3:hr>106</ns3:hr>
          </ns3:TrackPointExtension>
        </extensions>
      </trkpt>
      <trkpt lat="36.78475999273359775543212890625" lon="-118.548771254718303680419921875">
        <ele>1687.5999755859375</ele>
        <time>2021-06-24T17:39:46.000Z</time>
        <extensions>
          <ns3:TrackPointExtension>
            <ns3:atemp>30.0</ns3:atemp>
            <ns3:hr>106</ns3:hr>
          </ns3:TrackPointExtension>
        </extensions>
      </trkpt>
      <trkpt lat="36.78473585285246372222900390625" lon="-118.5487563349306583404541015625">
        <ele>1687.800048828125</ele>
        <time>2021-06-24T17:39:49.000Z</time>
        <extensions>
          <ns3:TrackPointExtension>
            <ns3:atemp>30.0</ns3:atemp>
            <ns3:hr>107</ns3:hr>
          </ns3:TrackPointExtension>
        </extensions>
      </trkpt>
      <trkpt lat="36.78472143597900867462158203125" lon="-118.54872976429760456085205078125">
        <ele>1688.4000244140625</ele>
        <time>2021-06-24T17:39:52.000Z</time>
        <extensions>
          <ns3:TrackPointExtension>
            <ns3:atemp>30.0</ns3:atemp>
            <ns3:hr>107</ns3:hr>
          </ns3:TrackPointExtension>
        </extensions>
      </trkpt>
      <trkpt lat="36.78471355699002742767333984375" lon="-118.54872423224151134490966796875">
        <ele>1688.4000244140625</ele>
        <time>2021-06-24T17:39:54.000Z</time>
        <extensions>
          <ns3:TrackPointExtension>
            <ns3:atemp>30.0</ns3:atemp>
            <ns3:hr>107</ns3:hr>
          </ns3:TrackPointExtension>
        </extensions>
      </trkpt>
      <trkpt lat="36.78464733995497226715087890625" lon="-118.5487026907503604888916015625">
        <ele>1688.800048828125</ele>
        <time>2021-06-24T17:40:02.000Z</time>
        <extensions>
          <ns3:TrackPointExtension>
            <ns3:atemp>30.0</ns3:atemp>
            <ns3:hr>105</ns3:hr>
          </ns3:TrackPointExtension>
        </extensions>
      </trkpt>
      <trkpt lat="36.7846418917179107666015625" lon="-118.5487033613026142120361328125">
        <ele>1688.800048828125</ele>
        <time>2021-06-24T17:40:03.000Z</time>
        <extensions>
          <ns3:TrackPointExtension>
            <ns3:atemp>30.0</ns3:atemp>
            <ns3:hr>103</ns3:hr>
          </ns3:TrackPointExtension>
        </extensions>
      </trkpt>
      <trkpt lat="36.78464063443243503570556640625" lon="-118.5487100668251514434814453125">
        <ele>1688.800048828125</ele>
        <time>2021-06-24T17:40:04.000Z</time>
        <extensions>
          <ns3:TrackPointExtension>
            <ns3:atemp>30.0</ns3:atemp>
            <ns3:hr>106</ns3:hr>
          </ns3:TrackPointExtension>
        </extensions>
      </trkpt>
      <trkpt lat="36.7846199311316013336181640625" lon="-118.548700176179409027099609375">
        <ele>1689</ele>
        <time>2021-06-24T17:40:06.000Z</time>
        <extensions>
          <ns3:TrackPointExtension>
            <ns3:atemp>30.0</ns3:atemp>
            <ns3:hr>109</ns3:hr>
          </ns3:TrackPointExtension>
        </extensions>
      </trkpt>
      <trkpt lat="36.784612052142620086669921875" lon="-118.54869715869426727294921875">
        <ele>1689.4000244140625</ele>
        <time>2021-06-24T17:40:07.000Z</time>
        <extensions>
          <ns3:TrackPointExtension>
            <ns3:atemp>30.0</ns3:atemp>
            <ns3:hr>109</ns3:hr>
          </ns3:TrackPointExtension>
        </extensions>
      </trkpt>
      <trkpt lat="36.78458397276699542999267578125" lon="-118.548682741820812225341796875">
        <ele>1690</ele>
        <time>2021-06-24T17:40:10.000Z</time>
        <extensions>
          <ns3:TrackPointExtension>
            <ns3:atemp>30.0</ns3:atemp>
            <ns3:hr>109</ns3:hr>
          </ns3:TrackPointExtension>
        </extensions>
      </trkpt>
      <trkpt lat="36.78456201218068599700927734375" lon="-118.54868701659142971038818359375">
        <ele>1690.199951171875</ele>
        <time>2021-06-24T17:40:12.000Z</time>
        <extensions>
          <ns3:TrackPointExtension>
            <ns3:atemp>30.0</ns3:atemp>
            <ns3:hr>108</ns3:hr>
          </ns3:TrackPointExtension>
        </extensions>
      </trkpt>
      <trkpt lat="36.78453166969120502471923828125" lon="-118.54869154281914234161376953125">
        <ele>1690.5999755859375</ele>
        <time>2021-06-24T17:40:16.000Z</time>
        <extensions>
          <ns3:TrackPointExtension>
            <ns3:atemp>30.0</ns3:atemp>
            <ns3:hr>108</ns3:hr>
          </ns3:TrackPointExtension>
        </extensions>
      </trkpt>
      <trkpt lat="36.78447433747351169586181640625" lon="-118.54868567548692226409912109375">
        <ele>1691.199951171875</ele>
        <time>2021-06-24T17:40:21.000Z</time>
        <extensions>
          <ns3:TrackPointExtension>
            <ns3:atemp>30.0</ns3:atemp>
            <ns3:hr>106</ns3:hr>
          </ns3:TrackPointExtension>
        </extensions>
      </trkpt>
      <trkpt lat="36.78443737328052520751953125" lon="-118.5486855916678905487060546875">
        <ele>1691.5999755859375</ele>
        <time>2021-06-24T17:40:24.000Z</time>
        <extensions>
          <ns3:TrackPointExtension>
            <ns3:atemp>30.0</ns3:atemp>
            <ns3:hr>105</ns3:hr>
          </ns3:TrackPointExtension>
        </extensions>
      </trkpt>
      <trkpt lat="36.78439605049788951873779296875" lon="-118.54871987365186214447021484375">
        <ele>1692.199951171875</ele>
        <time>2021-06-24T17:40:30.000Z</time>
        <extensions>
          <ns3:TrackPointExtension>
            <ns3:atemp>30.0</ns3:atemp>
            <ns3:hr>106</ns3:hr>
          </ns3:TrackPointExtension>
        </extensions>
      </trkpt>
      <trkpt lat="36.78437928669154644012451171875" lon="-118.548738397657871246337890625">
        <ele>1692.4000244140625</ele>
        <time>2021-06-24T17:40:33.000Z</time>
        <extensions>
          <ns3:TrackPointExtension>
            <ns3:atemp>30.0</ns3:atemp>
            <ns3:hr>107</ns3:hr>
          </ns3:TrackPointExtension>
        </extensions>
      </trkpt>
      <trkpt lat="36.7843312583863735198974609375" lon="-118.54875843040645122528076171875">
        <ele>1692.800048828125</ele>
        <time>2021-06-24T17:40:38.000Z</time>
        <extensions>
          <ns3:TrackPointExtension>
            <ns3:atemp>30.0</ns3:atemp>
            <ns3:hr>110</ns3:hr>
          </ns3:TrackPointExtension>
        </extensions>
      </trkpt>
      <trkpt lat="36.7843222059309482574462890625" lon="-118.54876731522381305694580078125">
        <ele>1692.800048828125</ele>
        <time>2021-06-24T17:40:39.000Z</time>
        <extensions>
          <ns3:TrackPointExtension>
            <ns3:atemp>30.0</ns3:atemp>
            <ns3:hr>108</ns3:hr>
          </ns3:TrackPointExtension>
        </extensions>
      </trkpt>
      <trkpt lat="36.78430435247719287872314453125" lon="-118.5487741045653820037841796875">
        <ele>1693</ele>
        <time>2021-06-24T17:40:41.000Z</time>
        <extensions>
          <ns3:TrackPointExtension>
            <ns3:atemp>30.0</ns3:atemp>
            <ns3:hr>109</ns3:hr>
          </ns3:TrackPointExtension>
        </extensions>
      </trkpt>
      <trkpt lat="36.7842792905867099761962890625" lon="-118.5487754456698894500732421875">
        <ele>1693.4000244140625</ele>
        <time>2021-06-24T17:40:44.000Z</time>
        <extensions>
          <ns3:TrackPointExtension>
            <ns3:atemp>30.0</ns3:atemp>
            <ns3:hr>109</ns3:hr>
          </ns3:TrackPointExtension>
        </extensions>
      </trkpt>
      <trkpt lat="36.78426914848387241363525390625" lon="-118.54877418838441371917724609375">
        <ele>1693.5999755859375</ele>
        <time>2021-06-24T17:40:45.000Z</time>
        <extensions>
          <ns3:TrackPointExtension>
            <ns3:atemp>30.0</ns3:atemp>
            <ns3:hr>108</ns3:hr>
          </ns3:TrackPointExtension>
        </extensions>
      </trkpt>
      <trkpt lat="36.78424618206918239593505859375" lon="-118.54876153171062469482421875">
        <ele>1693.5999755859375</ele>
        <time>2021-06-24T17:40:47.000Z</time>
        <extensions>
          <ns3:TrackPointExtension>
            <ns3:atemp>30.0</ns3:atemp>
            <ns3:hr>109</ns3:hr>
          </ns3:TrackPointExtension>
        </extensions>
      </trkpt>
      <trkpt lat="36.7841941304504871368408203125" lon="-118.54873931966722011566162109375">
        <ele>1693.800048828125</ele>
        <time>2021-06-24T17:40:51.000Z</time>
        <extensions>
          <ns3:TrackPointExtension>
            <ns3:atemp>30.0</ns3:atemp>
            <ns3:hr>110</ns3:hr>
          </ns3:TrackPointExtension>
        </extensions>
      </trkpt>
      <trkpt lat="36.7841860838234424591064453125" lon="-118.5487449355423450469970703125">
        <ele>1694</ele>
        <time>2021-06-24T17:40:52.000Z</time>
        <extensions>
          <ns3:TrackPointExtension>
            <ns3:atemp>30.0</ns3:atemp>
            <ns3:hr>107</ns3:hr>
          </ns3:TrackPointExtension>
        </extensions>
      </trkpt>
      <trkpt lat="36.7841750197112560272216796875" lon="-118.54874820448458194732666015625">
        <ele>1694.199951171875</ele>
        <time>2021-06-24T17:40:53.000Z</time>
        <extensions>
          <ns3:TrackPointExtension>
            <ns3:atemp>30.0</ns3:atemp>
            <ns3:hr>110</ns3:hr>
          </ns3:TrackPointExtension>
        </extensions>
      </trkpt>
      <trkpt lat="36.78416504524648189544677734375" lon="-118.548748455941677093505859375">
        <ele>1694.199951171875</ele>
        <time>2021-06-24T17:40:54.000Z</time>
        <extensions>
          <ns3:TrackPointExtension>
            <ns3:atemp>30.0</ns3:atemp>
            <ns3:hr>109</ns3:hr>
          </ns3:TrackPointExtension>
        </extensions>
      </trkpt>
      <trkpt lat="36.78417108021676540374755859375" lon="-118.54875708930194377899169921875">
        <ele>1694.199951171875</ele>
        <time>2021-06-24T17:40:57.000Z</time>
        <extensions>
          <ns3:TrackPointExtension>
            <ns3:atemp>30.0</ns3:atemp>
            <ns3:hr>111</ns3:hr>
          </ns3:TrackPointExtension>
        </extensions>
      </trkpt>
      <trkpt lat="36.784178875386714935302734375" lon="-118.548751138150691986083984375">
        <ele>1693.800048828125</ele>
        <time>2021-06-24T17:41:00.000Z</time>
        <extensions>
          <ns3:TrackPointExtension>
            <ns3:atemp>30.0</ns3:atemp>
            <ns3:hr>112</ns3:hr>
          </ns3:TrackPointExtension>
        </extensions>
      </trkpt>
      <trkpt lat="36.7841847427189350128173828125" lon="-118.54876295663416385650634765625">
        <ele>1694</ele>
        <time>2021-06-24T17:41:06.000Z</time>
        <extensions>
          <ns3:TrackPointExtension>
            <ns3:atemp>30.0</ns3:atemp>
            <ns3:hr>113</ns3:hr>
          </ns3:TrackPointExtension>
        </extensions>
      </trkpt>
      <trkpt lat="36.784185580909252166748046875" lon="-118.548777960240840911865234375">
        <ele>1693.800048828125</ele>
        <time>2021-06-24T17:41:14.000Z</time>
        <extensions>
          <ns3:TrackPointExtension>
            <ns3:atemp>30.0</ns3:atemp>
            <ns3:hr>111</ns3:hr>
          </ns3:TrackPointExtension>
        </extensions>
      </trkpt>
      <trkpt lat="36.7841860838234424591064453125" lon="-118.54877502657473087310791015625">
        <ele>1693.800048828125</ele>
        <time>2021-06-24T17:41:17.000Z</time>
        <extensions>
          <ns3:TrackPointExtension>
            <ns3:atemp>30.0</ns3:atemp>
            <ns3:hr>107</ns3:hr>
          </ns3:TrackPointExtension>
        </extensions>
      </trkpt>
      <trkpt lat="36.784183569252490997314453125" lon="-118.5487774573266506195068359375">
        <ele>1694</ele>
        <time>2021-06-24T17:41:19.000Z</time>
        <extensions>
          <ns3:TrackPointExtension>
            <ns3:atemp>30.0</ns3:atemp>
            <ns3:hr>104</ns3:hr>
          </ns3:TrackPointExtension>
        </extensions>
      </trkpt>
      <trkpt lat="36.784183569252490997314453125" lon="-118.5487861745059490203857421875">
        <ele>1694</ele>
        <time>2021-06-24T17:41:21.000Z</time>
        <extensions>
          <ns3:TrackPointExtension>
            <ns3:atemp>30.0</ns3:atemp>
            <ns3:hr>100</ns3:hr>
          </ns3:TrackPointExtension>
        </extensions>
      </trkpt>
      <trkpt lat="36.78418113850057125091552734375" lon="-118.548783324658870697021484375">
        <ele>1694</ele>
        <time>2021-06-24T17:41:23.000Z</time>
        <extensions>
          <ns3:TrackPointExtension>
            <ns3:atemp>30.0</ns3:atemp>
            <ns3:hr>97</ns3:hr>
          </ns3:TrackPointExtension>
        </extensions>
      </trkpt>
      <trkpt lat="36.78418465889990329742431640625" lon="-118.548775948584079742431640625">
        <ele>1693.800048828125</ele>
        <time>2021-06-24T17:41:27.000Z</time>
        <extensions>
          <ns3:TrackPointExtension>
            <ns3:atemp>30.0</ns3:atemp>
            <ns3:hr>94</ns3:hr>
          </ns3:TrackPointExtension>
        </extensions>
      </trkpt>
      <trkpt lat="36.78418465889990329742431640625" lon="-118.548775948584079742431640625">
        <ele>1694.199951171875</ele>
        <time>2021-06-24T17:41:34.000Z</time>
        <extensions>
          <ns3:TrackPointExtension>
            <ns3:atemp>30.0</ns3:atemp>
            <ns3:hr>93</ns3:hr>
          </ns3:TrackPointExtension>
        </extensions>
      </trkpt>
      <trkpt lat="36.7841823957860469818115234375" lon="-118.54877351783215999603271484375">
        <ele>1694.4000244140625</ele>
        <time>2021-06-24T17:41:36.000Z</time>
        <extensions>
          <ns3:TrackPointExtension>
            <ns3:atemp>30.0</ns3:atemp>
            <ns3:hr>92</ns3:hr>
          </ns3:TrackPointExtension>
        </extensions>
      </trkpt>
      <trkpt lat="36.78414375521242618560791015625" lon="-118.54872439987957477569580078125">
        <ele>1694.5999755859375</ele>
        <time>2021-06-24T17:41:40.000Z</time>
        <extensions>
          <ns3:TrackPointExtension>
            <ns3:atemp>30.0</ns3:atemp>
            <ns3:hr>94</ns3:hr>
          </ns3:TrackPointExtension>
        </extensions>
      </trkpt>
      <trkpt lat="36.7841371335089206695556640625" lon="-118.5487134195864200592041015625">
        <ele>1694.5999755859375</ele>
        <time>2021-06-24T17:41:41.000Z</time>
        <extensions>
          <ns3:TrackPointExtension>
            <ns3:atemp>30.0</ns3:atemp>
            <ns3:hr>91</ns3:hr>
          </ns3:TrackPointExtension>
        </extensions>
      </trkpt>
      <trkpt lat="36.784136295318603515625" lon="-118.54869640432298183441162109375">
        <ele>1695.4000244140625</ele>
        <time>2021-06-24T17:41:44.000Z</time>
        <extensions>
          <ns3:TrackPointExtension>
            <ns3:atemp>30.0</ns3:atemp>
            <ns3:hr>95</ns3:hr>
          </ns3:TrackPointExtension>
        </extensions>
      </trkpt>
      <trkpt lat="36.78414794616401195526123046875" lon="-118.5486973263323307037353515625">
        <ele>1695.4000244140625</ele>
        <time>2021-06-24T17:41:46.000Z</time>
        <extensions>
          <ns3:TrackPointExtension>
            <ns3:atemp>30.0</ns3:atemp>
            <ns3:hr>93</ns3:hr>
          </ns3:TrackPointExtension>
        </extensions>
      </trkpt>
      <trkpt lat="36.784176193177700042724609375" lon="-118.54873009957373142242431640625">
        <ele>1696.4000244140625</ele>
        <time>2021-06-24T17:41:52.000Z</time>
        <extensions>
          <ns3:TrackPointExtension>
            <ns3:atemp>30.0</ns3:atemp>
            <ns3:hr>96</ns3:hr>
          </ns3:TrackPointExtension>
        </extensions>
      </trkpt>
      <trkpt lat="36.78419019095599651336669921875" lon="-118.54873982258141040802001953125">
        <ele>1696.800048828125</ele>
        <time>2021-06-24T17:41:54.000Z</time>
        <extensions>
          <ns3:TrackPointExtension>
            <ns3:atemp>30.0</ns3:atemp>
            <ns3:hr>96</ns3:hr>
          </ns3:TrackPointExtension>
        </extensions>
      </trkpt>
      <trkpt lat="36.784197986125946044921875" lon="-118.548740409314632415771484375">
        <ele>1696.800048828125</ele>
        <time>2021-06-24T17:41:55.000Z</time>
        <extensions>
          <ns3:TrackPointExtension>
            <ns3:atemp>30.0</ns3:atemp>
            <ns3:hr>95</ns3:hr>
          </ns3:TrackPointExtension>
        </extensions>
      </trkpt>
      <trkpt lat="36.78426713682711124420166015625" lon="-118.54872590862214565277099609375">
        <ele>1697.199951171875</ele>
        <time>2021-06-24T17:42:04.000Z</time>
        <extensions>
          <ns3:TrackPointExtension>
            <ns3:atemp>30.0</ns3:atemp>
            <ns3:hr>95</ns3:hr>
          </ns3:TrackPointExtension>
        </extensions>
      </trkpt>
      <trkpt lat="36.78429412655532360076904296875" lon="-118.54872934520244598388671875">
        <ele>1698</ele>
        <time>2021-06-24T17:42:08.000Z</time>
        <extensions>
          <ns3:TrackPointExtension>
            <ns3:atemp>30.0</ns3:atemp>
            <ns3:hr>96</ns3:hr>
          </ns3:TrackPointExtension>
        </extensions>
      </trkpt>
      <trkpt lat="36.7843138240277767181396484375" lon="-118.5487248189747333526611328125">
        <ele>1698.199951171875</ele>
        <time>2021-06-24T17:42:11.000Z</time>
        <extensions>
          <ns3:TrackPointExtension>
            <ns3:atemp>30.0</ns3:atemp>
            <ns3:hr>97</ns3:hr>
          </ns3:TrackPointExtension>
        </extensions>
      </trkpt>
      <trkpt lat="36.7843483574688434600830078125" lon="-118.54870461858808994293212890625">
        <ele>1698.4000244140625</ele>
        <time>2021-06-24T17:42:15.000Z</time>
        <extensions>
          <ns3:TrackPointExtension>
            <ns3:atemp>30.0</ns3:atemp>
            <ns3:hr>101</ns3:hr>
          </ns3:TrackPointExtension>
        </extensions>
      </trkpt>
      <trkpt lat="36.7843736708164215087890625" lon="-118.54868835769593715667724609375">
        <ele>1698.800048828125</ele>
        <time>2021-06-24T17:42:19.000Z</time>
        <extensions>
          <ns3:TrackPointExtension>
            <ns3:atemp>30.0</ns3:atemp>
            <ns3:hr>102</ns3:hr>
          </ns3:TrackPointExtension>
        </extensions>
      </trkpt>
      <trkpt lat="36.78437844850122928619384765625" lon="-118.54868374764919281005859375">
        <ele>1699</ele>
        <time>2021-06-24T17:42:20.000Z</time>
        <extensions>
          <ns3:TrackPointExtension>
            <ns3:atemp>30.0</ns3:atemp>
            <ns3:hr>104</ns3:hr>
          </ns3:TrackPointExtension>
        </extensions>
      </trkpt>
      <trkpt lat="36.7844073660671710968017578125" lon="-118.5486373119056224822998046875">
        <ele>1699.5999755859375</ele>
        <time>2021-06-24T17:42:24.000Z</time>
        <extensions>
          <ns3:TrackPointExtension>
            <ns3:atemp>30.0</ns3:atemp>
            <ns3:hr>103</ns3:hr>
          </ns3:TrackPointExtension>
        </extensions>
      </trkpt>
      <trkpt lat="36.78442287258803844451904296875" lon="-118.5485880263149738311767578125">
        <ele>1700</ele>
        <time>2021-06-24T17:42:28.000Z</time>
        <extensions>
          <ns3:TrackPointExtension>
            <ns3:atemp>30.0</ns3:atemp>
            <ns3:hr>103</ns3:hr>
          </ns3:TrackPointExtension>
        </extensions>
      </trkpt>
      <trkpt lat="36.78443309850990772247314453125" lon="-118.5485846735537052154541015625">
        <ele>1700.199951171875</ele>
        <time>2021-06-24T17:42:29.000Z</time>
        <extensions>
          <ns3:TrackPointExtension>
            <ns3:atemp>30.0</ns3:atemp>
            <ns3:hr>104</ns3:hr>
          </ns3:TrackPointExtension>
        </extensions>
      </trkpt>
      <trkpt lat="36.7844382114708423614501953125" lon="-118.54858023114502429962158203125">
        <ele>1700.4000244140625</ele>
        <time>2021-06-24T17:42:30.000Z</time>
        <extensions>
          <ns3:TrackPointExtension>
            <ns3:atemp>30.0</ns3:atemp>
            <ns3:hr>103</ns3:hr>
          </ns3:TrackPointExtension>
        </extensions>
      </trkpt>
      <trkpt lat="36.7844489403069019317626953125" lon="-118.54858291335403919219970703125">
        <ele>1700.4000244140625</ele>
        <time>2021-06-24T17:42:31.000Z</time>
        <extensions>
          <ns3:TrackPointExtension>
            <ns3:atemp>30.0</ns3:atemp>
            <ns3:hr>103</ns3:hr>
          </ns3:TrackPointExtension>
        </extensions>
      </trkpt>
      <trkpt lat="36.7844744212925434112548828125" lon="-118.54857377707958221435546875">
        <ele>1700.5999755859375</ele>
        <time>2021-06-24T17:42:33.000Z</time>
        <extensions>
          <ns3:TrackPointExtension>
            <ns3:atemp>30.0</ns3:atemp>
            <ns3:hr>102</ns3:hr>
          </ns3:TrackPointExtension>
        </extensions>
      </trkpt>
      <trkpt lat="36.78450233303010463714599609375" lon="-118.54856229387223720550537109375">
        <ele>1701.4000244140625</ele>
        <time>2021-06-24T17:42:36.000Z</time>
        <extensions>
          <ns3:TrackPointExtension>
            <ns3:atemp>30.0</ns3:atemp>
            <ns3:hr>102</ns3:hr>
          </ns3:TrackPointExtension>
        </extensions>
      </trkpt>
      <trkpt lat="36.7845104634761810302734375" lon="-118.54856162331998348236083984375">
        <ele>1701.4000244140625</ele>
        <time>2021-06-24T17:42:37.000Z</time>
        <extensions>
          <ns3:TrackPointExtension>
            <ns3:atemp>30.0</ns3:atemp>
            <ns3:hr>101</ns3:hr>
          </ns3:TrackPointExtension>
        </extensions>
      </trkpt>
      <trkpt lat="36.78453569300472736358642578125" lon="-118.54853329248726367950439453125">
        <ele>1702.199951171875</ele>
        <time>2021-06-24T17:42:42.000Z</time>
        <extensions>
          <ns3:TrackPointExtension>
            <ns3:atemp>30.0</ns3:atemp>
            <ns3:hr>104</ns3:hr>
          </ns3:TrackPointExtension>
        </extensions>
      </trkpt>
      <trkpt lat="36.78457341156899929046630859375" lon="-118.54853346012532711029052734375">
        <ele>1702.4000244140625</ele>
        <time>2021-06-24T17:42:46.000Z</time>
        <extensions>
          <ns3:TrackPointExtension>
            <ns3:atemp>30.0</ns3:atemp>
            <ns3:hr>105</ns3:hr>
          </ns3:TrackPointExtension>
        </extensions>
      </trkpt>
      <trkpt lat="36.78458363749086856842041015625" lon="-118.54854351840913295745849609375">
        <ele>1702.5999755859375</ele>
        <time>2021-06-24T17:42:47.000Z</time>
        <extensions>
          <ns3:TrackPointExtension>
            <ns3:atemp>30.0</ns3:atemp>
            <ns3:hr>104</ns3:hr>
          </ns3:TrackPointExtension>
        </extensions>
      </trkpt>
      <trkpt lat="36.7846313305199146270751953125" lon="-118.54854150675237178802490234375">
        <ele>1702.4000244140625</ele>
        <time>2021-06-24T17:42:52.000Z</time>
        <extensions>
          <ns3:TrackPointExtension>
            <ns3:atemp>30.0</ns3:atemp>
            <ns3:hr>104</ns3:hr>
          </ns3:TrackPointExtension>
        </extensions>
      </trkpt>
      <trkpt lat="36.78465236909687519073486328125" lon="-118.5485219769179821014404296875">
        <ele>1702.800048828125</ele>
        <time>2021-06-24T17:42:56.000Z</time>
        <extensions>
          <ns3:TrackPointExtension>
            <ns3:atemp>30.0</ns3:atemp>
            <ns3:hr>104</ns3:hr>
          </ns3:TrackPointExtension>
        </extensions>
      </trkpt>
      <trkpt lat="36.78467818535864353179931640625" lon="-118.54850328527390956878662109375">
        <ele>1702.800048828125</ele>
        <time>2021-06-24T17:42:58.000Z</time>
        <extensions>
          <ns3:TrackPointExtension>
            <ns3:atemp>30.0</ns3:atemp>
            <ns3:hr>103</ns3:hr>
          </ns3:TrackPointExtension>
        </extensions>
      </trkpt>
      <trkpt lat="36.784723363816738128662109375" lon="-118.54848031885921955108642578125">
        <ele>1703.4000244140625</ele>
        <time>2021-06-24T17:43:04.000Z</time>
        <extensions>
          <ns3:TrackPointExtension>
            <ns3:atemp>30.0</ns3:atemp>
            <ns3:hr>102</ns3:hr>
          </ns3:TrackPointExtension>
        </extensions>
      </trkpt>
      <trkpt lat="36.784741468727588653564453125" lon="-118.5484582744538784027099609375">
        <ele>1703.5999755859375</ele>
        <time>2021-06-24T17:43:06.000Z</time>
        <extensions>
          <ns3:TrackPointExtension>
            <ns3:atemp>30.0</ns3:atemp>
            <ns3:hr>101</ns3:hr>
          </ns3:TrackPointExtension>
        </extensions>
      </trkpt>
      <trkpt lat="36.7847478389739990234375" lon="-118.54844947345554828643798828125">
        <ele>1703.800048828125</ele>
        <time>2021-06-24T17:43:07.000Z</time>
        <extensions>
          <ns3:TrackPointExtension>
            <ns3:atemp>30.0</ns3:atemp>
            <ns3:hr>104</ns3:hr>
          </ns3:TrackPointExtension>
        </extensions>
      </trkpt>
      <trkpt lat="36.784754879772663116455078125" lon="-118.548441343009471893310546875">
        <ele>1704</ele>
        <time>2021-06-24T17:43:08.000Z</time>
        <extensions>
          <ns3:TrackPointExtension>
            <ns3:atemp>30.0</ns3:atemp>
            <ns3:hr>102</ns3:hr>
          </ns3:TrackPointExtension>
        </extensions>
      </trkpt>
      <trkpt lat="36.78476619534194469451904296875" lon="-118.54842223227024078369140625">
        <ele>1704.199951171875</ele>
        <time>2021-06-24T17:43:10.000Z</time>
        <extensions>
          <ns3:TrackPointExtension>
            <ns3:atemp>30.0</ns3:atemp>
            <ns3:hr>103</ns3:hr>
          </ns3:TrackPointExtension>
        </extensions>
      </trkpt>
      <trkpt lat="36.78477122448384761810302734375" lon="-118.54841284453868865966796875">
        <ele>1704.5999755859375</ele>
        <time>2021-06-24T17:43:11.000Z</time>
        <extensions>
          <ns3:TrackPointExtension>
            <ns3:atemp>30.0</ns3:atemp>
            <ns3:hr>104</ns3:hr>
          </ns3:TrackPointExtension>
        </extensions>
      </trkpt>
      <trkpt lat="36.78478497080504894256591796875" lon="-118.54839297942817211151123046875">
        <ele>1704.800048828125</ele>
        <time>2021-06-24T17:43:13.000Z</time>
        <extensions>
          <ns3:TrackPointExtension>
            <ns3:atemp>30.0</ns3:atemp>
            <ns3:hr>107</ns3:hr>
          </ns3:TrackPointExtension>
        </extensions>
      </trkpt>
      <trkpt lat="36.784789077937602996826171875" lon="-118.548379652202129364013671875">
        <ele>1705</ele>
        <time>2021-06-24T17:43:14.000Z</time>
        <extensions>
          <ns3:TrackPointExtension>
            <ns3:atemp>30.0</ns3:atemp>
            <ns3:hr>106</ns3:hr>
          </ns3:TrackPointExtension>
        </extensions>
      </trkpt>
      <trkpt lat="36.78480081260204315185546875" lon="-118.548358865082263946533203125">
        <ele>1705</ele>
        <time>2021-06-24T17:43:16.000Z</time>
        <extensions>
          <ns3:TrackPointExtension>
            <ns3:atemp>30.0</ns3:atemp>
            <ns3:hr>109</ns3:hr>
          </ns3:TrackPointExtension>
        </extensions>
      </trkpt>
      <trkpt lat="36.78480240516364574432373046875" lon="-118.54835375212132930755615234375">
        <ele>1705.199951171875</ele>
        <time>2021-06-24T17:43:17.000Z</time>
        <extensions>
          <ns3:TrackPointExtension>
            <ns3:atemp>30.0</ns3:atemp>
            <ns3:hr>110</ns3:hr>
          </ns3:TrackPointExtension>
        </extensions>
      </trkpt>
      <trkpt lat="36.7847979627549648284912109375" lon="-118.54832030832767486572265625">
        <ele>1705.5999755859375</ele>
        <time>2021-06-24T17:43:20.000Z</time>
        <extensions>
          <ns3:TrackPointExtension>
            <ns3:atemp>30.0</ns3:atemp>
            <ns3:hr>112</ns3:hr>
          </ns3:TrackPointExtension>
        </extensions>
      </trkpt>
      <trkpt lat="36.784780360758304595947265625" lon="-118.54832676239311695098876953125">
        <ele>1705.800048828125</ele>
        <time>2021-06-24T17:43:22.000Z</time>
        <extensions>
          <ns3:TrackPointExtension>
            <ns3:atemp>30.0</ns3:atemp>
            <ns3:hr>111</ns3:hr>
          </ns3:TrackPointExtension>
        </extensions>
      </trkpt>
      <trkpt lat="36.7847527004778385162353515625" lon="-118.548343442380428314208984375">
        <ele>1706</ele>
        <time>2021-06-24T17:43:25.000Z</time>
        <extensions>
          <ns3:TrackPointExtension>
            <ns3:atemp>30.0</ns3:atemp>
            <ns3:hr>110</ns3:hr>
          </ns3:TrackPointExtension>
        </extensions>
      </trkpt>
      <trkpt lat="36.784734763205051422119140625" lon="-118.5483493097126483917236328125">
        <ele>1706</ele>
        <time>2021-06-24T17:43:27.000Z</time>
        <extensions>
          <ns3:TrackPointExtension>
            <ns3:atemp>30.0</ns3:atemp>
            <ns3:hr>108</ns3:hr>
          </ns3:TrackPointExtension>
        </extensions>
      </trkpt>
      <trkpt lat="36.78472009487450122833251953125" lon="-118.54834922589361667633056640625">
        <ele>1706.4000244140625</ele>
        <time>2021-06-24T17:43:30.000Z</time>
        <extensions>
          <ns3:TrackPointExtension>
            <ns3:atemp>30.0</ns3:atemp>
            <ns3:hr>110</ns3:hr>
          </ns3:TrackPointExtension>
        </extensions>
      </trkpt>
      <trkpt lat="36.784701906144618988037109375" lon="-118.548352830111980438232421875">
        <ele>1706.5999755859375</ele>
        <time>2021-06-24T17:43:33.000Z</time>
        <extensions>
          <ns3:TrackPointExtension>
            <ns3:atemp>30.0</ns3:atemp>
            <ns3:hr>113</ns3:hr>
          </ns3:TrackPointExtension>
        </extensions>
      </trkpt>
      <trkpt lat="36.78468723781406879425048828125" lon="-118.54836330749094486236572265625">
        <ele>1707</ele>
        <time>2021-06-24T17:43:35.000Z</time>
        <extensions>
          <ns3:TrackPointExtension>
            <ns3:atemp>30.0</ns3:atemp>
            <ns3:hr>109</ns3:hr>
          </ns3:TrackPointExtension>
        </extensions>
      </trkpt>
      <trkpt lat="36.7846712283790111541748046875" lon="-118.54836280457675457000732421875">
        <ele>1707.199951171875</ele>
        <time>2021-06-24T17:43:37.000Z</time>
        <extensions>
          <ns3:TrackPointExtension>
            <ns3:atemp>30.0</ns3:atemp>
            <ns3:hr>108</ns3:hr>
          </ns3:TrackPointExtension>
        </extensions>
      </trkpt>
      <trkpt lat="36.7846620082855224609375" lon="-118.54836464859545230865478515625">
        <ele>1707.199951171875</ele>
        <time>2021-06-24T17:43:38.000Z</time>
        <extensions>
          <ns3:TrackPointExtension>
            <ns3:atemp>30.0</ns3:atemp>
            <ns3:hr>108</ns3:hr>
          </ns3:TrackPointExtension>
        </extensions>
      </trkpt>
      <trkpt lat="36.78464281372725963592529296875" lon="-118.54838065803050994873046875">
        <ele>1707.5999755859375</ele>
        <time>2021-06-24T17:43:41.000Z</time>
        <extensions>
          <ns3:TrackPointExtension>
            <ns3:atemp>30.0</ns3:atemp>
            <ns3:hr>105</ns3:hr>
          </ns3:TrackPointExtension>
        </extensions>
      </trkpt>
      <trkpt lat="36.7846373654901981353759765625" lon="-118.548380993306636810302734375">
        <ele>1707.800048828125</ele>
        <time>2021-06-24T17:43:42.000Z</time>
        <extensions>
          <ns3:TrackPointExtension>
            <ns3:atemp>30.0</ns3:atemp>
            <ns3:hr>104</ns3:hr>
          </ns3:TrackPointExtension>
        </extensions>
      </trkpt>
      <trkpt lat="36.784631498157978057861328125" lon="-118.5483801551163196563720703125">
        <ele>1707.800048828125</ele>
        <time>2021-06-24T17:43:43.000Z</time>
        <extensions>
          <ns3:TrackPointExtension>
            <ns3:atemp>30.0</ns3:atemp>
            <ns3:hr>107</ns3:hr>
          </ns3:TrackPointExtension>
        </extensions>
      </trkpt>
      <trkpt lat="36.78461029194295406341552734375" lon="-118.54837437160313129425048828125">
        <ele>1708.199951171875</ele>
        <time>2021-06-24T17:43:45.000Z</time>
        <extensions>
          <ns3:TrackPointExtension>
            <ns3:atemp>30.0</ns3:atemp>
            <ns3:hr>106</ns3:hr>
          </ns3:TrackPointExtension>
        </extensions>
      </trkpt>
      <trkpt lat="36.7845927737653255462646484375" lon="-118.54836188256740570068359375">
        <ele>1708.4000244140625</ele>
        <time>2021-06-24T17:43:46.000Z</time>
        <extensions>
          <ns3:TrackPointExtension>
            <ns3:atemp>30.0</ns3:atemp>
            <ns3:hr>105</ns3:hr>
          </ns3:TrackPointExtension>
        </extensions>
      </trkpt>
      <trkpt lat="36.7845629341900348663330078125" lon="-118.548368923366069793701171875">
        <ele>1708.800048828125</ele>
        <time>2021-06-24T17:43:50.000Z</time>
        <extensions>
          <ns3:TrackPointExtension>
            <ns3:atemp>30.0</ns3:atemp>
            <ns3:hr>104</ns3:hr>
          </ns3:TrackPointExtension>
        </extensions>
      </trkpt>
      <trkpt lat="36.784551031887531280517578125" lon="-118.548371605575084686279296875">
        <ele>1709</ele>
        <time>2021-06-24T17:43:51.000Z</time>
        <extensions>
          <ns3:TrackPointExtension>
            <ns3:atemp>30.0</ns3:atemp>
            <ns3:hr>104</ns3:hr>
          </ns3:TrackPointExtension>
        </extensions>
      </trkpt>
      <trkpt lat="36.78450065664947032928466796875" lon="-118.54835651814937591552734375">
        <ele>1709.800048828125</ele>
        <time>2021-06-24T17:43:59.000Z</time>
        <extensions>
          <ns3:TrackPointExtension>
            <ns3:atemp>30.0</ns3:atemp>
            <ns3:hr>104</ns3:hr>
          </ns3:TrackPointExtension>
        </extensions>
      </trkpt>
      <trkpt lat="36.7844975553452968597412109375" lon="-118.54834872297942638397216796875">
        <ele>1710</ele>
        <time>2021-06-24T17:44:00.000Z</time>
        <extensions>
          <ns3:TrackPointExtension>
            <ns3:atemp>30.0</ns3:atemp>
            <ns3:hr>104</ns3:hr>
          </ns3:TrackPointExtension>
        </extensions>
      </trkpt>
      <trkpt lat="36.7844781093299388885498046875" lon="-118.54834989644587039947509765625">
        <ele>1710.4000244140625</ele>
        <time>2021-06-24T17:44:03.000Z</time>
        <extensions>
          <ns3:TrackPointExtension>
            <ns3:atemp>30.0</ns3:atemp>
            <ns3:hr>105</ns3:hr>
          </ns3:TrackPointExtension>
        </extensions>
      </trkpt>
      <trkpt lat="36.784468553960323333740234375" lon="-118.5483503155410289764404296875">
        <ele>1710.5999755859375</ele>
        <time>2021-06-24T17:44:04.000Z</time>
        <extensions>
          <ns3:TrackPointExtension>
            <ns3:atemp>30.0</ns3:atemp>
            <ns3:hr>104</ns3:hr>
          </ns3:TrackPointExtension>
        </extensions>
      </trkpt>
      <trkpt lat="36.7844526283442974090576171875" lon="-118.548350147902965545654296875">
        <ele>1710.800048828125</ele>
        <time>2021-06-24T17:44:06.000Z</time>
        <extensions>
          <ns3:TrackPointExtension>
            <ns3:atemp>30.0</ns3:atemp>
            <ns3:hr>105</ns3:hr>
          </ns3:TrackPointExtension>
        </extensions>
      </trkpt>
      <trkpt lat="36.78443762473762035369873046875" lon="-118.548342101275920867919921875">
        <ele>1711</ele>
        <time>2021-06-24T17:44:07.000Z</time>
        <extensions>
          <ns3:TrackPointExtension>
            <ns3:atemp>30.0</ns3:atemp>
            <ns3:hr>106</ns3:hr>
          </ns3:TrackPointExtension>
        </extensions>
      </trkpt>
      <trkpt lat="36.78441398777067661285400390625" lon="-118.54834713041782379150390625">
        <ele>1711</ele>
        <time>2021-06-24T17:44:09.000Z</time>
        <extensions>
          <ns3:TrackPointExtension>
            <ns3:atemp>30.0</ns3:atemp>
            <ns3:hr>108</ns3:hr>
          </ns3:TrackPointExtension>
        </extensions>
      </trkpt>
      <trkpt lat="36.78437124006450176239013671875" lon="-118.54834335856139659881591796875">
        <ele>1711.199951171875</ele>
        <time>2021-06-24T17:44:12.000Z</time>
        <extensions>
          <ns3:TrackPointExtension>
            <ns3:atemp>30.0</ns3:atemp>
            <ns3:hr>111</ns3:hr>
          </ns3:TrackPointExtension>
        </extensions>
      </trkpt>
      <trkpt lat="36.784361936151981353759765625" lon="-118.54834000580012798309326171875">
        <ele>1711.4000244140625</ele>
        <time>2021-06-24T17:44:13.000Z</time>
        <extensions>
          <ns3:TrackPointExtension>
            <ns3:atemp>30.0</ns3:atemp>
            <ns3:hr>111</ns3:hr>
          </ns3:TrackPointExtension>
        </extensions>
      </trkpt>
      <trkpt lat="36.78433947265148162841796875" lon="-118.54835006408393383026123046875">
        <ele>1711.800048828125</ele>
        <time>2021-06-24T17:44:16.000Z</time>
        <extensions>
          <ns3:TrackPointExtension>
            <ns3:atemp>30.0</ns3:atemp>
            <ns3:hr>114</ns3:hr>
          </ns3:TrackPointExtension>
        </extensions>
      </trkpt>
      <trkpt lat="36.78431759588420391082763671875" lon="-118.5483737848699092864990234375">
        <ele>1712</ele>
        <time>2021-06-24T17:44:20.000Z</time>
        <extensions>
          <ns3:TrackPointExtension>
            <ns3:atemp>30.0</ns3:atemp>
            <ns3:hr>115</ns3:hr>
          </ns3:TrackPointExtension>
        </extensions>
      </trkpt>
      <trkpt lat="36.78430653177201747894287109375" lon="-118.548373281955718994140625">
        <ele>1712</ele>
        <time>2021-06-24T17:44:21.000Z</time>
        <extensions>
          <ns3:TrackPointExtension>
            <ns3:atemp>30.0</ns3:atemp>
            <ns3:hr>115</ns3:hr>
          </ns3:TrackPointExtension>
        </extensions>
      </trkpt>
      <trkpt lat="36.784296222031116485595703125" lon="-118.5483700968325138092041015625">
        <ele>1712.199951171875</ele>
        <time>2021-06-24T17:44:22.000Z</time>
        <extensions>
          <ns3:TrackPointExtension>
            <ns3:atemp>30.0</ns3:atemp>
            <ns3:hr>115</ns3:hr>
          </ns3:TrackPointExtension>
        </extensions>
      </trkpt>
      <trkpt lat="36.784252636134624481201171875" lon="-118.54835744015872478485107421875">
        <ele>1712.4000244140625</ele>
        <time>2021-06-24T17:44:27.000Z</time>
        <extensions>
          <ns3:TrackPointExtension>
            <ns3:atemp>30.0</ns3:atemp>
            <ns3:hr>115</ns3:hr>
          </ns3:TrackPointExtension>
        </extensions>
      </trkpt>
      <trkpt lat="36.78424919955432415008544921875" lon="-118.54837185703217983245849609375">
        <ele>1713</ele>
        <time>2021-06-24T17:44:32.000Z</time>
        <extensions>
          <ns3:TrackPointExtension>
            <ns3:atemp>30.0</ns3:atemp>
            <ns3:hr>112</ns3:hr>
          </ns3:TrackPointExtension>
        </extensions>
      </trkpt>
      <trkpt lat="36.7842440865933895111083984375" lon="-118.54836565442383289337158203125">
        <ele>1713.199951171875</ele>
        <time>2021-06-24T17:44:34.000Z</time>
        <extensions>
          <ns3:TrackPointExtension>
            <ns3:atemp>30.0</ns3:atemp>
            <ns3:hr>111</ns3:hr>
          </ns3:TrackPointExtension>
        </extensions>
      </trkpt>
      <trkpt lat="36.78421684540808200836181640625" lon="-118.54836297221481800079345703125">
        <ele>1714</ele>
        <time>2021-06-24T17:44:40.000Z</time>
        <extensions>
          <ns3:TrackPointExtension>
            <ns3:atemp>30.0</ns3:atemp>
            <ns3:hr>109</ns3:hr>
          </ns3:TrackPointExtension>
        </extensions>
      </trkpt>
      <trkpt lat="36.784197650849819183349609375" lon="-118.54835760779678821563720703125">
        <ele>1714.199951171875</ele>
        <time>2021-06-24T17:44:43.000Z</time>
        <extensions>
          <ns3:TrackPointExtension>
            <ns3:atemp>30.0</ns3:atemp>
            <ns3:hr>110</ns3:hr>
          </ns3:TrackPointExtension>
        </extensions>
      </trkpt>
      <trkpt lat="36.78418784402310848236083984375" lon="-118.5483563505113124847412109375">
        <ele>1714.5999755859375</ele>
        <time>2021-06-24T17:44:46.000Z</time>
        <extensions>
          <ns3:TrackPointExtension>
            <ns3:atemp>30.0</ns3:atemp>
            <ns3:hr>107</ns3:hr>
          </ns3:TrackPointExtension>
        </extensions>
      </trkpt>
      <trkpt lat="36.78416705690324306488037109375" lon="-118.54835341684520244598388671875">
        <ele>1714.5999755859375</ele>
        <time>2021-06-24T17:44:48.000Z</time>
        <extensions>
          <ns3:TrackPointExtension>
            <ns3:atemp>30.0</ns3:atemp>
            <ns3:hr>105</ns3:hr>
          </ns3:TrackPointExtension>
        </extensions>
      </trkpt>
      <trkpt lat="36.78412514738738536834716796875" lon="-118.54832273907959461212158203125">
        <ele>1715</ele>
        <time>2021-06-24T17:44:54.000Z</time>
        <extensions>
          <ns3:TrackPointExtension>
            <ns3:atemp>30.0</ns3:atemp>
            <ns3:hr>103</ns3:hr>
          </ns3:TrackPointExtension>
        </extensions>
      </trkpt>
      <trkpt lat="36.784066893160343170166015625" lon="-118.548328019678592681884765625">
        <ele>1715.4000244140625</ele>
        <time>2021-06-24T17:44:57.000Z</time>
        <extensions>
          <ns3:TrackPointExtension>
            <ns3:atemp>30.0</ns3:atemp>
            <ns3:hr>104</ns3:hr>
          </ns3:TrackPointExtension>
        </extensions>
      </trkpt>
      <trkpt lat="36.7840211279690265655517578125" lon="-118.54830287396907806396484375">
        <ele>1715.5999755859375</ele>
        <time>2021-06-24T17:45:01.000Z</time>
        <extensions>
          <ns3:TrackPointExtension>
            <ns3:atemp>30.0</ns3:atemp>
            <ns3:hr>104</ns3:hr>
          </ns3:TrackPointExtension>
        </extensions>
      </trkpt>
      <trkpt lat="36.78396857343614101409912109375" lon="-118.54828585870563983917236328125">
        <ele>1716.4000244140625</ele>
        <time>2021-06-24T17:45:09.000Z</time>
        <extensions>
          <ns3:TrackPointExtension>
            <ns3:atemp>30.0</ns3:atemp>
            <ns3:hr>103</ns3:hr>
          </ns3:TrackPointExtension>
        </extensions>
      </trkpt>
      <trkpt lat="36.78393202833831310272216796875" lon="-118.5482785664498805999755859375">
        <ele>1716.800048828125</ele>
        <time>2021-06-24T17:45:14.000Z</time>
        <extensions>
          <ns3:TrackPointExtension>
            <ns3:atemp>30.0</ns3:atemp>
            <ns3:hr>104</ns3:hr>
          </ns3:TrackPointExtension>
        </extensions>
      </trkpt>
      <trkpt lat="36.783872433006763458251953125" lon="-118.54824327863752841949462890625">
        <ele>1717.4000244140625</ele>
        <time>2021-06-24T17:45:21.000Z</time>
        <extensions>
          <ns3:TrackPointExtension>
            <ns3:atemp>30.0</ns3:atemp>
            <ns3:hr>104</ns3:hr>
          </ns3:TrackPointExtension>
        </extensions>
      </trkpt>
      <trkpt lat="36.7838680744171142578125" lon="-118.54824193753302097320556640625">
        <ele>1717.4000244140625</ele>
        <time>2021-06-24T17:45:22.000Z</time>
        <extensions>
          <ns3:TrackPointExtension>
            <ns3:atemp>30.0</ns3:atemp>
            <ns3:hr>104</ns3:hr>
          </ns3:TrackPointExtension>
        </extensions>
      </trkpt>
      <trkpt lat="36.78387218154966831207275390625" lon="-118.54825995862483978271484375">
        <ele>1717.800048828125</ele>
        <time>2021-06-24T17:45:26.000Z</time>
        <extensions>
          <ns3:TrackPointExtension>
            <ns3:atemp>30.0</ns3:atemp>
            <ns3:hr>105</ns3:hr>
          </ns3:TrackPointExtension>
        </extensions>
      </trkpt>
      <trkpt lat="36.7839242331683635711669921875" lon="-118.548271358013153076171875">
        <ele>1718.4000244140625</ele>
        <time>2021-06-24T17:45:32.000Z</time>
        <extensions>
          <ns3:TrackPointExtension>
            <ns3:atemp>30.0</ns3:atemp>
            <ns3:hr>104</ns3:hr>
          </ns3:TrackPointExtension>
        </extensions>
      </trkpt>
      <trkpt lat="36.7839337885379791259765625" lon="-118.54828183539211750030517578125">
        <ele>1718.4000244140625</ele>
        <time>2021-06-24T17:45:33.000Z</time>
        <extensions>
          <ns3:TrackPointExtension>
            <ns3:atemp>30.0</ns3:atemp>
            <ns3:hr>104</ns3:hr>
          </ns3:TrackPointExtension>
        </extensions>
      </trkpt>
      <trkpt lat="36.783942170441150665283203125" lon="-118.5482846014201641082763671875">
        <ele>1718.4000244140625</ele>
        <time>2021-06-24T17:45:34.000Z</time>
        <extensions>
          <ns3:TrackPointExtension>
            <ns3:atemp>30.0</ns3:atemp>
            <ns3:hr>105</ns3:hr>
          </ns3:TrackPointExtension>
        </extensions>
      </trkpt>
      <trkpt lat="36.78395189344882965087890625" lon="-118.54829139076173305511474609375">
        <ele>1718.5999755859375</ele>
        <time>2021-06-24T17:45:35.000Z</time>
        <extensions>
          <ns3:TrackPointExtension>
            <ns3:atemp>30.0</ns3:atemp>
            <ns3:hr>104</ns3:hr>
          </ns3:TrackPointExtension>
        </extensions>
      </trkpt>
      <trkpt lat="36.7839711718261241912841796875" lon="-118.548301868140697479248046875">
        <ele>1719</ele>
        <time>2021-06-24T17:45:38.000Z</time>
        <extensions>
          <ns3:TrackPointExtension>
            <ns3:atemp>30.0</ns3:atemp>
            <ns3:hr>104</ns3:hr>
          </ns3:TrackPointExtension>
        </extensions>
      </trkpt>
      <trkpt lat="36.78400729782879352569580078125" lon="-118.5483080707490444183349609375">
        <ele>1719.800048828125</ele>
        <time>2021-06-24T17:45:43.000Z</time>
        <extensions>
          <ns3:TrackPointExtension>
            <ns3:atemp>30.0</ns3:atemp>
            <ns3:hr>103</ns3:hr>
          </ns3:TrackPointExtension>
        </extensions>
      </trkpt>
      <trkpt lat="36.7840383946895599365234375" lon="-118.54831133969128131866455078125">
        <ele>1720</ele>
        <time>2021-06-24T17:45:47.000Z</time>
        <extensions>
          <ns3:TrackPointExtension>
            <ns3:atemp>30.0</ns3:atemp>
            <ns3:hr>102</ns3:hr>
          </ns3:TrackPointExtension>
        </extensions>
      </trkpt>
      <trkpt lat="36.784060858190059661865234375" lon="-118.54828141629695892333984375">
        <ele>1720.800048828125</ele>
        <time>2021-06-24T17:45:52.000Z</time>
        <extensions>
          <ns3:TrackPointExtension>
            <ns3:atemp>30.0</ns3:atemp>
            <ns3:hr>103</ns3:hr>
          </ns3:TrackPointExtension>
        </extensions>
      </trkpt>
      <trkpt lat="36.7840732634067535400390625" lon="-118.5482638143002986907958984375">
        <ele>1721.199951171875</ele>
        <time>2021-06-24T17:45:54.000Z</time>
        <extensions>
          <ns3:TrackPointExtension>
            <ns3:atemp>30.0</ns3:atemp>
            <ns3:hr>102</ns3:hr>
          </ns3:TrackPointExtension>
        </extensions>
      </trkpt>
      <trkpt lat="36.7841089703142642974853515625" lon="-118.54828275740146636962890625">
        <ele>1721.800048828125</ele>
        <time>2021-06-24T17:45:59.000Z</time>
        <extensions>
          <ns3:TrackPointExtension>
            <ns3:atemp>30.0</ns3:atemp>
            <ns3:hr>101</ns3:hr>
          </ns3:TrackPointExtension>
        </extensions>
      </trkpt>
      <trkpt lat="36.7841233871877193450927734375" lon="-118.548277728259563446044921875">
        <ele>1722</ele>
        <time>2021-06-24T17:46:01.000Z</time>
        <extensions>
          <ns3:TrackPointExtension>
            <ns3:atemp>30.0</ns3:atemp>
            <ns3:hr>99</ns3:hr>
          </ns3:TrackPointExtension>
        </extensions>
      </trkpt>
      <trkpt lat="36.7841617763042449951171875" lon="-118.54827940464019775390625">
        <ele>1722.5999755859375</ele>
        <time>2021-06-24T17:46:06.000Z</time>
        <extensions>
          <ns3:TrackPointExtension>
            <ns3:atemp>30.0</ns3:atemp>
            <ns3:hr>100</ns3:hr>
          </ns3:TrackPointExtension>
        </extensions>
      </trkpt>
      <trkpt lat="36.7841830663383007049560546875" lon="-118.54827814735472202301025390625">
        <ele>1723</ele>
        <time>2021-06-24T17:46:09.000Z</time>
        <extensions>
          <ns3:TrackPointExtension>
            <ns3:atemp>30.0</ns3:atemp>
            <ns3:hr>103</ns3:hr>
          </ns3:TrackPointExtension>
        </extensions>
      </trkpt>
      <trkpt lat="36.784227825701236724853515625" lon="-118.54825920425355434417724609375">
        <ele>1723.199951171875</ele>
        <time>2021-06-24T17:46:15.000Z</time>
        <extensions>
          <ns3:TrackPointExtension>
            <ns3:atemp>30.0</ns3:atemp>
            <ns3:hr>102</ns3:hr>
          </ns3:TrackPointExtension>
        </extensions>
      </trkpt>
      <trkpt lat="36.784237213432788848876953125" lon="-118.548238165676593780517578125">
        <ele>1723.199951171875</ele>
        <time>2021-06-24T17:46:18.000Z</time>
        <extensions>
          <ns3:TrackPointExtension>
            <ns3:atemp>30.0</ns3:atemp>
            <ns3:hr>103</ns3:hr>
          </ns3:TrackPointExtension>
        </extensions>
      </trkpt>
      <trkpt lat="36.78427199833095073699951171875" lon="-118.54821193031966686248779296875">
        <ele>1723.4000244140625</ele>
        <time>2021-06-24T17:46:22.000Z</time>
        <extensions>
          <ns3:TrackPointExtension>
            <ns3:atemp>30.0</ns3:atemp>
            <ns3:hr>105</ns3:hr>
          </ns3:TrackPointExtension>
        </extensions>
      </trkpt>
      <trkpt lat="36.78431457839906215667724609375" lon="-118.54816985316574573516845703125">
        <ele>1724</ele>
        <time>2021-06-24T17:46:28.000Z</time>
        <extensions>
          <ns3:TrackPointExtension>
            <ns3:atemp>30.0</ns3:atemp>
            <ns3:hr>106</ns3:hr>
          </ns3:TrackPointExtension>
        </extensions>
      </trkpt>
      <trkpt lat="36.78432195447385311126708984375" lon="-118.54816834442317485809326171875">
        <ele>1724</ele>
        <time>2021-06-24T17:46:29.000Z</time>
        <extensions>
          <ns3:TrackPointExtension>
            <ns3:atemp>30.0</ns3:atemp>
            <ns3:hr>104</ns3:hr>
          </ns3:TrackPointExtension>
        </extensions>
      </trkpt>
      <trkpt lat="36.78437978960573673248291015625" lon="-118.5481323860585689544677734375">
        <ele>1724.800048828125</ele>
        <time>2021-06-24T17:46:35.000Z</time>
        <extensions>
          <ns3:TrackPointExtension>
            <ns3:atemp>30.0</ns3:atemp>
            <ns3:hr>106</ns3:hr>
          </ns3:TrackPointExtension>
        </extensions>
      </trkpt>
      <trkpt lat="36.78442060947418212890625" lon="-118.54813992977142333984375">
        <ele>1725.4000244140625</ele>
        <time>2021-06-24T17:46:39.000Z</time>
        <extensions>
          <ns3:TrackPointExtension>
            <ns3:atemp>30.0</ns3:atemp>
            <ns3:hr>104</ns3:hr>
          </ns3:TrackPointExtension>
        </extensions>
      </trkpt>
      <trkpt lat="36.78444944322109222412109375" lon="-118.5481340624392032623291015625">
        <ele>1726</ele>
        <time>2021-06-24T17:46:43.000Z</time>
        <extensions>
          <ns3:TrackPointExtension>
            <ns3:atemp>30.0</ns3:atemp>
            <ns3:hr>104</ns3:hr>
          </ns3:TrackPointExtension>
        </extensions>
      </trkpt>
      <trkpt lat="36.78446981124579906463623046875" lon="-118.54812542907893657684326171875">
        <ele>1726.4000244140625</ele>
        <time>2021-06-24T17:46:45.000Z</time>
        <extensions>
          <ns3:TrackPointExtension>
            <ns3:atemp>30.0</ns3:atemp>
            <ns3:hr>104</ns3:hr>
          </ns3:TrackPointExtension>
        </extensions>
      </trkpt>
      <trkpt lat="36.78449864499270915985107421875" lon="-118.54811436496675014495849609375">
        <ele>1726.5999755859375</ele>
        <time>2021-06-24T17:46:48.000Z</time>
        <extensions>
          <ns3:TrackPointExtension>
            <ns3:atemp>30.0</ns3:atemp>
            <ns3:hr>107</ns3:hr>
          </ns3:TrackPointExtension>
        </extensions>
      </trkpt>
      <trkpt lat="36.78452731110155582427978515625" lon="-118.5480941645801067352294921875">
        <ele>1727.199951171875</ele>
        <time>2021-06-24T17:46:52.000Z</time>
        <extensions>
          <ns3:TrackPointExtension>
            <ns3:atemp>30.0</ns3:atemp>
            <ns3:hr>107</ns3:hr>
          </ns3:TrackPointExtension>
        </extensions>
      </trkpt>
      <trkpt lat="36.784552037715911865234375" lon="-118.54807681404054164886474609375">
        <ele>1727.5999755859375</ele>
        <time>2021-06-24T17:46:55.000Z</time>
        <extensions>
          <ns3:TrackPointExtension>
            <ns3:atemp>30.0</ns3:atemp>
            <ns3:hr>108</ns3:hr>
          </ns3:TrackPointExtension>
        </extensions>
      </trkpt>
      <trkpt lat="36.7845461703836917877197265625" lon="-118.54803264141082763671875">
        <ele>1728.199951171875</ele>
        <time>2021-06-24T17:46:59.000Z</time>
        <extensions>
          <ns3:TrackPointExtension>
            <ns3:atemp>30.0</ns3:atemp>
            <ns3:hr>107</ns3:hr>
          </ns3:TrackPointExtension>
        </extensions>
      </trkpt>
      <trkpt lat="36.784509122371673583984375" lon="-118.548019565641880035400390625">
        <ele>1728.800048828125</ele>
        <time>2021-06-24T17:47:03.000Z</time>
        <extensions>
          <ns3:TrackPointExtension>
            <ns3:atemp>30.0</ns3:atemp>
            <ns3:hr>106</ns3:hr>
          </ns3:TrackPointExtension>
        </extensions>
      </trkpt>
      <trkpt lat="36.7844809591770172119140625" lon="-118.54800975881516933441162109375">
        <ele>1729.199951171875</ele>
        <time>2021-06-24T17:47:06.000Z</time>
        <extensions>
          <ns3:TrackPointExtension>
            <ns3:atemp>30.0</ns3:atemp>
            <ns3:hr>109</ns3:hr>
          </ns3:TrackPointExtension>
        </extensions>
      </trkpt>
      <trkpt lat="36.78445137105882167816162109375" lon="-118.5480163805186748504638671875">
        <ele>1729.5999755859375</ele>
        <time>2021-06-24T17:47:11.000Z</time>
        <extensions>
          <ns3:TrackPointExtension>
            <ns3:atemp>30.0</ns3:atemp>
            <ns3:hr>112</ns3:hr>
          </ns3:TrackPointExtension>
        </extensions>
      </trkpt>
      <trkpt lat="36.78444433026015758514404296875" lon="-118.54801093228161334991455078125">
        <ele>1729.800048828125</ele>
        <time>2021-06-24T17:47:13.000Z</time>
        <extensions>
          <ns3:TrackPointExtension>
            <ns3:atemp>30.0</ns3:atemp>
            <ns3:hr>111</ns3:hr>
          </ns3:TrackPointExtension>
        </extensions>
      </trkpt>
      <trkpt lat="36.78441247902810573577880859375" lon="-118.54800104163587093353271484375">
        <ele>1730.4000244140625</ele>
        <time>2021-06-24T17:47:19.000Z</time>
        <extensions>
          <ns3:TrackPointExtension>
            <ns3:atemp>30.0</ns3:atemp>
            <ns3:hr>111</ns3:hr>
          </ns3:TrackPointExtension>
        </extensions>
      </trkpt>
      <trkpt lat="36.7843792028725147247314453125" lon="-118.54798830114305019378662109375">
        <ele>1731</ele>
        <time>2021-06-24T17:47:23.000Z</time>
        <extensions>
          <ns3:TrackPointExtension>
            <ns3:atemp>30.0</ns3:atemp>
            <ns3:hr>112</ns3:hr>
          </ns3:TrackPointExtension>
        </extensions>
      </trkpt>
      <trkpt lat="36.7843476869165897369384765625" lon="-118.5479734651744365692138671875">
        <ele>1731.5999755859375</ele>
        <time>2021-06-24T17:47:27.000Z</time>
        <extensions>
          <ns3:TrackPointExtension>
            <ns3:atemp>30.0</ns3:atemp>
            <ns3:hr>115</ns3:hr>
          </ns3:TrackPointExtension>
        </extensions>
      </trkpt>
      <trkpt lat="36.7843393050134181976318359375" lon="-118.54796902276575565338134765625">
        <ele>1731.800048828125</ele>
        <time>2021-06-24T17:47:28.000Z</time>
        <extensions>
          <ns3:TrackPointExtension>
            <ns3:atemp>30.0</ns3:atemp>
            <ns3:hr>115</ns3:hr>
          </ns3:TrackPointExtension>
        </extensions>
      </trkpt>
      <trkpt lat="36.78433016873896121978759765625" lon="-118.54796768166124820709228515625">
        <ele>1732.199951171875</ele>
        <time>2021-06-24T17:47:30.000Z</time>
        <extensions>
          <ns3:TrackPointExtension>
            <ns3:atemp>30.0</ns3:atemp>
            <ns3:hr>116</ns3:hr>
          </ns3:TrackPointExtension>
        </extensions>
      </trkpt>
      <trkpt lat="36.784295551478862762451171875" lon="-118.54794924147427082061767578125">
        <ele>1732.5999755859375</ele>
        <time>2021-06-24T17:47:34.000Z</time>
        <extensions>
          <ns3:TrackPointExtension>
            <ns3:atemp>30.0</ns3:atemp>
            <ns3:hr>114</ns3:hr>
          </ns3:TrackPointExtension>
        </extensions>
      </trkpt>
      <trkpt lat="36.7842762731015682220458984375" lon="-118.547943793237209320068359375">
        <ele>1732.5999755859375</ele>
        <time>2021-06-24T17:47:36.000Z</time>
        <extensions>
          <ns3:TrackPointExtension>
            <ns3:atemp>30.0</ns3:atemp>
            <ns3:hr>111</ns3:hr>
          </ns3:TrackPointExtension>
        </extensions>
      </trkpt>
      <trkpt lat="36.78426629863679409027099609375" lon="-118.5479533486068248748779296875">
        <ele>1733</ele>
        <time>2021-06-24T17:47:39.000Z</time>
        <extensions>
          <ns3:TrackPointExtension>
            <ns3:atemp>30.0</ns3:atemp>
            <ns3:hr>114</ns3:hr>
          </ns3:TrackPointExtension>
        </extensions>
      </trkpt>
      <trkpt lat="36.784262359142303466796875" lon="-118.54795494116842746734619140625">
        <ele>1733.4000244140625</ele>
        <time>2021-06-24T17:47:40.000Z</time>
        <extensions>
          <ns3:TrackPointExtension>
            <ns3:atemp>30.0</ns3:atemp>
            <ns3:hr>113</ns3:hr>
          </ns3:TrackPointExtension>
        </extensions>
      </trkpt>
      <trkpt lat="36.78422740660607814788818359375" lon="-118.54795091785490512847900390625">
        <ele>1733.800048828125</ele>
        <time>2021-06-24T17:47:43.000Z</time>
        <extensions>
          <ns3:TrackPointExtension>
            <ns3:atemp>30.0</ns3:atemp>
            <ns3:hr>112</ns3:hr>
          </ns3:TrackPointExtension>
        </extensions>
      </trkpt>
      <trkpt lat="36.784217096865177154541015625" lon="-118.54795753955841064453125">
        <ele>1734</ele>
        <time>2021-06-24T17:47:44.000Z</time>
        <extensions>
          <ns3:TrackPointExtension>
            <ns3:atemp>30.0</ns3:atemp>
            <ns3:hr>114</ns3:hr>
          </ns3:TrackPointExtension>
        </extensions>
      </trkpt>
      <trkpt lat="36.78418884985148906707763671875" lon="-118.54794186539947986602783203125">
        <ele>1734.4000244140625</ele>
        <time>2021-06-24T17:47:49.000Z</time>
        <extensions>
          <ns3:TrackPointExtension>
            <ns3:atemp>30.0</ns3:atemp>
            <ns3:hr>112</ns3:hr>
          </ns3:TrackPointExtension>
        </extensions>
      </trkpt>
      <trkpt lat="36.78421340882778167724609375" lon="-118.54795728810131549835205078125">
        <ele>1735.4000244140625</ele>
        <time>2021-06-24T17:47:55.000Z</time>
        <extensions>
          <ns3:TrackPointExtension>
            <ns3:atemp>30.0</ns3:atemp>
            <ns3:hr>112</ns3:hr>
          </ns3:TrackPointExtension>
        </extensions>
      </trkpt>
      <trkpt lat="36.78422623313963413238525390625" lon="-118.5479481518268585205078125">
        <ele>1735.5999755859375</ele>
        <time>2021-06-24T17:47:57.000Z</time>
        <extensions>
          <ns3:TrackPointExtension>
            <ns3:atemp>30.0</ns3:atemp>
            <ns3:hr>113</ns3:hr>
          </ns3:TrackPointExtension>
        </extensions>
      </trkpt>
      <trkpt lat="36.78427333943545818328857421875" lon="-118.54797002859413623809814453125">
        <ele>1736</ele>
        <time>2021-06-24T17:48:04.000Z</time>
        <extensions>
          <ns3:TrackPointExtension>
            <ns3:atemp>30.0</ns3:atemp>
            <ns3:hr>112</ns3:hr>
          </ns3:TrackPointExtension>
        </extensions>
      </trkpt>
      <trkpt lat="36.78431608714163303375244140625" lon="-118.547935746610164642333984375">
        <ele>1736.4000244140625</ele>
        <time>2021-06-24T17:48:08.000Z</time>
        <extensions>
          <ns3:TrackPointExtension>
            <ns3:atemp>30.0</ns3:atemp>
            <ns3:hr>109</ns3:hr>
          </ns3:TrackPointExtension>
        </extensions>
      </trkpt>
      <trkpt lat="36.78434156812727451324462890625" lon="-118.54790481738746166229248046875">
        <ele>1737</ele>
        <time>2021-06-24T17:48:11.000Z</time>
        <extensions>
          <ns3:TrackPointExtension>
            <ns3:atemp>30.0</ns3:atemp>
            <ns3:hr>107</ns3:hr>
          </ns3:TrackPointExtension>
        </extensions>
      </trkpt>
      <trkpt lat="36.78438347764313220977783203125" lon="-118.5478909872472286224365234375">
        <ele>1738</ele>
        <time>2021-06-24T17:48:18.000Z</time>
        <extensions>
          <ns3:TrackPointExtension>
            <ns3:atemp>30.0</ns3:atemp>
            <ns3:hr>108</ns3:hr>
          </ns3:TrackPointExtension>
        </extensions>
      </trkpt>
      <trkpt lat="36.784388758242130279541015625" lon="-118.5478918254375457763671875">
        <ele>1738.199951171875</ele>
        <time>2021-06-24T17:48:19.000Z</time>
        <extensions>
          <ns3:TrackPointExtension>
            <ns3:atemp>30.0</ns3:atemp>
            <ns3:hr>107</ns3:hr>
          </ns3:TrackPointExtension>
        </extensions>
      </trkpt>
      <trkpt lat="36.78440309129655361175537109375" lon="-118.54788654483854770660400390625">
        <ele>1738.5999755859375</ele>
        <time>2021-06-24T17:48:22.000Z</time>
        <extensions>
          <ns3:TrackPointExtension>
            <ns3:atemp>30.0</ns3:atemp>
            <ns3:hr>110</ns3:hr>
          </ns3:TrackPointExtension>
        </extensions>
      </trkpt>
      <trkpt lat="36.78442220203578472137451171875" lon="-118.54787145741283893585205078125">
        <ele>1739.4000244140625</ele>
        <time>2021-06-24T17:48:26.000Z</time>
        <extensions>
          <ns3:TrackPointExtension>
            <ns3:atemp>30.0</ns3:atemp>
            <ns3:hr>108</ns3:hr>
          </ns3:TrackPointExtension>
        </extensions>
      </trkpt>
      <trkpt lat="36.78442262113094329833984375" lon="-118.54786039330065250396728515625">
        <ele>1739.4000244140625</ele>
        <time>2021-06-24T17:48:27.000Z</time>
        <extensions>
          <ns3:TrackPointExtension>
            <ns3:atemp>30.0</ns3:atemp>
            <ns3:hr>105</ns3:hr>
          </ns3:TrackPointExtension>
        </extensions>
      </trkpt>
      <trkpt lat="36.784462518990039825439453125" lon="-118.547859303653240203857421875">
        <ele>1739.800048828125</ele>
        <time>2021-06-24T17:48:32.000Z</time>
        <extensions>
          <ns3:TrackPointExtension>
            <ns3:atemp>30.0</ns3:atemp>
            <ns3:hr>107</ns3:hr>
          </ns3:TrackPointExtension>
        </extensions>
      </trkpt>
      <trkpt lat="36.78444718010723590850830078125" lon="-118.54780306108295917510986328125">
        <ele>1740.5999755859375</ele>
        <time>2021-06-24T17:48:36.000Z</time>
        <extensions>
          <ns3:TrackPointExtension>
            <ns3:atemp>30.0</ns3:atemp>
            <ns3:hr>106</ns3:hr>
          </ns3:TrackPointExtension>
        </extensions>
      </trkpt>
      <trkpt lat="36.78444198332726955413818359375" lon="-118.5477944277226924896240234375">
        <ele>1740.5999755859375</ele>
        <time>2021-06-24T17:48:37.000Z</time>
        <extensions>
          <ns3:TrackPointExtension>
            <ns3:atemp>30.0</ns3:atemp>
            <ns3:hr>107</ns3:hr>
          </ns3:TrackPointExtension>
        </extensions>
      </trkpt>
      <trkpt lat="36.7844130657613277435302734375" lon="-118.54778747074306011199951171875">
        <ele>1741</ele>
        <time>2021-06-24T17:48:41.000Z</time>
        <extensions>
          <ns3:TrackPointExtension>
            <ns3:atemp>30.0</ns3:atemp>
            <ns3:hr>104</ns3:hr>
          </ns3:TrackPointExtension>
        </extensions>
      </trkpt>
      <trkpt lat="36.7843946255743503570556640625" lon="-118.54777841828763484954833984375">
        <ele>1741.4000244140625</ele>
        <time>2021-06-24T17:48:43.000Z</time>
        <extensions>
          <ns3:TrackPointExtension>
            <ns3:atemp>30.0</ns3:atemp>
            <ns3:hr>105</ns3:hr>
          </ns3:TrackPointExtension>
        </extensions>
      </trkpt>
      <trkpt lat="36.7843785323202610015869140625" lon="-118.5477738082408905029296875">
        <ele>1741.5999755859375</ele>
        <time>2021-06-24T17:48:45.000Z</time>
        <extensions>
          <ns3:TrackPointExtension>
            <ns3:atemp>30.0</ns3:atemp>
            <ns3:hr>106</ns3:hr>
          </ns3:TrackPointExtension>
        </extensions>
      </trkpt>
      <trkpt lat="36.78437794558703899383544921875" lon="-118.54778093285858631134033203125">
        <ele>1741.5999755859375</ele>
        <time>2021-06-24T17:48:46.000Z</time>
        <extensions>
          <ns3:TrackPointExtension>
            <ns3:atemp>30.0</ns3:atemp>
            <ns3:hr>106</ns3:hr>
          </ns3:TrackPointExtension>
        </extensions>
      </trkpt>
      <trkpt lat="36.7843654565513134002685546875" lon="-118.54778110049664974212646484375">
        <ele>1741.800048828125</ele>
        <time>2021-06-24T17:48:48.000Z</time>
        <extensions>
          <ns3:TrackPointExtension>
            <ns3:atemp>30.0</ns3:atemp>
            <ns3:hr>106</ns3:hr>
          </ns3:TrackPointExtension>
        </extensions>
      </trkpt>
      <trkpt lat="36.7843414843082427978515625" lon="-118.54779099114239215850830078125">
        <ele>1742</ele>
        <time>2021-06-24T17:48:53.000Z</time>
        <extensions>
          <ns3:TrackPointExtension>
            <ns3:atemp>30.0</ns3:atemp>
            <ns3:hr>105</ns3:hr>
          </ns3:TrackPointExtension>
        </extensions>
      </trkpt>
      <trkpt lat="36.784321032464504241943359375" lon="-118.54779501445591449737548828125">
        <ele>1742.5999755859375</ele>
        <time>2021-06-24T17:48:56.000Z</time>
        <extensions>
          <ns3:TrackPointExtension>
            <ns3:atemp>30.0</ns3:atemp>
            <ns3:hr>105</ns3:hr>
          </ns3:TrackPointExtension>
        </extensions>
      </trkpt>
      <trkpt lat="36.7843061126768589019775390625" lon="-118.54778587818145751953125">
        <ele>1742.800048828125</ele>
        <time>2021-06-24T17:48:59.000Z</time>
        <extensions>
          <ns3:TrackPointExtension>
            <ns3:atemp>30.0</ns3:atemp>
            <ns3:hr>107</ns3:hr>
          </ns3:TrackPointExtension>
        </extensions>
      </trkpt>
      <trkpt lat="36.78428557701408863067626953125" lon="-118.54780104942619800567626953125">
        <ele>1743.800048828125</ele>
        <time>2021-06-24T17:49:03.000Z</time>
        <extensions>
          <ns3:TrackPointExtension>
            <ns3:atemp>30.0</ns3:atemp>
            <ns3:hr>108</ns3:hr>
          </ns3:TrackPointExtension>
        </extensions>
      </trkpt>
      <trkpt lat="36.7842638678848743438720703125" lon="-118.54780272580683231353759765625">
        <ele>1744</ele>
        <time>2021-06-24T17:49:05.000Z</time>
        <extensions>
          <ns3:TrackPointExtension>
            <ns3:atemp>30.0</ns3:atemp>
            <ns3:hr>110</ns3:hr>
          </ns3:TrackPointExtension>
        </extensions>
      </trkpt>
      <trkpt lat="36.7842434160411357879638671875" lon="-118.54781337082386016845703125">
        <ele>1744.4000244140625</ele>
        <time>2021-06-24T17:49:09.000Z</time>
        <extensions>
          <ns3:TrackPointExtension>
            <ns3:atemp>30.0</ns3:atemp>
            <ns3:hr>109</ns3:hr>
          </ns3:TrackPointExtension>
        </extensions>
      </trkpt>
      <trkpt lat="36.7842377163469791412353515625" lon="-118.54781965725123882293701171875">
        <ele>1744.5999755859375</ele>
        <time>2021-06-24T17:49:10.000Z</time>
        <extensions>
          <ns3:TrackPointExtension>
            <ns3:atemp>30.0</ns3:atemp>
            <ns3:hr>110</ns3:hr>
          </ns3:TrackPointExtension>
        </extensions>
      </trkpt>
      <trkpt lat="36.7841941304504871368408203125" lon="-118.54781161062419414520263671875">
        <ele>1744.800048828125</ele>
        <time>2021-06-24T17:49:14.000Z</time>
        <extensions>
          <ns3:TrackPointExtension>
            <ns3:atemp>30.0</ns3:atemp>
            <ns3:hr>109</ns3:hr>
          </ns3:TrackPointExtension>
        </extensions>
      </trkpt>
      <trkpt lat="36.78417510353028774261474609375" lon="-118.54779995977878570556640625">
        <ele>1745.199951171875</ele>
        <time>2021-06-24T17:49:16.000Z</time>
        <extensions>
          <ns3:TrackPointExtension>
            <ns3:atemp>30.0</ns3:atemp>
            <ns3:hr>110</ns3:hr>
          </ns3:TrackPointExtension>
        </extensions>
      </trkpt>
      <trkpt lat="36.784139312803745269775390625" lon="-118.5477974452078342437744140625">
        <ele>1745.800048828125</ele>
        <time>2021-06-24T17:49:20.000Z</time>
        <extensions>
          <ns3:TrackPointExtension>
            <ns3:atemp>30.0</ns3:atemp>
            <ns3:hr>109</ns3:hr>
          </ns3:TrackPointExtension>
        </extensions>
      </trkpt>
      <trkpt lat="36.78413294255733489990234375" lon="-118.5477991215884685516357421875">
        <ele>1745.800048828125</ele>
        <time>2021-06-24T17:49:21.000Z</time>
        <extensions>
          <ns3:TrackPointExtension>
            <ns3:atemp>30.0</ns3:atemp>
            <ns3:hr>105</ns3:hr>
          </ns3:TrackPointExtension>
        </extensions>
      </trkpt>
      <trkpt lat="36.78412087261676788330078125" lon="-118.5477925837039947509765625">
        <ele>1746.199951171875</ele>
        <time>2021-06-24T17:49:23.000Z</time>
        <extensions>
          <ns3:TrackPointExtension>
            <ns3:atemp>30.0</ns3:atemp>
            <ns3:hr>105</ns3:hr>
          </ns3:TrackPointExtension>
        </extensions>
      </trkpt>
      <trkpt lat="36.7840920388698577880859375" lon="-118.547780849039554595947265625">
        <ele>1746.5999755859375</ele>
        <time>2021-06-24T17:49:26.000Z</time>
        <extensions>
          <ns3:TrackPointExtension>
            <ns3:atemp>30.0</ns3:atemp>
            <ns3:hr>108</ns3:hr>
          </ns3:TrackPointExtension>
        </extensions>
      </trkpt>
      <trkpt lat="36.7840680666267871856689453125" lon="-118.54776282794773578643798828125">
        <ele>1746.800048828125</ele>
        <time>2021-06-24T17:49:30.000Z</time>
        <extensions>
          <ns3:TrackPointExtension>
            <ns3:atemp>30.0</ns3:atemp>
            <ns3:hr>109</ns3:hr>
          </ns3:TrackPointExtension>
        </extensions>
      </trkpt>
      <trkpt lat="36.78405188955366611480712890625" lon="-118.54775411076843738555908203125">
        <ele>1746.800048828125</ele>
        <time>2021-06-24T17:49:31.000Z</time>
        <extensions>
          <ns3:TrackPointExtension>
            <ns3:atemp>30.0</ns3:atemp>
            <ns3:hr>110</ns3:hr>
          </ns3:TrackPointExtension>
        </extensions>
      </trkpt>
      <trkpt lat="36.78401316516101360321044921875" lon="-118.54775126092135906219482421875">
        <ele>1747</ele>
        <time>2021-06-24T17:49:34.000Z</time>
        <extensions>
          <ns3:TrackPointExtension>
            <ns3:atemp>30.0</ns3:atemp>
            <ns3:hr>112</ns3:hr>
          </ns3:TrackPointExtension>
        </extensions>
      </trkpt>
      <trkpt lat="36.783966980874538421630859375" lon="-118.5477161407470703125">
        <ele>1747.800048828125</ele>
        <time>2021-06-24T17:49:40.000Z</time>
        <extensions>
          <ns3:TrackPointExtension>
            <ns3:atemp>30.0</ns3:atemp>
            <ns3:hr>111</ns3:hr>
          </ns3:TrackPointExtension>
        </extensions>
      </trkpt>
      <trkpt lat="36.78395499475300312042236328125" lon="-118.54770599864423274993896484375">
        <ele>1748</ele>
        <time>2021-06-24T17:49:42.000Z</time>
        <extensions>
          <ns3:TrackPointExtension>
            <ns3:atemp>30.0</ns3:atemp>
            <ns3:hr>110</ns3:hr>
          </ns3:TrackPointExtension>
        </extensions>
      </trkpt>
      <trkpt lat="36.783916689455509185791015625" lon="-118.54770381934940814971923828125">
        <ele>1748.4000244140625</ele>
        <time>2021-06-24T17:49:46.000Z</time>
        <extensions>
          <ns3:TrackPointExtension>
            <ns3:atemp>30.0</ns3:atemp>
            <ns3:hr>108</ns3:hr>
          </ns3:TrackPointExtension>
        </extensions>
      </trkpt>
      <trkpt lat="36.78383228369057178497314453125" lon="-118.5477102734148502349853515625">
        <ele>1749</ele>
        <time>2021-06-24T17:49:54.000Z</time>
        <extensions>
          <ns3:TrackPointExtension>
            <ns3:atemp>30.0</ns3:atemp>
            <ns3:hr>108</ns3:hr>
          </ns3:TrackPointExtension>
        </extensions>
      </trkpt>
      <trkpt lat="36.78381384350359439849853515625" lon="-118.547699712216854095458984375">
        <ele>1749</ele>
        <time>2021-06-24T17:49:55.000Z</time>
        <extensions>
          <ns3:TrackPointExtension>
            <ns3:atemp>30.0</ns3:atemp>
            <ns3:hr>107</ns3:hr>
          </ns3:TrackPointExtension>
        </extensions>
      </trkpt>
      <trkpt lat="36.7837857641279697418212890625" lon="-118.547682277858257293701171875">
        <ele>1749.4000244140625</ele>
        <time>2021-06-24T17:50:00.000Z</time>
        <extensions>
          <ns3:TrackPointExtension>
            <ns3:atemp>30.0</ns3:atemp>
            <ns3:hr>107</ns3:hr>
          </ns3:TrackPointExtension>
        </extensions>
      </trkpt>
      <trkpt lat="36.78373756818473339080810546875" lon="-118.547660149633884429931640625">
        <ele>1749.5999755859375</ele>
        <time>2021-06-24T17:50:05.000Z</time>
        <extensions>
          <ns3:TrackPointExtension>
            <ns3:atemp>30.0</ns3:atemp>
            <ns3:hr>104</ns3:hr>
          </ns3:TrackPointExtension>
        </extensions>
      </trkpt>
      <trkpt lat="36.7837264202535152435302734375" lon="-118.54765503667294979095458984375">
        <ele>1749.5999755859375</ele>
        <time>2021-06-24T17:50:07.000Z</time>
        <extensions>
          <ns3:TrackPointExtension>
            <ns3:atemp>30.0</ns3:atemp>
            <ns3:hr>104</ns3:hr>
          </ns3:TrackPointExtension>
        </extensions>
      </trkpt>
      <trkpt lat="36.78372298367321491241455078125" lon="-118.547651767730712890625">
        <ele>1749.5999755859375</ele>
        <time>2021-06-24T17:50:08.000Z</time>
        <extensions>
          <ns3:TrackPointExtension>
            <ns3:atemp>30.0</ns3:atemp>
            <ns3:hr>105</ns3:hr>
          </ns3:TrackPointExtension>
        </extensions>
      </trkpt>
      <trkpt lat="36.7837173677980899810791015625" lon="-118.54764447547495365142822265625">
        <ele>1750</ele>
        <time>2021-06-24T17:50:10.000Z</time>
        <extensions>
          <ns3:TrackPointExtension>
            <ns3:atemp>30.0</ns3:atemp>
            <ns3:hr>107</ns3:hr>
          </ns3:TrackPointExtension>
        </extensions>
      </trkpt>
      <trkpt lat="36.7837143503129482269287109375" lon="-118.5476348362863063812255859375">
        <ele>1750.4000244140625</ele>
        <time>2021-06-24T17:50:11.000Z</time>
        <extensions>
          <ns3:TrackPointExtension>
            <ns3:atemp>30.0</ns3:atemp>
            <ns3:hr>108</ns3:hr>
          </ns3:TrackPointExtension>
        </extensions>
      </trkpt>
      <trkpt lat="36.78370940499007701873779296875" lon="-118.547610528767108917236328125">
        <ele>1750.5999755859375</ele>
        <time>2021-06-24T17:50:13.000Z</time>
        <extensions>
          <ns3:TrackPointExtension>
            <ns3:atemp>30.0</ns3:atemp>
            <ns3:hr>109</ns3:hr>
          </ns3:TrackPointExtension>
        </extensions>
      </trkpt>
      <trkpt lat="36.7837173677980899810791015625" lon="-118.54758580215275287628173828125">
        <ele>1751</ele>
        <time>2021-06-24T17:50:18.000Z</time>
        <extensions>
          <ns3:TrackPointExtension>
            <ns3:atemp>30.0</ns3:atemp>
            <ns3:hr>107</ns3:hr>
          </ns3:TrackPointExtension>
        </extensions>
      </trkpt>
      <trkpt lat="36.78374930284917354583740234375" lon="-118.547642715275287628173828125">
        <ele>1751.199951171875</ele>
        <time>2021-06-24T17:50:24.000Z</time>
        <extensions>
          <ns3:TrackPointExtension>
            <ns3:atemp>30.0</ns3:atemp>
            <ns3:hr>104</ns3:hr>
          </ns3:TrackPointExtension>
        </extensions>
      </trkpt>
      <trkpt lat="36.7837674915790557861328125" lon="-118.5476616583764553070068359375">
        <ele>1751.4000244140625</ele>
        <time>2021-06-24T17:50:26.000Z</time>
        <extensions>
          <ns3:TrackPointExtension>
            <ns3:atemp>30.0</ns3:atemp>
            <ns3:hr>103</ns3:hr>
          </ns3:TrackPointExtension>
        </extensions>
      </trkpt>
      <trkpt lat="36.78378165699541568756103515625" lon="-118.54767381213605403900146484375">
        <ele>1751.5999755859375</ele>
        <time>2021-06-24T17:50:28.000Z</time>
        <extensions>
          <ns3:TrackPointExtension>
            <ns3:atemp>30.0</ns3:atemp>
            <ns3:hr>101</ns3:hr>
          </ns3:TrackPointExtension>
        </extensions>
      </trkpt>
      <trkpt lat="36.7838075570762157440185546875" lon="-118.54768470861017704010009765625">
        <ele>1752.5999755859375</ele>
        <time>2021-06-24T17:50:31.000Z</time>
        <extensions>
          <ns3:TrackPointExtension>
            <ns3:atemp>30.0</ns3:atemp>
            <ns3:hr>99</ns3:hr>
          </ns3:TrackPointExtension>
        </extensions>
      </trkpt>
      <trkpt lat="36.7838286794722080230712890625" lon="-118.5476821102201938629150390625">
        <ele>1752.5999755859375</ele>
        <time>2021-06-24T17:50:34.000Z</time>
        <extensions>
          <ns3:TrackPointExtension>
            <ns3:atemp>30.0</ns3:atemp>
            <ns3:hr>104</ns3:hr>
          </ns3:TrackPointExtension>
        </extensions>
      </trkpt>
      <trkpt lat="36.7838394083082675933837890625" lon="-118.5476871393620967864990234375">
        <ele>1752.5999755859375</ele>
        <time>2021-06-24T17:50:35.000Z</time>
        <extensions>
          <ns3:TrackPointExtension>
            <ns3:atemp>30.0</ns3:atemp>
            <ns3:hr>108</ns3:hr>
          </ns3:TrackPointExtension>
        </extensions>
      </trkpt>
      <trkpt lat="36.78385508246719837188720703125" lon="-118.54769879020750522613525390625">
        <ele>1752.5999755859375</ele>
        <time>2021-06-24T17:50:37.000Z</time>
        <extensions>
          <ns3:TrackPointExtension>
            <ns3:atemp>30.0</ns3:atemp>
            <ns3:hr>111</ns3:hr>
          </ns3:TrackPointExtension>
        </extensions>
      </trkpt>
      <trkpt lat="36.783892549574375152587890625" lon="-118.54770868085324764251708984375">
        <ele>1752.5999755859375</ele>
        <time>2021-06-24T17:50:41.000Z</time>
        <extensions>
          <ns3:TrackPointExtension>
            <ns3:atemp>30.0</ns3:atemp>
            <ns3:hr>107</ns3:hr>
          </ns3:TrackPointExtension>
        </extensions>
      </trkpt>
      <trkpt lat="36.7839031107723712921142578125" lon="-118.5476933419704437255859375">
        <ele>1753.199951171875</ele>
        <time>2021-06-24T17:50:43.000Z</time>
        <extensions>
          <ns3:TrackPointExtension>
            <ns3:atemp>30.0</ns3:atemp>
            <ns3:hr>104</ns3:hr>
          </ns3:TrackPointExtension>
        </extensions>
      </trkpt>
      <trkpt lat="36.78393714129924774169921875" lon="-118.54769946075975894927978515625">
        <ele>1753.5999755859375</ele>
        <time>2021-06-24T17:50:47.000Z</time>
        <extensions>
          <ns3:TrackPointExtension>
            <ns3:atemp>30.0</ns3:atemp>
            <ns3:hr>103</ns3:hr>
          </ns3:TrackPointExtension>
        </extensions>
      </trkpt>
      <trkpt lat="36.78396421484649181365966796875" lon="-118.547685630619525909423828125">
        <ele>1753.800048828125</ele>
        <time>2021-06-24T17:50:51.000Z</time>
        <extensions>
          <ns3:TrackPointExtension>
            <ns3:atemp>30.0</ns3:atemp>
            <ns3:hr>104</ns3:hr>
          </ns3:TrackPointExtension>
        </extensions>
      </trkpt>
      <trkpt lat="36.78398919291794300079345703125" lon="-118.547667525708675384521484375">
        <ele>1753.5999755859375</ele>
        <time>2021-06-24T17:50:54.000Z</time>
        <extensions>
          <ns3:TrackPointExtension>
            <ns3:atemp>30.0</ns3:atemp>
            <ns3:hr>107</ns3:hr>
          </ns3:TrackPointExtension>
        </extensions>
      </trkpt>
      <trkpt lat="36.7840142548084259033203125" lon="-118.5476754046976566314697265625">
        <ele>1754</ele>
        <time>2021-06-24T17:50:57.000Z</time>
        <extensions>
          <ns3:TrackPointExtension>
            <ns3:atemp>30.0</ns3:atemp>
            <ns3:hr>111</ns3:hr>
          </ns3:TrackPointExtension>
        </extensions>
      </trkpt>
      <trkpt lat="36.78403344936668872833251953125" lon="-118.54767330922186374664306640625">
        <ele>1754.199951171875</ele>
        <time>2021-06-24T17:51:00.000Z</time>
        <extensions>
          <ns3:TrackPointExtension>
            <ns3:atemp>30.0</ns3:atemp>
            <ns3:hr>114</ns3:hr>
          </ns3:TrackPointExtension>
        </extensions>
      </trkpt>
      <trkpt lat="36.78403797559440135955810546875" lon="-118.5476723872125148773193359375">
        <ele>1754.4000244140625</ele>
        <time>2021-06-24T17:51:01.000Z</time>
        <extensions>
          <ns3:TrackPointExtension>
            <ns3:atemp>30.0</ns3:atemp>
            <ns3:hr>115</ns3:hr>
          </ns3:TrackPointExtension>
        </extensions>
      </trkpt>
      <trkpt lat="36.78404233418405055999755859375" lon="-118.54767012409865856170654296875">
        <ele>1754.800048828125</ele>
        <time>2021-06-24T17:51:02.000Z</time>
        <extensions>
          <ns3:TrackPointExtension>
            <ns3:atemp>30.0</ns3:atemp>
            <ns3:hr>116</ns3:hr>
          </ns3:TrackPointExtension>
        </extensions>
      </trkpt>
      <trkpt lat="36.78406764753162860870361328125" lon="-118.54765386320650577545166015625">
        <ele>1755.4000244140625</ele>
        <time>2021-06-24T17:51:06.000Z</time>
        <extensions>
          <ns3:TrackPointExtension>
            <ns3:atemp>30.0</ns3:atemp>
            <ns3:hr>116</ns3:hr>
          </ns3:TrackPointExtension>
        </extensions>
      </trkpt>
      <trkpt lat="36.784084998071193695068359375" lon="-118.5476603172719478607177734375">
        <ele>1755.5999755859375</ele>
        <time>2021-06-24T17:51:08.000Z</time>
        <extensions>
          <ns3:TrackPointExtension>
            <ns3:atemp>30.0</ns3:atemp>
            <ns3:hr>117</ns3:hr>
          </ns3:TrackPointExtension>
        </extensions>
      </trkpt>
      <trkpt lat="36.78409379906952381134033203125" lon="-118.5476586408913135528564453125">
        <ele>1755.800048828125</ele>
        <time>2021-06-24T17:51:09.000Z</time>
        <extensions>
          <ns3:TrackPointExtension>
            <ns3:atemp>30.0</ns3:atemp>
            <ns3:hr>117</ns3:hr>
          </ns3:TrackPointExtension>
        </extensions>
      </trkpt>
      <trkpt lat="36.78410419262945652008056640625" lon="-118.547649085521697998046875">
        <ele>1756</ele>
        <time>2021-06-24T17:51:10.000Z</time>
        <extensions>
          <ns3:TrackPointExtension>
            <ns3:atemp>30.0</ns3:atemp>
            <ns3:hr>115</ns3:hr>
          </ns3:TrackPointExtension>
        </extensions>
      </trkpt>
      <trkpt lat="36.7841287516057491302490234375" lon="-118.54761346243321895599365234375">
        <ele>1756.199951171875</ele>
        <time>2021-06-24T17:51:14.000Z</time>
        <extensions>
          <ns3:TrackPointExtension>
            <ns3:atemp>30.0</ns3:atemp>
            <ns3:hr>116</ns3:hr>
          </ns3:TrackPointExtension>
        </extensions>
      </trkpt>
      <trkpt lat="36.78415775299072265625" lon="-118.5475982911884784698486328125">
        <ele>1757</ele>
        <time>2021-06-24T17:51:18.000Z</time>
        <extensions>
          <ns3:TrackPointExtension>
            <ns3:atemp>30.0</ns3:atemp>
            <ns3:hr>113</ns3:hr>
          </ns3:TrackPointExtension>
        </extensions>
      </trkpt>
      <trkpt lat="36.7841941304504871368408203125" lon="-118.54758806526660919189453125">
        <ele>1757.800048828125</ele>
        <time>2021-06-24T17:51:23.000Z</time>
        <extensions>
          <ns3:TrackPointExtension>
            <ns3:atemp>30.0</ns3:atemp>
            <ns3:hr>112</ns3:hr>
          </ns3:TrackPointExtension>
        </extensions>
      </trkpt>
      <trkpt lat="36.784207038581371307373046875" lon="-118.54759401641786098480224609375">
        <ele>1758.199951171875</ele>
        <time>2021-06-24T17:51:25.000Z</time>
        <extensions>
          <ns3:TrackPointExtension>
            <ns3:atemp>30.0</ns3:atemp>
            <ns3:hr>112</ns3:hr>
          </ns3:TrackPointExtension>
        </extensions>
      </trkpt>
      <trkpt lat="36.78423930890858173370361328125" lon="-118.54760239832103252410888671875">
        <ele>1758.199951171875</ele>
        <time>2021-06-24T17:51:29.000Z</time>
        <extensions>
          <ns3:TrackPointExtension>
            <ns3:atemp>30.0</ns3:atemp>
            <ns3:hr>111</ns3:hr>
          </ns3:TrackPointExtension>
        </extensions>
      </trkpt>
      <trkpt lat="36.78427375853061676025390625" lon="-118.54758077301084995269775390625">
        <ele>1758.800048828125</ele>
        <time>2021-06-24T17:51:34.000Z</time>
        <extensions>
          <ns3:TrackPointExtension>
            <ns3:atemp>30.0</ns3:atemp>
            <ns3:hr>108</ns3:hr>
          </ns3:TrackPointExtension>
        </extensions>
      </trkpt>
      <trkpt lat="36.7842863313853740692138671875" lon="-118.5475630871951580047607421875">
        <ele>1758.800048828125</ele>
        <time>2021-06-24T17:51:36.000Z</time>
        <extensions>
          <ns3:TrackPointExtension>
            <ns3:atemp>30.0</ns3:atemp>
            <ns3:hr>108</ns3:hr>
          </ns3:TrackPointExtension>
        </extensions>
      </trkpt>
      <trkpt lat="36.78430804051458835601806640625" lon="-118.54754439555108547210693359375">
        <ele>1759</ele>
        <time>2021-06-24T17:51:39.000Z</time>
        <extensions>
          <ns3:TrackPointExtension>
            <ns3:atemp>30.0</ns3:atemp>
            <ns3:hr>105</ns3:hr>
          </ns3:TrackPointExtension>
        </extensions>
      </trkpt>
      <trkpt lat="36.78431457839906215667724609375" lon="-118.54754338972270488739013671875">
        <ele>1759.199951171875</ele>
        <time>2021-06-24T17:51:40.000Z</time>
        <extensions>
          <ns3:TrackPointExtension>
            <ns3:atemp>30.0</ns3:atemp>
            <ns3:hr>108</ns3:hr>
          </ns3:TrackPointExtension>
        </extensions>
      </trkpt>
      <trkpt lat="36.78433268330991268157958984375" lon="-118.54753266088664531707763671875">
        <ele>1759.199951171875</ele>
        <time>2021-06-24T17:51:43.000Z</time>
        <extensions>
          <ns3:TrackPointExtension>
            <ns3:atemp>30.0</ns3:atemp>
            <ns3:hr>109</ns3:hr>
          </ns3:TrackPointExtension>
        </extensions>
      </trkpt>
      <trkpt lat="36.784360595047473907470703125" lon="-118.54750567115843296051025390625">
        <ele>1760.199951171875</ele>
        <time>2021-06-24T17:51:48.000Z</time>
        <extensions>
          <ns3:TrackPointExtension>
            <ns3:atemp>30.0</ns3:atemp>
            <ns3:hr>110</ns3:hr>
          </ns3:TrackPointExtension>
        </extensions>
      </trkpt>
      <trkpt lat="36.78436554037034511566162109375" lon="-118.54748823679983615875244140625">
        <ele>1760.199951171875</ele>
        <time>2021-06-24T17:51:50.000Z</time>
        <extensions>
          <ns3:TrackPointExtension>
            <ns3:atemp>30.0</ns3:atemp>
            <ns3:hr>108</ns3:hr>
          </ns3:TrackPointExtension>
        </extensions>
      </trkpt>
      <trkpt lat="36.784335784614086151123046875" lon="-118.5474546253681182861328125">
        <ele>1761</ele>
        <time>2021-06-24T17:51:56.000Z</time>
        <extensions>
          <ns3:TrackPointExtension>
            <ns3:atemp>30.0</ns3:atemp>
            <ns3:hr>108</ns3:hr>
          </ns3:TrackPointExtension>
        </extensions>
      </trkpt>
      <trkpt lat="36.7843121476471424102783203125" lon="-118.54745051823556423187255859375">
        <ele>1761.199951171875</ele>
        <time>2021-06-24T17:51:59.000Z</time>
        <extensions>
          <ns3:TrackPointExtension>
            <ns3:atemp>30.0</ns3:atemp>
            <ns3:hr>107</ns3:hr>
          </ns3:TrackPointExtension>
        </extensions>
      </trkpt>
      <trkpt lat="36.78428540937602519989013671875" lon="-118.54743224568665027618408203125">
        <ele>1761.800048828125</ele>
        <time>2021-06-24T17:52:02.000Z</time>
        <extensions>
          <ns3:TrackPointExtension>
            <ns3:atemp>30.0</ns3:atemp>
            <ns3:hr>105</ns3:hr>
          </ns3:TrackPointExtension>
        </extensions>
      </trkpt>
      <trkpt lat="36.784262023866176605224609375" lon="-118.5474197566509246826171875">
        <ele>1762</ele>
        <time>2021-06-24T17:52:05.000Z</time>
        <extensions>
          <ns3:TrackPointExtension>
            <ns3:atemp>30.0</ns3:atemp>
            <ns3:hr>106</ns3:hr>
          </ns3:TrackPointExtension>
        </extensions>
      </trkpt>
      <trkpt lat="36.78426110185682773590087890625" lon="-118.54742579162120819091796875">
        <ele>1762.199951171875</ele>
        <time>2021-06-24T17:52:07.000Z</time>
        <extensions>
          <ns3:TrackPointExtension>
            <ns3:atemp>30.0</ns3:atemp>
            <ns3:hr>105</ns3:hr>
          </ns3:TrackPointExtension>
        </extensions>
      </trkpt>
      <trkpt lat="36.78426194004714488983154296875" lon="-118.5474373586475849151611328125">
        <ele>1762.5999755859375</ele>
        <time>2021-06-24T17:52:09.000Z</time>
        <extensions>
          <ns3:TrackPointExtension>
            <ns3:atemp>30.0</ns3:atemp>
            <ns3:hr>105</ns3:hr>
          </ns3:TrackPointExtension>
        </extensions>
      </trkpt>
      <trkpt lat="36.78423427976667881011962890625" lon="-118.5474454052746295928955078125">
        <ele>1763.4000244140625</ele>
        <time>2021-06-24T17:52:15.000Z</time>
        <extensions>
          <ns3:TrackPointExtension>
            <ns3:atemp>30.0</ns3:atemp>
            <ns3:hr>105</ns3:hr>
          </ns3:TrackPointExtension>
        </extensions>
      </trkpt>
      <trkpt lat="36.78420695476233959197998046875" lon="-118.547422774136066436767578125">
        <ele>1763.800048828125</ele>
        <time>2021-06-24T17:52:18.000Z</time>
        <extensions>
          <ns3:TrackPointExtension>
            <ns3:atemp>30.0</ns3:atemp>
            <ns3:hr>108</ns3:hr>
          </ns3:TrackPointExtension>
        </extensions>
      </trkpt>
      <trkpt lat="36.7841948010027408599853515625" lon="-118.5474179126322269439697265625">
        <ele>1764</ele>
        <time>2021-06-24T17:52:20.000Z</time>
        <extensions>
          <ns3:TrackPointExtension>
            <ns3:atemp>30.0</ns3:atemp>
            <ns3:hr>110</ns3:hr>
          </ns3:TrackPointExtension>
        </extensions>
      </trkpt>
      <trkpt lat="36.784160770475864410400390625" lon="-118.547412045300006866455078125">
        <ele>1764.5999755859375</ele>
        <time>2021-06-24T17:52:27.000Z</time>
        <extensions>
          <ns3:TrackPointExtension>
            <ns3:atemp>30.0</ns3:atemp>
            <ns3:hr>107</ns3:hr>
          </ns3:TrackPointExtension>
        </extensions>
      </trkpt>
      <trkpt lat="36.7841200344264507293701171875" lon="-118.547389246523380279541015625">
        <ele>1765.199951171875</ele>
        <time>2021-06-24T17:52:32.000Z</time>
        <extensions>
          <ns3:TrackPointExtension>
            <ns3:atemp>30.0</ns3:atemp>
            <ns3:hr>110</ns3:hr>
          </ns3:TrackPointExtension>
        </extensions>
      </trkpt>
      <trkpt lat="36.78410972468554973602294921875" lon="-118.547394610941410064697265625">
        <ele>1765.5999755859375</ele>
        <time>2021-06-24T17:52:34.000Z</time>
        <extensions>
          <ns3:TrackPointExtension>
            <ns3:atemp>30.0</ns3:atemp>
            <ns3:hr>114</ns3:hr>
          </ns3:TrackPointExtension>
        </extensions>
      </trkpt>
      <trkpt lat="36.7840767838060855865478515625" lon="-118.54740039445459842681884765625">
        <ele>1765.800048828125</ele>
        <time>2021-06-24T17:52:38.000Z</time>
        <extensions>
          <ns3:TrackPointExtension>
            <ns3:atemp>30.0</ns3:atemp>
            <ns3:hr>109</ns3:hr>
          </ns3:TrackPointExtension>
        </extensions>
      </trkpt>
      <trkpt lat="36.78406664170324802398681640625" lon="-118.5473981313407421112060546875">
        <ele>1765.800048828125</ele>
        <time>2021-06-24T17:52:39.000Z</time>
        <extensions>
          <ns3:TrackPointExtension>
            <ns3:atemp>30.0</ns3:atemp>
            <ns3:hr>109</ns3:hr>
          </ns3:TrackPointExtension>
        </extensions>
      </trkpt>
      <trkpt lat="36.784048788249492645263671875" lon="-118.5473917610943317413330078125">
        <ele>1766.199951171875</ele>
        <time>2021-06-24T17:52:41.000Z</time>
        <extensions>
          <ns3:TrackPointExtension>
            <ns3:atemp>30.0</ns3:atemp>
            <ns3:hr>109</ns3:hr>
          </ns3:TrackPointExtension>
        </extensions>
      </trkpt>
      <trkpt lat="36.7840291745960712432861328125" lon="-118.54739150963723659515380859375">
        <ele>1766.800048828125</ele>
        <time>2021-06-24T17:52:44.000Z</time>
        <extensions>
          <ns3:TrackPointExtension>
            <ns3:atemp>30.0</ns3:atemp>
            <ns3:hr>108</ns3:hr>
          </ns3:TrackPointExtension>
        </extensions>
      </trkpt>
      <trkpt lat="36.78401718847453594207763671875" lon="-118.54739000089466571807861328125">
        <ele>1766.800048828125</ele>
        <time>2021-06-24T17:52:46.000Z</time>
        <extensions>
          <ns3:TrackPointExtension>
            <ns3:atemp>30.0</ns3:atemp>
            <ns3:hr>109</ns3:hr>
          </ns3:TrackPointExtension>
        </extensions>
      </trkpt>
      <trkpt lat="36.78399573080241680145263671875" lon="-118.5473795235157012939453125">
        <ele>1767.199951171875</ele>
        <time>2021-06-24T17:52:50.000Z</time>
        <extensions>
          <ns3:TrackPointExtension>
            <ns3:atemp>30.0</ns3:atemp>
            <ns3:hr>106</ns3:hr>
          </ns3:TrackPointExtension>
        </extensions>
      </trkpt>
      <trkpt lat="36.78398902527987957000732421875" lon="-118.5473746620118618011474609375">
        <ele>1767.199951171875</ele>
        <time>2021-06-24T17:52:51.000Z</time>
        <extensions>
          <ns3:TrackPointExtension>
            <ns3:atemp>30.0</ns3:atemp>
            <ns3:hr>109</ns3:hr>
          </ns3:TrackPointExtension>
        </extensions>
      </trkpt>
      <trkpt lat="36.7839664779603481292724609375" lon="-118.5473565571010112762451171875">
        <ele>1767.800048828125</ele>
        <time>2021-06-24T17:52:54.000Z</time>
        <extensions>
          <ns3:TrackPointExtension>
            <ns3:atemp>30.0</ns3:atemp>
            <ns3:hr>109</ns3:hr>
          </ns3:TrackPointExtension>
        </extensions>
      </trkpt>
      <trkpt lat="36.7839279212057590484619140625" lon="-118.54732579551637172698974609375">
        <ele>1768.199951171875</ele>
        <time>2021-06-24T17:52:59.000Z</time>
        <extensions>
          <ns3:TrackPointExtension>
            <ns3:atemp>30.0</ns3:atemp>
            <ns3:hr>107</ns3:hr>
          </ns3:TrackPointExtension>
        </extensions>
      </trkpt>
      <trkpt lat="36.78388861007988452911376953125" lon="-118.5472874902188777923583984375">
        <ele>1769</ele>
        <time>2021-06-24T17:53:05.000Z</time>
        <extensions>
          <ns3:TrackPointExtension>
            <ns3:atemp>30.0</ns3:atemp>
            <ns3:hr>108</ns3:hr>
          </ns3:TrackPointExtension>
        </extensions>
      </trkpt>
      <trkpt lat="36.7838746123015880584716796875" lon="-118.54727558791637420654296875">
        <ele>1769</ele>
        <time>2021-06-24T17:53:07.000Z</time>
        <extensions>
          <ns3:TrackPointExtension>
            <ns3:atemp>30.0</ns3:atemp>
            <ns3:hr>108</ns3:hr>
          </ns3:TrackPointExtension>
        </extensions>
      </trkpt>
      <trkpt lat="36.78386463783681392669677734375" lon="-118.54725941084325313568115234375">
        <ele>1769.4000244140625</ele>
        <time>2021-06-24T17:53:11.000Z</time>
        <extensions>
          <ns3:TrackPointExtension>
            <ns3:atemp>30.0</ns3:atemp>
            <ns3:hr>109</ns3:hr>
          </ns3:TrackPointExtension>
        </extensions>
      </trkpt>
      <trkpt lat="36.7838680744171142578125" lon="-118.54723895899951457977294921875">
        <ele>1769.199951171875</ele>
        <time>2021-06-24T17:53:14.000Z</time>
        <extensions>
          <ns3:TrackPointExtension>
            <ns3:atemp>30.0</ns3:atemp>
            <ns3:hr>108</ns3:hr>
          </ns3:TrackPointExtension>
        </extensions>
      </trkpt>
      <trkpt lat="36.783887185156345367431640625" lon="-118.54725052602589130401611328125">
        <ele>1769.800048828125</ele>
        <time>2021-06-24T17:53:20.000Z</time>
        <extensions>
          <ns3:TrackPointExtension>
            <ns3:atemp>30.0</ns3:atemp>
            <ns3:hr>107</ns3:hr>
          </ns3:TrackPointExtension>
        </extensions>
      </trkpt>
      <trkpt lat="36.78389464505016803741455078125" lon="-118.54725119657814502716064453125">
        <ele>1770.199951171875</ele>
        <time>2021-06-24T17:53:21.000Z</time>
        <extensions>
          <ns3:TrackPointExtension>
            <ns3:atemp>30.0</ns3:atemp>
            <ns3:hr>108</ns3:hr>
          </ns3:TrackPointExtension>
        </extensions>
      </trkpt>
      <trkpt lat="36.78392549045383930206298828125" lon="-118.5472807846963405609130859375">
        <ele>1771</ele>
        <time>2021-06-24T17:53:26.000Z</time>
        <extensions>
          <ns3:TrackPointExtension>
            <ns3:atemp>30.0</ns3:atemp>
            <ns3:hr>109</ns3:hr>
          </ns3:TrackPointExtension>
        </extensions>
      </trkpt>
      <trkpt lat="36.7839319445192813873291015625" lon="-118.5472901724278926849365234375">
        <ele>1771</ele>
        <time>2021-06-24T17:53:27.000Z</time>
        <extensions>
          <ns3:TrackPointExtension>
            <ns3:atemp>30.0</ns3:atemp>
            <ns3:hr>112</ns3:hr>
          </ns3:TrackPointExtension>
        </extensions>
      </trkpt>
      <trkpt lat="36.78396656177937984466552734375" lon="-118.5473200120031833648681640625">
        <ele>1771.199951171875</ele>
        <time>2021-06-24T17:53:32.000Z</time>
        <extensions>
          <ns3:TrackPointExtension>
            <ns3:atemp>30.0</ns3:atemp>
            <ns3:hr>115</ns3:hr>
          </ns3:TrackPointExtension>
        </extensions>
      </trkpt>
      <trkpt lat="36.78398114629089832305908203125" lon="-118.5473290644586086273193359375">
        <ele>1771.4000244140625</ele>
        <time>2021-06-24T17:53:34.000Z</time>
        <extensions>
          <ns3:TrackPointExtension>
            <ns3:atemp>30.0</ns3:atemp>
            <ns3:hr>117</ns3:hr>
          </ns3:TrackPointExtension>
        </extensions>
      </trkpt>
      <trkpt lat="36.784019283950328826904296875" lon="-118.54732780717313289642333984375">
        <ele>1771.800048828125</ele>
        <time>2021-06-24T17:53:39.000Z</time>
        <extensions>
          <ns3:TrackPointExtension>
            <ns3:atemp>30.0</ns3:atemp>
            <ns3:hr>111</ns3:hr>
          </ns3:TrackPointExtension>
        </extensions>
      </trkpt>
      <trkpt lat="36.7840305157005786895751953125" lon="-118.547321520745754241943359375">
        <ele>1772</ele>
        <time>2021-06-24T17:53:41.000Z</time>
        <extensions>
          <ns3:TrackPointExtension>
            <ns3:atemp>30.0</ns3:atemp>
            <ns3:hr>115</ns3:hr>
          </ns3:TrackPointExtension>
        </extensions>
      </trkpt>
      <trkpt lat="36.78403680212795734405517578125" lon="-118.54731925763189792633056640625">
        <ele>1772</ele>
        <time>2021-06-24T17:53:42.000Z</time>
        <extensions>
          <ns3:TrackPointExtension>
            <ns3:atemp>30.0</ns3:atemp>
            <ns3:hr>116</ns3:hr>
          </ns3:TrackPointExtension>
        </extensions>
      </trkpt>
      <trkpt lat="36.78405373357236385345458984375" lon="-118.547332249581813812255859375">
        <ele>1772</ele>
        <time>2021-06-24T17:53:44.000Z</time>
        <extensions>
          <ns3:TrackPointExtension>
            <ns3:atemp>30.0</ns3:atemp>
            <ns3:hr>116</ns3:hr>
          </ns3:TrackPointExtension>
        </extensions>
      </trkpt>
      <trkpt lat="36.7840611934661865234375" lon="-118.5473327524960041046142578125">
        <ele>1772.4000244140625</ele>
        <time>2021-06-24T17:53:45.000Z</time>
        <extensions>
          <ns3:TrackPointExtension>
            <ns3:atemp>30.0</ns3:atemp>
            <ns3:hr>116</ns3:hr>
          </ns3:TrackPointExtension>
        </extensions>
      </trkpt>
      <trkpt lat="36.784123219549655914306640625" lon="-118.54730551131069660186767578125">
        <ele>1772.800048828125</ele>
        <time>2021-06-24T17:53:52.000Z</time>
        <extensions>
          <ns3:TrackPointExtension>
            <ns3:atemp>30.0</ns3:atemp>
            <ns3:hr>116</ns3:hr>
          </ns3:TrackPointExtension>
        </extensions>
      </trkpt>
      <trkpt lat="36.78414861671626567840576171875" lon="-118.54728086851537227630615234375">
        <ele>1773.4000244140625</ele>
        <time>2021-06-24T17:53:56.000Z</time>
        <extensions>
          <ns3:TrackPointExtension>
            <ns3:atemp>30.0</ns3:atemp>
            <ns3:hr>118</ns3:hr>
          </ns3:TrackPointExtension>
        </extensions>
      </trkpt>
      <trkpt lat="36.78415314294397830963134765625" lon="-118.54727600701153278350830078125">
        <ele>1773.4000244140625</ele>
        <time>2021-06-24T17:53:57.000Z</time>
        <extensions>
          <ns3:TrackPointExtension>
            <ns3:atemp>30.0</ns3:atemp>
            <ns3:hr>118</ns3:hr>
          </ns3:TrackPointExtension>
        </extensions>
      </trkpt>
      <trkpt lat="36.78417912684381008148193359375" lon="-118.54724952019751071929931640625">
        <ele>1773.800048828125</ele>
        <time>2021-06-24T17:54:01.000Z</time>
        <extensions>
          <ns3:TrackPointExtension>
            <ns3:atemp>30.0</ns3:atemp>
            <ns3:hr>119</ns3:hr>
          </ns3:TrackPointExtension>
        </extensions>
      </trkpt>
      <trkpt lat="36.78418549709022045135498046875" lon="-118.54724113829433917999267578125">
        <ele>1773.800048828125</ele>
        <time>2021-06-24T17:54:02.000Z</time>
        <extensions>
          <ns3:TrackPointExtension>
            <ns3:atemp>30.0</ns3:atemp>
            <ns3:hr>117</ns3:hr>
          </ns3:TrackPointExtension>
        </extensions>
      </trkpt>
      <trkpt lat="36.7841944657266139984130859375" lon="-118.54722755961120128631591796875">
        <ele>1774</ele>
        <time>2021-06-24T17:54:04.000Z</time>
        <extensions>
          <ns3:TrackPointExtension>
            <ns3:atemp>30.0</ns3:atemp>
            <ns3:hr>116</ns3:hr>
          </ns3:TrackPointExtension>
        </extensions>
      </trkpt>
      <trkpt lat="36.78420242853462696075439453125" lon="-118.547214232385158538818359375">
        <ele>1774.199951171875</ele>
        <time>2021-06-24T17:54:06.000Z</time>
        <extensions>
          <ns3:TrackPointExtension>
            <ns3:atemp>30.0</ns3:atemp>
            <ns3:hr>115</ns3:hr>
          </ns3:TrackPointExtension>
        </extensions>
      </trkpt>
      <trkpt lat="36.78420309908688068389892578125" lon="-118.5472083650529384613037109375">
        <ele>1774.4000244140625</ele>
        <time>2021-06-24T17:54:07.000Z</time>
        <extensions>
          <ns3:TrackPointExtension>
            <ns3:atemp>30.0</ns3:atemp>
            <ns3:hr>115</ns3:hr>
          </ns3:TrackPointExtension>
        </extensions>
      </trkpt>
      <trkpt lat="36.784203350543975830078125" lon="-118.5472046770155429840087890625">
        <ele>1774.4000244140625</ele>
        <time>2021-06-24T17:54:08.000Z</time>
        <extensions>
          <ns3:TrackPointExtension>
            <ns3:atemp>30.0</ns3:atemp>
            <ns3:hr>115</ns3:hr>
          </ns3:TrackPointExtension>
        </extensions>
      </trkpt>
      <trkpt lat="36.784198321402072906494140625" lon="-118.54720643721520900726318359375">
        <ele>1774.5999755859375</ele>
        <time>2021-06-24T17:54:09.000Z</time>
        <extensions>
          <ns3:TrackPointExtension>
            <ns3:atemp>30.0</ns3:atemp>
            <ns3:hr>112</ns3:hr>
          </ns3:TrackPointExtension>
        </extensions>
      </trkpt>
      <trkpt lat="36.78419337607920169830322265625" lon="-118.54720811359584331512451171875">
        <ele>1774.800048828125</ele>
        <time>2021-06-24T17:54:10.000Z</time>
        <extensions>
          <ns3:TrackPointExtension>
            <ns3:atemp>30.0</ns3:atemp>
            <ns3:hr>114</ns3:hr>
          </ns3:TrackPointExtension>
        </extensions>
      </trkpt>
      <trkpt lat="36.78419169969856739044189453125" lon="-118.547210879623889923095703125">
        <ele>1775</ele>
        <time>2021-06-24T17:54:11.000Z</time>
        <extensions>
          <ns3:TrackPointExtension>
            <ns3:atemp>30.0</ns3:atemp>
            <ns3:hr>113</ns3:hr>
          </ns3:TrackPointExtension>
        </extensions>
      </trkpt>
      <trkpt lat="36.78419119678437709808349609375" lon="-118.5472132265567779541015625">
        <ele>1775</ele>
        <time>2021-06-24T17:54:13.000Z</time>
        <extensions>
          <ns3:TrackPointExtension>
            <ns3:atemp>30.0</ns3:atemp>
            <ns3:hr>109</ns3:hr>
          </ns3:TrackPointExtension>
        </extensions>
      </trkpt>
      <trkpt lat="36.78419463336467742919921875" lon="-118.547214902937412261962890625">
        <ele>1774.800048828125</ele>
        <time>2021-06-24T17:54:17.000Z</time>
        <extensions>
          <ns3:TrackPointExtension>
            <ns3:atemp>30.0</ns3:atemp>
            <ns3:hr>106</ns3:hr>
          </ns3:TrackPointExtension>
        </extensions>
      </trkpt>
      <trkpt lat="36.78419463336467742919921875" lon="-118.547214902937412261962890625">
        <ele>1774.199951171875</ele>
        <time>2021-06-24T17:54:25.000Z</time>
        <extensions>
          <ns3:TrackPointExtension>
            <ns3:atemp>30.0</ns3:atemp>
            <ns3:hr>106</ns3:hr>
          </ns3:TrackPointExtension>
        </extensions>
      </trkpt>
      <trkpt lat="36.7841934598982334136962890625" lon="-118.547214902937412261962890625">
        <ele>1774.199951171875</ele>
        <time>2021-06-24T17:54:26.000Z</time>
        <extensions>
          <ns3:TrackPointExtension>
            <ns3:atemp>30.0</ns3:atemp>
            <ns3:hr>103</ns3:hr>
          </ns3:TrackPointExtension>
        </extensions>
      </trkpt>
      <trkpt lat="36.7841961421072483062744140625" lon="-118.54723669588565826416015625">
        <ele>1774.5999755859375</ele>
        <time>2021-06-24T17:54:49.000Z</time>
        <extensions>
          <ns3:TrackPointExtension>
            <ns3:atemp>30.0</ns3:atemp>
            <ns3:hr>106</ns3:hr>
          </ns3:TrackPointExtension>
        </extensions>
      </trkpt>
      <trkpt lat="36.78420058451592922210693359375" lon="-118.54723669588565826416015625">
        <ele>1774.5999755859375</ele>
        <time>2021-06-24T17:54:56.000Z</time>
        <extensions>
          <ns3:TrackPointExtension>
            <ns3:atemp>30.0</ns3:atemp>
            <ns3:hr>102</ns3:hr>
          </ns3:TrackPointExtension>
        </extensions>
      </trkpt>
      <trkpt lat="36.78420670330524444580078125" lon="-118.54721968062222003936767578125">
        <ele>1774.5999755859375</ele>
        <time>2021-06-24T17:55:09.000Z</time>
        <extensions>
          <ns3:TrackPointExtension>
            <ns3:atemp>29.0</ns3:atemp>
            <ns3:hr>99</ns3:hr>
          </ns3:TrackPointExtension>
        </extensions>
      </trkpt>
      <trkpt lat="36.784203685820102691650390625" lon="-118.547220937907695770263671875">
        <ele>1775</ele>
        <time>2021-06-24T17:55:19.000Z</time>
        <extensions>
          <ns3:TrackPointExtension>
            <ns3:atemp>29.0</ns3:atemp>
            <ns3:hr>102</ns3:hr>
          </ns3:TrackPointExtension>
        </extensions>
      </trkpt>
      <trkpt lat="36.78420075215399265289306640625" lon="-118.54722236283123493194580078125">
        <ele>1775</ele>
        <time>2021-06-24T17:55:23.000Z</time>
        <extensions>
          <ns3:TrackPointExtension>
            <ns3:atemp>29.0</ns3:atemp>
            <ns3:hr>99</ns3:hr>
          </ns3:TrackPointExtension>
        </extensions>
      </trkpt>
      <trkpt lat="36.7841993272304534912109375" lon="-118.5472224466502666473388671875">
        <ele>1775</ele>
        <time>2021-06-24T17:55:25.000Z</time>
        <extensions>
          <ns3:TrackPointExtension>
            <ns3:atemp>29.0</ns3:atemp>
            <ns3:hr>101</ns3:hr>
          </ns3:TrackPointExtension>
        </extensions>
      </trkpt>
      <trkpt lat="36.78419907577335834503173828125" lon="-118.5472224466502666473388671875">
        <ele>1775</ele>
        <time>2021-06-24T17:55:27.000Z</time>
        <extensions>
          <ns3:TrackPointExtension>
            <ns3:atemp>29.0</ns3:atemp>
            <ns3:hr>98</ns3:hr>
          </ns3:TrackPointExtension>
        </extensions>
      </trkpt>
      <trkpt lat="36.78419865667819976806640625" lon="-118.54722269810736179351806640625">
        <ele>1775</ele>
        <time>2021-06-24T17:55:33.000Z</time>
        <extensions>
          <ns3:TrackPointExtension>
            <ns3:atemp>29.0</ns3:atemp>
            <ns3:hr>95</ns3:hr>
          </ns3:TrackPointExtension>
        </extensions>
      </trkpt>
      <trkpt lat="36.78420125506818294525146484375" lon="-118.5472177527844905853271484375">
        <ele>1775</ele>
        <time>2021-06-24T17:55:52.000Z</time>
        <extensions>
          <ns3:TrackPointExtension>
            <ns3:atemp>29.0</ns3:atemp>
            <ns3:hr>92</ns3:hr>
          </ns3:TrackPointExtension>
        </extensions>
      </trkpt>
      <trkpt lat="36.784189604222774505615234375" lon="-118.54723376221954822540283203125">
        <ele>1775</ele>
        <time>2021-06-24T17:56:20.000Z</time>
        <extensions>
          <ns3:TrackPointExtension>
            <ns3:atemp>29.0</ns3:atemp>
            <ns3:hr>89</ns3:hr>
          </ns3:TrackPointExtension>
        </extensions>
      </trkpt>
      <trkpt lat="36.784189604222774505615234375" lon="-118.54723426513373851776123046875">
        <ele>1775</ele>
        <time>2021-06-24T17:56:22.000Z</time>
        <extensions>
          <ns3:TrackPointExtension>
            <ns3:atemp>29.0</ns3:atemp>
            <ns3:hr>86</ns3:hr>
          </ns3:TrackPointExtension>
        </extensions>
      </trkpt>
      <trkpt lat="36.78419421426951885223388671875" lon="-118.54723912663757801055908203125">
        <ele>1775</ele>
        <time>2021-06-24T17:56:31.000Z</time>
        <extensions>
          <ns3:TrackPointExtension>
            <ns3:atemp>29.0</ns3:atemp>
            <ns3:hr>82</ns3:hr>
          </ns3:TrackPointExtension>
        </extensions>
      </trkpt>
      <trkpt lat="36.7841961421072483062744140625" lon="-118.54724030010402202606201171875">
        <ele>1775</ele>
        <time>2021-06-24T17:56:39.000Z</time>
        <extensions>
          <ns3:TrackPointExtension>
            <ns3:atemp>29.0</ns3:atemp>
            <ns3:hr>79</ns3:hr>
          </ns3:TrackPointExtension>
        </extensions>
      </trkpt>
      <trkpt lat="36.7841993272304534912109375" lon="-118.54724298231303691864013671875">
        <ele>1775</ele>
        <time>2021-06-24T17:56:45.000Z</time>
        <extensions>
          <ns3:TrackPointExtension>
            <ns3:atemp>29.0</ns3:atemp>
            <ns3:hr>76</ns3:hr>
          </ns3:TrackPointExtension>
        </extensions>
      </trkpt>
      <trkpt lat="36.7842075414955615997314453125" lon="-118.54722387157380580902099609375">
        <ele>1775</ele>
        <time>2021-06-24T17:57:00.000Z</time>
        <extensions>
          <ns3:TrackPointExtension>
            <ns3:atemp>29.0</ns3:atemp>
            <ns3:hr>75</ns3:hr>
          </ns3:TrackPointExtension>
        </extensions>
      </trkpt>
      <trkpt lat="36.7842075414955615997314453125" lon="-118.54722387157380580902099609375">
        <ele>1775</ele>
        <time>2021-06-24T17:57:08.000Z</time>
        <extensions>
          <ns3:TrackPointExtension>
            <ns3:atemp>30.0</ns3:atemp>
            <ns3:hr>78</ns3:hr>
          </ns3:TrackPointExtension>
        </extensions>
      </trkpt>
      <trkpt lat="36.78419756703078746795654296875" lon="-118.54719704948365688323974609375">
        <ele>1775</ele>
        <time>2021-06-24T17:57:26.000Z</time>
        <extensions>
          <ns3:TrackPointExtension>
            <ns3:atemp>30.0</ns3:atemp>
            <ns3:hr>81</ns3:hr>
          </ns3:TrackPointExtension>
        </extensions>
      </trkpt>
      <trkpt lat="36.78419538773596286773681640625" lon="-118.54720048606395721435546875">
        <ele>1775</ele>
        <time>2021-06-24T17:57:42.000Z</time>
        <extensions>
          <ns3:TrackPointExtension>
            <ns3:atemp>30.0</ns3:atemp>
            <ns3:hr>80</ns3:hr>
          </ns3:TrackPointExtension>
        </extensions>
      </trkpt>
      <trkpt lat="36.784194968640804290771484375" lon="-118.54720157571136951446533203125">
        <ele>1775</ele>
        <time>2021-06-24T17:57:50.000Z</time>
        <extensions>
          <ns3:TrackPointExtension>
            <ns3:atemp>30.0</ns3:atemp>
            <ns3:hr>77</ns3:hr>
          </ns3:TrackPointExtension>
        </extensions>
      </trkpt>
      <trkpt lat="36.78415649570524692535400390625" lon="-118.54723803699016571044921875">
        <ele>1775</ele>
        <time>2021-06-24T17:57:55.000Z</time>
        <extensions>
          <ns3:TrackPointExtension>
            <ns3:atemp>30.0</ns3:atemp>
            <ns3:hr>77</ns3:hr>
          </ns3:TrackPointExtension>
        </extensions>
      </trkpt>
      <trkpt lat="36.78411290980875492095947265625" lon="-118.5472449101507663726806640625">
        <ele>1775</ele>
        <time>2021-06-24T17:58:00.000Z</time>
        <extensions>
          <ns3:TrackPointExtension>
            <ns3:atemp>30.0</ns3:atemp>
            <ns3:hr>79</ns3:hr>
          </ns3:TrackPointExtension>
        </extensions>
      </trkpt>
      <trkpt lat="36.7840942181646823883056640625" lon="-118.5472338460385799407958984375">
        <ele>1775</ele>
        <time>2021-06-24T17:58:05.000Z</time>
        <extensions>
          <ns3:TrackPointExtension>
            <ns3:atemp>30.0</ns3:atemp>
            <ns3:hr>81</ns3:hr>
          </ns3:TrackPointExtension>
        </extensions>
      </trkpt>
      <trkpt lat="36.78402925841510295867919921875" lon="-118.54720861651003360748291015625">
        <ele>1775</ele>
        <time>2021-06-24T17:58:11.000Z</time>
        <extensions>
          <ns3:TrackPointExtension>
            <ns3:atemp>30.0</ns3:atemp>
            <ns3:hr>79</ns3:hr>
          </ns3:TrackPointExtension>
        </extensions>
      </trkpt>
      <trkpt lat="36.783990450203418731689453125" lon="-118.54717844165861606597900390625">
        <ele>1775</ele>
        <time>2021-06-24T17:58:16.000Z</time>
        <extensions>
          <ns3:TrackPointExtension>
            <ns3:atemp>30.0</ns3:atemp>
            <ns3:hr>76</ns3:hr>
          </ns3:TrackPointExtension>
        </extensions>
      </trkpt>
      <trkpt lat="36.78396605886518955230712890625" lon="-118.54715296067297458648681640625">
        <ele>1775</ele>
        <time>2021-06-24T17:58:19.000Z</time>
        <extensions>
          <ns3:TrackPointExtension>
            <ns3:atemp>30.0</ns3:atemp>
            <ns3:hr>79</ns3:hr>
          </ns3:TrackPointExtension>
        </extensions>
      </trkpt>
      <trkpt lat="36.7839525640010833740234375" lon="-118.5471305809915065765380859375">
        <ele>1778.199951171875</ele>
        <time>2021-06-24T17:58:22.000Z</time>
        <extensions>
          <ns3:TrackPointExtension>
            <ns3:atemp>30.0</ns3:atemp>
            <ns3:hr>79</ns3:hr>
          </ns3:TrackPointExtension>
        </extensions>
      </trkpt>
      <trkpt lat="36.78393269889056682586669921875" lon="-118.547115325927734375">
        <ele>1778.199951171875</ele>
        <time>2021-06-24T17:58:24.000Z</time>
        <extensions>
          <ns3:TrackPointExtension>
            <ns3:atemp>30.0</ns3:atemp>
            <ns3:hr>82</ns3:hr>
          </ns3:TrackPointExtension>
        </extensions>
      </trkpt>
      <trkpt lat="36.78392532281577587127685546875" lon="-118.54710903950035572052001953125">
        <ele>1778.199951171875</ele>
        <time>2021-06-24T17:58:25.000Z</time>
        <extensions>
          <ns3:TrackPointExtension>
            <ns3:atemp>30.0</ns3:atemp>
            <ns3:hr>85</ns3:hr>
          </ns3:TrackPointExtension>
        </extensions>
      </trkpt>
      <trkpt lat="36.783919036388397216796875" lon="-118.5471037589013576507568359375">
        <ele>1778.199951171875</ele>
        <time>2021-06-24T17:58:26.000Z</time>
        <extensions>
          <ns3:TrackPointExtension>
            <ns3:atemp>30.0</ns3:atemp>
            <ns3:hr>85</ns3:hr>
          </ns3:TrackPointExtension>
        </extensions>
      </trkpt>
      <trkpt lat="36.78391073830425739288330078125" lon="-118.54709512554109096527099609375">
        <ele>1778.4000244140625</ele>
        <time>2021-06-24T17:58:27.000Z</time>
        <extensions>
          <ns3:TrackPointExtension>
            <ns3:atemp>30.0</ns3:atemp>
            <ns3:hr>87</ns3:hr>
          </ns3:TrackPointExtension>
        </extensions>
      </trkpt>
      <trkpt lat="36.78386983461678028106689453125" lon="-118.547066040337085723876953125">
        <ele>1779.199951171875</ele>
        <time>2021-06-24T17:58:32.000Z</time>
        <extensions>
          <ns3:TrackPointExtension>
            <ns3:atemp>30.0</ns3:atemp>
            <ns3:hr>89</ns3:hr>
          </ns3:TrackPointExtension>
        </extensions>
      </trkpt>
      <trkpt lat="36.783852316439151763916015625" lon="-118.54705028235912322998046875">
        <ele>1779.199951171875</ele>
        <time>2021-06-24T17:58:34.000Z</time>
        <extensions>
          <ns3:TrackPointExtension>
            <ns3:atemp>30.0</ns3:atemp>
            <ns3:hr>87</ns3:hr>
          </ns3:TrackPointExtension>
        </extensions>
      </trkpt>
      <trkpt lat="36.78384535945951938629150390625" lon="-118.5470437444746494293212890625">
        <ele>1779.199951171875</ele>
        <time>2021-06-24T17:58:35.000Z</time>
        <extensions>
          <ns3:TrackPointExtension>
            <ns3:atemp>30.0</ns3:atemp>
            <ns3:hr>90</ns3:hr>
          </ns3:TrackPointExtension>
        </extensions>
      </trkpt>
      <trkpt lat="36.78383077494800090789794921875" lon="-118.5470313392579555511474609375">
        <ele>1779</ele>
        <time>2021-06-24T17:58:36.000Z</time>
        <extensions>
          <ns3:TrackPointExtension>
            <ns3:atemp>30.0</ns3:atemp>
            <ns3:hr>90</ns3:hr>
          </ns3:TrackPointExtension>
        </extensions>
      </trkpt>
      <trkpt lat="36.7838219739496707916259765625" lon="-118.5470293276011943817138671875">
        <ele>1779.199951171875</ele>
        <time>2021-06-24T17:58:38.000Z</time>
        <extensions>
          <ns3:TrackPointExtension>
            <ns3:atemp>30.0</ns3:atemp>
            <ns3:hr>93</ns3:hr>
          </ns3:TrackPointExtension>
        </extensions>
      </trkpt>
      <trkpt lat="36.78382180631160736083984375" lon="-118.54702346026897430419921875">
        <ele>1779.4000244140625</ele>
        <time>2021-06-24T17:58:39.000Z</time>
        <extensions>
          <ns3:TrackPointExtension>
            <ns3:atemp>30.0</ns3:atemp>
            <ns3:hr>92</ns3:hr>
          </ns3:TrackPointExtension>
        </extensions>
      </trkpt>
      <trkpt lat="36.783811412751674652099609375" lon="-118.54701273143291473388671875">
        <ele>1779.5999755859375</ele>
        <time>2021-06-24T17:58:41.000Z</time>
        <extensions>
          <ns3:TrackPointExtension>
            <ns3:atemp>30.0</ns3:atemp>
            <ns3:hr>95</ns3:hr>
          </ns3:TrackPointExtension>
        </extensions>
      </trkpt>
      <trkpt lat="36.78379121236503124237060546875" lon="-118.54698750190436840057373046875">
        <ele>1779.800048828125</ele>
        <time>2021-06-24T17:58:45.000Z</time>
        <extensions>
          <ns3:TrackPointExtension>
            <ns3:atemp>30.0</ns3:atemp>
            <ns3:hr>94</ns3:hr>
          </ns3:TrackPointExtension>
        </extensions>
      </trkpt>
      <trkpt lat="36.78375734947621822357177734375" lon="-118.5469666309654712677001953125">
        <ele>1780.199951171875</ele>
        <time>2021-06-24T17:58:50.000Z</time>
        <extensions>
          <ns3:TrackPointExtension>
            <ns3:atemp>30.0</ns3:atemp>
            <ns3:hr>91</ns3:hr>
          </ns3:TrackPointExtension>
        </extensions>
      </trkpt>
      <trkpt lat="36.78375349380075931549072265625" lon="-118.54696587659418582916259765625">
        <ele>1780.4000244140625</ele>
        <time>2021-06-24T17:58:51.000Z</time>
        <extensions>
          <ns3:TrackPointExtension>
            <ns3:atemp>30.0</ns3:atemp>
            <ns3:hr>91</ns3:hr>
          </ns3:TrackPointExtension>
        </extensions>
      </trkpt>
      <trkpt lat="36.78372549824416637420654296875" lon="-118.546945340931415557861328125">
        <ele>1780.800048828125</ele>
        <time>2021-06-24T17:58:56.000Z</time>
        <extensions>
          <ns3:TrackPointExtension>
            <ns3:atemp>31.0</ns3:atemp>
            <ns3:hr>91</ns3:hr>
          </ns3:TrackPointExtension>
        </extensions>
      </trkpt>
      <trkpt lat="36.78371158428490161895751953125" lon="-118.54688934981822967529296875">
        <ele>1781.4000244140625</ele>
        <time>2021-06-24T17:59:01.000Z</time>
        <extensions>
          <ns3:TrackPointExtension>
            <ns3:atemp>31.0</ns3:atemp>
            <ns3:hr>91</ns3:hr>
          </ns3:TrackPointExtension>
        </extensions>
      </trkpt>
      <trkpt lat="36.783703453838825225830078125" lon="-118.54687904007732868194580078125">
        <ele>1781.5999755859375</ele>
        <time>2021-06-24T17:59:02.000Z</time>
        <extensions>
          <ns3:TrackPointExtension>
            <ns3:atemp>31.0</ns3:atemp>
            <ns3:hr>91</ns3:hr>
          </ns3:TrackPointExtension>
        </extensions>
      </trkpt>
      <trkpt lat="36.7836794815957546234130859375" lon="-118.5468563251197338104248046875">
        <ele>1782.5999755859375</ele>
        <time>2021-06-24T17:59:07.000Z</time>
        <extensions>
          <ns3:TrackPointExtension>
            <ns3:atemp>31.0</ns3:atemp>
            <ns3:hr>89</ns3:hr>
          </ns3:TrackPointExtension>
        </extensions>
      </trkpt>
      <trkpt lat="36.78366959095001220703125" lon="-118.54685070924460887908935546875">
        <ele>1783</ele>
        <time>2021-06-24T17:59:08.000Z</time>
        <extensions>
          <ns3:TrackPointExtension>
            <ns3:atemp>31.0</ns3:atemp>
            <ns3:hr>89</ns3:hr>
          </ns3:TrackPointExtension>
        </extensions>
      </trkpt>
      <trkpt lat="36.78363882936537265777587890625" lon="-118.54680494405329227447509765625">
        <ele>1783.800048828125</ele>
        <time>2021-06-24T17:59:14.000Z</time>
        <extensions>
          <ns3:TrackPointExtension>
            <ns3:atemp>31.0</ns3:atemp>
            <ns3:hr>87</ns3:hr>
          </ns3:TrackPointExtension>
        </extensions>
      </trkpt>
      <trkpt lat="36.7836271785199642181396484375" lon="-118.546792455017566680908203125">
        <ele>1784.4000244140625</ele>
        <time>2021-06-24T17:59:16.000Z</time>
        <extensions>
          <ns3:TrackPointExtension>
            <ns3:atemp>31.0</ns3:atemp>
            <ns3:hr>88</ns3:hr>
          </ns3:TrackPointExtension>
        </extensions>
      </trkpt>
      <trkpt lat="36.7836191318929195404052734375" lon="-118.54678533039987087249755859375">
        <ele>1784.5999755859375</ele>
        <time>2021-06-24T17:59:18.000Z</time>
        <extensions>
          <ns3:TrackPointExtension>
            <ns3:atemp>31.0</ns3:atemp>
            <ns3:hr>86</ns3:hr>
          </ns3:TrackPointExtension>
        </extensions>
      </trkpt>
      <trkpt lat="36.78360429592430591583251953125" lon="-118.54677761904895305633544921875">
        <ele>1784.800048828125</ele>
        <time>2021-06-24T17:59:20.000Z</time>
        <extensions>
          <ns3:TrackPointExtension>
            <ns3:atemp>31.0</ns3:atemp>
            <ns3:hr>85</ns3:hr>
          </ns3:TrackPointExtension>
        </extensions>
      </trkpt>
      <trkpt lat="36.78359918296337127685546875" lon="-118.54677108116447925567626953125">
        <ele>1784.800048828125</ele>
        <time>2021-06-24T17:59:21.000Z</time>
        <extensions>
          <ns3:TrackPointExtension>
            <ns3:atemp>31.0</ns3:atemp>
            <ns3:hr>85</ns3:hr>
          </ns3:TrackPointExtension>
        </extensions>
      </trkpt>
      <trkpt lat="36.78358619101345539093017578125" lon="-118.54675230570137500762939453125">
        <ele>1785.199951171875</ele>
        <time>2021-06-24T17:59:23.000Z</time>
        <extensions>
          <ns3:TrackPointExtension>
            <ns3:atemp>31.0</ns3:atemp>
            <ns3:hr>84</ns3:hr>
          </ns3:TrackPointExtension>
        </extensions>
      </trkpt>
      <trkpt lat="36.78356708027422428131103515625" lon="-118.54671894572675228118896484375">
        <ele>1785.199951171875</ele>
        <time>2021-06-24T17:59:28.000Z</time>
        <extensions>
          <ns3:TrackPointExtension>
            <ns3:atemp>31.0</ns3:atemp>
            <ns3:hr>84</ns3:hr>
          </ns3:TrackPointExtension>
        </extensions>
      </trkpt>
      <trkpt lat="36.78356205113232135772705078125" lon="-118.54672011919319629669189453125">
        <ele>1785.199951171875</ele>
        <time>2021-06-24T17:59:29.000Z</time>
        <extensions>
          <ns3:TrackPointExtension>
            <ns3:atemp>31.0</ns3:atemp>
            <ns3:hr>84</ns3:hr>
          </ns3:TrackPointExtension>
        </extensions>
      </trkpt>
      <trkpt lat="36.78352651186287403106689453125" lon="-118.5466940514743328094482421875">
        <ele>1785.800048828125</ele>
        <time>2021-06-24T17:59:33.000Z</time>
        <extensions>
          <ns3:TrackPointExtension>
            <ns3:atemp>31.0</ns3:atemp>
            <ns3:hr>88</ns3:hr>
          </ns3:TrackPointExtension>
        </extensions>
      </trkpt>
      <trkpt lat="36.78350538946688175201416015625" lon="-118.54668147861957550048828125">
        <ele>1785.800048828125</ele>
        <time>2021-06-24T17:59:35.000Z</time>
        <extensions>
          <ns3:TrackPointExtension>
            <ns3:atemp>31.0</ns3:atemp>
            <ns3:hr>90</ns3:hr>
          </ns3:TrackPointExtension>
        </extensions>
      </trkpt>
      <trkpt lat="36.78349633701145648956298828125" lon="-118.54667820967733860015869140625">
        <ele>1786</ele>
        <time>2021-06-24T17:59:36.000Z</time>
        <extensions>
          <ns3:TrackPointExtension>
            <ns3:atemp>31.0</ns3:atemp>
            <ns3:hr>93</ns3:hr>
          </ns3:TrackPointExtension>
        </extensions>
      </trkpt>
      <trkpt lat="36.78347169421613216400146484375" lon="-118.5466689057648181915283203125">
        <ele>1786.4000244140625</ele>
        <time>2021-06-24T17:59:39.000Z</time>
        <extensions>
          <ns3:TrackPointExtension>
            <ns3:atemp>31.0</ns3:atemp>
            <ns3:hr>96</ns3:hr>
          </ns3:TrackPointExtension>
        </extensions>
      </trkpt>
      <trkpt lat="36.783462725579738616943359375" lon="-118.5466662235558032989501953125">
        <ele>1786.4000244140625</ele>
        <time>2021-06-24T17:59:40.000Z</time>
        <extensions>
          <ns3:TrackPointExtension>
            <ns3:atemp>31.0</ns3:atemp>
            <ns3:hr>99</ns3:hr>
          </ns3:TrackPointExtension>
        </extensions>
      </trkpt>
      <trkpt lat="36.78345040418207645416259765625" lon="-118.54666228406131267547607421875">
        <ele>1786.5999755859375</ele>
        <time>2021-06-24T17:59:41.000Z</time>
        <extensions>
          <ns3:TrackPointExtension>
            <ns3:atemp>31.0</ns3:atemp>
            <ns3:hr>104</ns3:hr>
          </ns3:TrackPointExtension>
        </extensions>
      </trkpt>
      <trkpt lat="36.78343833424150943756103515625" lon="-118.54665867984294891357421875">
        <ele>1786.800048828125</ele>
        <time>2021-06-24T17:59:42.000Z</time>
        <extensions>
          <ns3:TrackPointExtension>
            <ns3:atemp>31.0</ns3:atemp>
            <ns3:hr>102</ns3:hr>
          </ns3:TrackPointExtension>
        </extensions>
      </trkpt>
      <trkpt lat="36.78341788239777088165283203125" lon="-118.54664283804595470428466796875">
        <ele>1787</ele>
        <time>2021-06-24T17:59:45.000Z</time>
        <extensions>
          <ns3:TrackPointExtension>
            <ns3:atemp>31.0</ns3:atemp>
            <ns3:hr>104</ns3:hr>
          </ns3:TrackPointExtension>
        </extensions>
      </trkpt>
      <trkpt lat="36.78340648300945758819580078125" lon="-118.5466383956372737884521484375">
        <ele>1787</ele>
        <time>2021-06-24T17:59:47.000Z</time>
        <extensions>
          <ns3:TrackPointExtension>
            <ns3:atemp>31.0</ns3:atemp>
            <ns3:hr>107</ns3:hr>
          </ns3:TrackPointExtension>
        </extensions>
      </trkpt>
      <trkpt lat="36.783387959003448486328125" lon="-118.54662708006799221038818359375">
        <ele>1787.4000244140625</ele>
        <time>2021-06-24T17:59:49.000Z</time>
        <extensions>
          <ns3:TrackPointExtension>
            <ns3:atemp>31.0</ns3:atemp>
            <ns3:hr>110</ns3:hr>
          </ns3:TrackPointExtension>
        </extensions>
      </trkpt>
      <trkpt lat="36.7833690159022808074951171875" lon="-118.54660444892942905426025390625">
        <ele>1787.5999755859375</ele>
        <time>2021-06-24T17:59:52.000Z</time>
        <extensions>
          <ns3:TrackPointExtension>
            <ns3:atemp>31.0</ns3:atemp>
            <ns3:hr>112</ns3:hr>
          </ns3:TrackPointExtension>
        </extensions>
      </trkpt>
      <trkpt lat="36.78336725570261478424072265625" lon="-118.5465824045240879058837890625">
        <ele>1787.800048828125</ele>
        <time>2021-06-24T17:59:55.000Z</time>
        <extensions>
          <ns3:TrackPointExtension>
            <ns3:atemp>31.0</ns3:atemp>
            <ns3:hr>115</ns3:hr>
          </ns3:TrackPointExtension>
        </extensions>
      </trkpt>
      <trkpt lat="36.783368848264217376708984375" lon="-118.54656103067100048065185546875">
        <ele>1788.199951171875</ele>
        <time>2021-06-24T17:59:57.000Z</time>
        <extensions>
          <ns3:TrackPointExtension>
            <ns3:atemp>31.0</ns3:atemp>
            <ns3:hr>114</ns3:hr>
          </ns3:TrackPointExtension>
        </extensions>
      </trkpt>
      <trkpt lat="36.783363819122314453125" lon="-118.5465337894856929779052734375">
        <ele>1788.5999755859375</ele>
        <time>2021-06-24T17:59:59.000Z</time>
        <extensions>
          <ns3:TrackPointExtension>
            <ns3:atemp>31.0</ns3:atemp>
            <ns3:hr>115</ns3:hr>
          </ns3:TrackPointExtension>
        </extensions>
      </trkpt>
      <trkpt lat="36.78335401229560375213623046875" lon="-118.54650084860622882843017578125">
        <ele>1789</ele>
        <time>2021-06-24T18:00:02.000Z</time>
        <extensions>
          <ns3:TrackPointExtension>
            <ns3:atemp>31.0</ns3:atemp>
            <ns3:hr>117</ns3:hr>
          </ns3:TrackPointExtension>
        </extensions>
      </trkpt>
      <trkpt lat="36.78334110416471958160400390625" lon="-118.54646480642259120941162109375">
        <ele>1789</ele>
        <time>2021-06-24T18:00:06.000Z</time>
        <extensions>
          <ns3:TrackPointExtension>
            <ns3:atemp>31.0</ns3:atemp>
            <ns3:hr>114</ns3:hr>
          </ns3:TrackPointExtension>
        </extensions>
      </trkpt>
      <trkpt lat="36.78334303200244903564453125" lon="-118.546456508338451385498046875">
        <ele>1789.5999755859375</ele>
        <time>2021-06-24T18:00:08.000Z</time>
        <extensions>
          <ns3:TrackPointExtension>
            <ns3:atemp>31.0</ns3:atemp>
            <ns3:hr>115</ns3:hr>
          </ns3:TrackPointExtension>
        </extensions>
      </trkpt>
      <trkpt lat="36.78334160707890987396240234375" lon="-118.54643597267568111419677734375">
        <ele>1789.5999755859375</ele>
        <time>2021-06-24T18:00:10.000Z</time>
        <extensions>
          <ns3:TrackPointExtension>
            <ns3:atemp>31.0</ns3:atemp>
            <ns3:hr>118</ns3:hr>
          </ns3:TrackPointExtension>
        </extensions>
      </trkpt>
      <trkpt lat="36.78333456628024578094482421875" lon="-118.54641619138419628143310546875">
        <ele>1789.800048828125</ele>
        <time>2021-06-24T18:00:13.000Z</time>
        <extensions>
          <ns3:TrackPointExtension>
            <ns3:atemp>31.0</ns3:atemp>
            <ns3:hr>118</ns3:hr>
          </ns3:TrackPointExtension>
        </extensions>
      </trkpt>
      <trkpt lat="36.7833452112972736358642578125" lon="-118.54636623524129390716552734375">
        <ele>1790</ele>
        <time>2021-06-24T18:00:17.000Z</time>
        <extensions>
          <ns3:TrackPointExtension>
            <ns3:atemp>31.0</ns3:atemp>
            <ns3:hr>118</ns3:hr>
          </ns3:TrackPointExtension>
        </extensions>
      </trkpt>
      <trkpt lat="36.7833383381366729736328125" lon="-118.54635131545364856719970703125">
        <ele>1790</ele>
        <time>2021-06-24T18:00:20.000Z</time>
        <extensions>
          <ns3:TrackPointExtension>
            <ns3:atemp>31.0</ns3:atemp>
            <ns3:hr>118</ns3:hr>
          </ns3:TrackPointExtension>
        </extensions>
      </trkpt>
      <trkpt lat="36.78333004005253314971923828125" lon="-118.5463319532573223114013671875">
        <ele>1790.199951171875</ele>
        <time>2021-06-24T18:00:22.000Z</time>
        <extensions>
          <ns3:TrackPointExtension>
            <ns3:atemp>31.0</ns3:atemp>
            <ns3:hr>118</ns3:hr>
          </ns3:TrackPointExtension>
        </extensions>
      </trkpt>
      <trkpt lat="36.78333071060478687286376953125" lon="-118.546323738992214202880859375">
        <ele>1790.4000244140625</ele>
        <time>2021-06-24T18:00:23.000Z</time>
        <extensions>
          <ns3:TrackPointExtension>
            <ns3:atemp>31.0</ns3:atemp>
            <ns3:hr>118</ns3:hr>
          </ns3:TrackPointExtension>
        </extensions>
      </trkpt>
      <trkpt lat="36.783333308994770050048828125" lon="-118.546321056783199310302734375">
        <ele>1790.5999755859375</ele>
        <time>2021-06-24T18:00:25.000Z</time>
        <extensions>
          <ns3:TrackPointExtension>
            <ns3:atemp>31.0</ns3:atemp>
            <ns3:hr>118</ns3:hr>
          </ns3:TrackPointExtension>
        </extensions>
      </trkpt>
      <trkpt lat="36.78333364427089691162109375" lon="-118.54629926383495330810546875">
        <ele>1790.5999755859375</ele>
        <time>2021-06-24T18:00:27.000Z</time>
        <extensions>
          <ns3:TrackPointExtension>
            <ns3:atemp>31.0</ns3:atemp>
            <ns3:hr>117</ns3:hr>
          </ns3:TrackPointExtension>
        </extensions>
      </trkpt>
      <trkpt lat="36.78333272226154804229736328125" lon="-118.5462796501815319061279296875">
        <ele>1790.800048828125</ele>
        <time>2021-06-24T18:00:29.000Z</time>
        <extensions>
          <ns3:TrackPointExtension>
            <ns3:atemp>31.0</ns3:atemp>
            <ns3:hr>116</ns3:hr>
          </ns3:TrackPointExtension>
        </extensions>
      </trkpt>
      <trkpt lat="36.78333230316638946533203125" lon="-118.54626598767936229705810546875">
        <ele>1791.199951171875</ele>
        <time>2021-06-24T18:00:31.000Z</time>
        <extensions>
          <ns3:TrackPointExtension>
            <ns3:atemp>31.0</ns3:atemp>
            <ns3:hr>115</ns3:hr>
          </ns3:TrackPointExtension>
        </extensions>
      </trkpt>
      <trkpt lat="36.78332970477640628814697265625" lon="-118.54625676758587360382080078125">
        <ele>1791.199951171875</ele>
        <time>2021-06-24T18:00:32.000Z</time>
        <extensions>
          <ns3:TrackPointExtension>
            <ns3:atemp>31.0</ns3:atemp>
            <ns3:hr>115</ns3:hr>
          </ns3:TrackPointExtension>
        </extensions>
      </trkpt>
      <trkpt lat="36.78332568146288394927978515625" lon="-118.54623933322727680206298828125">
        <ele>1791.4000244140625</ele>
        <time>2021-06-24T18:00:34.000Z</time>
        <extensions>
          <ns3:TrackPointExtension>
            <ns3:atemp>31.0</ns3:atemp>
            <ns3:hr>114</ns3:hr>
          </ns3:TrackPointExtension>
        </extensions>
      </trkpt>
      <trkpt lat="36.78331595845520496368408203125" lon="-118.54622340761125087738037109375">
        <ele>1791.5999755859375</ele>
        <time>2021-06-24T18:00:37.000Z</time>
        <extensions>
          <ns3:TrackPointExtension>
            <ns3:atemp>31.0</ns3:atemp>
            <ns3:hr>111</ns3:hr>
          </ns3:TrackPointExtension>
        </extensions>
      </trkpt>
      <trkpt lat="36.783312857151031494140625" lon="-118.54621284641325473785400390625">
        <ele>1792</ele>
        <time>2021-06-24T18:00:40.000Z</time>
        <extensions>
          <ns3:TrackPointExtension>
            <ns3:atemp>31.0</ns3:atemp>
            <ns3:hr>108</ns3:hr>
          </ns3:TrackPointExtension>
        </extensions>
      </trkpt>
      <trkpt lat="36.7833143658936023712158203125" lon="-118.54621921665966510772705078125">
        <ele>1792</ele>
        <time>2021-06-24T18:00:41.000Z</time>
        <extensions>
          <ns3:TrackPointExtension>
            <ns3:atemp>31.0</ns3:atemp>
            <ns3:hr>108</ns3:hr>
          </ns3:TrackPointExtension>
        </extensions>
      </trkpt>
      <trkpt lat="36.7833190597593784332275390625" lon="-118.54620412923395633697509765625">
        <ele>1792.5999755859375</ele>
        <time>2021-06-24T18:00:44.000Z</time>
        <extensions>
          <ns3:TrackPointExtension>
            <ns3:atemp>31.0</ns3:atemp>
            <ns3:hr>105</ns3:hr>
          </ns3:TrackPointExtension>
        </extensions>
      </trkpt>
      <trkpt lat="36.78331964649260044097900390625" lon="-118.54618635959923267364501953125">
        <ele>1792.800048828125</ele>
        <time>2021-06-24T18:00:45.000Z</time>
        <extensions>
          <ns3:TrackPointExtension>
            <ns3:atemp>31.0</ns3:atemp>
            <ns3:hr>105</ns3:hr>
          </ns3:TrackPointExtension>
        </extensions>
      </trkpt>
      <trkpt lat="36.78331847302615642547607421875" lon="-118.5461696796119213104248046875">
        <ele>1793</ele>
        <time>2021-06-24T18:00:46.000Z</time>
        <extensions>
          <ns3:TrackPointExtension>
            <ns3:atemp>31.0</ns3:atemp>
            <ns3:hr>105</ns3:hr>
          </ns3:TrackPointExtension>
        </extensions>
      </trkpt>
      <trkpt lat="36.7833053134381771087646484375" lon="-118.54613028466701507568359375">
        <ele>1793.4000244140625</ele>
        <time>2021-06-24T18:00:50.000Z</time>
        <extensions>
          <ns3:TrackPointExtension>
            <ns3:atemp>31.0</ns3:atemp>
            <ns3:hr>105</ns3:hr>
          </ns3:TrackPointExtension>
        </extensions>
      </trkpt>
      <trkpt lat="36.78329684771597385406494140625" lon="-118.54611930437386035919189453125">
        <ele>1793.4000244140625</ele>
        <time>2021-06-24T18:00:52.000Z</time>
        <extensions>
          <ns3:TrackPointExtension>
            <ns3:atemp>31.0</ns3:atemp>
            <ns3:hr>105</ns3:hr>
          </ns3:TrackPointExtension>
        </extensions>
      </trkpt>
      <trkpt lat="36.78328259848058223724365234375" lon="-118.54607337154448032379150390625">
        <ele>1793.800048828125</ele>
        <time>2021-06-24T18:00:57.000Z</time>
        <extensions>
          <ns3:TrackPointExtension>
            <ns3:atemp>31.0</ns3:atemp>
            <ns3:hr>108</ns3:hr>
          </ns3:TrackPointExtension>
        </extensions>
      </trkpt>
      <trkpt lat="36.78327086381614208221435546875" lon="-118.5460530035197734832763671875">
        <ele>1794.4000244140625</ele>
        <time>2021-06-24T18:01:00.000Z</time>
        <extensions>
          <ns3:TrackPointExtension>
            <ns3:atemp>31.0</ns3:atemp>
            <ns3:hr>107</ns3:hr>
          </ns3:TrackPointExtension>
        </extensions>
      </trkpt>
      <trkpt lat="36.783246807754039764404296875" lon="-118.54604353196918964385986328125">
        <ele>1794.5999755859375</ele>
        <time>2021-06-24T18:01:03.000Z</time>
        <extensions>
          <ns3:TrackPointExtension>
            <ns3:atemp>31.0</ns3:atemp>
            <ns3:hr>108</ns3:hr>
          </ns3:TrackPointExtension>
        </extensions>
      </trkpt>
      <trkpt lat="36.78323968313634395599365234375" lon="-118.54603883810341358184814453125">
        <ele>1794.800048828125</ele>
        <time>2021-06-24T18:01:05.000Z</time>
        <extensions>
          <ns3:TrackPointExtension>
            <ns3:atemp>31.0</ns3:atemp>
            <ns3:hr>106</ns3:hr>
          </ns3:TrackPointExtension>
        </extensions>
      </trkpt>
      <trkpt lat="36.7832255177199840545654296875" lon="-118.54602039791643619537353515625">
        <ele>1795</ele>
        <time>2021-06-24T18:01:07.000Z</time>
        <extensions>
          <ns3:TrackPointExtension>
            <ns3:atemp>31.0</ns3:atemp>
            <ns3:hr>106</ns3:hr>
          </ns3:TrackPointExtension>
        </extensions>
      </trkpt>
      <trkpt lat="36.78321403451263904571533203125" lon="-118.5460087470710277557373046875">
        <ele>1795.199951171875</ele>
        <time>2021-06-24T18:01:08.000Z</time>
        <extensions>
          <ns3:TrackPointExtension>
            <ns3:atemp>31.0</ns3:atemp>
            <ns3:hr>106</ns3:hr>
          </ns3:TrackPointExtension>
        </extensions>
      </trkpt>
      <trkpt lat="36.78320246748626232147216796875" lon="-118.546006567776203155517578125">
        <ele>1795.4000244140625</ele>
        <time>2021-06-24T18:01:09.000Z</time>
        <extensions>
          <ns3:TrackPointExtension>
            <ns3:atemp>31.0</ns3:atemp>
            <ns3:hr>106</ns3:hr>
          </ns3:TrackPointExtension>
        </extensions>
      </trkpt>
      <trkpt lat="36.78314991295337677001953125" lon="-118.5460097528994083404541015625">
        <ele>1795.199951171875</ele>
        <time>2021-06-24T18:01:14.000Z</time>
        <extensions>
          <ns3:TrackPointExtension>
            <ns3:atemp>31.0</ns3:atemp>
            <ns3:hr>108</ns3:hr>
          </ns3:TrackPointExtension>
        </extensions>
      </trkpt>
      <trkpt lat="36.783124096691608428955078125" lon="-118.54603732936084270477294921875">
        <ele>1795.800048828125</ele>
        <time>2021-06-24T18:01:20.000Z</time>
        <extensions>
          <ns3:TrackPointExtension>
            <ns3:atemp>31.0</ns3:atemp>
            <ns3:hr>110</ns3:hr>
          </ns3:TrackPointExtension>
        </extensions>
      </trkpt>
      <trkpt lat="36.78310389630496501922607421875" lon="-118.5460288636386394500732421875">
        <ele>1796</ele>
        <time>2021-06-24T18:01:23.000Z</time>
        <extensions>
          <ns3:TrackPointExtension>
            <ns3:atemp>31.0</ns3:atemp>
            <ns3:hr>110</ns3:hr>
          </ns3:TrackPointExtension>
        </extensions>
      </trkpt>
      <trkpt lat="36.78307724185287952423095703125" lon="-118.54604847729206085205078125">
        <ele>1796.5999755859375</ele>
        <time>2021-06-24T18:01:26.000Z</time>
        <extensions>
          <ns3:TrackPointExtension>
            <ns3:atemp>31.0</ns3:atemp>
            <ns3:hr>109</ns3:hr>
          </ns3:TrackPointExtension>
        </extensions>
      </trkpt>
      <trkpt lat="36.7830518446862697601318359375" lon="-118.54605459608137607574462890625">
        <ele>1797.199951171875</ele>
        <time>2021-06-24T18:01:30.000Z</time>
        <extensions>
          <ns3:TrackPointExtension>
            <ns3:atemp>31.0</ns3:atemp>
            <ns3:hr>108</ns3:hr>
          </ns3:TrackPointExtension>
        </extensions>
      </trkpt>
      <trkpt lat="36.783043630421161651611328125" lon="-118.546050153672695159912109375">
        <ele>1797.199951171875</ele>
        <time>2021-06-24T18:01:31.000Z</time>
        <extensions>
          <ns3:TrackPointExtension>
            <ns3:atemp>31.0</ns3:atemp>
            <ns3:hr>107</ns3:hr>
          </ns3:TrackPointExtension>
        </extensions>
      </trkpt>
      <trkpt lat="36.7830015532672405242919921875" lon="-118.54604621417820453643798828125">
        <ele>1798.199951171875</ele>
        <time>2021-06-24T18:01:36.000Z</time>
        <extensions>
          <ns3:TrackPointExtension>
            <ns3:atemp>31.0</ns3:atemp>
            <ns3:hr>106</ns3:hr>
          </ns3:TrackPointExtension>
        </extensions>
      </trkpt>
      <trkpt lat="36.78298990242183208465576171875" lon="-118.546044789254665374755859375">
        <ele>1798.4000244140625</ele>
        <time>2021-06-24T18:01:38.000Z</time>
        <extensions>
          <ns3:TrackPointExtension>
            <ns3:atemp>31.0</ns3:atemp>
            <ns3:hr>104</ns3:hr>
          </ns3:TrackPointExtension>
        </extensions>
      </trkpt>
      <trkpt lat="36.7829760722815990447998046875" lon="-118.54603799991309642791748046875">
        <ele>1798.5999755859375</ele>
        <time>2021-06-24T18:01:40.000Z</time>
        <extensions>
          <ns3:TrackPointExtension>
            <ns3:atemp>31.0</ns3:atemp>
            <ns3:hr>103</ns3:hr>
          </ns3:TrackPointExtension>
        </extensions>
      </trkpt>
      <trkpt lat="36.7829452268779277801513671875" lon="-118.54603799991309642791748046875">
        <ele>1799.5999755859375</ele>
        <time>2021-06-24T18:01:43.000Z</time>
        <extensions>
          <ns3:TrackPointExtension>
            <ns3:atemp>31.0</ns3:atemp>
            <ns3:hr>103</ns3:hr>
          </ns3:TrackPointExtension>
        </extensions>
      </trkpt>
      <trkpt lat="36.78290558047592639923095703125" lon="-118.54600497521460056304931640625">
        <ele>1800.199951171875</ele>
        <time>2021-06-24T18:01:49.000Z</time>
        <extensions>
          <ns3:TrackPointExtension>
            <ns3:atemp>31.0</ns3:atemp>
            <ns3:hr>104</ns3:hr>
          </ns3:TrackPointExtension>
        </extensions>
      </trkpt>
      <trkpt lat="36.78289552219212055206298828125" lon="-118.54600044898688793182373046875">
        <ele>1800.199951171875</ele>
        <time>2021-06-24T18:01:50.000Z</time>
        <extensions>
          <ns3:TrackPointExtension>
            <ns3:atemp>31.0</ns3:atemp>
            <ns3:hr>103</ns3:hr>
          </ns3:TrackPointExtension>
        </extensions>
      </trkpt>
      <trkpt lat="36.782879345118999481201171875" lon="-118.54598988778889179229736328125">
        <ele>1800.5999755859375</ele>
        <time>2021-06-24T18:01:52.000Z</time>
        <extensions>
          <ns3:TrackPointExtension>
            <ns3:atemp>31.0</ns3:atemp>
            <ns3:hr>103</ns3:hr>
          </ns3:TrackPointExtension>
        </extensions>
      </trkpt>
      <trkpt lat="36.78286962211132049560546875" lon="-118.54597966186702251434326171875">
        <ele>1800.800048828125</ele>
        <time>2021-06-24T18:01:54.000Z</time>
        <extensions>
          <ns3:TrackPointExtension>
            <ns3:atemp>31.0</ns3:atemp>
            <ns3:hr>102</ns3:hr>
          </ns3:TrackPointExtension>
        </extensions>
      </trkpt>
      <trkpt lat="36.78286383859813213348388671875" lon="-118.5459758900105953216552734375">
        <ele>1801</ele>
        <time>2021-06-24T18:01:55.000Z</time>
        <extensions>
          <ns3:TrackPointExtension>
            <ns3:atemp>31.0</ns3:atemp>
            <ns3:hr>104</ns3:hr>
          </ns3:TrackPointExtension>
        </extensions>
      </trkpt>
      <trkpt lat="36.78284171037375926971435546875" lon="-118.54596088640391826629638671875">
        <ele>1801.4000244140625</ele>
        <time>2021-06-24T18:01:58.000Z</time>
        <extensions>
          <ns3:TrackPointExtension>
            <ns3:atemp>31.0</ns3:atemp>
            <ns3:hr>105</ns3:hr>
          </ns3:TrackPointExtension>
        </extensions>
      </trkpt>
      <trkpt lat="36.78281731903553009033203125" lon="-118.54593305848538875579833984375">
        <ele>1802</ele>
        <time>2021-06-24T18:02:03.000Z</time>
        <extensions>
          <ns3:TrackPointExtension>
            <ns3:atemp>31.0</ns3:atemp>
            <ns3:hr>106</ns3:hr>
          </ns3:TrackPointExtension>
        </extensions>
      </trkpt>
      <trkpt lat="36.78278991021215915679931640625" lon="-118.5459255985915660858154296875">
        <ele>1802.199951171875</ele>
        <time>2021-06-24T18:02:05.000Z</time>
        <extensions>
          <ns3:TrackPointExtension>
            <ns3:atemp>31.0</ns3:atemp>
            <ns3:hr>106</ns3:hr>
          </ns3:TrackPointExtension>
        </extensions>
      </trkpt>
      <trkpt lat="36.782762669026851654052734375" lon="-118.5459068231284618377685546875">
        <ele>1802.4000244140625</ele>
        <time>2021-06-24T18:02:08.000Z</time>
        <extensions>
          <ns3:TrackPointExtension>
            <ns3:atemp>31.0</ns3:atemp>
            <ns3:hr>107</ns3:hr>
          </ns3:TrackPointExtension>
        </extensions>
      </trkpt>
      <trkpt lat="36.78274221718311309814453125" lon="-118.54588964022696018218994140625">
        <ele>1802.5999755859375</ele>
        <time>2021-06-24T18:02:10.000Z</time>
        <extensions>
          <ns3:TrackPointExtension>
            <ns3:atemp>31.0</ns3:atemp>
            <ns3:hr>110</ns3:hr>
          </ns3:TrackPointExtension>
        </extensions>
      </trkpt>
      <trkpt lat="36.7827303148806095123291015625" lon="-118.545884191989898681640625">
        <ele>1803</ele>
        <time>2021-06-24T18:02:11.000Z</time>
        <extensions>
          <ns3:TrackPointExtension>
            <ns3:atemp>31.0</ns3:atemp>
            <ns3:hr>112</ns3:hr>
          </ns3:TrackPointExtension>
        </extensions>
      </trkpt>
      <trkpt lat="36.7827182449400424957275390625" lon="-118.54587874375283718109130859375">
        <ele>1803.199951171875</ele>
        <time>2021-06-24T18:02:13.000Z</time>
        <extensions>
          <ns3:TrackPointExtension>
            <ns3:atemp>31.0</ns3:atemp>
            <ns3:hr>115</ns3:hr>
          </ns3:TrackPointExtension>
        </extensions>
      </trkpt>
      <trkpt lat="36.78271011449396610260009765625" lon="-118.54586516506969928741455078125">
        <ele>1803.5999755859375</ele>
        <time>2021-06-24T18:02:15.000Z</time>
        <extensions>
          <ns3:TrackPointExtension>
            <ns3:atemp>31.0</ns3:atemp>
            <ns3:hr>116</ns3:hr>
          </ns3:TrackPointExtension>
        </extensions>
      </trkpt>
      <trkpt lat="36.78269670344889163970947265625" lon="-118.5458533465862274169921875">
        <ele>1804</ele>
        <time>2021-06-24T18:02:17.000Z</time>
        <extensions>
          <ns3:TrackPointExtension>
            <ns3:atemp>31.0</ns3:atemp>
            <ns3:hr>117</ns3:hr>
          </ns3:TrackPointExtension>
        </extensions>
      </trkpt>
      <trkpt lat="36.7826880700886249542236328125" lon="-118.545842953026294708251953125">
        <ele>1804</ele>
        <time>2021-06-24T18:02:19.000Z</time>
        <extensions>
          <ns3:TrackPointExtension>
            <ns3:atemp>31.0</ns3:atemp>
            <ns3:hr>118</ns3:hr>
          </ns3:TrackPointExtension>
        </extensions>
      </trkpt>
      <trkpt lat="36.78267591632902622222900390625" lon="-118.545826189219951629638671875">
        <ele>1804.199951171875</ele>
        <time>2021-06-24T18:02:21.000Z</time>
        <extensions>
          <ns3:TrackPointExtension>
            <ns3:atemp>31.0</ns3:atemp>
            <ns3:hr>118</ns3:hr>
          </ns3:TrackPointExtension>
        </extensions>
      </trkpt>
      <trkpt lat="36.78266418166458606719970703125" lon="-118.5458193160593509674072265625">
        <ele>1804.4000244140625</ele>
        <time>2021-06-24T18:02:23.000Z</time>
        <extensions>
          <ns3:TrackPointExtension>
            <ns3:atemp>31.0</ns3:atemp>
            <ns3:hr>118</ns3:hr>
          </ns3:TrackPointExtension>
        </extensions>
      </trkpt>
      <trkpt lat="36.78265697322785854339599609375" lon="-118.5458152927458286285400390625">
        <ele>1804.4000244140625</ele>
        <time>2021-06-24T18:02:25.000Z</time>
        <extensions>
          <ns3:TrackPointExtension>
            <ns3:atemp>31.0</ns3:atemp>
            <ns3:hr>118</ns3:hr>
          </ns3:TrackPointExtension>
        </extensions>
      </trkpt>
      <trkpt lat="36.78264993242919445037841796875" lon="-118.54582359082996845245361328125">
        <ele>1804.4000244140625</ele>
        <time>2021-06-24T18:02:28.000Z</time>
        <extensions>
          <ns3:TrackPointExtension>
            <ns3:atemp>31.0</ns3:atemp>
            <ns3:hr>118</ns3:hr>
          </ns3:TrackPointExtension>
        </extensions>
      </trkpt>
      <trkpt lat="36.7826350964605808258056640625" lon="-118.5458256863057613372802734375">
        <ele>1804.4000244140625</ele>
        <time>2021-06-24T18:02:31.000Z</time>
        <extensions>
          <ns3:TrackPointExtension>
            <ns3:atemp>31.0</ns3:atemp>
            <ns3:hr>116</ns3:hr>
          </ns3:TrackPointExtension>
        </extensions>
      </trkpt>
      <trkpt lat="36.782609112560749053955078125" lon="-118.5457975231111049652099609375">
        <ele>1804.4000244140625</ele>
        <time>2021-06-24T18:02:34.000Z</time>
        <extensions>
          <ns3:TrackPointExtension>
            <ns3:atemp>31.0</ns3:atemp>
            <ns3:hr>116</ns3:hr>
          </ns3:TrackPointExtension>
        </extensions>
      </trkpt>
      <trkpt lat="36.78260936401784420013427734375" lon="-118.54578352533280849456787109375">
        <ele>1805.199951171875</ele>
        <time>2021-06-24T18:02:36.000Z</time>
        <extensions>
          <ns3:TrackPointExtension>
            <ns3:atemp>31.0</ns3:atemp>
            <ns3:hr>114</ns3:hr>
          </ns3:TrackPointExtension>
        </extensions>
      </trkpt>
      <trkpt lat="36.7826092801988124847412109375" lon="-118.545773886144161224365234375">
        <ele>1805.5999755859375</ele>
        <time>2021-06-24T18:02:38.000Z</time>
        <extensions>
          <ns3:TrackPointExtension>
            <ns3:atemp>31.0</ns3:atemp>
            <ns3:hr>111</ns3:hr>
          </ns3:TrackPointExtension>
        </extensions>
      </trkpt>
      <trkpt lat="36.78261053748428821563720703125" lon="-118.54577011428773403167724609375">
        <ele>1805.800048828125</ele>
        <time>2021-06-24T18:02:39.000Z</time>
        <extensions>
          <ns3:TrackPointExtension>
            <ns3:atemp>31.0</ns3:atemp>
            <ns3:hr>109</ns3:hr>
          </ns3:TrackPointExtension>
        </extensions>
      </trkpt>
      <trkpt lat="36.7825975455343723297119140625" lon="-118.54575083591043949127197265625">
        <ele>1806</ele>
        <time>2021-06-24T18:02:42.000Z</time>
        <extensions>
          <ns3:TrackPointExtension>
            <ns3:atemp>31.0</ns3:atemp>
            <ns3:hr>106</ns3:hr>
          </ns3:TrackPointExtension>
        </extensions>
      </trkpt>
      <trkpt lat="36.78258757106959819793701171875" lon="-118.54574379511177539825439453125">
        <ele>1806.199951171875</ele>
        <time>2021-06-24T18:02:43.000Z</time>
        <extensions>
          <ns3:TrackPointExtension>
            <ns3:atemp>31.0</ns3:atemp>
            <ns3:hr>105</ns3:hr>
          </ns3:TrackPointExtension>
        </extensions>
      </trkpt>
      <trkpt lat="36.78257985971868038177490234375" lon="-118.54574111290276050567626953125">
        <ele>1806.4000244140625</ele>
        <time>2021-06-24T18:02:44.000Z</time>
        <extensions>
          <ns3:TrackPointExtension>
            <ns3:atemp>31.0</ns3:atemp>
            <ns3:hr>104</ns3:hr>
          </ns3:TrackPointExtension>
        </extensions>
      </trkpt>
      <trkpt lat="36.7825371958315372467041015625" lon="-118.54568948037922382354736328125">
        <ele>1807.199951171875</ele>
        <time>2021-06-24T18:02:50.000Z</time>
        <extensions>
          <ns3:TrackPointExtension>
            <ns3:atemp>31.0</ns3:atemp>
            <ns3:hr>105</ns3:hr>
          </ns3:TrackPointExtension>
        </extensions>
      </trkpt>
      <trkpt lat="36.78253023885190486907958984375" lon="-118.54568042792379856109619140625">
        <ele>1807.199951171875</ele>
        <time>2021-06-24T18:02:51.000Z</time>
        <extensions>
          <ns3:TrackPointExtension>
            <ns3:atemp>31.0</ns3:atemp>
            <ns3:hr>102</ns3:hr>
          </ns3:TrackPointExtension>
        </extensions>
      </trkpt>
      <trkpt lat="36.78252453915774822235107421875" lon="-118.54567422531545162200927734375">
        <ele>1807.4000244140625</ele>
        <time>2021-06-24T18:02:52.000Z</time>
        <extensions>
          <ns3:TrackPointExtension>
            <ns3:atemp>31.0</ns3:atemp>
            <ns3:hr>102</ns3:hr>
          </ns3:TrackPointExtension>
        </extensions>
      </trkpt>
      <trkpt lat="36.78250961937010288238525390625" lon="-118.54567120783030986785888671875">
        <ele>1807.5999755859375</ele>
        <time>2021-06-24T18:02:54.000Z</time>
        <extensions>
          <ns3:TrackPointExtension>
            <ns3:atemp>31.0</ns3:atemp>
            <ns3:hr>102</ns3:hr>
          </ns3:TrackPointExtension>
        </extensions>
      </trkpt>
      <trkpt lat="36.78249553777277469635009765625" lon="-118.5456590540707111358642578125">
        <ele>1807.800048828125</ele>
        <time>2021-06-24T18:02:57.000Z</time>
        <extensions>
          <ns3:TrackPointExtension>
            <ns3:atemp>31.0</ns3:atemp>
            <ns3:hr>102</ns3:hr>
          </ns3:TrackPointExtension>
        </extensions>
      </trkpt>
      <trkpt lat="36.78247692994773387908935546875" lon="-118.5456402786076068878173828125">
        <ele>1808.4000244140625</ele>
        <time>2021-06-24T18:02:59.000Z</time>
        <extensions>
          <ns3:TrackPointExtension>
            <ns3:atemp>31.0</ns3:atemp>
            <ns3:hr>103</ns3:hr>
          </ns3:TrackPointExtension>
        </extensions>
      </trkpt>
      <trkpt lat="36.78245111368596553802490234375" lon="-118.54562594555318355560302734375">
        <ele>1808.800048828125</ele>
        <time>2021-06-24T18:03:04.000Z</time>
        <extensions>
          <ns3:TrackPointExtension>
            <ns3:atemp>31.0</ns3:atemp>
            <ns3:hr>103</ns3:hr>
          </ns3:TrackPointExtension>
        </extensions>
      </trkpt>
      <trkpt lat="36.7824419774115085601806640625" lon="-118.545626699924468994140625">
        <ele>1809</ele>
        <time>2021-06-24T18:03:05.000Z</time>
        <extensions>
          <ns3:TrackPointExtension>
            <ns3:atemp>31.0</ns3:atemp>
            <ns3:hr>103</ns3:hr>
          </ns3:TrackPointExtension>
        </extensions>
      </trkpt>
      <trkpt lat="36.78241632878780364990234375" lon="-118.54560834355652332305908203125">
        <ele>1809.199951171875</ele>
        <time>2021-06-24T18:03:08.000Z</time>
        <extensions>
          <ns3:TrackPointExtension>
            <ns3:atemp>31.0</ns3:atemp>
            <ns3:hr>105</ns3:hr>
          </ns3:TrackPointExtension>
        </extensions>
      </trkpt>
      <trkpt lat="36.78238146007061004638671875" lon="-118.54557699523866176605224609375">
        <ele>1809.4000244140625</ele>
        <time>2021-06-24T18:03:11.000Z</time>
        <extensions>
          <ns3:TrackPointExtension>
            <ns3:atemp>31.0</ns3:atemp>
            <ns3:hr>106</ns3:hr>
          </ns3:TrackPointExtension>
        </extensions>
      </trkpt>
      <trkpt lat="36.782371066510677337646484375" lon="-118.545573055744171142578125">
        <ele>1809.4000244140625</ele>
        <time>2021-06-24T18:03:12.000Z</time>
        <extensions>
          <ns3:TrackPointExtension>
            <ns3:atemp>31.0</ns3:atemp>
            <ns3:hr>106</ns3:hr>
          </ns3:TrackPointExtension>
        </extensions>
      </trkpt>
      <trkpt lat="36.782359667122364044189453125" lon="-118.54556878097355365753173828125">
        <ele>1809.4000244140625</ele>
        <time>2021-06-24T18:03:13.000Z</time>
        <extensions>
          <ns3:TrackPointExtension>
            <ns3:atemp>31.0</ns3:atemp>
            <ns3:hr>106</ns3:hr>
          </ns3:TrackPointExtension>
        </extensions>
      </trkpt>
      <trkpt lat="36.78233728744089603424072265625" lon="-118.54553039185702800750732421875">
        <ele>1809.800048828125</ele>
        <time>2021-06-24T18:03:17.000Z</time>
        <extensions>
          <ns3:TrackPointExtension>
            <ns3:atemp>31.0</ns3:atemp>
            <ns3:hr>107</ns3:hr>
          </ns3:TrackPointExtension>
        </extensions>
      </trkpt>
      <trkpt lat="36.78230308927595615386962890625" lon="-118.54551203548908233642578125">
        <ele>1809.800048828125</ele>
        <time>2021-06-24T18:03:20.000Z</time>
        <extensions>
          <ns3:TrackPointExtension>
            <ns3:atemp>31.0</ns3:atemp>
            <ns3:hr>109</ns3:hr>
          </ns3:TrackPointExtension>
        </extensions>
      </trkpt>
      <trkpt lat="36.78229001350700855255126953125" lon="-118.54549887590110301971435546875">
        <ele>1810.4000244140625</ele>
        <time>2021-06-24T18:03:22.000Z</time>
        <extensions>
          <ns3:TrackPointExtension>
            <ns3:atemp>31.0</ns3:atemp>
            <ns3:hr>110</ns3:hr>
          </ns3:TrackPointExtension>
        </extensions>
      </trkpt>
      <trkpt lat="36.78227056749165058135986328125" lon="-118.54545931331813335418701171875">
        <ele>1810.4000244140625</ele>
        <time>2021-06-24T18:03:25.000Z</time>
        <extensions>
          <ns3:TrackPointExtension>
            <ns3:atemp>31.0</ns3:atemp>
            <ns3:hr>110</ns3:hr>
          </ns3:TrackPointExtension>
        </extensions>
      </trkpt>
      <trkpt lat="36.782250702381134033203125" lon="-118.545428216457366943359375">
        <ele>1811</ele>
        <time>2021-06-24T18:03:28.000Z</time>
        <extensions>
          <ns3:TrackPointExtension>
            <ns3:atemp>31.0</ns3:atemp>
            <ns3:hr>110</ns3:hr>
          </ns3:TrackPointExtension>
        </extensions>
      </trkpt>
      <trkpt lat="36.7822049371898174285888671875" lon="-118.54539242573082447052001953125">
        <ele>1811.5999755859375</ele>
        <time>2021-06-24T18:03:32.000Z</time>
        <extensions>
          <ns3:TrackPointExtension>
            <ns3:atemp>31.0</ns3:atemp>
            <ns3:hr>108</ns3:hr>
          </ns3:TrackPointExtension>
        </extensions>
      </trkpt>
      <trkpt lat="36.78219906985759735107421875" lon="-118.54538387618958950042724609375">
        <ele>1811.5999755859375</ele>
        <time>2021-06-24T18:03:33.000Z</time>
        <extensions>
          <ns3:TrackPointExtension>
            <ns3:atemp>31.0</ns3:atemp>
            <ns3:hr>108</ns3:hr>
          </ns3:TrackPointExtension>
        </extensions>
      </trkpt>
      <trkpt lat="36.782191693782806396484375" lon="-118.54536476545035839080810546875">
        <ele>1811.5999755859375</ele>
        <time>2021-06-24T18:03:35.000Z</time>
        <extensions>
          <ns3:TrackPointExtension>
            <ns3:atemp>31.0</ns3:atemp>
            <ns3:hr>107</ns3:hr>
          </ns3:TrackPointExtension>
        </extensions>
      </trkpt>
      <trkpt lat="36.7821653746068477630615234375" lon="-118.545325957238674163818359375">
        <ele>1812.4000244140625</ele>
        <time>2021-06-24T18:03:40.000Z</time>
        <extensions>
          <ns3:TrackPointExtension>
            <ns3:atemp>31.0</ns3:atemp>
            <ns3:hr>105</ns3:hr>
          </ns3:TrackPointExtension>
        </extensions>
      </trkpt>
      <trkpt lat="36.78215187974274158477783203125" lon="-118.545294441282749176025390625">
        <ele>1812.5999755859375</ele>
        <time>2021-06-24T18:03:43.000Z</time>
        <extensions>
          <ns3:TrackPointExtension>
            <ns3:atemp>31.0</ns3:atemp>
            <ns3:hr>106</ns3:hr>
          </ns3:TrackPointExtension>
        </extensions>
      </trkpt>
      <trkpt lat="36.78214182145893573760986328125" lon="-118.5452822037041187286376953125">
        <ele>1812.800048828125</ele>
        <time>2021-06-24T18:03:45.000Z</time>
        <extensions>
          <ns3:TrackPointExtension>
            <ns3:atemp>31.0</ns3:atemp>
            <ns3:hr>106</ns3:hr>
          </ns3:TrackPointExtension>
        </extensions>
      </trkpt>
      <trkpt lat="36.782137714326381683349609375" lon="-118.54525764472782611846923828125">
        <ele>1813</ele>
        <time>2021-06-24T18:03:47.000Z</time>
        <extensions>
          <ns3:TrackPointExtension>
            <ns3:atemp>31.0</ns3:atemp>
            <ns3:hr>106</ns3:hr>
          </ns3:TrackPointExtension>
        </extensions>
      </trkpt>
      <trkpt lat="36.78212790749967098236083984375" lon="-118.54523442685604095458984375">
        <ele>1813.5999755859375</ele>
        <time>2021-06-24T18:03:50.000Z</time>
        <extensions>
          <ns3:TrackPointExtension>
            <ns3:atemp>31.0</ns3:atemp>
            <ns3:hr>103</ns3:hr>
          </ns3:TrackPointExtension>
        </extensions>
      </trkpt>
      <trkpt lat="36.78211516700685024261474609375" lon="-118.5452310740947723388671875">
        <ele>1813.5999755859375</ele>
        <time>2021-06-24T18:03:51.000Z</time>
        <extensions>
          <ns3:TrackPointExtension>
            <ns3:atemp>31.0</ns3:atemp>
            <ns3:hr>103</ns3:hr>
          </ns3:TrackPointExtension>
        </extensions>
      </trkpt>
      <trkpt lat="36.78209236823022365570068359375" lon="-118.54522612877190113067626953125">
        <ele>1813.800048828125</ele>
        <time>2021-06-24T18:03:53.000Z</time>
        <extensions>
          <ns3:TrackPointExtension>
            <ns3:atemp>31.0</ns3:atemp>
            <ns3:hr>104</ns3:hr>
          </ns3:TrackPointExtension>
        </extensions>
      </trkpt>
      <trkpt lat="36.7820812202990055084228515625" lon="-118.5452335886657238006591796875">
        <ele>1814.199951171875</ele>
        <time>2021-06-24T18:03:56.000Z</time>
        <extensions>
          <ns3:TrackPointExtension>
            <ns3:atemp>31.0</ns3:atemp>
            <ns3:hr>107</ns3:hr>
          </ns3:TrackPointExtension>
        </extensions>
      </trkpt>
      <trkpt lat="36.78207342512905597686767578125" lon="-118.54523283429443836212158203125">
        <ele>1814.5999755859375</ele>
        <time>2021-06-24T18:03:58.000Z</time>
        <extensions>
          <ns3:TrackPointExtension>
            <ns3:atemp>31.0</ns3:atemp>
            <ns3:hr>108</ns3:hr>
          </ns3:TrackPointExtension>
        </extensions>
      </trkpt>
      <trkpt lat="36.7820798791944980621337890625" lon="-118.54523199610412120819091796875">
        <ele>1814.800048828125</ele>
        <time>2021-06-24T18:04:00.000Z</time>
        <extensions>
          <ns3:TrackPointExtension>
            <ns3:atemp>31.0</ns3:atemp>
            <ns3:hr>106</ns3:hr>
          </ns3:TrackPointExtension>
        </extensions>
      </trkpt>
      <trkpt lat="36.7820805497467517852783203125" lon="-118.5452339239418506622314453125">
        <ele>1814.800048828125</ele>
        <time>2021-06-24T18:04:01.000Z</time>
        <extensions>
          <ns3:TrackPointExtension>
            <ns3:atemp>31.0</ns3:atemp>
            <ns3:hr>106</ns3:hr>
          </ns3:TrackPointExtension>
        </extensions>
      </trkpt>
      <trkpt lat="36.78207174874842166900634765625" lon="-118.5452215187251567840576171875">
        <ele>1815</ele>
        <time>2021-06-24T18:04:03.000Z</time>
        <extensions>
          <ns3:TrackPointExtension>
            <ns3:atemp>31.0</ns3:atemp>
            <ns3:hr>106</ns3:hr>
          </ns3:TrackPointExtension>
        </extensions>
      </trkpt>
      <trkpt lat="36.78202833048999309539794921875" lon="-118.54520835913717746734619140625">
        <ele>1815.800048828125</ele>
        <time>2021-06-24T18:04:08.000Z</time>
        <extensions>
          <ns3:TrackPointExtension>
            <ns3:atemp>31.0</ns3:atemp>
            <ns3:hr>106</ns3:hr>
          </ns3:TrackPointExtension>
        </extensions>
      </trkpt>
      <trkpt lat="36.7820186913013458251953125" lon="-118.54521020315587520599365234375">
        <ele>1816</ele>
        <time>2021-06-24T18:04:09.000Z</time>
        <extensions>
          <ns3:TrackPointExtension>
            <ns3:atemp>31.0</ns3:atemp>
            <ns3:hr>105</ns3:hr>
          </ns3:TrackPointExtension>
        </extensions>
      </trkpt>
      <trkpt lat="36.78200553171336650848388671875" lon="-118.54521422646939754486083984375">
        <ele>1816</ele>
        <time>2021-06-24T18:04:10.000Z</time>
        <extensions>
          <ns3:TrackPointExtension>
            <ns3:atemp>31.0</ns3:atemp>
            <ns3:hr>108</ns3:hr>
          </ns3:TrackPointExtension>
        </extensions>
      </trkpt>
      <trkpt lat="36.7819648794829845428466796875" lon="-118.545203246176242828369140625">
        <ele>1816.4000244140625</ele>
        <time>2021-06-24T18:04:14.000Z</time>
        <extensions>
          <ns3:TrackPointExtension>
            <ns3:atemp>31.0</ns3:atemp>
            <ns3:hr>106</ns3:hr>
          </ns3:TrackPointExtension>
        </extensions>
      </trkpt>
      <trkpt lat="36.7819665558636188507080078125" lon="-118.5452069342136383056640625">
        <ele>1816.5999755859375</ele>
        <time>2021-06-24T18:04:15.000Z</time>
        <extensions>
          <ns3:TrackPointExtension>
            <ns3:atemp>31.0</ns3:atemp>
            <ns3:hr>106</ns3:hr>
          </ns3:TrackPointExtension>
        </extensions>
      </trkpt>
      <trkpt lat="36.781938560307025909423828125" lon="-118.54520131833851337432861328125">
        <ele>1817.199951171875</ele>
        <time>2021-06-24T18:04:18.000Z</time>
        <extensions>
          <ns3:TrackPointExtension>
            <ns3:atemp>31.0</ns3:atemp>
            <ns3:hr>105</ns3:hr>
          </ns3:TrackPointExtension>
        </extensions>
      </trkpt>
      <trkpt lat="36.78186521865427494049072265625" lon="-118.5452168248593807220458984375">
        <ele>1817.800048828125</ele>
        <time>2021-06-24T18:04:24.000Z</time>
        <extensions>
          <ns3:TrackPointExtension>
            <ns3:atemp>31.0</ns3:atemp>
            <ns3:hr>105</ns3:hr>
          </ns3:TrackPointExtension>
        </extensions>
      </trkpt>
      <trkpt lat="36.78185516037046909332275390625" lon="-118.5452231951057910919189453125">
        <ele>1818</ele>
        <time>2021-06-24T18:04:25.000Z</time>
        <extensions>
          <ns3:TrackPointExtension>
            <ns3:atemp>31.0</ns3:atemp>
            <ns3:hr>105</ns3:hr>
          </ns3:TrackPointExtension>
        </extensions>
      </trkpt>
      <trkpt lat="36.781850047409534454345703125" lon="-118.545230068266391754150390625">
        <ele>1818.199951171875</ele>
        <time>2021-06-24T18:04:26.000Z</time>
        <extensions>
          <ns3:TrackPointExtension>
            <ns3:atemp>31.0</ns3:atemp>
            <ns3:hr>103</ns3:hr>
          </ns3:TrackPointExtension>
        </extensions>
      </trkpt>
      <trkpt lat="36.7818351276218891143798828125" lon="-118.54523199610412120819091796875">
        <ele>1818.199951171875</ele>
        <time>2021-06-24T18:04:28.000Z</time>
        <extensions>
          <ns3:TrackPointExtension>
            <ns3:atemp>31.0</ns3:atemp>
            <ns3:hr>103</ns3:hr>
          </ns3:TrackPointExtension>
        </extensions>
      </trkpt>
      <trkpt lat="36.78182448260486125946044921875" lon="-118.5452292300760746002197265625">
        <ele>1818.199951171875</ele>
        <time>2021-06-24T18:04:29.000Z</time>
        <extensions>
          <ns3:TrackPointExtension>
            <ns3:atemp>31.0</ns3:atemp>
            <ns3:hr>105</ns3:hr>
          </ns3:TrackPointExtension>
        </extensions>
      </trkpt>
      <trkpt lat="36.78180344402790069580078125" lon="-118.54522344656288623809814453125">
        <ele>1818.4000244140625</ele>
        <time>2021-06-24T18:04:31.000Z</time>
        <extensions>
          <ns3:TrackPointExtension>
            <ns3:atemp>31.0</ns3:atemp>
            <ns3:hr>108</ns3:hr>
          </ns3:TrackPointExtension>
        </extensions>
      </trkpt>
      <trkpt lat="36.7817858420312404632568359375" lon="-118.54522646404802799224853515625">
        <ele>1818.5999755859375</ele>
        <time>2021-06-24T18:04:33.000Z</time>
        <extensions>
          <ns3:TrackPointExtension>
            <ns3:atemp>31.0</ns3:atemp>
            <ns3:hr>112</ns3:hr>
          </ns3:TrackPointExtension>
        </extensions>
      </trkpt>
      <trkpt lat="36.78177502937614917755126953125" lon="-118.5452230274677276611328125">
        <ele>1818.5999755859375</ele>
        <time>2021-06-24T18:04:34.000Z</time>
        <extensions>
          <ns3:TrackPointExtension>
            <ns3:atemp>31.0</ns3:atemp>
            <ns3:hr>106</ns3:hr>
          </ns3:TrackPointExtension>
        </extensions>
      </trkpt>
      <trkpt lat="36.78176681511104106903076171875" lon="-118.5452201776206493377685546875">
        <ele>1818.5999755859375</ele>
        <time>2021-06-24T18:04:35.000Z</time>
        <extensions>
          <ns3:TrackPointExtension>
            <ns3:atemp>31.0</ns3:atemp>
            <ns3:hr>109</ns3:hr>
          </ns3:TrackPointExtension>
        </extensions>
      </trkpt>
      <trkpt lat="36.78176497109234333038330078125" lon="-118.5452201776206493377685546875">
        <ele>1818.5999755859375</ele>
        <time>2021-06-24T18:04:36.000Z</time>
        <extensions>
          <ns3:TrackPointExtension>
            <ns3:atemp>31.0</ns3:atemp>
            <ns3:hr>111</ns3:hr>
          </ns3:TrackPointExtension>
        </extensions>
      </trkpt>
      <trkpt lat="36.78176564164459705352783203125" lon="-118.54521824978291988372802734375">
        <ele>1818.5999755859375</ele>
        <time>2021-06-24T18:04:37.000Z</time>
        <extensions>
          <ns3:TrackPointExtension>
            <ns3:atemp>31.0</ns3:atemp>
            <ns3:hr>107</ns3:hr>
          </ns3:TrackPointExtension>
        </extensions>
      </trkpt>
      <trkpt lat="36.78176430054008960723876953125" lon="-118.54520048014819622039794921875">
        <ele>1819</ele>
        <time>2021-06-24T18:04:39.000Z</time>
        <extensions>
          <ns3:TrackPointExtension>
            <ns3:atemp>31.0</ns3:atemp>
            <ns3:hr>109</ns3:hr>
          </ns3:TrackPointExtension>
        </extensions>
      </trkpt>
      <trkpt lat="36.78176949732005596160888671875" lon="-118.54519444517791271209716796875">
        <ele>1819</ele>
        <time>2021-06-24T18:04:40.000Z</time>
        <extensions>
          <ns3:TrackPointExtension>
            <ns3:atemp>31.0</ns3:atemp>
            <ns3:hr>109</ns3:hr>
          </ns3:TrackPointExtension>
        </extensions>
      </trkpt>
      <trkpt lat="36.78177067078649997711181640625" lon="-118.5451856441795825958251953125">
        <ele>1819.199951171875</ele>
        <time>2021-06-24T18:04:41.000Z</time>
        <extensions>
          <ns3:TrackPointExtension>
            <ns3:atemp>31.0</ns3:atemp>
            <ns3:hr>110</ns3:hr>
          </ns3:TrackPointExtension>
        </extensions>
      </trkpt>
      <trkpt lat="36.7817539907991886138916015625" lon="-118.54511632584035396575927734375">
        <ele>1819.199951171875</ele>
        <time>2021-06-24T18:04:47.000Z</time>
        <extensions>
          <ns3:TrackPointExtension>
            <ns3:atemp>31.0</ns3:atemp>
            <ns3:hr>109</ns3:hr>
          </ns3:TrackPointExtension>
        </extensions>
      </trkpt>
      <trkpt lat="36.78173714317381381988525390625" lon="-118.54508958756923675537109375">
        <ele>1819.5999755859375</ele>
        <time>2021-06-24T18:04:50.000Z</time>
        <extensions>
          <ns3:TrackPointExtension>
            <ns3:atemp>31.0</ns3:atemp>
            <ns3:hr>109</ns3:hr>
          </ns3:TrackPointExtension>
        </extensions>
      </trkpt>
      <trkpt lat="36.78172071464359760284423828125" lon="-118.5450508631765842437744140625">
        <ele>1819.800048828125</ele>
        <time>2021-06-24T18:04:53.000Z</time>
        <extensions>
          <ns3:TrackPointExtension>
            <ns3:atemp>31.0</ns3:atemp>
            <ns3:hr>113</ns3:hr>
          </ns3:TrackPointExtension>
        </extensions>
      </trkpt>
      <trkpt lat="36.781711578369140625" lon="-118.54503150098025798797607421875">
        <ele>1819.800048828125</ele>
        <time>2021-06-24T18:04:55.000Z</time>
        <extensions>
          <ns3:TrackPointExtension>
            <ns3:atemp>31.0</ns3:atemp>
            <ns3:hr>114</ns3:hr>
          </ns3:TrackPointExtension>
        </extensions>
      </trkpt>
      <trkpt lat="36.781701855361461639404296875" lon="-118.5450057685375213623046875">
        <ele>1819.800048828125</ele>
        <time>2021-06-24T18:04:59.000Z</time>
        <extensions>
          <ns3:TrackPointExtension>
            <ns3:atemp>31.0</ns3:atemp>
            <ns3:hr>114</ns3:hr>
          </ns3:TrackPointExtension>
        </extensions>
      </trkpt>
      <trkpt lat="36.78169523365795612335205078125" lon="-118.54498472996056079864501953125">
        <ele>1819.800048828125</ele>
        <time>2021-06-24T18:05:01.000Z</time>
        <extensions>
          <ns3:TrackPointExtension>
            <ns3:atemp>31.0</ns3:atemp>
            <ns3:hr>111</ns3:hr>
          </ns3:TrackPointExtension>
        </extensions>
      </trkpt>
      <trkpt lat="36.78167327307164669036865234375" lon="-118.54495287872850894927978515625">
        <ele>1820</ele>
        <time>2021-06-24T18:05:05.000Z</time>
        <extensions>
          <ns3:TrackPointExtension>
            <ns3:atemp>31.0</ns3:atemp>
            <ns3:hr>110</ns3:hr>
          </ns3:TrackPointExtension>
        </extensions>
      </trkpt>
      <trkpt lat="36.78166455589234828948974609375" lon="-118.544925637543201446533203125">
        <ele>1820.199951171875</ele>
        <time>2021-06-24T18:05:07.000Z</time>
        <extensions>
          <ns3:TrackPointExtension>
            <ns3:atemp>31.0</ns3:atemp>
            <ns3:hr>109</ns3:hr>
          </ns3:TrackPointExtension>
        </extensions>
      </trkpt>
      <trkpt lat="36.78166036494076251983642578125" lon="-118.54490929283201694488525390625">
        <ele>1820.4000244140625</ele>
        <time>2021-06-24T18:05:08.000Z</time>
        <extensions>
          <ns3:TrackPointExtension>
            <ns3:atemp>31.0</ns3:atemp>
            <ns3:hr>106</ns3:hr>
          </ns3:TrackPointExtension>
        </extensions>
      </trkpt>
      <trkpt lat="36.78165785036981105804443359375" lon="-118.54488163255155086517333984375">
        <ele>1820.4000244140625</ele>
        <time>2021-06-24T18:05:10.000Z</time>
        <extensions>
          <ns3:TrackPointExtension>
            <ns3:atemp>31.0</ns3:atemp>
            <ns3:hr>109</ns3:hr>
          </ns3:TrackPointExtension>
        </extensions>
      </trkpt>
      <trkpt lat="36.78165583871304988861083984375" lon="-118.54486822150647640228271484375">
        <ele>1820.5999755859375</ele>
        <time>2021-06-24T18:05:11.000Z</time>
        <extensions>
          <ns3:TrackPointExtension>
            <ns3:atemp>31.0</ns3:atemp>
            <ns3:hr>109</ns3:hr>
          </ns3:TrackPointExtension>
        </extensions>
      </trkpt>
      <trkpt lat="36.78165080957114696502685546875" lon="-118.54485330171883106231689453125">
        <ele>1820.5999755859375</ele>
        <time>2021-06-24T18:05:13.000Z</time>
        <extensions>
          <ns3:TrackPointExtension>
            <ns3:atemp>31.0</ns3:atemp>
            <ns3:hr>109</ns3:hr>
          </ns3:TrackPointExtension>
        </extensions>
      </trkpt>
      <trkpt lat="36.7816446907818317413330078125" lon="-118.5448153316974639892578125">
        <ele>1820.800048828125</ele>
        <time>2021-06-24T18:05:16.000Z</time>
        <extensions>
          <ns3:TrackPointExtension>
            <ns3:atemp>31.0</ns3:atemp>
            <ns3:hr>111</ns3:hr>
          </ns3:TrackPointExtension>
        </extensions>
      </trkpt>
      <trkpt lat="36.78164360113441944122314453125" lon="-118.5447843186557292938232421875">
        <ele>1820.800048828125</ele>
        <time>2021-06-24T18:05:18.000Z</time>
        <extensions>
          <ns3:TrackPointExtension>
            <ns3:atemp>31.0</ns3:atemp>
            <ns3:hr>112</ns3:hr>
          </ns3:TrackPointExtension>
        </extensions>
      </trkpt>
      <trkpt lat="36.781648211181163787841796875" lon="-118.54476227425038814544677734375">
        <ele>1820.800048828125</ele>
        <time>2021-06-24T18:05:20.000Z</time>
        <extensions>
          <ns3:TrackPointExtension>
            <ns3:atemp>31.0</ns3:atemp>
            <ns3:hr>111</ns3:hr>
          </ns3:TrackPointExtension>
        </extensions>
      </trkpt>
      <trkpt lat="36.78164695389568805694580078125" lon="-118.5447509586811065673828125">
        <ele>1821</ele>
        <time>2021-06-24T18:05:21.000Z</time>
        <extensions>
          <ns3:TrackPointExtension>
            <ns3:atemp>31.0</ns3:atemp>
            <ns3:hr>108</ns3:hr>
          </ns3:TrackPointExtension>
        </extensions>
      </trkpt>
      <trkpt lat="36.781649552285671234130859375" lon="-118.54473914019763469696044921875">
        <ele>1821.199951171875</ele>
        <time>2021-06-24T18:05:22.000Z</time>
        <extensions>
          <ns3:TrackPointExtension>
            <ns3:atemp>31.0</ns3:atemp>
            <ns3:hr>108</ns3:hr>
          </ns3:TrackPointExtension>
        </extensions>
      </trkpt>
      <trkpt lat="36.7816426791250705718994140625" lon="-118.544671833515167236328125">
        <ele>1821.199951171875</ele>
        <time>2021-06-24T18:05:27.000Z</time>
        <extensions>
          <ns3:TrackPointExtension>
            <ns3:atemp>31.0</ns3:atemp>
            <ns3:hr>105</ns3:hr>
          </ns3:TrackPointExtension>
        </extensions>
      </trkpt>
      <trkpt lat="36.781641505658626556396484375" lon="-118.54465699754655361175537109375">
        <ele>1821.199951171875</ele>
        <time>2021-06-24T18:05:28.000Z</time>
        <extensions>
          <ns3:TrackPointExtension>
            <ns3:atemp>31.0</ns3:atemp>
            <ns3:hr>104</ns3:hr>
          </ns3:TrackPointExtension>
        </extensions>
      </trkpt>
      <trkpt lat="36.78161979652941226959228515625" lon="-118.5446155071258544921875">
        <ele>1821.4000244140625</ele>
        <time>2021-06-24T18:05:32.000Z</time>
        <extensions>
          <ns3:TrackPointExtension>
            <ns3:atemp>31.0</ns3:atemp>
            <ns3:hr>102</ns3:hr>
          </ns3:TrackPointExtension>
        </extensions>
      </trkpt>
      <trkpt lat="36.7816185392439365386962890625" lon="-118.5446089692413806915283203125">
        <ele>1821.4000244140625</ele>
        <time>2021-06-24T18:05:33.000Z</time>
        <extensions>
          <ns3:TrackPointExtension>
            <ns3:atemp>31.0</ns3:atemp>
            <ns3:hr>102</ns3:hr>
          </ns3:TrackPointExtension>
        </extensions>
      </trkpt>
      <trkpt lat="36.78161912597715854644775390625" lon="-118.54457770474255084991455078125">
        <ele>1821.4000244140625</ele>
        <time>2021-06-24T18:05:35.000Z</time>
        <extensions>
          <ns3:TrackPointExtension>
            <ns3:atemp>31.0</ns3:atemp>
            <ns3:hr>101</ns3:hr>
          </ns3:TrackPointExtension>
        </extensions>
      </trkpt>
      <trkpt lat="36.78162415511906147003173828125" lon="-118.54454778134822845458984375">
        <ele>1821.4000244140625</ele>
        <time>2021-06-24T18:05:38.000Z</time>
        <extensions>
          <ns3:TrackPointExtension>
            <ns3:atemp>31.0</ns3:atemp>
            <ns3:hr>101</ns3:hr>
          </ns3:TrackPointExtension>
        </extensions>
      </trkpt>
      <trkpt lat="36.78161711432039737701416015625" lon="-118.54454509913921356201171875">
        <ele>1821.5999755859375</ele>
        <time>2021-06-24T18:05:40.000Z</time>
        <extensions>
          <ns3:TrackPointExtension>
            <ns3:atemp>31.0</ns3:atemp>
            <ns3:hr>101</ns3:hr>
          </ns3:TrackPointExtension>
        </extensions>
      </trkpt>
      <trkpt lat="36.78161644376814365386962890625" lon="-118.54453244246542453765869140625">
        <ele>1821.800048828125</ele>
        <time>2021-06-24T18:05:42.000Z</time>
        <extensions>
          <ns3:TrackPointExtension>
            <ns3:atemp>31.0</ns3:atemp>
            <ns3:hr>101</ns3:hr>
          </ns3:TrackPointExtension>
        </extensions>
      </trkpt>
      <trkpt lat="36.78160873241722583770751953125" lon="-118.54451048187911510467529296875">
        <ele>1821.800048828125</ele>
        <time>2021-06-24T18:05:44.000Z</time>
        <extensions>
          <ns3:TrackPointExtension>
            <ns3:atemp>31.0</ns3:atemp>
            <ns3:hr>101</ns3:hr>
          </ns3:TrackPointExtension>
        </extensions>
      </trkpt>
      <trkpt lat="36.78159825503826141357421875" lon="-118.54449405334889888763427734375">
        <ele>1821.800048828125</ele>
        <time>2021-06-24T18:05:46.000Z</time>
        <extensions>
          <ns3:TrackPointExtension>
            <ns3:atemp>31.0</ns3:atemp>
            <ns3:hr>101</ns3:hr>
          </ns3:TrackPointExtension>
        </extensions>
      </trkpt>
      <trkpt lat="36.781580150127410888671875" lon="-118.54449003003537654876708984375">
        <ele>1821.800048828125</ele>
        <time>2021-06-24T18:05:48.000Z</time>
        <extensions>
          <ns3:TrackPointExtension>
            <ns3:atemp>31.0</ns3:atemp>
            <ns3:hr>101</ns3:hr>
          </ns3:TrackPointExtension>
        </extensions>
      </trkpt>
      <trkpt lat="36.78156749345362186431884765625" lon="-118.54448365978896617889404296875">
        <ele>1822</ele>
        <time>2021-06-24T18:05:49.000Z</time>
        <extensions>
          <ns3:TrackPointExtension>
            <ns3:atemp>31.0</ns3:atemp>
            <ns3:hr>101</ns3:hr>
          </ns3:TrackPointExtension>
        </extensions>
      </trkpt>
      <trkpt lat="36.78154570050537586212158203125" lon="-118.5444559156894683837890625">
        <ele>1822.199951171875</ele>
        <time>2021-06-24T18:05:53.000Z</time>
        <extensions>
          <ns3:TrackPointExtension>
            <ns3:atemp>31.0</ns3:atemp>
            <ns3:hr>99</ns3:hr>
          </ns3:TrackPointExtension>
        </extensions>
      </trkpt>
      <trkpt lat="36.78149557672441005706787109375" lon="-118.5444130003452301025390625">
        <ele>1822.4000244140625</ele>
        <time>2021-06-24T18:05:57.000Z</time>
        <extensions>
          <ns3:TrackPointExtension>
            <ns3:atemp>31.0</ns3:atemp>
            <ns3:hr>99</ns3:hr>
          </ns3:TrackPointExtension>
        </extensions>
      </trkpt>
      <trkpt lat="36.7814881168305873870849609375" lon="-118.544404618442058563232421875">
        <ele>1822.4000244140625</ele>
        <time>2021-06-24T18:05:58.000Z</time>
        <extensions>
          <ns3:TrackPointExtension>
            <ns3:atemp>31.0</ns3:atemp>
            <ns3:hr>100</ns3:hr>
          </ns3:TrackPointExtension>
        </extensions>
      </trkpt>
      <trkpt lat="36.781469173729419708251953125" lon="-118.54438123293220996856689453125">
        <ele>1822.5999755859375</ele>
        <time>2021-06-24T18:06:00.000Z</time>
        <extensions>
          <ns3:TrackPointExtension>
            <ns3:atemp>31.0</ns3:atemp>
            <ns3:hr>101</ns3:hr>
          </ns3:TrackPointExtension>
        </extensions>
      </trkpt>
      <trkpt lat="36.7814555950462818145751953125" lon="-118.54435038752853870391845703125">
        <ele>1822.5999755859375</ele>
        <time>2021-06-24T18:06:02.000Z</time>
        <extensions>
          <ns3:TrackPointExtension>
            <ns3:atemp>31.0</ns3:atemp>
            <ns3:hr>98</ns3:hr>
          </ns3:TrackPointExtension>
        </extensions>
      </trkpt>
      <trkpt lat="36.78145500831305980682373046875" lon="-118.5443253256380558013916015625">
        <ele>1822.800048828125</ele>
        <time>2021-06-24T18:06:04.000Z</time>
        <extensions>
          <ns3:TrackPointExtension>
            <ns3:atemp>31.0</ns3:atemp>
            <ns3:hr>100</ns3:hr>
          </ns3:TrackPointExtension>
        </extensions>
      </trkpt>
      <trkpt lat="36.781425587832927703857421875" lon="-118.5442815721035003662109375">
        <ele>1822.800048828125</ele>
        <time>2021-06-24T18:06:07.000Z</time>
        <extensions>
          <ns3:TrackPointExtension>
            <ns3:atemp>30.0</ns3:atemp>
            <ns3:hr>102</ns3:hr>
          </ns3:TrackPointExtension>
        </extensions>
      </trkpt>
      <trkpt lat="36.78141494281589984893798828125" lon="-118.54425047524273395538330078125">
        <ele>1822.800048828125</ele>
        <time>2021-06-24T18:06:09.000Z</time>
        <extensions>
          <ns3:TrackPointExtension>
            <ns3:atemp>30.0</ns3:atemp>
            <ns3:hr>99</ns3:hr>
          </ns3:TrackPointExtension>
        </extensions>
      </trkpt>
      <trkpt lat="36.78138661198318004608154296875" lon="-118.54422532953321933746337890625">
        <ele>1823</ele>
        <time>2021-06-24T18:06:13.000Z</time>
        <extensions>
          <ns3:TrackPointExtension>
            <ns3:atemp>30.0</ns3:atemp>
            <ns3:hr>100</ns3:hr>
          </ns3:TrackPointExtension>
        </extensions>
      </trkpt>
      <trkpt lat="36.7813791520893573760986328125" lon="-118.54420906864106655120849609375">
        <ele>1823</ele>
        <time>2021-06-24T18:06:15.000Z</time>
        <extensions>
          <ns3:TrackPointExtension>
            <ns3:atemp>30.0</ns3:atemp>
            <ns3:hr>100</ns3:hr>
          </ns3:TrackPointExtension>
        </extensions>
      </trkpt>
      <trkpt lat="36.781363897025585174560546875" lon="-118.54417453519999980926513671875">
        <ele>1823</ele>
        <time>2021-06-24T18:06:19.000Z</time>
        <extensions>
          <ns3:TrackPointExtension>
            <ns3:atemp>30.0</ns3:atemp>
            <ns3:hr>100</ns3:hr>
          </ns3:TrackPointExtension>
        </extensions>
      </trkpt>
      <trkpt lat="36.7813516594469547271728515625" lon="-118.5441680811345577239990234375">
        <ele>1823</ele>
        <time>2021-06-24T18:06:20.000Z</time>
        <extensions>
          <ns3:TrackPointExtension>
            <ns3:atemp>30.0</ns3:atemp>
            <ns3:hr>98</ns3:hr>
          </ns3:TrackPointExtension>
        </extensions>
      </trkpt>
      <trkpt lat="36.78134218789637088775634765625" lon="-118.54416020214557647705078125">
        <ele>1823</ele>
        <time>2021-06-24T18:06:21.000Z</time>
        <extensions>
          <ns3:TrackPointExtension>
            <ns3:atemp>30.0</ns3:atemp>
            <ns3:hr>99</ns3:hr>
          </ns3:TrackPointExtension>
        </extensions>
      </trkpt>
      <trkpt lat="36.78130564279854297637939453125" lon="-118.544137068092823028564453125">
        <ele>1823.199951171875</ele>
        <time>2021-06-24T18:06:24.000Z</time>
        <extensions>
          <ns3:TrackPointExtension>
            <ns3:atemp>30.0</ns3:atemp>
            <ns3:hr>100</ns3:hr>
          </ns3:TrackPointExtension>
        </extensions>
      </trkpt>
      <trkpt lat="36.78127161227166652679443359375" lon="-118.5440956614911556243896484375">
        <ele>1823.5999755859375</ele>
        <time>2021-06-24T18:06:28.000Z</time>
        <extensions>
          <ns3:TrackPointExtension>
            <ns3:atemp>30.0</ns3:atemp>
            <ns3:hr>99</ns3:hr>
          </ns3:TrackPointExtension>
        </extensions>
      </trkpt>
      <trkpt lat="36.78125015459954738616943359375" lon="-118.54404578916728496551513671875">
        <ele>1823.800048828125</ele>
        <time>2021-06-24T18:06:32.000Z</time>
        <extensions>
          <ns3:TrackPointExtension>
            <ns3:atemp>30.0</ns3:atemp>
            <ns3:hr>100</ns3:hr>
          </ns3:TrackPointExtension>
        </extensions>
      </trkpt>
      <trkpt lat="36.781245879828929901123046875" lon="-118.544000275433063507080078125">
        <ele>1824.199951171875</ele>
        <time>2021-06-24T18:06:35.000Z</time>
        <extensions>
          <ns3:TrackPointExtension>
            <ns3:atemp>30.0</ns3:atemp>
            <ns3:hr>98</ns3:hr>
          </ns3:TrackPointExtension>
        </extensions>
      </trkpt>
      <trkpt lat="36.7812292836606502532958984375" lon="-118.543969430029392242431640625">
        <ele>1824.4000244140625</ele>
        <time>2021-06-24T18:06:37.000Z</time>
        <extensions>
          <ns3:TrackPointExtension>
            <ns3:atemp>30.0</ns3:atemp>
            <ns3:hr>99</ns3:hr>
          </ns3:TrackPointExtension>
        </extensions>
      </trkpt>
      <trkpt lat="36.78120397031307220458984375" lon="-118.54394964873790740966796875">
        <ele>1824.5999755859375</ele>
        <time>2021-06-24T18:06:39.000Z</time>
        <extensions>
          <ns3:TrackPointExtension>
            <ns3:atemp>30.0</ns3:atemp>
            <ns3:hr>101</ns3:hr>
          </ns3:TrackPointExtension>
        </extensions>
      </trkpt>
      <trkpt lat="36.78118879906833171844482421875" lon="-118.54394051246345043182373046875">
        <ele>1824.4000244140625</ele>
        <time>2021-06-24T18:06:40.000Z</time>
        <extensions>
          <ns3:TrackPointExtension>
            <ns3:atemp>30.0</ns3:atemp>
            <ns3:hr>101</ns3:hr>
          </ns3:TrackPointExtension>
        </extensions>
      </trkpt>
      <trkpt lat="36.78113632835447788238525390625" lon="-118.54390899650752544403076171875">
        <ele>1824.5999755859375</ele>
        <time>2021-06-24T18:06:44.000Z</time>
        <extensions>
          <ns3:TrackPointExtension>
            <ns3:atemp>30.0</ns3:atemp>
            <ns3:hr>98</ns3:hr>
          </ns3:TrackPointExtension>
        </extensions>
      </trkpt>
      <trkpt lat="36.781123839318752288818359375" lon="-118.5438899695873260498046875">
        <ele>1824.5999755859375</ele>
        <time>2021-06-24T18:06:46.000Z</time>
        <extensions>
          <ns3:TrackPointExtension>
            <ns3:atemp>30.0</ns3:atemp>
            <ns3:hr>97</ns3:hr>
          </ns3:TrackPointExtension>
        </extensions>
      </trkpt>
      <trkpt lat="36.78110430948436260223388671875" lon="-118.54386172257363796234130859375">
        <ele>1824.5999755859375</ele>
        <time>2021-06-24T18:06:48.000Z</time>
        <extensions>
          <ns3:TrackPointExtension>
            <ns3:atemp>30.0</ns3:atemp>
            <ns3:hr>96</ns3:hr>
          </ns3:TrackPointExtension>
        </extensions>
      </trkpt>
      <trkpt lat="36.7810639925301074981689453125" lon="-118.5438193939626216888427734375">
        <ele>1825</ele>
        <time>2021-06-24T18:06:53.000Z</time>
        <extensions>
          <ns3:TrackPointExtension>
            <ns3:atemp>30.0</ns3:atemp>
            <ns3:hr>96</ns3:hr>
          </ns3:TrackPointExtension>
        </extensions>
      </trkpt>
      <trkpt lat="36.781040690839290618896484375" lon="-118.54379701428115367889404296875">
        <ele>1825.199951171875</ele>
        <time>2021-06-24T18:06:55.000Z</time>
        <extensions>
          <ns3:TrackPointExtension>
            <ns3:atemp>30.0</ns3:atemp>
            <ns3:hr>96</ns3:hr>
          </ns3:TrackPointExtension>
        </extensions>
      </trkpt>
      <trkpt lat="36.7810163833200931549072265625" lon="-118.54376264847815036773681640625">
        <ele>1825.4000244140625</ele>
        <time>2021-06-24T18:06:59.000Z</time>
        <extensions>
          <ns3:TrackPointExtension>
            <ns3:atemp>31.0</ns3:atemp>
            <ns3:hr>95</ns3:hr>
          </ns3:TrackPointExtension>
        </extensions>
      </trkpt>
      <trkpt lat="36.78100104443728923797607421875" lon="-118.54374538175761699676513671875">
        <ele>1825.4000244140625</ele>
        <time>2021-06-24T18:07:01.000Z</time>
        <extensions>
          <ns3:TrackPointExtension>
            <ns3:atemp>31.0</ns3:atemp>
            <ns3:hr>94</ns3:hr>
          </ns3:TrackPointExtension>
        </extensions>
      </trkpt>
      <trkpt lat="36.780999787151813507080078125" lon="-118.543730713427066802978515625">
        <ele>1825.4000244140625</ele>
        <time>2021-06-24T18:07:02.000Z</time>
        <extensions>
          <ns3:TrackPointExtension>
            <ns3:atemp>31.0</ns3:atemp>
            <ns3:hr>94</ns3:hr>
          </ns3:TrackPointExtension>
        </extensions>
      </trkpt>
      <trkpt lat="36.7809912376105785369873046875" lon="-118.54370431043207645416259765625">
        <ele>1825.800048828125</ele>
        <time>2021-06-24T18:07:04.000Z</time>
        <extensions>
          <ns3:TrackPointExtension>
            <ns3:atemp>31.0</ns3:atemp>
            <ns3:hr>94</ns3:hr>
          </ns3:TrackPointExtension>
        </extensions>
      </trkpt>
      <trkpt lat="36.7809754796326160430908203125" lon="-118.543663322925567626953125">
        <ele>1826.4000244140625</ele>
        <time>2021-06-24T18:07:09.000Z</time>
        <extensions>
          <ns3:TrackPointExtension>
            <ns3:atemp>31.0</ns3:atemp>
            <ns3:hr>94</ns3:hr>
          </ns3:TrackPointExtension>
        </extensions>
      </trkpt>
      <trkpt lat="36.780961565673351287841796875" lon="-118.54362887330353260040283203125">
        <ele>1826.800048828125</ele>
        <time>2021-06-24T18:07:13.000Z</time>
        <extensions>
          <ns3:TrackPointExtension>
            <ns3:atemp>31.0</ns3:atemp>
            <ns3:hr>91</ns3:hr>
          </ns3:TrackPointExtension>
        </extensions>
      </trkpt>
      <trkpt lat="36.78095829673111438751220703125" lon="-118.54362032376229763031005859375">
        <ele>1826.800048828125</ele>
        <time>2021-06-24T18:07:14.000Z</time>
        <extensions>
          <ns3:TrackPointExtension>
            <ns3:atemp>31.0</ns3:atemp>
            <ns3:hr>94</ns3:hr>
          </ns3:TrackPointExtension>
        </extensions>
      </trkpt>
      <trkpt lat="36.78095209412276744842529296875" lon="-118.5436085052788257598876953125">
        <ele>1826.800048828125</ele>
        <time>2021-06-24T18:07:15.000Z</time>
        <extensions>
          <ns3:TrackPointExtension>
            <ns3:atemp>31.0</ns3:atemp>
            <ns3:hr>94</ns3:hr>
          </ns3:TrackPointExtension>
        </extensions>
      </trkpt>
      <trkpt lat="36.78095879964530467987060546875" lon="-118.5435786657035350799560546875">
        <ele>1827</ele>
        <time>2021-06-24T18:07:17.000Z</time>
        <extensions>
          <ns3:TrackPointExtension>
            <ns3:atemp>31.0</ns3:atemp>
            <ns3:hr>93</ns3:hr>
          </ns3:TrackPointExtension>
        </extensions>
      </trkpt>
      <trkpt lat="36.78095326758921146392822265625" lon="-118.5435508377850055694580078125">
        <ele>1827.4000244140625</ele>
        <time>2021-06-24T18:07:19.000Z</time>
        <extensions>
          <ns3:TrackPointExtension>
            <ns3:atemp>31.0</ns3:atemp>
            <ns3:hr>97</ns3:hr>
          </ns3:TrackPointExtension>
        </extensions>
      </trkpt>
      <trkpt lat="36.780941449105739593505859375" lon="-118.5435038991272449493408203125">
        <ele>1827.4000244140625</ele>
        <time>2021-06-24T18:07:22.000Z</time>
        <extensions>
          <ns3:TrackPointExtension>
            <ns3:atemp>31.0</ns3:atemp>
            <ns3:hr>96</ns3:hr>
          </ns3:TrackPointExtension>
        </extensions>
      </trkpt>
      <trkpt lat="36.78094622679054737091064453125" lon="-118.54348822496831417083740234375">
        <ele>1827.5999755859375</ele>
        <time>2021-06-24T18:07:23.000Z</time>
        <extensions>
          <ns3:TrackPointExtension>
            <ns3:atemp>31.0</ns3:atemp>
            <ns3:hr>97</ns3:hr>
          </ns3:TrackPointExtension>
        </extensions>
      </trkpt>
      <trkpt lat="36.78096600808203220367431640625" lon="-118.54341127909719944000244140625">
        <ele>1828</ele>
        <time>2021-06-24T18:07:29.000Z</time>
        <extensions>
          <ns3:TrackPointExtension>
            <ns3:atemp>31.0</ns3:atemp>
            <ns3:hr>97</ns3:hr>
          </ns3:TrackPointExtension>
        </extensions>
      </trkpt>
      <trkpt lat="36.78096215240657329559326171875" lon="-118.54338211007416248321533203125">
        <ele>1828</ele>
        <time>2021-06-24T18:07:31.000Z</time>
        <extensions>
          <ns3:TrackPointExtension>
            <ns3:atemp>31.0</ns3:atemp>
            <ns3:hr>98</ns3:hr>
          </ns3:TrackPointExtension>
        </extensions>
      </trkpt>
      <trkpt lat="36.780960224568843841552734375" lon="-118.543330393731594085693359375">
        <ele>1828.4000244140625</ele>
        <time>2021-06-24T18:07:35.000Z</time>
        <extensions>
          <ns3:TrackPointExtension>
            <ns3:atemp>31.0</ns3:atemp>
            <ns3:hr>95</ns3:hr>
          </ns3:TrackPointExtension>
        </extensions>
      </trkpt>
      <trkpt lat="36.78095242939889430999755859375" lon="-118.54332259856164455413818359375">
        <ele>1828.4000244140625</ele>
        <time>2021-06-24T18:07:36.000Z</time>
        <extensions>
          <ns3:TrackPointExtension>
            <ns3:atemp>31.0</ns3:atemp>
            <ns3:hr>98</ns3:hr>
          </ns3:TrackPointExtension>
        </extensions>
      </trkpt>
      <trkpt lat="36.7809484899044036865234375" lon="-118.54331262409687042236328125">
        <ele>1828.800048828125</ele>
        <time>2021-06-24T18:07:37.000Z</time>
        <extensions>
          <ns3:TrackPointExtension>
            <ns3:atemp>31.0</ns3:atemp>
            <ns3:hr>99</ns3:hr>
          </ns3:TrackPointExtension>
        </extensions>
      </trkpt>
      <trkpt lat="36.7809211649000644683837890625" lon="-118.54325923137366771697998046875">
        <ele>1829</ele>
        <time>2021-06-24T18:07:43.000Z</time>
        <extensions>
          <ns3:TrackPointExtension>
            <ns3:atemp>31.0</ns3:atemp>
            <ns3:hr>101</ns3:hr>
          </ns3:TrackPointExtension>
        </extensions>
      </trkpt>
      <trkpt lat="36.78088218905031681060791015625" lon="-118.54322411119937896728515625">
        <ele>1829</ele>
        <time>2021-06-24T18:07:45.000Z</time>
        <extensions>
          <ns3:TrackPointExtension>
            <ns3:atemp>31.0</ns3:atemp>
            <ns3:hr>100</ns3:hr>
          </ns3:TrackPointExtension>
        </extensions>
      </trkpt>
      <trkpt lat="36.7809104360640048980712890625" lon="-118.5431729815900325775146484375">
        <ele>1829.5999755859375</ele>
        <time>2021-06-24T18:07:49.000Z</time>
        <extensions>
          <ns3:TrackPointExtension>
            <ns3:atemp>31.0</ns3:atemp>
            <ns3:hr>100</ns3:hr>
          </ns3:TrackPointExtension>
        </extensions>
      </trkpt>
      <trkpt lat="36.7808919958770275115966796875" lon="-118.5431666113436222076416015625">
        <ele>1829.800048828125</ele>
        <time>2021-06-24T18:07:50.000Z</time>
        <extensions>
          <ns3:TrackPointExtension>
            <ns3:atemp>31.0</ns3:atemp>
            <ns3:hr>101</ns3:hr>
          </ns3:TrackPointExtension>
        </extensions>
      </trkpt>
      <trkpt lat="36.78087799809873104095458984375" lon="-118.5431273840367794036865234375">
        <ele>1830.199951171875</ele>
        <time>2021-06-24T18:07:55.000Z</time>
        <extensions>
          <ns3:TrackPointExtension>
            <ns3:atemp>31.0</ns3:atemp>
            <ns3:hr>102</ns3:hr>
          </ns3:TrackPointExtension>
        </extensions>
      </trkpt>
      <trkpt lat="36.7808769084513187408447265625" lon="-118.54311372153460979461669921875">
        <ele>1830.199951171875</ele>
        <time>2021-06-24T18:07:57.000Z</time>
        <extensions>
          <ns3:TrackPointExtension>
            <ns3:atemp>31.0</ns3:atemp>
            <ns3:hr>101</ns3:hr>
          </ns3:TrackPointExtension>
        </extensions>
      </trkpt>
      <trkpt lat="36.7808889783918857574462890625" lon="-118.54310316033661365509033203125">
        <ele>1830.5999755859375</ele>
        <time>2021-06-24T18:08:00.000Z</time>
        <extensions>
          <ns3:TrackPointExtension>
            <ns3:atemp>31.0</ns3:atemp>
            <ns3:hr>100</ns3:hr>
          </ns3:TrackPointExtension>
        </extensions>
      </trkpt>
      <trkpt lat="36.780882440507411956787109375" lon="-118.54308061301708221435546875">
        <ele>1831</ele>
        <time>2021-06-24T18:08:04.000Z</time>
        <extensions>
          <ns3:TrackPointExtension>
            <ns3:atemp>31.0</ns3:atemp>
            <ns3:hr>101</ns3:hr>
          </ns3:TrackPointExtension>
        </extensions>
      </trkpt>
      <trkpt lat="36.780889816582202911376953125" lon="-118.54307097382843494415283203125">
        <ele>1831</ele>
        <time>2021-06-24T18:08:05.000Z</time>
        <extensions>
          <ns3:TrackPointExtension>
            <ns3:atemp>31.0</ns3:atemp>
            <ns3:hr>102</ns3:hr>
          </ns3:TrackPointExtension>
        </extensions>
      </trkpt>
      <trkpt lat="36.78089945577085018157958984375" lon="-118.54304934851825237274169921875">
        <ele>1831.199951171875</ele>
        <time>2021-06-24T18:08:07.000Z</time>
        <extensions>
          <ns3:TrackPointExtension>
            <ns3:atemp>31.0</ns3:atemp>
            <ns3:hr>102</ns3:hr>
          </ns3:TrackPointExtension>
        </extensions>
      </trkpt>
      <trkpt lat="36.78090180270373821258544921875" lon="-118.543035350739955902099609375">
        <ele>1831.4000244140625</ele>
        <time>2021-06-24T18:08:08.000Z</time>
        <extensions>
          <ns3:TrackPointExtension>
            <ns3:atemp>31.0</ns3:atemp>
            <ns3:hr>102</ns3:hr>
          </ns3:TrackPointExtension>
        </extensions>
      </trkpt>
      <trkpt lat="36.780908592045307159423828125" lon="-118.5430021584033966064453125">
        <ele>1831.800048828125</ele>
        <time>2021-06-24T18:08:12.000Z</time>
        <extensions>
          <ns3:TrackPointExtension>
            <ns3:atemp>31.0</ns3:atemp>
            <ns3:hr>102</ns3:hr>
          </ns3:TrackPointExtension>
        </extensions>
      </trkpt>
      <trkpt lat="36.7808993719518184661865234375" lon="-118.54297558777034282684326171875">
        <ele>1832.4000244140625</ele>
        <time>2021-06-24T18:08:15.000Z</time>
        <extensions>
          <ns3:TrackPointExtension>
            <ns3:atemp>31.0</ns3:atemp>
            <ns3:hr>102</ns3:hr>
          </ns3:TrackPointExtension>
        </extensions>
      </trkpt>
      <trkpt lat="36.7809054069221019744873046875" lon="-118.542939461767673492431640625">
        <ele>1832.5999755859375</ele>
        <time>2021-06-24T18:08:18.000Z</time>
        <extensions>
          <ns3:TrackPointExtension>
            <ns3:atemp>31.0</ns3:atemp>
            <ns3:hr>100</ns3:hr>
          </ns3:TrackPointExtension>
        </extensions>
      </trkpt>
      <trkpt lat="36.78091638721525669097900390625" lon="-118.54286142624914646148681640625">
        <ele>1833.199951171875</ele>
        <time>2021-06-24T18:08:25.000Z</time>
        <extensions>
          <ns3:TrackPointExtension>
            <ns3:atemp>31.0</ns3:atemp>
            <ns3:hr>100</ns3:hr>
          </ns3:TrackPointExtension>
        </extensions>
      </trkpt>
      <trkpt lat="36.7809127829968929290771484375" lon="-118.54284533299505710601806640625">
        <ele>1833.4000244140625</ele>
        <time>2021-06-24T18:08:27.000Z</time>
        <extensions>
          <ns3:TrackPointExtension>
            <ns3:atemp>31.0</ns3:atemp>
            <ns3:hr>101</ns3:hr>
          </ns3:TrackPointExtension>
        </extensions>
      </trkpt>
      <trkpt lat="36.78092158399522304534912109375" lon="-118.54281842708587646484375">
        <ele>1833.800048828125</ele>
        <time>2021-06-24T18:08:30.000Z</time>
        <extensions>
          <ns3:TrackPointExtension>
            <ns3:atemp>31.0</ns3:atemp>
            <ns3:hr>104</ns3:hr>
          </ns3:TrackPointExtension>
        </extensions>
      </trkpt>
      <trkpt lat="36.7809184826910495758056640625" lon="-118.5427890904247760772705078125">
        <ele>1834.199951171875</ele>
        <time>2021-06-24T18:08:34.000Z</time>
        <extensions>
          <ns3:TrackPointExtension>
            <ns3:atemp>31.0</ns3:atemp>
            <ns3:hr>104</ns3:hr>
          </ns3:TrackPointExtension>
        </extensions>
      </trkpt>
      <trkpt lat="36.78091119043529033660888671875" lon="-118.542783558368682861328125">
        <ele>1834.4000244140625</ele>
        <time>2021-06-24T18:08:35.000Z</time>
        <extensions>
          <ns3:TrackPointExtension>
            <ns3:atemp>31.0</ns3:atemp>
            <ns3:hr>103</ns3:hr>
          </ns3:TrackPointExtension>
        </extensions>
      </trkpt>
      <trkpt lat="36.78091286681592464447021484375" lon="-118.54276268742978572845458984375">
        <ele>1834.800048828125</ele>
        <time>2021-06-24T18:08:37.000Z</time>
        <extensions>
          <ns3:TrackPointExtension>
            <ns3:atemp>31.0</ns3:atemp>
            <ns3:hr>106</ns3:hr>
          </ns3:TrackPointExtension>
        </extensions>
      </trkpt>
      <trkpt lat="36.7809017188847064971923828125" lon="-118.54270300827920436859130859375">
        <ele>1835</ele>
        <time>2021-06-24T18:08:41.000Z</time>
        <extensions>
          <ns3:TrackPointExtension>
            <ns3:atemp>31.0</ns3:atemp>
            <ns3:hr>109</ns3:hr>
          </ns3:TrackPointExtension>
        </extensions>
      </trkpt>
      <trkpt lat="36.78089283406734466552734375" lon="-118.5426864959299564361572265625">
        <ele>1835.199951171875</ele>
        <time>2021-06-24T18:08:42.000Z</time>
        <extensions>
          <ns3:TrackPointExtension>
            <ns3:atemp>32.0</ns3:atemp>
            <ns3:hr>109</ns3:hr>
          </ns3:TrackPointExtension>
        </extensions>
      </trkpt>
      <trkpt lat="36.7808873020112514495849609375" lon="-118.54265841655433177947998046875">
        <ele>1835.199951171875</ele>
        <time>2021-06-24T18:08:44.000Z</time>
        <extensions>
          <ns3:TrackPointExtension>
            <ns3:atemp>32.0</ns3:atemp>
            <ns3:hr>110</ns3:hr>
          </ns3:TrackPointExtension>
        </extensions>
      </trkpt>
      <trkpt lat="36.78087246604263782501220703125" lon="-118.5426293313503265380859375">
        <ele>1835.5999755859375</ele>
        <time>2021-06-24T18:08:46.000Z</time>
        <extensions>
          <ns3:TrackPointExtension>
            <ns3:atemp>32.0</ns3:atemp>
            <ns3:hr>111</ns3:hr>
          </ns3:TrackPointExtension>
        </extensions>
      </trkpt>
      <trkpt lat="36.7808671854436397552490234375" lon="-118.54261516593396663665771484375">
        <ele>1835.5999755859375</ele>
        <time>2021-06-24T18:08:47.000Z</time>
        <extensions>
          <ns3:TrackPointExtension>
            <ns3:atemp>32.0</ns3:atemp>
            <ns3:hr>110</ns3:hr>
          </ns3:TrackPointExtension>
        </extensions>
      </trkpt>
      <trkpt lat="36.7808326520025730133056640625" lon="-118.54252346791326999664306640625">
        <ele>1836.5999755859375</ele>
        <time>2021-06-24T18:08:54.000Z</time>
        <extensions>
          <ns3:TrackPointExtension>
            <ns3:atemp>31.0</ns3:atemp>
            <ns3:hr>113</ns3:hr>
          </ns3:TrackPointExtension>
        </extensions>
      </trkpt>
      <trkpt lat="36.7808390222489833831787109375" lon="-118.54244467802345752716064453125">
        <ele>1837.4000244140625</ele>
        <time>2021-06-24T18:09:02.000Z</time>
        <extensions>
          <ns3:TrackPointExtension>
            <ns3:atemp>31.0</ns3:atemp>
            <ns3:hr>114</ns3:hr>
          </ns3:TrackPointExtension>
        </extensions>
      </trkpt>
      <trkpt lat="36.7808386869728565216064453125" lon="-118.54238164611160755157470703125">
        <ele>1838</ele>
        <time>2021-06-24T18:09:08.000Z</time>
        <extensions>
          <ns3:TrackPointExtension>
            <ns3:atemp>31.0</ns3:atemp>
            <ns3:hr>111</ns3:hr>
          </ns3:TrackPointExtension>
        </extensions>
      </trkpt>
      <trkpt lat="36.7808041535317897796630859375" lon="-118.5422995872795581817626953125">
        <ele>1838.800048828125</ele>
        <time>2021-06-24T18:09:16.000Z</time>
        <extensions>
          <ns3:TrackPointExtension>
            <ns3:atemp>32.0</ns3:atemp>
            <ns3:hr>110</ns3:hr>
          </ns3:TrackPointExtension>
        </extensions>
      </trkpt>
      <trkpt lat="36.78080172277987003326416015625" lon="-118.54229246266186237335205078125">
        <ele>1838.800048828125</ele>
        <time>2021-06-24T18:09:17.000Z</time>
        <extensions>
          <ns3:TrackPointExtension>
            <ns3:atemp>31.0</ns3:atemp>
            <ns3:hr>110</ns3:hr>
          </ns3:TrackPointExtension>
        </extensions>
      </trkpt>
      <trkpt lat="36.78080239333212375640869140625" lon="-118.5422794707119464874267578125">
        <ele>1839.199951171875</ele>
        <time>2021-06-24T18:09:18.000Z</time>
        <extensions>
          <ns3:TrackPointExtension>
            <ns3:atemp>32.0</ns3:atemp>
            <ns3:hr>109</ns3:hr>
          </ns3:TrackPointExtension>
        </extensions>
      </trkpt>
      <trkpt lat="36.78078596480190753936767578125" lon="-118.5422328673303127288818359375">
        <ele>1839.199951171875</ele>
        <time>2021-06-24T18:09:23.000Z</time>
        <extensions>
          <ns3:TrackPointExtension>
            <ns3:atemp>32.0</ns3:atemp>
            <ns3:hr>109</ns3:hr>
          </ns3:TrackPointExtension>
        </extensions>
      </trkpt>
      <trkpt lat="36.78077423013746738433837890625" lon="-118.54218500666320323944091796875">
        <ele>1840</ele>
        <time>2021-06-24T18:09:29.000Z</time>
        <extensions>
          <ns3:TrackPointExtension>
            <ns3:atemp>32.0</ns3:atemp>
            <ns3:hr>110</ns3:hr>
          </ns3:TrackPointExtension>
        </extensions>
      </trkpt>
      <trkpt lat="36.780775487422943115234375" lon="-118.54217813350260257720947265625">
        <ele>1840.4000244140625</ele>
        <time>2021-06-24T18:09:30.000Z</time>
        <extensions>
          <ns3:TrackPointExtension>
            <ns3:atemp>32.0</ns3:atemp>
            <ns3:hr>107</ns3:hr>
          </ns3:TrackPointExtension>
        </extensions>
      </trkpt>
      <trkpt lat="36.78073600865900516510009765625" lon="-118.5421171970665454864501953125">
        <ele>1841</ele>
        <time>2021-06-24T18:09:36.000Z</time>
        <extensions>
          <ns3:TrackPointExtension>
            <ns3:atemp>32.0</ns3:atemp>
            <ns3:hr>107</ns3:hr>
          </ns3:TrackPointExtension>
        </extensions>
      </trkpt>
      <trkpt lat="36.78072729147970676422119140625" lon="-118.5420555062592029571533203125">
        <ele>1841.4000244140625</ele>
        <time>2021-06-24T18:09:40.000Z</time>
        <extensions>
          <ns3:TrackPointExtension>
            <ns3:atemp>32.0</ns3:atemp>
            <ns3:hr>107</ns3:hr>
          </ns3:TrackPointExtension>
        </extensions>
      </trkpt>
      <trkpt lat="36.7807273752987384796142578125" lon="-118.54204234667122364044189453125">
        <ele>1841.4000244140625</ele>
        <time>2021-06-24T18:09:41.000Z</time>
        <extensions>
          <ns3:TrackPointExtension>
            <ns3:atemp>32.0</ns3:atemp>
            <ns3:hr>107</ns3:hr>
          </ns3:TrackPointExtension>
        </extensions>
      </trkpt>
      <trkpt lat="36.78068554960191249847412109375" lon="-118.54197545908391475677490234375">
        <ele>1842</ele>
        <time>2021-06-24T18:09:46.000Z</time>
        <extensions>
          <ns3:TrackPointExtension>
            <ns3:atemp>32.0</ns3:atemp>
            <ns3:hr>104</ns3:hr>
          </ns3:TrackPointExtension>
        </extensions>
      </trkpt>
      <trkpt lat="36.78068152628839015960693359375" lon="-118.54194712825119495391845703125">
        <ele>1842.4000244140625</ele>
        <time>2021-06-24T18:09:50.000Z</time>
        <extensions>
          <ns3:TrackPointExtension>
            <ns3:atemp>32.0</ns3:atemp>
            <ns3:hr>105</ns3:hr>
          </ns3:TrackPointExtension>
        </extensions>
      </trkpt>
      <trkpt lat="36.78064732812345027923583984375" lon="-118.54188610799610614776611328125">
        <ele>1843</ele>
        <time>2021-06-24T18:09:56.000Z</time>
        <extensions>
          <ns3:TrackPointExtension>
            <ns3:atemp>32.0</ns3:atemp>
            <ns3:hr>107</ns3:hr>
          </ns3:TrackPointExtension>
        </extensions>
      </trkpt>
      <trkpt lat="36.7806346714496612548828125" lon="-118.54186154901981353759765625">
        <ele>1843.4000244140625</ele>
        <time>2021-06-24T18:09:58.000Z</time>
        <extensions>
          <ns3:TrackPointExtension>
            <ns3:atemp>32.0</ns3:atemp>
            <ns3:hr>108</ns3:hr>
          </ns3:TrackPointExtension>
        </extensions>
      </trkpt>
      <trkpt lat="36.78061028011143207550048828125" lon="-118.54181502945721149444580078125">
        <ele>1844.199951171875</ele>
        <time>2021-06-24T18:10:02.000Z</time>
        <extensions>
          <ns3:TrackPointExtension>
            <ns3:atemp>32.0</ns3:atemp>
            <ns3:hr>109</ns3:hr>
          </ns3:TrackPointExtension>
        </extensions>
      </trkpt>
      <trkpt lat="36.78061950020492076873779296875" lon="-118.5417939908802509307861328125">
        <ele>1844.199951171875</ele>
        <time>2021-06-24T18:10:04.000Z</time>
        <extensions>
          <ns3:TrackPointExtension>
            <ns3:atemp>32.0</ns3:atemp>
            <ns3:hr>109</ns3:hr>
          </ns3:TrackPointExtension>
        </extensions>
      </trkpt>
      <trkpt lat="36.7806184105575084686279296875" lon="-118.54178032837808132171630859375">
        <ele>1844.4000244140625</ele>
        <time>2021-06-24T18:10:06.000Z</time>
        <extensions>
          <ns3:TrackPointExtension>
            <ns3:atemp>32.0</ns3:atemp>
            <ns3:hr>108</ns3:hr>
          </ns3:TrackPointExtension>
        </extensions>
      </trkpt>
      <trkpt lat="36.78060977719724178314208984375" lon="-118.5417711921036243438720703125">
        <ele>1844.4000244140625</ele>
        <time>2021-06-24T18:10:07.000Z</time>
        <extensions>
          <ns3:TrackPointExtension>
            <ns3:atemp>32.0</ns3:atemp>
            <ns3:hr>107</ns3:hr>
          </ns3:TrackPointExtension>
        </extensions>
      </trkpt>
      <trkpt lat="36.78059913218021392822265625" lon="-118.5417624749243259429931640625">
        <ele>1844.5999755859375</ele>
        <time>2021-06-24T18:10:08.000Z</time>
        <extensions>
          <ns3:TrackPointExtension>
            <ns3:atemp>32.0</ns3:atemp>
            <ns3:hr>107</ns3:hr>
          </ns3:TrackPointExtension>
        </extensions>
      </trkpt>
      <trkpt lat="36.780584715306758880615234375" lon="-118.541743196547031402587890625">
        <ele>1844.800048828125</ele>
        <time>2021-06-24T18:10:10.000Z</time>
        <extensions>
          <ns3:TrackPointExtension>
            <ns3:atemp>32.0</ns3:atemp>
            <ns3:hr>107</ns3:hr>
          </ns3:TrackPointExtension>
        </extensions>
      </trkpt>
      <trkpt lat="36.7805785126984119415283203125" lon="-118.5417309589684009552001953125">
        <ele>1845.199951171875</ele>
        <time>2021-06-24T18:10:13.000Z</time>
        <extensions>
          <ns3:TrackPointExtension>
            <ns3:atemp>32.0</ns3:atemp>
            <ns3:hr>105</ns3:hr>
          </ns3:TrackPointExtension>
        </extensions>
      </trkpt>
      <trkpt lat="36.7805795185267925262451171875" lon="-118.5417162068188190460205078125">
        <ele>1845.5999755859375</ele>
        <time>2021-06-24T18:10:15.000Z</time>
        <extensions>
          <ns3:TrackPointExtension>
            <ns3:atemp>32.0</ns3:atemp>
            <ns3:hr>103</ns3:hr>
          </ns3:TrackPointExtension>
        </extensions>
      </trkpt>
      <trkpt lat="36.78058295510709285736083984375" lon="-118.541702963411808013916015625">
        <ele>1845.800048828125</ele>
        <time>2021-06-24T18:10:17.000Z</time>
        <extensions>
          <ns3:TrackPointExtension>
            <ns3:atemp>32.0</ns3:atemp>
            <ns3:hr>102</ns3:hr>
          </ns3:TrackPointExtension>
        </extensions>
      </trkpt>
      <trkpt lat="36.78058412857353687286376953125" lon="-118.54168226011097431182861328125">
        <ele>1846</ele>
        <time>2021-06-24T18:10:19.000Z</time>
        <extensions>
          <ns3:TrackPointExtension>
            <ns3:atemp>31.0</ns3:atemp>
            <ns3:hr>101</ns3:hr>
          </ns3:TrackPointExtension>
        </extensions>
      </trkpt>
      <trkpt lat="36.78057809360325336456298828125" lon="-118.54167035780847072601318359375">
        <ele>1846.199951171875</ele>
        <time>2021-06-24T18:10:20.000Z</time>
        <extensions>
          <ns3:TrackPointExtension>
            <ns3:atemp>32.0</ns3:atemp>
            <ns3:hr>101</ns3:hr>
          </ns3:TrackPointExtension>
        </extensions>
      </trkpt>
      <trkpt lat="36.78056552074849605560302734375" lon="-118.54162643663585186004638671875">
        <ele>1846.4000244140625</ele>
        <time>2021-06-24T18:10:24.000Z</time>
        <extensions>
          <ns3:TrackPointExtension>
            <ns3:atemp>31.0</ns3:atemp>
            <ns3:hr>101</ns3:hr>
          </ns3:TrackPointExtension>
        </extensions>
      </trkpt>
      <trkpt lat="36.78055755794048309326171875" lon="-118.54161570779979228973388671875">
        <ele>1846.5999755859375</ele>
        <time>2021-06-24T18:10:25.000Z</time>
        <extensions>
          <ns3:TrackPointExtension>
            <ns3:atemp>31.0</ns3:atemp>
            <ns3:hr>102</ns3:hr>
          </ns3:TrackPointExtension>
        </extensions>
      </trkpt>
      <trkpt lat="36.78055278025567531585693359375" lon="-118.54160414077341556549072265625">
        <ele>1846.800048828125</ele>
        <time>2021-06-24T18:10:26.000Z</time>
        <extensions>
          <ns3:TrackPointExtension>
            <ns3:atemp>31.0</ns3:atemp>
            <ns3:hr>102</ns3:hr>
          </ns3:TrackPointExtension>
        </extensions>
      </trkpt>
      <trkpt lat="36.780528724193572998046875" lon="-118.54152585379779338836669921875">
        <ele>1847.4000244140625</ele>
        <time>2021-06-24T18:10:32.000Z</time>
        <extensions>
          <ns3:TrackPointExtension>
            <ns3:atemp>31.0</ns3:atemp>
            <ns3:hr>101</ns3:hr>
          </ns3:TrackPointExtension>
        </extensions>
      </trkpt>
      <trkpt lat="36.78052403032779693603515625" lon="-118.5415123589336872100830078125">
        <ele>1847.5999755859375</ele>
        <time>2021-06-24T18:10:33.000Z</time>
        <extensions>
          <ns3:TrackPointExtension>
            <ns3:atemp>31.0</ns3:atemp>
            <ns3:hr>103</ns3:hr>
          </ns3:TrackPointExtension>
        </extensions>
      </trkpt>
      <trkpt lat="36.78051673807203769683837890625" lon="-118.54149869643151760101318359375">
        <ele>1847.5999755859375</ele>
        <time>2021-06-24T18:10:34.000Z</time>
        <extensions>
          <ns3:TrackPointExtension>
            <ns3:atemp>31.0</ns3:atemp>
            <ns3:hr>99</ns3:hr>
          </ns3:TrackPointExtension>
        </extensions>
      </trkpt>
      <trkpt lat="36.78051196038722991943359375" lon="-118.54148863814771175384521484375">
        <ele>1847.5999755859375</ele>
        <time>2021-06-24T18:10:35.000Z</time>
        <extensions>
          <ns3:TrackPointExtension>
            <ns3:atemp>31.0</ns3:atemp>
            <ns3:hr>98</ns3:hr>
          </ns3:TrackPointExtension>
        </extensions>
      </trkpt>
      <trkpt lat="36.78049896843731403350830078125" lon="-118.54147857986390590667724609375">
        <ele>1848</ele>
        <time>2021-06-24T18:10:37.000Z</time>
        <extensions>
          <ns3:TrackPointExtension>
            <ns3:atemp>31.0</ns3:atemp>
            <ns3:hr>97</ns3:hr>
          </ns3:TrackPointExtension>
        </extensions>
      </trkpt>
      <trkpt lat="36.78048086352646350860595703125" lon="-118.54146030731499195098876953125">
        <ele>1848.199951171875</ele>
        <time>2021-06-24T18:10:39.000Z</time>
        <extensions>
          <ns3:TrackPointExtension>
            <ns3:atemp>31.0</ns3:atemp>
            <ns3:hr>96</ns3:hr>
          </ns3:TrackPointExtension>
        </extensions>
      </trkpt>
      <trkpt lat="36.78048488683998584747314453125" lon="-118.54144957847893238067626953125">
        <ele>1848.4000244140625</ele>
        <time>2021-06-24T18:10:40.000Z</time>
        <extensions>
          <ns3:TrackPointExtension>
            <ns3:atemp>31.0</ns3:atemp>
            <ns3:hr>94</ns3:hr>
          </ns3:TrackPointExtension>
        </extensions>
      </trkpt>
      <trkpt lat="36.780484132468700408935546875" lon="-118.54143599979579448699951171875">
        <ele>1848.4000244140625</ele>
        <time>2021-06-24T18:10:41.000Z</time>
        <extensions>
          <ns3:TrackPointExtension>
            <ns3:atemp>31.0</ns3:atemp>
            <ns3:hr>97</ns3:hr>
          </ns3:TrackPointExtension>
        </extensions>
      </trkpt>
      <trkpt lat="36.780488826334476470947265625" lon="-118.54142946191132068634033203125">
        <ele>1848.4000244140625</ele>
        <time>2021-06-24T18:10:42.000Z</time>
        <extensions>
          <ns3:TrackPointExtension>
            <ns3:atemp>31.0</ns3:atemp>
            <ns3:hr>97</ns3:hr>
          </ns3:TrackPointExtension>
        </extensions>
      </trkpt>
      <trkpt lat="36.78048111498355865478515625" lon="-118.54142510332167148590087890625">
        <ele>1848.5999755859375</ele>
        <time>2021-06-24T18:10:43.000Z</time>
        <extensions>
          <ns3:TrackPointExtension>
            <ns3:atemp>31.0</ns3:atemp>
            <ns3:hr>98</ns3:hr>
          </ns3:TrackPointExtension>
        </extensions>
      </trkpt>
      <trkpt lat="36.780458651483058929443359375" lon="-118.54138906113803386688232421875">
        <ele>1848.800048828125</ele>
        <time>2021-06-24T18:10:46.000Z</time>
        <extensions>
          <ns3:TrackPointExtension>
            <ns3:atemp>31.0</ns3:atemp>
            <ns3:hr>101</ns3:hr>
          </ns3:TrackPointExtension>
        </extensions>
      </trkpt>
      <trkpt lat="36.78044901229441165924072265625" lon="-118.5413740575313568115234375">
        <ele>1849</ele>
        <time>2021-06-24T18:10:47.000Z</time>
        <extensions>
          <ns3:TrackPointExtension>
            <ns3:atemp>31.0</ns3:atemp>
            <ns3:hr>101</ns3:hr>
          </ns3:TrackPointExtension>
        </extensions>
      </trkpt>
      <trkpt lat="36.78043761290609836578369140625" lon="-118.54136995039880275726318359375">
        <ele>1849.199951171875</ele>
        <time>2021-06-24T18:10:48.000Z</time>
        <extensions>
          <ns3:TrackPointExtension>
            <ns3:atemp>31.0</ns3:atemp>
            <ns3:hr>100</ns3:hr>
          </ns3:TrackPointExtension>
        </extensions>
      </trkpt>
      <trkpt lat="36.78040492348372936248779296875" lon="-118.54133960790932178497314453125">
        <ele>1849.4000244140625</ele>
        <time>2021-06-24T18:10:50.000Z</time>
        <extensions>
          <ns3:TrackPointExtension>
            <ns3:atemp>31.0</ns3:atemp>
            <ns3:hr>99</ns3:hr>
          </ns3:TrackPointExtension>
        </extensions>
      </trkpt>
      <trkpt lat="36.78040509112179279327392578125" lon="-118.54131815023720264434814453125">
        <ele>1849.5999755859375</ele>
        <time>2021-06-24T18:10:52.000Z</time>
        <extensions>
          <ns3:TrackPointExtension>
            <ns3:atemp>31.0</ns3:atemp>
            <ns3:hr>99</ns3:hr>
          </ns3:TrackPointExtension>
        </extensions>
      </trkpt>
      <trkpt lat="36.7803977988660335540771484375" lon="-118.5413108579814434051513671875">
        <ele>1849.5999755859375</ele>
        <time>2021-06-24T18:10:54.000Z</time>
        <extensions>
          <ns3:TrackPointExtension>
            <ns3:atemp>31.0</ns3:atemp>
            <ns3:hr>99</ns3:hr>
          </ns3:TrackPointExtension>
        </extensions>
      </trkpt>
      <trkpt lat="36.78038782440125942230224609375" lon="-118.54130088351666927337646484375">
        <ele>1850</ele>
        <time>2021-06-24T18:10:56.000Z</time>
        <extensions>
          <ns3:TrackPointExtension>
            <ns3:atemp>31.0</ns3:atemp>
            <ns3:hr>98</ns3:hr>
          </ns3:TrackPointExtension>
        </extensions>
      </trkpt>
      <trkpt lat="36.78038849495351314544677734375" lon="-118.54129250161349773406982421875">
        <ele>1850.199951171875</ele>
        <time>2021-06-24T18:10:57.000Z</time>
        <extensions>
          <ns3:TrackPointExtension>
            <ns3:atemp>31.0</ns3:atemp>
            <ns3:hr>97</ns3:hr>
          </ns3:TrackPointExtension>
        </extensions>
      </trkpt>
      <trkpt lat="36.78038698621094226837158203125" lon="-118.5412748157978057861328125">
        <ele>1850.4000244140625</ele>
        <time>2021-06-24T18:10:59.000Z</time>
        <extensions>
          <ns3:TrackPointExtension>
            <ns3:atemp>31.0</ns3:atemp>
            <ns3:hr>99</ns3:hr>
          </ns3:TrackPointExtension>
        </extensions>
      </trkpt>
      <trkpt lat="36.78036469034850597381591796875" lon="-118.54124858044087886810302734375">
        <ele>1850.5999755859375</ele>
        <time>2021-06-24T18:11:02.000Z</time>
        <extensions>
          <ns3:TrackPointExtension>
            <ns3:atemp>31.0</ns3:atemp>
            <ns3:hr>100</ns3:hr>
          </ns3:TrackPointExtension>
        </extensions>
      </trkpt>
      <trkpt lat="36.78034893237054347991943359375" lon="-118.54122242890298366546630859375">
        <ele>1850.800048828125</ele>
        <time>2021-06-24T18:11:04.000Z</time>
        <extensions>
          <ns3:TrackPointExtension>
            <ns3:atemp>31.0</ns3:atemp>
            <ns3:hr>100</ns3:hr>
          </ns3:TrackPointExtension>
        </extensions>
      </trkpt>
      <trkpt lat="36.7803488485515117645263671875" lon="-118.54120348580181598663330078125">
        <ele>1851.4000244140625</ele>
        <time>2021-06-24T18:11:07.000Z</time>
        <extensions>
          <ns3:TrackPointExtension>
            <ns3:atemp>31.0</ns3:atemp>
            <ns3:hr>99</ns3:hr>
          </ns3:TrackPointExtension>
        </extensions>
      </trkpt>
      <trkpt lat="36.78035111166536808013916015625" lon="-118.54119644500315189361572265625">
        <ele>1851.5999755859375</ele>
        <time>2021-06-24T18:11:08.000Z</time>
        <extensions>
          <ns3:TrackPointExtension>
            <ns3:atemp>31.0</ns3:atemp>
            <ns3:hr>100</ns3:hr>
          </ns3:TrackPointExtension>
        </extensions>
      </trkpt>
      <trkpt lat="36.780352033674716949462890625" lon="-118.5411407053470611572265625">
        <ele>1852.4000244140625</ele>
        <time>2021-06-24T18:11:14.000Z</time>
        <extensions>
          <ns3:TrackPointExtension>
            <ns3:atemp>31.0</ns3:atemp>
            <ns3:hr>102</ns3:hr>
          </ns3:TrackPointExtension>
        </extensions>
      </trkpt>
      <trkpt lat="36.78035547025501728057861328125" lon="-118.5411328263580799102783203125">
        <ele>1852.5999755859375</ele>
        <time>2021-06-24T18:11:15.000Z</time>
        <extensions>
          <ns3:TrackPointExtension>
            <ns3:atemp>31.0</ns3:atemp>
            <ns3:hr>99</ns3:hr>
          </ns3:TrackPointExtension>
        </extensions>
      </trkpt>
      <trkpt lat="36.78036175668239593505859375" lon="-118.54111748747527599334716796875">
        <ele>1852.5999755859375</ele>
        <time>2021-06-24T18:11:17.000Z</time>
        <extensions>
          <ns3:TrackPointExtension>
            <ns3:atemp>31.0</ns3:atemp>
            <ns3:hr>102</ns3:hr>
          </ns3:TrackPointExtension>
        </extensions>
      </trkpt>
      <trkpt lat="36.78037106059491634368896484375" lon="-118.54108907282352447509765625">
        <ele>1853</ele>
        <time>2021-06-24T18:11:21.000Z</time>
        <extensions>
          <ns3:TrackPointExtension>
            <ns3:atemp>31.0</ns3:atemp>
            <ns3:hr>102</ns3:hr>
          </ns3:TrackPointExtension>
        </extensions>
      </trkpt>
      <trkpt lat="36.78037709556519985198974609375" lon="-118.54109175503253936767578125">
        <ele>1853</ele>
        <time>2021-06-24T18:11:22.000Z</time>
        <extensions>
          <ns3:TrackPointExtension>
            <ns3:atemp>31.0</ns3:atemp>
            <ns3:hr>102</ns3:hr>
          </ns3:TrackPointExtension>
        </extensions>
      </trkpt>
      <trkpt lat="36.7803798615932464599609375" lon="-118.5410956107079982757568359375">
        <ele>1853</ele>
        <time>2021-06-24T18:11:23.000Z</time>
        <extensions>
          <ns3:TrackPointExtension>
            <ns3:atemp>31.0</ns3:atemp>
            <ns3:hr>102</ns3:hr>
          </ns3:TrackPointExtension>
        </extensions>
      </trkpt>
      <trkpt lat="36.78038966841995716094970703125" lon="-118.54110977612435817718505859375">
        <ele>1853.800048828125</ele>
        <time>2021-06-24T18:11:25.000Z</time>
        <extensions>
          <ns3:TrackPointExtension>
            <ns3:atemp>31.0</ns3:atemp>
            <ns3:hr>103</ns3:hr>
          </ns3:TrackPointExtension>
        </extensions>
      </trkpt>
      <trkpt lat="36.780382208526134490966796875" lon="-118.54112486355006694793701171875">
        <ele>1854</ele>
        <time>2021-06-24T18:11:27.000Z</time>
        <extensions>
          <ns3:TrackPointExtension>
            <ns3:atemp>31.0</ns3:atemp>
            <ns3:hr>104</ns3:hr>
          </ns3:TrackPointExtension>
        </extensions>
      </trkpt>
      <trkpt lat="36.7803770117461681365966796875" lon="-118.5411299765110015869140625">
        <ele>1854.199951171875</ele>
        <time>2021-06-24T18:11:28.000Z</time>
        <extensions>
          <ns3:TrackPointExtension>
            <ns3:atemp>31.0</ns3:atemp>
            <ns3:hr>104</ns3:hr>
          </ns3:TrackPointExtension>
        </extensions>
      </trkpt>
      <trkpt lat="36.78037525154650211334228515625" lon="-118.541152440011501312255859375">
        <ele>1854.4000244140625</ele>
        <time>2021-06-24T18:11:30.000Z</time>
        <extensions>
          <ns3:TrackPointExtension>
            <ns3:atemp>31.0</ns3:atemp>
            <ns3:hr>107</ns3:hr>
          </ns3:TrackPointExtension>
        </extensions>
      </trkpt>
      <trkpt lat="36.78037994541227817535400390625" lon="-118.54117448441684246063232421875">
        <ele>1854.5999755859375</ele>
        <time>2021-06-24T18:11:31.000Z</time>
        <extensions>
          <ns3:TrackPointExtension>
            <ns3:atemp>31.0</ns3:atemp>
            <ns3:hr>108</ns3:hr>
          </ns3:TrackPointExtension>
        </extensions>
      </trkpt>
      <trkpt lat="36.7803823761641979217529296875" lon="-118.5411992110311985015869140625">
        <ele>1854.5999755859375</ele>
        <time>2021-06-24T18:11:33.000Z</time>
        <extensions>
          <ns3:TrackPointExtension>
            <ns3:atemp>31.0</ns3:atemp>
            <ns3:hr>109</ns3:hr>
          </ns3:TrackPointExtension>
        </extensions>
      </trkpt>
      <trkpt lat="36.78039033897221088409423828125" lon="-118.5412112809717655181884765625">
        <ele>1854.800048828125</ele>
        <time>2021-06-24T18:11:34.000Z</time>
        <extensions>
          <ns3:TrackPointExtension>
            <ns3:atemp>31.0</ns3:atemp>
            <ns3:hr>109</ns3:hr>
          </ns3:TrackPointExtension>
        </extensions>
      </trkpt>
      <trkpt lat="36.78040198981761932373046875" lon="-118.541219495236873626708984375">
        <ele>1855</ele>
        <time>2021-06-24T18:11:35.000Z</time>
        <extensions>
          <ns3:TrackPointExtension>
            <ns3:atemp>31.0</ns3:atemp>
            <ns3:hr>104</ns3:hr>
          </ns3:TrackPointExtension>
        </extensions>
      </trkpt>
      <trkpt lat="36.7804133892059326171875" lon="-118.54122544638812541961669921875">
        <ele>1855.4000244140625</ele>
        <time>2021-06-24T18:11:36.000Z</time>
        <extensions>
          <ns3:TrackPointExtension>
            <ns3:atemp>31.0</ns3:atemp>
            <ns3:hr>104</ns3:hr>
          </ns3:TrackPointExtension>
        </extensions>
      </trkpt>
      <trkpt lat="36.78042478859424591064453125" lon="-118.54122628457844257354736328125">
        <ele>1855.4000244140625</ele>
        <time>2021-06-24T18:11:37.000Z</time>
        <extensions>
          <ns3:TrackPointExtension>
            <ns3:atemp>31.0</ns3:atemp>
            <ns3:hr>104</ns3:hr>
          </ns3:TrackPointExtension>
        </extensions>
      </trkpt>
      <trkpt lat="36.78044565953314304351806640625" lon="-118.541245646774768829345703125">
        <ele>1855.5999755859375</ele>
        <time>2021-06-24T18:11:39.000Z</time>
        <extensions>
          <ns3:TrackPointExtension>
            <ns3:atemp>31.0</ns3:atemp>
            <ns3:hr>104</ns3:hr>
          </ns3:TrackPointExtension>
        </extensions>
      </trkpt>
      <trkpt lat="36.78045571781694889068603515625" lon="-118.54126500897109508514404296875">
        <ele>1856.199951171875</ele>
        <time>2021-06-24T18:11:41.000Z</time>
        <extensions>
          <ns3:TrackPointExtension>
            <ns3:atemp>31.0</ns3:atemp>
            <ns3:hr>103</ns3:hr>
          </ns3:TrackPointExtension>
        </extensions>
      </trkpt>
      <trkpt lat="36.78046829067170619964599609375" lon="-118.54128831066191196441650390625">
        <ele>1856.4000244140625</ele>
        <time>2021-06-24T18:11:43.000Z</time>
        <extensions>
          <ns3:TrackPointExtension>
            <ns3:atemp>31.0</ns3:atemp>
            <ns3:hr>103</ns3:hr>
          </ns3:TrackPointExtension>
        </extensions>
      </trkpt>
      <trkpt lat="36.78047969006001949310302734375" lon="-118.5412914119660854339599609375">
        <ele>1856.5999755859375</ele>
        <time>2021-06-24T18:11:45.000Z</time>
        <extensions>
          <ns3:TrackPointExtension>
            <ns3:atemp>31.0</ns3:atemp>
            <ns3:hr>102</ns3:hr>
          </ns3:TrackPointExtension>
        </extensions>
      </trkpt>
      <trkpt lat="36.78048287518322467803955078125" lon="-118.54131630621850490570068359375">
        <ele>1856.800048828125</ele>
        <time>2021-06-24T18:11:48.000Z</time>
        <extensions>
          <ns3:TrackPointExtension>
            <ns3:atemp>31.0</ns3:atemp>
            <ns3:hr>102</ns3:hr>
          </ns3:TrackPointExtension>
        </extensions>
      </trkpt>
      <trkpt lat="36.78048673085868358612060546875" lon="-118.5413292981684207916259765625">
        <ele>1857</ele>
        <time>2021-06-24T18:11:49.000Z</time>
        <extensions>
          <ns3:TrackPointExtension>
            <ns3:atemp>31.0</ns3:atemp>
            <ns3:hr>103</ns3:hr>
          </ns3:TrackPointExtension>
        </extensions>
      </trkpt>
      <trkpt lat="36.780495531857013702392578125" lon="-118.541340529918670654296875">
        <ele>1857.199951171875</ele>
        <time>2021-06-24T18:11:50.000Z</time>
        <extensions>
          <ns3:TrackPointExtension>
            <ns3:atemp>31.0</ns3:atemp>
            <ns3:hr>102</ns3:hr>
          </ns3:TrackPointExtension>
        </extensions>
      </trkpt>
      <trkpt lat="36.78052931092679500579833984375" lon="-118.54136710055172443389892578125">
        <ele>1857.5999755859375</ele>
        <time>2021-06-24T18:11:54.000Z</time>
        <extensions>
          <ns3:TrackPointExtension>
            <ns3:atemp>31.0</ns3:atemp>
            <ns3:hr>104</ns3:hr>
          </ns3:TrackPointExtension>
        </extensions>
      </trkpt>
      <trkpt lat="36.7805402912199497222900390625" lon="-118.5413883067667484283447265625">
        <ele>1858</ele>
        <time>2021-06-24T18:11:56.000Z</time>
        <extensions>
          <ns3:TrackPointExtension>
            <ns3:atemp>31.0</ns3:atemp>
            <ns3:hr>102</ns3:hr>
          </ns3:TrackPointExtension>
        </extensions>
      </trkpt>
      <trkpt lat="36.780548505485057830810546875" lon="-118.5413847863674163818359375">
        <ele>1858</ele>
        <time>2021-06-24T18:11:57.000Z</time>
        <extensions>
          <ns3:TrackPointExtension>
            <ns3:atemp>31.0</ns3:atemp>
            <ns3:hr>101</ns3:hr>
          </ns3:TrackPointExtension>
        </extensions>
      </trkpt>
      <trkpt lat="36.78057071752846240997314453125" lon="-118.5413691960275173187255859375">
        <ele>1858.4000244140625</ele>
        <time>2021-06-24T18:12:00.000Z</time>
        <extensions>
          <ns3:TrackPointExtension>
            <ns3:atemp>31.0</ns3:atemp>
            <ns3:hr>102</ns3:hr>
          </ns3:TrackPointExtension>
        </extensions>
      </trkpt>
      <trkpt lat="36.78059720434248447418212890625" lon="-118.541336171329021453857421875">
        <ele>1858.5999755859375</ele>
        <time>2021-06-24T18:12:02.000Z</time>
        <extensions>
          <ns3:TrackPointExtension>
            <ns3:atemp>31.0</ns3:atemp>
            <ns3:hr>99</ns3:hr>
          </ns3:TrackPointExtension>
        </extensions>
      </trkpt>
      <trkpt lat="36.78059737198054790496826171875" lon="-118.541310019791126251220703125">
        <ele>1859.199951171875</ele>
        <time>2021-06-24T18:12:05.000Z</time>
        <extensions>
          <ns3:TrackPointExtension>
            <ns3:atemp>31.0</ns3:atemp>
            <ns3:hr>101</ns3:hr>
          </ns3:TrackPointExtension>
        </extensions>
      </trkpt>
      <trkpt lat="36.7806019820272922515869140625" lon="-118.54130021296441555023193359375">
        <ele>1859.199951171875</ele>
        <time>2021-06-24T18:12:06.000Z</time>
        <extensions>
          <ns3:TrackPointExtension>
            <ns3:atemp>31.0</ns3:atemp>
            <ns3:hr>101</ns3:hr>
          </ns3:TrackPointExtension>
        </extensions>
      </trkpt>
      <trkpt lat="36.780601479113101959228515625" lon="-118.5412944294512271881103515625">
        <ele>1859.4000244140625</ele>
        <time>2021-06-24T18:12:07.000Z</time>
        <extensions>
          <ns3:TrackPointExtension>
            <ns3:atemp>31.0</ns3:atemp>
            <ns3:hr>100</ns3:hr>
          </ns3:TrackPointExtension>
        </extensions>
      </trkpt>
      <trkpt lat="36.78060290403664112091064453125" lon="-118.54128353297710418701171875">
        <ele>1859.4000244140625</ele>
        <time>2021-06-24T18:12:08.000Z</time>
        <extensions>
          <ns3:TrackPointExtension>
            <ns3:atemp>31.0</ns3:atemp>
            <ns3:hr>103</ns3:hr>
          </ns3:TrackPointExtension>
        </extensions>
      </trkpt>
      <trkpt lat="36.78059150464832782745361328125" lon="-118.5412629134953022003173828125">
        <ele>1859.5999755859375</ele>
        <time>2021-06-24T18:12:10.000Z</time>
        <extensions>
          <ns3:TrackPointExtension>
            <ns3:atemp>31.0</ns3:atemp>
            <ns3:hr>107</ns3:hr>
          </ns3:TrackPointExtension>
        </extensions>
      </trkpt>
      <trkpt lat="36.780592761933803558349609375" lon="-118.54125059209764003753662109375">
        <ele>1859.5999755859375</ele>
        <time>2021-06-24T18:12:12.000Z</time>
        <extensions>
          <ns3:TrackPointExtension>
            <ns3:atemp>31.0</ns3:atemp>
            <ns3:hr>107</ns3:hr>
          </ns3:TrackPointExtension>
        </extensions>
      </trkpt>
      <trkpt lat="36.7805944383144378662109375" lon="-118.541222512722015380859375">
        <ele>1859.800048828125</ele>
        <time>2021-06-24T18:12:14.000Z</time>
        <extensions>
          <ns3:TrackPointExtension>
            <ns3:atemp>31.0</ns3:atemp>
            <ns3:hr>109</ns3:hr>
          </ns3:TrackPointExtension>
        </extensions>
      </trkpt>
      <trkpt lat="36.78060592152178287506103515625" lon="-118.5411891527473926544189453125">
        <ele>1860.199951171875</ele>
        <time>2021-06-24T18:12:16.000Z</time>
        <extensions>
          <ns3:TrackPointExtension>
            <ns3:atemp>31.0</ns3:atemp>
            <ns3:hr>110</ns3:hr>
          </ns3:TrackPointExtension>
        </extensions>
      </trkpt>
      <trkpt lat="36.78061522543430328369140625" lon="-118.54118303395807743072509765625">
        <ele>1860.4000244140625</ele>
        <time>2021-06-24T18:12:17.000Z</time>
        <extensions>
          <ns3:TrackPointExtension>
            <ns3:atemp>31.0</ns3:atemp>
            <ns3:hr>110</ns3:hr>
          </ns3:TrackPointExtension>
        </extensions>
      </trkpt>
      <trkpt lat="36.7806096933782100677490234375" lon="-118.54115688242018222808837890625">
        <ele>1861</ele>
        <time>2021-06-24T18:12:20.000Z</time>
        <extensions>
          <ns3:TrackPointExtension>
            <ns3:atemp>31.0</ns3:atemp>
            <ns3:hr>109</ns3:hr>
          </ns3:TrackPointExtension>
        </extensions>
      </trkpt>
      <trkpt lat="36.78059217520058155059814453125" lon="-118.54114548303186893463134765625">
        <ele>1861.199951171875</ele>
        <time>2021-06-24T18:12:22.000Z</time>
        <extensions>
          <ns3:TrackPointExtension>
            <ns3:atemp>31.0</ns3:atemp>
            <ns3:hr>110</ns3:hr>
          </ns3:TrackPointExtension>
        </extensions>
      </trkpt>
      <trkpt lat="36.78058496676385402679443359375" lon="-118.54112972505390644073486328125">
        <ele>1861.4000244140625</ele>
        <time>2021-06-24T18:12:24.000Z</time>
        <extensions>
          <ns3:TrackPointExtension>
            <ns3:atemp>31.0</ns3:atemp>
            <ns3:hr>110</ns3:hr>
          </ns3:TrackPointExtension>
        </extensions>
      </trkpt>
      <trkpt lat="36.78057759068906307220458984375" lon="-118.54108362458646297454833984375">
        <ele>1861.800048828125</ele>
        <time>2021-06-24T18:12:27.000Z</time>
        <extensions>
          <ns3:TrackPointExtension>
            <ns3:atemp>31.0</ns3:atemp>
            <ns3:hr>110</ns3:hr>
          </ns3:TrackPointExtension>
        </extensions>
      </trkpt>
      <trkpt lat="36.780559904873371124267578125" lon="-118.5410305671393871307373046875">
        <ele>1862.199951171875</ele>
        <time>2021-06-24T18:12:32.000Z</time>
        <extensions>
          <ns3:TrackPointExtension>
            <ns3:atemp>31.0</ns3:atemp>
            <ns3:hr>111</ns3:hr>
          </ns3:TrackPointExtension>
        </extensions>
      </trkpt>
      <trkpt lat="36.7805480025708675384521484375" lon="-118.54099678806960582733154296875">
        <ele>1862.800048828125</ele>
        <time>2021-06-24T18:12:34.000Z</time>
        <extensions>
          <ns3:TrackPointExtension>
            <ns3:atemp>31.0</ns3:atemp>
            <ns3:hr>111</ns3:hr>
          </ns3:TrackPointExtension>
        </extensions>
      </trkpt>
      <trkpt lat="36.7805446498095989227294921875" lon="-118.54098589159548282623291015625">
        <ele>1862.800048828125</ele>
        <time>2021-06-24T18:12:35.000Z</time>
        <extensions>
          <ns3:TrackPointExtension>
            <ns3:atemp>31.0</ns3:atemp>
            <ns3:hr>111</ns3:hr>
          </ns3:TrackPointExtension>
        </extensions>
      </trkpt>
      <trkpt lat="36.78053610026836395263671875" lon="-118.54097264818847179412841796875">
        <ele>1863</ele>
        <time>2021-06-24T18:12:38.000Z</time>
        <extensions>
          <ns3:TrackPointExtension>
            <ns3:atemp>31.0</ns3:atemp>
            <ns3:hr>113</ns3:hr>
          </ns3:TrackPointExtension>
        </extensions>
      </trkpt>
      <trkpt lat="36.78052662871778011322021484375" lon="-118.5409236140549182891845703125">
        <ele>1864</ele>
        <time>2021-06-24T18:12:43.000Z</time>
        <extensions>
          <ns3:TrackPointExtension>
            <ns3:atemp>31.0</ns3:atemp>
            <ns3:hr>113</ns3:hr>
          </ns3:TrackPointExtension>
        </extensions>
      </trkpt>
      <trkpt lat="36.7805386148393154144287109375" lon="-118.5409249551594257354736328125">
        <ele>1864.199951171875</ele>
        <time>2021-06-24T18:12:46.000Z</time>
        <extensions>
          <ns3:TrackPointExtension>
            <ns3:atemp>31.0</ns3:atemp>
            <ns3:hr>114</ns3:hr>
          </ns3:TrackPointExtension>
        </extensions>
      </trkpt>
      <trkpt lat="36.78052076138556003570556640625" lon="-118.54090928100049495697021484375">
        <ele>1864.5999755859375</ele>
        <time>2021-06-24T18:12:48.000Z</time>
        <extensions>
          <ns3:TrackPointExtension>
            <ns3:atemp>31.0</ns3:atemp>
            <ns3:hr>113</ns3:hr>
          </ns3:TrackPointExtension>
        </extensions>
      </trkpt>
      <trkpt lat="36.78051866590976715087890625" lon="-118.54089620523154735565185546875">
        <ele>1864.5999755859375</ele>
        <time>2021-06-24T18:12:49.000Z</time>
        <extensions>
          <ns3:TrackPointExtension>
            <ns3:atemp>31.0</ns3:atemp>
            <ns3:hr>114</ns3:hr>
          </ns3:TrackPointExtension>
        </extensions>
      </trkpt>
      <trkpt lat="36.78051405586302280426025390625" lon="-118.5408716462552547454833984375">
        <ele>1865</ele>
        <time>2021-06-24T18:12:52.000Z</time>
        <extensions>
          <ns3:TrackPointExtension>
            <ns3:atemp>31.0</ns3:atemp>
            <ns3:hr>114</ns3:hr>
          </ns3:TrackPointExtension>
        </extensions>
      </trkpt>
      <trkpt lat="36.78050785325467586517333984375" lon="-118.54086250998079776763916015625">
        <ele>1865.4000244140625</ele>
        <time>2021-06-24T18:12:53.000Z</time>
        <extensions>
          <ns3:TrackPointExtension>
            <ns3:atemp>31.0</ns3:atemp>
            <ns3:hr>114</ns3:hr>
          </ns3:TrackPointExtension>
        </extensions>
      </trkpt>
      <trkpt lat="36.780517995357513427734375" lon="-118.540823198854923248291015625">
        <ele>1865.800048828125</ele>
        <time>2021-06-24T18:12:56.000Z</time>
        <extensions>
          <ns3:TrackPointExtension>
            <ns3:atemp>31.0</ns3:atemp>
            <ns3:hr>114</ns3:hr>
          </ns3:TrackPointExtension>
        </extensions>
      </trkpt>
      <trkpt lat="36.78052562288939952850341796875" lon="-118.5408277250826358795166015625">
        <ele>1866.199951171875</ele>
        <time>2021-06-24T18:12:58.000Z</time>
        <extensions>
          <ns3:TrackPointExtension>
            <ns3:atemp>31.0</ns3:atemp>
            <ns3:hr>114</ns3:hr>
          </ns3:TrackPointExtension>
        </extensions>
      </trkpt>
      <trkpt lat="36.78053568117320537567138671875" lon="-118.5408270545303821563720703125">
        <ele>1866.199951171875</ele>
        <time>2021-06-24T18:12:59.000Z</time>
        <extensions>
          <ns3:TrackPointExtension>
            <ns3:atemp>31.0</ns3:atemp>
            <ns3:hr>115</ns3:hr>
          </ns3:TrackPointExtension>
        </extensions>
      </trkpt>
      <trkpt lat="36.78055889904499053955078125" lon="-118.54080953635275363922119140625">
        <ele>1866.800048828125</ele>
        <time>2021-06-24T18:13:02.000Z</time>
        <extensions>
          <ns3:TrackPointExtension>
            <ns3:atemp>31.0</ns3:atemp>
            <ns3:hr>114</ns3:hr>
          </ns3:TrackPointExtension>
        </extensions>
      </trkpt>
      <trkpt lat="36.7805667780339717864990234375" lon="-118.54078807868063449859619140625">
        <ele>1867.4000244140625</ele>
        <time>2021-06-24T18:13:04.000Z</time>
        <extensions>
          <ns3:TrackPointExtension>
            <ns3:atemp>31.0</ns3:atemp>
            <ns3:hr>115</ns3:hr>
          </ns3:TrackPointExtension>
        </extensions>
      </trkpt>
      <trkpt lat="36.78056937642395496368408203125" lon="-118.54072538204491138458251953125">
        <ele>1868.199951171875</ele>
        <time>2021-06-24T18:13:09.000Z</time>
        <extensions>
          <ns3:TrackPointExtension>
            <ns3:atemp>31.0</ns3:atemp>
            <ns3:hr>112</ns3:hr>
          </ns3:TrackPointExtension>
        </extensions>
      </trkpt>
      <trkpt lat="36.7805490083992481231689453125" lon="-118.54070828296244144439697265625">
        <ele>1868.5999755859375</ele>
        <time>2021-06-24T18:13:12.000Z</time>
        <extensions>
          <ns3:TrackPointExtension>
            <ns3:atemp>31.0</ns3:atemp>
            <ns3:hr>110</ns3:hr>
          </ns3:TrackPointExtension>
        </extensions>
      </trkpt>
      <trkpt lat="36.7805443145334720611572265625" lon="-118.54070409201085567474365234375">
        <ele>1868.5999755859375</ele>
        <time>2021-06-24T18:13:13.000Z</time>
        <extensions>
          <ns3:TrackPointExtension>
            <ns3:atemp>31.0</ns3:atemp>
            <ns3:hr>111</ns3:hr>
          </ns3:TrackPointExtension>
        </extensions>
      </trkpt>
      <trkpt lat="36.7805258743464946746826171875" lon="-118.5406597517430782318115234375">
        <ele>1869.4000244140625</ele>
        <time>2021-06-24T18:13:18.000Z</time>
        <extensions>
          <ns3:TrackPointExtension>
            <ns3:atemp>31.0</ns3:atemp>
            <ns3:hr>111</ns3:hr>
          </ns3:TrackPointExtension>
        </extensions>
      </trkpt>
      <trkpt lat="36.78052193485200405120849609375" lon="-118.54065396822988986968994140625">
        <ele>1869.5999755859375</ele>
        <time>2021-06-24T18:13:19.000Z</time>
        <extensions>
          <ns3:TrackPointExtension>
            <ns3:atemp>31.0</ns3:atemp>
            <ns3:hr>111</ns3:hr>
          </ns3:TrackPointExtension>
        </extensions>
      </trkpt>
      <trkpt lat="36.780527047812938690185546875" lon="-118.54062639176845550537109375">
        <ele>1869.5999755859375</ele>
        <time>2021-06-24T18:13:21.000Z</time>
        <extensions>
          <ns3:TrackPointExtension>
            <ns3:atemp>31.0</ns3:atemp>
            <ns3:hr>110</ns3:hr>
          </ns3:TrackPointExtension>
        </extensions>
      </trkpt>
      <trkpt lat="36.780511625111103057861328125" lon="-118.54061021469533443450927734375">
        <ele>1870.4000244140625</ele>
        <time>2021-06-24T18:13:25.000Z</time>
        <extensions>
          <ns3:TrackPointExtension>
            <ns3:atemp>31.0</ns3:atemp>
            <ns3:hr>109</ns3:hr>
          </ns3:TrackPointExtension>
        </extensions>
      </trkpt>
      <trkpt lat="36.78050667978823184967041015625" lon="-118.540601916611194610595703125">
        <ele>1870.800048828125</ele>
        <time>2021-06-24T18:13:27.000Z</time>
        <extensions>
          <ns3:TrackPointExtension>
            <ns3:atemp>31.0</ns3:atemp>
            <ns3:hr>108</ns3:hr>
          </ns3:TrackPointExtension>
        </extensions>
      </trkpt>
      <trkpt lat="36.7805252037942409515380859375" lon="-118.54057400487363338470458984375">
        <ele>1871.199951171875</ele>
        <time>2021-06-24T18:13:31.000Z</time>
        <extensions>
          <ns3:TrackPointExtension>
            <ns3:atemp>31.0</ns3:atemp>
            <ns3:hr>111</ns3:hr>
          </ns3:TrackPointExtension>
        </extensions>
      </trkpt>
      <trkpt lat="36.7805402912199497222900390625" lon="-118.54053762741386890411376953125">
        <ele>1871.5999755859375</ele>
        <time>2021-06-24T18:13:35.000Z</time>
        <extensions>
          <ns3:TrackPointExtension>
            <ns3:atemp>31.0</ns3:atemp>
            <ns3:hr>114</ns3:hr>
          </ns3:TrackPointExtension>
        </extensions>
      </trkpt>
      <trkpt lat="36.78053677082061767578125" lon="-118.5405232943594455718994140625">
        <ele>1871.5999755859375</ele>
        <time>2021-06-24T18:13:37.000Z</time>
        <extensions>
          <ns3:TrackPointExtension>
            <ns3:atemp>31.0</ns3:atemp>
            <ns3:hr>117</ns3:hr>
          </ns3:TrackPointExtension>
        </extensions>
      </trkpt>
      <trkpt lat="36.78053970448672771453857421875" lon="-118.5405132360756397247314453125">
        <ele>1871.800048828125</ele>
        <time>2021-06-24T18:13:38.000Z</time>
        <extensions>
          <ns3:TrackPointExtension>
            <ns3:atemp>31.0</ns3:atemp>
            <ns3:hr>119</ns3:hr>
          </ns3:TrackPointExtension>
        </extensions>
      </trkpt>
      <trkpt lat="36.7805382795631885528564453125" lon="-118.54047912172973155975341796875">
        <ele>1872.4000244140625</ele>
        <time>2021-06-24T18:13:41.000Z</time>
        <extensions>
          <ns3:TrackPointExtension>
            <ns3:atemp>31.0</ns3:atemp>
            <ns3:hr>122</ns3:hr>
          </ns3:TrackPointExtension>
        </extensions>
      </trkpt>
      <trkpt lat="36.78054624237120151519775390625" lon="-118.54047006927430629730224609375">
        <ele>1872.800048828125</ele>
        <time>2021-06-24T18:13:42.000Z</time>
        <extensions>
          <ns3:TrackPointExtension>
            <ns3:atemp>31.0</ns3:atemp>
            <ns3:hr>122</ns3:hr>
          </ns3:TrackPointExtension>
        </extensions>
      </trkpt>
      <trkpt lat="36.78055630065500736236572265625" lon="-118.5404377989470958709716796875">
        <ele>1872.800048828125</ele>
        <time>2021-06-24T18:13:44.000Z</time>
        <extensions>
          <ns3:TrackPointExtension>
            <ns3:atemp>31.0</ns3:atemp>
            <ns3:hr>125</ns3:hr>
          </ns3:TrackPointExtension>
        </extensions>
      </trkpt>
      <trkpt lat="36.78055345080792903900146484375" lon="-118.54042262770235538482666015625">
        <ele>1872.800048828125</ele>
        <time>2021-06-24T18:13:45.000Z</time>
        <extensions>
          <ns3:TrackPointExtension>
            <ns3:atemp>31.0</ns3:atemp>
            <ns3:hr>126</ns3:hr>
          </ns3:TrackPointExtension>
        </extensions>
      </trkpt>
      <trkpt lat="36.78055512718856334686279296875" lon="-118.540399409830570220947265625">
        <ele>1873</ele>
        <time>2021-06-24T18:13:47.000Z</time>
        <extensions>
          <ns3:TrackPointExtension>
            <ns3:atemp>31.0</ns3:atemp>
            <ns3:hr>126</ns3:hr>
          </ns3:TrackPointExtension>
        </extensions>
      </trkpt>
      <trkpt lat="36.78056770004332065582275390625" lon="-118.54034610092639923095703125">
        <ele>1873.4000244140625</ele>
        <time>2021-06-24T18:13:51.000Z</time>
        <extensions>
          <ns3:TrackPointExtension>
            <ns3:atemp>31.0</ns3:atemp>
            <ns3:hr>123</ns3:hr>
          </ns3:TrackPointExtension>
        </extensions>
      </trkpt>
      <trkpt lat="36.7805480025708675384521484375" lon="-118.5403207875788211822509765625">
        <ele>1873.5999755859375</ele>
        <time>2021-06-24T18:13:54.000Z</time>
        <extensions>
          <ns3:TrackPointExtension>
            <ns3:atemp>31.0</ns3:atemp>
            <ns3:hr>123</ns3:hr>
          </ns3:TrackPointExtension>
        </extensions>
      </trkpt>
      <trkpt lat="36.7805523611605167388916015625" lon="-118.540300168097019195556640625">
        <ele>1874</ele>
        <time>2021-06-24T18:13:56.000Z</time>
        <extensions>
          <ns3:TrackPointExtension>
            <ns3:atemp>31.0</ns3:atemp>
            <ns3:hr>122</ns3:hr>
          </ns3:TrackPointExtension>
        </extensions>
      </trkpt>
      <trkpt lat="36.78056384436786174774169921875" lon="-118.54026605375111103057861328125">
        <ele>1874.199951171875</ele>
        <time>2021-06-24T18:13:58.000Z</time>
        <extensions>
          <ns3:TrackPointExtension>
            <ns3:atemp>31.0</ns3:atemp>
            <ns3:hr>121</ns3:hr>
          </ns3:TrackPointExtension>
        </extensions>
      </trkpt>
      <trkpt lat="36.78056065924465656280517578125" lon="-118.54024107567965984344482421875">
        <ele>1874.5999755859375</ele>
        <time>2021-06-24T18:14:01.000Z</time>
        <extensions>
          <ns3:TrackPointExtension>
            <ns3:atemp>31.0</ns3:atemp>
            <ns3:hr>118</ns3:hr>
          </ns3:TrackPointExtension>
        </extensions>
      </trkpt>
      <trkpt lat="36.780568622052669525146484375" lon="-118.5402309335768222808837890625">
        <ele>1874.800048828125</ele>
        <time>2021-06-24T18:14:02.000Z</time>
        <extensions>
          <ns3:TrackPointExtension>
            <ns3:atemp>31.0</ns3:atemp>
            <ns3:hr>117</ns3:hr>
          </ns3:TrackPointExtension>
        </extensions>
      </trkpt>
      <trkpt lat="36.78057826124131679534912109375" lon="-118.54022942483425140380859375">
        <ele>1874.800048828125</ele>
        <time>2021-06-24T18:14:03.000Z</time>
        <extensions>
          <ns3:TrackPointExtension>
            <ns3:atemp>31.0</ns3:atemp>
            <ns3:hr>117</ns3:hr>
          </ns3:TrackPointExtension>
        </extensions>
      </trkpt>
      <trkpt lat="36.78058211691677570343017578125" lon="-118.54022598825395107269287109375">
        <ele>1875.199951171875</ele>
        <time>2021-06-24T18:14:04.000Z</time>
        <extensions>
          <ns3:TrackPointExtension>
            <ns3:atemp>31.0</ns3:atemp>
            <ns3:hr>116</ns3:hr>
          </ns3:TrackPointExtension>
        </extensions>
      </trkpt>
      <trkpt lat="36.78058077581226825714111328125" lon="-118.54022162966430187225341796875">
        <ele>1875.199951171875</ele>
        <time>2021-06-24T18:14:05.000Z</time>
        <extensions>
          <ns3:TrackPointExtension>
            <ns3:atemp>31.0</ns3:atemp>
            <ns3:hr>114</ns3:hr>
          </ns3:TrackPointExtension>
        </extensions>
      </trkpt>
      <trkpt lat="36.78056652657687664031982421875" lon="-118.54021173901855945587158203125">
        <ele>1875.800048828125</ele>
        <time>2021-06-24T18:14:08.000Z</time>
        <extensions>
          <ns3:TrackPointExtension>
            <ns3:atemp>31.0</ns3:atemp>
            <ns3:hr>112</ns3:hr>
          </ns3:TrackPointExtension>
        </extensions>
      </trkpt>
      <trkpt lat="36.78056292235851287841796875" lon="-118.54020654223859310150146484375">
        <ele>1876.199951171875</ele>
        <time>2021-06-24T18:14:10.000Z</time>
        <extensions>
          <ns3:TrackPointExtension>
            <ns3:atemp>31.0</ns3:atemp>
            <ns3:hr>110</ns3:hr>
          </ns3:TrackPointExtension>
        </extensions>
      </trkpt>
      <trkpt lat="36.78056786768138408660888671875" lon="-118.5402027703821659088134765625">
        <ele>1876.199951171875</ele>
        <time>2021-06-24T18:14:11.000Z</time>
        <extensions>
          <ns3:TrackPointExtension>
            <ns3:atemp>31.0</ns3:atemp>
            <ns3:hr>110</ns3:hr>
          </ns3:TrackPointExtension>
        </extensions>
      </trkpt>
      <trkpt lat="36.78056971170008182525634765625" lon="-118.540195561945438385009765625">
        <ele>1876.5999755859375</ele>
        <time>2021-06-24T18:14:13.000Z</time>
        <extensions>
          <ns3:TrackPointExtension>
            <ns3:atemp>31.0</ns3:atemp>
            <ns3:hr>109</ns3:hr>
          </ns3:TrackPointExtension>
        </extensions>
      </trkpt>
      <trkpt lat="36.78056686185300350189208984375" lon="-118.54018625803291797637939453125">
        <ele>1877</ele>
        <time>2021-06-24T18:14:15.000Z</time>
        <extensions>
          <ns3:TrackPointExtension>
            <ns3:atemp>31.0</ns3:atemp>
            <ns3:hr>108</ns3:hr>
          </ns3:TrackPointExtension>
        </extensions>
      </trkpt>
      <trkpt lat="36.78056216798722743988037109375" lon="-118.540170751512050628662109375">
        <ele>1877.4000244140625</ele>
        <time>2021-06-24T18:14:17.000Z</time>
        <extensions>
          <ns3:TrackPointExtension>
            <ns3:atemp>31.0</ns3:atemp>
            <ns3:hr>108</ns3:hr>
          </ns3:TrackPointExtension>
        </extensions>
      </trkpt>
      <trkpt lat="36.78056015633046627044677734375" lon="-118.54016161523759365081787109375">
        <ele>1877.4000244140625</ele>
        <time>2021-06-24T18:14:18.000Z</time>
        <extensions>
          <ns3:TrackPointExtension>
            <ns3:atemp>31.0</ns3:atemp>
            <ns3:hr>108</ns3:hr>
          </ns3:TrackPointExtension>
        </extensions>
      </trkpt>
      <trkpt lat="36.7805573903024196624755859375" lon="-118.54014225304126739501953125">
        <ele>1877.800048828125</ele>
        <time>2021-06-24T18:14:21.000Z</time>
        <extensions>
          <ns3:TrackPointExtension>
            <ns3:atemp>30.0</ns3:atemp>
            <ns3:hr>107</ns3:hr>
          </ns3:TrackPointExtension>
        </extensions>
      </trkpt>
      <trkpt lat="36.78056501783430576324462890625" lon="-118.54012171737849712371826171875">
        <ele>1878.199951171875</ele>
        <time>2021-06-24T18:14:24.000Z</time>
        <extensions>
          <ns3:TrackPointExtension>
            <ns3:atemp>30.0</ns3:atemp>
            <ns3:hr>107</ns3:hr>
          </ns3:TrackPointExtension>
        </extensions>
      </trkpt>
      <trkpt lat="36.7805708013474941253662109375" lon="-118.54009690694510936737060546875">
        <ele>1878.800048828125</ele>
        <time>2021-06-24T18:14:27.000Z</time>
        <extensions>
          <ns3:TrackPointExtension>
            <ns3:atemp>30.0</ns3:atemp>
            <ns3:hr>106</ns3:hr>
          </ns3:TrackPointExtension>
        </extensions>
      </trkpt>
      <trkpt lat="36.780573986470699310302734375" lon="-118.5400321148335933685302734375">
        <ele>1879.4000244140625</ele>
        <time>2021-06-24T18:14:34.000Z</time>
        <extensions>
          <ns3:TrackPointExtension>
            <ns3:atemp>30.0</ns3:atemp>
            <ns3:hr>105</ns3:hr>
          </ns3:TrackPointExtension>
        </extensions>
      </trkpt>
      <trkpt lat="36.78057323209941387176513671875" lon="-118.5400113277137279510498046875">
        <ele>1879.5999755859375</ele>
        <time>2021-06-24T18:14:37.000Z</time>
        <extensions>
          <ns3:TrackPointExtension>
            <ns3:atemp>30.0</ns3:atemp>
            <ns3:hr>102</ns3:hr>
          </ns3:TrackPointExtension>
        </extensions>
      </trkpt>
      <trkpt lat="36.78056962788105010986328125" lon="-118.53999146260321140289306640625">
        <ele>1879.800048828125</ele>
        <time>2021-06-24T18:14:39.000Z</time>
        <extensions>
          <ns3:TrackPointExtension>
            <ns3:atemp>30.0</ns3:atemp>
            <ns3:hr>105</ns3:hr>
          </ns3:TrackPointExtension>
        </extensions>
      </trkpt>
      <trkpt lat="36.7805607430636882781982421875" lon="-118.53997972793877124786376953125">
        <ele>1880.199951171875</ele>
        <time>2021-06-24T18:14:40.000Z</time>
        <extensions>
          <ns3:TrackPointExtension>
            <ns3:atemp>30.0</ns3:atemp>
            <ns3:hr>107</ns3:hr>
          </ns3:TrackPointExtension>
        </extensions>
      </trkpt>
      <trkpt lat="36.78056736476719379425048828125" lon="-118.5399873554706573486328125">
        <ele>1880.4000244140625</ele>
        <time>2021-06-24T18:14:45.000Z</time>
        <extensions>
          <ns3:TrackPointExtension>
            <ns3:atemp>30.0</ns3:atemp>
            <ns3:hr>111</ns3:hr>
          </ns3:TrackPointExtension>
        </extensions>
      </trkpt>
      <trkpt lat="36.78057842887938022613525390625" lon="-118.5399900376796722412109375">
        <ele>1880.5999755859375</ele>
        <time>2021-06-24T18:14:46.000Z</time>
        <extensions>
          <ns3:TrackPointExtension>
            <ns3:atemp>30.0</ns3:atemp>
            <ns3:hr>105</ns3:hr>
          </ns3:TrackPointExtension>
        </extensions>
      </trkpt>
      <trkpt lat="36.78058865480124950408935546875" lon="-118.53998668491840362548828125">
        <ele>1881</ele>
        <time>2021-06-24T18:14:47.000Z</time>
        <extensions>
          <ns3:TrackPointExtension>
            <ns3:atemp>30.0</ns3:atemp>
            <ns3:hr>106</ns3:hr>
          </ns3:TrackPointExtension>
        </extensions>
      </trkpt>
      <trkpt lat="36.7805971205234527587890625" lon="-118.53995307348668575286865234375">
        <ele>1881.4000244140625</ele>
        <time>2021-06-24T18:14:50.000Z</time>
        <extensions>
          <ns3:TrackPointExtension>
            <ns3:atemp>30.0</ns3:atemp>
            <ns3:hr>107</ns3:hr>
          </ns3:TrackPointExtension>
        </extensions>
      </trkpt>
      <trkpt lat="36.78059988655149936676025390625" lon="-118.53995324112474918365478515625">
        <ele>1882</ele>
        <time>2021-06-24T18:14:53.000Z</time>
        <extensions>
          <ns3:TrackPointExtension>
            <ns3:atemp>30.0</ns3:atemp>
            <ns3:hr>108</ns3:hr>
          </ns3:TrackPointExtension>
        </extensions>
      </trkpt>
      <trkpt lat="36.7806184105575084686279296875" lon="-118.5399462841451168060302734375">
        <ele>1882.199951171875</ele>
        <time>2021-06-24T18:14:55.000Z</time>
        <extensions>
          <ns3:TrackPointExtension>
            <ns3:atemp>30.0</ns3:atemp>
            <ns3:hr>108</ns3:hr>
          </ns3:TrackPointExtension>
        </extensions>
      </trkpt>
      <trkpt lat="36.78062788210809230804443359375" lon="-118.53994150646030902862548828125">
        <ele>1883</ele>
        <time>2021-06-24T18:14:58.000Z</time>
        <extensions>
          <ns3:TrackPointExtension>
            <ns3:atemp>30.0</ns3:atemp>
            <ns3:hr>111</ns3:hr>
          </ns3:TrackPointExtension>
        </extensions>
      </trkpt>
      <trkpt lat="36.780634336173534393310546875" lon="-118.5399352200329303741455078125">
        <ele>1883.199951171875</ele>
        <time>2021-06-24T18:14:59.000Z</time>
        <extensions>
          <ns3:TrackPointExtension>
            <ns3:atemp>30.0</ns3:atemp>
            <ns3:hr>111</ns3:hr>
          </ns3:TrackPointExtension>
        </extensions>
      </trkpt>
      <trkpt lat="36.78065051324665546417236328125" lon="-118.5399100743234157562255859375">
        <ele>1883.4000244140625</ele>
        <time>2021-06-24T18:15:02.000Z</time>
        <extensions>
          <ns3:TrackPointExtension>
            <ns3:atemp>30.0</ns3:atemp>
            <ns3:hr>112</ns3:hr>
          </ns3:TrackPointExtension>
        </extensions>
      </trkpt>
      <trkpt lat="36.78066208027303218841552734375" lon="-118.53989691473543643951416015625">
        <ele>1884.4000244140625</ele>
        <time>2021-06-24T18:15:04.000Z</time>
        <extensions>
          <ns3:TrackPointExtension>
            <ns3:atemp>30.0</ns3:atemp>
            <ns3:hr>114</ns3:hr>
          </ns3:TrackPointExtension>
        </extensions>
      </trkpt>
      <trkpt lat="36.7806687019765377044677734375" lon="-118.53989272378385066986083984375">
        <ele>1884.5999755859375</ele>
        <time>2021-06-24T18:15:05.000Z</time>
        <extensions>
          <ns3:TrackPointExtension>
            <ns3:atemp>30.0</ns3:atemp>
            <ns3:hr>111</ns3:hr>
          </ns3:TrackPointExtension>
        </extensions>
      </trkpt>
      <trkpt lat="36.78070834837853908538818359375" lon="-118.53986757807433605194091796875">
        <ele>1884.800048828125</ele>
        <time>2021-06-24T18:15:08.000Z</time>
        <extensions>
          <ns3:TrackPointExtension>
            <ns3:atemp>30.0</ns3:atemp>
            <ns3:hr>113</ns3:hr>
          </ns3:TrackPointExtension>
        </extensions>
      </trkpt>
      <trkpt lat="36.7807233519852161407470703125" lon="-118.53984586894512176513671875">
        <ele>1884.800048828125</ele>
        <time>2021-06-24T18:15:09.000Z</time>
        <extensions>
          <ns3:TrackPointExtension>
            <ns3:atemp>30.0</ns3:atemp>
            <ns3:hr>113</ns3:hr>
          </ns3:TrackPointExtension>
        </extensions>
      </trkpt>
      <trkpt lat="36.78071178495883941650390625" lon="-118.53982768021523952484130859375">
        <ele>1884.800048828125</ele>
        <time>2021-06-24T18:15:10.000Z</time>
        <extensions>
          <ns3:TrackPointExtension>
            <ns3:atemp>30.0</ns3:atemp>
            <ns3:hr>113</ns3:hr>
          </ns3:TrackPointExtension>
        </extensions>
      </trkpt>
      <trkpt lat="36.78068538196384906768798828125" lon="-118.5397793166339397430419921875">
        <ele>1885.4000244140625</ele>
        <time>2021-06-24T18:15:13.000Z</time>
        <extensions>
          <ns3:TrackPointExtension>
            <ns3:atemp>30.0</ns3:atemp>
            <ns3:hr>112</ns3:hr>
          </ns3:TrackPointExtension>
        </extensions>
      </trkpt>
      <trkpt lat="36.78068764507770538330078125" lon="-118.539765737950801849365234375">
        <ele>1885.5999755859375</ele>
        <time>2021-06-24T18:15:14.000Z</time>
        <extensions>
          <ns3:TrackPointExtension>
            <ns3:atemp>30.0</ns3:atemp>
            <ns3:hr>111</ns3:hr>
          </ns3:TrackPointExtension>
        </extensions>
      </trkpt>
      <trkpt lat="36.780678592622280120849609375" lon="-118.53974821977317333221435546875">
        <ele>1886.199951171875</ele>
        <time>2021-06-24T18:15:16.000Z</time>
        <extensions>
          <ns3:TrackPointExtension>
            <ns3:atemp>30.0</ns3:atemp>
            <ns3:hr>114</ns3:hr>
          </ns3:TrackPointExtension>
        </extensions>
      </trkpt>
      <trkpt lat="36.78066945634782314300537109375" lon="-118.53974151425063610076904296875">
        <ele>1886.199951171875</ele>
        <time>2021-06-24T18:15:17.000Z</time>
        <extensions>
          <ns3:TrackPointExtension>
            <ns3:atemp>30.0</ns3:atemp>
            <ns3:hr>113</ns3:hr>
          </ns3:TrackPointExtension>
        </extensions>
      </trkpt>
      <trkpt lat="36.7806614935398101806640625" lon="-118.53973145596683025360107421875">
        <ele>1886.199951171875</ele>
        <time>2021-06-24T18:15:18.000Z</time>
        <extensions>
          <ns3:TrackPointExtension>
            <ns3:atemp>30.0</ns3:atemp>
            <ns3:hr>113</ns3:hr>
          </ns3:TrackPointExtension>
        </extensions>
      </trkpt>
      <trkpt lat="36.78065436892211437225341796875" lon="-118.53972190059721469879150390625">
        <ele>1886.5999755859375</ele>
        <time>2021-06-24T18:15:19.000Z</time>
        <extensions>
          <ns3:TrackPointExtension>
            <ns3:atemp>30.0</ns3:atemp>
            <ns3:hr>114</ns3:hr>
          </ns3:TrackPointExtension>
        </extensions>
      </trkpt>
      <trkpt lat="36.780657134950160980224609375" lon="-118.53970681317150592803955078125">
        <ele>1886.5999755859375</ele>
        <time>2021-06-24T18:15:21.000Z</time>
        <extensions>
          <ns3:TrackPointExtension>
            <ns3:atemp>30.0</ns3:atemp>
            <ns3:hr>113</ns3:hr>
          </ns3:TrackPointExtension>
        </extensions>
      </trkpt>
      <trkpt lat="36.780610866844654083251953125" lon="-118.53966188617050647735595703125">
        <ele>1887.4000244140625</ele>
        <time>2021-06-24T18:15:27.000Z</time>
        <extensions>
          <ns3:TrackPointExtension>
            <ns3:atemp>30.0</ns3:atemp>
            <ns3:hr>115</ns3:hr>
          </ns3:TrackPointExtension>
        </extensions>
      </trkpt>
      <trkpt lat="36.78060960955917835235595703125" lon="-118.53963942267000675201416015625">
        <ele>1887.5999755859375</ele>
        <time>2021-06-24T18:15:29.000Z</time>
        <extensions>
          <ns3:TrackPointExtension>
            <ns3:atemp>30.0</ns3:atemp>
            <ns3:hr>114</ns3:hr>
          </ns3:TrackPointExtension>
        </extensions>
      </trkpt>
      <trkpt lat="36.78059720434248447418212890625" lon="-118.53961025364696979522705078125">
        <ele>1888.800048828125</ele>
        <time>2021-06-24T18:15:34.000Z</time>
        <extensions>
          <ns3:TrackPointExtension>
            <ns3:atemp>30.0</ns3:atemp>
            <ns3:hr>115</ns3:hr>
          </ns3:TrackPointExtension>
        </extensions>
      </trkpt>
      <trkpt lat="36.78059653379023075103759765625" lon="-118.539609499275684356689453125">
        <ele>1889</ele>
        <time>2021-06-24T18:15:35.000Z</time>
        <extensions>
          <ns3:TrackPointExtension>
            <ns3:atemp>30.0</ns3:atemp>
            <ns3:hr>115</ns3:hr>
          </ns3:TrackPointExtension>
        </extensions>
      </trkpt>
      <trkpt lat="36.78060114383697509765625" lon="-118.53960455395281314849853515625">
        <ele>1889.4000244140625</ele>
        <time>2021-06-24T18:15:38.000Z</time>
        <extensions>
          <ns3:TrackPointExtension>
            <ns3:atemp>30.0</ns3:atemp>
            <ns3:hr>114</ns3:hr>
          </ns3:TrackPointExtension>
        </extensions>
      </trkpt>
      <trkpt lat="36.78060927428305149078369140625" lon="-118.53959198109805583953857421875">
        <ele>1890</ele>
        <time>2021-06-24T18:15:40.000Z</time>
        <extensions>
          <ns3:TrackPointExtension>
            <ns3:atemp>30.0</ns3:atemp>
            <ns3:hr>114</ns3:hr>
          </ns3:TrackPointExtension>
        </extensions>
      </trkpt>
      <trkpt lat="36.7806105315685272216796875" lon="-118.53958812542259693145751953125">
        <ele>1890</ele>
        <time>2021-06-24T18:15:41.000Z</time>
        <extensions>
          <ns3:TrackPointExtension>
            <ns3:atemp>30.0</ns3:atemp>
            <ns3:hr>113</ns3:hr>
          </ns3:TrackPointExtension>
        </extensions>
      </trkpt>
      <trkpt lat="36.78060759790241718292236328125" lon="-118.53957454673945903778076171875">
        <ele>1890.5999755859375</ele>
        <time>2021-06-24T18:15:43.000Z</time>
        <extensions>
          <ns3:TrackPointExtension>
            <ns3:atemp>30.0</ns3:atemp>
            <ns3:hr>113</ns3:hr>
          </ns3:TrackPointExtension>
        </extensions>
      </trkpt>
      <trkpt lat="36.7806083522737026214599609375" lon="-118.5395662486553192138671875">
        <ele>1891.199951171875</ele>
        <time>2021-06-24T18:15:45.000Z</time>
        <extensions>
          <ns3:TrackPointExtension>
            <ns3:atemp>30.0</ns3:atemp>
            <ns3:hr>114</ns3:hr>
          </ns3:TrackPointExtension>
        </extensions>
      </trkpt>
      <trkpt lat="36.7806056700646877288818359375" lon="-118.539557866752147674560546875">
        <ele>1891.199951171875</ele>
        <time>2021-06-24T18:15:46.000Z</time>
        <extensions>
          <ns3:TrackPointExtension>
            <ns3:atemp>30.0</ns3:atemp>
            <ns3:hr>115</ns3:hr>
          </ns3:TrackPointExtension>
        </extensions>
      </trkpt>
      <trkpt lat="36.78060793317854404449462890625" lon="-118.53950925171375274658203125">
        <ele>1892.4000244140625</ele>
        <time>2021-06-24T18:15:52.000Z</time>
        <extensions>
          <ns3:TrackPointExtension>
            <ns3:atemp>30.0</ns3:atemp>
            <ns3:hr>113</ns3:hr>
          </ns3:TrackPointExtension>
        </extensions>
      </trkpt>
      <trkpt lat="36.7806214280426502227783203125" lon="-118.53949449956417083740234375">
        <ele>1892.5999755859375</ele>
        <time>2021-06-24T18:15:54.000Z</time>
        <extensions>
          <ns3:TrackPointExtension>
            <ns3:atemp>30.0</ns3:atemp>
            <ns3:hr>112</ns3:hr>
          </ns3:TrackPointExtension>
        </extensions>
      </trkpt>
      <trkpt lat="36.7806319892406463623046875" lon="-118.53942132554948329925537109375">
        <ele>1893.4000244140625</ele>
        <time>2021-06-24T18:16:02.000Z</time>
        <extensions>
          <ns3:TrackPointExtension>
            <ns3:atemp>30.0</ns3:atemp>
            <ns3:hr>114</ns3:hr>
          </ns3:TrackPointExtension>
        </extensions>
      </trkpt>
      <trkpt lat="36.780625618994235992431640625" lon="-118.53940330445766448974609375">
        <ele>1894</ele>
        <time>2021-06-24T18:16:06.000Z</time>
        <extensions>
          <ns3:TrackPointExtension>
            <ns3:atemp>30.0</ns3:atemp>
            <ns3:hr>111</ns3:hr>
          </ns3:TrackPointExtension>
        </extensions>
      </trkpt>
      <trkpt lat="36.78062235005199909210205078125" lon="-118.5393924079835414886474609375">
        <ele>1894.199951171875</ele>
        <time>2021-06-24T18:16:07.000Z</time>
        <extensions>
          <ns3:TrackPointExtension>
            <ns3:atemp>30.0</ns3:atemp>
            <ns3:hr>110</ns3:hr>
          </ns3:TrackPointExtension>
        </extensions>
      </trkpt>
      <trkpt lat="36.78062084130942821502685546875" lon="-118.5393823496997356414794921875">
        <ele>1894.4000244140625</ele>
        <time>2021-06-24T18:16:08.000Z</time>
        <extensions>
          <ns3:TrackPointExtension>
            <ns3:atemp>30.0</ns3:atemp>
            <ns3:hr>114</ns3:hr>
          </ns3:TrackPointExtension>
        </extensions>
      </trkpt>
      <trkpt lat="36.78061648271977901458740234375" lon="-118.539374805986881256103515625">
        <ele>1894.5999755859375</ele>
        <time>2021-06-24T18:16:09.000Z</time>
        <extensions>
          <ns3:TrackPointExtension>
            <ns3:atemp>30.0</ns3:atemp>
            <ns3:hr>114</ns3:hr>
          </ns3:TrackPointExtension>
        </extensions>
      </trkpt>
      <trkpt lat="36.7805822007358074188232421875" lon="-118.53934203274548053741455078125">
        <ele>1895.199951171875</ele>
        <time>2021-06-24T18:16:13.000Z</time>
        <extensions>
          <ns3:TrackPointExtension>
            <ns3:atemp>30.0</ns3:atemp>
            <ns3:hr>117</ns3:hr>
          </ns3:TrackPointExtension>
        </extensions>
      </trkpt>
      <trkpt lat="36.7805986292660236358642578125" lon="-118.53929811157286167144775390625">
        <ele>1895.5999755859375</ele>
        <time>2021-06-24T18:16:17.000Z</time>
        <extensions>
          <ns3:TrackPointExtension>
            <ns3:atemp>30.0</ns3:atemp>
            <ns3:hr>115</ns3:hr>
          </ns3:TrackPointExtension>
        </extensions>
      </trkpt>
      <trkpt lat="36.78059644997119903564453125" lon="-118.53929425589740276336669921875">
        <ele>1896</ele>
        <time>2021-06-24T18:16:18.000Z</time>
        <extensions>
          <ns3:TrackPointExtension>
            <ns3:atemp>30.0</ns3:atemp>
            <ns3:hr>115</ns3:hr>
          </ns3:TrackPointExtension>
        </extensions>
      </trkpt>
      <trkpt lat="36.7805962823331356048583984375" lon="-118.53928755037486553192138671875">
        <ele>1896</ele>
        <time>2021-06-24T18:16:19.000Z</time>
        <extensions>
          <ns3:TrackPointExtension>
            <ns3:atemp>30.0</ns3:atemp>
            <ns3:hr>115</ns3:hr>
          </ns3:TrackPointExtension>
        </extensions>
      </trkpt>
      <trkpt lat="36.78060038946568965911865234375" lon="-118.5392727144062519073486328125">
        <ele>1896.4000244140625</ele>
        <time>2021-06-24T18:16:21.000Z</time>
        <extensions>
          <ns3:TrackPointExtension>
            <ns3:atemp>30.0</ns3:atemp>
            <ns3:hr>114</ns3:hr>
          </ns3:TrackPointExtension>
        </extensions>
      </trkpt>
      <trkpt lat="36.78058563731610774993896484375" lon="-118.5392354987561702728271484375">
        <ele>1897</ele>
        <time>2021-06-24T18:16:25.000Z</time>
        <extensions>
          <ns3:TrackPointExtension>
            <ns3:atemp>30.0</ns3:atemp>
            <ns3:hr>113</ns3:hr>
          </ns3:TrackPointExtension>
        </extensions>
      </trkpt>
      <trkpt lat="36.780588068068027496337890625" lon="-118.5391624085605144500732421875">
        <ele>1897.800048828125</ele>
        <time>2021-06-24T18:16:31.000Z</time>
        <extensions>
          <ns3:TrackPointExtension>
            <ns3:atemp>30.0</ns3:atemp>
            <ns3:hr>111</ns3:hr>
          </ns3:TrackPointExtension>
        </extensions>
      </trkpt>
      <trkpt lat="36.78058111108839511871337890625" lon="-118.53914036415517330169677734375">
        <ele>1898</ele>
        <time>2021-06-24T18:16:33.000Z</time>
        <extensions>
          <ns3:TrackPointExtension>
            <ns3:atemp>30.0</ns3:atemp>
            <ns3:hr>112</ns3:hr>
          </ns3:TrackPointExtension>
        </extensions>
      </trkpt>
      <trkpt lat="36.78059116937220096588134765625" lon="-118.5391134582459926605224609375">
        <ele>1898.4000244140625</ele>
        <time>2021-06-24T18:16:36.000Z</time>
        <extensions>
          <ns3:TrackPointExtension>
            <ns3:atemp>30.0</ns3:atemp>
            <ns3:hr>111</ns3:hr>
          </ns3:TrackPointExtension>
        </extensions>
      </trkpt>
      <trkpt lat="36.7805795185267925262451171875" lon="-118.5390692017972469329833984375">
        <ele>1898.5999755859375</ele>
        <time>2021-06-24T18:16:41.000Z</time>
        <extensions>
          <ns3:TrackPointExtension>
            <ns3:atemp>30.0</ns3:atemp>
            <ns3:hr>110</ns3:hr>
          </ns3:TrackPointExtension>
        </extensions>
      </trkpt>
      <trkpt lat="36.780553869903087615966796875" lon="-118.539010696113109588623046875">
        <ele>1899</ele>
        <time>2021-06-24T18:16:47.000Z</time>
        <extensions>
          <ns3:TrackPointExtension>
            <ns3:atemp>30.0</ns3:atemp>
            <ns3:hr>110</ns3:hr>
          </ns3:TrackPointExtension>
        </extensions>
      </trkpt>
      <trkpt lat="36.7805567197501659393310546875" lon="-118.53899560868740081787109375">
        <ele>1899.199951171875</ele>
        <time>2021-06-24T18:16:49.000Z</time>
        <extensions>
          <ns3:TrackPointExtension>
            <ns3:atemp>30.0</ns3:atemp>
            <ns3:hr>110</ns3:hr>
          </ns3:TrackPointExtension>
        </extensions>
      </trkpt>
      <trkpt lat="36.7805275507271289825439453125" lon="-118.5389662720263004302978515625">
        <ele>1899.5999755859375</ele>
        <time>2021-06-24T18:16:53.000Z</time>
        <extensions>
          <ns3:TrackPointExtension>
            <ns3:atemp>30.0</ns3:atemp>
            <ns3:hr>109</ns3:hr>
          </ns3:TrackPointExtension>
        </extensions>
      </trkpt>
      <trkpt lat="36.78050257265567779541015625" lon="-118.53890600614249706268310546875">
        <ele>1900.4000244140625</ele>
        <time>2021-06-24T18:17:00.000Z</time>
        <extensions>
          <ns3:TrackPointExtension>
            <ns3:atemp>30.0</ns3:atemp>
            <ns3:hr>109</ns3:hr>
          </ns3:TrackPointExtension>
        </extensions>
      </trkpt>
      <trkpt lat="36.780499555170536041259765625" lon="-118.53889745660126209259033203125">
        <ele>1900.4000244140625</ele>
        <time>2021-06-24T18:17:01.000Z</time>
        <extensions>
          <ns3:TrackPointExtension>
            <ns3:atemp>30.0</ns3:atemp>
            <ns3:hr>109</ns3:hr>
          </ns3:TrackPointExtension>
        </extensions>
      </trkpt>
      <trkpt lat="36.7804777622222900390625" lon="-118.5388581454753875732421875">
        <ele>1900.800048828125</ele>
        <time>2021-06-24T18:17:06.000Z</time>
        <extensions>
          <ns3:TrackPointExtension>
            <ns3:atemp>30.0</ns3:atemp>
            <ns3:hr>111</ns3:hr>
          </ns3:TrackPointExtension>
        </extensions>
      </trkpt>
      <trkpt lat="36.7804762534797191619873046875" lon="-118.538853116333484649658203125">
        <ele>1901</ele>
        <time>2021-06-24T18:17:08.000Z</time>
        <extensions>
          <ns3:TrackPointExtension>
            <ns3:atemp>30.0</ns3:atemp>
            <ns3:hr>111</ns3:hr>
          </ns3:TrackPointExtension>
        </extensions>
      </trkpt>
      <trkpt lat="36.78047499619424343109130859375" lon="-118.53884381242096424102783203125">
        <ele>1901</ele>
        <time>2021-06-24T18:17:10.000Z</time>
        <extensions>
          <ns3:TrackPointExtension>
            <ns3:atemp>30.0</ns3:atemp>
            <ns3:hr>112</ns3:hr>
          </ns3:TrackPointExtension>
        </extensions>
      </trkpt>
      <trkpt lat="36.78047382272779941558837890625" lon="-118.5388298146426677703857421875">
        <ele>1901.4000244140625</ele>
        <time>2021-06-24T18:17:12.000Z</time>
        <extensions>
          <ns3:TrackPointExtension>
            <ns3:atemp>30.0</ns3:atemp>
            <ns3:hr>112</ns3:hr>
          </ns3:TrackPointExtension>
        </extensions>
      </trkpt>
      <trkpt lat="36.780476085841655731201171875" lon="-118.538799472153186798095703125">
        <ele>1902</ele>
        <time>2021-06-24T18:17:16.000Z</time>
        <extensions>
          <ns3:TrackPointExtension>
            <ns3:atemp>30.0</ns3:atemp>
            <ns3:hr>111</ns3:hr>
          </ns3:TrackPointExtension>
        </extensions>
      </trkpt>
      <trkpt lat="36.78047650493681430816650390625" lon="-118.5387825407087802886962890625">
        <ele>1902.4000244140625</ele>
        <time>2021-06-24T18:17:18.000Z</time>
        <extensions>
          <ns3:TrackPointExtension>
            <ns3:atemp>30.0</ns3:atemp>
            <ns3:hr>109</ns3:hr>
          </ns3:TrackPointExtension>
        </extensions>
      </trkpt>
      <trkpt lat="36.78046108223497867584228515625" lon="-118.53877038694918155670166015625">
        <ele>1903</ele>
        <time>2021-06-24T18:17:20.000Z</time>
        <extensions>
          <ns3:TrackPointExtension>
            <ns3:atemp>30.0</ns3:atemp>
            <ns3:hr>107</ns3:hr>
          </ns3:TrackPointExtension>
        </extensions>
      </trkpt>
      <trkpt lat="36.78046158514916896820068359375" lon="-118.53875127620995044708251953125">
        <ele>1903.199951171875</ele>
        <time>2021-06-24T18:17:24.000Z</time>
        <extensions>
          <ns3:TrackPointExtension>
            <ns3:atemp>30.0</ns3:atemp>
            <ns3:hr>106</ns3:hr>
          </ns3:TrackPointExtension>
        </extensions>
      </trkpt>
      <trkpt lat="36.780462674796581268310546875" lon="-118.53873903863131999969482421875">
        <ele>1903.5999755859375</ele>
        <time>2021-06-24T18:17:25.000Z</time>
        <extensions>
          <ns3:TrackPointExtension>
            <ns3:atemp>30.0</ns3:atemp>
            <ns3:hr>106</ns3:hr>
          </ns3:TrackPointExtension>
        </extensions>
      </trkpt>
      <trkpt lat="36.780464351177215576171875" lon="-118.538710959255695343017578125">
        <ele>1903.5999755859375</ele>
        <time>2021-06-24T18:17:28.000Z</time>
        <extensions>
          <ns3:TrackPointExtension>
            <ns3:atemp>30.0</ns3:atemp>
            <ns3:hr>106</ns3:hr>
          </ns3:TrackPointExtension>
        </extensions>
      </trkpt>
      <trkpt lat="36.7804648540914058685302734375" lon="-118.53869922459125518798828125">
        <ele>1903.800048828125</ele>
        <time>2021-06-24T18:17:29.000Z</time>
        <extensions>
          <ns3:TrackPointExtension>
            <ns3:atemp>30.0</ns3:atemp>
            <ns3:hr>106</ns3:hr>
          </ns3:TrackPointExtension>
        </extensions>
      </trkpt>
      <trkpt lat="36.7804651893675327301025390625" lon="-118.538663350045680999755859375">
        <ele>1904</ele>
        <time>2021-06-24T18:17:33.000Z</time>
        <extensions>
          <ns3:TrackPointExtension>
            <ns3:atemp>30.0</ns3:atemp>
            <ns3:hr>106</ns3:hr>
          </ns3:TrackPointExtension>
        </extensions>
      </trkpt>
      <trkpt lat="36.78045487962663173675537109375" lon="-118.538631163537502288818359375">
        <ele>1904.5999755859375</ele>
        <time>2021-06-24T18:17:36.000Z</time>
        <extensions>
          <ns3:TrackPointExtension>
            <ns3:atemp>30.0</ns3:atemp>
            <ns3:hr>105</ns3:hr>
          </ns3:TrackPointExtension>
        </extensions>
      </trkpt>
      <trkpt lat="36.78044381551444530487060546875" lon="-118.53861448355019092559814453125">
        <ele>1904.5999755859375</ele>
        <time>2021-06-24T18:17:38.000Z</time>
        <extensions>
          <ns3:TrackPointExtension>
            <ns3:atemp>30.0</ns3:atemp>
            <ns3:hr>104</ns3:hr>
          </ns3:TrackPointExtension>
        </extensions>
      </trkpt>
      <trkpt lat="36.7804289795458316802978515625" lon="-118.53859269060194492340087890625">
        <ele>1905.199951171875</ele>
        <time>2021-06-24T18:17:42.000Z</time>
        <extensions>
          <ns3:TrackPointExtension>
            <ns3:atemp>30.0</ns3:atemp>
            <ns3:hr>105</ns3:hr>
          </ns3:TrackPointExtension>
        </extensions>
      </trkpt>
      <trkpt lat="36.780424453318119049072265625" lon="-118.5385810397565364837646484375">
        <ele>1905.199951171875</ele>
        <time>2021-06-24T18:17:43.000Z</time>
        <extensions>
          <ns3:TrackPointExtension>
            <ns3:atemp>30.0</ns3:atemp>
            <ns3:hr>108</ns3:hr>
          </ns3:TrackPointExtension>
        </extensions>
      </trkpt>
      <trkpt lat="36.78042151965200901031494140625" lon="-118.538567125797271728515625">
        <ele>1905.4000244140625</ele>
        <time>2021-06-24T18:17:44.000Z</time>
        <extensions>
          <ns3:TrackPointExtension>
            <ns3:atemp>30.0</ns3:atemp>
            <ns3:hr>109</ns3:hr>
          </ns3:TrackPointExtension>
        </extensions>
      </trkpt>
      <trkpt lat="36.7804162390530109405517578125" lon="-118.5385170020163059234619140625">
        <ele>1905.800048828125</ele>
        <time>2021-06-24T18:17:47.000Z</time>
        <extensions>
          <ns3:TrackPointExtension>
            <ns3:atemp>30.0</ns3:atemp>
            <ns3:hr>110</ns3:hr>
          </ns3:TrackPointExtension>
        </extensions>
      </trkpt>
      <trkpt lat="36.7804051749408245086669921875" lon="-118.53850610554218292236328125">
        <ele>1905.800048828125</ele>
        <time>2021-06-24T18:17:48.000Z</time>
        <extensions>
          <ns3:TrackPointExtension>
            <ns3:atemp>30.0</ns3:atemp>
            <ns3:hr>110</ns3:hr>
          </ns3:TrackPointExtension>
        </extensions>
      </trkpt>
      <trkpt lat="36.780400983989238739013671875" lon="-118.53849881328642368316650390625">
        <ele>1905.800048828125</ele>
        <time>2021-06-24T18:17:49.000Z</time>
        <extensions>
          <ns3:TrackPointExtension>
            <ns3:atemp>30.0</ns3:atemp>
            <ns3:hr>109</ns3:hr>
          </ns3:TrackPointExtension>
        </extensions>
      </trkpt>
      <trkpt lat="36.78039662539958953857421875" lon="-118.53849227540194988250732421875">
        <ele>1905.800048828125</ele>
        <time>2021-06-24T18:17:50.000Z</time>
        <extensions>
          <ns3:TrackPointExtension>
            <ns3:atemp>30.0</ns3:atemp>
            <ns3:hr>109</ns3:hr>
          </ns3:TrackPointExtension>
        </extensions>
      </trkpt>
      <trkpt lat="36.7803505249321460723876953125" lon="-118.53843863122165203094482421875">
        <ele>1905.199951171875</ele>
        <time>2021-06-24T18:17:57.000Z</time>
        <extensions>
          <ns3:TrackPointExtension>
            <ns3:atemp>30.0</ns3:atemp>
            <ns3:hr>108</ns3:hr>
          </ns3:TrackPointExtension>
        </extensions>
      </trkpt>
      <trkpt lat="36.78033820353448390960693359375" lon="-118.5383895970880985260009765625">
        <ele>1905</ele>
        <time>2021-06-24T18:18:01.000Z</time>
        <extensions>
          <ns3:TrackPointExtension>
            <ns3:atemp>30.0</ns3:atemp>
            <ns3:hr>105</ns3:hr>
          </ns3:TrackPointExtension>
        </extensions>
      </trkpt>
      <trkpt lat="36.7803055979311466217041015625" lon="-118.5383674688637256622314453125">
        <ele>1905</ele>
        <time>2021-06-24T18:18:04.000Z</time>
        <extensions>
          <ns3:TrackPointExtension>
            <ns3:atemp>30.0</ns3:atemp>
            <ns3:hr>104</ns3:hr>
          </ns3:TrackPointExtension>
        </extensions>
      </trkpt>
      <trkpt lat="36.7802536301314830780029296875" lon="-118.53831910528242588043212890625">
        <ele>1905</ele>
        <time>2021-06-24T18:18:09.000Z</time>
        <extensions>
          <ns3:TrackPointExtension>
            <ns3:atemp>30.0</ns3:atemp>
            <ns3:hr>100</ns3:hr>
          </ns3:TrackPointExtension>
        </extensions>
      </trkpt>
      <trkpt lat="36.7802546359598636627197265625" lon="-118.538309633731842041015625">
        <ele>1905</ele>
        <time>2021-06-24T18:18:10.000Z</time>
        <extensions>
          <ns3:TrackPointExtension>
            <ns3:atemp>30.0</ns3:atemp>
            <ns3:hr>101</ns3:hr>
          </ns3:TrackPointExtension>
        </extensions>
      </trkpt>
      <trkpt lat="36.78025446832180023193359375" lon="-118.5382863320410251617431640625">
        <ele>1905</ele>
        <time>2021-06-24T18:18:12.000Z</time>
        <extensions>
          <ns3:TrackPointExtension>
            <ns3:atemp>30.0</ns3:atemp>
            <ns3:hr>100</ns3:hr>
          </ns3:TrackPointExtension>
        </extensions>
      </trkpt>
      <trkpt lat="36.78019889630377292633056640625" lon="-118.538285158574581146240234375">
        <ele>1905</ele>
        <time>2021-06-24T18:18:15.000Z</time>
        <extensions>
          <ns3:TrackPointExtension>
            <ns3:atemp>30.0</ns3:atemp>
            <ns3:hr>102</ns3:hr>
          </ns3:TrackPointExtension>
        </extensions>
      </trkpt>
      <trkpt lat="36.78018079139292240142822265625" lon="-118.5382886789739131927490234375">
        <ele>1904.800048828125</ele>
        <time>2021-06-24T18:18:16.000Z</time>
        <extensions>
          <ns3:TrackPointExtension>
            <ns3:atemp>30.0</ns3:atemp>
            <ns3:hr>96</ns3:hr>
          </ns3:TrackPointExtension>
        </extensions>
      </trkpt>
      <trkpt lat="36.78017810918390750885009765625" lon="-118.538286499679088592529296875">
        <ele>1904.5999755859375</ele>
        <time>2021-06-24T18:18:17.000Z</time>
        <extensions>
          <ns3:TrackPointExtension>
            <ns3:atemp>30.0</ns3:atemp>
            <ns3:hr>99</ns3:hr>
          </ns3:TrackPointExtension>
        </extensions>
      </trkpt>
      <trkpt lat="36.78015061654150485992431640625" lon="-118.538246266543865203857421875">
        <ele>1904.199951171875</ele>
        <time>2021-06-24T18:18:21.000Z</time>
        <extensions>
          <ns3:TrackPointExtension>
            <ns3:atemp>30.0</ns3:atemp>
            <ns3:hr>96</ns3:hr>
          </ns3:TrackPointExtension>
        </extensions>
      </trkpt>
      <trkpt lat="36.78014106117188930511474609375" lon="-118.53823520243167877197265625">
        <ele>1903.800048828125</ele>
        <time>2021-06-24T18:18:23.000Z</time>
        <extensions>
          <ns3:TrackPointExtension>
            <ns3:atemp>30.0</ns3:atemp>
            <ns3:hr>97</ns3:hr>
          </ns3:TrackPointExtension>
        </extensions>
      </trkpt>
      <trkpt lat="36.78013368509709835052490234375" lon="-118.538229502737522125244140625">
        <ele>1903.4000244140625</ele>
        <time>2021-06-24T18:18:25.000Z</time>
        <extensions>
          <ns3:TrackPointExtension>
            <ns3:atemp>30.0</ns3:atemp>
            <ns3:hr>96</ns3:hr>
          </ns3:TrackPointExtension>
        </extensions>
      </trkpt>
      <trkpt lat="36.78012111224234104156494140625" lon="-118.53821433149278163909912109375">
        <ele>1903</ele>
        <time>2021-06-24T18:18:27.000Z</time>
        <extensions>
          <ns3:TrackPointExtension>
            <ns3:atemp>30.0</ns3:atemp>
            <ns3:hr>96</ns3:hr>
          </ns3:TrackPointExtension>
        </extensions>
      </trkpt>
      <trkpt lat="36.780107282102108001708984375" lon="-118.53820192627608776092529296875">
        <ele>1902.800048828125</ele>
        <time>2021-06-24T18:18:29.000Z</time>
        <extensions>
          <ns3:TrackPointExtension>
            <ns3:atemp>30.0</ns3:atemp>
            <ns3:hr>95</ns3:hr>
          </ns3:TrackPointExtension>
        </extensions>
      </trkpt>
      <trkpt lat="36.78009076975286006927490234375" lon="-118.5381837375462055206298828125">
        <ele>1902</ele>
        <time>2021-06-24T18:18:32.000Z</time>
        <extensions>
          <ns3:TrackPointExtension>
            <ns3:atemp>30.0</ns3:atemp>
            <ns3:hr>93</ns3:hr>
          </ns3:TrackPointExtension>
        </extensions>
      </trkpt>
      <trkpt lat="36.7800598405301570892333984375" lon="-118.53815205395221710205078125">
        <ele>1901.199951171875</ele>
        <time>2021-06-24T18:18:37.000Z</time>
        <extensions>
          <ns3:TrackPointExtension>
            <ns3:atemp>30.0</ns3:atemp>
            <ns3:hr>90</ns3:hr>
          </ns3:TrackPointExtension>
        </extensions>
      </trkpt>
      <trkpt lat="36.7800494469702243804931640625" lon="-118.53815138339996337890625">
        <ele>1900.800048828125</ele>
        <time>2021-06-24T18:18:38.000Z</time>
        <extensions>
          <ns3:TrackPointExtension>
            <ns3:atemp>30.0</ns3:atemp>
            <ns3:hr>88</ns3:hr>
          </ns3:TrackPointExtension>
        </extensions>
      </trkpt>
      <trkpt lat="36.7800527997314929962158203125" lon="-118.53815917856991291046142578125">
        <ele>1900.4000244140625</ele>
        <time>2021-06-24T18:18:41.000Z</time>
        <extensions>
          <ns3:TrackPointExtension>
            <ns3:atemp>30.0</ns3:atemp>
            <ns3:hr>85</ns3:hr>
          </ns3:TrackPointExtension>
        </extensions>
      </trkpt>
      <trkpt lat="36.78004433400928974151611328125" lon="-118.5381555743515491485595703125">
        <ele>1900.4000244140625</ele>
        <time>2021-06-24T18:18:43.000Z</time>
        <extensions>
          <ns3:TrackPointExtension>
            <ns3:atemp>30.0</ns3:atemp>
            <ns3:hr>82</ns3:hr>
          </ns3:TrackPointExtension>
        </extensions>
      </trkpt>
      <trkpt lat="36.78002589382231235504150390625" lon="-118.5381518863141536712646484375">
        <ele>1900.4000244140625</ele>
        <time>2021-06-24T18:18:46.000Z</time>
        <extensions>
          <ns3:TrackPointExtension>
            <ns3:atemp>30.0</ns3:atemp>
            <ns3:hr>81</ns3:hr>
          </ns3:TrackPointExtension>
        </extensions>
      </trkpt>
      <trkpt lat="36.78002203814685344696044921875" lon="-118.5381498746573925018310546875">
        <ele>1900.4000244140625</ele>
        <time>2021-06-24T18:18:47.000Z</time>
        <extensions>
          <ns3:TrackPointExtension>
            <ns3:atemp>30.0</ns3:atemp>
            <ns3:hr>81</ns3:hr>
          </ns3:TrackPointExtension>
        </extensions>
      </trkpt>
      <trkpt lat="36.7800189368426799774169921875" lon="-118.53815951384603977203369140625">
        <ele>1900.4000244140625</ele>
        <time>2021-06-24T18:18:51.000Z</time>
        <extensions>
          <ns3:TrackPointExtension>
            <ns3:atemp>30.0</ns3:atemp>
            <ns3:hr>79</ns3:hr>
          </ns3:TrackPointExtension>
        </extensions>
      </trkpt>
      <trkpt lat="36.780018098652362823486328125" lon="-118.5381609387695789337158203125">
        <ele>1900.4000244140625</ele>
        <time>2021-06-24T18:18:52.000Z</time>
        <extensions>
          <ns3:TrackPointExtension>
            <ns3:atemp>30.0</ns3:atemp>
            <ns3:hr>76</ns3:hr>
          </ns3:TrackPointExtension>
        </extensions>
      </trkpt>
      <trkpt lat="36.78001767955720424652099609375" lon="-118.538162447512149810791015625">
        <ele>1900.4000244140625</ele>
        <time>2021-06-24T18:18:53.000Z</time>
        <extensions>
          <ns3:TrackPointExtension>
            <ns3:atemp>30.0</ns3:atemp>
            <ns3:hr>80</ns3:hr>
          </ns3:TrackPointExtension>
        </extensions>
      </trkpt>
      <trkpt lat="36.77999555133283138275146484375" lon="-118.53817627765238285064697265625">
        <ele>1900.5999755859375</ele>
        <time>2021-06-24T18:18:57.000Z</time>
        <extensions>
          <ns3:TrackPointExtension>
            <ns3:atemp>30.0</ns3:atemp>
            <ns3:hr>80</ns3:hr>
          </ns3:TrackPointExtension>
        </extensions>
      </trkpt>
      <trkpt lat="36.779989935457706451416015625" lon="-118.53820444084703922271728515625">
        <ele>1901</ele>
        <time>2021-06-24T18:19:04.000Z</time>
        <extensions>
          <ns3:TrackPointExtension>
            <ns3:atemp>30.0</ns3:atemp>
            <ns3:hr>80</ns3:hr>
          </ns3:TrackPointExtension>
        </extensions>
      </trkpt>
      <trkpt lat="36.77997057326138019561767578125" lon="-118.538185916841030120849609375">
        <ele>1900.5999755859375</ele>
        <time>2021-06-24T18:19:09.000Z</time>
        <extensions>
          <ns3:TrackPointExtension>
            <ns3:atemp>30.0</ns3:atemp>
            <ns3:hr>77</ns3:hr>
          </ns3:TrackPointExtension>
        </extensions>
      </trkpt>
      <trkpt lat="36.779973506927490234375" lon="-118.53818533010780811309814453125">
        <ele>1900.5999755859375</ele>
        <time>2021-06-24T18:19:10.000Z</time>
        <extensions>
          <ns3:TrackPointExtension>
            <ns3:atemp>30.0</ns3:atemp>
            <ns3:hr>77</ns3:hr>
          </ns3:TrackPointExtension>
        </extensions>
      </trkpt>
      <trkpt lat="36.77998817525804042816162109375" lon="-118.53818583302199840545654296875">
        <ele>1900.800048828125</ele>
        <time>2021-06-24T18:19:13.000Z</time>
        <extensions>
          <ns3:TrackPointExtension>
            <ns3:atemp>30.0</ns3:atemp>
            <ns3:hr>76</ns3:hr>
          </ns3:TrackPointExtension>
        </extensions>
      </trkpt>
      <trkpt lat="36.78000259213149547576904296875" lon="-118.5381937958300113677978515625">
        <ele>1901</ele>
        <time>2021-06-24T18:19:17.000Z</time>
        <extensions>
          <ns3:TrackPointExtension>
            <ns3:atemp>30.0</ns3:atemp>
            <ns3:hr>77</ns3:hr>
          </ns3:TrackPointExtension>
        </extensions>
      </trkpt>
      <trkpt lat="36.780001334846019744873046875" lon="-118.5381844080984592437744140625">
        <ele>1900.800048828125</ele>
        <time>2021-06-24T18:19:25.000Z</time>
        <extensions>
          <ns3:TrackPointExtension>
            <ns3:atemp>30.0</ns3:atemp>
            <ns3:hr>79</ns3:hr>
          </ns3:TrackPointExtension>
        </extensions>
      </trkpt>
      <trkpt lat="36.77999001927673816680908203125" lon="-118.53818968869745731353759765625">
        <ele>1901.199951171875</ele>
        <time>2021-06-24T18:19:31.000Z</time>
        <extensions>
          <ns3:TrackPointExtension>
            <ns3:atemp>30.0</ns3:atemp>
            <ns3:hr>81</ns3:hr>
          </ns3:TrackPointExtension>
        </extensions>
      </trkpt>
      <trkpt lat="36.77999052219092845916748046875" lon="-118.53817309252917766571044921875">
        <ele>1901.199951171875</ele>
        <time>2021-06-24T18:19:41.000Z</time>
        <extensions>
          <ns3:TrackPointExtension>
            <ns3:atemp>30.0</ns3:atemp>
            <ns3:hr>79</ns3:hr>
          </ns3:TrackPointExtension>
        </extensions>
      </trkpt>
      <trkpt lat="36.7800169251859188079833984375" lon="-118.5381981544196605682373046875">
        <ele>1901.5999755859375</ele>
        <time>2021-06-24T18:19:55.000Z</time>
        <extensions>
          <ns3:TrackPointExtension>
            <ns3:atemp>30.0</ns3:atemp>
            <ns3:hr>76</ns3:hr>
          </ns3:TrackPointExtension>
        </extensions>
      </trkpt>
      <trkpt lat="36.7800293304026126861572265625" lon="-118.538185916841030120849609375">
        <ele>1901.5999755859375</ele>
        <time>2021-06-24T18:19:56.000Z</time>
        <extensions>
          <ns3:TrackPointExtension>
            <ns3:atemp>30.0</ns3:atemp>
            <ns3:hr>79</ns3:hr>
          </ns3:TrackPointExtension>
        </extensions>
      </trkpt>
      <trkpt lat="36.78004500456154346466064453125" lon="-118.53817476890981197357177734375">
        <ele>1901.5999755859375</ele>
        <time>2021-06-24T18:20:00.000Z</time>
        <extensions>
          <ns3:TrackPointExtension>
            <ns3:atemp>30.0</ns3:atemp>
            <ns3:hr>76</ns3:hr>
          </ns3:TrackPointExtension>
        </extensions>
      </trkpt>
      <trkpt lat="36.78004500456154346466064453125" lon="-118.53817476890981197357177734375">
        <ele>1901.5999755859375</ele>
        <time>2021-06-24T18:20:01.000Z</time>
        <extensions>
          <ns3:TrackPointExtension>
            <ns3:atemp>30.0</ns3:atemp>
            <ns3:hr>75</ns3:hr>
          </ns3:TrackPointExtension>
        </extensions>
      </trkpt>
      <trkpt lat="36.78004500456154346466064453125" lon="-118.53817778639495372772216796875">
        <ele>1901.5999755859375</ele>
        <time>2021-06-24T18:20:07.000Z</time>
        <extensions>
          <ns3:TrackPointExtension>
            <ns3:atemp>30.0</ns3:atemp>
            <ns3:hr>71</ns3:hr>
          </ns3:TrackPointExtension>
        </extensions>
      </trkpt>
      <trkpt lat="36.78004500456154346466064453125" lon="-118.53818231262266635894775390625">
        <ele>1901.5999755859375</ele>
        <time>2021-06-24T18:20:10.000Z</time>
        <extensions>
          <ns3:TrackPointExtension>
            <ns3:atemp>30.0</ns3:atemp>
            <ns3:hr>67</ns3:hr>
          </ns3:TrackPointExtension>
        </extensions>
      </trkpt>
      <trkpt lat="36.78004500456154346466064453125" lon="-118.53818231262266635894775390625">
        <ele>1901.800048828125</ele>
        <time>2021-06-24T18:20:13.000Z</time>
        <extensions>
          <ns3:TrackPointExtension>
            <ns3:atemp>30.0</ns3:atemp>
            <ns3:hr>64</ns3:hr>
          </ns3:TrackPointExtension>
        </extensions>
      </trkpt>
      <trkpt lat="36.78004500456154346466064453125" lon="-118.53818231262266635894775390625">
        <ele>1901.800048828125</ele>
        <time>2021-06-24T18:20:14.000Z</time>
        <extensions>
          <ns3:TrackPointExtension>
            <ns3:atemp>30.0</ns3:atemp>
            <ns3:hr>63</ns3:hr>
          </ns3:TrackPointExtension>
        </extensions>
      </trkpt>
      <trkpt lat="36.7800444178283214569091796875" lon="-118.5381844080984592437744140625">
        <ele>1901.800048828125</ele>
        <time>2021-06-24T18:20:16.000Z</time>
        <extensions>
          <ns3:TrackPointExtension>
            <ns3:atemp>30.0</ns3:atemp>
            <ns3:hr>62</ns3:hr>
          </ns3:TrackPointExtension>
        </extensions>
      </trkpt>
      <trkpt lat="36.78004047833383083343505859375" lon="-118.53819438256323337554931640625">
        <ele>1902</ele>
        <time>2021-06-24T18:20:30.000Z</time>
        <extensions>
          <ns3:TrackPointExtension>
            <ns3:atemp>30.0</ns3:atemp>
            <ns3:hr>65</ns3:hr>
          </ns3:TrackPointExtension>
        </extensions>
      </trkpt>
      <trkpt lat="36.7800256423652172088623046875" lon="-118.53821500204503536224365234375">
        <ele>1902</ele>
        <time>2021-06-24T18:20:33.000Z</time>
        <extensions>
          <ns3:TrackPointExtension>
            <ns3:atemp>30.0</ns3:atemp>
            <ns3:hr>68</ns3:hr>
          </ns3:TrackPointExtension>
        </extensions>
      </trkpt>
      <trkpt lat="36.78002178668975830078125" lon="-118.53823394514620304107666015625">
        <ele>1902</ele>
        <time>2021-06-24T18:20:35.000Z</time>
        <extensions>
          <ns3:TrackPointExtension>
            <ns3:atemp>30.0</ns3:atemp>
            <ns3:hr>71</ns3:hr>
          </ns3:TrackPointExtension>
        </extensions>
      </trkpt>
      <trkpt lat="36.78001734428107738494873046875" lon="-118.53827501647174358367919921875">
        <ele>1902.199951171875</ele>
        <time>2021-06-24T18:20:42.000Z</time>
        <extensions>
          <ns3:TrackPointExtension>
            <ns3:atemp>30.0</ns3:atemp>
            <ns3:hr>68</ns3:hr>
          </ns3:TrackPointExtension>
        </extensions>
      </trkpt>
      <trkpt lat="36.7800078727304935455322265625" lon="-118.5382761061191558837890625">
        <ele>1902</ele>
        <time>2021-06-24T18:20:49.000Z</time>
        <extensions>
          <ns3:TrackPointExtension>
            <ns3:atemp>30.0</ns3:atemp>
            <ns3:hr>65</ns3:hr>
          </ns3:TrackPointExtension>
        </extensions>
      </trkpt>
      <trkpt lat="36.78000762127339839935302734375" lon="-118.5382761061191558837890625">
        <ele>1901.800048828125</ele>
        <time>2021-06-24T18:20:54.000Z</time>
        <extensions>
          <ns3:TrackPointExtension>
            <ns3:atemp>30.0</ns3:atemp>
            <ns3:hr>62</ns3:hr>
          </ns3:TrackPointExtension>
        </extensions>
      </trkpt>
      <trkpt lat="36.78000762127339839935302734375" lon="-118.53827543556690216064453125">
        <ele>1901.5999755859375</ele>
        <time>2021-06-24T18:20:57.000Z</time>
        <extensions>
          <ns3:TrackPointExtension>
            <ns3:atemp>30.0</ns3:atemp>
            <ns3:hr>59</ns3:hr>
          </ns3:TrackPointExtension>
        </extensions>
      </trkpt>
      <trkpt lat="36.78005439229309558868408203125" lon="-118.5382330231368541717529296875">
        <ele>1901.5999755859375</ele>
        <time>2021-06-24T18:21:29.000Z</time>
        <extensions>
          <ns3:TrackPointExtension>
            <ns3:atemp>30.0</ns3:atemp>
            <ns3:hr>56</ns3:hr>
          </ns3:TrackPointExtension>
        </extensions>
      </trkpt>
      <trkpt lat="36.78006327711045742034912109375" lon="-118.5382269881665706634521484375">
        <ele>1901.5999755859375</ele>
        <time>2021-06-24T18:21:37.000Z</time>
        <extensions>
          <ns3:TrackPointExtension>
            <ns3:atemp>30.0</ns3:atemp>
            <ns3:hr>57</ns3:hr>
          </ns3:TrackPointExtension>
        </extensions>
      </trkpt>
      <trkpt lat="36.7800786159932613372802734375" lon="-118.53823159821331501007080078125">
        <ele>1901.5999755859375</ele>
        <time>2021-06-24T18:21:51.000Z</time>
        <extensions>
          <ns3:TrackPointExtension>
            <ns3:atemp>30.0</ns3:atemp>
            <ns3:hr>58</ns3:hr>
          </ns3:TrackPointExtension>
        </extensions>
      </trkpt>
      <trkpt lat="36.78006193600594997406005859375" lon="-118.538260348141193389892578125">
        <ele>1901.5999755859375</ele>
        <time>2021-06-24T18:21:56.000Z</time>
        <extensions>
          <ns3:TrackPointExtension>
            <ns3:atemp>30.0</ns3:atemp>
            <ns3:hr>57</ns3:hr>
          </ns3:TrackPointExtension>
        </extensions>
      </trkpt>
      <trkpt lat="36.78007484413683414459228515625" lon="-118.53823897428810596466064453125">
        <ele>1901.5999755859375</ele>
        <time>2021-06-24T18:22:01.000Z</time>
        <extensions>
          <ns3:TrackPointExtension>
            <ns3:atemp>30.0</ns3:atemp>
            <ns3:hr>54</ns3:hr>
          </ns3:TrackPointExtension>
        </extensions>
      </trkpt>
      <trkpt lat="36.78009646944701671600341796875" lon="-118.53825406171381473541259765625">
        <ele>1901.5999755859375</ele>
        <time>2021-06-24T18:22:06.000Z</time>
        <extensions>
          <ns3:TrackPointExtension>
            <ns3:atemp>30.0</ns3:atemp>
            <ns3:hr>55</ns3:hr>
          </ns3:TrackPointExtension>
        </extensions>
      </trkpt>
      <trkpt lat="36.7800779454410076141357421875" lon="-118.5382524691522121429443359375">
        <ele>1901.5999755859375</ele>
        <time>2021-06-24T18:22:12.000Z</time>
        <extensions>
          <ns3:TrackPointExtension>
            <ns3:atemp>30.0</ns3:atemp>
            <ns3:hr>56</ns3:hr>
          </ns3:TrackPointExtension>
        </extensions>
      </trkpt>
      <trkpt lat="36.7800886742770671844482421875" lon="-118.53824861347675323486328125">
        <ele>1901.5999755859375</ele>
        <time>2021-06-24T18:22:19.000Z</time>
        <extensions>
          <ns3:TrackPointExtension>
            <ns3:atemp>30.0</ns3:atemp>
            <ns3:hr>57</ns3:hr>
          </ns3:TrackPointExtension>
        </extensions>
      </trkpt>
      <trkpt lat="36.7800886742770671844482421875" lon="-118.53824861347675323486328125">
        <ele>1901.5999755859375</ele>
        <time>2021-06-24T18:22:20.000Z</time>
        <extensions>
          <ns3:TrackPointExtension>
            <ns3:atemp>30.0</ns3:atemp>
            <ns3:hr>54</ns3:hr>
          </ns3:TrackPointExtension>
        </extensions>
      </trkpt>
      <trkpt lat="36.78007786162197589874267578125" lon="-118.5382305085659027099609375">
        <ele>1901.5999755859375</ele>
        <time>2021-06-24T18:22:23.000Z</time>
        <extensions>
          <ns3:TrackPointExtension>
            <ns3:atemp>30.0</ns3:atemp>
            <ns3:hr>51</ns3:hr>
          </ns3:TrackPointExtension>
        </extensions>
      </trkpt>
      <trkpt lat="36.78006746806204319000244140625" lon="-118.53821634314954280853271484375">
        <ele>1901.5999755859375</ele>
        <time>2021-06-24T18:22:24.000Z</time>
        <extensions>
          <ns3:TrackPointExtension>
            <ns3:atemp>30.0</ns3:atemp>
            <ns3:hr>54</ns3:hr>
          </ns3:TrackPointExtension>
        </extensions>
      </trkpt>
      <trkpt lat="36.78005774505436420440673828125" lon="-118.53819974698126316070556640625">
        <ele>1901.5999755859375</ele>
        <time>2021-06-24T18:22:25.000Z</time>
        <extensions>
          <ns3:TrackPointExtension>
            <ns3:atemp>30.0</ns3:atemp>
            <ns3:hr>53</ns3:hr>
          </ns3:TrackPointExtension>
        </extensions>
      </trkpt>
      <trkpt lat="36.780008040368556976318359375" lon="-118.53811576031148433685302734375">
        <ele>1901.5999755859375</ele>
        <time>2021-06-24T18:22:30.000Z</time>
        <extensions>
          <ns3:TrackPointExtension>
            <ns3:atemp>30.0</ns3:atemp>
            <ns3:hr>49</ns3:hr>
          </ns3:TrackPointExtension>
        </extensions>
      </trkpt>
      <trkpt lat="36.7799827270209789276123046875" lon="-118.5380891896784305572509765625">
        <ele>1901.5999755859375</ele>
        <time>2021-06-24T18:22:32.000Z</time>
        <extensions>
          <ns3:TrackPointExtension>
            <ns3:atemp>30.0</ns3:atemp>
            <ns3:hr>52</ns3:hr>
          </ns3:TrackPointExtension>
        </extensions>
      </trkpt>
      <trkpt lat="36.779915504157543182373046875" lon="-118.53797142393887042999267578125">
        <ele>1901.199951171875</ele>
        <time>2021-06-24T18:22:40.000Z</time>
        <extensions>
          <ns3:TrackPointExtension>
            <ns3:atemp>30.0</ns3:atemp>
            <ns3:hr>55</ns3:hr>
          </ns3:TrackPointExtension>
        </extensions>
      </trkpt>
      <trkpt lat="36.7798861674964427947998046875" lon="-118.5379166901111602783203125">
        <ele>1901</ele>
        <time>2021-06-24T18:22:43.000Z</time>
        <extensions>
          <ns3:TrackPointExtension>
            <ns3:atemp>30.0</ns3:atemp>
            <ns3:hr>58</ns3:hr>
          </ns3:TrackPointExtension>
        </extensions>
      </trkpt>
      <trkpt lat="36.77987317554652690887451171875" lon="-118.53788785636425018310546875">
        <ele>1901</ele>
        <time>2021-06-24T18:22:45.000Z</time>
        <extensions>
          <ns3:TrackPointExtension>
            <ns3:atemp>30.0</ns3:atemp>
            <ns3:hr>59</ns3:hr>
          </ns3:TrackPointExtension>
        </extensions>
      </trkpt>
      <trkpt lat="36.77983939647674560546875" lon="-118.5378669016063213348388671875">
        <ele>1901</ele>
        <time>2021-06-24T18:22:47.000Z</time>
        <extensions>
          <ns3:TrackPointExtension>
            <ns3:atemp>30.0</ns3:atemp>
            <ns3:hr>59</ns3:hr>
          </ns3:TrackPointExtension>
        </extensions>
      </trkpt>
      <trkpt lat="36.7797755263745784759521484375" lon="-118.537794984877109527587890625">
        <ele>1901</ele>
        <time>2021-06-24T18:22:51.000Z</time>
        <extensions>
          <ns3:TrackPointExtension>
            <ns3:atemp>30.0</ns3:atemp>
            <ns3:hr>59</ns3:hr>
          </ns3:TrackPointExtension>
        </extensions>
      </trkpt>
      <trkpt lat="36.77975314669311046600341796875" lon="-118.53778459131717681884765625">
        <ele>1900.800048828125</ele>
        <time>2021-06-24T18:22:52.000Z</time>
        <extensions>
          <ns3:TrackPointExtension>
            <ns3:atemp>30.0</ns3:atemp>
            <ns3:hr>59</ns3:hr>
          </ns3:TrackPointExtension>
        </extensions>
      </trkpt>
      <trkpt lat="36.7797483690083026885986328125" lon="-118.53773924522101879119873046875">
        <ele>1900.5999755859375</ele>
        <time>2021-06-24T18:22:56.000Z</time>
        <extensions>
          <ns3:TrackPointExtension>
            <ns3:atemp>30.0</ns3:atemp>
            <ns3:hr>60</ns3:hr>
          </ns3:TrackPointExtension>
        </extensions>
      </trkpt>
      <trkpt lat="36.77972313947975635528564453125" lon="-118.53767906315624713897705078125">
        <ele>1900.4000244140625</ele>
        <time>2021-06-24T18:23:02.000Z</time>
        <extensions>
          <ns3:TrackPointExtension>
            <ns3:atemp>30.0</ns3:atemp>
            <ns3:hr>61</ns3:hr>
          </ns3:TrackPointExtension>
        </extensions>
      </trkpt>
      <trkpt lat="36.77972012199461460113525390625" lon="-118.5376640595495700836181640625">
        <ele>1900.4000244140625</ele>
        <time>2021-06-24T18:23:03.000Z</time>
        <extensions>
          <ns3:TrackPointExtension>
            <ns3:atemp>30.0</ns3:atemp>
            <ns3:hr>61</ns3:hr>
          </ns3:TrackPointExtension>
        </extensions>
      </trkpt>
      <trkpt lat="36.77972079254686832427978515625" lon="-118.5376043803989887237548828125">
        <ele>1900.800048828125</ele>
        <time>2021-06-24T18:23:07.000Z</time>
        <extensions>
          <ns3:TrackPointExtension>
            <ns3:atemp>30.0</ns3:atemp>
            <ns3:hr>60</ns3:hr>
          </ns3:TrackPointExtension>
        </extensions>
      </trkpt>
      <trkpt lat="36.77971458993852138519287109375" lon="-118.53759256191551685333251953125">
        <ele>1900.800048828125</ele>
        <time>2021-06-24T18:23:08.000Z</time>
        <extensions>
          <ns3:TrackPointExtension>
            <ns3:atemp>30.0</ns3:atemp>
            <ns3:hr>60</ns3:hr>
          </ns3:TrackPointExtension>
        </extensions>
      </trkpt>
      <trkpt lat="36.7796933837234973907470703125" lon="-118.53755551390349864959716796875">
        <ele>1900.800048828125</ele>
        <time>2021-06-24T18:23:12.000Z</time>
        <extensions>
          <ns3:TrackPointExtension>
            <ns3:atemp>31.0</ns3:atemp>
            <ns3:hr>60</ns3:hr>
          </ns3:TrackPointExtension>
        </extensions>
      </trkpt>
      <trkpt lat="36.7796729318797588348388671875" lon="-118.53754294104874134063720703125">
        <ele>1901</ele>
        <time>2021-06-24T18:23:14.000Z</time>
        <extensions>
          <ns3:TrackPointExtension>
            <ns3:atemp>31.0</ns3:atemp>
            <ns3:hr>60</ns3:hr>
          </ns3:TrackPointExtension>
        </extensions>
      </trkpt>
      <trkpt lat="36.77965641953051090240478515625" lon="-118.53751796297729015350341796875">
        <ele>1900.800048828125</ele>
        <time>2021-06-24T18:23:16.000Z</time>
        <extensions>
          <ns3:TrackPointExtension>
            <ns3:atemp>31.0</ns3:atemp>
            <ns3:hr>60</ns3:hr>
          </ns3:TrackPointExtension>
        </extensions>
      </trkpt>
      <trkpt lat="36.7796756140887737274169921875" lon="-118.53748418390750885009765625">
        <ele>1900</ele>
        <time>2021-06-24T18:23:19.000Z</time>
        <extensions>
          <ns3:TrackPointExtension>
            <ns3:atemp>31.0</ns3:atemp>
            <ns3:hr>60</ns3:hr>
          </ns3:TrackPointExtension>
        </extensions>
      </trkpt>
      <trkpt lat="36.77967988885939121246337890625" lon="-118.53745409287512302398681640625">
        <ele>1899.5999755859375</ele>
        <time>2021-06-24T18:23:21.000Z</time>
        <extensions>
          <ns3:TrackPointExtension>
            <ns3:atemp>31.0</ns3:atemp>
            <ns3:hr>59</ns3:hr>
          </ns3:TrackPointExtension>
        </extensions>
      </trkpt>
      <trkpt lat="36.77967284806072711944580078125" lon="-118.53743716143071651458740234375">
        <ele>1899.4000244140625</ele>
        <time>2021-06-24T18:23:23.000Z</time>
        <extensions>
          <ns3:TrackPointExtension>
            <ns3:atemp>31.0</ns3:atemp>
            <ns3:hr>60</ns3:hr>
          </ns3:TrackPointExtension>
        </extensions>
      </trkpt>
      <trkpt lat="36.77965625189244747161865234375" lon="-118.53742576204240322113037109375">
        <ele>1899.199951171875</ele>
        <time>2021-06-24T18:23:25.000Z</time>
        <extensions>
          <ns3:TrackPointExtension>
            <ns3:atemp>31.0</ns3:atemp>
            <ns3:hr>61</ns3:hr>
          </ns3:TrackPointExtension>
        </extensions>
      </trkpt>
      <trkpt lat="36.779651306569576263427734375" lon="-118.537414111196994781494140625">
        <ele>1898.800048828125</ele>
        <time>2021-06-24T18:23:27.000Z</time>
        <extensions>
          <ns3:TrackPointExtension>
            <ns3:atemp>31.0</ns3:atemp>
            <ns3:hr>61</ns3:hr>
          </ns3:TrackPointExtension>
        </extensions>
      </trkpt>
      <trkpt lat="36.77965558134019374847412109375" lon="-118.53738586418330669403076171875">
        <ele>1897.800048828125</ele>
        <time>2021-06-24T18:23:29.000Z</time>
        <extensions>
          <ns3:TrackPointExtension>
            <ns3:atemp>31.0</ns3:atemp>
            <ns3:hr>60</ns3:hr>
          </ns3:TrackPointExtension>
        </extensions>
      </trkpt>
      <trkpt lat="36.7796521447598934173583984375" lon="-118.5373748838901519775390625">
        <ele>1897.5999755859375</ele>
        <time>2021-06-24T18:23:31.000Z</time>
        <extensions>
          <ns3:TrackPointExtension>
            <ns3:atemp>31.0</ns3:atemp>
            <ns3:hr>58</ns3:hr>
          </ns3:TrackPointExtension>
        </extensions>
      </trkpt>
      <trkpt lat="36.77964434958994388580322265625" lon="-118.53735585696995258331298828125">
        <ele>1897.800048828125</ele>
        <time>2021-06-24T18:23:33.000Z</time>
        <extensions>
          <ns3:TrackPointExtension>
            <ns3:atemp>31.0</ns3:atemp>
            <ns3:hr>57</ns3:hr>
          </ns3:TrackPointExtension>
        </extensions>
      </trkpt>
      <trkpt lat="36.7796407453715801239013671875" lon="-118.5373448766767978668212890625">
        <ele>1898</ele>
        <time>2021-06-24T18:23:34.000Z</time>
        <extensions>
          <ns3:TrackPointExtension>
            <ns3:atemp>31.0</ns3:atemp>
            <ns3:hr>58</ns3:hr>
          </ns3:TrackPointExtension>
        </extensions>
      </trkpt>
      <trkpt lat="36.77964015863835811614990234375" lon="-118.53732953779399394989013671875">
        <ele>1898</ele>
        <time>2021-06-24T18:23:35.000Z</time>
        <extensions>
          <ns3:TrackPointExtension>
            <ns3:atemp>31.0</ns3:atemp>
            <ns3:hr>56</ns3:hr>
          </ns3:TrackPointExtension>
        </extensions>
      </trkpt>
      <trkpt lat="36.77963160909712314605712890625" lon="-118.5373046435415744781494140625">
        <ele>1898.4000244140625</ele>
        <time>2021-06-24T18:23:38.000Z</time>
        <extensions>
          <ns3:TrackPointExtension>
            <ns3:atemp>31.0</ns3:atemp>
            <ns3:hr>57</ns3:hr>
          </ns3:TrackPointExtension>
        </extensions>
      </trkpt>
      <trkpt lat="36.77962146699428558349609375" lon="-118.53729240596294403076171875">
        <ele>1898.800048828125</ele>
        <time>2021-06-24T18:23:40.000Z</time>
        <extensions>
          <ns3:TrackPointExtension>
            <ns3:atemp>31.0</ns3:atemp>
            <ns3:hr>57</ns3:hr>
          </ns3:TrackPointExtension>
        </extensions>
      </trkpt>
      <trkpt lat="36.77963010035455226898193359375" lon="-118.53726156055927276611328125">
        <ele>1899</ele>
        <time>2021-06-24T18:23:42.000Z</time>
        <extensions>
          <ns3:TrackPointExtension>
            <ns3:atemp>31.0</ns3:atemp>
            <ns3:hr>60</ns3:hr>
          </ns3:TrackPointExtension>
        </extensions>
      </trkpt>
      <trkpt lat="36.7796377278864383697509765625" lon="-118.537233732640743255615234375">
        <ele>1899.199951171875</ele>
        <time>2021-06-24T18:23:44.000Z</time>
        <extensions>
          <ns3:TrackPointExtension>
            <ns3:atemp>31.0</ns3:atemp>
            <ns3:hr>59</ns3:hr>
          </ns3:TrackPointExtension>
        </extensions>
      </trkpt>
      <trkpt lat="36.779635213315486907958984375" lon="-118.53722023777663707733154296875">
        <ele>1899.4000244140625</ele>
        <time>2021-06-24T18:23:45.000Z</time>
        <extensions>
          <ns3:TrackPointExtension>
            <ns3:atemp>31.0</ns3:atemp>
            <ns3:hr>61</ns3:hr>
          </ns3:TrackPointExtension>
        </extensions>
      </trkpt>
      <trkpt lat="36.77962976507842540740966796875" lon="-118.5371725447475910186767578125">
        <ele>1899.5999755859375</ele>
        <time>2021-06-24T18:23:48.000Z</time>
        <extensions>
          <ns3:TrackPointExtension>
            <ns3:atemp>31.0</ns3:atemp>
            <ns3:hr>60</ns3:hr>
          </ns3:TrackPointExtension>
        </extensions>
      </trkpt>
      <trkpt lat="36.779636554419994354248046875" lon="-118.53715150617063045501708984375">
        <ele>1899.800048828125</ele>
        <time>2021-06-24T18:23:50.000Z</time>
        <extensions>
          <ns3:TrackPointExtension>
            <ns3:atemp>31.0</ns3:atemp>
            <ns3:hr>61</ns3:hr>
          </ns3:TrackPointExtension>
        </extensions>
      </trkpt>
      <trkpt lat="36.77963697351515293121337890625" lon="-118.537143208086490631103515625">
        <ele>1900.199951171875</ele>
        <time>2021-06-24T18:23:51.000Z</time>
        <extensions>
          <ns3:TrackPointExtension>
            <ns3:atemp>31.0</ns3:atemp>
            <ns3:hr>61</ns3:hr>
          </ns3:TrackPointExtension>
        </extensions>
      </trkpt>
      <trkpt lat="36.77964099682867527008056640625" lon="-118.5371272824704647064208984375">
        <ele>1900.199951171875</ele>
        <time>2021-06-24T18:23:53.000Z</time>
        <extensions>
          <ns3:TrackPointExtension>
            <ns3:atemp>31.0</ns3:atemp>
            <ns3:hr>62</ns3:hr>
          </ns3:TrackPointExtension>
        </extensions>
      </trkpt>
      <trkpt lat="36.77962507121264934539794921875" lon="-118.53710188530385494232177734375">
        <ele>1900.199951171875</ele>
        <time>2021-06-24T18:23:55.000Z</time>
        <extensions>
          <ns3:TrackPointExtension>
            <ns3:atemp>31.0</ns3:atemp>
            <ns3:hr>63</ns3:hr>
          </ns3:TrackPointExtension>
        </extensions>
      </trkpt>
      <trkpt lat="36.77961585111916065216064453125" lon="-118.53708411566913127899169921875">
        <ele>1900.4000244140625</ele>
        <time>2021-06-24T18:23:56.000Z</time>
        <extensions>
          <ns3:TrackPointExtension>
            <ns3:atemp>31.0</ns3:atemp>
            <ns3:hr>63</ns3:hr>
          </ns3:TrackPointExtension>
        </extensions>
      </trkpt>
      <trkpt lat="36.7796038649976253509521484375" lon="-118.53707137517631053924560546875">
        <ele>1900.4000244140625</ele>
        <time>2021-06-24T18:23:57.000Z</time>
        <extensions>
          <ns3:TrackPointExtension>
            <ns3:atemp>31.0</ns3:atemp>
            <ns3:hr>65</ns3:hr>
          </ns3:TrackPointExtension>
        </extensions>
      </trkpt>
      <trkpt lat="36.77957176230847835540771484375" lon="-118.53704832494258880615234375">
        <ele>1900.4000244140625</ele>
        <time>2021-06-24T18:24:00.000Z</time>
        <extensions>
          <ns3:TrackPointExtension>
            <ns3:atemp>31.0</ns3:atemp>
            <ns3:hr>68</ns3:hr>
          </ns3:TrackPointExtension>
        </extensions>
      </trkpt>
      <trkpt lat="36.77956120111048221588134765625" lon="-118.5370344109833240509033203125">
        <ele>1900.4000244140625</ele>
        <time>2021-06-24T18:24:01.000Z</time>
        <extensions>
          <ns3:TrackPointExtension>
            <ns3:atemp>31.0</ns3:atemp>
            <ns3:hr>68</ns3:hr>
          </ns3:TrackPointExtension>
        </extensions>
      </trkpt>
      <trkpt lat="36.77954577840864658355712890625" lon="-118.5370132885873317718505859375">
        <ele>1900.4000244140625</ele>
        <time>2021-06-24T18:24:03.000Z</time>
        <extensions>
          <ns3:TrackPointExtension>
            <ns3:atemp>31.0</ns3:atemp>
            <ns3:hr>70</ns3:hr>
          </ns3:TrackPointExtension>
        </extensions>
      </trkpt>
      <trkpt lat="36.77953672595322132110595703125" lon="-118.5369992069900035858154296875">
        <ele>1900.4000244140625</ele>
        <time>2021-06-24T18:24:04.000Z</time>
        <extensions>
          <ns3:TrackPointExtension>
            <ns3:atemp>31.0</ns3:atemp>
            <ns3:hr>70</ns3:hr>
          </ns3:TrackPointExtension>
        </extensions>
      </trkpt>
      <trkpt lat="36.7795119993388652801513671875" lon="-118.5369515977799892425537109375">
        <ele>1900.800048828125</ele>
        <time>2021-06-24T18:24:08.000Z</time>
        <extensions>
          <ns3:TrackPointExtension>
            <ns3:atemp>31.0</ns3:atemp>
            <ns3:hr>71</ns3:hr>
          </ns3:TrackPointExtension>
        </extensions>
      </trkpt>
      <trkpt lat="36.7795161902904510498046875" lon="-118.5369318164885044097900390625">
        <ele>1900.800048828125</ele>
        <time>2021-06-24T18:24:09.000Z</time>
        <extensions>
          <ns3:TrackPointExtension>
            <ns3:atemp>31.0</ns3:atemp>
            <ns3:hr>71</ns3:hr>
          </ns3:TrackPointExtension>
        </extensions>
      </trkpt>
      <trkpt lat="36.779528595507144927978515625" lon="-118.53693022392690181732177734375">
        <ele>1900.5999755859375</ele>
        <time>2021-06-24T18:24:10.000Z</time>
        <extensions>
          <ns3:TrackPointExtension>
            <ns3:atemp>31.0</ns3:atemp>
            <ns3:hr>71</ns3:hr>
          </ns3:TrackPointExtension>
        </extensions>
      </trkpt>
      <trkpt lat="36.77954074926674365997314453125" lon="-118.53691530413925647735595703125">
        <ele>1900.4000244140625</ele>
        <time>2021-06-24T18:24:12.000Z</time>
        <extensions>
          <ns3:TrackPointExtension>
            <ns3:atemp>31.0</ns3:atemp>
            <ns3:hr>71</ns3:hr>
          </ns3:TrackPointExtension>
        </extensions>
      </trkpt>
      <trkpt lat="36.779546029865741729736328125" lon="-118.53689820505678653717041015625">
        <ele>1900.4000244140625</ele>
        <time>2021-06-24T18:24:13.000Z</time>
        <extensions>
          <ns3:TrackPointExtension>
            <ns3:atemp>31.0</ns3:atemp>
            <ns3:hr>71</ns3:hr>
          </ns3:TrackPointExtension>
        </extensions>
      </trkpt>
      <trkpt lat="36.77954343147575855255126953125" lon="-118.53683450259268283843994140625">
        <ele>1900.4000244140625</ele>
        <time>2021-06-24T18:24:16.000Z</time>
        <extensions>
          <ns3:TrackPointExtension>
            <ns3:atemp>31.0</ns3:atemp>
            <ns3:hr>72</ns3:hr>
          </ns3:TrackPointExtension>
        </extensions>
      </trkpt>
      <trkpt lat="36.77954594604671001434326171875" lon="-118.536799214780330657958984375">
        <ele>1900.199951171875</ele>
        <time>2021-06-24T18:24:18.000Z</time>
        <extensions>
          <ns3:TrackPointExtension>
            <ns3:atemp>31.0</ns3:atemp>
            <ns3:hr>72</ns3:hr>
          </ns3:TrackPointExtension>
        </extensions>
      </trkpt>
      <trkpt lat="36.779543347656726837158203125" lon="-118.5367832891643047332763671875">
        <ele>1900.199951171875</ele>
        <time>2021-06-24T18:24:20.000Z</time>
        <extensions>
          <ns3:TrackPointExtension>
            <ns3:atemp>31.0</ns3:atemp>
            <ns3:hr>70</ns3:hr>
          </ns3:TrackPointExtension>
        </extensions>
      </trkpt>
      <trkpt lat="36.77954292856156826019287109375" lon="-118.53677096776664257049560546875">
        <ele>1900</ele>
        <time>2021-06-24T18:24:22.000Z</time>
        <extensions>
          <ns3:TrackPointExtension>
            <ns3:atemp>31.0</ns3:atemp>
            <ns3:hr>71</ns3:hr>
          </ns3:TrackPointExtension>
        </extensions>
      </trkpt>
      <trkpt lat="36.77954234182834625244140625" lon="-118.5367638431489467620849609375">
        <ele>1900</ele>
        <time>2021-06-24T18:24:23.000Z</time>
        <extensions>
          <ns3:TrackPointExtension>
            <ns3:atemp>31.0</ns3:atemp>
            <ns3:hr>71</ns3:hr>
          </ns3:TrackPointExtension>
        </extensions>
      </trkpt>
      <trkpt lat="36.77954100072383880615234375" lon="-118.53672520257532596588134765625">
        <ele>1900</ele>
        <time>2021-06-24T18:24:27.000Z</time>
        <extensions>
          <ns3:TrackPointExtension>
            <ns3:atemp>31.0</ns3:atemp>
            <ns3:hr>72</ns3:hr>
          </ns3:TrackPointExtension>
        </extensions>
      </trkpt>
      <trkpt lat="36.77949649281799793243408203125" lon="-118.536672480404376983642578125">
        <ele>1900.199951171875</ele>
        <time>2021-06-24T18:24:32.000Z</time>
        <extensions>
          <ns3:TrackPointExtension>
            <ns3:atemp>31.0</ns3:atemp>
            <ns3:hr>71</ns3:hr>
          </ns3:TrackPointExtension>
        </extensions>
      </trkpt>
      <trkpt lat="36.77947394549846649169921875" lon="-118.53665001690387725830078125">
        <ele>1900.199951171875</ele>
        <time>2021-06-24T18:24:34.000Z</time>
        <extensions>
          <ns3:TrackPointExtension>
            <ns3:atemp>31.0</ns3:atemp>
            <ns3:hr>72</ns3:hr>
          </ns3:TrackPointExtension>
        </extensions>
      </trkpt>
      <trkpt lat="36.77945290692150592803955078125" lon="-118.5366129688918590545654296875">
        <ele>1900.800048828125</ele>
        <time>2021-06-24T18:24:37.000Z</time>
        <extensions>
          <ns3:TrackPointExtension>
            <ns3:atemp>31.0</ns3:atemp>
            <ns3:hr>72</ns3:hr>
          </ns3:TrackPointExtension>
        </extensions>
      </trkpt>
      <trkpt lat="36.7794493027031421661376953125" lon="-118.536604084074497222900390625">
        <ele>1900.800048828125</ele>
        <time>2021-06-24T18:24:38.000Z</time>
        <extensions>
          <ns3:TrackPointExtension>
            <ns3:atemp>31.0</ns3:atemp>
            <ns3:hr>73</ns3:hr>
          </ns3:TrackPointExtension>
        </extensions>
      </trkpt>
      <trkpt lat="36.7794197984039783477783203125" lon="-118.53659234941005706787109375">
        <ele>1901</ele>
        <time>2021-06-24T18:24:40.000Z</time>
        <extensions>
          <ns3:TrackPointExtension>
            <ns3:atemp>31.0</ns3:atemp>
            <ns3:hr>74</ns3:hr>
          </ns3:TrackPointExtension>
        </extensions>
      </trkpt>
      <trkpt lat="36.77937881089746952056884765625" lon="-118.53656846098601818084716796875">
        <ele>1901</ele>
        <time>2021-06-24T18:24:43.000Z</time>
        <extensions>
          <ns3:TrackPointExtension>
            <ns3:atemp>31.0</ns3:atemp>
            <ns3:hr>72</ns3:hr>
          </ns3:TrackPointExtension>
        </extensions>
      </trkpt>
      <trkpt lat="36.779362298548221588134765625" lon="-118.536539040505886077880859375">
        <ele>1901</ele>
        <time>2021-06-24T18:24:45.000Z</time>
        <extensions>
          <ns3:TrackPointExtension>
            <ns3:atemp>31.0</ns3:atemp>
            <ns3:hr>72</ns3:hr>
          </ns3:TrackPointExtension>
        </extensions>
      </trkpt>
      <trkpt lat="36.779347546398639678955078125" lon="-118.5364644415676593780517578125">
        <ele>1901.199951171875</ele>
        <time>2021-06-24T18:24:48.000Z</time>
        <extensions>
          <ns3:TrackPointExtension>
            <ns3:atemp>31.0</ns3:atemp>
            <ns3:hr>70</ns3:hr>
          </ns3:TrackPointExtension>
        </extensions>
      </trkpt>
      <trkpt lat="36.77933338098227977752685546875" lon="-118.5364463366568088531494140625">
        <ele>1901.199951171875</ele>
        <time>2021-06-24T18:24:49.000Z</time>
        <extensions>
          <ns3:TrackPointExtension>
            <ns3:atemp>31.0</ns3:atemp>
            <ns3:hr>69</ns3:hr>
          </ns3:TrackPointExtension>
        </extensions>
      </trkpt>
      <trkpt lat="36.77932835184037685394287109375" lon="-118.53642915375530719757080078125">
        <ele>1901.4000244140625</ele>
        <time>2021-06-24T18:24:51.000Z</time>
        <extensions>
          <ns3:TrackPointExtension>
            <ns3:atemp>31.0</ns3:atemp>
            <ns3:hr>68</ns3:hr>
          </ns3:TrackPointExtension>
        </extensions>
      </trkpt>
      <trkpt lat="36.77933312952518463134765625" lon="-118.5364114679396152496337890625">
        <ele>1901.5999755859375</ele>
        <time>2021-06-24T18:24:52.000Z</time>
        <extensions>
          <ns3:TrackPointExtension>
            <ns3:atemp>31.0</ns3:atemp>
            <ns3:hr>71</ns3:hr>
          </ns3:TrackPointExtension>
        </extensions>
      </trkpt>
      <trkpt lat="36.7793326266109943389892578125" lon="-118.5363930277526378631591796875">
        <ele>1901.5999755859375</ele>
        <time>2021-06-24T18:24:53.000Z</time>
        <extensions>
          <ns3:TrackPointExtension>
            <ns3:atemp>31.0</ns3:atemp>
            <ns3:hr>70</ns3:hr>
          </ns3:TrackPointExtension>
        </extensions>
      </trkpt>
      <trkpt lat="36.779335476458072662353515625" lon="-118.53636008687317371368408203125">
        <ele>1901.4000244140625</ele>
        <time>2021-06-24T18:24:55.000Z</time>
        <extensions>
          <ns3:TrackPointExtension>
            <ns3:atemp>31.0</ns3:atemp>
            <ns3:hr>69</ns3:hr>
          </ns3:TrackPointExtension>
        </extensions>
      </trkpt>
      <trkpt lat="36.77933312952518463134765625" lon="-118.53633594699203968048095703125">
        <ele>1901.4000244140625</ele>
        <time>2021-06-24T18:24:57.000Z</time>
        <extensions>
          <ns3:TrackPointExtension>
            <ns3:atemp>31.0</ns3:atemp>
            <ns3:hr>72</ns3:hr>
          </ns3:TrackPointExtension>
        </extensions>
      </trkpt>
      <trkpt lat="36.77932851947844028472900390625" lon="-118.53631063364446163177490234375">
        <ele>1901.4000244140625</ele>
        <time>2021-06-24T18:25:00.000Z</time>
        <extensions>
          <ns3:TrackPointExtension>
            <ns3:atemp>31.0</ns3:atemp>
            <ns3:hr>68</ns3:hr>
          </ns3:TrackPointExtension>
        </extensions>
      </trkpt>
      <trkpt lat="36.77932910621166229248046875" lon="-118.5363031737506389617919921875">
        <ele>1901.5999755859375</ele>
        <time>2021-06-24T18:25:01.000Z</time>
        <extensions>
          <ns3:TrackPointExtension>
            <ns3:atemp>31.0</ns3:atemp>
            <ns3:hr>69</ns3:hr>
          </ns3:TrackPointExtension>
        </extensions>
      </trkpt>
      <trkpt lat="36.77932164631783962249755859375" lon="-118.536282218992710113525390625">
        <ele>1902</ele>
        <time>2021-06-24T18:25:03.000Z</time>
        <extensions>
          <ns3:TrackPointExtension>
            <ns3:atemp>31.0</ns3:atemp>
            <ns3:hr>68</ns3:hr>
          </ns3:TrackPointExtension>
        </extensions>
      </trkpt>
      <trkpt lat="36.77931963466107845306396484375" lon="-118.536247350275516510009765625">
        <ele>1902.199951171875</ele>
        <time>2021-06-24T18:25:05.000Z</time>
        <extensions>
          <ns3:TrackPointExtension>
            <ns3:atemp>31.0</ns3:atemp>
            <ns3:hr>67</ns3:hr>
          </ns3:TrackPointExtension>
        </extensions>
      </trkpt>
      <trkpt lat="36.77932382561266422271728515625" lon="-118.53621038608253002166748046875">
        <ele>1902.4000244140625</ele>
        <time>2021-06-24T18:25:07.000Z</time>
        <extensions>
          <ns3:TrackPointExtension>
            <ns3:atemp>31.0</ns3:atemp>
            <ns3:hr>68</ns3:hr>
          </ns3:TrackPointExtension>
        </extensions>
      </trkpt>
      <trkpt lat="36.77933908067643642425537109375" lon="-118.5361397266387939453125">
        <ele>1903</ele>
        <time>2021-06-24T18:25:11.000Z</time>
        <extensions>
          <ns3:TrackPointExtension>
            <ns3:atemp>31.0</ns3:atemp>
            <ns3:hr>71</ns3:hr>
          </ns3:TrackPointExtension>
        </extensions>
      </trkpt>
      <trkpt lat="36.7793386615812778472900390625" lon="-118.53608616627752780914306640625">
        <ele>1903.199951171875</ele>
        <time>2021-06-24T18:25:15.000Z</time>
        <extensions>
          <ns3:TrackPointExtension>
            <ns3:atemp>31.0</ns3:atemp>
            <ns3:hr>72</ns3:hr>
          </ns3:TrackPointExtension>
        </extensions>
      </trkpt>
      <trkpt lat="36.77933908067643642425537109375" lon="-118.53606990538537502288818359375">
        <ele>1903.199951171875</ele>
        <time>2021-06-24T18:25:16.000Z</time>
        <extensions>
          <ns3:TrackPointExtension>
            <ns3:atemp>31.0</ns3:atemp>
            <ns3:hr>72</ns3:hr>
          </ns3:TrackPointExtension>
        </extensions>
      </trkpt>
      <trkpt lat="36.77933824248611927032470703125" lon="-118.53605800308287143707275390625">
        <ele>1903.199951171875</ele>
        <time>2021-06-24T18:25:17.000Z</time>
        <extensions>
          <ns3:TrackPointExtension>
            <ns3:atemp>31.0</ns3:atemp>
            <ns3:hr>72</ns3:hr>
          </ns3:TrackPointExtension>
        </extensions>
      </trkpt>
      <trkpt lat="36.7793527431786060333251953125" lon="-118.53599488735198974609375">
        <ele>1903.5999755859375</ele>
        <time>2021-06-24T18:25:21.000Z</time>
        <extensions>
          <ns3:TrackPointExtension>
            <ns3:atemp>31.0</ns3:atemp>
            <ns3:hr>72</ns3:hr>
          </ns3:TrackPointExtension>
        </extensions>
      </trkpt>
      <trkpt lat="36.7793540842831134796142578125" lon="-118.53597938083112239837646484375">
        <ele>1903.5999755859375</ele>
        <time>2021-06-24T18:25:22.000Z</time>
        <extensions>
          <ns3:TrackPointExtension>
            <ns3:atemp>31.0</ns3:atemp>
            <ns3:hr>73</ns3:hr>
          </ns3:TrackPointExtension>
        </extensions>
      </trkpt>
      <trkpt lat="36.779353581368923187255859375" lon="-118.5359176062047481536865234375">
        <ele>1904</ele>
        <time>2021-06-24T18:25:26.000Z</time>
        <extensions>
          <ns3:TrackPointExtension>
            <ns3:atemp>31.0</ns3:atemp>
            <ns3:hr>73</ns3:hr>
          </ns3:TrackPointExtension>
        </extensions>
      </trkpt>
      <trkpt lat="36.77935165353119373321533203125" lon="-118.5359125770628452301025390625">
        <ele>1904</ele>
        <time>2021-06-24T18:25:27.000Z</time>
        <extensions>
          <ns3:TrackPointExtension>
            <ns3:atemp>31.0</ns3:atemp>
            <ns3:hr>73</ns3:hr>
          </ns3:TrackPointExtension>
        </extensions>
      </trkpt>
      <trkpt lat="36.77934327162802219390869140625" lon="-118.5359072126448154449462890625">
        <ele>1904.199951171875</ele>
        <time>2021-06-24T18:25:28.000Z</time>
        <extensions>
          <ns3:TrackPointExtension>
            <ns3:atemp>31.0</ns3:atemp>
            <ns3:hr>73</ns3:hr>
          </ns3:TrackPointExtension>
        </extensions>
      </trkpt>
      <trkpt lat="36.77932969294488430023193359375" lon="-118.53588365949690341949462890625">
        <ele>1904.5999755859375</ele>
        <time>2021-06-24T18:25:31.000Z</time>
        <extensions>
          <ns3:TrackPointExtension>
            <ns3:atemp>31.0</ns3:atemp>
            <ns3:hr>76</ns3:hr>
          </ns3:TrackPointExtension>
        </extensions>
      </trkpt>
      <trkpt lat="36.77932919003069400787353515625" lon="-118.53586287237703800201416015625">
        <ele>1904.800048828125</ele>
        <time>2021-06-24T18:25:33.000Z</time>
        <extensions>
          <ns3:TrackPointExtension>
            <ns3:atemp>31.0</ns3:atemp>
            <ns3:hr>77</ns3:hr>
          </ns3:TrackPointExtension>
        </extensions>
      </trkpt>
      <trkpt lat="36.7793430201709270477294921875" lon="-118.53583303280174732208251953125">
        <ele>1905.199951171875</ele>
        <time>2021-06-24T18:25:36.000Z</time>
        <extensions>
          <ns3:TrackPointExtension>
            <ns3:atemp>31.0</ns3:atemp>
            <ns3:hr>77</ns3:hr>
          </ns3:TrackPointExtension>
        </extensions>
      </trkpt>
      <trkpt lat="36.77935098297894001007080078125" lon="-118.535807467997074127197265625">
        <ele>1905.5999755859375</ele>
        <time>2021-06-24T18:25:38.000Z</time>
        <extensions>
          <ns3:TrackPointExtension>
            <ns3:atemp>31.0</ns3:atemp>
            <ns3:hr>79</ns3:hr>
          </ns3:TrackPointExtension>
        </extensions>
      </trkpt>
      <trkpt lat="36.7793527431786060333251953125" lon="-118.535777963697910308837890625">
        <ele>1905.5999755859375</ele>
        <time>2021-06-24T18:25:40.000Z</time>
        <extensions>
          <ns3:TrackPointExtension>
            <ns3:atemp>31.0</ns3:atemp>
            <ns3:hr>82</ns3:hr>
          </ns3:TrackPointExtension>
        </extensions>
      </trkpt>
      <trkpt lat="36.77935115061700344085693359375" lon="-118.535764217376708984375">
        <ele>1905.5999755859375</ele>
        <time>2021-06-24T18:25:41.000Z</time>
        <extensions>
          <ns3:TrackPointExtension>
            <ns3:atemp>31.0</ns3:atemp>
            <ns3:hr>81</ns3:hr>
          </ns3:TrackPointExtension>
        </extensions>
      </trkpt>
      <trkpt lat="36.779345534741878509521484375" lon="-118.53575105778872966766357421875">
        <ele>1905.800048828125</ele>
        <time>2021-06-24T18:25:42.000Z</time>
        <extensions>
          <ns3:TrackPointExtension>
            <ns3:atemp>31.0</ns3:atemp>
            <ns3:hr>81</ns3:hr>
          </ns3:TrackPointExtension>
        </extensions>
      </trkpt>
      <trkpt lat="36.77933036349713802337646484375" lon="-118.53572691790759563446044921875">
        <ele>1906</ele>
        <time>2021-06-24T18:25:44.000Z</time>
        <extensions>
          <ns3:TrackPointExtension>
            <ns3:atemp>31.0</ns3:atemp>
            <ns3:hr>80</ns3:hr>
          </ns3:TrackPointExtension>
        </extensions>
      </trkpt>
      <trkpt lat="36.77931292913854122161865234375" lon="-118.53566455654799938201904296875">
        <ele>1906</ele>
        <time>2021-06-24T18:25:48.000Z</time>
        <extensions>
          <ns3:TrackPointExtension>
            <ns3:atemp>31.0</ns3:atemp>
            <ns3:hr>80</ns3:hr>
          </ns3:TrackPointExtension>
        </extensions>
      </trkpt>
      <trkpt lat="36.779304631054401397705078125" lon="-118.53563253767788410186767578125">
        <ele>1905.5999755859375</ele>
        <time>2021-06-24T18:25:50.000Z</time>
        <extensions>
          <ns3:TrackPointExtension>
            <ns3:atemp>31.0</ns3:atemp>
            <ns3:hr>79</ns3:hr>
          </ns3:TrackPointExtension>
        </extensions>
      </trkpt>
      <trkpt lat="36.77930152975022792816162109375" lon="-118.53559934534132480621337890625">
        <ele>1905.4000244140625</ele>
        <time>2021-06-24T18:25:52.000Z</time>
        <extensions>
          <ns3:TrackPointExtension>
            <ns3:atemp>31.0</ns3:atemp>
            <ns3:hr>78</ns3:hr>
          </ns3:TrackPointExtension>
        </extensions>
      </trkpt>
      <trkpt lat="36.7793125100433826446533203125" lon="-118.535581491887569427490234375">
        <ele>1905.199951171875</ele>
        <time>2021-06-24T18:25:54.000Z</time>
        <extensions>
          <ns3:TrackPointExtension>
            <ns3:atemp>31.0</ns3:atemp>
            <ns3:hr>78</ns3:hr>
          </ns3:TrackPointExtension>
        </extensions>
      </trkpt>
      <trkpt lat="36.77931544370949268341064453125" lon="-118.53553329594433307647705078125">
        <ele>1905.4000244140625</ele>
        <time>2021-06-24T18:25:57.000Z</time>
        <extensions>
          <ns3:TrackPointExtension>
            <ns3:atemp>31.0</ns3:atemp>
            <ns3:hr>82</ns3:hr>
          </ns3:TrackPointExtension>
        </extensions>
      </trkpt>
      <trkpt lat="36.77930152975022792816162109375" lon="-118.53550630621612071990966796875">
        <ele>1905.5999755859375</ele>
        <time>2021-06-24T18:25:59.000Z</time>
        <extensions>
          <ns3:TrackPointExtension>
            <ns3:atemp>31.0</ns3:atemp>
            <ns3:hr>85</ns3:hr>
          </ns3:TrackPointExtension>
        </extensions>
      </trkpt>
      <trkpt lat="36.779297254979610443115234375" lon="-118.53549205698072910308837890625">
        <ele>1905.5999755859375</ele>
        <time>2021-06-24T18:26:00.000Z</time>
        <extensions>
          <ns3:TrackPointExtension>
            <ns3:atemp>31.0</ns3:atemp>
            <ns3:hr>88</ns3:hr>
          </ns3:TrackPointExtension>
        </extensions>
      </trkpt>
      <trkpt lat="36.77929046563804149627685546875" lon="-118.53547311387956142425537109375">
        <ele>1905.5999755859375</ele>
        <time>2021-06-24T18:26:01.000Z</time>
        <extensions>
          <ns3:TrackPointExtension>
            <ns3:atemp>31.0</ns3:atemp>
            <ns3:hr>91</ns3:hr>
          </ns3:TrackPointExtension>
        </extensions>
      </trkpt>
      <trkpt lat="36.7792900465428829193115234375" lon="-118.535461127758026123046875">
        <ele>1905.5999755859375</ele>
        <time>2021-06-24T18:26:02.000Z</time>
        <extensions>
          <ns3:TrackPointExtension>
            <ns3:atemp>31.0</ns3:atemp>
            <ns3:hr>92</ns3:hr>
          </ns3:TrackPointExtension>
        </extensions>
      </trkpt>
      <trkpt lat="36.779291220009326934814453125" lon="-118.53542827069759368896484375">
        <ele>1905.800048828125</ele>
        <time>2021-06-24T18:26:04.000Z</time>
        <extensions>
          <ns3:TrackPointExtension>
            <ns3:atemp>31.0</ns3:atemp>
            <ns3:hr>96</ns3:hr>
          </ns3:TrackPointExtension>
        </extensions>
      </trkpt>
      <trkpt lat="36.7792568542063236236572265625" lon="-118.53537219576537609100341796875">
        <ele>1905.5999755859375</ele>
        <time>2021-06-24T18:26:07.000Z</time>
        <extensions>
          <ns3:TrackPointExtension>
            <ns3:atemp>31.0</ns3:atemp>
            <ns3:hr>94</ns3:hr>
          </ns3:TrackPointExtension>
        </extensions>
      </trkpt>
      <trkpt lat="36.77922072820365428924560546875" lon="-118.53534369729459285736083984375">
        <ele>1905.5999755859375</ele>
        <time>2021-06-24T18:26:09.000Z</time>
        <extensions>
          <ns3:TrackPointExtension>
            <ns3:atemp>31.0</ns3:atemp>
            <ns3:hr>95</ns3:hr>
          </ns3:TrackPointExtension>
        </extensions>
      </trkpt>
      <trkpt lat="36.77915719337761402130126953125" lon="-118.5352908074855804443359375">
        <ele>1905.800048828125</ele>
        <time>2021-06-24T18:26:14.000Z</time>
        <extensions>
          <ns3:TrackPointExtension>
            <ns3:atemp>31.0</ns3:atemp>
            <ns3:hr>99</ns3:hr>
          </ns3:TrackPointExtension>
        </extensions>
      </trkpt>
      <trkpt lat="36.779124923050403594970703125" lon="-118.5352711938321590423583984375">
        <ele>1906</ele>
        <time>2021-06-24T18:26:17.000Z</time>
        <extensions>
          <ns3:TrackPointExtension>
            <ns3:atemp>31.0</ns3:atemp>
            <ns3:hr>102</ns3:hr>
          </ns3:TrackPointExtension>
        </extensions>
      </trkpt>
      <trkpt lat="36.77910405211150646209716796875" lon="-118.5352393426001071929931640625">
        <ele>1906.4000244140625</ele>
        <time>2021-06-24T18:26:20.000Z</time>
        <extensions>
          <ns3:TrackPointExtension>
            <ns3:atemp>31.0</ns3:atemp>
            <ns3:hr>102</ns3:hr>
          </ns3:TrackPointExtension>
        </extensions>
      </trkpt>
      <trkpt lat="36.77908779121935367584228515625" lon="-118.5352145321667194366455078125">
        <ele>1906.5999755859375</ele>
        <time>2021-06-24T18:26:22.000Z</time>
        <extensions>
          <ns3:TrackPointExtension>
            <ns3:atemp>31.0</ns3:atemp>
            <ns3:hr>104</ns3:hr>
          </ns3:TrackPointExtension>
        </extensions>
      </trkpt>
      <trkpt lat="36.77905040793120861053466796875" lon="-118.53515292517840862274169921875">
        <ele>1906.800048828125</ele>
        <time>2021-06-24T18:26:28.000Z</time>
        <extensions>
          <ns3:TrackPointExtension>
            <ns3:atemp>32.0</ns3:atemp>
            <ns3:hr>101</ns3:hr>
          </ns3:TrackPointExtension>
        </extensions>
      </trkpt>
      <trkpt lat="36.77904487587511539459228515625" lon="-118.53514705784618854522705078125">
        <ele>1906.800048828125</ele>
        <time>2021-06-24T18:26:29.000Z</time>
        <extensions>
          <ns3:TrackPointExtension>
            <ns3:atemp>32.0</ns3:atemp>
            <ns3:hr>98</ns3:hr>
          </ns3:TrackPointExtension>
        </extensions>
      </trkpt>
      <trkpt lat="36.7790365777909755706787109375" lon="-118.5351253487169742584228515625">
        <ele>1907</ele>
        <time>2021-06-24T18:26:31.000Z</time>
        <extensions>
          <ns3:TrackPointExtension>
            <ns3:atemp>32.0</ns3:atemp>
            <ns3:hr>101</ns3:hr>
          </ns3:TrackPointExtension>
        </extensions>
      </trkpt>
      <trkpt lat="36.7790172994136810302734375" lon="-118.53510431014001369476318359375">
        <ele>1907</ele>
        <time>2021-06-24T18:26:32.000Z</time>
        <extensions>
          <ns3:TrackPointExtension>
            <ns3:atemp>32.0</ns3:atemp>
            <ns3:hr>100</ns3:hr>
          </ns3:TrackPointExtension>
        </extensions>
      </trkpt>
      <trkpt lat="36.7789889685809612274169921875" lon="-118.53507681749761104583740234375">
        <ele>1907.5999755859375</ele>
        <time>2021-06-24T18:26:34.000Z</time>
        <extensions>
          <ns3:TrackPointExtension>
            <ns3:atemp>32.0</ns3:atemp>
            <ns3:hr>99</ns3:hr>
          </ns3:TrackPointExtension>
        </extensions>
      </trkpt>
      <trkpt lat="36.77897639572620391845703125" lon="-118.53506147861480712890625">
        <ele>1907.5999755859375</ele>
        <time>2021-06-24T18:26:35.000Z</time>
        <extensions>
          <ns3:TrackPointExtension>
            <ns3:atemp>32.0</ns3:atemp>
            <ns3:hr>99</ns3:hr>
          </ns3:TrackPointExtension>
        </extensions>
      </trkpt>
      <trkpt lat="36.7789142020046710968017578125" lon="-118.53499970398843288421630859375">
        <ele>1907.5999755859375</ele>
        <time>2021-06-24T18:26:42.000Z</time>
        <extensions>
          <ns3:TrackPointExtension>
            <ns3:atemp>32.0</ns3:atemp>
            <ns3:hr>101</ns3:hr>
          </ns3:TrackPointExtension>
        </extensions>
      </trkpt>
      <trkpt lat="36.77890540100634098052978515625" lon="-118.53498210199177265167236328125">
        <ele>1907.4000244140625</ele>
        <time>2021-06-24T18:26:44.000Z</time>
        <extensions>
          <ns3:TrackPointExtension>
            <ns3:atemp>32.0</ns3:atemp>
            <ns3:hr>102</ns3:hr>
          </ns3:TrackPointExtension>
        </extensions>
      </trkpt>
      <trkpt lat="36.77885343320667743682861328125" lon="-118.53492979891598224639892578125">
        <ele>1908</ele>
        <time>2021-06-24T18:26:50.000Z</time>
        <extensions>
          <ns3:TrackPointExtension>
            <ns3:atemp>32.0</ns3:atemp>
            <ns3:hr>100</ns3:hr>
          </ns3:TrackPointExtension>
        </extensions>
      </trkpt>
      <trkpt lat="36.778839267790317535400390625" lon="-118.53492577560245990753173828125">
        <ele>1908</ele>
        <time>2021-06-24T18:26:51.000Z</time>
        <extensions>
          <ns3:TrackPointExtension>
            <ns3:atemp>32.0</ns3:atemp>
            <ns3:hr>99</ns3:hr>
          </ns3:TrackPointExtension>
        </extensions>
      </trkpt>
      <trkpt lat="36.7787898145616054534912109375" lon="-118.5348909907042980194091796875">
        <ele>1908.4000244140625</ele>
        <time>2021-06-24T18:26:55.000Z</time>
        <extensions>
          <ns3:TrackPointExtension>
            <ns3:atemp>32.0</ns3:atemp>
            <ns3:hr>98</ns3:hr>
          </ns3:TrackPointExtension>
        </extensions>
      </trkpt>
      <trkpt lat="36.778780929744243621826171875" lon="-118.5348638333380222320556640625">
        <ele>1908.5999755859375</ele>
        <time>2021-06-24T18:26:58.000Z</time>
        <extensions>
          <ns3:TrackPointExtension>
            <ns3:atemp>32.0</ns3:atemp>
            <ns3:hr>100</ns3:hr>
          </ns3:TrackPointExtension>
        </extensions>
      </trkpt>
      <trkpt lat="36.778796017169952392578125" lon="-118.53483273647725582122802734375">
        <ele>1909.199951171875</ele>
        <time>2021-06-24T18:27:00.000Z</time>
        <extensions>
          <ns3:TrackPointExtension>
            <ns3:atemp>32.0</ns3:atemp>
            <ns3:hr>97</ns3:hr>
          </ns3:TrackPointExtension>
        </extensions>
      </trkpt>
      <trkpt lat="36.77879408933222293853759765625" lon="-118.53481806814670562744140625">
        <ele>1909.199951171875</ele>
        <time>2021-06-24T18:27:01.000Z</time>
        <extensions>
          <ns3:TrackPointExtension>
            <ns3:atemp>32.0</ns3:atemp>
            <ns3:hr>96</ns3:hr>
          </ns3:TrackPointExtension>
        </extensions>
      </trkpt>
      <trkpt lat="36.77875754423439502716064453125" lon="-118.53479350917041301727294921875">
        <ele>1909.4000244140625</ele>
        <time>2021-06-24T18:27:04.000Z</time>
        <extensions>
          <ns3:TrackPointExtension>
            <ns3:atemp>32.0</ns3:atemp>
            <ns3:hr>93</ns3:hr>
          </ns3:TrackPointExtension>
        </extensions>
      </trkpt>
      <trkpt lat="36.7787177301943302154541015625" lon="-118.5347609035670757293701171875">
        <ele>1909.199951171875</ele>
        <time>2021-06-24T18:27:08.000Z</time>
        <extensions>
          <ns3:TrackPointExtension>
            <ns3:atemp>32.0</ns3:atemp>
            <ns3:hr>91</ns3:hr>
          </ns3:TrackPointExtension>
        </extensions>
      </trkpt>
      <trkpt lat="36.77868395112454891204833984375" lon="-118.5346712172031402587890625">
        <ele>1909.4000244140625</ele>
        <time>2021-06-24T18:27:15.000Z</time>
        <extensions>
          <ns3:TrackPointExtension>
            <ns3:atemp>32.0</ns3:atemp>
            <ns3:hr>92</ns3:hr>
          </ns3:TrackPointExtension>
        </extensions>
      </trkpt>
      <trkpt lat="36.77867607213556766510009765625" lon="-118.5346402041614055633544921875">
        <ele>1909.5999755859375</ele>
        <time>2021-06-24T18:27:17.000Z</time>
        <extensions>
          <ns3:TrackPointExtension>
            <ns3:atemp>32.0</ns3:atemp>
            <ns3:hr>91</ns3:hr>
          </ns3:TrackPointExtension>
        </extensions>
      </trkpt>
      <trkpt lat="36.7786640860140323638916015625" lon="-118.5345181636512279510498046875">
        <ele>1909.5999755859375</ele>
        <time>2021-06-24T18:27:24.000Z</time>
        <extensions>
          <ns3:TrackPointExtension>
            <ns3:atemp>32.0</ns3:atemp>
            <ns3:hr>87</ns3:hr>
          </ns3:TrackPointExtension>
        </extensions>
      </trkpt>
      <trkpt lat="36.7786734737455844879150390625" lon="-118.53450366295874118804931640625">
        <ele>1909.800048828125</ele>
        <time>2021-06-24T18:27:25.000Z</time>
        <extensions>
          <ns3:TrackPointExtension>
            <ns3:atemp>32.0</ns3:atemp>
            <ns3:hr>90</ns3:hr>
          </ns3:TrackPointExtension>
        </extensions>
      </trkpt>
      <trkpt lat="36.77868445403873920440673828125" lon="-118.534456305205821990966796875">
        <ele>1909.800048828125</ele>
        <time>2021-06-24T18:27:29.000Z</time>
        <extensions>
          <ns3:TrackPointExtension>
            <ns3:atemp>32.0</ns3:atemp>
            <ns3:hr>87</ns3:hr>
          </ns3:TrackPointExtension>
        </extensions>
      </trkpt>
      <trkpt lat="36.7786912433803081512451171875" lon="-118.53444398380815982818603515625">
        <ele>1909.800048828125</ele>
        <time>2021-06-24T18:27:30.000Z</time>
        <extensions>
          <ns3:TrackPointExtension>
            <ns3:atemp>32.0</ns3:atemp>
            <ns3:hr>86</ns3:hr>
          </ns3:TrackPointExtension>
        </extensions>
      </trkpt>
      <trkpt lat="36.7786999605596065521240234375" lon="-118.53437743149697780609130859375">
        <ele>1910.199951171875</ele>
        <time>2021-06-24T18:27:35.000Z</time>
        <extensions>
          <ns3:TrackPointExtension>
            <ns3:atemp>32.0</ns3:atemp>
            <ns3:hr>87</ns3:hr>
          </ns3:TrackPointExtension>
        </extensions>
      </trkpt>
      <trkpt lat="36.77869099192321300506591796875" lon="-118.53436536155641078948974609375">
        <ele>1910.199951171875</ele>
        <time>2021-06-24T18:27:36.000Z</time>
        <extensions>
          <ns3:TrackPointExtension>
            <ns3:atemp>32.0</ns3:atemp>
            <ns3:hr>83</ns3:hr>
          </ns3:TrackPointExtension>
        </extensions>
      </trkpt>
      <trkpt lat="36.77867875434458255767822265625" lon="-118.53428288362920284271240234375">
        <ele>1910.199951171875</ele>
        <time>2021-06-24T18:27:42.000Z</time>
        <extensions>
          <ns3:TrackPointExtension>
            <ns3:atemp>32.0</ns3:atemp>
            <ns3:hr>84</ns3:hr>
          </ns3:TrackPointExtension>
        </extensions>
      </trkpt>
      <trkpt lat="36.7786821909248828887939453125" lon="-118.5342720709741115570068359375">
        <ele>1910.199951171875</ele>
        <time>2021-06-24T18:27:43.000Z</time>
        <extensions>
          <ns3:TrackPointExtension>
            <ns3:atemp>32.0</ns3:atemp>
            <ns3:hr>84</ns3:hr>
          </ns3:TrackPointExtension>
        </extensions>
      </trkpt>
      <trkpt lat="36.77866869606077671051025390625" lon="-118.53424717672169208526611328125">
        <ele>1910.199951171875</ele>
        <time>2021-06-24T18:27:45.000Z</time>
        <extensions>
          <ns3:TrackPointExtension>
            <ns3:atemp>32.0</ns3:atemp>
            <ns3:hr>84</ns3:hr>
          </ns3:TrackPointExtension>
        </extensions>
      </trkpt>
      <trkpt lat="36.7786552011966705322265625" lon="-118.53421683423221111297607421875">
        <ele>1910.199951171875</ele>
        <time>2021-06-24T18:27:47.000Z</time>
        <extensions>
          <ns3:TrackPointExtension>
            <ns3:atemp>32.0</ns3:atemp>
            <ns3:hr>84</ns3:hr>
          </ns3:TrackPointExtension>
        </extensions>
      </trkpt>
      <trkpt lat="36.77861656062304973602294921875" lon="-118.5341114737093448638916015625">
        <ele>1910</ele>
        <time>2021-06-24T18:27:55.000Z</time>
        <extensions>
          <ns3:TrackPointExtension>
            <ns3:atemp>32.0</ns3:atemp>
            <ns3:hr>83</ns3:hr>
          </ns3:TrackPointExtension>
        </extensions>
      </trkpt>
      <trkpt lat="36.77859560586512088775634765625" lon="-118.534064702689647674560546875">
        <ele>1910.199951171875</ele>
        <time>2021-06-24T18:27:59.000Z</time>
        <extensions>
          <ns3:TrackPointExtension>
            <ns3:atemp>32.0</ns3:atemp>
            <ns3:hr>84</ns3:hr>
          </ns3:TrackPointExtension>
        </extensions>
      </trkpt>
      <trkpt lat="36.7785913310945034027099609375" lon="-118.5340538062155246734619140625">
        <ele>1910.4000244140625</ele>
        <time>2021-06-24T18:28:00.000Z</time>
        <extensions>
          <ns3:TrackPointExtension>
            <ns3:atemp>32.0</ns3:atemp>
            <ns3:hr>80</ns3:hr>
          </ns3:TrackPointExtension>
        </extensions>
      </trkpt>
      <trkpt lat="36.7785839550197124481201171875" lon="-118.5340393893420696258544921875">
        <ele>1910.5999755859375</ele>
        <time>2021-06-24T18:28:02.000Z</time>
        <extensions>
          <ns3:TrackPointExtension>
            <ns3:atemp>32.0</ns3:atemp>
            <ns3:hr>80</ns3:hr>
          </ns3:TrackPointExtension>
        </extensions>
      </trkpt>
      <trkpt lat="36.7785749025642871856689453125" lon="-118.5340226255357265472412109375">
        <ele>1910.5999755859375</ele>
        <time>2021-06-24T18:28:03.000Z</time>
        <extensions>
          <ns3:TrackPointExtension>
            <ns3:atemp>32.0</ns3:atemp>
            <ns3:hr>83</ns3:hr>
          </ns3:TrackPointExtension>
        </extensions>
      </trkpt>
      <trkpt lat="36.77855688147246837615966796875" lon="-118.53397317230701446533203125">
        <ele>1911</ele>
        <time>2021-06-24T18:28:06.000Z</time>
        <extensions>
          <ns3:TrackPointExtension>
            <ns3:atemp>32.0</ns3:atemp>
            <ns3:hr>83</ns3:hr>
          </ns3:TrackPointExtension>
        </extensions>
      </trkpt>
      <trkpt lat="36.77853760309517383575439453125" lon="-118.53392095305025577545166015625">
        <ele>1911</ele>
        <time>2021-06-24T18:28:09.000Z</time>
        <extensions>
          <ns3:TrackPointExtension>
            <ns3:atemp>32.0</ns3:atemp>
            <ns3:hr>82</ns3:hr>
          </ns3:TrackPointExtension>
        </extensions>
      </trkpt>
      <trkpt lat="36.77852737717330455780029296875" lon="-118.53387057781219482421875">
        <ele>1911.4000244140625</ele>
        <time>2021-06-24T18:28:14.000Z</time>
        <extensions>
          <ns3:TrackPointExtension>
            <ns3:atemp>32.0</ns3:atemp>
            <ns3:hr>83</ns3:hr>
          </ns3:TrackPointExtension>
        </extensions>
      </trkpt>
      <trkpt lat="36.77853383123874664306640625" lon="-118.53384601883590221405029296875">
        <ele>1911.4000244140625</ele>
        <time>2021-06-24T18:28:16.000Z</time>
        <extensions>
          <ns3:TrackPointExtension>
            <ns3:atemp>32.0</ns3:atemp>
            <ns3:hr>84</ns3:hr>
          </ns3:TrackPointExtension>
        </extensions>
      </trkpt>
      <trkpt lat="36.77853810600936412811279296875" lon="-118.533819615840911865234375">
        <ele>1911.5999755859375</ele>
        <time>2021-06-24T18:28:18.000Z</time>
        <extensions>
          <ns3:TrackPointExtension>
            <ns3:atemp>32.0</ns3:atemp>
            <ns3:hr>83</ns3:hr>
          </ns3:TrackPointExtension>
        </extensions>
      </trkpt>
      <trkpt lat="36.778538860380649566650390625" lon="-118.53379623033106327056884765625">
        <ele>1911.800048828125</ele>
        <time>2021-06-24T18:28:20.000Z</time>
        <extensions>
          <ns3:TrackPointExtension>
            <ns3:atemp>32.0</ns3:atemp>
            <ns3:hr>84</ns3:hr>
          </ns3:TrackPointExtension>
        </extensions>
      </trkpt>
      <trkpt lat="36.7785477451980113983154296875" lon="-118.53378717787563800811767578125">
        <ele>1911.800048828125</ele>
        <time>2021-06-24T18:28:21.000Z</time>
        <extensions>
          <ns3:TrackPointExtension>
            <ns3:atemp>32.0</ns3:atemp>
            <ns3:hr>85</ns3:hr>
          </ns3:TrackPointExtension>
        </extensions>
      </trkpt>
      <trkpt lat="36.77855906076729297637939453125" lon="-118.53377477265894412994384765625">
        <ele>1912</ele>
        <time>2021-06-24T18:28:22.000Z</time>
        <extensions>
          <ns3:TrackPointExtension>
            <ns3:atemp>32.0</ns3:atemp>
            <ns3:hr>85</ns3:hr>
          </ns3:TrackPointExtension>
        </extensions>
      </trkpt>
      <trkpt lat="36.7785829491913318634033203125" lon="-118.533756919205188751220703125">
        <ele>1912.199951171875</ele>
        <time>2021-06-24T18:28:25.000Z</time>
        <extensions>
          <ns3:TrackPointExtension>
            <ns3:atemp>32.0</ns3:atemp>
            <ns3:hr>88</ns3:hr>
          </ns3:TrackPointExtension>
        </extensions>
      </trkpt>
      <trkpt lat="36.77858253009617328643798828125" lon="-118.5337507165968418121337890625">
        <ele>1912.4000244140625</ele>
        <time>2021-06-24T18:28:26.000Z</time>
        <extensions>
          <ns3:TrackPointExtension>
            <ns3:atemp>32.0</ns3:atemp>
            <ns3:hr>89</ns3:hr>
          </ns3:TrackPointExtension>
        </extensions>
      </trkpt>
      <trkpt lat="36.77857951261103153228759765625" lon="-118.53374124504625797271728515625">
        <ele>1912.4000244140625</ele>
        <time>2021-06-24T18:28:28.000Z</time>
        <extensions>
          <ns3:TrackPointExtension>
            <ns3:atemp>32.0</ns3:atemp>
            <ns3:hr>91</ns3:hr>
          </ns3:TrackPointExtension>
        </extensions>
      </trkpt>
      <trkpt lat="36.778595857322216033935546875" lon="-118.53372372686862945556640625">
        <ele>1912.5999755859375</ele>
        <time>2021-06-24T18:28:30.000Z</time>
        <extensions>
          <ns3:TrackPointExtension>
            <ns3:atemp>32.0</ns3:atemp>
            <ns3:hr>89</ns3:hr>
          </ns3:TrackPointExtension>
        </extensions>
      </trkpt>
      <trkpt lat="36.77860482595860958099365234375" lon="-118.5336990840733051300048828125">
        <ele>1912.800048828125</ele>
        <time>2021-06-24T18:28:32.000Z</time>
        <extensions>
          <ns3:TrackPointExtension>
            <ns3:atemp>32.0</ns3:atemp>
            <ns3:hr>92</ns3:hr>
          </ns3:TrackPointExtension>
        </extensions>
      </trkpt>
      <trkpt lat="36.77861136384308338165283203125" lon="-118.53368818759918212890625">
        <ele>1913</ele>
        <time>2021-06-24T18:28:33.000Z</time>
        <extensions>
          <ns3:TrackPointExtension>
            <ns3:atemp>32.0</ns3:atemp>
            <ns3:hr>89</ns3:hr>
          </ns3:TrackPointExtension>
        </extensions>
      </trkpt>
      <trkpt lat="36.7786312289535999298095703125" lon="-118.5336766205728054046630859375">
        <ele>1913.199951171875</ele>
        <time>2021-06-24T18:28:34.000Z</time>
        <extensions>
          <ns3:TrackPointExtension>
            <ns3:atemp>32.0</ns3:atemp>
            <ns3:hr>91</ns3:hr>
          </ns3:TrackPointExtension>
        </extensions>
      </trkpt>
      <trkpt lat="36.77868680097162723541259765625" lon="-118.53361400775611400604248046875">
        <ele>1913.800048828125</ele>
        <time>2021-06-24T18:28:39.000Z</time>
        <extensions>
          <ns3:TrackPointExtension>
            <ns3:atemp>32.0</ns3:atemp>
            <ns3:hr>94</ns3:hr>
          </ns3:TrackPointExtension>
        </extensions>
      </trkpt>
      <trkpt lat="36.77868898026645183563232421875" lon="-118.53359070606529712677001953125">
        <ele>1914</ele>
        <time>2021-06-24T18:28:41.000Z</time>
        <extensions>
          <ns3:TrackPointExtension>
            <ns3:atemp>32.0</ns3:atemp>
            <ns3:hr>95</ns3:hr>
          </ns3:TrackPointExtension>
        </extensions>
      </trkpt>
      <trkpt lat="36.7786825262010097503662109375" lon="-118.5335545800626277923583984375">
        <ele>1914</ele>
        <time>2021-06-24T18:28:43.000Z</time>
        <extensions>
          <ns3:TrackPointExtension>
            <ns3:atemp>32.0</ns3:atemp>
            <ns3:hr>93</ns3:hr>
          </ns3:TrackPointExtension>
        </extensions>
      </trkpt>
      <trkpt lat="36.77866148762404918670654296875" lon="-118.5334851779043674468994140625">
        <ele>1914.4000244140625</ele>
        <time>2021-06-24T18:28:47.000Z</time>
        <extensions>
          <ns3:TrackPointExtension>
            <ns3:atemp>32.0</ns3:atemp>
            <ns3:hr>92</ns3:hr>
          </ns3:TrackPointExtension>
        </extensions>
      </trkpt>
      <trkpt lat="36.7786552011966705322265625" lon="-118.53346514515578746795654296875">
        <ele>1914.4000244140625</ele>
        <time>2021-06-24T18:28:49.000Z</time>
        <extensions>
          <ns3:TrackPointExtension>
            <ns3:atemp>32.0</ns3:atemp>
            <ns3:hr>92</ns3:hr>
          </ns3:TrackPointExtension>
        </extensions>
      </trkpt>
      <trkpt lat="36.7786557041108608245849609375" lon="-118.53345123119652271270751953125">
        <ele>1914.5999755859375</ele>
        <time>2021-06-24T18:28:50.000Z</time>
        <extensions>
          <ns3:TrackPointExtension>
            <ns3:atemp>32.0</ns3:atemp>
            <ns3:hr>97</ns3:hr>
          </ns3:TrackPointExtension>
        </extensions>
      </trkpt>
      <trkpt lat="36.77865662612020969390869140625" lon="-118.5334382392466068267822265625">
        <ele>1914.5999755859375</ele>
        <time>2021-06-24T18:28:51.000Z</time>
        <extensions>
          <ns3:TrackPointExtension>
            <ns3:atemp>32.0</ns3:atemp>
            <ns3:hr>97</ns3:hr>
          </ns3:TrackPointExtension>
        </extensions>
      </trkpt>
      <trkpt lat="36.77865025587379932403564453125" lon="-118.53341267444193363189697265625">
        <ele>1914.800048828125</ele>
        <time>2021-06-24T18:28:53.000Z</time>
        <extensions>
          <ns3:TrackPointExtension>
            <ns3:atemp>32.0</ns3:atemp>
            <ns3:hr>97</ns3:hr>
          </ns3:TrackPointExtension>
        </extensions>
      </trkpt>
      <trkpt lat="36.7786503396928310394287109375" lon="-118.53336925618350505828857421875">
        <ele>1914.5999755859375</ele>
        <time>2021-06-24T18:28:56.000Z</time>
        <extensions>
          <ns3:TrackPointExtension>
            <ns3:atemp>32.0</ns3:atemp>
            <ns3:hr>97</ns3:hr>
          </ns3:TrackPointExtension>
        </extensions>
      </trkpt>
      <trkpt lat="36.77865930832922458648681640625" lon="-118.53332449682056903839111328125">
        <ele>1914.5999755859375</ele>
        <time>2021-06-24T18:28:59.000Z</time>
        <extensions>
          <ns3:TrackPointExtension>
            <ns3:atemp>32.0</ns3:atemp>
            <ns3:hr>92</ns3:hr>
          </ns3:TrackPointExtension>
        </extensions>
      </trkpt>
      <trkpt lat="36.7786614038050174713134765625" lon="-118.533311672508716583251953125">
        <ele>1914.5999755859375</ele>
        <time>2021-06-24T18:29:00.000Z</time>
        <extensions>
          <ns3:TrackPointExtension>
            <ns3:atemp>32.0</ns3:atemp>
            <ns3:hr>92</ns3:hr>
          </ns3:TrackPointExtension>
        </extensions>
      </trkpt>
      <trkpt lat="36.778660900890827178955078125" lon="-118.53328786790370941162109375">
        <ele>1914.800048828125</ele>
        <time>2021-06-24T18:29:02.000Z</time>
        <extensions>
          <ns3:TrackPointExtension>
            <ns3:atemp>32.0</ns3:atemp>
            <ns3:hr>91</ns3:hr>
          </ns3:TrackPointExtension>
        </extensions>
      </trkpt>
      <trkpt lat="36.77865377627313137054443359375" lon="-118.53326909244060516357421875">
        <ele>1915</ele>
        <time>2021-06-24T18:29:03.000Z</time>
        <extensions>
          <ns3:TrackPointExtension>
            <ns3:atemp>32.0</ns3:atemp>
            <ns3:hr>91</ns3:hr>
          </ns3:TrackPointExtension>
        </extensions>
      </trkpt>
      <trkpt lat="36.7786278761923313140869140625" lon="-118.5332330502569675445556640625">
        <ele>1915</ele>
        <time>2021-06-24T18:29:05.000Z</time>
        <extensions>
          <ns3:TrackPointExtension>
            <ns3:atemp>32.0</ns3:atemp>
            <ns3:hr>91</ns3:hr>
          </ns3:TrackPointExtension>
        </extensions>
      </trkpt>
      <trkpt lat="36.778627373278141021728515625" lon="-118.5332152806222438812255859375">
        <ele>1915</ele>
        <time>2021-06-24T18:29:07.000Z</time>
        <extensions>
          <ns3:TrackPointExtension>
            <ns3:atemp>32.0</ns3:atemp>
            <ns3:hr>88</ns3:hr>
          </ns3:TrackPointExtension>
        </extensions>
      </trkpt>
      <trkpt lat="36.778629720211029052734375" lon="-118.533205054700374603271484375">
        <ele>1915.4000244140625</ele>
        <time>2021-06-24T18:29:08.000Z</time>
        <extensions>
          <ns3:TrackPointExtension>
            <ns3:atemp>32.0</ns3:atemp>
            <ns3:hr>90</ns3:hr>
          </ns3:TrackPointExtension>
        </extensions>
      </trkpt>
      <trkpt lat="36.77863114513456821441650390625" lon="-118.533178903162479400634765625">
        <ele>1915.800048828125</ele>
        <time>2021-06-24T18:29:10.000Z</time>
        <extensions>
          <ns3:TrackPointExtension>
            <ns3:atemp>32.0</ns3:atemp>
            <ns3:hr>91</ns3:hr>
          </ns3:TrackPointExtension>
        </extensions>
      </trkpt>
      <trkpt lat="36.778634078800678253173828125" lon="-118.5331535898149013519287109375">
        <ele>1916.199951171875</ele>
        <time>2021-06-24T18:29:12.000Z</time>
        <extensions>
          <ns3:TrackPointExtension>
            <ns3:atemp>32.0</ns3:atemp>
            <ns3:hr>92</ns3:hr>
          </ns3:TrackPointExtension>
        </extensions>
      </trkpt>
      <trkpt lat="36.7786359228193759918212890625" lon="-118.5331351496279239654541015625">
        <ele>1916.199951171875</ele>
        <time>2021-06-24T18:29:14.000Z</time>
        <extensions>
          <ns3:TrackPointExtension>
            <ns3:atemp>32.0</ns3:atemp>
            <ns3:hr>92</ns3:hr>
          </ns3:TrackPointExtension>
        </extensions>
      </trkpt>
      <trkpt lat="36.77864673547446727752685546875" lon="-118.53309885598719120025634765625">
        <ele>1916.199951171875</ele>
        <time>2021-06-24T18:29:17.000Z</time>
        <extensions>
          <ns3:TrackPointExtension>
            <ns3:atemp>32.0</ns3:atemp>
            <ns3:hr>93</ns3:hr>
          </ns3:TrackPointExtension>
        </extensions>
      </trkpt>
      <trkpt lat="36.778650842607021331787109375" lon="-118.5330815054476261138916015625">
        <ele>1915.800048828125</ele>
        <time>2021-06-24T18:29:19.000Z</time>
        <extensions>
          <ns3:TrackPointExtension>
            <ns3:atemp>32.0</ns3:atemp>
            <ns3:hr>93</ns3:hr>
          </ns3:TrackPointExtension>
        </extensions>
      </trkpt>
      <trkpt lat="36.778649501502513885498046875" lon="-118.53308175690472126007080078125">
        <ele>1915.800048828125</ele>
        <time>2021-06-24T18:29:20.000Z</time>
        <extensions>
          <ns3:TrackPointExtension>
            <ns3:atemp>32.0</ns3:atemp>
            <ns3:hr>96</ns3:hr>
          </ns3:TrackPointExtension>
        </extensions>
      </trkpt>
      <trkpt lat="36.7786493338644504547119140625" lon="-118.53306951932609081268310546875">
        <ele>1915.5999755859375</ele>
        <time>2021-06-24T18:29:21.000Z</time>
        <extensions>
          <ns3:TrackPointExtension>
            <ns3:atemp>32.0</ns3:atemp>
            <ns3:hr>94</ns3:hr>
          </ns3:TrackPointExtension>
        </extensions>
      </trkpt>
      <trkpt lat="36.77865562029182910919189453125" lon="-118.53294915519654750823974609375">
        <ele>1915.5999755859375</ele>
        <time>2021-06-24T18:29:27.000Z</time>
        <extensions>
          <ns3:TrackPointExtension>
            <ns3:atemp>32.0</ns3:atemp>
            <ns3:hr>91</ns3:hr>
          </ns3:TrackPointExtension>
        </extensions>
      </trkpt>
      <trkpt lat="36.7786577157676219940185546875" lon="-118.5329195670783519744873046875">
        <ele>1915.5999755859375</ele>
        <time>2021-06-24T18:29:29.000Z</time>
        <extensions>
          <ns3:TrackPointExtension>
            <ns3:atemp>32.0</ns3:atemp>
            <ns3:hr>92</ns3:hr>
          </ns3:TrackPointExtension>
        </extensions>
      </trkpt>
      <trkpt lat="36.77866115234792232513427734375" lon="-118.5329078324139118194580078125">
        <ele>1915.5999755859375</ele>
        <time>2021-06-24T18:29:30.000Z</time>
        <extensions>
          <ns3:TrackPointExtension>
            <ns3:atemp>32.0</ns3:atemp>
            <ns3:hr>92</ns3:hr>
          </ns3:TrackPointExtension>
        </extensions>
      </trkpt>
      <trkpt lat="36.778663583099842071533203125" lon="-118.532869108021259307861328125">
        <ele>1915.800048828125</ele>
        <time>2021-06-24T18:29:34.000Z</time>
        <extensions>
          <ns3:TrackPointExtension>
            <ns3:atemp>32.0</ns3:atemp>
            <ns3:hr>92</ns3:hr>
          </ns3:TrackPointExtension>
        </extensions>
      </trkpt>
      <trkpt lat="36.7786751501262187957763671875" lon="-118.5328501649200916290283203125">
        <ele>1915.800048828125</ele>
        <time>2021-06-24T18:29:36.000Z</time>
        <extensions>
          <ns3:TrackPointExtension>
            <ns3:atemp>32.0</ns3:atemp>
            <ns3:hr>90</ns3:hr>
          </ns3:TrackPointExtension>
        </extensions>
      </trkpt>
      <trkpt lat="36.7786899022758007049560546875" lon="-118.53278134949505329132080078125">
        <ele>1916.4000244140625</ele>
        <time>2021-06-24T18:29:41.000Z</time>
        <extensions>
          <ns3:TrackPointExtension>
            <ns3:atemp>32.0</ns3:atemp>
            <ns3:hr>87</ns3:hr>
          </ns3:TrackPointExtension>
        </extensions>
      </trkpt>
      <trkpt lat="36.7786821909248828887939453125" lon="-118.53268428705632686614990234375">
        <ele>1917.199951171875</ele>
        <time>2021-06-24T18:29:49.000Z</time>
        <extensions>
          <ns3:TrackPointExtension>
            <ns3:atemp>32.0</ns3:atemp>
            <ns3:hr>87</ns3:hr>
          </ns3:TrackPointExtension>
        </extensions>
      </trkpt>
      <trkpt lat="36.778691746294498443603515625" lon="-118.5326798446476459503173828125">
        <ele>1917.4000244140625</ele>
        <time>2021-06-24T18:29:50.000Z</time>
        <extensions>
          <ns3:TrackPointExtension>
            <ns3:atemp>32.0</ns3:atemp>
            <ns3:hr>88</ns3:hr>
          </ns3:TrackPointExtension>
        </extensions>
      </trkpt>
      <trkpt lat="36.77870188839733600616455078125" lon="-118.5326691158115863800048828125">
        <ele>1917.5999755859375</ele>
        <time>2021-06-24T18:29:51.000Z</time>
        <extensions>
          <ns3:TrackPointExtension>
            <ns3:atemp>32.0</ns3:atemp>
            <ns3:hr>88</ns3:hr>
          </ns3:TrackPointExtension>
        </extensions>
      </trkpt>
      <trkpt lat="36.77867456339299678802490234375" lon="-118.5326000489294528961181640625">
        <ele>1918</ele>
        <time>2021-06-24T18:29:56.000Z</time>
        <extensions>
          <ns3:TrackPointExtension>
            <ns3:atemp>32.0</ns3:atemp>
            <ns3:hr>94</ns3:hr>
          </ns3:TrackPointExtension>
        </extensions>
      </trkpt>
      <trkpt lat="36.77867104299366474151611328125" lon="-118.53253827430307865142822265625">
        <ele>1918.4000244140625</ele>
        <time>2021-06-24T18:30:01.000Z</time>
        <extensions>
          <ns3:TrackPointExtension>
            <ns3:atemp>32.0</ns3:atemp>
            <ns3:hr>92</ns3:hr>
          </ns3:TrackPointExtension>
        </extensions>
      </trkpt>
      <trkpt lat="36.778671629726886749267578125" lon="-118.5325081832706928253173828125">
        <ele>1918.5999755859375</ele>
        <time>2021-06-24T18:30:03.000Z</time>
        <extensions>
          <ns3:TrackPointExtension>
            <ns3:atemp>32.0</ns3:atemp>
            <ns3:hr>94</ns3:hr>
          </ns3:TrackPointExtension>
        </extensions>
      </trkpt>
      <trkpt lat="36.77867506630718708038330078125" lon="-118.53249485604465007781982421875">
        <ele>1918.5999755859375</ele>
        <time>2021-06-24T18:30:04.000Z</time>
        <extensions>
          <ns3:TrackPointExtension>
            <ns3:atemp>32.0</ns3:atemp>
            <ns3:hr>95</ns3:hr>
          </ns3:TrackPointExtension>
        </extensions>
      </trkpt>
      <trkpt lat="36.77867732942104339599609375" lon="-118.53245831094682216644287109375">
        <ele>1919</ele>
        <time>2021-06-24T18:30:07.000Z</time>
        <extensions>
          <ns3:TrackPointExtension>
            <ns3:atemp>32.0</ns3:atemp>
            <ns3:hr>99</ns3:hr>
          </ns3:TrackPointExtension>
        </extensions>
      </trkpt>
      <trkpt lat="36.77867598831653594970703125" lon="-118.532446324825286865234375">
        <ele>1919</ele>
        <time>2021-06-24T18:30:08.000Z</time>
        <extensions>
          <ns3:TrackPointExtension>
            <ns3:atemp>32.0</ns3:atemp>
            <ns3:hr>98</ns3:hr>
          </ns3:TrackPointExtension>
        </extensions>
      </trkpt>
      <trkpt lat="36.77868646569550037384033203125" lon="-118.53241824544966220855712890625">
        <ele>1919.4000244140625</ele>
        <time>2021-06-24T18:30:11.000Z</time>
        <extensions>
          <ns3:TrackPointExtension>
            <ns3:atemp>32.0</ns3:atemp>
            <ns3:hr>101</ns3:hr>
          </ns3:TrackPointExtension>
        </extensions>
      </trkpt>
      <trkpt lat="36.77869652397930622100830078125" lon="-118.53241019882261753082275390625">
        <ele>1919.4000244140625</ele>
        <time>2021-06-24T18:30:12.000Z</time>
        <extensions>
          <ns3:TrackPointExtension>
            <ns3:atemp>32.0</ns3:atemp>
            <ns3:hr>102</ns3:hr>
          </ns3:TrackPointExtension>
        </extensions>
      </trkpt>
      <trkpt lat="36.7787100188434123992919921875" lon="-118.53238572366535663604736328125">
        <ele>1919.4000244140625</ele>
        <time>2021-06-24T18:30:14.000Z</time>
        <extensions>
          <ns3:TrackPointExtension>
            <ns3:atemp>32.0</ns3:atemp>
            <ns3:hr>105</ns3:hr>
          </ns3:TrackPointExtension>
        </extensions>
      </trkpt>
      <trkpt lat="36.7787150479853153228759765625" lon="-118.53236443363130092620849609375">
        <ele>1919.4000244140625</ele>
        <time>2021-06-24T18:30:16.000Z</time>
        <extensions>
          <ns3:TrackPointExtension>
            <ns3:atemp>32.0</ns3:atemp>
            <ns3:hr>106</ns3:hr>
          </ns3:TrackPointExtension>
        </extensions>
      </trkpt>
      <trkpt lat="36.77876181900501251220703125" lon="-118.5323160700500011444091796875">
        <ele>1919.800048828125</ele>
        <time>2021-06-24T18:30:21.000Z</time>
        <extensions>
          <ns3:TrackPointExtension>
            <ns3:atemp>32.0</ns3:atemp>
            <ns3:hr>108</ns3:hr>
          </ns3:TrackPointExtension>
        </extensions>
      </trkpt>
      <trkpt lat="36.77881537936627864837646484375" lon="-118.53226569481194019317626953125">
        <ele>1920.199951171875</ele>
        <time>2021-06-24T18:30:27.000Z</time>
        <extensions>
          <ns3:TrackPointExtension>
            <ns3:atemp>32.0</ns3:atemp>
            <ns3:hr>113</ns3:hr>
          </ns3:TrackPointExtension>
        </extensions>
      </trkpt>
      <trkpt lat="36.77883968688547611236572265625" lon="-118.53225345723330974578857421875">
        <ele>1920.4000244140625</ele>
        <time>2021-06-24T18:30:29.000Z</time>
        <extensions>
          <ns3:TrackPointExtension>
            <ns3:atemp>32.0</ns3:atemp>
            <ns3:hr>109</ns3:hr>
          </ns3:TrackPointExtension>
        </extensions>
      </trkpt>
      <trkpt lat="36.7788572050631046295166015625" lon="-118.53224004618823528289794921875">
        <ele>1920.4000244140625</ele>
        <time>2021-06-24T18:30:31.000Z</time>
        <extensions>
          <ns3:TrackPointExtension>
            <ns3:atemp>32.0</ns3:atemp>
            <ns3:hr>106</ns3:hr>
          </ns3:TrackPointExtension>
        </extensions>
      </trkpt>
      <trkpt lat="36.77886550314724445343017578125" lon="-118.53224105201661586761474609375">
        <ele>1920.5999755859375</ele>
        <time>2021-06-24T18:30:32.000Z</time>
        <extensions>
          <ns3:TrackPointExtension>
            <ns3:atemp>32.0</ns3:atemp>
            <ns3:hr>104</ns3:hr>
          </ns3:TrackPointExtension>
        </extensions>
      </trkpt>
      <trkpt lat="36.77887656725943088531494140625" lon="-118.53224876336753368377685546875">
        <ele>1920.800048828125</ele>
        <time>2021-06-24T18:30:34.000Z</time>
        <extensions>
          <ns3:TrackPointExtension>
            <ns3:atemp>32.0</ns3:atemp>
            <ns3:hr>105</ns3:hr>
          </ns3:TrackPointExtension>
        </extensions>
      </trkpt>
      <trkpt lat="36.778906993567943572998046875" lon="-118.53225731290876865386962890625">
        <ele>1921</ele>
        <time>2021-06-24T18:30:36.000Z</time>
        <extensions>
          <ns3:TrackPointExtension>
            <ns3:atemp>32.0</ns3:atemp>
            <ns3:hr>108</ns3:hr>
          </ns3:TrackPointExtension>
        </extensions>
      </trkpt>
      <trkpt lat="36.77893674932420253753662109375" lon="-118.53226603008806705474853515625">
        <ele>1921.199951171875</ele>
        <time>2021-06-24T18:30:40.000Z</time>
        <extensions>
          <ns3:TrackPointExtension>
            <ns3:atemp>32.0</ns3:atemp>
            <ns3:hr>106</ns3:hr>
          </ns3:TrackPointExtension>
        </extensions>
      </trkpt>
      <trkpt lat="36.77894630469381809234619140625" lon="-118.5322599112987518310546875">
        <ele>1921.199951171875</ele>
        <time>2021-06-24T18:30:41.000Z</time>
        <extensions>
          <ns3:TrackPointExtension>
            <ns3:atemp>32.0</ns3:atemp>
            <ns3:hr>106</ns3:hr>
          </ns3:TrackPointExtension>
        </extensions>
      </trkpt>
      <trkpt lat="36.77894764579832553863525390625" lon="-118.53224792517721652984619140625">
        <ele>1921.199951171875</ele>
        <time>2021-06-24T18:30:42.000Z</time>
        <extensions>
          <ns3:TrackPointExtension>
            <ns3:atemp>32.0</ns3:atemp>
            <ns3:hr>106</ns3:hr>
          </ns3:TrackPointExtension>
        </extensions>
      </trkpt>
      <trkpt lat="36.77896608598530292510986328125" lon="-118.5322258807718753814697265625">
        <ele>1921</ele>
        <time>2021-06-24T18:30:44.000Z</time>
        <extensions>
          <ns3:TrackPointExtension>
            <ns3:atemp>32.0</ns3:atemp>
            <ns3:hr>106</ns3:hr>
          </ns3:TrackPointExtension>
        </extensions>
      </trkpt>
      <trkpt lat="36.7789909802377223968505859375" lon="-118.5321987234055995941162109375">
        <ele>1921.199951171875</ele>
        <time>2021-06-24T18:30:46.000Z</time>
        <extensions>
          <ns3:TrackPointExtension>
            <ns3:atemp>32.0</ns3:atemp>
            <ns3:hr>106</ns3:hr>
          </ns3:TrackPointExtension>
        </extensions>
      </trkpt>
      <trkpt lat="36.779005564749240875244140625" lon="-118.53218673728406429290771484375">
        <ele>1921.199951171875</ele>
        <time>2021-06-24T18:30:47.000Z</time>
        <extensions>
          <ns3:TrackPointExtension>
            <ns3:atemp>32.0</ns3:atemp>
            <ns3:hr>105</ns3:hr>
          </ns3:TrackPointExtension>
        </extensions>
      </trkpt>
      <trkpt lat="36.77902626805007457733154296875" lon="-118.53216469287872314453125">
        <ele>1921.199951171875</ele>
        <time>2021-06-24T18:30:49.000Z</time>
        <extensions>
          <ns3:TrackPointExtension>
            <ns3:atemp>32.0</ns3:atemp>
            <ns3:hr>104</ns3:hr>
          </ns3:TrackPointExtension>
        </extensions>
      </trkpt>
      <trkpt lat="36.77902995608747005462646484375" lon="-118.53215237148106098175048828125">
        <ele>1921.199951171875</ele>
        <time>2021-06-24T18:30:50.000Z</time>
        <extensions>
          <ns3:TrackPointExtension>
            <ns3:atemp>32.0</ns3:atemp>
            <ns3:hr>107</ns3:hr>
          </ns3:TrackPointExtension>
        </extensions>
      </trkpt>
      <trkpt lat="36.77903565578162670135498046875" lon="-118.5321444086730480194091796875">
        <ele>1921.4000244140625</ele>
        <time>2021-06-24T18:30:51.000Z</time>
        <extensions>
          <ns3:TrackPointExtension>
            <ns3:atemp>32.0</ns3:atemp>
            <ns3:hr>103</ns3:hr>
          </ns3:TrackPointExtension>
        </extensions>
      </trkpt>
      <trkpt lat="36.7790446244180202484130859375" lon="-118.53213627822697162628173828125">
        <ele>1921.4000244140625</ele>
        <time>2021-06-24T18:30:52.000Z</time>
        <extensions>
          <ns3:TrackPointExtension>
            <ns3:atemp>32.0</ns3:atemp>
            <ns3:hr>104</ns3:hr>
          </ns3:TrackPointExtension>
        </extensions>
      </trkpt>
      <trkpt lat="36.77905141375958919525146484375" lon="-118.5321216098964214324951171875">
        <ele>1921.4000244140625</ele>
        <time>2021-06-24T18:30:54.000Z</time>
        <extensions>
          <ns3:TrackPointExtension>
            <ns3:atemp>32.0</ns3:atemp>
            <ns3:hr>105</ns3:hr>
          </ns3:TrackPointExtension>
        </extensions>
      </trkpt>
      <trkpt lat="36.77905820310115814208984375" lon="-118.53205949999392032623291015625">
        <ele>1921.4000244140625</ele>
        <time>2021-06-24T18:30:57.000Z</time>
        <extensions>
          <ns3:TrackPointExtension>
            <ns3:atemp>32.0</ns3:atemp>
            <ns3:hr>104</ns3:hr>
          </ns3:TrackPointExtension>
        </extensions>
      </trkpt>
      <trkpt lat="36.779084689915180206298828125" lon="-118.53201205842196941375732421875">
        <ele>1921.800048828125</ele>
        <time>2021-06-24T18:31:00.000Z</time>
        <extensions>
          <ns3:TrackPointExtension>
            <ns3:atemp>32.0</ns3:atemp>
            <ns3:hr>101</ns3:hr>
          </ns3:TrackPointExtension>
        </extensions>
      </trkpt>
      <trkpt lat="36.7790939100086688995361328125" lon="-118.53198439814150333404541015625">
        <ele>1921.800048828125</ele>
        <time>2021-06-24T18:31:02.000Z</time>
        <extensions>
          <ns3:TrackPointExtension>
            <ns3:atemp>32.0</ns3:atemp>
            <ns3:hr>101</ns3:hr>
          </ns3:TrackPointExtension>
        </extensions>
      </trkpt>
      <trkpt lat="36.77908292971551418304443359375" lon="-118.5319232940673828125">
        <ele>1921.5999755859375</ele>
        <time>2021-06-24T18:31:06.000Z</time>
        <extensions>
          <ns3:TrackPointExtension>
            <ns3:atemp>32.0</ns3:atemp>
            <ns3:hr>101</ns3:hr>
          </ns3:TrackPointExtension>
        </extensions>
      </trkpt>
      <trkpt lat="36.779085360467433929443359375" lon="-118.531896136701107025146484375">
        <ele>1922</ele>
        <time>2021-06-24T18:31:08.000Z</time>
        <extensions>
          <ns3:TrackPointExtension>
            <ns3:atemp>32.0</ns3:atemp>
            <ns3:hr>97</ns3:hr>
          </ns3:TrackPointExtension>
        </extensions>
      </trkpt>
      <trkpt lat="36.77908309735357761383056640625" lon="-118.53188666515052318572998046875">
        <ele>1922</ele>
        <time>2021-06-24T18:31:09.000Z</time>
        <extensions>
          <ns3:TrackPointExtension>
            <ns3:atemp>32.0</ns3:atemp>
            <ns3:hr>94</ns3:hr>
          </ns3:TrackPointExtension>
        </extensions>
      </trkpt>
      <trkpt lat="36.77908091805875301361083984375" lon="-118.53187090717256069183349609375">
        <ele>1922</ele>
        <time>2021-06-24T18:31:11.000Z</time>
        <extensions>
          <ns3:TrackPointExtension>
            <ns3:atemp>32.0</ns3:atemp>
            <ns3:hr>92</ns3:hr>
          </ns3:TrackPointExtension>
        </extensions>
      </trkpt>
      <trkpt lat="36.77907538600265979766845703125" lon="-118.53183947503566741943359375">
        <ele>1922</ele>
        <time>2021-06-24T18:31:13.000Z</time>
        <extensions>
          <ns3:TrackPointExtension>
            <ns3:atemp>32.0</ns3:atemp>
            <ns3:hr>93</ns3:hr>
          </ns3:TrackPointExtension>
        </extensions>
      </trkpt>
      <trkpt lat="36.77908091805875301361083984375" lon="-118.5318225435912609100341796875">
        <ele>1922</ele>
        <time>2021-06-24T18:31:14.000Z</time>
        <extensions>
          <ns3:TrackPointExtension>
            <ns3:atemp>32.0</ns3:atemp>
            <ns3:hr>91</ns3:hr>
          </ns3:TrackPointExtension>
        </extensions>
      </trkpt>
      <trkpt lat="36.779088042676448822021484375" lon="-118.5317813046276569366455078125">
        <ele>1922</ele>
        <time>2021-06-24T18:31:16.000Z</time>
        <extensions>
          <ns3:TrackPointExtension>
            <ns3:atemp>32.0</ns3:atemp>
            <ns3:hr>92</ns3:hr>
          </ns3:TrackPointExtension>
        </extensions>
      </trkpt>
      <trkpt lat="36.7790788225829601287841796875" lon="-118.53173512034118175506591796875">
        <ele>1922</ele>
        <time>2021-06-24T18:31:19.000Z</time>
        <extensions>
          <ns3:TrackPointExtension>
            <ns3:atemp>32.0</ns3:atemp>
            <ns3:hr>91</ns3:hr>
          </ns3:TrackPointExtension>
        </extensions>
      </trkpt>
      <trkpt lat="36.77912014536559581756591796875" lon="-118.5316981561481952667236328125">
        <ele>1921.800048828125</ele>
        <time>2021-06-24T18:31:22.000Z</time>
        <extensions>
          <ns3:TrackPointExtension>
            <ns3:atemp>32.0</ns3:atemp>
            <ns3:hr>92</ns3:hr>
          </ns3:TrackPointExtension>
        </extensions>
      </trkpt>
      <trkpt lat="36.77912659943103790283203125" lon="-118.53167108260095119476318359375">
        <ele>1921.4000244140625</ele>
        <time>2021-06-24T18:31:24.000Z</time>
        <extensions>
          <ns3:TrackPointExtension>
            <ns3:atemp>32.0</ns3:atemp>
            <ns3:hr>93</ns3:hr>
          </ns3:TrackPointExtension>
        </extensions>
      </trkpt>
      <trkpt lat="36.7791247554123401641845703125" lon="-118.53161324746906757354736328125">
        <ele>1921.199951171875</ele>
        <time>2021-06-24T18:31:27.000Z</time>
        <extensions>
          <ns3:TrackPointExtension>
            <ns3:atemp>32.0</ns3:atemp>
            <ns3:hr>93</ns3:hr>
          </ns3:TrackPointExtension>
        </extensions>
      </trkpt>
      <trkpt lat="36.7791022919118404388427734375" lon="-118.5315613634884357452392578125">
        <ele>1921</ele>
        <time>2021-06-24T18:31:30.000Z</time>
        <extensions>
          <ns3:TrackPointExtension>
            <ns3:atemp>32.0</ns3:atemp>
            <ns3:hr>94</ns3:hr>
          </ns3:TrackPointExtension>
        </extensions>
      </trkpt>
      <trkpt lat="36.779112182557582855224609375" lon="-118.531513251364231109619140625">
        <ele>1920.800048828125</ele>
        <time>2021-06-24T18:31:33.000Z</time>
        <extensions>
          <ns3:TrackPointExtension>
            <ns3:atemp>32.0</ns3:atemp>
            <ns3:hr>93</ns3:hr>
          </ns3:TrackPointExtension>
        </extensions>
      </trkpt>
      <trkpt lat="36.77911008708178997039794921875" lon="-118.53149187751114368438720703125">
        <ele>1920.800048828125</ele>
        <time>2021-06-24T18:31:35.000Z</time>
        <extensions>
          <ns3:TrackPointExtension>
            <ns3:atemp>32.0</ns3:atemp>
            <ns3:hr>92</ns3:hr>
          </ns3:TrackPointExtension>
        </extensions>
      </trkpt>
      <trkpt lat="36.77910354919731616973876953125" lon="-118.5314902849495410919189453125">
        <ele>1920.800048828125</ele>
        <time>2021-06-24T18:31:36.000Z</time>
        <extensions>
          <ns3:TrackPointExtension>
            <ns3:atemp>32.0</ns3:atemp>
            <ns3:hr>91</ns3:hr>
          </ns3:TrackPointExtension>
        </extensions>
      </trkpt>
      <trkpt lat="36.77910204045474529266357421875" lon="-118.5314648039638996124267578125">
        <ele>1921.199951171875</ele>
        <time>2021-06-24T18:31:38.000Z</time>
        <extensions>
          <ns3:TrackPointExtension>
            <ns3:atemp>32.0</ns3:atemp>
            <ns3:hr>90</ns3:hr>
          </ns3:TrackPointExtension>
        </extensions>
      </trkpt>
      <trkpt lat="36.77912048064172267913818359375" lon="-118.531403280794620513916015625">
        <ele>1921.800048828125</ele>
        <time>2021-06-24T18:31:42.000Z</time>
        <extensions>
          <ns3:TrackPointExtension>
            <ns3:atemp>32.0</ns3:atemp>
            <ns3:hr>87</ns3:hr>
          </ns3:TrackPointExtension>
        </extensions>
      </trkpt>
      <trkpt lat="36.7791264317929744720458984375" lon="-118.5313876904547214508056640625">
        <ele>1922</ele>
        <time>2021-06-24T18:31:43.000Z</time>
        <extensions>
          <ns3:TrackPointExtension>
            <ns3:atemp>32.0</ns3:atemp>
            <ns3:hr>87</ns3:hr>
          </ns3:TrackPointExtension>
        </extensions>
      </trkpt>
      <trkpt lat="36.77913573570549488067626953125" lon="-118.5313772968947887420654296875">
        <ele>1922</ele>
        <time>2021-06-24T18:31:44.000Z</time>
        <extensions>
          <ns3:TrackPointExtension>
            <ns3:atemp>32.0</ns3:atemp>
            <ns3:hr>86</ns3:hr>
          </ns3:TrackPointExtension>
        </extensions>
      </trkpt>
      <trkpt lat="36.7791472189128398895263671875" lon="-118.5313474573194980621337890625">
        <ele>1922</ele>
        <time>2021-06-24T18:31:46.000Z</time>
        <extensions>
          <ns3:TrackPointExtension>
            <ns3:atemp>32.0</ns3:atemp>
            <ns3:hr>86</ns3:hr>
          </ns3:TrackPointExtension>
        </extensions>
      </trkpt>
      <trkpt lat="36.7791492305696010589599609375" lon="-118.5313146002590656280517578125">
        <ele>1922.4000244140625</ele>
        <time>2021-06-24T18:31:48.000Z</time>
        <extensions>
          <ns3:TrackPointExtension>
            <ns3:atemp>32.0</ns3:atemp>
            <ns3:hr>85</ns3:hr>
          </ns3:TrackPointExtension>
        </extensions>
      </trkpt>
      <trkpt lat="36.7791344784200191497802734375" lon="-118.5312701761722564697265625">
        <ele>1922.4000244140625</ele>
        <time>2021-06-24T18:31:51.000Z</time>
        <extensions>
          <ns3:TrackPointExtension>
            <ns3:atemp>32.0</ns3:atemp>
            <ns3:hr>87</ns3:hr>
          </ns3:TrackPointExtension>
        </extensions>
      </trkpt>
      <trkpt lat="36.7792265117168426513671875" lon="-118.531212508678436279296875">
        <ele>1922.5999755859375</ele>
        <time>2021-06-24T18:31:54.000Z</time>
        <extensions>
          <ns3:TrackPointExtension>
            <ns3:atemp>32.0</ns3:atemp>
            <ns3:hr>90</ns3:hr>
          </ns3:TrackPointExtension>
        </extensions>
      </trkpt>
      <trkpt lat="36.77926473319530487060546875" lon="-118.53116850368678569793701171875">
        <ele>1922.800048828125</ele>
        <time>2021-06-24T18:31:57.000Z</time>
        <extensions>
          <ns3:TrackPointExtension>
            <ns3:atemp>31.0</ns3:atemp>
            <ns3:hr>94</ns3:hr>
          </ns3:TrackPointExtension>
        </extensions>
      </trkpt>
      <trkpt lat="36.77926699630916118621826171875" lon="-118.531153835356235504150390625">
        <ele>1923</ele>
        <time>2021-06-24T18:31:58.000Z</time>
        <extensions>
          <ns3:TrackPointExtension>
            <ns3:atemp>32.0</ns3:atemp>
            <ns3:hr>95</ns3:hr>
          </ns3:TrackPointExtension>
        </extensions>
      </trkpt>
      <trkpt lat="36.77926565520465373992919921875" lon="-118.53112977929413318634033203125">
        <ele>1923.199951171875</ele>
        <time>2021-06-24T18:32:00.000Z</time>
        <extensions>
          <ns3:TrackPointExtension>
            <ns3:atemp>31.0</ns3:atemp>
            <ns3:hr>96</ns3:hr>
          </ns3:TrackPointExtension>
        </extensions>
      </trkpt>
      <trkpt lat="36.779263727366924285888671875" lon="-118.5311147756874561309814453125">
        <ele>1923.199951171875</ele>
        <time>2021-06-24T18:32:01.000Z</time>
        <extensions>
          <ns3:TrackPointExtension>
            <ns3:atemp>31.0</ns3:atemp>
            <ns3:hr>97</ns3:hr>
          </ns3:TrackPointExtension>
        </extensions>
      </trkpt>
      <trkpt lat="36.77927252836525440216064453125" lon="-118.531073033809661865234375">
        <ele>1923.4000244140625</ele>
        <time>2021-06-24T18:32:04.000Z</time>
        <extensions>
          <ns3:TrackPointExtension>
            <ns3:atemp>31.0</ns3:atemp>
            <ns3:hr>97</ns3:hr>
          </ns3:TrackPointExtension>
        </extensions>
      </trkpt>
      <trkpt lat="36.77927822805941104888916015625" lon="-118.53104579262435436248779296875">
        <ele>1923.800048828125</ele>
        <time>2021-06-24T18:32:07.000Z</time>
        <extensions>
          <ns3:TrackPointExtension>
            <ns3:atemp>31.0</ns3:atemp>
            <ns3:hr>98</ns3:hr>
          </ns3:TrackPointExtension>
        </extensions>
      </trkpt>
      <trkpt lat="36.77928526885807514190673828125" lon="-118.53102534078061580657958984375">
        <ele>1924</ele>
        <time>2021-06-24T18:32:09.000Z</time>
        <extensions>
          <ns3:TrackPointExtension>
            <ns3:atemp>31.0</ns3:atemp>
            <ns3:hr>96</ns3:hr>
          </ns3:TrackPointExtension>
        </extensions>
      </trkpt>
      <trkpt lat="36.779314689338207244873046875" lon="-118.53098611347377300262451171875">
        <ele>1924.5999755859375</ele>
        <time>2021-06-24T18:32:12.000Z</time>
        <extensions>
          <ns3:TrackPointExtension>
            <ns3:atemp>31.0</ns3:atemp>
            <ns3:hr>92</ns3:hr>
          </ns3:TrackPointExtension>
        </extensions>
      </trkpt>
      <trkpt lat="36.77931879647076129913330078125" lon="-118.53096080012619495391845703125">
        <ele>1924.5999755859375</ele>
        <time>2021-06-24T18:32:14.000Z</time>
        <extensions>
          <ns3:TrackPointExtension>
            <ns3:atemp>31.0</ns3:atemp>
            <ns3:hr>94</ns3:hr>
          </ns3:TrackPointExtension>
        </extensions>
      </trkpt>
      <trkpt lat="36.779322065412998199462890625" lon="-118.5309518314898014068603515625">
        <ele>1924.5999755859375</ele>
        <time>2021-06-24T18:32:15.000Z</time>
        <extensions>
          <ns3:TrackPointExtension>
            <ns3:atemp>31.0</ns3:atemp>
            <ns3:hr>95</ns3:hr>
          </ns3:TrackPointExtension>
        </extensions>
      </trkpt>
      <trkpt lat="36.77933723665773868560791015625" lon="-118.53091620840132236480712890625">
        <ele>1924.800048828125</ele>
        <time>2021-06-24T18:32:19.000Z</time>
        <extensions>
          <ns3:TrackPointExtension>
            <ns3:atemp>31.0</ns3:atemp>
            <ns3:hr>98</ns3:hr>
          </ns3:TrackPointExtension>
        </extensions>
      </trkpt>
      <trkpt lat="36.7793514020740985870361328125" lon="-118.53090112097561359405517578125">
        <ele>1924.800048828125</ele>
        <time>2021-06-24T18:32:20.000Z</time>
        <extensions>
          <ns3:TrackPointExtension>
            <ns3:atemp>31.0</ns3:atemp>
            <ns3:hr>96</ns3:hr>
          </ns3:TrackPointExtension>
        </extensions>
      </trkpt>
      <trkpt lat="36.77938233129680156707763671875" lon="-118.5308666713535785675048828125">
        <ele>1925.199951171875</ele>
        <time>2021-06-24T18:32:23.000Z</time>
        <extensions>
          <ns3:TrackPointExtension>
            <ns3:atemp>31.0</ns3:atemp>
            <ns3:hr>97</ns3:hr>
          </ns3:TrackPointExtension>
        </extensions>
      </trkpt>
      <trkpt lat="36.779413260519504547119140625" lon="-118.53081964887678623199462890625">
        <ele>1925.800048828125</ele>
        <time>2021-06-24T18:32:26.000Z</time>
        <extensions>
          <ns3:TrackPointExtension>
            <ns3:atemp>31.0</ns3:atemp>
            <ns3:hr>98</ns3:hr>
          </ns3:TrackPointExtension>
        </extensions>
      </trkpt>
      <trkpt lat="36.7794357240200042724609375" lon="-118.5308076627552509307861328125">
        <ele>1926.199951171875</ele>
        <time>2021-06-24T18:32:30.000Z</time>
        <extensions>
          <ns3:TrackPointExtension>
            <ns3:atemp>31.0</ns3:atemp>
            <ns3:hr>98</ns3:hr>
          </ns3:TrackPointExtension>
        </extensions>
      </trkpt>
      <trkpt lat="36.77944368682801723480224609375" lon="-118.53080338798463344573974609375">
        <ele>1926.5999755859375</ele>
        <time>2021-06-24T18:32:31.000Z</time>
        <extensions>
          <ns3:TrackPointExtension>
            <ns3:atemp>31.0</ns3:atemp>
            <ns3:hr>98</ns3:hr>
          </ns3:TrackPointExtension>
        </extensions>
      </trkpt>
      <trkpt lat="36.77945357747375965118408203125" lon="-118.5307955928146839141845703125">
        <ele>1926.800048828125</ele>
        <time>2021-06-24T18:32:32.000Z</time>
        <extensions>
          <ns3:TrackPointExtension>
            <ns3:atemp>31.0</ns3:atemp>
            <ns3:hr>98</ns3:hr>
          </ns3:TrackPointExtension>
        </extensions>
      </trkpt>
      <trkpt lat="36.77946187555789947509765625" lon="-118.5307771526277065277099609375">
        <ele>1926.800048828125</ele>
        <time>2021-06-24T18:32:34.000Z</time>
        <extensions>
          <ns3:TrackPointExtension>
            <ns3:atemp>31.0</ns3:atemp>
            <ns3:hr>99</ns3:hr>
          </ns3:TrackPointExtension>
        </extensions>
      </trkpt>
      <trkpt lat="36.7794710956513881683349609375" lon="-118.53074639104306697845458984375">
        <ele>1926.800048828125</ele>
        <time>2021-06-24T18:32:36.000Z</time>
        <extensions>
          <ns3:TrackPointExtension>
            <ns3:atemp>31.0</ns3:atemp>
            <ns3:hr>99</ns3:hr>
          </ns3:TrackPointExtension>
        </extensions>
      </trkpt>
      <trkpt lat="36.77949196659028530120849609375" lon="-118.53072325699031352996826171875">
        <ele>1926.4000244140625</ele>
        <time>2021-06-24T18:32:38.000Z</time>
        <extensions>
          <ns3:TrackPointExtension>
            <ns3:atemp>31.0</ns3:atemp>
            <ns3:hr>98</ns3:hr>
          </ns3:TrackPointExtension>
        </extensions>
      </trkpt>
      <trkpt lat="36.77949733100831508636474609375" lon="-118.5306997038424015045166015625">
        <ele>1926.199951171875</ele>
        <time>2021-06-24T18:32:40.000Z</time>
        <extensions>
          <ns3:TrackPointExtension>
            <ns3:atemp>31.0</ns3:atemp>
            <ns3:hr>99</ns3:hr>
          </ns3:TrackPointExtension>
        </extensions>
      </trkpt>
      <trkpt lat="36.77951795049011707305908203125" lon="-118.5306477360427379608154296875">
        <ele>1925.800048828125</ele>
        <time>2021-06-24T18:32:44.000Z</time>
        <extensions>
          <ns3:TrackPointExtension>
            <ns3:atemp>31.0</ns3:atemp>
            <ns3:hr>98</ns3:hr>
          </ns3:TrackPointExtension>
        </extensions>
      </trkpt>
      <trkpt lat="36.77951753139495849609375" lon="-118.53063642047345638275146484375">
        <ele>1925.800048828125</ele>
        <time>2021-06-24T18:32:45.000Z</time>
        <extensions>
          <ns3:TrackPointExtension>
            <ns3:atemp>31.0</ns3:atemp>
            <ns3:hr>97</ns3:hr>
          </ns3:TrackPointExtension>
        </extensions>
      </trkpt>
      <trkpt lat="36.779507808387279510498046875" lon="-118.5305540263652801513671875">
        <ele>1925.5999755859375</ele>
        <time>2021-06-24T18:32:52.000Z</time>
        <extensions>
          <ns3:TrackPointExtension>
            <ns3:atemp>31.0</ns3:atemp>
            <ns3:hr>95</ns3:hr>
          </ns3:TrackPointExtension>
        </extensions>
      </trkpt>
      <trkpt lat="36.77950085140764713287353515625" lon="-118.53045470081269741058349609375">
        <ele>1925.800048828125</ele>
        <time>2021-06-24T18:33:00.000Z</time>
        <extensions>
          <ns3:TrackPointExtension>
            <ns3:atemp>31.0</ns3:atemp>
            <ns3:hr>96</ns3:hr>
          </ns3:TrackPointExtension>
        </extensions>
      </trkpt>
      <trkpt lat="36.77949347533285617828369140625" lon="-118.5304130427539348602294921875">
        <ele>1926.199951171875</ele>
        <time>2021-06-24T18:33:03.000Z</time>
        <extensions>
          <ns3:TrackPointExtension>
            <ns3:atemp>31.0</ns3:atemp>
            <ns3:hr>95</ns3:hr>
          </ns3:TrackPointExtension>
        </extensions>
      </trkpt>
      <trkpt lat="36.7794918827712535858154296875" lon="-118.53039451874792575836181640625">
        <ele>1926.4000244140625</ele>
        <time>2021-06-24T18:33:06.000Z</time>
        <extensions>
          <ns3:TrackPointExtension>
            <ns3:atemp>31.0</ns3:atemp>
            <ns3:hr>94</ns3:hr>
          </ns3:TrackPointExtension>
        </extensions>
      </trkpt>
      <trkpt lat="36.77949900738894939422607421875" lon="-118.5303872264921665191650390625">
        <ele>1926.199951171875</ele>
        <time>2021-06-24T18:33:07.000Z</time>
        <extensions>
          <ns3:TrackPointExtension>
            <ns3:atemp>31.0</ns3:atemp>
            <ns3:hr>97</ns3:hr>
          </ns3:TrackPointExtension>
        </extensions>
      </trkpt>
      <trkpt lat="36.77950504235923290252685546875" lon="-118.53038077242672443389892578125">
        <ele>1926.4000244140625</ele>
        <time>2021-06-24T18:33:08.000Z</time>
        <extensions>
          <ns3:TrackPointExtension>
            <ns3:atemp>31.0</ns3:atemp>
            <ns3:hr>94</ns3:hr>
          </ns3:TrackPointExtension>
        </extensions>
      </trkpt>
      <trkpt lat="36.77950118668377399444580078125" lon="-118.5303858853876590728759765625">
        <ele>1926.4000244140625</ele>
        <time>2021-06-24T18:33:12.000Z</time>
        <extensions>
          <ns3:TrackPointExtension>
            <ns3:atemp>31.0</ns3:atemp>
            <ns3:hr>97</ns3:hr>
          </ns3:TrackPointExtension>
        </extensions>
      </trkpt>
      <trkpt lat="36.77948643453419208526611328125" lon="-118.530363924801349639892578125">
        <ele>1926.5999755859375</ele>
        <time>2021-06-24T18:33:16.000Z</time>
        <extensions>
          <ns3:TrackPointExtension>
            <ns3:atemp>31.0</ns3:atemp>
            <ns3:hr>97</ns3:hr>
          </ns3:TrackPointExtension>
        </extensions>
      </trkpt>
      <trkpt lat="36.77947738207876682281494140625" lon="-118.53035747073590755462646484375">
        <ele>1926.5999755859375</ele>
        <time>2021-06-24T18:33:17.000Z</time>
        <extensions>
          <ns3:TrackPointExtension>
            <ns3:atemp>31.0</ns3:atemp>
            <ns3:hr>98</ns3:hr>
          </ns3:TrackPointExtension>
        </extensions>
      </trkpt>
      <trkpt lat="36.7794479615986347198486328125" lon="-118.530273735523223876953125">
        <ele>1926.5999755859375</ele>
        <time>2021-06-24T18:33:21.000Z</time>
        <extensions>
          <ns3:TrackPointExtension>
            <ns3:atemp>31.0</ns3:atemp>
            <ns3:hr>94</ns3:hr>
          </ns3:TrackPointExtension>
        </extensions>
      </trkpt>
      <trkpt lat="36.7794303596019744873046875" lon="-118.5302467457950115203857421875">
        <ele>1926.5999755859375</ele>
        <time>2021-06-24T18:33:23.000Z</time>
        <extensions>
          <ns3:TrackPointExtension>
            <ns3:atemp>31.0</ns3:atemp>
            <ns3:hr>92</ns3:hr>
          </ns3:TrackPointExtension>
        </extensions>
      </trkpt>
      <trkpt lat="36.77942407317459583282470703125" lon="-118.53023459203541278839111328125">
        <ele>1926.800048828125</ele>
        <time>2021-06-24T18:33:24.000Z</time>
        <extensions>
          <ns3:TrackPointExtension>
            <ns3:atemp>31.0</ns3:atemp>
            <ns3:hr>96</ns3:hr>
          </ns3:TrackPointExtension>
        </extensions>
      </trkpt>
      <trkpt lat="36.77940420806407928466796875" lon="-118.53021011687815189361572265625">
        <ele>1926.800048828125</ele>
        <time>2021-06-24T18:33:26.000Z</time>
        <extensions>
          <ns3:TrackPointExtension>
            <ns3:atemp>31.0</ns3:atemp>
            <ns3:hr>95</ns3:hr>
          </ns3:TrackPointExtension>
        </extensions>
      </trkpt>
      <trkpt lat="36.7793954908847808837890625" lon="-118.5301964543759822845458984375">
        <ele>1926.800048828125</ele>
        <time>2021-06-24T18:33:27.000Z</time>
        <extensions>
          <ns3:TrackPointExtension>
            <ns3:atemp>31.0</ns3:atemp>
            <ns3:hr>95</ns3:hr>
          </ns3:TrackPointExtension>
        </extensions>
      </trkpt>
      <trkpt lat="36.7793705128133296966552734375" lon="-118.53013652376830577850341796875">
        <ele>1926.800048828125</ele>
        <time>2021-06-24T18:33:30.000Z</time>
        <extensions>
          <ns3:TrackPointExtension>
            <ns3:atemp>31.0</ns3:atemp>
            <ns3:hr>92</ns3:hr>
          </ns3:TrackPointExtension>
        </extensions>
      </trkpt>
      <trkpt lat="36.7793601192533969879150390625" lon="-118.53010115213692188262939453125">
        <ele>1926.4000244140625</ele>
        <time>2021-06-24T18:33:32.000Z</time>
        <extensions>
          <ns3:TrackPointExtension>
            <ns3:atemp>31.0</ns3:atemp>
            <ns3:hr>95</ns3:hr>
          </ns3:TrackPointExtension>
        </extensions>
      </trkpt>
      <trkpt lat="36.7793259210884571075439453125" lon="-118.5300640203058719635009765625">
        <ele>1926.800048828125</ele>
        <time>2021-06-24T18:33:35.000Z</time>
        <extensions>
          <ns3:TrackPointExtension>
            <ns3:atemp>31.0</ns3:atemp>
            <ns3:hr>92</ns3:hr>
          </ns3:TrackPointExtension>
        </extensions>
      </trkpt>
      <trkpt lat="36.77928141318261623382568359375" lon="-118.5300184227526187896728515625">
        <ele>1927</ele>
        <time>2021-06-24T18:33:40.000Z</time>
        <extensions>
          <ns3:TrackPointExtension>
            <ns3:atemp>31.0</ns3:atemp>
            <ns3:hr>89</ns3:hr>
          </ns3:TrackPointExtension>
        </extensions>
      </trkpt>
      <trkpt lat="36.77926917560398578643798828125" lon="-118.53001045994460582733154296875">
        <ele>1927</ele>
        <time>2021-06-24T18:33:41.000Z</time>
        <extensions>
          <ns3:TrackPointExtension>
            <ns3:atemp>31.0</ns3:atemp>
            <ns3:hr>89</ns3:hr>
          </ns3:TrackPointExtension>
        </extensions>
      </trkpt>
      <trkpt lat="36.7792318761348724365234375" lon="-118.52993653155863285064697265625">
        <ele>1927.199951171875</ele>
        <time>2021-06-24T18:33:47.000Z</time>
        <extensions>
          <ns3:TrackPointExtension>
            <ns3:atemp>31.0</ns3:atemp>
            <ns3:hr>86</ns3:hr>
          </ns3:TrackPointExtension>
        </extensions>
      </trkpt>
      <trkpt lat="36.7792042158544063568115234375" lon="-118.5299054346978664398193359375">
        <ele>1927</ele>
        <time>2021-06-24T18:33:50.000Z</time>
        <extensions>
          <ns3:TrackPointExtension>
            <ns3:atemp>31.0</ns3:atemp>
            <ns3:hr>88</ns3:hr>
          </ns3:TrackPointExtension>
        </extensions>
      </trkpt>
      <trkpt lat="36.7791951633989810943603515625" lon="-118.52989579550921916961669921875">
        <ele>1927</ele>
        <time>2021-06-24T18:33:51.000Z</time>
        <extensions>
          <ns3:TrackPointExtension>
            <ns3:atemp>31.0</ns3:atemp>
            <ns3:hr>91</ns3:hr>
          </ns3:TrackPointExtension>
        </extensions>
      </trkpt>
      <trkpt lat="36.779162473976612091064453125" lon="-118.5298450849950313568115234375">
        <ele>1927.199951171875</ele>
        <time>2021-06-24T18:33:55.000Z</time>
        <extensions>
          <ns3:TrackPointExtension>
            <ns3:atemp>31.0</ns3:atemp>
            <ns3:hr>89</ns3:hr>
          </ns3:TrackPointExtension>
        </extensions>
      </trkpt>
      <trkpt lat="36.7791683413088321685791015625" lon="-118.5298289917409420013427734375">
        <ele>1927.4000244140625</ele>
        <time>2021-06-24T18:33:56.000Z</time>
        <extensions>
          <ns3:TrackPointExtension>
            <ns3:atemp>32.0</ns3:atemp>
            <ns3:hr>89</ns3:hr>
          </ns3:TrackPointExtension>
        </extensions>
      </trkpt>
      <trkpt lat="36.7791777290403842926025390625" lon="-118.52981197647750377655029296875">
        <ele>1927.4000244140625</ele>
        <time>2021-06-24T18:33:57.000Z</time>
        <extensions>
          <ns3:TrackPointExtension>
            <ns3:atemp>32.0</ns3:atemp>
            <ns3:hr>86</ns3:hr>
          </ns3:TrackPointExtension>
        </extensions>
      </trkpt>
      <trkpt lat="36.7791824229061603546142578125" lon="-118.529796302318572998046875">
        <ele>1927.5999755859375</ele>
        <time>2021-06-24T18:33:58.000Z</time>
        <extensions>
          <ns3:TrackPointExtension>
            <ns3:atemp>32.0</ns3:atemp>
            <ns3:hr>86</ns3:hr>
          </ns3:TrackPointExtension>
        </extensions>
      </trkpt>
      <trkpt lat="36.7791854403913021087646484375" lon="-118.529765792191028594970703125">
        <ele>1928.199951171875</ele>
        <time>2021-06-24T18:34:01.000Z</time>
        <extensions>
          <ns3:TrackPointExtension>
            <ns3:atemp>32.0</ns3:atemp>
            <ns3:hr>89</ns3:hr>
          </ns3:TrackPointExtension>
        </extensions>
      </trkpt>
      <trkpt lat="36.77920765243470668792724609375" lon="-118.529633022844791412353515625">
        <ele>1928.5999755859375</ele>
        <time>2021-06-24T18:34:10.000Z</time>
        <extensions>
          <ns3:TrackPointExtension>
            <ns3:atemp>32.0</ns3:atemp>
            <ns3:hr>91</ns3:hr>
          </ns3:TrackPointExtension>
        </extensions>
      </trkpt>
      <trkpt lat="36.77923631854355335235595703125" lon="-118.5295329429209232330322265625">
        <ele>1929.4000244140625</ele>
        <time>2021-06-24T18:34:20.000Z</time>
        <extensions>
          <ns3:TrackPointExtension>
            <ns3:atemp>32.0</ns3:atemp>
            <ns3:hr>92</ns3:hr>
          </ns3:TrackPointExtension>
        </extensions>
      </trkpt>
      <trkpt lat="36.77924327552318572998046875" lon="-118.52952665649354457855224609375">
        <ele>1929.4000244140625</ele>
        <time>2021-06-24T18:34:21.000Z</time>
        <extensions>
          <ns3:TrackPointExtension>
            <ns3:atemp>32.0</ns3:atemp>
            <ns3:hr>93</ns3:hr>
          </ns3:TrackPointExtension>
        </extensions>
      </trkpt>
      <trkpt lat="36.77926330827176570892333984375" lon="-118.52949933148920536041259765625">
        <ele>1929.4000244140625</ele>
        <time>2021-06-24T18:34:22.000Z</time>
        <extensions>
          <ns3:TrackPointExtension>
            <ns3:atemp>32.0</ns3:atemp>
            <ns3:hr>92</ns3:hr>
          </ns3:TrackPointExtension>
        </extensions>
      </trkpt>
      <trkpt lat="36.7792776413261890411376953125" lon="-118.52946546860039234161376953125">
        <ele>1929.5999755859375</ele>
        <time>2021-06-24T18:34:24.000Z</time>
        <extensions>
          <ns3:TrackPointExtension>
            <ns3:atemp>32.0</ns3:atemp>
            <ns3:hr>94</ns3:hr>
          </ns3:TrackPointExtension>
        </extensions>
      </trkpt>
      <trkpt lat="36.77929063327610492706298828125" lon="-118.52944367565214633941650390625">
        <ele>1929.5999755859375</ele>
        <time>2021-06-24T18:34:26.000Z</time>
        <extensions>
          <ns3:TrackPointExtension>
            <ns3:atemp>32.0</ns3:atemp>
            <ns3:hr>95</ns3:hr>
          </ns3:TrackPointExtension>
        </extensions>
      </trkpt>
      <trkpt lat="36.779307313263416290283203125" lon="-118.5294140875339508056640625">
        <ele>1929.800048828125</ele>
        <time>2021-06-24T18:34:28.000Z</time>
        <extensions>
          <ns3:TrackPointExtension>
            <ns3:atemp>32.0</ns3:atemp>
            <ns3:hr>95</ns3:hr>
          </ns3:TrackPointExtension>
        </extensions>
      </trkpt>
      <trkpt lat="36.77932332269847393035888671875" lon="-118.5293941386044025421142578125">
        <ele>1930</ele>
        <time>2021-06-24T18:34:30.000Z</time>
        <extensions>
          <ns3:TrackPointExtension>
            <ns3:atemp>32.0</ns3:atemp>
            <ns3:hr>96</ns3:hr>
          </ns3:TrackPointExtension>
        </extensions>
      </trkpt>
      <trkpt lat="36.779332458972930908203125" lon="-118.52939539588987827301025390625">
        <ele>1930.199951171875</ele>
        <time>2021-06-24T18:34:32.000Z</time>
        <extensions>
          <ns3:TrackPointExtension>
            <ns3:atemp>32.0</ns3:atemp>
            <ns3:hr>96</ns3:hr>
          </ns3:TrackPointExtension>
        </extensions>
      </trkpt>
      <trkpt lat="36.77932566963136196136474609375" lon="-118.52939723990857601165771484375">
        <ele>1930.5999755859375</ele>
        <time>2021-06-24T18:34:34.000Z</time>
        <extensions>
          <ns3:TrackPointExtension>
            <ns3:atemp>32.0</ns3:atemp>
            <ns3:hr>96</ns3:hr>
          </ns3:TrackPointExtension>
        </extensions>
      </trkpt>
      <trkpt lat="36.7793299444019794464111328125" lon="-118.52937578223645687103271484375">
        <ele>1931</ele>
        <time>2021-06-24T18:34:36.000Z</time>
        <extensions>
          <ns3:TrackPointExtension>
            <ns3:atemp>32.0</ns3:atemp>
            <ns3:hr>97</ns3:hr>
          </ns3:TrackPointExtension>
        </extensions>
      </trkpt>
      <trkpt lat="36.7793322913348674774169921875" lon="-118.52935977280139923095703125">
        <ele>1931.4000244140625</ele>
        <time>2021-06-24T18:34:37.000Z</time>
        <extensions>
          <ns3:TrackPointExtension>
            <ns3:atemp>32.0</ns3:atemp>
            <ns3:hr>99</ns3:hr>
          </ns3:TrackPointExtension>
        </extensions>
      </trkpt>
      <trkpt lat="36.77933539263904094696044921875" lon="-118.52932314388453960418701171875">
        <ele>1931.800048828125</ele>
        <time>2021-06-24T18:34:40.000Z</time>
        <extensions>
          <ns3:TrackPointExtension>
            <ns3:atemp>32.0</ns3:atemp>
            <ns3:hr>100</ns3:hr>
          </ns3:TrackPointExtension>
        </extensions>
      </trkpt>
      <trkpt lat="36.7793487198650836944580078125" lon="-118.5292667336761951446533203125">
        <ele>1931.800048828125</ele>
        <time>2021-06-24T18:34:44.000Z</time>
        <extensions>
          <ns3:TrackPointExtension>
            <ns3:atemp>32.0</ns3:atemp>
            <ns3:hr>103</ns3:hr>
          </ns3:TrackPointExtension>
        </extensions>
      </trkpt>
      <trkpt lat="36.77935383282601833343505859375" lon="-118.5292560048401355743408203125">
        <ele>1931.800048828125</ele>
        <time>2021-06-24T18:34:45.000Z</time>
        <extensions>
          <ns3:TrackPointExtension>
            <ns3:atemp>32.0</ns3:atemp>
            <ns3:hr>102</ns3:hr>
          </ns3:TrackPointExtension>
        </extensions>
      </trkpt>
      <trkpt lat="36.7793778888881206512451171875" lon="-118.5292000137269496917724609375">
        <ele>1932.199951171875</ele>
        <time>2021-06-24T18:34:50.000Z</time>
        <extensions>
          <ns3:TrackPointExtension>
            <ns3:atemp>32.0</ns3:atemp>
            <ns3:hr>105</ns3:hr>
          </ns3:TrackPointExtension>
        </extensions>
      </trkpt>
      <trkpt lat="36.77939306013286113739013671875" lon="-118.529180400073528289794921875">
        <ele>1932.5999755859375</ele>
        <time>2021-06-24T18:34:51.000Z</time>
        <extensions>
          <ns3:TrackPointExtension>
            <ns3:atemp>32.0</ns3:atemp>
            <ns3:hr>106</ns3:hr>
          </ns3:TrackPointExtension>
        </extensions>
      </trkpt>
      <trkpt lat="36.77940295077860355377197265625" lon="-118.52916489355266094207763671875">
        <ele>1932.5999755859375</ele>
        <time>2021-06-24T18:34:52.000Z</time>
        <extensions>
          <ns3:TrackPointExtension>
            <ns3:atemp>32.0</ns3:atemp>
            <ns3:hr>107</ns3:hr>
          </ns3:TrackPointExtension>
        </extensions>
      </trkpt>
      <trkpt lat="36.7794087342917919158935546875" lon="-118.5291463695466518402099609375">
        <ele>1932.800048828125</ele>
        <time>2021-06-24T18:34:54.000Z</time>
        <extensions>
          <ns3:TrackPointExtension>
            <ns3:atemp>32.0</ns3:atemp>
            <ns3:hr>109</ns3:hr>
          </ns3:TrackPointExtension>
        </extensions>
      </trkpt>
      <trkpt lat="36.77939456887543201446533203125" lon="-118.5291336290538311004638671875">
        <ele>1933.199951171875</ele>
        <time>2021-06-24T18:34:56.000Z</time>
        <extensions>
          <ns3:TrackPointExtension>
            <ns3:atemp>32.0</ns3:atemp>
            <ns3:hr>109</ns3:hr>
          </ns3:TrackPointExtension>
        </extensions>
      </trkpt>
      <trkpt lat="36.779396496713161468505859375" lon="-118.5291027836501598358154296875">
        <ele>1933.4000244140625</ele>
        <time>2021-06-24T18:34:58.000Z</time>
        <extensions>
          <ns3:TrackPointExtension>
            <ns3:atemp>32.0</ns3:atemp>
            <ns3:hr>110</ns3:hr>
          </ns3:TrackPointExtension>
        </extensions>
      </trkpt>
      <trkpt lat="36.77939482033252716064453125" lon="-118.52900144644081592559814453125">
        <ele>1933.800048828125</ele>
        <time>2021-06-24T18:35:05.000Z</time>
        <extensions>
          <ns3:TrackPointExtension>
            <ns3:atemp>32.0</ns3:atemp>
            <ns3:hr>107</ns3:hr>
          </ns3:TrackPointExtension>
        </extensions>
      </trkpt>
      <trkpt lat="36.77939741872251033782958984375" lon="-118.5289904661476612091064453125">
        <ele>1933.800048828125</ele>
        <time>2021-06-24T18:35:06.000Z</time>
        <extensions>
          <ns3:TrackPointExtension>
            <ns3:atemp>32.0</ns3:atemp>
            <ns3:hr>105</ns3:hr>
          </ns3:TrackPointExtension>
        </extensions>
      </trkpt>
      <trkpt lat="36.7793949879705905914306640625" lon="-118.5289844311773777008056640625">
        <ele>1934</ele>
        <time>2021-06-24T18:35:07.000Z</time>
        <extensions>
          <ns3:TrackPointExtension>
            <ns3:atemp>32.0</ns3:atemp>
            <ns3:hr>104</ns3:hr>
          </ns3:TrackPointExtension>
        </extensions>
      </trkpt>
      <trkpt lat="36.77940865047276020050048828125" lon="-118.52892181836068630218505859375">
        <ele>1934.800048828125</ele>
        <time>2021-06-24T18:35:13.000Z</time>
        <extensions>
          <ns3:TrackPointExtension>
            <ns3:atemp>32.0</ns3:atemp>
            <ns3:hr>102</ns3:hr>
          </ns3:TrackPointExtension>
        </extensions>
      </trkpt>
      <trkpt lat="36.77940412424504756927490234375" lon="-118.52889382280409336090087890625">
        <ele>1934.800048828125</ele>
        <time>2021-06-24T18:35:16.000Z</time>
        <extensions>
          <ns3:TrackPointExtension>
            <ns3:atemp>32.0</ns3:atemp>
            <ns3:hr>100</ns3:hr>
          </ns3:TrackPointExtension>
        </extensions>
      </trkpt>
      <trkpt lat="36.77938769571483135223388671875" lon="-118.52887831628322601318359375">
        <ele>1934.800048828125</ele>
        <time>2021-06-24T18:35:18.000Z</time>
        <extensions>
          <ns3:TrackPointExtension>
            <ns3:atemp>32.0</ns3:atemp>
            <ns3:hr>100</ns3:hr>
          </ns3:TrackPointExtension>
        </extensions>
      </trkpt>
      <trkpt lat="36.77937914617359638214111328125" lon="-118.52887370623648166656494140625">
        <ele>1934.800048828125</ele>
        <time>2021-06-24T18:35:19.000Z</time>
        <extensions>
          <ns3:TrackPointExtension>
            <ns3:atemp>32.0</ns3:atemp>
            <ns3:hr>97</ns3:hr>
          </ns3:TrackPointExtension>
        </extensions>
      </trkpt>
      <trkpt lat="36.77937814034521579742431640625" lon="-118.5288590379059314727783203125">
        <ele>1934.800048828125</ele>
        <time>2021-06-24T18:35:20.000Z</time>
        <extensions>
          <ns3:TrackPointExtension>
            <ns3:atemp>32.0</ns3:atemp>
            <ns3:hr>98</ns3:hr>
          </ns3:TrackPointExtension>
        </extensions>
      </trkpt>
      <trkpt lat="36.77935182116925716400146484375" lon="-118.52879508398473262786865234375">
        <ele>1934.800048828125</ele>
        <time>2021-06-24T18:35:24.000Z</time>
        <extensions>
          <ns3:TrackPointExtension>
            <ns3:atemp>32.0</ns3:atemp>
            <ns3:hr>98</ns3:hr>
          </ns3:TrackPointExtension>
        </extensions>
      </trkpt>
      <trkpt lat="36.77934997715055942535400390625" lon="-118.52876164019107818603515625">
        <ele>1935</ele>
        <time>2021-06-24T18:35:26.000Z</time>
        <extensions>
          <ns3:TrackPointExtension>
            <ns3:atemp>32.0</ns3:atemp>
            <ns3:hr>97</ns3:hr>
          </ns3:TrackPointExtension>
        </extensions>
      </trkpt>
      <trkpt lat="36.77935802377760410308837890625" lon="-118.52873188443481922149658203125">
        <ele>1935.199951171875</ele>
        <time>2021-06-24T18:35:28.000Z</time>
        <extensions>
          <ns3:TrackPointExtension>
            <ns3:atemp>32.0</ns3:atemp>
            <ns3:hr>97</ns3:hr>
          </ns3:TrackPointExtension>
        </extensions>
      </trkpt>
      <trkpt lat="36.77935936488211154937744140625" lon="-118.528718054294586181640625">
        <ele>1935.4000244140625</ele>
        <time>2021-06-24T18:35:29.000Z</time>
        <extensions>
          <ns3:TrackPointExtension>
            <ns3:atemp>32.0</ns3:atemp>
            <ns3:hr>96</ns3:hr>
          </ns3:TrackPointExtension>
        </extensions>
      </trkpt>
      <trkpt lat="36.77934461273252964019775390625" lon="-118.52868343703448772430419921875">
        <ele>1936</ele>
        <time>2021-06-24T18:35:32.000Z</time>
        <extensions>
          <ns3:TrackPointExtension>
            <ns3:atemp>32.0</ns3:atemp>
            <ns3:hr>95</ns3:hr>
          </ns3:TrackPointExtension>
        </extensions>
      </trkpt>
      <trkpt lat="36.7793364822864532470703125" lon="-118.5286615602672100067138671875">
        <ele>1936</ele>
        <time>2021-06-24T18:35:34.000Z</time>
        <extensions>
          <ns3:TrackPointExtension>
            <ns3:atemp>32.0</ns3:atemp>
            <ns3:hr>97</ns3:hr>
          </ns3:TrackPointExtension>
        </extensions>
      </trkpt>
      <trkpt lat="36.77932768128812313079833984375" lon="-118.528653346002101898193359375">
        <ele>1936</ele>
        <time>2021-06-24T18:35:35.000Z</time>
        <extensions>
          <ns3:TrackPointExtension>
            <ns3:atemp>32.0</ns3:atemp>
            <ns3:hr>97</ns3:hr>
          </ns3:TrackPointExtension>
        </extensions>
      </trkpt>
      <trkpt lat="36.77931074984371662139892578125" lon="-118.52859324775636196136474609375">
        <ele>1936</ele>
        <time>2021-06-24T18:35:39.000Z</time>
        <extensions>
          <ns3:TrackPointExtension>
            <ns3:atemp>32.0</ns3:atemp>
            <ns3:hr>99</ns3:hr>
          </ns3:TrackPointExtension>
        </extensions>
      </trkpt>
      <trkpt lat="36.779318042099475860595703125" lon="-118.528547398746013641357421875">
        <ele>1936.199951171875</ele>
        <time>2021-06-24T18:35:41.000Z</time>
        <extensions>
          <ns3:TrackPointExtension>
            <ns3:atemp>32.0</ns3:atemp>
            <ns3:hr>98</ns3:hr>
          </ns3:TrackPointExtension>
        </extensions>
      </trkpt>
      <trkpt lat="36.77931611426174640655517578125" lon="-118.528504483401775360107421875">
        <ele>1936.800048828125</ele>
        <time>2021-06-24T18:35:45.000Z</time>
        <extensions>
          <ns3:TrackPointExtension>
            <ns3:atemp>32.0</ns3:atemp>
            <ns3:hr>101</ns3:hr>
          </ns3:TrackPointExtension>
        </extensions>
      </trkpt>
      <trkpt lat="36.77932919003069400787353515625" lon="-118.5284731350839138031005859375">
        <ele>1937.199951171875</ele>
        <time>2021-06-24T18:35:50.000Z</time>
        <extensions>
          <ns3:TrackPointExtension>
            <ns3:atemp>32.0</ns3:atemp>
            <ns3:hr>101</ns3:hr>
          </ns3:TrackPointExtension>
        </extensions>
      </trkpt>
      <trkpt lat="36.7793212272226810455322265625" lon="-118.52844840846955776214599609375">
        <ele>1937.199951171875</ele>
        <time>2021-06-24T18:35:54.000Z</time>
        <extensions>
          <ns3:TrackPointExtension>
            <ns3:atemp>32.0</ns3:atemp>
            <ns3:hr>101</ns3:hr>
          </ns3:TrackPointExtension>
        </extensions>
      </trkpt>
      <trkpt lat="36.77931125275790691375732421875" lon="-118.52840247564017772674560546875">
        <ele>1937.199951171875</ele>
        <time>2021-06-24T18:35:57.000Z</time>
        <extensions>
          <ns3:TrackPointExtension>
            <ns3:atemp>32.0</ns3:atemp>
            <ns3:hr>100</ns3:hr>
          </ns3:TrackPointExtension>
        </extensions>
      </trkpt>
      <trkpt lat="36.779310666024684906005859375" lon="-118.52833206765353679656982421875">
        <ele>1937.4000244140625</ele>
        <time>2021-06-24T18:36:01.000Z</time>
        <extensions>
          <ns3:TrackPointExtension>
            <ns3:atemp>32.0</ns3:atemp>
            <ns3:hr>100</ns3:hr>
          </ns3:TrackPointExtension>
        </extensions>
      </trkpt>
      <trkpt lat="36.77930898964405059814453125" lon="-118.528260402381420135498046875">
        <ele>1937.5999755859375</ele>
        <time>2021-06-24T18:36:05.000Z</time>
        <extensions>
          <ns3:TrackPointExtension>
            <ns3:atemp>32.0</ns3:atemp>
            <ns3:hr>99</ns3:hr>
          </ns3:TrackPointExtension>
        </extensions>
      </trkpt>
      <trkpt lat="36.77930387668311595916748046875" lon="-118.52824665606021881103515625">
        <ele>1937.5999755859375</ele>
        <time>2021-06-24T18:36:06.000Z</time>
        <extensions>
          <ns3:TrackPointExtension>
            <ns3:atemp>32.0</ns3:atemp>
            <ns3:hr>96</ns3:hr>
          </ns3:TrackPointExtension>
        </extensions>
      </trkpt>
      <trkpt lat="36.7793021164834499359130859375" lon="-118.52822544984519481658935546875">
        <ele>1937.800048828125</ele>
        <time>2021-06-24T18:36:07.000Z</time>
        <extensions>
          <ns3:TrackPointExtension>
            <ns3:atemp>32.0</ns3:atemp>
            <ns3:hr>100</ns3:hr>
          </ns3:TrackPointExtension>
        </extensions>
      </trkpt>
      <trkpt lat="36.7792950756847858428955078125" lon="-118.52818588726222515106201171875">
        <ele>1937.800048828125</ele>
        <time>2021-06-24T18:36:09.000Z</time>
        <extensions>
          <ns3:TrackPointExtension>
            <ns3:atemp>32.0</ns3:atemp>
            <ns3:hr>100</ns3:hr>
          </ns3:TrackPointExtension>
        </extensions>
      </trkpt>
      <trkpt lat="36.7792984284460544586181640625" lon="-118.52813676930963993072509765625">
        <ele>1938</ele>
        <time>2021-06-24T18:36:11.000Z</time>
        <extensions>
          <ns3:TrackPointExtension>
            <ns3:atemp>32.0</ns3:atemp>
            <ns3:hr>100</ns3:hr>
          </ns3:TrackPointExtension>
        </extensions>
      </trkpt>
      <trkpt lat="36.779275126755237579345703125" lon="-118.52808647789061069488525390625">
        <ele>1938.199951171875</ele>
        <time>2021-06-24T18:36:14.000Z</time>
        <extensions>
          <ns3:TrackPointExtension>
            <ns3:atemp>32.0</ns3:atemp>
            <ns3:hr>102</ns3:hr>
          </ns3:TrackPointExtension>
        </extensions>
      </trkpt>
      <trkpt lat="36.779273785650730133056640625" lon="-118.52806267328560352325439453125">
        <ele>1938.4000244140625</ele>
        <time>2021-06-24T18:36:15.000Z</time>
        <extensions>
          <ns3:TrackPointExtension>
            <ns3:atemp>32.0</ns3:atemp>
            <ns3:hr>102</ns3:hr>
          </ns3:TrackPointExtension>
        </extensions>
      </trkpt>
      <trkpt lat="36.77927814424037933349609375" lon="-118.5280245356261730194091796875">
        <ele>1938.4000244140625</ele>
        <time>2021-06-24T18:36:17.000Z</time>
        <extensions>
          <ns3:TrackPointExtension>
            <ns3:atemp>32.0</ns3:atemp>
            <ns3:hr>103</ns3:hr>
          </ns3:TrackPointExtension>
        </extensions>
      </trkpt>
      <trkpt lat="36.77927814424037933349609375" lon="-118.52800131775438785552978515625">
        <ele>1938.5999755859375</ele>
        <time>2021-06-24T18:36:19.000Z</time>
        <extensions>
          <ns3:TrackPointExtension>
            <ns3:atemp>32.0</ns3:atemp>
            <ns3:hr>101</ns3:hr>
          </ns3:TrackPointExtension>
        </extensions>
      </trkpt>
      <trkpt lat="36.7792716063559055328369140625" lon="-118.5279256291687488555908203125">
        <ele>1938.800048828125</ele>
        <time>2021-06-24T18:36:23.000Z</time>
        <extensions>
          <ns3:TrackPointExtension>
            <ns3:atemp>32.0</ns3:atemp>
            <ns3:hr>101</ns3:hr>
          </ns3:TrackPointExtension>
        </extensions>
      </trkpt>
      <trkpt lat="36.77923548035323619842529296875" lon="-118.5278532095253467559814453125">
        <ele>1939.4000244140625</ele>
        <time>2021-06-24T18:36:27.000Z</time>
        <extensions>
          <ns3:TrackPointExtension>
            <ns3:atemp>32.0</ns3:atemp>
            <ns3:hr>101</ns3:hr>
          </ns3:TrackPointExtension>
        </extensions>
      </trkpt>
      <trkpt lat="36.7792176268994808197021484375" lon="-118.527782298624515533447265625">
        <ele>1939.800048828125</ele>
        <time>2021-06-24T18:36:31.000Z</time>
        <extensions>
          <ns3:TrackPointExtension>
            <ns3:atemp>32.0</ns3:atemp>
            <ns3:hr>102</ns3:hr>
          </ns3:TrackPointExtension>
        </extensions>
      </trkpt>
      <trkpt lat="36.77919474430382251739501953125" lon="-118.52769277989864349365234375">
        <ele>1940.199951171875</ele>
        <time>2021-06-24T18:36:36.000Z</time>
        <extensions>
          <ns3:TrackPointExtension>
            <ns3:atemp>32.0</ns3:atemp>
            <ns3:hr>103</ns3:hr>
          </ns3:TrackPointExtension>
        </extensions>
      </trkpt>
      <trkpt lat="36.77920027635991573333740234375" lon="-118.52767023257911205291748046875">
        <ele>1940.199951171875</ele>
        <time>2021-06-24T18:36:38.000Z</time>
        <extensions>
          <ns3:TrackPointExtension>
            <ns3:atemp>32.0</ns3:atemp>
            <ns3:hr>102</ns3:hr>
          </ns3:TrackPointExtension>
        </extensions>
      </trkpt>
      <trkpt lat="36.77920513786375522613525390625" lon="-118.52766168303787708282470703125">
        <ele>1940.4000244140625</ele>
        <time>2021-06-24T18:36:39.000Z</time>
        <extensions>
          <ns3:TrackPointExtension>
            <ns3:atemp>32.0</ns3:atemp>
            <ns3:hr>105</ns3:hr>
          </ns3:TrackPointExtension>
        </extensions>
      </trkpt>
      <trkpt lat="36.77920999936759471893310546875" lon="-118.5276584140956401824951171875">
        <ele>1940.5999755859375</ele>
        <time>2021-06-24T18:36:40.000Z</time>
        <extensions>
          <ns3:TrackPointExtension>
            <ns3:atemp>32.0</ns3:atemp>
            <ns3:hr>103</ns3:hr>
          </ns3:TrackPointExtension>
        </extensions>
      </trkpt>
      <trkpt lat="36.779240258038043975830078125" lon="-118.52762429974973201751708984375">
        <ele>1940.800048828125</ele>
        <time>2021-06-24T18:36:44.000Z</time>
        <extensions>
          <ns3:TrackPointExtension>
            <ns3:atemp>32.0</ns3:atemp>
            <ns3:hr>103</ns3:hr>
          </ns3:TrackPointExtension>
        </extensions>
      </trkpt>
      <trkpt lat="36.77926867268979549407958984375" lon="-118.52752807550132274627685546875">
        <ele>1941.4000244140625</ele>
        <time>2021-06-24T18:36:51.000Z</time>
        <extensions>
          <ns3:TrackPointExtension>
            <ns3:atemp>32.0</ns3:atemp>
            <ns3:hr>102</ns3:hr>
          </ns3:TrackPointExtension>
        </extensions>
      </trkpt>
      <trkpt lat="36.7792759649455547332763671875" lon="-118.52750192396342754364013671875">
        <ele>1941.5999755859375</ele>
        <time>2021-06-24T18:36:52.000Z</time>
        <extensions>
          <ns3:TrackPointExtension>
            <ns3:atemp>32.0</ns3:atemp>
            <ns3:hr>101</ns3:hr>
          </ns3:TrackPointExtension>
        </extensions>
      </trkpt>
      <trkpt lat="36.77927152253687381744384765625" lon="-118.52747091092169284820556640625">
        <ele>1941.5999755859375</ele>
        <time>2021-06-24T18:36:54.000Z</time>
        <extensions>
          <ns3:TrackPointExtension>
            <ns3:atemp>32.0</ns3:atemp>
            <ns3:hr>99</ns3:hr>
          </ns3:TrackPointExtension>
        </extensions>
      </trkpt>
      <trkpt lat="36.7792565189301967620849609375" lon="-118.52746454067528247833251953125">
        <ele>1941.800048828125</ele>
        <time>2021-06-24T18:36:58.000Z</time>
        <extensions>
          <ns3:TrackPointExtension>
            <ns3:atemp>32.0</ns3:atemp>
            <ns3:hr>101</ns3:hr>
          </ns3:TrackPointExtension>
        </extensions>
      </trkpt>
      <trkpt lat="36.779263727366924285888671875" lon="-118.52744056843221187591552734375">
        <ele>1942</ele>
        <time>2021-06-24T18:37:01.000Z</time>
        <extensions>
          <ns3:TrackPointExtension>
            <ns3:atemp>32.0</ns3:atemp>
            <ns3:hr>102</ns3:hr>
          </ns3:TrackPointExtension>
        </extensions>
      </trkpt>
      <trkpt lat="36.7792759649455547332763671875" lon="-118.52740905247628688812255859375">
        <ele>1942</ele>
        <time>2021-06-24T18:37:03.000Z</time>
        <extensions>
          <ns3:TrackPointExtension>
            <ns3:atemp>32.0</ns3:atemp>
            <ns3:hr>102</ns3:hr>
          </ns3:TrackPointExtension>
        </extensions>
      </trkpt>
      <trkpt lat="36.7792699299752712249755859375" lon="-118.5273606888949871063232421875">
        <ele>1942.199951171875</ele>
        <time>2021-06-24T18:37:06.000Z</time>
        <extensions>
          <ns3:TrackPointExtension>
            <ns3:atemp>32.0</ns3:atemp>
            <ns3:hr>105</ns3:hr>
          </ns3:TrackPointExtension>
        </extensions>
      </trkpt>
      <trkpt lat="36.779267750680446624755859375" lon="-118.52734400890767574310302734375">
        <ele>1942.199951171875</ele>
        <time>2021-06-24T18:37:07.000Z</time>
        <extensions>
          <ns3:TrackPointExtension>
            <ns3:atemp>32.0</ns3:atemp>
            <ns3:hr>104</ns3:hr>
          </ns3:TrackPointExtension>
        </extensions>
      </trkpt>
      <trkpt lat="36.77926205098628997802734375" lon="-118.52727678604423999786376953125">
        <ele>1942.4000244140625</ele>
        <time>2021-06-24T18:37:11.000Z</time>
        <extensions>
          <ns3:TrackPointExtension>
            <ns3:atemp>32.0</ns3:atemp>
            <ns3:hr>107</ns3:hr>
          </ns3:TrackPointExtension>
        </extensions>
      </trkpt>
      <trkpt lat="36.77925727330148220062255859375" lon="-118.52724728174507617950439453125">
        <ele>1942.5999755859375</ele>
        <time>2021-06-24T18:37:13.000Z</time>
        <extensions>
          <ns3:TrackPointExtension>
            <ns3:atemp>32.0</ns3:atemp>
            <ns3:hr>109</ns3:hr>
          </ns3:TrackPointExtension>
        </extensions>
      </trkpt>
      <trkpt lat="36.7792491428554058074951171875" lon="-118.5272285901010036468505859375">
        <ele>1943</ele>
        <time>2021-06-24T18:37:15.000Z</time>
        <extensions>
          <ns3:TrackPointExtension>
            <ns3:atemp>32.0</ns3:atemp>
            <ns3:hr>113</ns3:hr>
          </ns3:TrackPointExtension>
        </extensions>
      </trkpt>
      <trkpt lat="36.77924319170415401458740234375" lon="-118.52722297422587871551513671875">
        <ele>1943</ele>
        <time>2021-06-24T18:37:16.000Z</time>
        <extensions>
          <ns3:TrackPointExtension>
            <ns3:atemp>32.0</ns3:atemp>
            <ns3:hr>114</ns3:hr>
          </ns3:TrackPointExtension>
        </extensions>
      </trkpt>
      <trkpt lat="36.77921888418495655059814453125" lon="-118.5271139256656169891357421875">
        <ele>1943</ele>
        <time>2021-06-24T18:37:24.000Z</time>
        <extensions>
          <ns3:TrackPointExtension>
            <ns3:atemp>32.0</ns3:atemp>
            <ns3:hr>114</ns3:hr>
          </ns3:TrackPointExtension>
        </extensions>
      </trkpt>
      <trkpt lat="36.77921335212886333465576171875" lon="-118.527065478265285491943359375">
        <ele>1943.4000244140625</ele>
        <time>2021-06-24T18:37:27.000Z</time>
        <extensions>
          <ns3:TrackPointExtension>
            <ns3:atemp>32.0</ns3:atemp>
            <ns3:hr>113</ns3:hr>
          </ns3:TrackPointExtension>
        </extensions>
      </trkpt>
      <trkpt lat="36.77921108901500701904296875" lon="-118.5269987583160400390625">
        <ele>1943.4000244140625</ele>
        <time>2021-06-24T18:37:31.000Z</time>
        <extensions>
          <ns3:TrackPointExtension>
            <ns3:atemp>32.0</ns3:atemp>
            <ns3:hr>113</ns3:hr>
          </ns3:TrackPointExtension>
        </extensions>
      </trkpt>
      <trkpt lat="36.77921117283403873443603515625" lon="-118.52695844136178493499755859375">
        <ele>1943.199951171875</ele>
        <time>2021-06-24T18:37:34.000Z</time>
        <extensions>
          <ns3:TrackPointExtension>
            <ns3:atemp>32.0</ns3:atemp>
            <ns3:hr>112</ns3:hr>
          </ns3:TrackPointExtension>
        </extensions>
      </trkpt>
      <trkpt lat="36.779193319380283355712890625" lon="-118.52689960040152072906494140625">
        <ele>1943</ele>
        <time>2021-06-24T18:37:38.000Z</time>
        <extensions>
          <ns3:TrackPointExtension>
            <ns3:atemp>32.0</ns3:atemp>
            <ns3:hr>111</ns3:hr>
          </ns3:TrackPointExtension>
        </extensions>
      </trkpt>
      <trkpt lat="36.77918418310582637786865234375" lon="-118.52683690376579761505126953125">
        <ele>1943.199951171875</ele>
        <time>2021-06-24T18:37:44.000Z</time>
        <extensions>
          <ns3:TrackPointExtension>
            <ns3:atemp>32.0</ns3:atemp>
            <ns3:hr>111</ns3:hr>
          </ns3:TrackPointExtension>
        </extensions>
      </trkpt>
      <trkpt lat="36.77918032743036746978759765625" lon="-118.526819385588169097900390625">
        <ele>1943.199951171875</ele>
        <time>2021-06-24T18:37:46.000Z</time>
        <extensions>
          <ns3:TrackPointExtension>
            <ns3:atemp>32.0</ns3:atemp>
            <ns3:hr>109</ns3:hr>
          </ns3:TrackPointExtension>
        </extensions>
      </trkpt>
      <trkpt lat="36.7791911400854587554931640625" lon="-118.52675040252506732940673828125">
        <ele>1943.5999755859375</ele>
        <time>2021-06-24T18:37:51.000Z</time>
        <extensions>
          <ns3:TrackPointExtension>
            <ns3:atemp>32.0</ns3:atemp>
            <ns3:hr>106</ns3:hr>
          </ns3:TrackPointExtension>
        </extensions>
      </trkpt>
      <trkpt lat="36.77919692359864711761474609375" lon="-118.5267427749931812286376953125">
        <ele>1943.5999755859375</ele>
        <time>2021-06-24T18:37:52.000Z</time>
        <extensions>
          <ns3:TrackPointExtension>
            <ns3:atemp>32.0</ns3:atemp>
            <ns3:hr>107</ns3:hr>
          </ns3:TrackPointExtension>
        </extensions>
      </trkpt>
      <trkpt lat="36.7791951633989810943603515625" lon="-118.52671721018850803375244140625">
        <ele>1943.5999755859375</ele>
        <time>2021-06-24T18:37:54.000Z</time>
        <extensions>
          <ns3:TrackPointExtension>
            <ns3:atemp>32.0</ns3:atemp>
            <ns3:hr>106</ns3:hr>
          </ns3:TrackPointExtension>
        </extensions>
      </trkpt>
      <trkpt lat="36.77919365465641021728515625" lon="-118.52662526071071624755859375">
        <ele>1943.800048828125</ele>
        <time>2021-06-24T18:37:59.000Z</time>
        <extensions>
          <ns3:TrackPointExtension>
            <ns3:atemp>32.0</ns3:atemp>
            <ns3:hr>104</ns3:hr>
          </ns3:TrackPointExtension>
        </extensions>
      </trkpt>
      <trkpt lat="36.7791934870183467864990234375" lon="-118.5266033001244068145751953125">
        <ele>1944</ele>
        <time>2021-06-24T18:38:01.000Z</time>
        <extensions>
          <ns3:TrackPointExtension>
            <ns3:atemp>32.0</ns3:atemp>
            <ns3:hr>107</ns3:hr>
          </ns3:TrackPointExtension>
        </extensions>
      </trkpt>
      <trkpt lat="36.7791911400854587554931640625" lon="-118.5265945829451084136962890625">
        <ele>1944.199951171875</ele>
        <time>2021-06-24T18:38:02.000Z</time>
        <extensions>
          <ns3:TrackPointExtension>
            <ns3:atemp>32.0</ns3:atemp>
            <ns3:hr>107</ns3:hr>
          </ns3:TrackPointExtension>
        </extensions>
      </trkpt>
      <trkpt lat="36.779171191155910491943359375" lon="-118.526497520506381988525390625">
        <ele>1944.5999755859375</ele>
        <time>2021-06-24T18:38:09.000Z</time>
        <extensions>
          <ns3:TrackPointExtension>
            <ns3:atemp>32.0</ns3:atemp>
            <ns3:hr>108</ns3:hr>
          </ns3:TrackPointExtension>
        </extensions>
      </trkpt>
      <trkpt lat="36.7791686765849590301513671875" lon="-118.5264623165130615234375">
        <ele>1944.5999755859375</ele>
        <time>2021-06-24T18:38:11.000Z</time>
        <extensions>
          <ns3:TrackPointExtension>
            <ns3:atemp>32.0</ns3:atemp>
            <ns3:hr>108</ns3:hr>
          </ns3:TrackPointExtension>
        </extensions>
      </trkpt>
      <trkpt lat="36.77915920503437519073486328125" lon="-118.526405990123748779296875">
        <ele>1944.5999755859375</ele>
        <time>2021-06-24T18:38:16.000Z</time>
        <extensions>
          <ns3:TrackPointExtension>
            <ns3:atemp>32.0</ns3:atemp>
            <ns3:hr>107</ns3:hr>
          </ns3:TrackPointExtension>
        </extensions>
      </trkpt>
      <trkpt lat="36.7791529186069965362548828125" lon="-118.526372797787189483642578125">
        <ele>1944.5999755859375</ele>
        <time>2021-06-24T18:38:19.000Z</time>
        <extensions>
          <ns3:TrackPointExtension>
            <ns3:atemp>32.0</ns3:atemp>
            <ns3:hr>107</ns3:hr>
          </ns3:TrackPointExtension>
        </extensions>
      </trkpt>
      <trkpt lat="36.77915652282536029815673828125" lon="-118.5263612307608127593994140625">
        <ele>1944.5999755859375</ele>
        <time>2021-06-24T18:38:20.000Z</time>
        <extensions>
          <ns3:TrackPointExtension>
            <ns3:atemp>32.0</ns3:atemp>
            <ns3:hr>105</ns3:hr>
          </ns3:TrackPointExtension>
        </extensions>
      </trkpt>
      <trkpt lat="36.77915451116859912872314453125" lon="-118.5263263620436191558837890625">
        <ele>1945</ele>
        <time>2021-06-24T18:38:22.000Z</time>
        <extensions>
          <ns3:TrackPointExtension>
            <ns3:atemp>32.0</ns3:atemp>
            <ns3:hr>103</ns3:hr>
          </ns3:TrackPointExtension>
        </extensions>
      </trkpt>
      <trkpt lat="36.7791515775024890899658203125" lon="-118.526313118636608123779296875">
        <ele>1945</ele>
        <time>2021-06-24T18:38:23.000Z</time>
        <extensions>
          <ns3:TrackPointExtension>
            <ns3:atemp>32.0</ns3:atemp>
            <ns3:hr>106</ns3:hr>
          </ns3:TrackPointExtension>
        </extensions>
      </trkpt>
      <trkpt lat="36.779130958020687103271484375" lon="-118.5262727178633213043212890625">
        <ele>1945</ele>
        <time>2021-06-24T18:38:26.000Z</time>
        <extensions>
          <ns3:TrackPointExtension>
            <ns3:atemp>32.0</ns3:atemp>
            <ns3:hr>103</ns3:hr>
          </ns3:TrackPointExtension>
        </extensions>
      </trkpt>
      <trkpt lat="36.779117546975612640380859375" lon="-118.52621681056916713714599609375">
        <ele>1945</ele>
        <time>2021-06-24T18:38:29.000Z</time>
        <extensions>
          <ns3:TrackPointExtension>
            <ns3:atemp>32.0</ns3:atemp>
            <ns3:hr>102</ns3:hr>
          </ns3:TrackPointExtension>
        </extensions>
      </trkpt>
      <trkpt lat="36.77911712788045406341552734375" lon="-118.52617138065397739410400390625">
        <ele>1944.800048828125</ele>
        <time>2021-06-24T18:38:32.000Z</time>
        <extensions>
          <ns3:TrackPointExtension>
            <ns3:atemp>32.0</ns3:atemp>
            <ns3:hr>102</ns3:hr>
          </ns3:TrackPointExtension>
        </extensions>
      </trkpt>
      <trkpt lat="36.7791086621582508087158203125" lon="-118.526127375662326812744140625">
        <ele>1945</ele>
        <time>2021-06-24T18:38:35.000Z</time>
        <extensions>
          <ns3:TrackPointExtension>
            <ns3:atemp>32.0</ns3:atemp>
            <ns3:hr>104</ns3:hr>
          </ns3:TrackPointExtension>
        </extensions>
      </trkpt>
      <trkpt lat="36.77911159582436084747314453125" lon="-118.526115305721759796142578125">
        <ele>1945.199951171875</ele>
        <time>2021-06-24T18:38:36.000Z</time>
        <extensions>
          <ns3:TrackPointExtension>
            <ns3:atemp>32.0</ns3:atemp>
            <ns3:hr>103</ns3:hr>
          </ns3:TrackPointExtension>
        </extensions>
      </trkpt>
      <trkpt lat="36.77910338155925273895263671875" lon="-118.5260997153818607330322265625">
        <ele>1945.4000244140625</ele>
        <time>2021-06-24T18:38:37.000Z</time>
        <extensions>
          <ns3:TrackPointExtension>
            <ns3:atemp>32.0</ns3:atemp>
            <ns3:hr>99</ns3:hr>
          </ns3:TrackPointExtension>
        </extensions>
      </trkpt>
      <trkpt lat="36.77910170517861843109130859375" lon="-118.526078760623931884765625">
        <ele>1945.4000244140625</ele>
        <time>2021-06-24T18:38:38.000Z</time>
        <extensions>
          <ns3:TrackPointExtension>
            <ns3:atemp>32.0</ns3:atemp>
            <ns3:hr>102</ns3:hr>
          </ns3:TrackPointExtension>
        </extensions>
      </trkpt>
      <trkpt lat="36.77909801714122295379638671875" lon="-118.526057638227939605712890625">
        <ele>1945.4000244140625</ele>
        <time>2021-06-24T18:38:39.000Z</time>
        <extensions>
          <ns3:TrackPointExtension>
            <ns3:atemp>32.0</ns3:atemp>
            <ns3:hr>102</ns3:hr>
          </ns3:TrackPointExtension>
        </extensions>
      </trkpt>
      <trkpt lat="36.7790727876126766204833984375" lon="-118.526003658771514892578125">
        <ele>1945.4000244140625</ele>
        <time>2021-06-24T18:38:43.000Z</time>
        <extensions>
          <ns3:TrackPointExtension>
            <ns3:atemp>32.0</ns3:atemp>
            <ns3:hr>100</ns3:hr>
          </ns3:TrackPointExtension>
        </extensions>
      </trkpt>
      <trkpt lat="36.77906968630850315093994140625" lon="-118.5259961150586605072021484375">
        <ele>1945.4000244140625</ele>
        <time>2021-06-24T18:38:44.000Z</time>
        <extensions>
          <ns3:TrackPointExtension>
            <ns3:atemp>32.0</ns3:atemp>
            <ns3:hr>102</ns3:hr>
          </ns3:TrackPointExtension>
        </extensions>
      </trkpt>
      <trkpt lat="36.77906951867043972015380859375" lon="-118.525988571345806121826171875">
        <ele>1945.800048828125</ele>
        <time>2021-06-24T18:38:45.000Z</time>
        <extensions>
          <ns3:TrackPointExtension>
            <ns3:atemp>32.0</ns3:atemp>
            <ns3:hr>99</ns3:hr>
          </ns3:TrackPointExtension>
        </extensions>
      </trkpt>
      <trkpt lat="36.77906624972820281982421875" lon="-118.52596702985465526580810546875">
        <ele>1945.800048828125</ele>
        <time>2021-06-24T18:38:47.000Z</time>
        <extensions>
          <ns3:TrackPointExtension>
            <ns3:atemp>32.0</ns3:atemp>
            <ns3:hr>98</ns3:hr>
          </ns3:TrackPointExtension>
        </extensions>
      </trkpt>
      <trkpt lat="36.7790660820901393890380859375" lon="-118.52593752555549144744873046875">
        <ele>1946.199951171875</ele>
        <time>2021-06-24T18:38:49.000Z</time>
        <extensions>
          <ns3:TrackPointExtension>
            <ns3:atemp>32.0</ns3:atemp>
            <ns3:hr>96</ns3:hr>
          </ns3:TrackPointExtension>
        </extensions>
      </trkpt>
      <trkpt lat="36.77903716452419757843017578125" lon="-118.52589729242026805877685546875">
        <ele>1946.800048828125</ele>
        <time>2021-06-24T18:38:53.000Z</time>
        <extensions>
          <ns3:TrackPointExtension>
            <ns3:atemp>32.0</ns3:atemp>
            <ns3:hr>97</ns3:hr>
          </ns3:TrackPointExtension>
        </extensions>
      </trkpt>
      <trkpt lat="36.7790333926677703857421875" lon="-118.5258854739367961883544921875">
        <ele>1946.800048828125</ele>
        <time>2021-06-24T18:38:54.000Z</time>
        <extensions>
          <ns3:TrackPointExtension>
            <ns3:atemp>32.0</ns3:atemp>
            <ns3:hr>96</ns3:hr>
          </ns3:TrackPointExtension>
        </extensions>
      </trkpt>
      <trkpt lat="36.77903180010616779327392578125" lon="-118.52585940621793270111083984375">
        <ele>1947</ele>
        <time>2021-06-24T18:38:56.000Z</time>
        <extensions>
          <ns3:TrackPointExtension>
            <ns3:atemp>32.0</ns3:atemp>
            <ns3:hr>95</ns3:hr>
          </ns3:TrackPointExtension>
        </extensions>
      </trkpt>
      <trkpt lat="36.77902400493621826171875" lon="-118.5258502699434757232666015625">
        <ele>1947.199951171875</ele>
        <time>2021-06-24T18:38:57.000Z</time>
        <extensions>
          <ns3:TrackPointExtension>
            <ns3:atemp>32.0</ns3:atemp>
            <ns3:hr>95</ns3:hr>
          </ns3:TrackPointExtension>
        </extensions>
      </trkpt>
      <trkpt lat="36.77900916896760463714599609375" lon="-118.52583610452711582183837890625">
        <ele>1947.4000244140625</ele>
        <time>2021-06-24T18:38:59.000Z</time>
        <extensions>
          <ns3:TrackPointExtension>
            <ns3:atemp>31.0</ns3:atemp>
            <ns3:hr>98</ns3:hr>
          </ns3:TrackPointExtension>
        </extensions>
      </trkpt>
      <trkpt lat="36.7789856158196926116943359375" lon="-118.52581732906401157379150390625">
        <ele>1947.5999755859375</ele>
        <time>2021-06-24T18:39:02.000Z</time>
        <extensions>
          <ns3:TrackPointExtension>
            <ns3:atemp>31.0</ns3:atemp>
            <ns3:hr>99</ns3:hr>
          </ns3:TrackPointExtension>
        </extensions>
      </trkpt>
      <trkpt lat="36.7789711989462375640869140625" lon="-118.5257976315915584564208984375">
        <ele>1947.800048828125</ele>
        <time>2021-06-24T18:39:05.000Z</time>
        <extensions>
          <ns3:TrackPointExtension>
            <ns3:atemp>31.0</ns3:atemp>
            <ns3:hr>102</ns3:hr>
          </ns3:TrackPointExtension>
        </extensions>
      </trkpt>
      <trkpt lat="36.778972707688808441162109375" lon="-118.525785394012928009033203125">
        <ele>1948</ele>
        <time>2021-06-24T18:39:06.000Z</time>
        <extensions>
          <ns3:TrackPointExtension>
            <ns3:atemp>31.0</ns3:atemp>
            <ns3:hr>100</ns3:hr>
          </ns3:TrackPointExtension>
        </extensions>
      </trkpt>
      <trkpt lat="36.77898419089615345001220703125" lon="-118.525737784802913665771484375">
        <ele>1948.4000244140625</ele>
        <time>2021-06-24T18:39:10.000Z</time>
        <extensions>
          <ns3:TrackPointExtension>
            <ns3:atemp>31.0</ns3:atemp>
            <ns3:hr>100</ns3:hr>
          </ns3:TrackPointExtension>
        </extensions>
      </trkpt>
      <trkpt lat="36.7789903096854686737060546875" lon="-118.5257258825004100799560546875">
        <ele>1948.4000244140625</ele>
        <time>2021-06-24T18:39:11.000Z</time>
        <extensions>
          <ns3:TrackPointExtension>
            <ns3:atemp>31.0</ns3:atemp>
            <ns3:hr>100</ns3:hr>
          </ns3:TrackPointExtension>
        </extensions>
      </trkpt>
      <trkpt lat="36.7790000326931476593017578125" lon="-118.52571305818855762481689453125">
        <ele>1949</ele>
        <time>2021-06-24T18:39:14.000Z</time>
        <extensions>
          <ns3:TrackPointExtension>
            <ns3:atemp>31.0</ns3:atemp>
            <ns3:hr>103</ns3:hr>
          </ns3:TrackPointExtension>
        </extensions>
      </trkpt>
      <trkpt lat="36.77900061942636966705322265625" lon="-118.5257071070373058319091796875">
        <ele>1949.199951171875</ele>
        <time>2021-06-24T18:39:17.000Z</time>
        <extensions>
          <ns3:TrackPointExtension>
            <ns3:atemp>31.0</ns3:atemp>
            <ns3:hr>105</ns3:hr>
          </ns3:TrackPointExtension>
        </extensions>
      </trkpt>
      <trkpt lat="36.77899508737027645111083984375" lon="-118.5257017426192760467529296875">
        <ele>1949.199951171875</ele>
        <time>2021-06-24T18:39:18.000Z</time>
        <extensions>
          <ns3:TrackPointExtension>
            <ns3:atemp>31.0</ns3:atemp>
            <ns3:hr>107</ns3:hr>
          </ns3:TrackPointExtension>
        </extensions>
      </trkpt>
      <trkpt lat="36.77898821420967578887939453125" lon="-118.525696881115436553955078125">
        <ele>1949.4000244140625</ele>
        <time>2021-06-24T18:39:19.000Z</time>
        <extensions>
          <ns3:TrackPointExtension>
            <ns3:atemp>31.0</ns3:atemp>
            <ns3:hr>104</ns3:hr>
          </ns3:TrackPointExtension>
        </extensions>
      </trkpt>
      <trkpt lat="36.7789824306964874267578125" lon="-118.52567835710942745208740234375">
        <ele>1949.800048828125</ele>
        <time>2021-06-24T18:39:23.000Z</time>
        <extensions>
          <ns3:TrackPointExtension>
            <ns3:atemp>31.0</ns3:atemp>
            <ns3:hr>104</ns3:hr>
          </ns3:TrackPointExtension>
        </extensions>
      </trkpt>
      <trkpt lat="36.7789859510958194732666015625" lon="-118.52567668072879314422607421875">
        <ele>1950</ele>
        <time>2021-06-24T18:39:24.000Z</time>
        <extensions>
          <ns3:TrackPointExtension>
            <ns3:atemp>31.0</ns3:atemp>
            <ns3:hr>103</ns3:hr>
          </ns3:TrackPointExtension>
        </extensions>
      </trkpt>
      <trkpt lat="36.7789899744093418121337890625" lon="-118.52565069682896137237548828125">
        <ele>1950.199951171875</ele>
        <time>2021-06-24T18:39:26.000Z</time>
        <extensions>
          <ns3:TrackPointExtension>
            <ns3:atemp>31.0</ns3:atemp>
            <ns3:hr>104</ns3:hr>
          </ns3:TrackPointExtension>
        </extensions>
      </trkpt>
      <trkpt lat="36.778988800942897796630859375" lon="-118.5256348550319671630859375">
        <ele>1950.4000244140625</ele>
        <time>2021-06-24T18:39:27.000Z</time>
        <extensions>
          <ns3:TrackPointExtension>
            <ns3:atemp>31.0</ns3:atemp>
            <ns3:hr>104</ns3:hr>
          </ns3:TrackPointExtension>
        </extensions>
      </trkpt>
      <trkpt lat="36.77897899411618709564208984375" lon="-118.52560191415250301361083984375">
        <ele>1950.199951171875</ele>
        <time>2021-06-24T18:39:29.000Z</time>
        <extensions>
          <ns3:TrackPointExtension>
            <ns3:atemp>31.0</ns3:atemp>
            <ns3:hr>105</ns3:hr>
          </ns3:TrackPointExtension>
        </extensions>
      </trkpt>
      <trkpt lat="36.77894094027578830718994140625" lon="-118.52556788362562656402587890625">
        <ele>1950</ele>
        <time>2021-06-24T18:39:34.000Z</time>
        <extensions>
          <ns3:TrackPointExtension>
            <ns3:atemp>31.0</ns3:atemp>
            <ns3:hr>106</ns3:hr>
          </ns3:TrackPointExtension>
        </extensions>
      </trkpt>
      <trkpt lat="36.77893809042870998382568359375" lon="-118.5255505330860614776611328125">
        <ele>1950</ele>
        <time>2021-06-24T18:39:36.000Z</time>
        <extensions>
          <ns3:TrackPointExtension>
            <ns3:atemp>31.0</ns3:atemp>
            <ns3:hr>107</ns3:hr>
          </ns3:TrackPointExtension>
        </extensions>
      </trkpt>
      <trkpt lat="36.77894546650350093841552734375" lon="-118.5254631936550140380859375">
        <ele>1950.4000244140625</ele>
        <time>2021-06-24T18:39:40.000Z</time>
        <extensions>
          <ns3:TrackPointExtension>
            <ns3:atemp>31.0</ns3:atemp>
            <ns3:hr>107</ns3:hr>
          </ns3:TrackPointExtension>
        </extensions>
      </trkpt>
      <trkpt lat="36.77894328720867633819580078125" lon="-118.52536328136920928955078125">
        <ele>1950.5999755859375</ele>
        <time>2021-06-24T18:39:45.000Z</time>
        <extensions>
          <ns3:TrackPointExtension>
            <ns3:atemp>31.0</ns3:atemp>
            <ns3:hr>106</ns3:hr>
          </ns3:TrackPointExtension>
        </extensions>
      </trkpt>
      <trkpt lat="36.77894630469381809234619140625" lon="-118.5252779535949230194091796875">
        <ele>1951</ele>
        <time>2021-06-24T18:39:50.000Z</time>
        <extensions>
          <ns3:TrackPointExtension>
            <ns3:atemp>31.0</ns3:atemp>
            <ns3:hr>103</ns3:hr>
          </ns3:TrackPointExtension>
        </extensions>
      </trkpt>
      <trkpt lat="36.7789396829903125762939453125" lon="-118.52527183480560779571533203125">
        <ele>1951.4000244140625</ele>
        <time>2021-06-24T18:39:51.000Z</time>
        <extensions>
          <ns3:TrackPointExtension>
            <ns3:atemp>31.0</ns3:atemp>
            <ns3:hr>102</ns3:hr>
          </ns3:TrackPointExtension>
        </extensions>
      </trkpt>
      <trkpt lat="36.7789353244006633758544921875" lon="-118.5252568311989307403564453125">
        <ele>1951.5999755859375</ele>
        <time>2021-06-24T18:39:52.000Z</time>
        <extensions>
          <ns3:TrackPointExtension>
            <ns3:atemp>31.0</ns3:atemp>
            <ns3:hr>102</ns3:hr>
          </ns3:TrackPointExtension>
        </extensions>
      </trkpt>
      <trkpt lat="36.7789368331432342529296875" lon="-118.5252432525157928466796875">
        <ele>1951.5999755859375</ele>
        <time>2021-06-24T18:39:53.000Z</time>
        <extensions>
          <ns3:TrackPointExtension>
            <ns3:atemp>31.0</ns3:atemp>
            <ns3:hr>101</ns3:hr>
          </ns3:TrackPointExtension>
        </extensions>
      </trkpt>
      <trkpt lat="36.7789490707218647003173828125" lon="-118.52520897053182125091552734375">
        <ele>1951.800048828125</ele>
        <time>2021-06-24T18:39:55.000Z</time>
        <extensions>
          <ns3:TrackPointExtension>
            <ns3:atemp>31.0</ns3:atemp>
            <ns3:hr>100</ns3:hr>
          </ns3:TrackPointExtension>
        </extensions>
      </trkpt>
      <trkpt lat="36.77895284257829189300537109375" lon="-118.52519438602030277252197265625">
        <ele>1952</ele>
        <time>2021-06-24T18:39:57.000Z</time>
        <extensions>
          <ns3:TrackPointExtension>
            <ns3:atemp>31.0</ns3:atemp>
            <ns3:hr>99</ns3:hr>
          </ns3:TrackPointExtension>
        </extensions>
      </trkpt>
      <trkpt lat="36.7789577879011631011962890625" lon="-118.5251601040363311767578125">
        <ele>1952.4000244140625</ele>
        <time>2021-06-24T18:40:00.000Z</time>
        <extensions>
          <ns3:TrackPointExtension>
            <ns3:atemp>31.0</ns3:atemp>
            <ns3:hr>99</ns3:hr>
          </ns3:TrackPointExtension>
        </extensions>
      </trkpt>
      <trkpt lat="36.77895736880600452423095703125" lon="-118.52514459751546382904052734375">
        <ele>1952.800048828125</ele>
        <time>2021-06-24T18:40:03.000Z</time>
        <extensions>
          <ns3:TrackPointExtension>
            <ns3:atemp>31.0</ns3:atemp>
            <ns3:hr>96</ns3:hr>
          </ns3:TrackPointExtension>
        </extensions>
      </trkpt>
      <trkpt lat="36.77896759472787380218505859375" lon="-118.52513889782130718231201171875">
        <ele>1953</ele>
        <time>2021-06-24T18:40:05.000Z</time>
        <extensions>
          <ns3:TrackPointExtension>
            <ns3:atemp>31.0</ns3:atemp>
            <ns3:hr>99</ns3:hr>
          </ns3:TrackPointExtension>
        </extensions>
      </trkpt>
      <trkpt lat="36.778962314128875732421875" lon="-118.52515348233282566070556640625">
        <ele>1953.4000244140625</ele>
        <time>2021-06-24T18:40:08.000Z</time>
        <extensions>
          <ns3:TrackPointExtension>
            <ns3:atemp>32.0</ns3:atemp>
            <ns3:hr>100</ns3:hr>
          </ns3:TrackPointExtension>
        </extensions>
      </trkpt>
      <trkpt lat="36.77897077985107898712158203125" lon="-118.525147698819637298583984375">
        <ele>1953.4000244140625</ele>
        <time>2021-06-24T18:40:09.000Z</time>
        <extensions>
          <ns3:TrackPointExtension>
            <ns3:atemp>32.0</ns3:atemp>
            <ns3:hr>98</ns3:hr>
          </ns3:TrackPointExtension>
        </extensions>
      </trkpt>
      <trkpt lat="36.7789909802377223968505859375" lon="-118.5251227207481861114501953125">
        <ele>1953.800048828125</ele>
        <time>2021-06-24T18:40:11.000Z</time>
        <extensions>
          <ns3:TrackPointExtension>
            <ns3:atemp>32.0</ns3:atemp>
            <ns3:hr>97</ns3:hr>
          </ns3:TrackPointExtension>
        </extensions>
      </trkpt>
      <trkpt lat="36.77900045178830623626708984375" lon="-118.5251136682927608489990234375">
        <ele>1953.800048828125</ele>
        <time>2021-06-24T18:40:13.000Z</time>
        <extensions>
          <ns3:TrackPointExtension>
            <ns3:atemp>32.0</ns3:atemp>
            <ns3:hr>99</ns3:hr>
          </ns3:TrackPointExtension>
        </extensions>
      </trkpt>
      <trkpt lat="36.7790134437382221221923828125" lon="-118.5251039452850818634033203125">
        <ele>1954</ele>
        <time>2021-06-24T18:40:15.000Z</time>
        <extensions>
          <ns3:TrackPointExtension>
            <ns3:atemp>32.0</ns3:atemp>
            <ns3:hr>101</ns3:hr>
          </ns3:TrackPointExtension>
        </extensions>
      </trkpt>
      <trkpt lat="36.779029034078121185302734375" lon="-118.52509246207773685455322265625">
        <ele>1954</ele>
        <time>2021-06-24T18:40:17.000Z</time>
        <extensions>
          <ns3:TrackPointExtension>
            <ns3:atemp>32.0</ns3:atemp>
            <ns3:hr>101</ns3:hr>
          </ns3:TrackPointExtension>
        </extensions>
      </trkpt>
      <trkpt lat="36.7790402658283710479736328125" lon="-118.5250771231949329376220703125">
        <ele>1954.199951171875</ele>
        <time>2021-06-24T18:40:19.000Z</time>
        <extensions>
          <ns3:TrackPointExtension>
            <ns3:atemp>32.0</ns3:atemp>
            <ns3:hr>101</ns3:hr>
          </ns3:TrackPointExtension>
        </extensions>
      </trkpt>
      <trkpt lat="36.779041104018688201904296875" lon="-118.52506631053984165191650390625">
        <ele>1954.4000244140625</ele>
        <time>2021-06-24T18:40:20.000Z</time>
        <extensions>
          <ns3:TrackPointExtension>
            <ns3:atemp>32.0</ns3:atemp>
            <ns3:hr>101</ns3:hr>
          </ns3:TrackPointExtension>
        </extensions>
      </trkpt>
      <trkpt lat="36.779042445123195648193359375" lon="-118.5250318609178066253662109375">
        <ele>1954.4000244140625</ele>
        <time>2021-06-24T18:40:23.000Z</time>
        <extensions>
          <ns3:TrackPointExtension>
            <ns3:atemp>32.0</ns3:atemp>
            <ns3:hr>100</ns3:hr>
          </ns3:TrackPointExtension>
        </extensions>
      </trkpt>
      <trkpt lat="36.77904068492352962493896484375" lon="-118.52501861751079559326171875">
        <ele>1954.4000244140625</ele>
        <time>2021-06-24T18:40:24.000Z</time>
        <extensions>
          <ns3:TrackPointExtension>
            <ns3:atemp>32.0</ns3:atemp>
            <ns3:hr>100</ns3:hr>
          </ns3:TrackPointExtension>
        </extensions>
      </trkpt>
      <trkpt lat="36.77904252894222736358642578125" lon="-118.5250077210366725921630859375">
        <ele>1954.5999755859375</ele>
        <time>2021-06-24T18:40:25.000Z</time>
        <extensions>
          <ns3:TrackPointExtension>
            <ns3:atemp>32.0</ns3:atemp>
            <ns3:hr>102</ns3:hr>
          </ns3:TrackPointExtension>
        </extensions>
      </trkpt>
      <trkpt lat="36.77905376069247722625732421875" lon="-118.5249852575361728668212890625">
        <ele>1954.5999755859375</ele>
        <time>2021-06-24T18:40:26.000Z</time>
        <extensions>
          <ns3:TrackPointExtension>
            <ns3:atemp>32.0</ns3:atemp>
            <ns3:hr>100</ns3:hr>
          </ns3:TrackPointExtension>
        </extensions>
      </trkpt>
      <trkpt lat="36.77906063385307788848876953125" lon="-118.52496564388275146484375">
        <ele>1955</ele>
        <time>2021-06-24T18:40:27.000Z</time>
        <extensions>
          <ns3:TrackPointExtension>
            <ns3:atemp>32.0</ns3:atemp>
            <ns3:hr>100</ns3:hr>
          </ns3:TrackPointExtension>
        </extensions>
      </trkpt>
      <trkpt lat="36.779066585004329681396484375" lon="-118.5249198786914348602294921875">
        <ele>1955.5999755859375</ele>
        <time>2021-06-24T18:40:31.000Z</time>
        <extensions>
          <ns3:TrackPointExtension>
            <ns3:atemp>32.0</ns3:atemp>
            <ns3:hr>99</ns3:hr>
          </ns3:TrackPointExtension>
        </extensions>
      </trkpt>
      <trkpt lat="36.77907454781234264373779296875" lon="-118.52490060031414031982421875">
        <ele>1955.5999755859375</ele>
        <time>2021-06-24T18:40:32.000Z</time>
        <extensions>
          <ns3:TrackPointExtension>
            <ns3:atemp>32.0</ns3:atemp>
            <ns3:hr>99</ns3:hr>
          </ns3:TrackPointExtension>
        </extensions>
      </trkpt>
      <trkpt lat="36.7790838517248630523681640625" lon="-118.52486615069210529327392578125">
        <ele>1955.800048828125</ele>
        <time>2021-06-24T18:40:34.000Z</time>
        <extensions>
          <ns3:TrackPointExtension>
            <ns3:atemp>32.0</ns3:atemp>
            <ns3:hr>98</ns3:hr>
          </ns3:TrackPointExtension>
        </extensions>
      </trkpt>
      <trkpt lat="36.77909248508512973785400390625" lon="-118.524817787110805511474609375">
        <ele>1956</ele>
        <time>2021-06-24T18:40:37.000Z</time>
        <extensions>
          <ns3:TrackPointExtension>
            <ns3:atemp>32.0</ns3:atemp>
            <ns3:hr>97</ns3:hr>
          </ns3:TrackPointExtension>
        </extensions>
      </trkpt>
      <trkpt lat="36.77912802435457706451416015625" lon="-118.5247706808149814605712890625">
        <ele>1956.4000244140625</ele>
        <time>2021-06-24T18:40:40.000Z</time>
        <extensions>
          <ns3:TrackPointExtension>
            <ns3:atemp>32.0</ns3:atemp>
            <ns3:hr>95</ns3:hr>
          </ns3:TrackPointExtension>
        </extensions>
      </trkpt>
      <trkpt lat="36.779158450663089752197265625" lon="-118.52471326477825641632080078125">
        <ele>1956.800048828125</ele>
        <time>2021-06-24T18:40:42.000Z</time>
        <extensions>
          <ns3:TrackPointExtension>
            <ns3:atemp>32.0</ns3:atemp>
            <ns3:hr>96</ns3:hr>
          </ns3:TrackPointExtension>
        </extensions>
      </trkpt>
      <trkpt lat="36.77916012704372406005859375" lon="-118.52469314821064472198486328125">
        <ele>1956.800048828125</ele>
        <time>2021-06-24T18:40:43.000Z</time>
        <extensions>
          <ns3:TrackPointExtension>
            <ns3:atemp>32.0</ns3:atemp>
            <ns3:hr>100</ns3:hr>
          </ns3:TrackPointExtension>
        </extensions>
      </trkpt>
      <trkpt lat="36.779157780110836029052734375" lon="-118.52468308992683887481689453125">
        <ele>1956.800048828125</ele>
        <time>2021-06-24T18:40:44.000Z</time>
        <extensions>
          <ns3:TrackPointExtension>
            <ns3:atemp>32.0</ns3:atemp>
            <ns3:hr>101</ns3:hr>
          </ns3:TrackPointExtension>
        </extensions>
      </trkpt>
      <trkpt lat="36.779149062931537628173828125" lon="-118.5246429406106472015380859375">
        <ele>1957.4000244140625</ele>
        <time>2021-06-24T18:40:49.000Z</time>
        <extensions>
          <ns3:TrackPointExtension>
            <ns3:atemp>32.0</ns3:atemp>
            <ns3:hr>96</ns3:hr>
          </ns3:TrackPointExtension>
        </extensions>
      </trkpt>
      <trkpt lat="36.7791539244353771209716796875" lon="-118.52462567389011383056640625">
        <ele>1957.4000244140625</ele>
        <time>2021-06-24T18:40:50.000Z</time>
        <extensions>
          <ns3:TrackPointExtension>
            <ns3:atemp>32.0</ns3:atemp>
            <ns3:hr>101</ns3:hr>
          </ns3:TrackPointExtension>
        </extensions>
      </trkpt>
      <trkpt lat="36.77915702573955059051513671875" lon="-118.52460279129445552825927734375">
        <ele>1957.5999755859375</ele>
        <time>2021-06-24T18:40:52.000Z</time>
        <extensions>
          <ns3:TrackPointExtension>
            <ns3:atemp>32.0</ns3:atemp>
            <ns3:hr>101</ns3:hr>
          </ns3:TrackPointExtension>
        </extensions>
      </trkpt>
      <trkpt lat="36.7791582830250263214111328125" lon="-118.5245919786393642425537109375">
        <ele>1957.5999755859375</ele>
        <time>2021-06-24T18:40:54.000Z</time>
        <extensions>
          <ns3:TrackPointExtension>
            <ns3:atemp>32.0</ns3:atemp>
            <ns3:hr>103</ns3:hr>
          </ns3:TrackPointExtension>
        </extensions>
      </trkpt>
      <trkpt lat="36.779169179499149322509765625" lon="-118.52454118430614471435546875">
        <ele>1958</ele>
        <time>2021-06-24T18:40:57.000Z</time>
        <extensions>
          <ns3:TrackPointExtension>
            <ns3:atemp>32.0</ns3:atemp>
            <ns3:hr>106</ns3:hr>
          </ns3:TrackPointExtension>
        </extensions>
      </trkpt>
      <trkpt lat="36.77917085587978363037109375" lon="-118.5245292820036411285400390625">
        <ele>1958</ele>
        <time>2021-06-24T18:40:58.000Z</time>
        <extensions>
          <ns3:TrackPointExtension>
            <ns3:atemp>32.0</ns3:atemp>
            <ns3:hr>108</ns3:hr>
          </ns3:TrackPointExtension>
        </extensions>
      </trkpt>
      <trkpt lat="36.779175214469432830810546875" lon="-118.5245205648243427276611328125">
        <ele>1958</ele>
        <time>2021-06-24T18:40:59.000Z</time>
        <extensions>
          <ns3:TrackPointExtension>
            <ns3:atemp>32.0</ns3:atemp>
            <ns3:hr>105</ns3:hr>
          </ns3:TrackPointExtension>
        </extensions>
      </trkpt>
      <trkpt lat="36.779206059873104095458984375" lon="-118.5244749672710895538330078125">
        <ele>1959.199951171875</ele>
        <time>2021-06-24T18:41:04.000Z</time>
        <extensions>
          <ns3:TrackPointExtension>
            <ns3:atemp>32.0</ns3:atemp>
            <ns3:hr>106</ns3:hr>
          </ns3:TrackPointExtension>
        </extensions>
      </trkpt>
      <trkpt lat="36.7792223207652568817138671875" lon="-118.524430878460407257080078125">
        <ele>1959.4000244140625</ele>
        <time>2021-06-24T18:41:06.000Z</time>
        <extensions>
          <ns3:TrackPointExtension>
            <ns3:atemp>32.0</ns3:atemp>
            <ns3:hr>107</ns3:hr>
          </ns3:TrackPointExtension>
        </extensions>
      </trkpt>
      <trkpt lat="36.7792273499071598052978515625" lon="-118.5244171321392059326171875">
        <ele>1959.4000244140625</ele>
        <time>2021-06-24T18:41:07.000Z</time>
        <extensions>
          <ns3:TrackPointExtension>
            <ns3:atemp>32.0</ns3:atemp>
            <ns3:hr>107</ns3:hr>
          </ns3:TrackPointExtension>
        </extensions>
      </trkpt>
      <trkpt lat="36.77924486808478832244873046875" lon="-118.524363152682781219482421875">
        <ele>1960.199951171875</ele>
        <time>2021-06-24T18:41:11.000Z</time>
        <extensions>
          <ns3:TrackPointExtension>
            <ns3:atemp>32.0</ns3:atemp>
            <ns3:hr>105</ns3:hr>
          </ns3:TrackPointExtension>
        </extensions>
      </trkpt>
      <trkpt lat="36.77924118004739284515380859375" lon="-118.5243556089699268341064453125">
        <ele>1960.800048828125</ele>
        <time>2021-06-24T18:41:12.000Z</time>
        <extensions>
          <ns3:TrackPointExtension>
            <ns3:atemp>32.0</ns3:atemp>
            <ns3:hr>104</ns3:hr>
          </ns3:TrackPointExtension>
        </extensions>
      </trkpt>
      <trkpt lat="36.7792538367211818695068359375" lon="-118.5243286192417144775390625">
        <ele>1961</ele>
        <time>2021-06-24T18:41:18.000Z</time>
        <extensions>
          <ns3:TrackPointExtension>
            <ns3:atemp>32.0</ns3:atemp>
            <ns3:hr>104</ns3:hr>
          </ns3:TrackPointExtension>
        </extensions>
      </trkpt>
      <trkpt lat="36.779263727366924285888671875" lon="-118.5243125259876251220703125">
        <ele>1961</ele>
        <time>2021-06-24T18:41:19.000Z</time>
        <extensions>
          <ns3:TrackPointExtension>
            <ns3:atemp>32.0</ns3:atemp>
            <ns3:hr>104</ns3:hr>
          </ns3:TrackPointExtension>
        </extensions>
      </trkpt>
      <trkpt lat="36.7792702652513980865478515625" lon="-118.5243046469986438751220703125">
        <ele>1961.199951171875</ele>
        <time>2021-06-24T18:41:20.000Z</time>
        <extensions>
          <ns3:TrackPointExtension>
            <ns3:atemp>32.0</ns3:atemp>
            <ns3:hr>104</ns3:hr>
          </ns3:TrackPointExtension>
        </extensions>
      </trkpt>
      <trkpt lat="36.7792816646397113800048828125" lon="-118.52429199032485485076904296875">
        <ele>1961.4000244140625</ele>
        <time>2021-06-24T18:41:21.000Z</time>
        <extensions>
          <ns3:TrackPointExtension>
            <ns3:atemp>32.0</ns3:atemp>
            <ns3:hr>104</ns3:hr>
          </ns3:TrackPointExtension>
        </extensions>
      </trkpt>
      <trkpt lat="36.77931125275790691375732421875" lon="-118.52425712160766124725341796875">
        <ele>1961.800048828125</ele>
        <time>2021-06-24T18:41:24.000Z</time>
        <extensions>
          <ns3:TrackPointExtension>
            <ns3:atemp>32.0</ns3:atemp>
            <ns3:hr>106</ns3:hr>
          </ns3:TrackPointExtension>
        </extensions>
      </trkpt>
      <trkpt lat="36.7793299444019794464111328125" lon="-118.524215631186962127685546875">
        <ele>1962</ele>
        <time>2021-06-24T18:41:27.000Z</time>
        <extensions>
          <ns3:TrackPointExtension>
            <ns3:atemp>32.0</ns3:atemp>
            <ns3:hr>105</ns3:hr>
          </ns3:TrackPointExtension>
        </extensions>
      </trkpt>
      <trkpt lat="36.77934310398995876312255859375" lon="-118.5241916589438915252685546875">
        <ele>1962.4000244140625</ele>
        <time>2021-06-24T18:41:29.000Z</time>
        <extensions>
          <ns3:TrackPointExtension>
            <ns3:atemp>32.0</ns3:atemp>
            <ns3:hr>106</ns3:hr>
          </ns3:TrackPointExtension>
        </extensions>
      </trkpt>
      <trkpt lat="36.77935123443603515625" lon="-118.52417263202369213104248046875">
        <ele>1962.5999755859375</ele>
        <time>2021-06-24T18:41:31.000Z</time>
        <extensions>
          <ns3:TrackPointExtension>
            <ns3:atemp>32.0</ns3:atemp>
            <ns3:hr>106</ns3:hr>
          </ns3:TrackPointExtension>
        </extensions>
      </trkpt>
      <trkpt lat="36.779365651309490203857421875" lon="-118.52412703447043895721435546875">
        <ele>1962.800048828125</ele>
        <time>2021-06-24T18:41:35.000Z</time>
        <extensions>
          <ns3:TrackPointExtension>
            <ns3:atemp>32.0</ns3:atemp>
            <ns3:hr>108</ns3:hr>
          </ns3:TrackPointExtension>
        </extensions>
      </trkpt>
      <trkpt lat="36.77940093912184238433837890625" lon="-118.5240389406681060791015625">
        <ele>1963.4000244140625</ele>
        <time>2021-06-24T18:41:42.000Z</time>
        <extensions>
          <ns3:TrackPointExtension>
            <ns3:atemp>32.0</ns3:atemp>
            <ns3:hr>106</ns3:hr>
          </ns3:TrackPointExtension>
        </extensions>
      </trkpt>
      <trkpt lat="36.77940060384571552276611328125" lon="-118.5240216739475727081298828125">
        <ele>1963.4000244140625</ele>
        <time>2021-06-24T18:41:44.000Z</time>
        <extensions>
          <ns3:TrackPointExtension>
            <ns3:atemp>32.0</ns3:atemp>
            <ns3:hr>106</ns3:hr>
          </ns3:TrackPointExtension>
        </extensions>
      </trkpt>
      <trkpt lat="36.77942658774554729461669921875" lon="-118.52398672141134738922119140625">
        <ele>1963.800048828125</ele>
        <time>2021-06-24T18:41:47.000Z</time>
        <extensions>
          <ns3:TrackPointExtension>
            <ns3:atemp>32.0</ns3:atemp>
            <ns3:hr>103</ns3:hr>
          </ns3:TrackPointExtension>
        </extensions>
      </trkpt>
      <trkpt lat="36.7794298566877841949462890625" lon="-118.5239764116704463958740234375">
        <ele>1963.800048828125</ele>
        <time>2021-06-24T18:41:48.000Z</time>
        <extensions>
          <ns3:TrackPointExtension>
            <ns3:atemp>32.0</ns3:atemp>
            <ns3:hr>106</ns3:hr>
          </ns3:TrackPointExtension>
        </extensions>
      </trkpt>
      <trkpt lat="36.77943228743970394134521484375" lon="-118.5239539481699466705322265625">
        <ele>1963.800048828125</ele>
        <time>2021-06-24T18:41:50.000Z</time>
        <extensions>
          <ns3:TrackPointExtension>
            <ns3:atemp>32.0</ns3:atemp>
            <ns3:hr>106</ns3:hr>
          </ns3:TrackPointExtension>
        </extensions>
      </trkpt>
      <trkpt lat="36.77943882532417774200439453125" lon="-118.52390189655125141143798828125">
        <ele>1963.800048828125</ele>
        <time>2021-06-24T18:41:53.000Z</time>
        <extensions>
          <ns3:TrackPointExtension>
            <ns3:atemp>32.0</ns3:atemp>
            <ns3:hr>108</ns3:hr>
          </ns3:TrackPointExtension>
        </extensions>
      </trkpt>
      <trkpt lat="36.77945592440664768218994140625" lon="-118.5238485038280487060546875">
        <ele>1963.4000244140625</ele>
        <time>2021-06-24T18:41:57.000Z</time>
        <extensions>
          <ns3:TrackPointExtension>
            <ns3:atemp>32.0</ns3:atemp>
            <ns3:hr>108</ns3:hr>
          </ns3:TrackPointExtension>
        </extensions>
      </trkpt>
      <trkpt lat="36.77946112118661403656005859375" lon="-118.5238436423242092132568359375">
        <ele>1963.4000244140625</ele>
        <time>2021-06-24T18:41:58.000Z</time>
        <extensions>
          <ns3:TrackPointExtension>
            <ns3:atemp>32.0</ns3:atemp>
            <ns3:hr>108</ns3:hr>
          </ns3:TrackPointExtension>
        </extensions>
      </trkpt>
      <trkpt lat="36.77946933545172214508056640625" lon="-118.52383819408714771270751953125">
        <ele>1963.199951171875</ele>
        <time>2021-06-24T18:42:00.000Z</time>
        <extensions>
          <ns3:TrackPointExtension>
            <ns3:atemp>32.0</ns3:atemp>
            <ns3:hr>103</ns3:hr>
          </ns3:TrackPointExtension>
        </extensions>
      </trkpt>
      <trkpt lat="36.7794767953455448150634765625" lon="-118.5238109529018402099609375">
        <ele>1963.4000244140625</ele>
        <time>2021-06-24T18:42:02.000Z</time>
        <extensions>
          <ns3:TrackPointExtension>
            <ns3:atemp>32.0</ns3:atemp>
            <ns3:hr>101</ns3:hr>
          </ns3:TrackPointExtension>
        </extensions>
      </trkpt>
      <trkpt lat="36.7794979177415370941162109375" lon="-118.52372956462204456329345703125">
        <ele>1965</ele>
        <time>2021-06-24T18:42:08.000Z</time>
        <extensions>
          <ns3:TrackPointExtension>
            <ns3:atemp>32.0</ns3:atemp>
            <ns3:hr>100</ns3:hr>
          </ns3:TrackPointExtension>
        </extensions>
      </trkpt>
      <trkpt lat="36.7794989235699176788330078125" lon="-118.52371665649116039276123046875">
        <ele>1965</ele>
        <time>2021-06-24T18:42:09.000Z</time>
        <extensions>
          <ns3:TrackPointExtension>
            <ns3:atemp>32.0</ns3:atemp>
            <ns3:hr>101</ns3:hr>
          </ns3:TrackPointExtension>
        </extensions>
      </trkpt>
      <trkpt lat="36.7794949002563953399658203125" lon="-118.52368564344942569732666015625">
        <ele>1965.4000244140625</ele>
        <time>2021-06-24T18:42:12.000Z</time>
        <extensions>
          <ns3:TrackPointExtension>
            <ns3:atemp>32.0</ns3:atemp>
            <ns3:hr>103</ns3:hr>
          </ns3:TrackPointExtension>
        </extensions>
      </trkpt>
      <trkpt lat="36.77949045784771442413330078125" lon="-118.52365781553089618682861328125">
        <ele>1965.800048828125</ele>
        <time>2021-06-24T18:42:14.000Z</time>
        <extensions>
          <ns3:TrackPointExtension>
            <ns3:atemp>32.0</ns3:atemp>
            <ns3:hr>105</ns3:hr>
          </ns3:TrackPointExtension>
        </extensions>
      </trkpt>
      <trkpt lat="36.77949112839996814727783203125" lon="-118.52364272810518741607666015625">
        <ele>1965.800048828125</ele>
        <time>2021-06-24T18:42:15.000Z</time>
        <extensions>
          <ns3:TrackPointExtension>
            <ns3:atemp>32.0</ns3:atemp>
            <ns3:hr>104</ns3:hr>
          </ns3:TrackPointExtension>
        </extensions>
      </trkpt>
      <trkpt lat="36.77949582226574420928955078125" lon="-118.52362160570919513702392578125">
        <ele>1966</ele>
        <time>2021-06-24T18:42:16.000Z</time>
        <extensions>
          <ns3:TrackPointExtension>
            <ns3:atemp>32.0</ns3:atemp>
            <ns3:hr>104</ns3:hr>
          </ns3:TrackPointExtension>
        </extensions>
      </trkpt>
      <trkpt lat="36.7795384861528873443603515625" lon="-118.523544408380985260009765625">
        <ele>1967</ele>
        <time>2021-06-24T18:42:22.000Z</time>
        <extensions>
          <ns3:TrackPointExtension>
            <ns3:atemp>32.0</ns3:atemp>
            <ns3:hr>107</ns3:hr>
          </ns3:TrackPointExtension>
        </extensions>
      </trkpt>
      <trkpt lat="36.7795347981154918670654296875" lon="-118.52353560738265514373779296875">
        <ele>1967</ele>
        <time>2021-06-24T18:42:23.000Z</time>
        <extensions>
          <ns3:TrackPointExtension>
            <ns3:atemp>32.0</ns3:atemp>
            <ns3:hr>107</ns3:hr>
          </ns3:TrackPointExtension>
        </extensions>
      </trkpt>
      <trkpt lat="36.779537312686443328857421875" lon="-118.5235274769365787506103515625">
        <ele>1967</ele>
        <time>2021-06-24T18:42:24.000Z</time>
        <extensions>
          <ns3:TrackPointExtension>
            <ns3:atemp>32.0</ns3:atemp>
            <ns3:hr>108</ns3:hr>
          </ns3:TrackPointExtension>
        </extensions>
      </trkpt>
      <trkpt lat="36.77957159467041492462158203125" lon="-118.52349403314292430877685546875">
        <ele>1967.800048828125</ele>
        <time>2021-06-24T18:42:27.000Z</time>
        <extensions>
          <ns3:TrackPointExtension>
            <ns3:atemp>32.0</ns3:atemp>
            <ns3:hr>110</ns3:hr>
          </ns3:TrackPointExtension>
        </extensions>
      </trkpt>
      <trkpt lat="36.77958659827709197998046875" lon="-118.52347793988883495330810546875">
        <ele>1968.199951171875</ele>
        <time>2021-06-24T18:42:29.000Z</time>
        <extensions>
          <ns3:TrackPointExtension>
            <ns3:atemp>32.0</ns3:atemp>
            <ns3:hr>110</ns3:hr>
          </ns3:TrackPointExtension>
        </extensions>
      </trkpt>
      <trkpt lat="36.77959841676056385040283203125" lon="-118.52345287799835205078125">
        <ele>1968.199951171875</ele>
        <time>2021-06-24T18:42:31.000Z</time>
        <extensions>
          <ns3:TrackPointExtension>
            <ns3:atemp>32.0</ns3:atemp>
            <ns3:hr>111</ns3:hr>
          </ns3:TrackPointExtension>
        </extensions>
      </trkpt>
      <trkpt lat="36.7796068824827671051025390625" lon="-118.5234329290688037872314453125">
        <ele>1968.4000244140625</ele>
        <time>2021-06-24T18:42:33.000Z</time>
        <extensions>
          <ns3:TrackPointExtension>
            <ns3:atemp>32.0</ns3:atemp>
            <ns3:hr>113</ns3:hr>
          </ns3:TrackPointExtension>
        </extensions>
      </trkpt>
      <trkpt lat="36.7796132527291774749755859375" lon="-118.52339043281972408294677734375">
        <ele>1968.800048828125</ele>
        <time>2021-06-24T18:42:36.000Z</time>
        <extensions>
          <ns3:TrackPointExtension>
            <ns3:atemp>32.0</ns3:atemp>
            <ns3:hr>112</ns3:hr>
          </ns3:TrackPointExtension>
        </extensions>
      </trkpt>
      <trkpt lat="36.7796068824827671051025390625" lon="-118.5233799554407596588134765625">
        <ele>1968.800048828125</ele>
        <time>2021-06-24T18:42:38.000Z</time>
        <extensions>
          <ns3:TrackPointExtension>
            <ns3:atemp>32.0</ns3:atemp>
            <ns3:hr>112</ns3:hr>
          </ns3:TrackPointExtension>
        </extensions>
      </trkpt>
      <trkpt lat="36.77961342036724090576171875" lon="-118.52335774339735507965087890625">
        <ele>1969.199951171875</ele>
        <time>2021-06-24T18:42:41.000Z</time>
        <extensions>
          <ns3:TrackPointExtension>
            <ns3:atemp>32.0</ns3:atemp>
            <ns3:hr>112</ns3:hr>
          </ns3:TrackPointExtension>
        </extensions>
      </trkpt>
      <trkpt lat="36.779622472822666168212890625" lon="-118.52332773618400096893310546875">
        <ele>1969.800048828125</ele>
        <time>2021-06-24T18:42:43.000Z</time>
        <extensions>
          <ns3:TrackPointExtension>
            <ns3:atemp>31.0</ns3:atemp>
            <ns3:hr>112</ns3:hr>
          </ns3:TrackPointExtension>
        </extensions>
      </trkpt>
      <trkpt lat="36.77962557412683963775634765625" lon="-118.52329202927649021148681640625">
        <ele>1970</ele>
        <time>2021-06-24T18:42:46.000Z</time>
        <extensions>
          <ns3:TrackPointExtension>
            <ns3:atemp>32.0</ns3:atemp>
            <ns3:hr>111</ns3:hr>
          </ns3:TrackPointExtension>
        </extensions>
      </trkpt>
      <trkpt lat="36.77963177673518657684326171875" lon="-118.52327727712690830230712890625">
        <ele>1970.4000244140625</ele>
        <time>2021-06-24T18:42:47.000Z</time>
        <extensions>
          <ns3:TrackPointExtension>
            <ns3:atemp>31.0</ns3:atemp>
            <ns3:hr>111</ns3:hr>
          </ns3:TrackPointExtension>
        </extensions>
      </trkpt>
      <trkpt lat="36.779631860554218292236328125" lon="-118.52326311171054840087890625">
        <ele>1970.5999755859375</ele>
        <time>2021-06-24T18:42:49.000Z</time>
        <extensions>
          <ns3:TrackPointExtension>
            <ns3:atemp>31.0</ns3:atemp>
            <ns3:hr>111</ns3:hr>
          </ns3:TrackPointExtension>
        </extensions>
      </trkpt>
      <trkpt lat="36.77963848225772380828857421875" lon="-118.5232203640043735504150390625">
        <ele>1971</ele>
        <time>2021-06-24T18:42:52.000Z</time>
        <extensions>
          <ns3:TrackPointExtension>
            <ns3:atemp>31.0</ns3:atemp>
            <ns3:hr>110</ns3:hr>
          </ns3:TrackPointExtension>
        </extensions>
      </trkpt>
      <trkpt lat="36.77967200987040996551513671875" lon="-118.52319496683776378631591796875">
        <ele>1971.199951171875</ele>
        <time>2021-06-24T18:42:56.000Z</time>
        <extensions>
          <ns3:TrackPointExtension>
            <ns3:atemp>31.0</ns3:atemp>
            <ns3:hr>107</ns3:hr>
          </ns3:TrackPointExtension>
        </extensions>
      </trkpt>
      <trkpt lat="36.7796772904694080352783203125" lon="-118.52319312281906604766845703125">
        <ele>1971.4000244140625</ele>
        <time>2021-06-24T18:42:57.000Z</time>
        <extensions>
          <ns3:TrackPointExtension>
            <ns3:atemp>31.0</ns3:atemp>
            <ns3:hr>106</ns3:hr>
          </ns3:TrackPointExtension>
        </extensions>
      </trkpt>
      <trkpt lat="36.7796799726784229278564453125" lon="-118.52317770011723041534423828125">
        <ele>1971.4000244140625</ele>
        <time>2021-06-24T18:42:58.000Z</time>
        <extensions>
          <ns3:TrackPointExtension>
            <ns3:atemp>31.0</ns3:atemp>
            <ns3:hr>106</ns3:hr>
          </ns3:TrackPointExtension>
        </extensions>
      </trkpt>
      <trkpt lat="36.77968022413551807403564453125" lon="-118.52315180003643035888671875">
        <ele>1971.4000244140625</ele>
        <time>2021-06-24T18:43:01.000Z</time>
        <extensions>
          <ns3:TrackPointExtension>
            <ns3:atemp>31.0</ns3:atemp>
            <ns3:hr>105</ns3:hr>
          </ns3:TrackPointExtension>
        </extensions>
      </trkpt>
      <trkpt lat="36.7796856723725795745849609375" lon="-118.52312522940337657928466796875">
        <ele>1971.4000244140625</ele>
        <time>2021-06-24T18:43:03.000Z</time>
        <extensions>
          <ns3:TrackPointExtension>
            <ns3:atemp>31.0</ns3:atemp>
            <ns3:hr>106</ns3:hr>
          </ns3:TrackPointExtension>
        </extensions>
      </trkpt>
      <trkpt lat="36.7796958982944488525390625" lon="-118.52311500348150730133056640625">
        <ele>1971.4000244140625</ele>
        <time>2021-06-24T18:43:05.000Z</time>
        <extensions>
          <ns3:TrackPointExtension>
            <ns3:atemp>31.0</ns3:atemp>
            <ns3:hr>107</ns3:hr>
          </ns3:TrackPointExtension>
        </extensions>
      </trkpt>
      <trkpt lat="36.77969279699027538299560546875" lon="-118.523109890520572662353515625">
        <ele>1971.4000244140625</ele>
        <time>2021-06-24T18:43:06.000Z</time>
        <extensions>
          <ns3:TrackPointExtension>
            <ns3:atemp>31.0</ns3:atemp>
            <ns3:hr>107</ns3:hr>
          </ns3:TrackPointExtension>
        </extensions>
      </trkpt>
      <trkpt lat="36.77968709729611873626708984375" lon="-118.52308197878301143646240234375">
        <ele>1971.4000244140625</ele>
        <time>2021-06-24T18:43:09.000Z</time>
        <extensions>
          <ns3:TrackPointExtension>
            <ns3:atemp>31.0</ns3:atemp>
            <ns3:hr>107</ns3:hr>
          </ns3:TrackPointExtension>
        </extensions>
      </trkpt>
      <trkpt lat="36.77968676201999187469482421875" lon="-118.52307041175663471221923828125">
        <ele>1971.5999755859375</ele>
        <time>2021-06-24T18:43:11.000Z</time>
        <extensions>
          <ns3:TrackPointExtension>
            <ns3:atemp>31.0</ns3:atemp>
            <ns3:hr>106</ns3:hr>
          </ns3:TrackPointExtension>
        </extensions>
      </trkpt>
      <trkpt lat="36.77963093854486942291259765625" lon="-118.52308549918234348297119140625">
        <ele>1971</ele>
        <time>2021-06-24T18:43:16.000Z</time>
        <extensions>
          <ns3:TrackPointExtension>
            <ns3:atemp>31.0</ns3:atemp>
            <ns3:hr>103</ns3:hr>
          </ns3:TrackPointExtension>
        </extensions>
      </trkpt>
      <trkpt lat="36.7796192876994609832763671875" lon="-118.5230896063148975372314453125">
        <ele>1971</ele>
        <time>2021-06-24T18:43:19.000Z</time>
        <extensions>
          <ns3:TrackPointExtension>
            <ns3:atemp>31.0</ns3:atemp>
            <ns3:hr>104</ns3:hr>
          </ns3:TrackPointExtension>
        </extensions>
      </trkpt>
      <trkpt lat="36.7796152643859386444091796875" lon="-118.52308365516364574432373046875">
        <ele>1971</ele>
        <time>2021-06-24T18:43:21.000Z</time>
        <extensions>
          <ns3:TrackPointExtension>
            <ns3:atemp>31.0</ns3:atemp>
            <ns3:hr>104</ns3:hr>
          </ns3:TrackPointExtension>
        </extensions>
      </trkpt>
      <trkpt lat="36.779608391225337982177734375" lon="-118.5230818949639797210693359375">
        <ele>1971.199951171875</ele>
        <time>2021-06-24T18:43:24.000Z</time>
        <extensions>
          <ns3:TrackPointExtension>
            <ns3:atemp>31.0</ns3:atemp>
            <ns3:hr>101</ns3:hr>
          </ns3:TrackPointExtension>
        </extensions>
      </trkpt>
      <trkpt lat="36.77958332933485507965087890625" lon="-118.52309337817132472991943359375">
        <ele>1971.199951171875</ele>
        <time>2021-06-24T18:43:28.000Z</time>
        <extensions>
          <ns3:TrackPointExtension>
            <ns3:atemp>31.0</ns3:atemp>
            <ns3:hr>101</ns3:hr>
          </ns3:TrackPointExtension>
        </extensions>
      </trkpt>
      <trkpt lat="36.77955784834921360015869140625" lon="-118.5230882652103900909423828125">
        <ele>1971.199951171875</ele>
        <time>2021-06-24T18:43:31.000Z</time>
        <extensions>
          <ns3:TrackPointExtension>
            <ns3:atemp>31.0</ns3:atemp>
            <ns3:hr>98</ns3:hr>
          </ns3:TrackPointExtension>
        </extensions>
      </trkpt>
      <trkpt lat="36.77955684252083301544189453125" lon="-118.5230788774788379669189453125">
        <ele>1971.4000244140625</ele>
        <time>2021-06-24T18:43:37.000Z</time>
        <extensions>
          <ns3:TrackPointExtension>
            <ns3:atemp>31.0</ns3:atemp>
            <ns3:hr>96</ns3:hr>
          </ns3:TrackPointExtension>
        </extensions>
      </trkpt>
      <trkpt lat="36.77955466322600841522216796875" lon="-118.52306672371923923492431640625">
        <ele>1971.5999755859375</ele>
        <time>2021-06-24T18:43:43.000Z</time>
        <extensions>
          <ns3:TrackPointExtension>
            <ns3:atemp>31.0</ns3:atemp>
            <ns3:hr>94</ns3:hr>
          </ns3:TrackPointExtension>
        </extensions>
      </trkpt>
      <trkpt lat="36.77959841676056385040283203125" lon="-118.523065634071826934814453125">
        <ele>1971.800048828125</ele>
        <time>2021-06-24T18:43:51.000Z</time>
        <extensions>
          <ns3:TrackPointExtension>
            <ns3:atemp>31.0</ns3:atemp>
            <ns3:hr>94</ns3:hr>
          </ns3:TrackPointExtension>
        </extensions>
      </trkpt>
      <trkpt lat="36.77959288470447063446044921875" lon="-118.523087762296199798583984375">
        <ele>1971.800048828125</ele>
        <time>2021-06-24T18:43:58.000Z</time>
        <extensions>
          <ns3:TrackPointExtension>
            <ns3:atemp>31.0</ns3:atemp>
            <ns3:hr>93</ns3:hr>
          </ns3:TrackPointExtension>
        </extensions>
      </trkpt>
      <trkpt lat="36.77958601154386997222900390625" lon="-118.52307778783142566680908203125">
        <ele>1971.800048828125</ele>
        <time>2021-06-24T18:44:01.000Z</time>
        <extensions>
          <ns3:TrackPointExtension>
            <ns3:atemp>31.0</ns3:atemp>
            <ns3:hr>90</ns3:hr>
          </ns3:TrackPointExtension>
        </extensions>
      </trkpt>
      <trkpt lat="36.779591627418994903564453125" lon="-118.5230785422027111053466796875">
        <ele>1971.800048828125</ele>
        <time>2021-06-24T18:44:04.000Z</time>
        <extensions>
          <ns3:TrackPointExtension>
            <ns3:atemp>31.0</ns3:atemp>
            <ns3:hr>93</ns3:hr>
          </ns3:TrackPointExtension>
        </extensions>
      </trkpt>
      <trkpt lat="36.77960872650146484375" lon="-118.52306588552892208099365234375">
        <ele>1971.800048828125</ele>
        <time>2021-06-24T18:44:08.000Z</time>
        <extensions>
          <ns3:TrackPointExtension>
            <ns3:atemp>31.0</ns3:atemp>
            <ns3:hr>90</ns3:hr>
          </ns3:TrackPointExtension>
        </extensions>
      </trkpt>
      <trkpt lat="36.77960872650146484375" lon="-118.52306588552892208099365234375">
        <ele>1971.800048828125</ele>
        <time>2021-06-24T18:44:11.000Z</time>
        <extensions>
          <ns3:TrackPointExtension>
            <ns3:atemp>31.0</ns3:atemp>
            <ns3:hr>89</ns3:hr>
          </ns3:TrackPointExtension>
        </extensions>
      </trkpt>
      <trkpt lat="36.77960872650146484375" lon="-118.52306588552892208099365234375">
        <ele>1971.800048828125</ele>
        <time>2021-06-24T18:44:13.000Z</time>
        <extensions>
          <ns3:TrackPointExtension>
            <ns3:atemp>31.0</ns3:atemp>
            <ns3:hr>92</ns3:hr>
          </ns3:TrackPointExtension>
        </extensions>
      </trkpt>
      <trkpt lat="36.77960872650146484375" lon="-118.52306588552892208099365234375">
        <ele>1972</ele>
        <time>2021-06-24T18:44:17.000Z</time>
        <extensions>
          <ns3:TrackPointExtension>
            <ns3:atemp>31.0</ns3:atemp>
            <ns3:hr>95</ns3:hr>
          </ns3:TrackPointExtension>
        </extensions>
      </trkpt>
      <trkpt lat="36.77960872650146484375" lon="-118.52306588552892208099365234375">
        <ele>1971.800048828125</ele>
        <time>2021-06-24T18:44:24.000Z</time>
        <extensions>
          <ns3:TrackPointExtension>
            <ns3:atemp>31.0</ns3:atemp>
            <ns3:hr>91</ns3:hr>
          </ns3:TrackPointExtension>
        </extensions>
      </trkpt>
      <trkpt lat="36.779617778956890106201171875" lon="-118.52303101681172847747802734375">
        <ele>1972.4000244140625</ele>
        <time>2021-06-24T18:45:00.000Z</time>
        <extensions>
          <ns3:TrackPointExtension>
            <ns3:atemp>31.0</ns3:atemp>
            <ns3:hr>87</ns3:hr>
          </ns3:TrackPointExtension>
        </extensions>
      </trkpt>
      <trkpt lat="36.779617108404636383056640625" lon="-118.52302975952625274658203125">
        <ele>1972.4000244140625</ele>
        <time>2021-06-24T18:45:01.000Z</time>
        <extensions>
          <ns3:TrackPointExtension>
            <ns3:atemp>31.0</ns3:atemp>
            <ns3:hr>83</ns3:hr>
          </ns3:TrackPointExtension>
        </extensions>
      </trkpt>
      <trkpt lat="36.77961585111916065216064453125" lon="-118.523028083145618438720703125">
        <ele>1972.4000244140625</ele>
        <time>2021-06-24T18:45:03.000Z</time>
        <extensions>
          <ns3:TrackPointExtension>
            <ns3:atemp>31.0</ns3:atemp>
            <ns3:hr>79</ns3:hr>
          </ns3:TrackPointExtension>
        </extensions>
      </trkpt>
      <trkpt lat="36.7796142585575580596923828125" lon="-118.52302347309887409210205078125">
        <ele>1972.199951171875</ele>
        <time>2021-06-24T18:45:06.000Z</time>
        <extensions>
          <ns3:TrackPointExtension>
            <ns3:atemp>31.0</ns3:atemp>
            <ns3:hr>76</ns3:hr>
          </ns3:TrackPointExtension>
        </extensions>
      </trkpt>
      <trkpt lat="36.779611743986606597900390625" lon="-118.52302129380404949188232421875">
        <ele>1972.199951171875</ele>
        <time>2021-06-24T18:45:10.000Z</time>
        <extensions>
          <ns3:TrackPointExtension>
            <ns3:atemp>31.0</ns3:atemp>
            <ns3:hr>73</ns3:hr>
          </ns3:TrackPointExtension>
        </extensions>
      </trkpt>
      <trkpt lat="36.7795978300273418426513671875" lon="-118.523018360137939453125">
        <ele>1972.199951171875</ele>
        <time>2021-06-24T18:45:17.000Z</time>
        <extensions>
          <ns3:TrackPointExtension>
            <ns3:atemp>31.0</ns3:atemp>
            <ns3:hr>70</ns3:hr>
          </ns3:TrackPointExtension>
        </extensions>
      </trkpt>
      <trkpt lat="36.779590956866741180419921875" lon="-118.52298391051590442657470703125">
        <ele>1972.199951171875</ele>
        <time>2021-06-24T18:45:27.000Z</time>
        <extensions>
          <ns3:TrackPointExtension>
            <ns3:atemp>31.0</ns3:atemp>
            <ns3:hr>70</ns3:hr>
          </ns3:TrackPointExtension>
        </extensions>
      </trkpt>
      <trkpt lat="36.7795887775719165802001953125" lon="-118.52295708842575550079345703125">
        <ele>1972.5999755859375</ele>
        <time>2021-06-24T18:45:31.000Z</time>
        <extensions>
          <ns3:TrackPointExtension>
            <ns3:atemp>31.0</ns3:atemp>
            <ns3:hr>70</ns3:hr>
          </ns3:TrackPointExtension>
        </extensions>
      </trkpt>
      <trkpt lat="36.7795948125422000885009765625" lon="-118.5229286737740039825439453125">
        <ele>1972.5999755859375</ele>
        <time>2021-06-24T18:45:34.000Z</time>
        <extensions>
          <ns3:TrackPointExtension>
            <ns3:atemp>31.0</ns3:atemp>
            <ns3:hr>70</ns3:hr>
          </ns3:TrackPointExtension>
        </extensions>
      </trkpt>
      <trkpt lat="36.77961166016757488250732421875" lon="-118.52288316003978252410888671875">
        <ele>1972.5999755859375</ele>
        <time>2021-06-24T18:45:39.000Z</time>
        <extensions>
          <ns3:TrackPointExtension>
            <ns3:atemp>31.0</ns3:atemp>
            <ns3:hr>70</ns3:hr>
          </ns3:TrackPointExtension>
        </extensions>
      </trkpt>
      <trkpt lat="36.77964418195188045501708984375" lon="-118.52281509898602962493896484375">
        <ele>1972.5999755859375</ele>
        <time>2021-06-24T18:45:47.000Z</time>
        <extensions>
          <ns3:TrackPointExtension>
            <ns3:atemp>31.0</ns3:atemp>
            <ns3:hr>71</ns3:hr>
          </ns3:TrackPointExtension>
        </extensions>
      </trkpt>
      <trkpt lat="36.779630519449710845947265625" lon="-118.5228123329579830169677734375">
        <ele>1972.5999755859375</ele>
        <time>2021-06-24T18:45:55.000Z</time>
        <extensions>
          <ns3:TrackPointExtension>
            <ns3:atemp>31.0</ns3:atemp>
            <ns3:hr>70</ns3:hr>
          </ns3:TrackPointExtension>
        </extensions>
      </trkpt>
      <trkpt lat="36.7796303518116474151611328125" lon="-118.52281845174729824066162109375">
        <ele>1972.5999755859375</ele>
        <time>2021-06-24T18:45:59.000Z</time>
        <extensions>
          <ns3:TrackPointExtension>
            <ns3:atemp>31.0</ns3:atemp>
            <ns3:hr>67</ns3:hr>
          </ns3:TrackPointExtension>
        </extensions>
      </trkpt>
      <trkpt lat="36.7796303518116474151611328125" lon="-118.52281845174729824066162109375">
        <ele>1972.5999755859375</ele>
        <time>2021-06-24T18:46:03.000Z</time>
        <extensions>
          <ns3:TrackPointExtension>
            <ns3:atemp>31.0</ns3:atemp>
            <ns3:hr>66</ns3:hr>
          </ns3:TrackPointExtension>
        </extensions>
      </trkpt>
      <trkpt lat="36.7796303518116474151611328125" lon="-118.52281845174729824066162109375">
        <ele>1972.4000244140625</ele>
        <time>2021-06-24T18:46:09.000Z</time>
        <extensions>
          <ns3:TrackPointExtension>
            <ns3:atemp>31.0</ns3:atemp>
            <ns3:hr>69</ns3:hr>
          </ns3:TrackPointExtension>
        </extensions>
      </trkpt>
      <trkpt lat="36.7796303518116474151611328125" lon="-118.52281845174729824066162109375">
        <ele>1972.4000244140625</ele>
        <time>2021-06-24T18:46:13.000Z</time>
        <extensions>
          <ns3:TrackPointExtension>
            <ns3:atemp>31.0</ns3:atemp>
            <ns3:hr>72</ns3:hr>
          </ns3:TrackPointExtension>
        </extensions>
      </trkpt>
      <trkpt lat="36.7796296812593936920166015625" lon="-118.52283395826816558837890625">
        <ele>1972.4000244140625</ele>
        <time>2021-06-24T18:46:17.000Z</time>
        <extensions>
          <ns3:TrackPointExtension>
            <ns3:atemp>31.0</ns3:atemp>
            <ns3:hr>75</ns3:hr>
          </ns3:TrackPointExtension>
        </extensions>
      </trkpt>
      <trkpt lat="36.77962892688810825347900390625" lon="-118.522839657962322235107421875">
        <ele>1972.4000244140625</ele>
        <time>2021-06-24T18:46:21.000Z</time>
        <extensions>
          <ns3:TrackPointExtension>
            <ns3:atemp>31.0</ns3:atemp>
            <ns3:hr>79</ns3:hr>
          </ns3:TrackPointExtension>
        </extensions>
      </trkpt>
      <trkpt lat="36.77962657995522022247314453125" lon="-118.52285097353160381317138671875">
        <ele>1972.4000244140625</ele>
        <time>2021-06-24T18:46:31.000Z</time>
        <extensions>
          <ns3:TrackPointExtension>
            <ns3:atemp>31.0</ns3:atemp>
            <ns3:hr>76</ns3:hr>
          </ns3:TrackPointExtension>
        </extensions>
      </trkpt>
      <trkpt lat="36.7796315252780914306640625" lon="-118.52285097353160381317138671875">
        <ele>1972.4000244140625</ele>
        <time>2021-06-24T18:46:44.000Z</time>
        <extensions>
          <ns3:TrackPointExtension>
            <ns3:atemp>31.0</ns3:atemp>
            <ns3:hr>79</ns3:hr>
          </ns3:TrackPointExtension>
        </extensions>
      </trkpt>
      <trkpt lat="36.77963219583034515380859375" lon="-118.52285097353160381317138671875">
        <ele>1972.4000244140625</ele>
        <time>2021-06-24T18:46:48.000Z</time>
        <extensions>
          <ns3:TrackPointExtension>
            <ns3:atemp>31.0</ns3:atemp>
            <ns3:hr>82</ns3:hr>
          </ns3:TrackPointExtension>
        </extensions>
      </trkpt>
      <trkpt lat="36.779607050120830535888671875" lon="-118.522928170859813690185546875">
        <ele>1972.4000244140625</ele>
        <time>2021-06-24T18:47:07.000Z</time>
        <extensions>
          <ns3:TrackPointExtension>
            <ns3:atemp>31.0</ns3:atemp>
            <ns3:hr>82</ns3:hr>
          </ns3:TrackPointExtension>
        </extensions>
      </trkpt>
      <trkpt lat="36.77957561798393726348876953125" lon="-118.52293361909687519073486328125">
        <ele>1972.4000244140625</ele>
        <time>2021-06-24T18:47:12.000Z</time>
        <extensions>
          <ns3:TrackPointExtension>
            <ns3:atemp>31.0</ns3:atemp>
            <ns3:hr>81</ns3:hr>
          </ns3:TrackPointExtension>
        </extensions>
      </trkpt>
      <trkpt lat="36.77957662381231784820556640625" lon="-118.522915430366992950439453125">
        <ele>1972.4000244140625</ele>
        <time>2021-06-24T18:47:18.000Z</time>
        <extensions>
          <ns3:TrackPointExtension>
            <ns3:atemp>31.0</ns3:atemp>
            <ns3:hr>82</ns3:hr>
          </ns3:TrackPointExtension>
        </extensions>
      </trkpt>
      <trkpt lat="36.77957310341298580169677734375" lon="-118.5229150950908660888671875">
        <ele>1972.4000244140625</ele>
        <time>2021-06-24T18:47:23.000Z</time>
        <extensions>
          <ns3:TrackPointExtension>
            <ns3:atemp>31.0</ns3:atemp>
            <ns3:hr>80</ns3:hr>
          </ns3:TrackPointExtension>
        </extensions>
      </trkpt>
      <trkpt lat="36.7795649729669094085693359375" lon="-118.522933535277843475341796875">
        <ele>1972.4000244140625</ele>
        <time>2021-06-24T18:47:30.000Z</time>
        <extensions>
          <ns3:TrackPointExtension>
            <ns3:atemp>31.0</ns3:atemp>
            <ns3:hr>77</ns3:hr>
          </ns3:TrackPointExtension>
        </extensions>
      </trkpt>
      <trkpt lat="36.7795649729669094085693359375" lon="-118.522933535277843475341796875">
        <ele>1972.4000244140625</ele>
        <time>2021-06-24T18:47:31.000Z</time>
        <extensions>
          <ns3:TrackPointExtension>
            <ns3:atemp>31.0</ns3:atemp>
            <ns3:hr>77</ns3:hr>
          </ns3:TrackPointExtension>
        </extensions>
      </trkpt>
      <trkpt lat="36.7795753665268421173095703125" lon="-118.52291551418602466583251953125">
        <ele>1972.4000244140625</ele>
        <time>2021-06-24T18:47:40.000Z</time>
        <extensions>
          <ns3:TrackPointExtension>
            <ns3:atemp>31.0</ns3:atemp>
            <ns3:hr>74</ns3:hr>
          </ns3:TrackPointExtension>
        </extensions>
      </trkpt>
      <trkpt lat="36.77958115004003047943115234375" lon="-118.52291082032024860382080078125">
        <ele>1972.4000244140625</ele>
        <time>2021-06-24T18:47:47.000Z</time>
        <extensions>
          <ns3:TrackPointExtension>
            <ns3:atemp>31.0</ns3:atemp>
            <ns3:hr>77</ns3:hr>
          </ns3:TrackPointExtension>
        </extensions>
      </trkpt>
      <trkpt lat="36.77959196269512176513671875" lon="-118.52289908565580844879150390625">
        <ele>1972.4000244140625</ele>
        <time>2021-06-24T18:48:02.000Z</time>
        <extensions>
          <ns3:TrackPointExtension>
            <ns3:atemp>31.0</ns3:atemp>
            <ns3:hr>74</ns3:hr>
          </ns3:TrackPointExtension>
        </extensions>
      </trkpt>
      <trkpt lat="36.7796082235872745513916015625" lon="-118.52292104624211788177490234375">
        <ele>1972.4000244140625</ele>
        <time>2021-06-24T18:48:20.000Z</time>
        <extensions>
          <ns3:TrackPointExtension>
            <ns3:atemp>31.0</ns3:atemp>
            <ns3:hr>70</ns3:hr>
          </ns3:TrackPointExtension>
        </extensions>
      </trkpt>
      <trkpt lat="36.77961166016757488250732421875" lon="-118.52292113006114959716796875">
        <ele>1972.4000244140625</ele>
        <time>2021-06-24T18:48:25.000Z</time>
        <extensions>
          <ns3:TrackPointExtension>
            <ns3:atemp>31.0</ns3:atemp>
            <ns3:hr>67</ns3:hr>
          </ns3:TrackPointExtension>
        </extensions>
      </trkpt>
      <trkpt lat="36.7796194553375244140625" lon="-118.52292113006114959716796875">
        <ele>1972.4000244140625</ele>
        <time>2021-06-24T18:48:30.000Z</time>
        <extensions>
          <ns3:TrackPointExtension>
            <ns3:atemp>31.0</ns3:atemp>
            <ns3:hr>64</ns3:hr>
          </ns3:TrackPointExtension>
        </extensions>
      </trkpt>
      <trkpt lat="36.7796300165355205535888671875" lon="-118.52291769348084926605224609375">
        <ele>1972.4000244140625</ele>
        <time>2021-06-24T18:48:37.000Z</time>
        <extensions>
          <ns3:TrackPointExtension>
            <ns3:atemp>31.0</ns3:atemp>
            <ns3:hr>61</ns3:hr>
          </ns3:TrackPointExtension>
        </extensions>
      </trkpt>
      <trkpt lat="36.77963362075388431549072265625" lon="-118.52291199378669261932373046875">
        <ele>1972.4000244140625</ele>
        <time>2021-06-24T18:48:43.000Z</time>
        <extensions>
          <ns3:TrackPointExtension>
            <ns3:atemp>31.0</ns3:atemp>
            <ns3:hr>64</ns3:hr>
          </ns3:TrackPointExtension>
        </extensions>
      </trkpt>
      <trkpt lat="36.779605038464069366455078125" lon="-118.52288634516298770904541015625">
        <ele>1972.4000244140625</ele>
        <time>2021-06-24T18:49:04.000Z</time>
        <extensions>
          <ns3:TrackPointExtension>
            <ns3:atemp>31.0</ns3:atemp>
            <ns3:hr>68</ns3:hr>
          </ns3:TrackPointExtension>
        </extensions>
      </trkpt>
      <trkpt lat="36.7796028591692447662353515625" lon="-118.52288634516298770904541015625">
        <ele>1972.4000244140625</ele>
        <time>2021-06-24T18:49:06.000Z</time>
        <extensions>
          <ns3:TrackPointExtension>
            <ns3:atemp>31.0</ns3:atemp>
            <ns3:hr>72</ns3:hr>
          </ns3:TrackPointExtension>
        </extensions>
      </trkpt>
      <trkpt lat="36.77960160188376903533935546875" lon="-118.52288634516298770904541015625">
        <ele>1972.4000244140625</ele>
        <time>2021-06-24T18:49:08.000Z</time>
        <extensions>
          <ns3:TrackPointExtension>
            <ns3:atemp>31.0</ns3:atemp>
            <ns3:hr>76</ns3:hr>
          </ns3:TrackPointExtension>
        </extensions>
      </trkpt>
      <trkpt lat="36.77960663102567195892333984375" lon="-118.52289623580873012542724609375">
        <ele>1972.4000244140625</ele>
        <time>2021-06-24T18:49:24.000Z</time>
        <extensions>
          <ns3:TrackPointExtension>
            <ns3:atemp>31.0</ns3:atemp>
            <ns3:hr>73</ns3:hr>
          </ns3:TrackPointExtension>
        </extensions>
      </trkpt>
      <trkpt lat="36.77962859161198139190673828125" lon="-118.52288902737200260162353515625">
        <ele>1972.4000244140625</ele>
        <time>2021-06-24T18:49:30.000Z</time>
        <extensions>
          <ns3:TrackPointExtension>
            <ns3:atemp>31.0</ns3:atemp>
            <ns3:hr>76</ns3:hr>
          </ns3:TrackPointExtension>
        </extensions>
      </trkpt>
      <trkpt lat="36.77962993271648883819580078125" lon="-118.52289296686649322509765625">
        <ele>1972.4000244140625</ele>
        <time>2021-06-24T18:49:31.000Z</time>
        <extensions>
          <ns3:TrackPointExtension>
            <ns3:atemp>31.0</ns3:atemp>
            <ns3:hr>77</ns3:hr>
          </ns3:TrackPointExtension>
        </extensions>
      </trkpt>
      <trkpt lat="36.7796253226697444915771484375" lon="-118.52292590774595737457275390625">
        <ele>1972.4000244140625</ele>
        <time>2021-06-24T18:49:38.000Z</time>
        <extensions>
          <ns3:TrackPointExtension>
            <ns3:atemp>31.0</ns3:atemp>
            <ns3:hr>80</ns3:hr>
          </ns3:TrackPointExtension>
        </extensions>
      </trkpt>
      <trkpt lat="36.77962523885071277618408203125" lon="-118.522945605218410491943359375">
        <ele>1972.4000244140625</ele>
        <time>2021-06-24T18:49:40.000Z</time>
        <extensions>
          <ns3:TrackPointExtension>
            <ns3:atemp>31.0</ns3:atemp>
            <ns3:hr>77</ns3:hr>
          </ns3:TrackPointExtension>
        </extensions>
      </trkpt>
      <trkpt lat="36.77961970679461956024169921875" lon="-118.52296865545213222503662109375">
        <ele>1972.4000244140625</ele>
        <time>2021-06-24T18:49:53.000Z</time>
        <extensions>
          <ns3:TrackPointExtension>
            <ns3:atemp>31.0</ns3:atemp>
            <ns3:hr>77</ns3:hr>
          </ns3:TrackPointExtension>
        </extensions>
      </trkpt>
      <trkpt lat="36.77961970679461956024169921875" lon="-118.52296865545213222503662109375">
        <ele>1972.4000244140625</ele>
        <time>2021-06-24T18:49:57.000Z</time>
        <extensions>
          <ns3:TrackPointExtension>
            <ns3:atemp>31.0</ns3:atemp>
            <ns3:hr>74</ns3:hr>
          </ns3:TrackPointExtension>
        </extensions>
      </trkpt>
      <trkpt lat="36.77961400710046291351318359375" lon="-118.522992543876171112060546875">
        <ele>1972.4000244140625</ele>
        <time>2021-06-24T18:50:00.000Z</time>
        <extensions>
          <ns3:TrackPointExtension>
            <ns3:atemp>32.0</ns3:atemp>
            <ns3:hr>71</ns3:hr>
          </ns3:TrackPointExtension>
        </extensions>
      </trkpt>
      <trkpt lat="36.7795968241989612579345703125" lon="-118.52302866987884044647216796875">
        <ele>1972.4000244140625</ele>
        <time>2021-06-24T18:50:23.000Z</time>
        <extensions>
          <ns3:TrackPointExtension>
            <ns3:atemp>32.0</ns3:atemp>
            <ns3:hr>68</ns3:hr>
          </ns3:TrackPointExtension>
        </extensions>
      </trkpt>
      <trkpt lat="36.77958399988710880279541015625" lon="-118.52305465377867221832275390625">
        <ele>1972.4000244140625</ele>
        <time>2021-06-24T18:50:35.000Z</time>
        <extensions>
          <ns3:TrackPointExtension>
            <ns3:atemp>32.0</ns3:atemp>
            <ns3:hr>71</ns3:hr>
          </ns3:TrackPointExtension>
        </extensions>
      </trkpt>
      <trkpt lat="36.7795817367732524871826171875" lon="-118.52306219749152660369873046875">
        <ele>1972.4000244140625</ele>
        <time>2021-06-24T18:50:39.000Z</time>
        <extensions>
          <ns3:TrackPointExtension>
            <ns3:atemp>32.0</ns3:atemp>
            <ns3:hr>74</ns3:hr>
          </ns3:TrackPointExtension>
        </extensions>
      </trkpt>
      <trkpt lat="36.7795778810977935791015625" lon="-118.52306638844311237335205078125">
        <ele>1972.4000244140625</ele>
        <time>2021-06-24T18:50:43.000Z</time>
        <extensions>
          <ns3:TrackPointExtension>
            <ns3:atemp>32.0</ns3:atemp>
            <ns3:hr>77</ns3:hr>
          </ns3:TrackPointExtension>
        </extensions>
      </trkpt>
      <trkpt lat="36.7795698344707489013671875" lon="-118.5230704955756664276123046875">
        <ele>1972.4000244140625</ele>
        <time>2021-06-24T18:50:47.000Z</time>
        <extensions>
          <ns3:TrackPointExtension>
            <ns3:atemp>32.0</ns3:atemp>
            <ns3:hr>80</ns3:hr>
          </ns3:TrackPointExtension>
        </extensions>
      </trkpt>
      <trkpt lat="36.7795671522617340087890625" lon="-118.5230679810047149658203125">
        <ele>1972.4000244140625</ele>
        <time>2021-06-24T18:51:03.000Z</time>
        <extensions>
          <ns3:TrackPointExtension>
            <ns3:atemp>32.0</ns3:atemp>
            <ns3:hr>77</ns3:hr>
          </ns3:TrackPointExtension>
        </extensions>
      </trkpt>
      <trkpt lat="36.7795666493475437164306640625" lon="-118.52306571789085865020751953125">
        <ele>1972.4000244140625</ele>
        <time>2021-06-24T18:51:07.000Z</time>
        <extensions>
          <ns3:TrackPointExtension>
            <ns3:atemp>32.0</ns3:atemp>
            <ns3:hr>74</ns3:hr>
          </ns3:TrackPointExtension>
        </extensions>
      </trkpt>
      <trkpt lat="36.77956656552851200103759765625" lon="-118.5230637900531291961669921875">
        <ele>1972.4000244140625</ele>
        <time>2021-06-24T18:51:10.000Z</time>
        <extensions>
          <ns3:TrackPointExtension>
            <ns3:atemp>32.0</ns3:atemp>
            <ns3:hr>77</ns3:hr>
          </ns3:TrackPointExtension>
        </extensions>
      </trkpt>
      <trkpt lat="36.77956656552851200103759765625" lon="-118.52306328713893890380859375">
        <ele>1972.4000244140625</ele>
        <time>2021-06-24T18:51:17.000Z</time>
        <extensions>
          <ns3:TrackPointExtension>
            <ns3:atemp>32.0</ns3:atemp>
            <ns3:hr>74</ns3:hr>
          </ns3:TrackPointExtension>
        </extensions>
      </trkpt>
      <trkpt lat="36.77956170402467250823974609375" lon="-118.52306328713893890380859375">
        <ele>1972.4000244140625</ele>
        <time>2021-06-24T18:51:20.000Z</time>
        <extensions>
          <ns3:TrackPointExtension>
            <ns3:atemp>32.0</ns3:atemp>
            <ns3:hr>71</ns3:hr>
          </ns3:TrackPointExtension>
        </extensions>
      </trkpt>
      <trkpt lat="36.77955550141632556915283203125" lon="-118.52305850945413112640380859375">
        <ele>1972.4000244140625</ele>
        <time>2021-06-24T18:51:24.000Z</time>
        <extensions>
          <ns3:TrackPointExtension>
            <ns3:atemp>32.0</ns3:atemp>
            <ns3:hr>68</ns3:hr>
          </ns3:TrackPointExtension>
        </extensions>
      </trkpt>
      <trkpt lat="36.77955097518861293792724609375" lon="-118.5230131633579730987548828125">
        <ele>1972.4000244140625</ele>
        <time>2021-06-24T18:51:28.000Z</time>
        <extensions>
          <ns3:TrackPointExtension>
            <ns3:atemp>32.0</ns3:atemp>
            <ns3:hr>71</ns3:hr>
          </ns3:TrackPointExtension>
        </extensions>
      </trkpt>
      <trkpt lat="36.77955281920731067657470703125" lon="-118.52299178950488567352294921875">
        <ele>1972.4000244140625</ele>
        <time>2021-06-24T18:51:29.000Z</time>
        <extensions>
          <ns3:TrackPointExtension>
            <ns3:atemp>32.0</ns3:atemp>
            <ns3:hr>71</ns3:hr>
          </ns3:TrackPointExtension>
        </extensions>
      </trkpt>
      <trkpt lat="36.77953538484871387481689453125" lon="-118.5228834114968776702880859375">
        <ele>1972.4000244140625</ele>
        <time>2021-06-24T18:51:34.000Z</time>
        <extensions>
          <ns3:TrackPointExtension>
            <ns3:atemp>32.0</ns3:atemp>
            <ns3:hr>72</ns3:hr>
          </ns3:TrackPointExtension>
        </extensions>
      </trkpt>
      <trkpt lat="36.77953404374420642852783203125" lon="-118.5228632949292659759521484375">
        <ele>1972.4000244140625</ele>
        <time>2021-06-24T18:51:35.000Z</time>
        <extensions>
          <ns3:TrackPointExtension>
            <ns3:atemp>32.0</ns3:atemp>
            <ns3:hr>74</ns3:hr>
          </ns3:TrackPointExtension>
        </extensions>
      </trkpt>
      <trkpt lat="36.77953303791582584381103515625" lon="-118.52285943925380706787109375">
        <ele>1972.4000244140625</ele>
        <time>2021-06-24T18:51:36.000Z</time>
        <extensions>
          <ns3:TrackPointExtension>
            <ns3:atemp>32.0</ns3:atemp>
            <ns3:hr>72</ns3:hr>
          </ns3:TrackPointExtension>
        </extensions>
      </trkpt>
      <trkpt lat="36.77953739650547504425048828125" lon="-118.52284845896065235137939453125">
        <ele>1972.4000244140625</ele>
        <time>2021-06-24T18:51:37.000Z</time>
        <extensions>
          <ns3:TrackPointExtension>
            <ns3:atemp>32.0</ns3:atemp>
            <ns3:hr>71</ns3:hr>
          </ns3:TrackPointExtension>
        </extensions>
      </trkpt>
      <trkpt lat="36.7795458622276782989501953125" lon="-118.52282188832759857177734375">
        <ele>1972.4000244140625</ele>
        <time>2021-06-24T18:51:39.000Z</time>
        <extensions>
          <ns3:TrackPointExtension>
            <ns3:atemp>32.0</ns3:atemp>
            <ns3:hr>72</ns3:hr>
          </ns3:TrackPointExtension>
        </extensions>
      </trkpt>
      <trkpt lat="36.77954678423702716827392578125" lon="-118.52279162965714931488037109375">
        <ele>1972.4000244140625</ele>
        <time>2021-06-24T18:51:41.000Z</time>
        <extensions>
          <ns3:TrackPointExtension>
            <ns3:atemp>32.0</ns3:atemp>
            <ns3:hr>73</ns3:hr>
          </ns3:TrackPointExtension>
        </extensions>
      </trkpt>
      <trkpt lat="36.77954594604671001434326171875" lon="-118.52268107235431671142578125">
        <ele>1972.4000244140625</ele>
        <time>2021-06-24T18:51:48.000Z</time>
        <extensions>
          <ns3:TrackPointExtension>
            <ns3:atemp>32.0</ns3:atemp>
            <ns3:hr>76</ns3:hr>
          </ns3:TrackPointExtension>
        </extensions>
      </trkpt>
      <trkpt lat="36.779533959925174713134765625" lon="-118.52263572625815868377685546875">
        <ele>1972.4000244140625</ele>
        <time>2021-06-24T18:51:51.000Z</time>
        <extensions>
          <ns3:TrackPointExtension>
            <ns3:atemp>32.0</ns3:atemp>
            <ns3:hr>76</ns3:hr>
          </ns3:TrackPointExtension>
        </extensions>
      </trkpt>
      <trkpt lat="36.77953563630580902099609375" lon="-118.52259331382811069488525390625">
        <ele>1971.800048828125</ele>
        <time>2021-06-24T18:51:55.000Z</time>
        <extensions>
          <ns3:TrackPointExtension>
            <ns3:atemp>32.0</ns3:atemp>
            <ns3:hr>75</ns3:hr>
          </ns3:TrackPointExtension>
        </extensions>
      </trkpt>
      <trkpt lat="36.77954544313251972198486328125" lon="-118.52257403545081615447998046875">
        <ele>1971.5999755859375</ele>
        <time>2021-06-24T18:51:57.000Z</time>
        <extensions>
          <ns3:TrackPointExtension>
            <ns3:atemp>32.0</ns3:atemp>
            <ns3:hr>75</ns3:hr>
          </ns3:TrackPointExtension>
        </extensions>
      </trkpt>
      <trkpt lat="36.7795515619218349456787109375" lon="-118.522547297179698944091796875">
        <ele>1971.5999755859375</ele>
        <time>2021-06-24T18:51:59.000Z</time>
        <extensions>
          <ns3:TrackPointExtension>
            <ns3:atemp>32.0</ns3:atemp>
            <ns3:hr>77</ns3:hr>
          </ns3:TrackPointExtension>
        </extensions>
      </trkpt>
      <trkpt lat="36.77955080755054950714111328125" lon="-118.522532880306243896484375">
        <ele>1972</ele>
        <time>2021-06-24T18:52:01.000Z</time>
        <extensions>
          <ns3:TrackPointExtension>
            <ns3:atemp>32.0</ns3:atemp>
            <ns3:hr>77</ns3:hr>
          </ns3:TrackPointExtension>
        </extensions>
      </trkpt>
      <trkpt lat="36.779562123119831085205078125" lon="-118.522488959133625030517578125">
        <ele>1972</ele>
        <time>2021-06-24T18:52:04.000Z</time>
        <extensions>
          <ns3:TrackPointExtension>
            <ns3:atemp>32.0</ns3:atemp>
            <ns3:hr>77</ns3:hr>
          </ns3:TrackPointExtension>
        </extensions>
      </trkpt>
      <trkpt lat="36.7795586027204990386962890625" lon="-118.52244629524648189544677734375">
        <ele>1971.800048828125</ele>
        <time>2021-06-24T18:52:08.000Z</time>
        <extensions>
          <ns3:TrackPointExtension>
            <ns3:atemp>32.0</ns3:atemp>
            <ns3:hr>78</ns3:hr>
          </ns3:TrackPointExtension>
        </extensions>
      </trkpt>
      <trkpt lat="36.77957746200263500213623046875" lon="-118.5223818384110927581787109375">
        <ele>1972</ele>
        <time>2021-06-24T18:52:12.000Z</time>
        <extensions>
          <ns3:TrackPointExtension>
            <ns3:atemp>32.0</ns3:atemp>
            <ns3:hr>80</ns3:hr>
          </ns3:TrackPointExtension>
        </extensions>
      </trkpt>
      <trkpt lat="36.77957645617425441741943359375" lon="-118.522368930280208587646484375">
        <ele>1972</ele>
        <time>2021-06-24T18:52:13.000Z</time>
        <extensions>
          <ns3:TrackPointExtension>
            <ns3:atemp>32.0</ns3:atemp>
            <ns3:hr>81</ns3:hr>
          </ns3:TrackPointExtension>
        </extensions>
      </trkpt>
      <trkpt lat="36.77954209037125110626220703125" lon="-118.52233297191560268402099609375">
        <ele>1972.5999755859375</ele>
        <time>2021-06-24T18:52:17.000Z</time>
        <extensions>
          <ns3:TrackPointExtension>
            <ns3:atemp>32.0</ns3:atemp>
            <ns3:hr>83</ns3:hr>
          </ns3:TrackPointExtension>
        </extensions>
      </trkpt>
      <trkpt lat="36.7795317806303501129150390625" lon="-118.52230363525450229644775390625">
        <ele>1972.5999755859375</ele>
        <time>2021-06-24T18:52:20.000Z</time>
        <extensions>
          <ns3:TrackPointExtension>
            <ns3:atemp>32.0</ns3:atemp>
            <ns3:hr>86</ns3:hr>
          </ns3:TrackPointExtension>
        </extensions>
      </trkpt>
      <trkpt lat="36.779509484767913818359375" lon="-118.52225267328321933746337890625">
        <ele>1972.800048828125</ele>
        <time>2021-06-24T18:52:24.000Z</time>
        <extensions>
          <ns3:TrackPointExtension>
            <ns3:atemp>32.0</ns3:atemp>
            <ns3:hr>87</ns3:hr>
          </ns3:TrackPointExtension>
        </extensions>
      </trkpt>
      <trkpt lat="36.7794801481068134307861328125" lon="-118.5222215764224529266357421875">
        <ele>1973</ele>
        <time>2021-06-24T18:52:28.000Z</time>
        <extensions>
          <ns3:TrackPointExtension>
            <ns3:atemp>32.0</ns3:atemp>
            <ns3:hr>91</ns3:hr>
          </ns3:TrackPointExtension>
        </extensions>
      </trkpt>
      <trkpt lat="36.77946397103369235992431640625" lon="-118.52221780456602573394775390625">
        <ele>1973</ele>
        <time>2021-06-24T18:52:29.000Z</time>
        <extensions>
          <ns3:TrackPointExtension>
            <ns3:atemp>32.0</ns3:atemp>
            <ns3:hr>91</ns3:hr>
          </ns3:TrackPointExtension>
        </extensions>
      </trkpt>
      <trkpt lat="36.77944385446608066558837890625" lon="-118.52221914567053318023681640625">
        <ele>1973</ele>
        <time>2021-06-24T18:52:30.000Z</time>
        <extensions>
          <ns3:TrackPointExtension>
            <ns3:atemp>32.0</ns3:atemp>
            <ns3:hr>92</ns3:hr>
          </ns3:TrackPointExtension>
        </extensions>
      </trkpt>
      <trkpt lat="36.77937076427042484283447265625" lon="-118.52219316177070140838623046875">
        <ele>1972.800048828125</ele>
        <time>2021-06-24T18:52:35.000Z</time>
        <extensions>
          <ns3:TrackPointExtension>
            <ns3:atemp>32.0</ns3:atemp>
            <ns3:hr>95</ns3:hr>
          </ns3:TrackPointExtension>
        </extensions>
      </trkpt>
      <trkpt lat="36.77933371625840663909912109375" lon="-118.5221766494214534759521484375">
        <ele>1972.800048828125</ele>
        <time>2021-06-24T18:52:38.000Z</time>
        <extensions>
          <ns3:TrackPointExtension>
            <ns3:atemp>32.0</ns3:atemp>
            <ns3:hr>95</ns3:hr>
          </ns3:TrackPointExtension>
        </extensions>
      </trkpt>
      <trkpt lat="36.77929968573153018951416015625" lon="-118.52212459780275821685791015625">
        <ele>1972.5999755859375</ele>
        <time>2021-06-24T18:52:42.000Z</time>
        <extensions>
          <ns3:TrackPointExtension>
            <ns3:atemp>32.0</ns3:atemp>
            <ns3:hr>95</ns3:hr>
          </ns3:TrackPointExtension>
        </extensions>
      </trkpt>
      <trkpt lat="36.77928862161934375762939453125" lon="-118.522077240049839019775390625">
        <ele>1972.5999755859375</ele>
        <time>2021-06-24T18:52:45.000Z</time>
        <extensions>
          <ns3:TrackPointExtension>
            <ns3:atemp>32.0</ns3:atemp>
            <ns3:hr>92</ns3:hr>
          </ns3:TrackPointExtension>
        </extensions>
      </trkpt>
      <trkpt lat="36.7792592011392116546630859375" lon="-118.52201311849057674407958984375">
        <ele>1972.5999755859375</ele>
        <time>2021-06-24T18:52:50.000Z</time>
        <extensions>
          <ns3:TrackPointExtension>
            <ns3:atemp>32.0</ns3:atemp>
            <ns3:hr>90</ns3:hr>
          </ns3:TrackPointExtension>
        </extensions>
      </trkpt>
      <trkpt lat="36.77925794385373592376708984375" lon="-118.521993421018123626708984375">
        <ele>1972.4000244140625</ele>
        <time>2021-06-24T18:52:52.000Z</time>
        <extensions>
          <ns3:TrackPointExtension>
            <ns3:atemp>32.0</ns3:atemp>
            <ns3:hr>88</ns3:hr>
          </ns3:TrackPointExtension>
        </extensions>
      </trkpt>
      <trkpt lat="36.779269762337207794189453125" lon="-118.52197456173598766326904296875">
        <ele>1972.800048828125</ele>
        <time>2021-06-24T18:52:55.000Z</time>
        <extensions>
          <ns3:TrackPointExtension>
            <ns3:atemp>32.0</ns3:atemp>
            <ns3:hr>91</ns3:hr>
          </ns3:TrackPointExtension>
        </extensions>
      </trkpt>
      <trkpt lat="36.77927856333553791046142578125" lon="-118.5219548642635345458984375">
        <ele>1972.800048828125</ele>
        <time>2021-06-24T18:52:57.000Z</time>
        <extensions>
          <ns3:TrackPointExtension>
            <ns3:atemp>32.0</ns3:atemp>
            <ns3:hr>87</ns3:hr>
          </ns3:TrackPointExtension>
        </extensions>
      </trkpt>
      <trkpt lat="36.77925073541700839996337890625" lon="-118.52195075713098049163818359375">
        <ele>1972.800048828125</ele>
        <time>2021-06-24T18:53:00.000Z</time>
        <extensions>
          <ns3:TrackPointExtension>
            <ns3:atemp>32.0</ns3:atemp>
            <ns3:hr>89</ns3:hr>
          </ns3:TrackPointExtension>
        </extensions>
      </trkpt>
      <trkpt lat="36.77924721501767635345458984375" lon="-118.521915972232818603515625">
        <ele>1972.5999755859375</ele>
        <time>2021-06-24T18:53:02.000Z</time>
        <extensions>
          <ns3:TrackPointExtension>
            <ns3:atemp>32.0</ns3:atemp>
            <ns3:hr>89</ns3:hr>
          </ns3:TrackPointExtension>
        </extensions>
      </trkpt>
      <trkpt lat="36.77925375290215015411376953125" lon="-118.52189443074166774749755859375">
        <ele>1972.5999755859375</ele>
        <time>2021-06-24T18:53:03.000Z</time>
        <extensions>
          <ns3:TrackPointExtension>
            <ns3:atemp>32.0</ns3:atemp>
            <ns3:hr>89</ns3:hr>
          </ns3:TrackPointExtension>
        </extensions>
      </trkpt>
      <trkpt lat="36.7792494781315326690673828125" lon="-118.521851934492588043212890625">
        <ele>1972.5999755859375</ele>
        <time>2021-06-24T18:53:07.000Z</time>
        <extensions>
          <ns3:TrackPointExtension>
            <ns3:atemp>32.0</ns3:atemp>
            <ns3:hr>89</ns3:hr>
          </ns3:TrackPointExtension>
        </extensions>
      </trkpt>
      <trkpt lat="36.7792270146310329437255859375" lon="-118.52182276546955108642578125">
        <ele>1972.5999755859375</ele>
        <time>2021-06-24T18:53:11.000Z</time>
        <extensions>
          <ns3:TrackPointExtension>
            <ns3:atemp>32.0</ns3:atemp>
            <ns3:hr>85</ns3:hr>
          </ns3:TrackPointExtension>
        </extensions>
      </trkpt>
      <trkpt lat="36.779221482574939727783203125" lon="-118.5218148864805698394775390625">
        <ele>1972.5999755859375</ele>
        <time>2021-06-24T18:53:12.000Z</time>
        <extensions>
          <ns3:TrackPointExtension>
            <ns3:atemp>32.0</ns3:atemp>
            <ns3:hr>83</ns3:hr>
          </ns3:TrackPointExtension>
        </extensions>
      </trkpt>
      <trkpt lat="36.77919424138963222503662109375" lon="-118.52172846905887126922607421875">
        <ele>1973.4000244140625</ele>
        <time>2021-06-24T18:53:19.000Z</time>
        <extensions>
          <ns3:TrackPointExtension>
            <ns3:atemp>32.0</ns3:atemp>
            <ns3:hr>82</ns3:hr>
          </ns3:TrackPointExtension>
        </extensions>
      </trkpt>
      <trkpt lat="36.77918552421033382415771484375" lon="-118.5216931812465190887451171875">
        <ele>1973.5999755859375</ele>
        <time>2021-06-24T18:53:23.000Z</time>
        <extensions>
          <ns3:TrackPointExtension>
            <ns3:atemp>32.0</ns3:atemp>
            <ns3:hr>81</ns3:hr>
          </ns3:TrackPointExtension>
        </extensions>
      </trkpt>
      <trkpt lat="36.77917244844138622283935546875" lon="-118.52165336720645427703857421875">
        <ele>1973.800048828125</ele>
        <time>2021-06-24T18:53:25.000Z</time>
        <extensions>
          <ns3:TrackPointExtension>
            <ns3:atemp>32.0</ns3:atemp>
            <ns3:hr>81</ns3:hr>
          </ns3:TrackPointExtension>
        </extensions>
      </trkpt>
      <trkpt lat="36.77916817367076873779296875" lon="-118.5216117091476917266845703125">
        <ele>1974.199951171875</ele>
        <time>2021-06-24T18:53:28.000Z</time>
        <extensions>
          <ns3:TrackPointExtension>
            <ns3:atemp>32.0</ns3:atemp>
            <ns3:hr>82</ns3:hr>
          </ns3:TrackPointExtension>
        </extensions>
      </trkpt>
      <trkpt lat="36.779159791767597198486328125" lon="-118.5215594060719013214111328125">
        <ele>1974.4000244140625</ele>
        <time>2021-06-24T18:53:31.000Z</time>
        <extensions>
          <ns3:TrackPointExtension>
            <ns3:atemp>32.0</ns3:atemp>
            <ns3:hr>82</ns3:hr>
          </ns3:TrackPointExtension>
        </extensions>
      </trkpt>
      <trkpt lat="36.7791512422263622283935546875" lon="-118.52154976688325405120849609375">
        <ele>1974.4000244140625</ele>
        <time>2021-06-24T18:53:32.000Z</time>
        <extensions>
          <ns3:TrackPointExtension>
            <ns3:atemp>32.0</ns3:atemp>
            <ns3:hr>82</ns3:hr>
          </ns3:TrackPointExtension>
        </extensions>
      </trkpt>
      <trkpt lat="36.77911243401467800140380859375" lon="-118.5214273072779178619384765625">
        <ele>1974.5999755859375</ele>
        <time>2021-06-24T18:53:40.000Z</time>
        <extensions>
          <ns3:TrackPointExtension>
            <ns3:atemp>32.0</ns3:atemp>
            <ns3:hr>86</ns3:hr>
          </ns3:TrackPointExtension>
        </extensions>
      </trkpt>
      <trkpt lat="36.7791016213595867156982421875" lon="-118.52142085321247577667236328125">
        <ele>1975</ele>
        <time>2021-06-24T18:53:41.000Z</time>
        <extensions>
          <ns3:TrackPointExtension>
            <ns3:atemp>32.0</ns3:atemp>
            <ns3:hr>88</ns3:hr>
          </ns3:TrackPointExtension>
        </extensions>
      </trkpt>
      <trkpt lat="36.77907974459230899810791015625" lon="-118.52139017544686794281005859375">
        <ele>1975.199951171875</ele>
        <time>2021-06-24T18:53:44.000Z</time>
        <extensions>
          <ns3:TrackPointExtension>
            <ns3:atemp>32.0</ns3:atemp>
            <ns3:hr>91</ns3:hr>
          </ns3:TrackPointExtension>
        </extensions>
      </trkpt>
      <trkpt lat="36.77908745594322681427001953125" lon="-118.52130509912967681884765625">
        <ele>1975.199951171875</ele>
        <time>2021-06-24T18:53:48.000Z</time>
        <extensions>
          <ns3:TrackPointExtension>
            <ns3:atemp>32.0</ns3:atemp>
            <ns3:hr>94</ns3:hr>
          </ns3:TrackPointExtension>
        </extensions>
      </trkpt>
      <trkpt lat="36.77909709513187408447265625" lon="-118.52126109413802623748779296875">
        <ele>1975.800048828125</ele>
        <time>2021-06-24T18:53:52.000Z</time>
        <extensions>
          <ns3:TrackPointExtension>
            <ns3:atemp>32.0</ns3:atemp>
            <ns3:hr>96</ns3:hr>
          </ns3:TrackPointExtension>
        </extensions>
      </trkpt>
      <trkpt lat="36.7790902219712734222412109375" lon="-118.5212221182882785797119140625">
        <ele>1976</ele>
        <time>2021-06-24T18:53:56.000Z</time>
        <extensions>
          <ns3:TrackPointExtension>
            <ns3:atemp>32.0</ns3:atemp>
            <ns3:hr>99</ns3:hr>
          </ns3:TrackPointExtension>
        </extensions>
      </trkpt>
      <trkpt lat="36.77908795885741710662841796875" lon="-118.52117140777409076690673828125">
        <ele>1976.800048828125</ele>
        <time>2021-06-24T18:54:01.000Z</time>
        <extensions>
          <ns3:TrackPointExtension>
            <ns3:atemp>32.0</ns3:atemp>
            <ns3:hr>100</ns3:hr>
          </ns3:TrackPointExtension>
        </extensions>
      </trkpt>
      <trkpt lat="36.77909684367477893829345703125" lon="-118.5211493633687496185302734375">
        <ele>1977</ele>
        <time>2021-06-24T18:54:03.000Z</time>
        <extensions>
          <ns3:TrackPointExtension>
            <ns3:atemp>32.0</ns3:atemp>
            <ns3:hr>100</ns3:hr>
          </ns3:TrackPointExtension>
        </extensions>
      </trkpt>
      <trkpt lat="36.77910556085407733917236328125" lon="-118.52108557708561420440673828125">
        <ele>1977.800048828125</ele>
        <time>2021-06-24T18:54:08.000Z</time>
        <extensions>
          <ns3:TrackPointExtension>
            <ns3:atemp>32.0</ns3:atemp>
            <ns3:hr>103</ns3:hr>
          </ns3:TrackPointExtension>
        </extensions>
      </trkpt>
      <trkpt lat="36.77909952588379383087158203125" lon="-118.521056659519672393798828125">
        <ele>1978</ele>
        <time>2021-06-24T18:54:10.000Z</time>
        <extensions>
          <ns3:TrackPointExtension>
            <ns3:atemp>32.0</ns3:atemp>
            <ns3:hr>104</ns3:hr>
          </ns3:TrackPointExtension>
        </extensions>
      </trkpt>
      <trkpt lat="36.77910371683537960052490234375" lon="-118.52101969532668590545654296875">
        <ele>1978</ele>
        <time>2021-06-24T18:54:12.000Z</time>
        <extensions>
          <ns3:TrackPointExtension>
            <ns3:atemp>32.0</ns3:atemp>
            <ns3:hr>107</ns3:hr>
          </ns3:TrackPointExtension>
        </extensions>
      </trkpt>
      <trkpt lat="36.77911126054823398590087890625" lon="-118.52098013274371623992919921875">
        <ele>1978.4000244140625</ele>
        <time>2021-06-24T18:54:15.000Z</time>
        <extensions>
          <ns3:TrackPointExtension>
            <ns3:atemp>32.0</ns3:atemp>
            <ns3:hr>106</ns3:hr>
          </ns3:TrackPointExtension>
        </extensions>
      </trkpt>
      <trkpt lat="36.77911830134689807891845703125" lon="-118.52096823044121265411376953125">
        <ele>1978.199951171875</ele>
        <time>2021-06-24T18:54:16.000Z</time>
        <extensions>
          <ns3:TrackPointExtension>
            <ns3:atemp>32.0</ns3:atemp>
            <ns3:hr>105</ns3:hr>
          </ns3:TrackPointExtension>
        </extensions>
      </trkpt>
      <trkpt lat="36.7791358195245265960693359375" lon="-118.52095398120582103729248046875">
        <ele>1978.4000244140625</ele>
        <time>2021-06-24T18:54:18.000Z</time>
        <extensions>
          <ns3:TrackPointExtension>
            <ns3:atemp>32.0</ns3:atemp>
            <ns3:hr>102</ns3:hr>
          </ns3:TrackPointExtension>
        </extensions>
      </trkpt>
      <trkpt lat="36.77915149368345737457275390625" lon="-118.52094895206391811370849609375">
        <ele>1978.5999755859375</ele>
        <time>2021-06-24T18:54:20.000Z</time>
        <extensions>
          <ns3:TrackPointExtension>
            <ns3:atemp>32.0</ns3:atemp>
            <ns3:hr>99</ns3:hr>
          </ns3:TrackPointExtension>
        </extensions>
      </trkpt>
      <trkpt lat="36.77915736101567745208740234375" lon="-118.5209414921700954437255859375">
        <ele>1978.800048828125</ele>
        <time>2021-06-24T18:54:21.000Z</time>
        <extensions>
          <ns3:TrackPointExtension>
            <ns3:atemp>32.0</ns3:atemp>
            <ns3:hr>98</ns3:hr>
          </ns3:TrackPointExtension>
        </extensions>
      </trkpt>
      <trkpt lat="36.7791586183011531829833984375" lon="-118.52093503810465335845947265625">
        <ele>1978.800048828125</ele>
        <time>2021-06-24T18:54:22.000Z</time>
        <extensions>
          <ns3:TrackPointExtension>
            <ns3:atemp>32.0</ns3:atemp>
            <ns3:hr>94</ns3:hr>
          </ns3:TrackPointExtension>
        </extensions>
      </trkpt>
      <trkpt lat="36.77916146814823150634765625" lon="-118.5209262371063232421875">
        <ele>1979.4000244140625</ele>
        <time>2021-06-24T18:54:24.000Z</time>
        <extensions>
          <ns3:TrackPointExtension>
            <ns3:atemp>32.0</ns3:atemp>
            <ns3:hr>98</ns3:hr>
          </ns3:TrackPointExtension>
        </extensions>
      </trkpt>
      <trkpt lat="36.77917127497494220733642578125" lon="-118.52092229761183261871337890625">
        <ele>1980</ele>
        <time>2021-06-24T18:54:26.000Z</time>
        <extensions>
          <ns3:TrackPointExtension>
            <ns3:atemp>32.0</ns3:atemp>
            <ns3:hr>98</ns3:hr>
          </ns3:TrackPointExtension>
        </extensions>
      </trkpt>
      <trkpt lat="36.77917663939297199249267578125" lon="-118.5209210403263568878173828125">
        <ele>1980.4000244140625</ele>
        <time>2021-06-24T18:54:28.000Z</time>
        <extensions>
          <ns3:TrackPointExtension>
            <ns3:atemp>32.0</ns3:atemp>
            <ns3:hr>99</ns3:hr>
          </ns3:TrackPointExtension>
        </extensions>
      </trkpt>
      <trkpt lat="36.7791857756674289703369140625" lon="-118.52089799009263515472412109375">
        <ele>1980.800048828125</ele>
        <time>2021-06-24T18:54:31.000Z</time>
        <extensions>
          <ns3:TrackPointExtension>
            <ns3:atemp>32.0</ns3:atemp>
            <ns3:hr>100</ns3:hr>
          </ns3:TrackPointExtension>
        </extensions>
      </trkpt>
      <trkpt lat="36.7791954986751079559326171875" lon="-118.52087938226759433746337890625">
        <ele>1980.800048828125</ele>
        <time>2021-06-24T18:54:32.000Z</time>
        <extensions>
          <ns3:TrackPointExtension>
            <ns3:atemp>32.0</ns3:atemp>
            <ns3:hr>99</ns3:hr>
          </ns3:TrackPointExtension>
        </extensions>
      </trkpt>
      <trkpt lat="36.77920631133019924163818359375" lon="-118.5208576731383800506591796875">
        <ele>1981</ele>
        <time>2021-06-24T18:54:33.000Z</time>
        <extensions>
          <ns3:TrackPointExtension>
            <ns3:atemp>32.0</ns3:atemp>
            <ns3:hr>100</ns3:hr>
          </ns3:TrackPointExtension>
        </extensions>
      </trkpt>
      <trkpt lat="36.77921469323337078094482421875" lon="-118.52084015496075153350830078125">
        <ele>1981.5999755859375</ele>
        <time>2021-06-24T18:54:36.000Z</time>
        <extensions>
          <ns3:TrackPointExtension>
            <ns3:atemp>32.0</ns3:atemp>
            <ns3:hr>103</ns3:hr>
          </ns3:TrackPointExtension>
        </extensions>
      </trkpt>
      <trkpt lat="36.779236234724521636962890625" lon="-118.52081098593771457672119140625">
        <ele>1982.199951171875</ele>
        <time>2021-06-24T18:54:41.000Z</time>
        <extensions>
          <ns3:TrackPointExtension>
            <ns3:atemp>32.0</ns3:atemp>
            <ns3:hr>103</ns3:hr>
          </ns3:TrackPointExtension>
        </extensions>
      </trkpt>
      <trkpt lat="36.77924084477126598358154296875" lon="-118.520805202424526214599609375">
        <ele>1982.199951171875</ele>
        <time>2021-06-24T18:54:42.000Z</time>
        <extensions>
          <ns3:TrackPointExtension>
            <ns3:atemp>32.0</ns3:atemp>
            <ns3:hr>102</ns3:hr>
          </ns3:TrackPointExtension>
        </extensions>
      </trkpt>
      <trkpt lat="36.77925576455891132354736328125" lon="-118.52076924405992031097412109375">
        <ele>1982.4000244140625</ele>
        <time>2021-06-24T18:54:46.000Z</time>
        <extensions>
          <ns3:TrackPointExtension>
            <ns3:atemp>32.0</ns3:atemp>
            <ns3:hr>103</ns3:hr>
          </ns3:TrackPointExtension>
        </extensions>
      </trkpt>
      <trkpt lat="36.779251992702484130859375" lon="-118.52076069451868534088134765625">
        <ele>1982.5999755859375</ele>
        <time>2021-06-24T18:54:47.000Z</time>
        <extensions>
          <ns3:TrackPointExtension>
            <ns3:atemp>32.0</ns3:atemp>
            <ns3:hr>104</ns3:hr>
          </ns3:TrackPointExtension>
        </extensions>
      </trkpt>
      <trkpt lat="36.77924838848412036895751953125" lon="-118.5207158513367176055908203125">
        <ele>1983</ele>
        <time>2021-06-24T18:54:51.000Z</time>
        <extensions>
          <ns3:TrackPointExtension>
            <ns3:atemp>32.0</ns3:atemp>
            <ns3:hr>102</ns3:hr>
          </ns3:TrackPointExtension>
        </extensions>
      </trkpt>
      <trkpt lat="36.7792628891766071319580078125" lon="-118.52069087326526641845703125">
        <ele>1983.5999755859375</ele>
        <time>2021-06-24T18:54:53.000Z</time>
        <extensions>
          <ns3:TrackPointExtension>
            <ns3:atemp>32.0</ns3:atemp>
            <ns3:hr>102</ns3:hr>
          </ns3:TrackPointExtension>
        </extensions>
      </trkpt>
      <trkpt lat="36.77927101962268352508544921875" lon="-118.520679809153079986572265625">
        <ele>1983.5999755859375</ele>
        <time>2021-06-24T18:54:54.000Z</time>
        <extensions>
          <ns3:TrackPointExtension>
            <ns3:atemp>32.0</ns3:atemp>
            <ns3:hr>103</ns3:hr>
          </ns3:TrackPointExtension>
        </extensions>
      </trkpt>
      <trkpt lat="36.7792950756847858428955078125" lon="-118.52060613222420215606689453125">
        <ele>1983.5999755859375</ele>
        <time>2021-06-24T18:55:00.000Z</time>
        <extensions>
          <ns3:TrackPointExtension>
            <ns3:atemp>32.0</ns3:atemp>
            <ns3:hr>104</ns3:hr>
          </ns3:TrackPointExtension>
        </extensions>
      </trkpt>
      <trkpt lat="36.7793011106550693511962890625" lon="-118.52054863236844539642333984375">
        <ele>1984</ele>
        <time>2021-06-24T18:55:04.000Z</time>
        <extensions>
          <ns3:TrackPointExtension>
            <ns3:atemp>32.0</ns3:atemp>
            <ns3:hr>103</ns3:hr>
          </ns3:TrackPointExtension>
        </extensions>
      </trkpt>
      <trkpt lat="36.7792989313602447509765625" lon="-118.52047436870634555816650390625">
        <ele>1984.199951171875</ele>
        <time>2021-06-24T18:55:09.000Z</time>
        <extensions>
          <ns3:TrackPointExtension>
            <ns3:atemp>32.0</ns3:atemp>
            <ns3:hr>103</ns3:hr>
          </ns3:TrackPointExtension>
        </extensions>
      </trkpt>
      <trkpt lat="36.77927889861166477203369140625" lon="-118.5204063914716243743896484375">
        <ele>1984.4000244140625</ele>
        <time>2021-06-24T18:55:14.000Z</time>
        <extensions>
          <ns3:TrackPointExtension>
            <ns3:atemp>32.0</ns3:atemp>
            <ns3:hr>104</ns3:hr>
          </ns3:TrackPointExtension>
        </extensions>
      </trkpt>
      <trkpt lat="36.7792739532887935638427734375" lon="-118.520377390086650848388671875">
        <ele>1984.5999755859375</ele>
        <time>2021-06-24T18:55:16.000Z</time>
        <extensions>
          <ns3:TrackPointExtension>
            <ns3:atemp>32.0</ns3:atemp>
            <ns3:hr>104</ns3:hr>
          </ns3:TrackPointExtension>
        </extensions>
      </trkpt>
      <trkpt lat="36.779272444546222686767578125" lon="-118.52032282389700412750244140625">
        <ele>1984.4000244140625</ele>
        <time>2021-06-24T18:55:20.000Z</time>
        <extensions>
          <ns3:TrackPointExtension>
            <ns3:atemp>32.0</ns3:atemp>
            <ns3:hr>104</ns3:hr>
          </ns3:TrackPointExtension>
        </extensions>
      </trkpt>
      <trkpt lat="36.7793034575879573822021484375" lon="-118.52027974091470241546630859375">
        <ele>1984.4000244140625</ele>
        <time>2021-06-24T18:55:24.000Z</time>
        <extensions>
          <ns3:TrackPointExtension>
            <ns3:atemp>32.0</ns3:atemp>
            <ns3:hr>105</ns3:hr>
          </ns3:TrackPointExtension>
        </extensions>
      </trkpt>
      <trkpt lat="36.77932164631783962249755859375" lon="-118.5202377475798130035400390625">
        <ele>1984.5999755859375</ele>
        <time>2021-06-24T18:55:27.000Z</time>
        <extensions>
          <ns3:TrackPointExtension>
            <ns3:atemp>32.0</ns3:atemp>
            <ns3:hr>102</ns3:hr>
          </ns3:TrackPointExtension>
        </extensions>
      </trkpt>
      <trkpt lat="36.7793128453195095062255859375" lon="-118.5202109254896640777587890625">
        <ele>1984.800048828125</ele>
        <time>2021-06-24T18:55:29.000Z</time>
        <extensions>
          <ns3:TrackPointExtension>
            <ns3:atemp>32.0</ns3:atemp>
            <ns3:hr>101</ns3:hr>
          </ns3:TrackPointExtension>
        </extensions>
      </trkpt>
      <trkpt lat="36.779304631054401397705078125" lon="-118.5201971791684627532958984375">
        <ele>1985</ele>
        <time>2021-06-24T18:55:30.000Z</time>
        <extensions>
          <ns3:TrackPointExtension>
            <ns3:atemp>32.0</ns3:atemp>
            <ns3:hr>102</ns3:hr>
          </ns3:TrackPointExtension>
        </extensions>
      </trkpt>
      <trkpt lat="36.77929432131350040435791015625" lon="-118.52015711367130279541015625">
        <ele>1985.199951171875</ele>
        <time>2021-06-24T18:55:33.000Z</time>
        <extensions>
          <ns3:TrackPointExtension>
            <ns3:atemp>32.0</ns3:atemp>
            <ns3:hr>100</ns3:hr>
          </ns3:TrackPointExtension>
        </extensions>
      </trkpt>
      <trkpt lat="36.7793061397969722747802734375" lon="-118.52013389579951763153076171875">
        <ele>1985.4000244140625</ele>
        <time>2021-06-24T18:55:35.000Z</time>
        <extensions>
          <ns3:TrackPointExtension>
            <ns3:atemp>32.0</ns3:atemp>
            <ns3:hr>99</ns3:hr>
          </ns3:TrackPointExtension>
        </extensions>
      </trkpt>
      <trkpt lat="36.77931142039597034454345703125" lon="-118.52011159993708133697509765625">
        <ele>1985.4000244140625</ele>
        <time>2021-06-24T18:55:37.000Z</time>
        <extensions>
          <ns3:TrackPointExtension>
            <ns3:atemp>32.0</ns3:atemp>
            <ns3:hr>98</ns3:hr>
          </ns3:TrackPointExtension>
        </extensions>
      </trkpt>
      <trkpt lat="36.7793091572821140289306640625" lon="-118.5200945846736431121826171875">
        <ele>1985.4000244140625</ele>
        <time>2021-06-24T18:55:39.000Z</time>
        <extensions>
          <ns3:TrackPointExtension>
            <ns3:atemp>32.0</ns3:atemp>
            <ns3:hr>103</ns3:hr>
          </ns3:TrackPointExtension>
        </extensions>
      </trkpt>
      <trkpt lat="36.77931971848011016845703125" lon="-118.52008402347564697265625">
        <ele>1985.800048828125</ele>
        <time>2021-06-24T18:55:40.000Z</time>
        <extensions>
          <ns3:TrackPointExtension>
            <ns3:atemp>32.0</ns3:atemp>
            <ns3:hr>105</ns3:hr>
          </ns3:TrackPointExtension>
        </extensions>
      </trkpt>
      <trkpt lat="36.77932868711650371551513671875" lon="-118.52007262408733367919921875">
        <ele>1985.800048828125</ele>
        <time>2021-06-24T18:55:41.000Z</time>
        <extensions>
          <ns3:TrackPointExtension>
            <ns3:atemp>32.0</ns3:atemp>
            <ns3:hr>106</ns3:hr>
          </ns3:TrackPointExtension>
        </extensions>
      </trkpt>
      <trkpt lat="36.77933623082935810089111328125" lon="-118.52005342952907085418701171875">
        <ele>1986</ele>
        <time>2021-06-24T18:55:43.000Z</time>
        <extensions>
          <ns3:TrackPointExtension>
            <ns3:atemp>32.0</ns3:atemp>
            <ns3:hr>109</ns3:hr>
          </ns3:TrackPointExtension>
        </extensions>
      </trkpt>
      <trkpt lat="36.7793364822864532470703125" lon="-118.520017303526401519775390625">
        <ele>1986.4000244140625</ele>
        <time>2021-06-24T18:55:47.000Z</time>
        <extensions>
          <ns3:TrackPointExtension>
            <ns3:atemp>32.0</ns3:atemp>
            <ns3:hr>112</ns3:hr>
          </ns3:TrackPointExtension>
        </extensions>
      </trkpt>
      <trkpt lat="36.77934427745640277862548828125" lon="-118.520003221929073333740234375">
        <ele>1986.4000244140625</ele>
        <time>2021-06-24T18:55:48.000Z</time>
        <extensions>
          <ns3:TrackPointExtension>
            <ns3:atemp>32.0</ns3:atemp>
            <ns3:hr>110</ns3:hr>
          </ns3:TrackPointExtension>
        </extensions>
      </trkpt>
      <trkpt lat="36.77937068045139312744140625" lon="-118.5199628211557865142822265625">
        <ele>1987</ele>
        <time>2021-06-24T18:55:52.000Z</time>
        <extensions>
          <ns3:TrackPointExtension>
            <ns3:atemp>32.0</ns3:atemp>
            <ns3:hr>111</ns3:hr>
          </ns3:TrackPointExtension>
        </extensions>
      </trkpt>
      <trkpt lat="36.77937470376491546630859375" lon="-118.51995251141488552093505859375">
        <ele>1987</ele>
        <time>2021-06-24T18:55:53.000Z</time>
        <extensions>
          <ns3:TrackPointExtension>
            <ns3:atemp>32.0</ns3:atemp>
            <ns3:hr>108</ns3:hr>
          </ns3:TrackPointExtension>
        </extensions>
      </trkpt>
      <trkpt lat="36.7793740332126617431640625" lon="-118.5199423693120479583740234375">
        <ele>1987.4000244140625</ele>
        <time>2021-06-24T18:55:54.000Z</time>
        <extensions>
          <ns3:TrackPointExtension>
            <ns3:atemp>32.0</ns3:atemp>
            <ns3:hr>111</ns3:hr>
          </ns3:TrackPointExtension>
        </extensions>
      </trkpt>
      <trkpt lat="36.77936263382434844970703125" lon="-118.51992401294410228729248046875">
        <ele>1988</ele>
        <time>2021-06-24T18:55:58.000Z</time>
        <extensions>
          <ns3:TrackPointExtension>
            <ns3:atemp>32.0</ns3:atemp>
            <ns3:hr>110</ns3:hr>
          </ns3:TrackPointExtension>
        </extensions>
      </trkpt>
      <trkpt lat="36.77936271764338016510009765625" lon="-118.5199137032032012939453125">
        <ele>1988.4000244140625</ele>
        <time>2021-06-24T18:55:59.000Z</time>
        <extensions>
          <ns3:TrackPointExtension>
            <ns3:atemp>32.0</ns3:atemp>
            <ns3:hr>109</ns3:hr>
          </ns3:TrackPointExtension>
        </extensions>
      </trkpt>
      <trkpt lat="36.77936389110982418060302734375" lon="-118.5199001245200634002685546875">
        <ele>1988.5999755859375</ele>
        <time>2021-06-24T18:56:00.000Z</time>
        <extensions>
          <ns3:TrackPointExtension>
            <ns3:atemp>32.0</ns3:atemp>
            <ns3:hr>109</ns3:hr>
          </ns3:TrackPointExtension>
        </extensions>
      </trkpt>
      <trkpt lat="36.77936875261366367340087890625" lon="-118.51985863409936428070068359375">
        <ele>1989.5999755859375</ele>
        <time>2021-06-24T18:56:04.000Z</time>
        <extensions>
          <ns3:TrackPointExtension>
            <ns3:atemp>32.0</ns3:atemp>
            <ns3:hr>109</ns3:hr>
          </ns3:TrackPointExtension>
        </extensions>
      </trkpt>
      <trkpt lat="36.77936204709112644195556640625" lon="-118.51984153501689434051513671875">
        <ele>1989.5999755859375</ele>
        <time>2021-06-24T18:56:06.000Z</time>
        <extensions>
          <ns3:TrackPointExtension>
            <ns3:atemp>32.0</ns3:atemp>
            <ns3:hr>110</ns3:hr>
          </ns3:TrackPointExtension>
        </extensions>
      </trkpt>
      <trkpt lat="36.77936221472918987274169921875" lon="-118.5197827778756618499755859375">
        <ele>1989.800048828125</ele>
        <time>2021-06-24T18:56:10.000Z</time>
        <extensions>
          <ns3:TrackPointExtension>
            <ns3:atemp>32.0</ns3:atemp>
            <ns3:hr>110</ns3:hr>
          </ns3:TrackPointExtension>
        </extensions>
      </trkpt>
      <trkpt lat="36.7793688364326953887939453125" lon="-118.5197056643664836883544921875">
        <ele>1990</ele>
        <time>2021-06-24T18:56:15.000Z</time>
        <extensions>
          <ns3:TrackPointExtension>
            <ns3:atemp>32.0</ns3:atemp>
            <ns3:hr>109</ns3:hr>
          </ns3:TrackPointExtension>
        </extensions>
      </trkpt>
      <trkpt lat="36.77938132546842098236083984375" lon="-118.5196815244853496551513671875">
        <ele>1990.5999755859375</ele>
        <time>2021-06-24T18:56:18.000Z</time>
        <extensions>
          <ns3:TrackPointExtension>
            <ns3:atemp>32.0</ns3:atemp>
            <ns3:hr>112</ns3:hr>
          </ns3:TrackPointExtension>
        </extensions>
      </trkpt>
      <trkpt lat="36.779402196407318115234375" lon="-118.5196486674249172210693359375">
        <ele>1991</ele>
        <time>2021-06-24T18:56:23.000Z</time>
        <extensions>
          <ns3:TrackPointExtension>
            <ns3:atemp>32.0</ns3:atemp>
            <ns3:hr>112</ns3:hr>
          </ns3:TrackPointExtension>
        </extensions>
      </trkpt>
      <trkpt lat="36.77941552363336086273193359375" lon="-118.51961396634578704833984375">
        <ele>1991.800048828125</ele>
        <time>2021-06-24T18:56:27.000Z</time>
        <extensions>
          <ns3:TrackPointExtension>
            <ns3:atemp>32.0</ns3:atemp>
            <ns3:hr>113</ns3:hr>
          </ns3:TrackPointExtension>
        </extensions>
      </trkpt>
      <trkpt lat="36.7794154398143291473388671875" lon="-118.51959443651139736175537109375">
        <ele>1992.199951171875</ele>
        <time>2021-06-24T18:56:29.000Z</time>
        <extensions>
          <ns3:TrackPointExtension>
            <ns3:atemp>32.0</ns3:atemp>
            <ns3:hr>115</ns3:hr>
          </ns3:TrackPointExtension>
        </extensions>
      </trkpt>
      <trkpt lat="36.77941703237593173980712890625" lon="-118.5195668600499629974365234375">
        <ele>1992.5999755859375</ele>
        <time>2021-06-24T18:56:33.000Z</time>
        <extensions>
          <ns3:TrackPointExtension>
            <ns3:atemp>32.0</ns3:atemp>
            <ns3:hr>114</ns3:hr>
          </ns3:TrackPointExtension>
        </extensions>
      </trkpt>
      <trkpt lat="36.7794211395084857940673828125" lon="-118.51954682730138301849365234375">
        <ele>1993</ele>
        <time>2021-06-24T18:56:35.000Z</time>
        <extensions>
          <ns3:TrackPointExtension>
            <ns3:atemp>32.0</ns3:atemp>
            <ns3:hr>114</ns3:hr>
          </ns3:TrackPointExtension>
        </extensions>
      </trkpt>
      <trkpt lat="36.7794238217175006866455078125" lon="-118.51953509263694286346435546875">
        <ele>1993.199951171875</ele>
        <time>2021-06-24T18:56:37.000Z</time>
        <extensions>
          <ns3:TrackPointExtension>
            <ns3:atemp>32.0</ns3:atemp>
            <ns3:hr>116</ns3:hr>
          </ns3:TrackPointExtension>
        </extensions>
      </trkpt>
      <trkpt lat="36.77943103015422821044921875" lon="-118.51952536962926387786865234375">
        <ele>1993.199951171875</ele>
        <time>2021-06-24T18:56:38.000Z</time>
        <extensions>
          <ns3:TrackPointExtension>
            <ns3:atemp>32.0</ns3:atemp>
            <ns3:hr>116</ns3:hr>
          </ns3:TrackPointExtension>
        </extensions>
      </trkpt>
      <trkpt lat="36.77942030131816864013671875" lon="-118.5194880701601505279541015625">
        <ele>1993.5999755859375</ele>
        <time>2021-06-24T18:56:41.000Z</time>
        <extensions>
          <ns3:TrackPointExtension>
            <ns3:atemp>32.0</ns3:atemp>
            <ns3:hr>117</ns3:hr>
          </ns3:TrackPointExtension>
        </extensions>
      </trkpt>
      <trkpt lat="36.7794211395084857940673828125" lon="-118.51944808848202228546142578125">
        <ele>1993.5999755859375</ele>
        <time>2021-06-24T18:56:45.000Z</time>
        <extensions>
          <ns3:TrackPointExtension>
            <ns3:atemp>32.0</ns3:atemp>
            <ns3:hr>116</ns3:hr>
          </ns3:TrackPointExtension>
        </extensions>
      </trkpt>
      <trkpt lat="36.7794151045382022857666015625" lon="-118.5194280557334423065185546875">
        <ele>1994</ele>
        <time>2021-06-24T18:56:47.000Z</time>
        <extensions>
          <ns3:TrackPointExtension>
            <ns3:atemp>32.0</ns3:atemp>
            <ns3:hr>118</ns3:hr>
          </ns3:TrackPointExtension>
        </extensions>
      </trkpt>
      <trkpt lat="36.779407896101474761962890625" lon="-118.51940936408936977386474609375">
        <ele>1994.5999755859375</ele>
        <time>2021-06-24T18:56:51.000Z</time>
        <extensions>
          <ns3:TrackPointExtension>
            <ns3:atemp>32.0</ns3:atemp>
            <ns3:hr>116</ns3:hr>
          </ns3:TrackPointExtension>
        </extensions>
      </trkpt>
      <trkpt lat="36.77940747700631618499755859375" lon="-118.519386313855648040771484375">
        <ele>1995.199951171875</ele>
        <time>2021-06-24T18:56:53.000Z</time>
        <extensions>
          <ns3:TrackPointExtension>
            <ns3:atemp>32.0</ns3:atemp>
            <ns3:hr>116</ns3:hr>
          </ns3:TrackPointExtension>
        </extensions>
      </trkpt>
      <trkpt lat="36.77939884364604949951171875" lon="-118.5193316638469696044921875">
        <ele>1995.5999755859375</ele>
        <time>2021-06-24T18:56:58.000Z</time>
        <extensions>
          <ns3:TrackPointExtension>
            <ns3:atemp>32.0</ns3:atemp>
            <ns3:hr>115</ns3:hr>
          </ns3:TrackPointExtension>
        </extensions>
      </trkpt>
      <trkpt lat="36.779386438429355621337890625" lon="-118.51926435716450214385986328125">
        <ele>1995.5999755859375</ele>
        <time>2021-06-24T18:57:03.000Z</time>
        <extensions>
          <ns3:TrackPointExtension>
            <ns3:atemp>32.0</ns3:atemp>
            <ns3:hr>114</ns3:hr>
          </ns3:TrackPointExtension>
        </extensions>
      </trkpt>
      <trkpt lat="36.779370009899139404296875" lon="-118.519241474568843841552734375">
        <ele>1995.5999755859375</ele>
        <time>2021-06-24T18:57:05.000Z</time>
        <extensions>
          <ns3:TrackPointExtension>
            <ns3:atemp>32.0</ns3:atemp>
            <ns3:hr>111</ns3:hr>
          </ns3:TrackPointExtension>
        </extensions>
      </trkpt>
      <trkpt lat="36.77935685031116008758544921875" lon="-118.51918539963662624359130859375">
        <ele>1996</ele>
        <time>2021-06-24T18:57:10.000Z</time>
        <extensions>
          <ns3:TrackPointExtension>
            <ns3:atemp>32.0</ns3:atemp>
            <ns3:hr>114</ns3:hr>
          </ns3:TrackPointExtension>
        </extensions>
      </trkpt>
      <trkpt lat="36.77935483865439891815185546875" lon="-118.5191734135150909423828125">
        <ele>1996</ele>
        <time>2021-06-24T18:57:11.000Z</time>
        <extensions>
          <ns3:TrackPointExtension>
            <ns3:atemp>32.0</ns3:atemp>
            <ns3:hr>117</ns3:hr>
          </ns3:TrackPointExtension>
        </extensions>
      </trkpt>
      <trkpt lat="36.7793514020740985870361328125" lon="-118.5191635228693485260009765625">
        <ele>1996</ele>
        <time>2021-06-24T18:57:12.000Z</time>
        <extensions>
          <ns3:TrackPointExtension>
            <ns3:atemp>32.0</ns3:atemp>
            <ns3:hr>120</ns3:hr>
          </ns3:TrackPointExtension>
        </extensions>
      </trkpt>
      <trkpt lat="36.77934478037059307098388671875" lon="-118.51915455423295497894287109375">
        <ele>1996</ele>
        <time>2021-06-24T18:57:13.000Z</time>
        <extensions>
          <ns3:TrackPointExtension>
            <ns3:atemp>32.0</ns3:atemp>
            <ns3:hr>122</ns3:hr>
          </ns3:TrackPointExtension>
        </extensions>
      </trkpt>
      <trkpt lat="36.779338158667087554931640625" lon="-118.51910241879522800445556640625">
        <ele>1995.800048828125</ele>
        <time>2021-06-24T18:57:18.000Z</time>
        <extensions>
          <ns3:TrackPointExtension>
            <ns3:atemp>32.0</ns3:atemp>
            <ns3:hr>119</ns3:hr>
          </ns3:TrackPointExtension>
        </extensions>
      </trkpt>
      <trkpt lat="36.7793403379619121551513671875" lon="-118.5190763510763645172119140625">
        <ele>1995.800048828125</ele>
        <time>2021-06-24T18:57:20.000Z</time>
        <extensions>
          <ns3:TrackPointExtension>
            <ns3:atemp>32.0</ns3:atemp>
            <ns3:hr>115</ns3:hr>
          </ns3:TrackPointExtension>
        </extensions>
      </trkpt>
      <trkpt lat="36.77933874540030956268310546875" lon="-118.5190662927925586700439453125">
        <ele>1996</ele>
        <time>2021-06-24T18:57:21.000Z</time>
        <extensions>
          <ns3:TrackPointExtension>
            <ns3:atemp>32.0</ns3:atemp>
            <ns3:hr>112</ns3:hr>
          </ns3:TrackPointExtension>
        </extensions>
      </trkpt>
      <trkpt lat="36.7793369852006435394287109375" lon="-118.51905548013746738433837890625">
        <ele>1996.199951171875</ele>
        <time>2021-06-24T18:57:22.000Z</time>
        <extensions>
          <ns3:TrackPointExtension>
            <ns3:atemp>32.0</ns3:atemp>
            <ns3:hr>109</ns3:hr>
          </ns3:TrackPointExtension>
        </extensions>
      </trkpt>
      <trkpt lat="36.77933857776224613189697265625" lon="-118.51904139854013919830322265625">
        <ele>1996.800048828125</ele>
        <time>2021-06-24T18:57:24.000Z</time>
        <extensions>
          <ns3:TrackPointExtension>
            <ns3:atemp>32.0</ns3:atemp>
            <ns3:hr>105</ns3:hr>
          </ns3:TrackPointExtension>
        </extensions>
      </trkpt>
      <trkpt lat="36.7793336324393749237060546875" lon="-118.5190384648740291595458984375">
        <ele>1996.800048828125</ele>
        <time>2021-06-24T18:57:25.000Z</time>
        <extensions>
          <ns3:TrackPointExtension>
            <ns3:atemp>32.0</ns3:atemp>
            <ns3:hr>104</ns3:hr>
          </ns3:TrackPointExtension>
        </extensions>
      </trkpt>
      <trkpt lat="36.77933388389647006988525390625" lon="-118.519036285579204559326171875">
        <ele>1996.800048828125</ele>
        <time>2021-06-24T18:57:26.000Z</time>
        <extensions>
          <ns3:TrackPointExtension>
            <ns3:atemp>32.0</ns3:atemp>
            <ns3:hr>102</ns3:hr>
          </ns3:TrackPointExtension>
        </extensions>
      </trkpt>
      <trkpt lat="36.77933187223970890045166015625" lon="-118.51903058588504791259765625">
        <ele>1997</ele>
        <time>2021-06-24T18:57:27.000Z</time>
        <extensions>
          <ns3:TrackPointExtension>
            <ns3:atemp>32.0</ns3:atemp>
            <ns3:hr>102</ns3:hr>
          </ns3:TrackPointExtension>
        </extensions>
      </trkpt>
      <trkpt lat="36.77930722944438457489013671875" lon="-118.5189938731491565704345703125">
        <ele>1997.199951171875</ele>
        <time>2021-06-24T18:57:31.000Z</time>
        <extensions>
          <ns3:TrackPointExtension>
            <ns3:atemp>32.0</ns3:atemp>
            <ns3:hr>100</ns3:hr>
          </ns3:TrackPointExtension>
        </extensions>
      </trkpt>
      <trkpt lat="36.77929800935089588165283203125" lon="-118.51896763779222965240478515625">
        <ele>1997.199951171875</ele>
        <time>2021-06-24T18:57:33.000Z</time>
        <extensions>
          <ns3:TrackPointExtension>
            <ns3:atemp>32.0</ns3:atemp>
            <ns3:hr>99</ns3:hr>
          </ns3:TrackPointExtension>
        </extensions>
      </trkpt>
      <trkpt lat="36.7793007753789424896240234375" lon="-118.51894433610141277313232421875">
        <ele>1997.199951171875</ele>
        <time>2021-06-24T18:57:35.000Z</time>
        <extensions>
          <ns3:TrackPointExtension>
            <ns3:atemp>32.0</ns3:atemp>
            <ns3:hr>99</ns3:hr>
          </ns3:TrackPointExtension>
        </extensions>
      </trkpt>
      <trkpt lat="36.77930404432117938995361328125" lon="-118.51893763057887554168701171875">
        <ele>1997.4000244140625</ele>
        <time>2021-06-24T18:57:36.000Z</time>
        <extensions>
          <ns3:TrackPointExtension>
            <ns3:atemp>32.0</ns3:atemp>
            <ns3:hr>99</ns3:hr>
          </ns3:TrackPointExtension>
        </extensions>
      </trkpt>
      <trkpt lat="36.77929884754121303558349609375" lon="-118.51892597973346710205078125">
        <ele>1997.4000244140625</ele>
        <time>2021-06-24T18:57:38.000Z</time>
        <extensions>
          <ns3:TrackPointExtension>
            <ns3:atemp>32.0</ns3:atemp>
            <ns3:hr>96</ns3:hr>
          </ns3:TrackPointExtension>
        </extensions>
      </trkpt>
      <trkpt lat="36.7793034575879573822021484375" lon="-118.51889253593981266021728515625">
        <ele>1997.5999755859375</ele>
        <time>2021-06-24T18:57:40.000Z</time>
        <extensions>
          <ns3:TrackPointExtension>
            <ns3:atemp>32.0</ns3:atemp>
            <ns3:hr>95</ns3:hr>
          </ns3:TrackPointExtension>
        </extensions>
      </trkpt>
      <trkpt lat="36.779299937188625335693359375" lon="-118.5188453458249568939208984375">
        <ele>1998</ele>
        <time>2021-06-24T18:57:45.000Z</time>
        <extensions>
          <ns3:TrackPointExtension>
            <ns3:atemp>32.0</ns3:atemp>
            <ns3:hr>93</ns3:hr>
          </ns3:TrackPointExtension>
        </extensions>
      </trkpt>
      <trkpt lat="36.77930773235857486724853515625" lon="-118.51883553899824619293212890625">
        <ele>1998.199951171875</ele>
        <time>2021-06-24T18:57:46.000Z</time>
        <extensions>
          <ns3:TrackPointExtension>
            <ns3:atemp>32.0</ns3:atemp>
            <ns3:hr>93</ns3:hr>
          </ns3:TrackPointExtension>
        </extensions>
      </trkpt>
      <trkpt lat="36.77931443788111209869384765625" lon="-118.51882011629641056060791015625">
        <ele>1998.199951171875</ele>
        <time>2021-06-24T18:57:47.000Z</time>
        <extensions>
          <ns3:TrackPointExtension>
            <ns3:atemp>32.0</ns3:atemp>
            <ns3:hr>93</ns3:hr>
          </ns3:TrackPointExtension>
        </extensions>
      </trkpt>
      <trkpt lat="36.779313348233699798583984375" lon="-118.51878114044666290283203125">
        <ele>1998</ele>
        <time>2021-06-24T18:57:49.000Z</time>
        <extensions>
          <ns3:TrackPointExtension>
            <ns3:atemp>32.0</ns3:atemp>
            <ns3:hr>93</ns3:hr>
          </ns3:TrackPointExtension>
        </extensions>
      </trkpt>
      <trkpt lat="36.77929851226508617401123046875" lon="-118.51870645768940448760986328125">
        <ele>1997.4000244140625</ele>
        <time>2021-06-24T18:57:54.000Z</time>
        <extensions>
          <ns3:TrackPointExtension>
            <ns3:atemp>32.0</ns3:atemp>
            <ns3:hr>92</ns3:hr>
          </ns3:TrackPointExtension>
        </extensions>
      </trkpt>
      <trkpt lat="36.779289878904819488525390625" lon="-118.51866580545902252197265625">
        <ele>1997</ele>
        <time>2021-06-24T18:57:57.000Z</time>
        <extensions>
          <ns3:TrackPointExtension>
            <ns3:atemp>32.0</ns3:atemp>
            <ns3:hr>89</ns3:hr>
          </ns3:TrackPointExtension>
        </extensions>
      </trkpt>
      <trkpt lat="36.7792890407145023345947265625" lon="-118.51865381933748722076416015625">
        <ele>1997</ele>
        <time>2021-06-24T18:57:58.000Z</time>
        <extensions>
          <ns3:TrackPointExtension>
            <ns3:atemp>32.0</ns3:atemp>
            <ns3:hr>92</ns3:hr>
          </ns3:TrackPointExtension>
        </extensions>
      </trkpt>
      <trkpt lat="36.7792887054383754730224609375" lon="-118.5186478681862354278564453125">
        <ele>1997</ele>
        <time>2021-06-24T18:57:59.000Z</time>
        <extensions>
          <ns3:TrackPointExtension>
            <ns3:atemp>32.0</ns3:atemp>
            <ns3:hr>89</ns3:hr>
          </ns3:TrackPointExtension>
        </extensions>
      </trkpt>
      <trkpt lat="36.779291220009326934814453125" lon="-118.5186391510069370269775390625">
        <ele>1997.199951171875</ele>
        <time>2021-06-24T18:58:00.000Z</time>
        <extensions>
          <ns3:TrackPointExtension>
            <ns3:atemp>32.0</ns3:atemp>
            <ns3:hr>90</ns3:hr>
          </ns3:TrackPointExtension>
        </extensions>
      </trkpt>
      <trkpt lat="36.7793054692447185516357421875" lon="-118.51860570721328258514404296875">
        <ele>1997.4000244140625</ele>
        <time>2021-06-24T18:58:03.000Z</time>
        <extensions>
          <ns3:TrackPointExtension>
            <ns3:atemp>32.0</ns3:atemp>
            <ns3:hr>92</ns3:hr>
          </ns3:TrackPointExtension>
        </extensions>
      </trkpt>
      <trkpt lat="36.7793071456253528594970703125" lon="-118.51857192814350128173828125">
        <ele>1998</ele>
        <time>2021-06-24T18:58:06.000Z</time>
        <extensions>
          <ns3:TrackPointExtension>
            <ns3:atemp>32.0</ns3:atemp>
            <ns3:hr>95</ns3:hr>
          </ns3:TrackPointExtension>
        </extensions>
      </trkpt>
      <trkpt lat="36.7792880348861217498779296875" lon="-118.51854938082396984100341796875">
        <ele>1997.5999755859375</ele>
        <time>2021-06-24T18:58:08.000Z</time>
        <extensions>
          <ns3:TrackPointExtension>
            <ns3:atemp>32.0</ns3:atemp>
            <ns3:hr>98</ns3:hr>
          </ns3:TrackPointExtension>
        </extensions>
      </trkpt>
      <trkpt lat="36.7792783118784427642822265625" lon="-118.51854049600660800933837890625">
        <ele>1997.5999755859375</ele>
        <time>2021-06-24T18:58:09.000Z</time>
        <extensions>
          <ns3:TrackPointExtension>
            <ns3:atemp>32.0</ns3:atemp>
            <ns3:hr>100</ns3:hr>
          </ns3:TrackPointExtension>
        </extensions>
      </trkpt>
      <trkpt lat="36.77926632575690746307373046875" lon="-118.518512248992919921875">
        <ele>1997.4000244140625</ele>
        <time>2021-06-24T18:58:12.000Z</time>
        <extensions>
          <ns3:TrackPointExtension>
            <ns3:atemp>32.0</ns3:atemp>
            <ns3:hr>100</ns3:hr>
          </ns3:TrackPointExtension>
        </extensions>
      </trkpt>
      <trkpt lat="36.7792642302811145782470703125" lon="-118.51848232559859752655029296875">
        <ele>1996.4000244140625</ele>
        <time>2021-06-24T18:58:14.000Z</time>
        <extensions>
          <ns3:TrackPointExtension>
            <ns3:atemp>32.0</ns3:atemp>
            <ns3:hr>100</ns3:hr>
          </ns3:TrackPointExtension>
        </extensions>
      </trkpt>
      <trkpt lat="36.77925023250281810760498046875" lon="-118.51846321485936641693115234375">
        <ele>1996.199951171875</ele>
        <time>2021-06-24T18:58:16.000Z</time>
        <extensions>
          <ns3:TrackPointExtension>
            <ns3:atemp>32.0</ns3:atemp>
            <ns3:hr>101</ns3:hr>
          </ns3:TrackPointExtension>
        </extensions>
      </trkpt>
      <trkpt lat="36.77923195995390415191650390625" lon="-118.51842868141829967498779296875">
        <ele>1995.4000244140625</ele>
        <time>2021-06-24T18:58:20.000Z</time>
        <extensions>
          <ns3:TrackPointExtension>
            <ns3:atemp>32.0</ns3:atemp>
            <ns3:hr>102</ns3:hr>
          </ns3:TrackPointExtension>
        </extensions>
      </trkpt>
      <trkpt lat="36.77922743372619152069091796875" lon="-118.51841493509709835052490234375">
        <ele>1995.199951171875</ele>
        <time>2021-06-24T18:58:21.000Z</time>
        <extensions>
          <ns3:TrackPointExtension>
            <ns3:atemp>32.0</ns3:atemp>
            <ns3:hr>101</ns3:hr>
          </ns3:TrackPointExtension>
        </extensions>
      </trkpt>
      <trkpt lat="36.77922760136425495147705078125" lon="-118.518404625356197357177734375">
        <ele>1995</ele>
        <time>2021-06-24T18:58:22.000Z</time>
        <extensions>
          <ns3:TrackPointExtension>
            <ns3:atemp>32.0</ns3:atemp>
            <ns3:hr>100</ns3:hr>
          </ns3:TrackPointExtension>
        </extensions>
      </trkpt>
      <trkpt lat="36.77922718226909637451171875" lon="-118.518391549587249755859375">
        <ele>1994.4000244140625</ele>
        <time>2021-06-24T18:58:23.000Z</time>
        <extensions>
          <ns3:TrackPointExtension>
            <ns3:atemp>32.0</ns3:atemp>
            <ns3:hr>99</ns3:hr>
          </ns3:TrackPointExtension>
        </extensions>
      </trkpt>
      <trkpt lat="36.77919122390449047088623046875" lon="-118.51835542358458042144775390625">
        <ele>1994</ele>
        <time>2021-06-24T18:58:27.000Z</time>
        <extensions>
          <ns3:TrackPointExtension>
            <ns3:atemp>32.0</ns3:atemp>
            <ns3:hr>96</ns3:hr>
          </ns3:TrackPointExtension>
        </extensions>
      </trkpt>
      <trkpt lat="36.779192648828029632568359375" lon="-118.51834737695753574371337890625">
        <ele>1994</ele>
        <time>2021-06-24T18:58:28.000Z</time>
        <extensions>
          <ns3:TrackPointExtension>
            <ns3:atemp>32.0</ns3:atemp>
            <ns3:hr>96</ns3:hr>
          </ns3:TrackPointExtension>
        </extensions>
      </trkpt>
      <trkpt lat="36.7791918106377124786376953125" lon="-118.51833949796855449676513671875">
        <ele>1993.800048828125</ele>
        <time>2021-06-24T18:58:29.000Z</time>
        <extensions>
          <ns3:TrackPointExtension>
            <ns3:atemp>32.0</ns3:atemp>
            <ns3:hr>96</ns3:hr>
          </ns3:TrackPointExtension>
        </extensions>
      </trkpt>
      <trkpt lat="36.779189296066761016845703125" lon="-118.518293313682079315185546875">
        <ele>1993.800048828125</ele>
        <time>2021-06-24T18:58:33.000Z</time>
        <extensions>
          <ns3:TrackPointExtension>
            <ns3:atemp>32.0</ns3:atemp>
            <ns3:hr>99</ns3:hr>
          </ns3:TrackPointExtension>
        </extensions>
      </trkpt>
      <trkpt lat="36.779190637171268463134765625" lon="-118.51828333921730518341064453125">
        <ele>1994.199951171875</ele>
        <time>2021-06-24T18:58:35.000Z</time>
        <extensions>
          <ns3:TrackPointExtension>
            <ns3:atemp>32.0</ns3:atemp>
            <ns3:hr>100</ns3:hr>
          </ns3:TrackPointExtension>
        </extensions>
      </trkpt>
      <trkpt lat="36.77919893525540828704833984375" lon="-118.51826540194451808929443359375">
        <ele>1994.4000244140625</ele>
        <time>2021-06-24T18:58:39.000Z</time>
        <extensions>
          <ns3:TrackPointExtension>
            <ns3:atemp>32.0</ns3:atemp>
            <ns3:hr>97</ns3:hr>
          </ns3:TrackPointExtension>
        </extensions>
      </trkpt>
      <trkpt lat="36.77919407375156879425048828125" lon="-118.51823740638792514801025390625">
        <ele>1994.4000244140625</ele>
        <time>2021-06-24T18:58:41.000Z</time>
        <extensions>
          <ns3:TrackPointExtension>
            <ns3:atemp>32.0</ns3:atemp>
            <ns3:hr>94</ns3:hr>
          </ns3:TrackPointExtension>
        </extensions>
      </trkpt>
      <trkpt lat="36.77918292582035064697265625" lon="-118.5182153619825839996337890625">
        <ele>1994.5999755859375</ele>
        <time>2021-06-24T18:58:43.000Z</time>
        <extensions>
          <ns3:TrackPointExtension>
            <ns3:atemp>32.0</ns3:atemp>
            <ns3:hr>91</ns3:hr>
          </ns3:TrackPointExtension>
        </extensions>
      </trkpt>
      <trkpt lat="36.7791810818016529083251953125" lon="-118.51819935254752635955810546875">
        <ele>1995</ele>
        <time>2021-06-24T18:58:45.000Z</time>
        <extensions>
          <ns3:TrackPointExtension>
            <ns3:atemp>32.0</ns3:atemp>
            <ns3:hr>90</ns3:hr>
          </ns3:TrackPointExtension>
        </extensions>
      </trkpt>
      <trkpt lat="36.77918468602001667022705078125" lon="-118.51819373667240142822265625">
        <ele>1995</ele>
        <time>2021-06-24T18:58:46.000Z</time>
        <extensions>
          <ns3:TrackPointExtension>
            <ns3:atemp>32.0</ns3:atemp>
            <ns3:hr>87</ns3:hr>
          </ns3:TrackPointExtension>
        </extensions>
      </trkpt>
      <trkpt lat="36.77919021807610988616943359375" lon="-118.5181932337582111358642578125">
        <ele>1995.199951171875</ele>
        <time>2021-06-24T18:58:47.000Z</time>
        <extensions>
          <ns3:TrackPointExtension>
            <ns3:atemp>32.0</ns3:atemp>
            <ns3:hr>90</ns3:hr>
          </ns3:TrackPointExtension>
        </extensions>
      </trkpt>
      <trkpt lat="36.77919566631317138671875" lon="-118.51818577386438846588134765625">
        <ele>1995.199951171875</ele>
        <time>2021-06-24T18:58:48.000Z</time>
        <extensions>
          <ns3:TrackPointExtension>
            <ns3:atemp>32.0</ns3:atemp>
            <ns3:hr>90</ns3:hr>
          </ns3:TrackPointExtension>
        </extensions>
      </trkpt>
      <trkpt lat="36.77919792942702770233154296875" lon="-118.51812358014285564422607421875">
        <ele>1995.800048828125</ele>
        <time>2021-06-24T18:58:53.000Z</time>
        <extensions>
          <ns3:TrackPointExtension>
            <ns3:atemp>32.0</ns3:atemp>
            <ns3:hr>88</ns3:hr>
          </ns3:TrackPointExtension>
        </extensions>
      </trkpt>
      <trkpt lat="36.77920077927410602569580078125" lon="-118.5181110911071300506591796875">
        <ele>1995.800048828125</ele>
        <time>2021-06-24T18:58:54.000Z</time>
        <extensions>
          <ns3:TrackPointExtension>
            <ns3:atemp>32.0</ns3:atemp>
            <ns3:hr>88</ns3:hr>
          </ns3:TrackPointExtension>
        </extensions>
      </trkpt>
      <trkpt lat="36.77916155196726322174072265625" lon="-118.5180195607244968414306640625">
        <ele>1995.800048828125</ele>
        <time>2021-06-24T18:59:00.000Z</time>
        <extensions>
          <ns3:TrackPointExtension>
            <ns3:atemp>32.0</ns3:atemp>
            <ns3:hr>90</ns3:hr>
          </ns3:TrackPointExtension>
        </extensions>
      </trkpt>
      <trkpt lat="36.77912433631718158721923828125" lon="-118.51793649606406688690185546875">
        <ele>1995.5999755859375</ele>
        <time>2021-06-24T18:59:07.000Z</time>
        <extensions>
          <ns3:TrackPointExtension>
            <ns3:atemp>32.0</ns3:atemp>
            <ns3:hr>90</ns3:hr>
          </ns3:TrackPointExtension>
        </extensions>
      </trkpt>
      <trkpt lat="36.77911964245140552520751953125" lon="-118.517923168838024139404296875">
        <ele>1995.5999755859375</ele>
        <time>2021-06-24T18:59:08.000Z</time>
        <extensions>
          <ns3:TrackPointExtension>
            <ns3:atemp>32.0</ns3:atemp>
            <ns3:hr>90</ns3:hr>
          </ns3:TrackPointExtension>
        </extensions>
      </trkpt>
      <trkpt lat="36.7791150324046611785888671875" lon="-118.5178948380053043365478515625">
        <ele>1995.199951171875</ele>
        <time>2021-06-24T18:59:10.000Z</time>
        <extensions>
          <ns3:TrackPointExtension>
            <ns3:atemp>32.0</ns3:atemp>
            <ns3:hr>91</ns3:hr>
          </ns3:TrackPointExtension>
        </extensions>
      </trkpt>
      <trkpt lat="36.7791059799492359161376953125" lon="-118.5178747214376926422119140625">
        <ele>1995.4000244140625</ele>
        <time>2021-06-24T18:59:12.000Z</time>
        <extensions>
          <ns3:TrackPointExtension>
            <ns3:atemp>32.0</ns3:atemp>
            <ns3:hr>92</ns3:hr>
          </ns3:TrackPointExtension>
        </extensions>
      </trkpt>
      <trkpt lat="36.7791012860834598541259765625" lon="-118.51785502396523952484130859375">
        <ele>1995.4000244140625</ele>
        <time>2021-06-24T18:59:14.000Z</time>
        <extensions>
          <ns3:TrackPointExtension>
            <ns3:atemp>32.0</ns3:atemp>
            <ns3:hr>92</ns3:hr>
          </ns3:TrackPointExtension>
        </extensions>
      </trkpt>
      <trkpt lat="36.7790929041802883148193359375" lon="-118.517803810536861419677734375">
        <ele>1995.4000244140625</ele>
        <time>2021-06-24T18:59:18.000Z</time>
        <extensions>
          <ns3:TrackPointExtension>
            <ns3:atemp>32.0</ns3:atemp>
            <ns3:hr>91</ns3:hr>
          </ns3:TrackPointExtension>
        </extensions>
      </trkpt>
      <trkpt lat="36.77908410318195819854736328125" lon="-118.517794422805309295654296875">
        <ele>1995.4000244140625</ele>
        <time>2021-06-24T18:59:19.000Z</time>
        <extensions>
          <ns3:TrackPointExtension>
            <ns3:atemp>32.0</ns3:atemp>
            <ns3:hr>91</ns3:hr>
          </ns3:TrackPointExtension>
        </extensions>
      </trkpt>
      <trkpt lat="36.7790789902210235595703125" lon="-118.51778746582567691802978515625">
        <ele>1995.5999755859375</ele>
        <time>2021-06-24T18:59:20.000Z</time>
        <extensions>
          <ns3:TrackPointExtension>
            <ns3:atemp>32.0</ns3:atemp>
            <ns3:hr>88</ns3:hr>
          </ns3:TrackPointExtension>
        </extensions>
      </trkpt>
      <trkpt lat="36.7790711112320423126220703125" lon="-118.5177697800099849700927734375">
        <ele>1996.199951171875</ele>
        <time>2021-06-24T18:59:22.000Z</time>
        <extensions>
          <ns3:TrackPointExtension>
            <ns3:atemp>32.0</ns3:atemp>
            <ns3:hr>90</ns3:hr>
          </ns3:TrackPointExtension>
        </extensions>
      </trkpt>
      <trkpt lat="36.77906918339431285858154296875" lon="-118.517760224640369415283203125">
        <ele>1996.199951171875</ele>
        <time>2021-06-24T18:59:23.000Z</time>
        <extensions>
          <ns3:TrackPointExtension>
            <ns3:atemp>32.0</ns3:atemp>
            <ns3:hr>87</ns3:hr>
          </ns3:TrackPointExtension>
        </extensions>
      </trkpt>
      <trkpt lat="36.77906951867043972015380859375" lon="-118.51774790324270725250244140625">
        <ele>1996.4000244140625</ele>
        <time>2021-06-24T18:59:24.000Z</time>
        <extensions>
          <ns3:TrackPointExtension>
            <ns3:atemp>32.0</ns3:atemp>
            <ns3:hr>90</ns3:hr>
          </ns3:TrackPointExtension>
        </extensions>
      </trkpt>
      <trkpt lat="36.77905929274857044219970703125" lon="-118.51769845001399517059326171875">
        <ele>1997</ele>
        <time>2021-06-24T18:59:27.000Z</time>
        <extensions>
          <ns3:TrackPointExtension>
            <ns3:atemp>32.0</ns3:atemp>
            <ns3:hr>88</ns3:hr>
          </ns3:TrackPointExtension>
        </extensions>
      </trkpt>
      <trkpt lat="36.77904621697962284088134765625" lon="-118.517690487205982208251953125">
        <ele>1997</ele>
        <time>2021-06-24T18:59:28.000Z</time>
        <extensions>
          <ns3:TrackPointExtension>
            <ns3:atemp>32.0</ns3:atemp>
            <ns3:hr>90</ns3:hr>
          </ns3:TrackPointExtension>
        </extensions>
      </trkpt>
      <trkpt lat="36.7790355719625949859619140625" lon="-118.51768202148377895355224609375">
        <ele>1997.199951171875</ele>
        <time>2021-06-24T18:59:29.000Z</time>
        <extensions>
          <ns3:TrackPointExtension>
            <ns3:atemp>32.0</ns3:atemp>
            <ns3:hr>88</ns3:hr>
          </ns3:TrackPointExtension>
        </extensions>
      </trkpt>
      <trkpt lat="36.7790241725742816925048828125" lon="-118.51766358129680156707763671875">
        <ele>1997.4000244140625</ele>
        <time>2021-06-24T18:59:31.000Z</time>
        <extensions>
          <ns3:TrackPointExtension>
            <ns3:atemp>32.0</ns3:atemp>
            <ns3:hr>91</ns3:hr>
          </ns3:TrackPointExtension>
        </extensions>
      </trkpt>
      <trkpt lat="36.77902199327945709228515625" lon="-118.51764480583369731903076171875">
        <ele>1997.800048828125</ele>
        <time>2021-06-24T18:59:33.000Z</time>
        <extensions>
          <ns3:TrackPointExtension>
            <ns3:atemp>32.0</ns3:atemp>
            <ns3:hr>94</ns3:hr>
          </ns3:TrackPointExtension>
        </extensions>
      </trkpt>
      <trkpt lat="36.779016964137554168701171875" lon="-118.5176189057528972625732421875">
        <ele>1998</ele>
        <time>2021-06-24T18:59:35.000Z</time>
        <extensions>
          <ns3:TrackPointExtension>
            <ns3:atemp>32.0</ns3:atemp>
            <ns3:hr>97</ns3:hr>
          </ns3:TrackPointExtension>
        </extensions>
      </trkpt>
      <trkpt lat="36.779010258615016937255859375" lon="-118.5175887309014797210693359375">
        <ele>1998.4000244140625</ele>
        <time>2021-06-24T18:59:38.000Z</time>
        <extensions>
          <ns3:TrackPointExtension>
            <ns3:atemp>32.0</ns3:atemp>
            <ns3:hr>97</ns3:hr>
          </ns3:TrackPointExtension>
        </extensions>
      </trkpt>
      <trkpt lat="36.7790043912827968597412109375" lon="-118.5175552032887935638427734375">
        <ele>1998.800048828125</ele>
        <time>2021-06-24T18:59:41.000Z</time>
        <extensions>
          <ns3:TrackPointExtension>
            <ns3:atemp>32.0</ns3:atemp>
            <ns3:hr>100</ns3:hr>
          </ns3:TrackPointExtension>
        </extensions>
      </trkpt>
      <trkpt lat="36.77900313399732112884521484375" lon="-118.51754606701433658599853515625">
        <ele>1998.800048828125</ele>
        <time>2021-06-24T18:59:42.000Z</time>
        <extensions>
          <ns3:TrackPointExtension>
            <ns3:atemp>32.0</ns3:atemp>
            <ns3:hr>99</ns3:hr>
          </ns3:TrackPointExtension>
        </extensions>
      </trkpt>
      <trkpt lat="36.77898310124874114990234375" lon="-118.51751706562936305999755859375">
        <ele>1999.5999755859375</ele>
        <time>2021-06-24T18:59:46.000Z</time>
        <extensions>
          <ns3:TrackPointExtension>
            <ns3:atemp>32.0</ns3:atemp>
            <ns3:hr>99</ns3:hr>
          </ns3:TrackPointExtension>
        </extensions>
      </trkpt>
      <trkpt lat="36.77898352034389972686767578125" lon="-118.517503403127193450927734375">
        <ele>1999.800048828125</ele>
        <time>2021-06-24T18:59:48.000Z</time>
        <extensions>
          <ns3:TrackPointExtension>
            <ns3:atemp>32.0</ns3:atemp>
            <ns3:hr>99</ns3:hr>
          </ns3:TrackPointExtension>
        </extensions>
      </trkpt>
      <trkpt lat="36.7789795808494091033935546875" lon="-118.51746275089681148529052734375">
        <ele>2000</ele>
        <time>2021-06-24T18:59:52.000Z</time>
        <extensions>
          <ns3:TrackPointExtension>
            <ns3:atemp>32.0</ns3:atemp>
            <ns3:hr>101</ns3:hr>
          </ns3:TrackPointExtension>
        </extensions>
      </trkpt>
      <trkpt lat="36.77894948981702327728271484375" lon="-118.5174167342483997344970703125">
        <ele>2000</ele>
        <time>2021-06-24T18:59:57.000Z</time>
        <extensions>
          <ns3:TrackPointExtension>
            <ns3:atemp>32.0</ns3:atemp>
            <ns3:hr>107</ns3:hr>
          </ns3:TrackPointExtension>
        </extensions>
      </trkpt>
      <trkpt lat="36.77893775515258312225341796875" lon="-118.51739888079464435577392578125">
        <ele>2000</ele>
        <time>2021-06-24T18:59:59.000Z</time>
        <extensions>
          <ns3:TrackPointExtension>
            <ns3:atemp>32.0</ns3:atemp>
            <ns3:hr>107</ns3:hr>
          </ns3:TrackPointExtension>
        </extensions>
      </trkpt>
      <trkpt lat="36.77891931496560573577880859375" lon="-118.51737641729414463043212890625">
        <ele>1999.800048828125</ele>
        <time>2021-06-24T19:00:01.000Z</time>
        <extensions>
          <ns3:TrackPointExtension>
            <ns3:atemp>32.0</ns3:atemp>
            <ns3:hr>106</ns3:hr>
          </ns3:TrackPointExtension>
        </extensions>
      </trkpt>
      <trkpt lat="36.7789126932621002197265625" lon="-118.51736082695424556732177734375">
        <ele>1999.800048828125</ele>
        <time>2021-06-24T19:00:03.000Z</time>
        <extensions>
          <ns3:TrackPointExtension>
            <ns3:atemp>32.0</ns3:atemp>
            <ns3:hr>108</ns3:hr>
          </ns3:TrackPointExtension>
        </extensions>
      </trkpt>
      <trkpt lat="36.77889970131218433380126953125" lon="-118.51732495240867137908935546875">
        <ele>1999.800048828125</ele>
        <time>2021-06-24T19:00:06.000Z</time>
        <extensions>
          <ns3:TrackPointExtension>
            <ns3:atemp>32.0</ns3:atemp>
            <ns3:hr>107</ns3:hr>
          </ns3:TrackPointExtension>
        </extensions>
      </trkpt>
      <trkpt lat="36.77888880483806133270263671875" lon="-118.51730458438396453857421875">
        <ele>1999.800048828125</ele>
        <time>2021-06-24T19:00:08.000Z</time>
        <extensions>
          <ns3:TrackPointExtension>
            <ns3:atemp>32.0</ns3:atemp>
            <ns3:hr>107</ns3:hr>
          </ns3:TrackPointExtension>
        </extensions>
      </trkpt>
      <trkpt lat="36.77889031358063220977783203125" lon="-118.51727105677127838134765625">
        <ele>2000.199951171875</ele>
        <time>2021-06-24T19:00:11.000Z</time>
        <extensions>
          <ns3:TrackPointExtension>
            <ns3:atemp>32.0</ns3:atemp>
            <ns3:hr>104</ns3:hr>
          </ns3:TrackPointExtension>
        </extensions>
      </trkpt>
      <trkpt lat="36.7788684368133544921875" lon="-118.5172088630497455596923828125">
        <ele>2000.4000244140625</ele>
        <time>2021-06-24T19:00:16.000Z</time>
        <extensions>
          <ns3:TrackPointExtension>
            <ns3:atemp>32.0</ns3:atemp>
            <ns3:hr>104</ns3:hr>
          </ns3:TrackPointExtension>
        </extensions>
      </trkpt>
      <trkpt lat="36.77885695360600948333740234375" lon="-118.51719402708113193511962890625">
        <ele>2000</ele>
        <time>2021-06-24T19:00:19.000Z</time>
        <extensions>
          <ns3:TrackPointExtension>
            <ns3:atemp>32.0</ns3:atemp>
            <ns3:hr>105</ns3:hr>
          </ns3:TrackPointExtension>
        </extensions>
      </trkpt>
      <trkpt lat="36.7788592167198657989501953125" lon="-118.51717340759932994842529296875">
        <ele>2000</ele>
        <time>2021-06-24T19:00:21.000Z</time>
        <extensions>
          <ns3:TrackPointExtension>
            <ns3:atemp>32.0</ns3:atemp>
            <ns3:hr>106</ns3:hr>
          </ns3:TrackPointExtension>
        </extensions>
      </trkpt>
      <trkpt lat="36.7788528464734554290771484375" lon="-118.51714943535625934600830078125">
        <ele>2000</ele>
        <time>2021-06-24T19:00:23.000Z</time>
        <extensions>
          <ns3:TrackPointExtension>
            <ns3:atemp>32.0</ns3:atemp>
            <ns3:hr>103</ns3:hr>
          </ns3:TrackPointExtension>
        </extensions>
      </trkpt>
      <trkpt lat="36.77884689532220363616943359375" lon="-118.5171374492347240447998046875">
        <ele>2000</ele>
        <time>2021-06-24T19:00:24.000Z</time>
        <extensions>
          <ns3:TrackPointExtension>
            <ns3:atemp>32.0</ns3:atemp>
            <ns3:hr>105</ns3:hr>
          </ns3:TrackPointExtension>
        </extensions>
      </trkpt>
      <trkpt lat="36.778814792633056640625" lon="-118.51703728549182415008544921875">
        <ele>2000.4000244140625</ele>
        <time>2021-06-24T19:00:32.000Z</time>
        <extensions>
          <ns3:TrackPointExtension>
            <ns3:atemp>32.0</ns3:atemp>
            <ns3:hr>102</ns3:hr>
          </ns3:TrackPointExtension>
        </extensions>
      </trkpt>
      <trkpt lat="36.77880532108247280120849609375" lon="-118.51700015366077423095703125">
        <ele>2000.5999755859375</ele>
        <time>2021-06-24T19:00:34.000Z</time>
        <extensions>
          <ns3:TrackPointExtension>
            <ns3:atemp>32.0</ns3:atemp>
            <ns3:hr>103</ns3:hr>
          </ns3:TrackPointExtension>
        </extensions>
      </trkpt>
      <trkpt lat="36.77880750037729740142822265625" lon="-118.516982384026050567626953125">
        <ele>2000.4000244140625</ele>
        <time>2021-06-24T19:00:35.000Z</time>
        <extensions>
          <ns3:TrackPointExtension>
            <ns3:atemp>32.0</ns3:atemp>
            <ns3:hr>103</ns3:hr>
          </ns3:TrackPointExtension>
        </extensions>
      </trkpt>
      <trkpt lat="36.77880942821502685546875" lon="-118.51696570403873920440673828125">
        <ele>2000.4000244140625</ele>
        <time>2021-06-24T19:00:37.000Z</time>
        <extensions>
          <ns3:TrackPointExtension>
            <ns3:atemp>32.0</ns3:atemp>
            <ns3:hr>102</ns3:hr>
          </ns3:TrackPointExtension>
        </extensions>
      </trkpt>
      <trkpt lat="36.778809092938899993896484375" lon="-118.5169423185288906097412109375">
        <ele>2000.4000244140625</ele>
        <time>2021-06-24T19:00:39.000Z</time>
        <extensions>
          <ns3:TrackPointExtension>
            <ns3:atemp>32.0</ns3:atemp>
            <ns3:hr>103</ns3:hr>
          </ns3:TrackPointExtension>
        </extensions>
      </trkpt>
      <trkpt lat="36.778807751834392547607421875" lon="-118.51692614145576953887939453125">
        <ele>2000.4000244140625</ele>
        <time>2021-06-24T19:00:40.000Z</time>
        <extensions>
          <ns3:TrackPointExtension>
            <ns3:atemp>32.0</ns3:atemp>
            <ns3:hr>102</ns3:hr>
          </ns3:TrackPointExtension>
        </extensions>
      </trkpt>
      <trkpt lat="36.77880548872053623199462890625" lon="-118.516911305487155914306640625">
        <ele>2000.4000244140625</ele>
        <time>2021-06-24T19:00:41.000Z</time>
        <extensions>
          <ns3:TrackPointExtension>
            <ns3:atemp>32.0</ns3:atemp>
            <ns3:hr>99</ns3:hr>
          </ns3:TrackPointExtension>
        </extensions>
      </trkpt>
      <trkpt lat="36.7788102664053440093994140625" lon="-118.51687945425510406494140625">
        <ele>2000.4000244140625</ele>
        <time>2021-06-24T19:00:43.000Z</time>
        <extensions>
          <ns3:TrackPointExtension>
            <ns3:atemp>32.0</ns3:atemp>
            <ns3:hr>100</ns3:hr>
          </ns3:TrackPointExtension>
        </extensions>
      </trkpt>
      <trkpt lat="36.7788027226924896240234375" lon="-118.5168387182056903839111328125">
        <ele>2000.5999755859375</ele>
        <time>2021-06-24T19:00:46.000Z</time>
        <extensions>
          <ns3:TrackPointExtension>
            <ns3:atemp>32.0</ns3:atemp>
            <ns3:hr>99</ns3:hr>
          </ns3:TrackPointExtension>
        </extensions>
      </trkpt>
      <trkpt lat="36.7788370884954929351806640625" lon="-118.516716174781322479248046875">
        <ele>2000.800048828125</ele>
        <time>2021-06-24T19:00:54.000Z</time>
        <extensions>
          <ns3:TrackPointExtension>
            <ns3:atemp>32.0</ns3:atemp>
            <ns3:hr>96</ns3:hr>
          </ns3:TrackPointExtension>
        </extensions>
      </trkpt>
      <trkpt lat="36.77881948649883270263671875" lon="-118.516691364347934722900390625">
        <ele>2001</ele>
        <time>2021-06-24T19:00:57.000Z</time>
        <extensions>
          <ns3:TrackPointExtension>
            <ns3:atemp>32.0</ns3:atemp>
            <ns3:hr>98</ns3:hr>
          </ns3:TrackPointExtension>
        </extensions>
      </trkpt>
      <trkpt lat="36.77880867384374141693115234375" lon="-118.51666596718132495880126953125">
        <ele>2001</ele>
        <time>2021-06-24T19:01:00.000Z</time>
        <extensions>
          <ns3:TrackPointExtension>
            <ns3:atemp>32.0</ns3:atemp>
            <ns3:hr>98</ns3:hr>
          </ns3:TrackPointExtension>
        </extensions>
      </trkpt>
      <trkpt lat="36.778805740177631378173828125" lon="-118.51666294969618320465087890625">
        <ele>2001</ele>
        <time>2021-06-24T19:01:01.000Z</time>
        <extensions>
          <ns3:TrackPointExtension>
            <ns3:atemp>32.0</ns3:atemp>
            <ns3:hr>98</ns3:hr>
          </ns3:TrackPointExtension>
        </extensions>
      </trkpt>
      <trkpt lat="36.77880163304507732391357421875" lon="-118.5166435874998569488525390625">
        <ele>2001.5999755859375</ele>
        <time>2021-06-24T19:01:03.000Z</time>
        <extensions>
          <ns3:TrackPointExtension>
            <ns3:atemp>32.0</ns3:atemp>
            <ns3:hr>98</ns3:hr>
          </ns3:TrackPointExtension>
        </extensions>
      </trkpt>
      <trkpt lat="36.77880548872053623199462890625" lon="-118.5166110657155513763427734375">
        <ele>2001.5999755859375</ele>
        <time>2021-06-24T19:01:05.000Z</time>
        <extensions>
          <ns3:TrackPointExtension>
            <ns3:atemp>32.0</ns3:atemp>
            <ns3:hr>99</ns3:hr>
          </ns3:TrackPointExtension>
        </extensions>
      </trkpt>
      <trkpt lat="36.7788421176373958587646484375" lon="-118.51650050841271877288818359375">
        <ele>2002</ele>
        <time>2021-06-24T19:01:11.000Z</time>
        <extensions>
          <ns3:TrackPointExtension>
            <ns3:atemp>32.0</ns3:atemp>
            <ns3:hr>100</ns3:hr>
          </ns3:TrackPointExtension>
        </extensions>
      </trkpt>
      <trkpt lat="36.77885460667312145233154296875" lon="-118.516413755714893341064453125">
        <ele>2002.199951171875</ele>
        <time>2021-06-24T19:01:16.000Z</time>
        <extensions>
          <ns3:TrackPointExtension>
            <ns3:atemp>32.0</ns3:atemp>
            <ns3:hr>102</ns3:hr>
          </ns3:TrackPointExtension>
        </extensions>
      </trkpt>
      <trkpt lat="36.778849326074123382568359375" lon="-118.51639858447015285491943359375">
        <ele>2002.199951171875</ele>
        <time>2021-06-24T19:01:17.000Z</time>
        <extensions>
          <ns3:TrackPointExtension>
            <ns3:atemp>32.0</ns3:atemp>
            <ns3:hr>103</ns3:hr>
          </ns3:TrackPointExtension>
        </extensions>
      </trkpt>
      <trkpt lat="36.77883935160934925079345703125" lon="-118.51637360639870166778564453125">
        <ele>2002.199951171875</ele>
        <time>2021-06-24T19:01:19.000Z</time>
        <extensions>
          <ns3:TrackPointExtension>
            <ns3:atemp>32.0</ns3:atemp>
            <ns3:hr>104</ns3:hr>
          </ns3:TrackPointExtension>
        </extensions>
      </trkpt>
      <trkpt lat="36.778836585581302642822265625" lon="-118.51634477265179157257080078125">
        <ele>2001.800048828125</ele>
        <time>2021-06-24T19:01:21.000Z</time>
        <extensions>
          <ns3:TrackPointExtension>
            <ns3:atemp>32.0</ns3:atemp>
            <ns3:hr>104</ns3:hr>
          </ns3:TrackPointExtension>
        </extensions>
      </trkpt>
      <trkpt lat="36.77883298136293888092041015625" lon="-118.51630671881139278411865234375">
        <ele>2001.5999755859375</ele>
        <time>2021-06-24T19:01:24.000Z</time>
        <extensions>
          <ns3:TrackPointExtension>
            <ns3:atemp>32.0</ns3:atemp>
            <ns3:hr>106</ns3:hr>
          </ns3:TrackPointExtension>
        </extensions>
      </trkpt>
      <trkpt lat="36.77881957031786441802978515625" lon="-118.51628132164478302001953125">
        <ele>2002</ele>
        <time>2021-06-24T19:01:26.000Z</time>
        <extensions>
          <ns3:TrackPointExtension>
            <ns3:atemp>32.0</ns3:atemp>
            <ns3:hr>106</ns3:hr>
          </ns3:TrackPointExtension>
        </extensions>
      </trkpt>
      <trkpt lat="36.7787975259125232696533203125" lon="-118.51623077876865863800048828125">
        <ele>2002</ele>
        <time>2021-06-24T19:01:30.000Z</time>
        <extensions>
          <ns3:TrackPointExtension>
            <ns3:atemp>32.0</ns3:atemp>
            <ns3:hr>103</ns3:hr>
          </ns3:TrackPointExtension>
        </extensions>
      </trkpt>
      <trkpt lat="36.7787978611886501312255859375" lon="-118.5161988437175750732421875">
        <ele>2002</ele>
        <time>2021-06-24T19:01:32.000Z</time>
        <extensions>
          <ns3:TrackPointExtension>
            <ns3:atemp>32.0</ns3:atemp>
            <ns3:hr>103</ns3:hr>
          </ns3:TrackPointExtension>
        </extensions>
      </trkpt>
      <trkpt lat="36.7788173072040081024169921875" lon="-118.516142852604389190673828125">
        <ele>2002.199951171875</ele>
        <time>2021-06-24T19:01:37.000Z</time>
        <extensions>
          <ns3:TrackPointExtension>
            <ns3:atemp>32.0</ns3:atemp>
            <ns3:hr>103</ns3:hr>
          </ns3:TrackPointExtension>
        </extensions>
      </trkpt>
      <trkpt lat="36.7788280360400676727294921875" lon="-118.51612533442676067352294921875">
        <ele>2002.199951171875</ele>
        <time>2021-06-24T19:01:38.000Z</time>
        <extensions>
          <ns3:TrackPointExtension>
            <ns3:atemp>32.0</ns3:atemp>
            <ns3:hr>103</ns3:hr>
          </ns3:TrackPointExtension>
        </extensions>
      </trkpt>
      <trkpt lat="36.778843961656093597412109375" lon="-118.5161054693162441253662109375">
        <ele>2002.800048828125</ele>
        <time>2021-06-24T19:01:39.000Z</time>
        <extensions>
          <ns3:TrackPointExtension>
            <ns3:atemp>32.0</ns3:atemp>
            <ns3:hr>103</ns3:hr>
          </ns3:TrackPointExtension>
        </extensions>
      </trkpt>
      <trkpt lat="36.7788672633469104766845703125" lon="-118.51605869829654693603515625">
        <ele>2003.199951171875</ele>
        <time>2021-06-24T19:01:43.000Z</time>
        <extensions>
          <ns3:TrackPointExtension>
            <ns3:atemp>32.0</ns3:atemp>
            <ns3:hr>102</ns3:hr>
          </ns3:TrackPointExtension>
        </extensions>
      </trkpt>
      <trkpt lat="36.7788719572126865386962890625" lon="-118.51605308242142200469970703125">
        <ele>2003.4000244140625</ele>
        <time>2021-06-24T19:01:44.000Z</time>
        <extensions>
          <ns3:TrackPointExtension>
            <ns3:atemp>32.0</ns3:atemp>
            <ns3:hr>101</ns3:hr>
          </ns3:TrackPointExtension>
        </extensions>
      </trkpt>
      <trkpt lat="36.7789011262357234954833984375" lon="-118.51601921953260898590087890625">
        <ele>2004</ele>
        <time>2021-06-24T19:01:47.000Z</time>
        <extensions>
          <ns3:TrackPointExtension>
            <ns3:atemp>32.0</ns3:atemp>
            <ns3:hr>103</ns3:hr>
          </ns3:TrackPointExtension>
        </extensions>
      </trkpt>
      <trkpt lat="36.778900288045406341552734375" lon="-118.51601301692426204681396484375">
        <ele>2004</ele>
        <time>2021-06-24T19:01:48.000Z</time>
        <extensions>
          <ns3:TrackPointExtension>
            <ns3:atemp>32.0</ns3:atemp>
            <ns3:hr>104</ns3:hr>
          </ns3:TrackPointExtension>
        </extensions>
      </trkpt>
      <trkpt lat="36.77889098413288593292236328125" lon="-118.51600966416299343109130859375">
        <ele>2004.5999755859375</ele>
        <time>2021-06-24T19:01:51.000Z</time>
        <extensions>
          <ns3:TrackPointExtension>
            <ns3:atemp>32.0</ns3:atemp>
            <ns3:hr>105</ns3:hr>
          </ns3:TrackPointExtension>
        </extensions>
      </trkpt>
      <trkpt lat="36.77889282815158367156982421875" lon="-118.5160045512020587921142578125">
        <ele>2004.800048828125</ele>
        <time>2021-06-24T19:01:52.000Z</time>
        <extensions>
          <ns3:TrackPointExtension>
            <ns3:atemp>32.0</ns3:atemp>
            <ns3:hr>108</ns3:hr>
          </ns3:TrackPointExtension>
        </extensions>
      </trkpt>
      <trkpt lat="36.77889190614223480224609375" lon="-118.5159944929182529449462890625">
        <ele>2005.199951171875</ele>
        <time>2021-06-24T19:01:53.000Z</time>
        <extensions>
          <ns3:TrackPointExtension>
            <ns3:atemp>32.0</ns3:atemp>
            <ns3:hr>111</ns3:hr>
          </ns3:TrackPointExtension>
        </extensions>
      </trkpt>
      <trkpt lat="36.77889416925609111785888671875" lon="-118.51598150096833705902099609375">
        <ele>2005.4000244140625</ele>
        <time>2021-06-24T19:01:54.000Z</time>
        <extensions>
          <ns3:TrackPointExtension>
            <ns3:atemp>32.0</ns3:atemp>
            <ns3:hr>111</ns3:hr>
          </ns3:TrackPointExtension>
        </extensions>
      </trkpt>
      <trkpt lat="36.7788930796086788177490234375" lon="-118.51597286760807037353515625">
        <ele>2005.4000244140625</ele>
        <time>2021-06-24T19:01:55.000Z</time>
        <extensions>
          <ns3:TrackPointExtension>
            <ns3:atemp>32.0</ns3:atemp>
            <ns3:hr>108</ns3:hr>
          </ns3:TrackPointExtension>
        </extensions>
      </trkpt>
      <trkpt lat="36.778910346329212188720703125" lon="-118.5159321315586566925048828125">
        <ele>2006.199951171875</ele>
        <time>2021-06-24T19:01:59.000Z</time>
        <extensions>
          <ns3:TrackPointExtension>
            <ns3:atemp>32.0</ns3:atemp>
            <ns3:hr>106</ns3:hr>
          </ns3:TrackPointExtension>
        </extensions>
      </trkpt>
      <trkpt lat="36.77891068160533905029296875" lon="-118.51591520011425018310546875">
        <ele>2006.199951171875</ele>
        <time>2021-06-24T19:02:00.000Z</time>
        <extensions>
          <ns3:TrackPointExtension>
            <ns3:atemp>32.0</ns3:atemp>
            <ns3:hr>104</ns3:hr>
          </ns3:TrackPointExtension>
        </extensions>
      </trkpt>
      <trkpt lat="36.77888444624841213226318359375" lon="-118.51586314849555492401123046875">
        <ele>2006.4000244140625</ele>
        <time>2021-06-24T19:02:04.000Z</time>
        <extensions>
          <ns3:TrackPointExtension>
            <ns3:atemp>32.0</ns3:atemp>
            <ns3:hr>101</ns3:hr>
          </ns3:TrackPointExtension>
        </extensions>
      </trkpt>
      <trkpt lat="36.7788588814437389373779296875" lon="-118.5158429481089115142822265625">
        <ele>2006.5999755859375</ele>
        <time>2021-06-24T19:02:07.000Z</time>
        <extensions>
          <ns3:TrackPointExtension>
            <ns3:atemp>32.0</ns3:atemp>
            <ns3:hr>102</ns3:hr>
          </ns3:TrackPointExtension>
        </extensions>
      </trkpt>
      <trkpt lat="36.778856702148914337158203125" lon="-118.515827693045139312744140625">
        <ele>2007</ele>
        <time>2021-06-24T19:02:08.000Z</time>
        <extensions>
          <ns3:TrackPointExtension>
            <ns3:atemp>32.0</ns3:atemp>
            <ns3:hr>105</ns3:hr>
          </ns3:TrackPointExtension>
        </extensions>
      </trkpt>
      <trkpt lat="36.77882024087011814117431640625" lon="-118.515758626163005828857421875">
        <ele>2007.4000244140625</ele>
        <time>2021-06-24T19:02:14.000Z</time>
        <extensions>
          <ns3:TrackPointExtension>
            <ns3:atemp>32.0</ns3:atemp>
            <ns3:hr>103</ns3:hr>
          </ns3:TrackPointExtension>
        </extensions>
      </trkpt>
      <trkpt lat="36.77876223810017108917236328125" lon="-118.515650331974029541015625">
        <ele>2007.199951171875</ele>
        <time>2021-06-24T19:02:22.000Z</time>
        <extensions>
          <ns3:TrackPointExtension>
            <ns3:atemp>32.0</ns3:atemp>
            <ns3:hr>103</ns3:hr>
          </ns3:TrackPointExtension>
        </extensions>
      </trkpt>
      <trkpt lat="36.7787559516727924346923828125" lon="-118.51563951931893825531005859375">
        <ele>2007.199951171875</ele>
        <time>2021-06-24T19:02:23.000Z</time>
        <extensions>
          <ns3:TrackPointExtension>
            <ns3:atemp>32.0</ns3:atemp>
            <ns3:hr>103</ns3:hr>
          </ns3:TrackPointExtension>
        </extensions>
      </trkpt>
      <trkpt lat="36.7787334881722927093505859375" lon="-118.515609093010425567626953125">
        <ele>2006.4000244140625</ele>
        <time>2021-06-24T19:02:26.000Z</time>
        <extensions>
          <ns3:TrackPointExtension>
            <ns3:atemp>32.0</ns3:atemp>
            <ns3:hr>104</ns3:hr>
          </ns3:TrackPointExtension>
        </extensions>
      </trkpt>
      <trkpt lat="36.77873474545776844024658203125" lon="-118.51559073664247989654541015625">
        <ele>2006.199951171875</ele>
        <time>2021-06-24T19:02:27.000Z</time>
        <extensions>
          <ns3:TrackPointExtension>
            <ns3:atemp>32.0</ns3:atemp>
            <ns3:hr>106</ns3:hr>
          </ns3:TrackPointExtension>
        </extensions>
      </trkpt>
      <trkpt lat="36.7787314765155315399169921875" lon="-118.51557279936969280242919921875">
        <ele>2006.199951171875</ele>
        <time>2021-06-24T19:02:28.000Z</time>
        <extensions>
          <ns3:TrackPointExtension>
            <ns3:atemp>32.0</ns3:atemp>
            <ns3:hr>104</ns3:hr>
          </ns3:TrackPointExtension>
        </extensions>
      </trkpt>
      <trkpt lat="36.7786927521228790283203125" lon="-118.51546056568622589111328125">
        <ele>2007</ele>
        <time>2021-06-24T19:02:36.000Z</time>
        <extensions>
          <ns3:TrackPointExtension>
            <ns3:atemp>32.0</ns3:atemp>
            <ns3:hr>105</ns3:hr>
          </ns3:TrackPointExtension>
        </extensions>
      </trkpt>
      <trkpt lat="36.77869166247546672821044921875" lon="-118.51543416269123554229736328125">
        <ele>2007</ele>
        <time>2021-06-24T19:02:38.000Z</time>
        <extensions>
          <ns3:TrackPointExtension>
            <ns3:atemp>32.0</ns3:atemp>
            <ns3:hr>108</ns3:hr>
          </ns3:TrackPointExtension>
        </extensions>
      </trkpt>
      <trkpt lat="36.778690405189990997314453125" lon="-118.515421338379383087158203125">
        <ele>2007.199951171875</ele>
        <time>2021-06-24T19:02:39.000Z</time>
        <extensions>
          <ns3:TrackPointExtension>
            <ns3:atemp>32.0</ns3:atemp>
            <ns3:hr>108</ns3:hr>
          </ns3:TrackPointExtension>
        </extensions>
      </trkpt>
      <trkpt lat="36.77868512459099292755126953125" lon="-118.5154064185917377471923828125">
        <ele>2007.4000244140625</ele>
        <time>2021-06-24T19:02:41.000Z</time>
        <extensions>
          <ns3:TrackPointExtension>
            <ns3:atemp>32.0</ns3:atemp>
            <ns3:hr>106</ns3:hr>
          </ns3:TrackPointExtension>
        </extensions>
      </trkpt>
      <trkpt lat="36.7786855436861515045166015625" lon="-118.51540155708789825439453125">
        <ele>2007.800048828125</ele>
        <time>2021-06-24T19:02:42.000Z</time>
        <extensions>
          <ns3:TrackPointExtension>
            <ns3:atemp>32.0</ns3:atemp>
            <ns3:hr>106</ns3:hr>
          </ns3:TrackPointExtension>
        </extensions>
      </trkpt>
      <trkpt lat="36.77868881262838840484619140625" lon="-118.51539208553731441497802734375">
        <ele>2007.800048828125</ele>
        <time>2021-06-24T19:02:43.000Z</time>
        <extensions>
          <ns3:TrackPointExtension>
            <ns3:atemp>32.0</ns3:atemp>
            <ns3:hr>103</ns3:hr>
          </ns3:TrackPointExtension>
        </extensions>
      </trkpt>
      <trkpt lat="36.77869208157062530517578125" lon="-118.5153695382177829742431640625">
        <ele>2008.199951171875</ele>
        <time>2021-06-24T19:02:45.000Z</time>
        <extensions>
          <ns3:TrackPointExtension>
            <ns3:atemp>32.0</ns3:atemp>
            <ns3:hr>106</ns3:hr>
          </ns3:TrackPointExtension>
        </extensions>
      </trkpt>
      <trkpt lat="36.7786873877048492431640625" lon="-118.5153521038591861724853515625">
        <ele>2008.5999755859375</ele>
        <time>2021-06-24T19:02:47.000Z</time>
        <extensions>
          <ns3:TrackPointExtension>
            <ns3:atemp>32.0</ns3:atemp>
            <ns3:hr>108</ns3:hr>
          </ns3:TrackPointExtension>
        </extensions>
      </trkpt>
      <trkpt lat="36.7786825262010097503662109375" lon="-118.51532167755067348480224609375">
        <ele>2008.5999755859375</ele>
        <time>2021-06-24T19:02:49.000Z</time>
        <extensions>
          <ns3:TrackPointExtension>
            <ns3:atemp>32.0</ns3:atemp>
            <ns3:hr>111</ns3:hr>
          </ns3:TrackPointExtension>
        </extensions>
      </trkpt>
      <trkpt lat="36.77867439575493335723876953125" lon="-118.515302650630474090576171875">
        <ele>2008.800048828125</ele>
        <time>2021-06-24T19:02:51.000Z</time>
        <extensions>
          <ns3:TrackPointExtension>
            <ns3:atemp>32.0</ns3:atemp>
            <ns3:hr>109</ns3:hr>
          </ns3:TrackPointExtension>
        </extensions>
      </trkpt>
      <trkpt lat="36.7786391079425811767578125" lon="-118.5152538679540157318115234375">
        <ele>2009.5999755859375</ele>
        <time>2021-06-24T19:02:56.000Z</time>
        <extensions>
          <ns3:TrackPointExtension>
            <ns3:atemp>32.0</ns3:atemp>
            <ns3:hr>110</ns3:hr>
          </ns3:TrackPointExtension>
        </extensions>
      </trkpt>
      <trkpt lat="36.77863567136228084564208984375" lon="-118.51523718796670436859130859375">
        <ele>2010</ele>
        <time>2021-06-24T19:02:58.000Z</time>
        <extensions>
          <ns3:TrackPointExtension>
            <ns3:atemp>32.0</ns3:atemp>
            <ns3:hr>111</ns3:hr>
          </ns3:TrackPointExtension>
        </extensions>
      </trkpt>
      <trkpt lat="36.77863868884742259979248046875" lon="-118.515216149389743804931640625">
        <ele>2010.4000244140625</ele>
        <time>2021-06-24T19:03:00.000Z</time>
        <extensions>
          <ns3:TrackPointExtension>
            <ns3:atemp>32.0</ns3:atemp>
            <ns3:hr>112</ns3:hr>
          </ns3:TrackPointExtension>
        </extensions>
      </trkpt>
      <trkpt lat="36.77863315679132938385009765625" lon="-118.515205085277557373046875">
        <ele>2010.5999755859375</ele>
        <time>2021-06-24T19:03:02.000Z</time>
        <extensions>
          <ns3:TrackPointExtension>
            <ns3:atemp>32.0</ns3:atemp>
            <ns3:hr>112</ns3:hr>
          </ns3:TrackPointExtension>
        </extensions>
      </trkpt>
      <trkpt lat="36.7786364257335662841796875" lon="-118.51519779302179813385009765625">
        <ele>2010.5999755859375</ele>
        <time>2021-06-24T19:03:04.000Z</time>
        <extensions>
          <ns3:TrackPointExtension>
            <ns3:atemp>32.0</ns3:atemp>
            <ns3:hr>113</ns3:hr>
          </ns3:TrackPointExtension>
        </extensions>
      </trkpt>
      <trkpt lat="36.77864371798932552337646484375" lon="-118.515180610120296478271484375">
        <ele>2010.4000244140625</ele>
        <time>2021-06-24T19:03:06.000Z</time>
        <extensions>
          <ns3:TrackPointExtension>
            <ns3:atemp>32.0</ns3:atemp>
            <ns3:hr>112</ns3:hr>
          </ns3:TrackPointExtension>
        </extensions>
      </trkpt>
      <trkpt lat="36.77862812764942646026611328125" lon="-118.51516644470393657684326171875">
        <ele>2010.4000244140625</ele>
        <time>2021-06-24T19:03:09.000Z</time>
        <extensions>
          <ns3:TrackPointExtension>
            <ns3:atemp>32.0</ns3:atemp>
            <ns3:hr>112</ns3:hr>
          </ns3:TrackPointExtension>
        </extensions>
      </trkpt>
      <trkpt lat="36.77862460725009441375732421875" lon="-118.51515881717205047607421875">
        <ele>2010.4000244140625</ele>
        <time>2021-06-24T19:03:10.000Z</time>
        <extensions>
          <ns3:TrackPointExtension>
            <ns3:atemp>32.0</ns3:atemp>
            <ns3:hr>113</ns3:hr>
          </ns3:TrackPointExtension>
        </extensions>
      </trkpt>
      <trkpt lat="36.77860080264508724212646484375" lon="-118.5150842182338237762451171875">
        <ele>2010.800048828125</ele>
        <time>2021-06-24T19:03:17.000Z</time>
        <extensions>
          <ns3:TrackPointExtension>
            <ns3:atemp>32.0</ns3:atemp>
            <ns3:hr>114</ns3:hr>
          </ns3:TrackPointExtension>
        </extensions>
      </trkpt>
      <trkpt lat="36.77856978960335254669189453125" lon="-118.51496460847556591033935546875">
        <ele>2011.4000244140625</ele>
        <time>2021-06-24T19:03:26.000Z</time>
        <extensions>
          <ns3:TrackPointExtension>
            <ns3:atemp>32.0</ns3:atemp>
            <ns3:hr>112</ns3:hr>
          </ns3:TrackPointExtension>
        </extensions>
      </trkpt>
      <trkpt lat="36.77854732610285282135009765625" lon="-118.5149534605443477630615234375">
        <ele>2011.199951171875</ele>
        <time>2021-06-24T19:03:28.000Z</time>
        <extensions>
          <ns3:TrackPointExtension>
            <ns3:atemp>32.0</ns3:atemp>
            <ns3:hr>112</ns3:hr>
          </ns3:TrackPointExtension>
        </extensions>
      </trkpt>
      <trkpt lat="36.7785184085369110107421875" lon="-118.51493409834802150726318359375">
        <ele>2010.800048828125</ele>
        <time>2021-06-24T19:03:32.000Z</time>
        <extensions>
          <ns3:TrackPointExtension>
            <ns3:atemp>32.0</ns3:atemp>
            <ns3:hr>112</ns3:hr>
          </ns3:TrackPointExtension>
        </extensions>
      </trkpt>
      <trkpt lat="36.778510026633739471435546875" lon="-118.51489872671663761138916015625">
        <ele>2010.4000244140625</ele>
        <time>2021-06-24T19:03:35.000Z</time>
        <extensions>
          <ns3:TrackPointExtension>
            <ns3:atemp>32.0</ns3:atemp>
            <ns3:hr>111</ns3:hr>
          </ns3:TrackPointExtension>
        </extensions>
      </trkpt>
      <trkpt lat="36.7784837074577808380126953125" lon="-118.51487022824585437774658203125">
        <ele>2010.4000244140625</ele>
        <time>2021-06-24T19:03:38.000Z</time>
        <extensions>
          <ns3:TrackPointExtension>
            <ns3:atemp>32.0</ns3:atemp>
            <ns3:hr>111</ns3:hr>
          </ns3:TrackPointExtension>
        </extensions>
      </trkpt>
      <trkpt lat="36.77844037301838397979736328125" lon="-118.51480183191597461700439453125">
        <ele>2010</ele>
        <time>2021-06-24T19:03:44.000Z</time>
        <extensions>
          <ns3:TrackPointExtension>
            <ns3:atemp>32.0</ns3:atemp>
            <ns3:hr>113</ns3:hr>
          </ns3:TrackPointExtension>
        </extensions>
      </trkpt>
      <trkpt lat="36.7784045822918415069580078125" lon="-118.51474039256572723388671875">
        <ele>2009.800048828125</ele>
        <time>2021-06-24T19:03:49.000Z</time>
        <extensions>
          <ns3:TrackPointExtension>
            <ns3:atemp>32.0</ns3:atemp>
            <ns3:hr>111</ns3:hr>
          </ns3:TrackPointExtension>
        </extensions>
      </trkpt>
      <trkpt lat="36.77840231917798519134521484375" lon="-118.51472220383584499359130859375">
        <ele>2010</ele>
        <time>2021-06-24T19:03:50.000Z</time>
        <extensions>
          <ns3:TrackPointExtension>
            <ns3:atemp>32.0</ns3:atemp>
            <ns3:hr>114</ns3:hr>
          </ns3:TrackPointExtension>
        </extensions>
      </trkpt>
      <trkpt lat="36.778388321399688720703125" lon="-118.51469655521214008331298828125">
        <ele>2010</ele>
        <time>2021-06-24T19:03:52.000Z</time>
        <extensions>
          <ns3:TrackPointExtension>
            <ns3:atemp>32.0</ns3:atemp>
            <ns3:hr>110</ns3:hr>
          </ns3:TrackPointExtension>
        </extensions>
      </trkpt>
      <trkpt lat="36.77837884984910488128662109375" lon="-118.51468549109995365142822265625">
        <ele>2010.199951171875</ele>
        <time>2021-06-24T19:03:53.000Z</time>
        <extensions>
          <ns3:TrackPointExtension>
            <ns3:atemp>32.0</ns3:atemp>
            <ns3:hr>110</ns3:hr>
          </ns3:TrackPointExtension>
        </extensions>
      </trkpt>
      <trkpt lat="36.77837884984910488128662109375" lon="-118.51465464569628238677978515625">
        <ele>2010.4000244140625</ele>
        <time>2021-06-24T19:03:56.000Z</time>
        <extensions>
          <ns3:TrackPointExtension>
            <ns3:atemp>32.0</ns3:atemp>
            <ns3:hr>111</ns3:hr>
          </ns3:TrackPointExtension>
        </extensions>
      </trkpt>
      <trkpt lat="36.77834280766546726226806640625" lon="-118.51464307866990566253662109375">
        <ele>2011</ele>
        <time>2021-06-24T19:03:59.000Z</time>
        <extensions>
          <ns3:TrackPointExtension>
            <ns3:atemp>32.0</ns3:atemp>
            <ns3:hr>110</ns3:hr>
          </ns3:TrackPointExtension>
        </extensions>
      </trkpt>
      <trkpt lat="36.778342388570308685302734375" lon="-118.5146305896341800689697265625">
        <ele>2011.5999755859375</ele>
        <time>2021-06-24T19:04:02.000Z</time>
        <extensions>
          <ns3:TrackPointExtension>
            <ns3:atemp>32.0</ns3:atemp>
            <ns3:hr>108</ns3:hr>
          </ns3:TrackPointExtension>
        </extensions>
      </trkpt>
      <trkpt lat="36.778357811272144317626953125" lon="-118.51457417942583560943603515625">
        <ele>2012.5999755859375</ele>
        <time>2021-06-24T19:04:09.000Z</time>
        <extensions>
          <ns3:TrackPointExtension>
            <ns3:atemp>32.0</ns3:atemp>
            <ns3:hr>106</ns3:hr>
          </ns3:TrackPointExtension>
        </extensions>
      </trkpt>
      <trkpt lat="36.7783506028354167938232421875" lon="-118.51455054245889186859130859375">
        <ele>2012.5999755859375</ele>
        <time>2021-06-24T19:04:11.000Z</time>
        <extensions>
          <ns3:TrackPointExtension>
            <ns3:atemp>32.0</ns3:atemp>
            <ns3:hr>108</ns3:hr>
          </ns3:TrackPointExtension>
        </extensions>
      </trkpt>
      <trkpt lat="36.77832470275461673736572265625" lon="-118.5145144164562225341796875">
        <ele>2013</ele>
        <time>2021-06-24T19:04:15.000Z</time>
        <extensions>
          <ns3:TrackPointExtension>
            <ns3:atemp>32.0</ns3:atemp>
            <ns3:hr>106</ns3:hr>
          </ns3:TrackPointExtension>
        </extensions>
      </trkpt>
      <trkpt lat="36.7783127166330814361572265625" lon="-118.5144956409931182861328125">
        <ele>2013</ele>
        <time>2021-06-24T19:04:17.000Z</time>
        <extensions>
          <ns3:TrackPointExtension>
            <ns3:atemp>32.0</ns3:atemp>
            <ns3:hr>106</ns3:hr>
          </ns3:TrackPointExtension>
        </extensions>
      </trkpt>
      <trkpt lat="36.778290085494518280029296875" lon="-118.51446001790463924407958984375">
        <ele>2013.4000244140625</ele>
        <time>2021-06-24T19:04:20.000Z</time>
        <extensions>
          <ns3:TrackPointExtension>
            <ns3:atemp>32.0</ns3:atemp>
            <ns3:hr>109</ns3:hr>
          </ns3:TrackPointExtension>
        </extensions>
      </trkpt>
      <trkpt lat="36.778290756046772003173828125" lon="-118.51444627158343791961669921875">
        <ele>2013.5999755859375</ele>
        <time>2021-06-24T19:04:21.000Z</time>
        <extensions>
          <ns3:TrackPointExtension>
            <ns3:atemp>32.0</ns3:atemp>
            <ns3:hr>110</ns3:hr>
          </ns3:TrackPointExtension>
        </extensions>
      </trkpt>
      <trkpt lat="36.77827793173491954803466796875" lon="-118.5144408233463764190673828125">
        <ele>2013.800048828125</ele>
        <time>2021-06-24T19:04:22.000Z</time>
        <extensions>
          <ns3:TrackPointExtension>
            <ns3:atemp>32.0</ns3:atemp>
            <ns3:hr>112</ns3:hr>
          </ns3:TrackPointExtension>
        </extensions>
      </trkpt>
      <trkpt lat="36.77827407605946063995361328125" lon="-118.5143975727260112762451171875">
        <ele>2014</ele>
        <time>2021-06-24T19:04:25.000Z</time>
        <extensions>
          <ns3:TrackPointExtension>
            <ns3:atemp>32.0</ns3:atemp>
            <ns3:hr>115</ns3:hr>
          </ns3:TrackPointExtension>
        </extensions>
      </trkpt>
      <trkpt lat="36.778278686106204986572265625" lon="-118.51435415446758270263671875">
        <ele>2014.5999755859375</ele>
        <time>2021-06-24T19:04:28.000Z</time>
        <extensions>
          <ns3:TrackPointExtension>
            <ns3:atemp>32.0</ns3:atemp>
            <ns3:hr>114</ns3:hr>
          </ns3:TrackPointExtension>
        </extensions>
      </trkpt>
      <trkpt lat="36.7782778479158878326416015625" lon="-118.51434099487960338592529296875">
        <ele>2014.800048828125</ele>
        <time>2021-06-24T19:04:29.000Z</time>
        <extensions>
          <ns3:TrackPointExtension>
            <ns3:atemp>32.0</ns3:atemp>
            <ns3:hr>113</ns3:hr>
          </ns3:TrackPointExtension>
        </extensions>
      </trkpt>
      <trkpt lat="36.77828212268650531768798828125" lon="-118.51433244533836841583251953125">
        <ele>2014.800048828125</ele>
        <time>2021-06-24T19:04:30.000Z</time>
        <extensions>
          <ns3:TrackPointExtension>
            <ns3:atemp>32.0</ns3:atemp>
            <ns3:hr>115</ns3:hr>
          </ns3:TrackPointExtension>
        </extensions>
      </trkpt>
      <trkpt lat="36.77828497253358364105224609375" lon="-118.51431249640882015228271484375">
        <ele>2015</ele>
        <time>2021-06-24T19:04:32.000Z</time>
        <extensions>
          <ns3:TrackPointExtension>
            <ns3:atemp>32.0</ns3:atemp>
            <ns3:hr>116</ns3:hr>
          </ns3:TrackPointExtension>
        </extensions>
      </trkpt>
      <trkpt lat="36.778285391628742218017578125" lon="-118.514300845563411712646484375">
        <ele>2015</ele>
        <time>2021-06-24T19:04:33.000Z</time>
        <extensions>
          <ns3:TrackPointExtension>
            <ns3:atemp>32.0</ns3:atemp>
            <ns3:hr>115</ns3:hr>
          </ns3:TrackPointExtension>
        </extensions>
      </trkpt>
      <trkpt lat="36.7782825417816638946533203125" lon="-118.51428651250898838043212890625">
        <ele>2015</ele>
        <time>2021-06-24T19:04:34.000Z</time>
        <extensions>
          <ns3:TrackPointExtension>
            <ns3:atemp>32.0</ns3:atemp>
            <ns3:hr>115</ns3:hr>
          </ns3:TrackPointExtension>
        </extensions>
      </trkpt>
      <trkpt lat="36.77825245074927806854248046875" lon="-118.5142396576702594757080078125">
        <ele>2015</ele>
        <time>2021-06-24T19:04:38.000Z</time>
        <extensions>
          <ns3:TrackPointExtension>
            <ns3:atemp>32.0</ns3:atemp>
            <ns3:hr>114</ns3:hr>
          </ns3:TrackPointExtension>
        </extensions>
      </trkpt>
      <trkpt lat="36.77824876271188259124755859375" lon="-118.51423320360481739044189453125">
        <ele>2015</ele>
        <time>2021-06-24T19:04:39.000Z</time>
        <extensions>
          <ns3:TrackPointExtension>
            <ns3:atemp>32.0</ns3:atemp>
            <ns3:hr>114</ns3:hr>
          </ns3:TrackPointExtension>
        </extensions>
      </trkpt>
      <trkpt lat="36.77824239246547222137451171875" lon="-118.51422649808228015899658203125">
        <ele>2015.199951171875</ele>
        <time>2021-06-24T19:04:41.000Z</time>
        <extensions>
          <ns3:TrackPointExtension>
            <ns3:atemp>32.0</ns3:atemp>
            <ns3:hr>114</ns3:hr>
          </ns3:TrackPointExtension>
        </extensions>
      </trkpt>
      <trkpt lat="36.77823032252490520477294921875" lon="-118.5142175294458866119384765625">
        <ele>2015.800048828125</ele>
        <time>2021-06-24T19:04:44.000Z</time>
        <extensions>
          <ns3:TrackPointExtension>
            <ns3:atemp>32.0</ns3:atemp>
            <ns3:hr>115</ns3:hr>
          </ns3:TrackPointExtension>
        </extensions>
      </trkpt>
      <trkpt lat="36.77822043187916278839111328125" lon="-118.51421467959880828857421875">
        <ele>2016</ele>
        <time>2021-06-24T19:04:46.000Z</time>
        <extensions>
          <ns3:TrackPointExtension>
            <ns3:atemp>32.0</ns3:atemp>
            <ns3:hr>117</ns3:hr>
          </ns3:TrackPointExtension>
        </extensions>
      </trkpt>
      <trkpt lat="36.77821406163275241851806640625" lon="-118.51421275176107883453369140625">
        <ele>2016.199951171875</ele>
        <time>2021-06-24T19:04:47.000Z</time>
        <extensions>
          <ns3:TrackPointExtension>
            <ns3:atemp>32.0</ns3:atemp>
            <ns3:hr>114</ns3:hr>
          </ns3:TrackPointExtension>
        </extensions>
      </trkpt>
      <trkpt lat="36.7781987227499485015869140625" lon="-118.5141980834305286407470703125">
        <ele>2016.199951171875</ele>
        <time>2021-06-24T19:04:49.000Z</time>
        <extensions>
          <ns3:TrackPointExtension>
            <ns3:atemp>32.0</ns3:atemp>
            <ns3:hr>114</ns3:hr>
          </ns3:TrackPointExtension>
        </extensions>
      </trkpt>
      <trkpt lat="36.77818916738033294677734375" lon="-118.51418894715607166290283203125">
        <ele>2015.800048828125</ele>
        <time>2021-06-24T19:04:50.000Z</time>
        <extensions>
          <ns3:TrackPointExtension>
            <ns3:atemp>32.0</ns3:atemp>
            <ns3:hr>114</ns3:hr>
          </ns3:TrackPointExtension>
        </extensions>
      </trkpt>
      <trkpt lat="36.77818221040070056915283203125" lon="-118.51416547782719135284423828125">
        <ele>2015.5999755859375</ele>
        <time>2021-06-24T19:04:52.000Z</time>
        <extensions>
          <ns3:TrackPointExtension>
            <ns3:atemp>32.0</ns3:atemp>
            <ns3:hr>113</ns3:hr>
          </ns3:TrackPointExtension>
        </extensions>
      </trkpt>
      <trkpt lat="36.77816368639469146728515625" lon="-118.51411552168428897857666015625">
        <ele>2015.199951171875</ele>
        <time>2021-06-24T19:04:55.000Z</time>
        <extensions>
          <ns3:TrackPointExtension>
            <ns3:atemp>32.0</ns3:atemp>
            <ns3:hr>112</ns3:hr>
          </ns3:TrackPointExtension>
        </extensions>
      </trkpt>
      <trkpt lat="36.77813284099102020263671875" lon="-118.5140986740589141845703125">
        <ele>2015.4000244140625</ele>
        <time>2021-06-24T19:04:58.000Z</time>
        <extensions>
          <ns3:TrackPointExtension>
            <ns3:atemp>32.0</ns3:atemp>
            <ns3:hr>111</ns3:hr>
          </ns3:TrackPointExtension>
        </extensions>
      </trkpt>
      <trkpt lat="36.7781159095466136932373046875" lon="-118.5140981711447238922119140625">
        <ele>2015.800048828125</ele>
        <time>2021-06-24T19:05:00.000Z</time>
        <extensions>
          <ns3:TrackPointExtension>
            <ns3:atemp>32.0</ns3:atemp>
            <ns3:hr>112</ns3:hr>
          </ns3:TrackPointExtension>
        </extensions>
      </trkpt>
      <trkpt lat="36.77808280102908611297607421875" lon="-118.514090292155742645263671875">
        <ele>2016</ele>
        <time>2021-06-24T19:05:02.000Z</time>
        <extensions>
          <ns3:TrackPointExtension>
            <ns3:atemp>32.0</ns3:atemp>
            <ns3:hr>111</ns3:hr>
          </ns3:TrackPointExtension>
        </extensions>
      </trkpt>
      <trkpt lat="36.77804994396865367889404296875" lon="-118.5140368156135082244873046875">
        <ele>2016.199951171875</ele>
        <time>2021-06-24T19:05:06.000Z</time>
        <extensions>
          <ns3:TrackPointExtension>
            <ns3:atemp>32.0</ns3:atemp>
            <ns3:hr>109</ns3:hr>
          </ns3:TrackPointExtension>
        </extensions>
      </trkpt>
      <trkpt lat="36.77798473276197910308837890625" lon="-118.51398241706192493438720703125">
        <ele>2016.199951171875</ele>
        <time>2021-06-24T19:05:13.000Z</time>
        <extensions>
          <ns3:TrackPointExtension>
            <ns3:atemp>32.0</ns3:atemp>
            <ns3:hr>107</ns3:hr>
          </ns3:TrackPointExtension>
        </extensions>
      </trkpt>
      <trkpt lat="36.77797568030655384063720703125" lon="-118.51397219114005565643310546875">
        <ele>2016</ele>
        <time>2021-06-24T19:05:14.000Z</time>
        <extensions>
          <ns3:TrackPointExtension>
            <ns3:atemp>32.0</ns3:atemp>
            <ns3:hr>107</ns3:hr>
          </ns3:TrackPointExtension>
        </extensions>
      </trkpt>
      <trkpt lat="36.7779620178043842315673828125" lon="-118.51395106874406337738037109375">
        <ele>2016</ele>
        <time>2021-06-24T19:05:16.000Z</time>
        <extensions>
          <ns3:TrackPointExtension>
            <ns3:atemp>32.0</ns3:atemp>
            <ns3:hr>104</ns3:hr>
          </ns3:TrackPointExtension>
        </extensions>
      </trkpt>
      <trkpt lat="36.77795757539570331573486328125" lon="-118.513915948569774627685546875">
        <ele>2016.199951171875</ele>
        <time>2021-06-24T19:05:18.000Z</time>
        <extensions>
          <ns3:TrackPointExtension>
            <ns3:atemp>32.0</ns3:atemp>
            <ns3:hr>103</ns3:hr>
          </ns3:TrackPointExtension>
        </extensions>
      </trkpt>
      <trkpt lat="36.77795589901506900787353515625" lon="-118.513895832002162933349609375">
        <ele>2016.199951171875</ele>
        <time>2021-06-24T19:05:19.000Z</time>
        <extensions>
          <ns3:TrackPointExtension>
            <ns3:atemp>32.0</ns3:atemp>
            <ns3:hr>103</ns3:hr>
          </ns3:TrackPointExtension>
        </extensions>
      </trkpt>
      <trkpt lat="36.777913570404052734375" lon="-118.51381310261785984039306640625">
        <ele>2016.5999755859375</ele>
        <time>2021-06-24T19:05:26.000Z</time>
        <extensions>
          <ns3:TrackPointExtension>
            <ns3:atemp>32.0</ns3:atemp>
            <ns3:hr>101</ns3:hr>
          </ns3:TrackPointExtension>
        </extensions>
      </trkpt>
      <trkpt lat="36.77789990790188312530517578125" lon="-118.5138037987053394317626953125">
        <ele>2016.800048828125</ele>
        <time>2021-06-24T19:05:27.000Z</time>
        <extensions>
          <ns3:TrackPointExtension>
            <ns3:atemp>32.0</ns3:atemp>
            <ns3:hr>101</ns3:hr>
          </ns3:TrackPointExtension>
        </extensions>
      </trkpt>
      <trkpt lat="36.77789873443543910980224609375" lon="-118.51378963328897953033447265625">
        <ele>2017</ele>
        <time>2021-06-24T19:05:28.000Z</time>
        <extensions>
          <ns3:TrackPointExtension>
            <ns3:atemp>32.0</ns3:atemp>
            <ns3:hr>101</ns3:hr>
          </ns3:TrackPointExtension>
        </extensions>
      </trkpt>
      <trkpt lat="36.77790828980505466461181640625" lon="-118.51373548619449138641357421875">
        <ele>2017.4000244140625</ele>
        <time>2021-06-24T19:05:32.000Z</time>
        <extensions>
          <ns3:TrackPointExtension>
            <ns3:atemp>32.0</ns3:atemp>
            <ns3:hr>100</ns3:hr>
          </ns3:TrackPointExtension>
        </extensions>
      </trkpt>
      <trkpt lat="36.7779144085943698883056640625" lon="-118.51372425444424152374267578125">
        <ele>2017.4000244140625</ele>
        <time>2021-06-24T19:05:33.000Z</time>
        <extensions>
          <ns3:TrackPointExtension>
            <ns3:atemp>32.0</ns3:atemp>
            <ns3:hr>103</ns3:hr>
          </ns3:TrackPointExtension>
        </extensions>
      </trkpt>
      <trkpt lat="36.7779237963259220123291015625" lon="-118.5136562772095203399658203125">
        <ele>2017.800048828125</ele>
        <time>2021-06-24T19:05:38.000Z</time>
        <extensions>
          <ns3:TrackPointExtension>
            <ns3:atemp>32.0</ns3:atemp>
            <ns3:hr>101</ns3:hr>
          </ns3:TrackPointExtension>
        </extensions>
      </trkpt>
      <trkpt lat="36.77791700698435306549072265625" lon="-118.51364026777446269989013671875">
        <ele>2018</ele>
        <time>2021-06-24T19:05:41.000Z</time>
        <extensions>
          <ns3:TrackPointExtension>
            <ns3:atemp>32.0</ns3:atemp>
            <ns3:hr>102</ns3:hr>
          </ns3:TrackPointExtension>
        </extensions>
      </trkpt>
      <trkpt lat="36.77791382186114788055419921875" lon="-118.5136237554252147674560546875">
        <ele>2019</ele>
        <time>2021-06-24T19:05:45.000Z</time>
        <extensions>
          <ns3:TrackPointExtension>
            <ns3:atemp>32.0</ns3:atemp>
            <ns3:hr>103</ns3:hr>
          </ns3:TrackPointExtension>
        </extensions>
      </trkpt>
      <trkpt lat="36.77792094647884368896484375" lon="-118.5136063210666179656982421875">
        <ele>2019</ele>
        <time>2021-06-24T19:05:47.000Z</time>
        <extensions>
          <ns3:TrackPointExtension>
            <ns3:atemp>32.0</ns3:atemp>
            <ns3:hr>104</ns3:hr>
          </ns3:TrackPointExtension>
        </extensions>
      </trkpt>
      <trkpt lat="36.7779274843633174896240234375" lon="-118.513538427650928497314453125">
        <ele>2019.5999755859375</ele>
        <time>2021-06-24T19:05:51.000Z</time>
        <extensions>
          <ns3:TrackPointExtension>
            <ns3:atemp>32.0</ns3:atemp>
            <ns3:hr>104</ns3:hr>
          </ns3:TrackPointExtension>
        </extensions>
      </trkpt>
      <trkpt lat="36.77792765200138092041015625" lon="-118.51352409459650516510009765625">
        <ele>2020</ele>
        <time>2021-06-24T19:05:53.000Z</time>
        <extensions>
          <ns3:TrackPointExtension>
            <ns3:atemp>32.0</ns3:atemp>
            <ns3:hr>103</ns3:hr>
          </ns3:TrackPointExtension>
        </extensions>
      </trkpt>
      <trkpt lat="36.77792270667850971221923828125" lon="-118.51351822726428508758544921875">
        <ele>2020.199951171875</ele>
        <time>2021-06-24T19:05:54.000Z</time>
        <extensions>
          <ns3:TrackPointExtension>
            <ns3:atemp>32.0</ns3:atemp>
            <ns3:hr>103</ns3:hr>
          </ns3:TrackPointExtension>
        </extensions>
      </trkpt>
      <trkpt lat="36.7779154144227504730224609375" lon="-118.5135013796389102935791015625">
        <ele>2020.199951171875</ele>
        <time>2021-06-24T19:05:56.000Z</time>
        <extensions>
          <ns3:TrackPointExtension>
            <ns3:atemp>32.0</ns3:atemp>
            <ns3:hr>102</ns3:hr>
          </ns3:TrackPointExtension>
        </extensions>
      </trkpt>
      <trkpt lat="36.777920611202716827392578125" lon="-118.51346927694976329803466796875">
        <ele>2020.5999755859375</ele>
        <time>2021-06-24T19:05:59.000Z</time>
        <extensions>
          <ns3:TrackPointExtension>
            <ns3:atemp>32.0</ns3:atemp>
            <ns3:hr>102</ns3:hr>
          </ns3:TrackPointExtension>
        </extensions>
      </trkpt>
      <trkpt lat="36.7779221199452877044677734375" lon="-118.51343709044158458709716796875">
        <ele>2021.199951171875</ele>
        <time>2021-06-24T19:06:03.000Z</time>
        <extensions>
          <ns3:TrackPointExtension>
            <ns3:atemp>32.0</ns3:atemp>
            <ns3:hr>103</ns3:hr>
          </ns3:TrackPointExtension>
        </extensions>
      </trkpt>
      <trkpt lat="36.7779264785349369049072265625" lon="-118.51342367939651012420654296875">
        <ele>2021.199951171875</ele>
        <time>2021-06-24T19:06:04.000Z</time>
        <extensions>
          <ns3:TrackPointExtension>
            <ns3:atemp>32.0</ns3:atemp>
            <ns3:hr>103</ns3:hr>
          </ns3:TrackPointExtension>
        </extensions>
      </trkpt>
      <trkpt lat="36.7779318429529666900634765625" lon="-118.5133964382112026214599609375">
        <ele>2021.5999755859375</ele>
        <time>2021-06-24T19:06:06.000Z</time>
        <extensions>
          <ns3:TrackPointExtension>
            <ns3:atemp>32.0</ns3:atemp>
            <ns3:hr>107</ns3:hr>
          </ns3:TrackPointExtension>
        </extensions>
      </trkpt>
      <trkpt lat="36.77792555652558803558349609375" lon="-118.51339065469801425933837890625">
        <ele>2021.5999755859375</ele>
        <time>2021-06-24T19:06:08.000Z</time>
        <extensions>
          <ns3:TrackPointExtension>
            <ns3:atemp>32.0</ns3:atemp>
            <ns3:hr>111</ns3:hr>
          </ns3:TrackPointExtension>
        </extensions>
      </trkpt>
      <trkpt lat="36.77792438305914402008056640625" lon="-118.51337338797748088836669921875">
        <ele>2022</ele>
        <time>2021-06-24T19:06:10.000Z</time>
        <extensions>
          <ns3:TrackPointExtension>
            <ns3:atemp>32.0</ns3:atemp>
            <ns3:hr>114</ns3:hr>
          </ns3:TrackPointExtension>
        </extensions>
      </trkpt>
      <trkpt lat="36.77792991511523723602294921875" lon="-118.5133391059935092926025390625">
        <ele>2022.5999755859375</ele>
        <time>2021-06-24T19:06:14.000Z</time>
        <extensions>
          <ns3:TrackPointExtension>
            <ns3:atemp>32.0</ns3:atemp>
            <ns3:hr>116</ns3:hr>
          </ns3:TrackPointExtension>
        </extensions>
      </trkpt>
      <trkpt lat="36.7779321782290935516357421875" lon="-118.5133142955601215362548828125">
        <ele>2022.800048828125</ele>
        <time>2021-06-24T19:06:16.000Z</time>
        <extensions>
          <ns3:TrackPointExtension>
            <ns3:atemp>32.0</ns3:atemp>
            <ns3:hr>116</ns3:hr>
          </ns3:TrackPointExtension>
        </extensions>
      </trkpt>
      <trkpt lat="36.77792991511523723602294921875" lon="-118.5132985375821590423583984375">
        <ele>2022.800048828125</ele>
        <time>2021-06-24T19:06:17.000Z</time>
        <extensions>
          <ns3:TrackPointExtension>
            <ns3:atemp>32.0</ns3:atemp>
            <ns3:hr>115</ns3:hr>
          </ns3:TrackPointExtension>
        </extensions>
      </trkpt>
      <trkpt lat="36.7779298312962055206298828125" lon="-118.51328286342322826385498046875">
        <ele>2023</ele>
        <time>2021-06-24T19:06:18.000Z</time>
        <extensions>
          <ns3:TrackPointExtension>
            <ns3:atemp>32.0</ns3:atemp>
            <ns3:hr>115</ns3:hr>
          </ns3:TrackPointExtension>
        </extensions>
      </trkpt>
      <trkpt lat="36.77791818045079708099365234375" lon="-118.51323299109935760498046875">
        <ele>2023.5999755859375</ele>
        <time>2021-06-24T19:06:24.000Z</time>
        <extensions>
          <ns3:TrackPointExtension>
            <ns3:atemp>32.0</ns3:atemp>
            <ns3:hr>114</ns3:hr>
          </ns3:TrackPointExtension>
        </extensions>
      </trkpt>
      <trkpt lat="36.7779194377362728118896484375" lon="-118.5132224299013614654541015625">
        <ele>2023.5999755859375</ele>
        <time>2021-06-24T19:06:25.000Z</time>
        <extensions>
          <ns3:TrackPointExtension>
            <ns3:atemp>32.0</ns3:atemp>
            <ns3:hr>114</ns3:hr>
          </ns3:TrackPointExtension>
        </extensions>
      </trkpt>
      <trkpt lat="36.77794265560805797576904296875" lon="-118.51313550956547260284423828125">
        <ele>2024.4000244140625</ele>
        <time>2021-06-24T19:06:32.000Z</time>
        <extensions>
          <ns3:TrackPointExtension>
            <ns3:atemp>32.0</ns3:atemp>
            <ns3:hr>113</ns3:hr>
          </ns3:TrackPointExtension>
        </extensions>
      </trkpt>
      <trkpt lat="36.77795103751122951507568359375" lon="-118.5131278820335865020751953125">
        <ele>2024.4000244140625</ele>
        <time>2021-06-24T19:06:33.000Z</time>
        <extensions>
          <ns3:TrackPointExtension>
            <ns3:atemp>32.0</ns3:atemp>
            <ns3:hr>112</ns3:hr>
          </ns3:TrackPointExtension>
        </extensions>
      </trkpt>
      <trkpt lat="36.77796595729887485504150390625" lon="-118.51310818456113338470458984375">
        <ele>2024.4000244140625</ele>
        <time>2021-06-24T19:06:36.000Z</time>
        <extensions>
          <ns3:TrackPointExtension>
            <ns3:atemp>32.0</ns3:atemp>
            <ns3:hr>109</ns3:hr>
          </ns3:TrackPointExtension>
        </extensions>
      </trkpt>
      <trkpt lat="36.7779690586030483245849609375" lon="-118.5131064243614673614501953125">
        <ele>2025</ele>
        <time>2021-06-24T19:06:37.000Z</time>
        <extensions>
          <ns3:TrackPointExtension>
            <ns3:atemp>32.0</ns3:atemp>
            <ns3:hr>109</ns3:hr>
          </ns3:TrackPointExtension>
        </extensions>
      </trkpt>
      <trkpt lat="36.7779737524688243865966796875" lon="-118.51309628225862979888916015625">
        <ele>2025.199951171875</ele>
        <time>2021-06-24T19:06:39.000Z</time>
        <extensions>
          <ns3:TrackPointExtension>
            <ns3:atemp>32.0</ns3:atemp>
            <ns3:hr>108</ns3:hr>
          </ns3:TrackPointExtension>
        </extensions>
      </trkpt>
      <trkpt lat="36.7779915221035480499267578125" lon="-118.5130356810986995697021484375">
        <ele>2026</ele>
        <time>2021-06-24T19:06:45.000Z</time>
        <extensions>
          <ns3:TrackPointExtension>
            <ns3:atemp>32.0</ns3:atemp>
            <ns3:hr>108</ns3:hr>
          </ns3:TrackPointExtension>
        </extensions>
      </trkpt>
      <trkpt lat="36.77799336612224578857421875" lon="-118.51302403025329113006591796875">
        <ele>2026</ele>
        <time>2021-06-24T19:06:46.000Z</time>
        <extensions>
          <ns3:TrackPointExtension>
            <ns3:atemp>32.0</ns3:atemp>
            <ns3:hr>107</ns3:hr>
          </ns3:TrackPointExtension>
        </extensions>
      </trkpt>
      <trkpt lat="36.7779926955699920654296875" lon="-118.51300366222858428955078125">
        <ele>2026</ele>
        <time>2021-06-24T19:06:48.000Z</time>
        <extensions>
          <ns3:TrackPointExtension>
            <ns3:atemp>32.0</ns3:atemp>
            <ns3:hr>109</ns3:hr>
          </ns3:TrackPointExtension>
        </extensions>
      </trkpt>
      <trkpt lat="36.778001748025417327880859375" lon="-118.51290551014244556427001953125">
        <ele>2027</ele>
        <time>2021-06-24T19:06:54.000Z</time>
        <extensions>
          <ns3:TrackPointExtension>
            <ns3:atemp>32.0</ns3:atemp>
            <ns3:hr>108</ns3:hr>
          </ns3:TrackPointExtension>
        </extensions>
      </trkpt>
      <trkpt lat="36.77799982018768787384033203125" lon="-118.5128958709537982940673828125">
        <ele>2027</ele>
        <time>2021-06-24T19:06:55.000Z</time>
        <extensions>
          <ns3:TrackPointExtension>
            <ns3:atemp>32.0</ns3:atemp>
            <ns3:hr>108</ns3:hr>
          </ns3:TrackPointExtension>
        </extensions>
      </trkpt>
      <trkpt lat="36.77799814380705356597900390625" lon="-118.512887991964817047119140625">
        <ele>2027</ele>
        <time>2021-06-24T19:06:56.000Z</time>
        <extensions>
          <ns3:TrackPointExtension>
            <ns3:atemp>32.0</ns3:atemp>
            <ns3:hr>108</ns3:hr>
          </ns3:TrackPointExtension>
        </extensions>
      </trkpt>
      <trkpt lat="36.7779972217977046966552734375" lon="-118.512880615890026092529296875">
        <ele>2027.199951171875</ele>
        <time>2021-06-24T19:06:57.000Z</time>
        <extensions>
          <ns3:TrackPointExtension>
            <ns3:atemp>32.0</ns3:atemp>
            <ns3:hr>108</ns3:hr>
          </ns3:TrackPointExtension>
        </extensions>
      </trkpt>
      <trkpt lat="36.77800602279603481292724609375" lon="-118.51281951181590557098388671875">
        <ele>2027.800048828125</ele>
        <time>2021-06-24T19:07:01.000Z</time>
        <extensions>
          <ns3:TrackPointExtension>
            <ns3:atemp>32.0</ns3:atemp>
            <ns3:hr>108</ns3:hr>
          </ns3:TrackPointExtension>
        </extensions>
      </trkpt>
      <trkpt lat="36.7780039273202419281005859375" lon="-118.51280291564762592315673828125">
        <ele>2027.800048828125</ele>
        <time>2021-06-24T19:07:02.000Z</time>
        <extensions>
          <ns3:TrackPointExtension>
            <ns3:atemp>32.0</ns3:atemp>
            <ns3:hr>109</ns3:hr>
          </ns3:TrackPointExtension>
        </extensions>
      </trkpt>
      <trkpt lat="36.7779891751706600189208984375" lon="-118.51278581656515598297119140625">
        <ele>2028</ele>
        <time>2021-06-24T19:07:04.000Z</time>
        <extensions>
          <ns3:TrackPointExtension>
            <ns3:atemp>32.0</ns3:atemp>
            <ns3:hr>109</ns3:hr>
          </ns3:TrackPointExtension>
        </extensions>
      </trkpt>
      <trkpt lat="36.77798205055296421051025390625" lon="-118.5127476789057254791259765625">
        <ele>2028.199951171875</ele>
        <time>2021-06-24T19:07:08.000Z</time>
        <extensions>
          <ns3:TrackPointExtension>
            <ns3:atemp>32.0</ns3:atemp>
            <ns3:hr>109</ns3:hr>
          </ns3:TrackPointExtension>
        </extensions>
      </trkpt>
      <trkpt lat="36.77798490040004253387451171875" lon="-118.51273938082158565521240234375">
        <ele>2028.199951171875</ele>
        <time>2021-06-24T19:07:09.000Z</time>
        <extensions>
          <ns3:TrackPointExtension>
            <ns3:atemp>32.0</ns3:atemp>
            <ns3:hr>109</ns3:hr>
          </ns3:TrackPointExtension>
        </extensions>
      </trkpt>
      <trkpt lat="36.777991019189357757568359375" lon="-118.51263175718486309051513671875">
        <ele>2028.800048828125</ele>
        <time>2021-06-24T19:07:17.000Z</time>
        <extensions>
          <ns3:TrackPointExtension>
            <ns3:atemp>32.0</ns3:atemp>
            <ns3:hr>109</ns3:hr>
          </ns3:TrackPointExtension>
        </extensions>
      </trkpt>
      <trkpt lat="36.77795858122408390045166015625" lon="-118.51254642941057682037353515625">
        <ele>2029.199951171875</ele>
        <time>2021-06-24T19:07:23.000Z</time>
        <extensions>
          <ns3:TrackPointExtension>
            <ns3:atemp>32.0</ns3:atemp>
            <ns3:hr>108</ns3:hr>
          </ns3:TrackPointExtension>
        </extensions>
      </trkpt>
      <trkpt lat="36.77796042524278163909912109375" lon="-118.5125268995761871337890625">
        <ele>2029.4000244140625</ele>
        <time>2021-06-24T19:07:24.000Z</time>
        <extensions>
          <ns3:TrackPointExtension>
            <ns3:atemp>32.0</ns3:atemp>
            <ns3:hr>108</ns3:hr>
          </ns3:TrackPointExtension>
        </extensions>
      </trkpt>
      <trkpt lat="36.7779551446437835693359375" lon="-118.5124586708843708038330078125">
        <ele>2029.5999755859375</ele>
        <time>2021-06-24T19:07:29.000Z</time>
        <extensions>
          <ns3:TrackPointExtension>
            <ns3:atemp>32.0</ns3:atemp>
            <ns3:hr>105</ns3:hr>
          </ns3:TrackPointExtension>
        </extensions>
      </trkpt>
      <trkpt lat="36.7779519595205783843994140625" lon="-118.51244769059121608734130859375">
        <ele>2029.5999755859375</ele>
        <time>2021-06-24T19:07:30.000Z</time>
        <extensions>
          <ns3:TrackPointExtension>
            <ns3:atemp>32.0</ns3:atemp>
            <ns3:hr>106</ns3:hr>
          </ns3:TrackPointExtension>
        </extensions>
      </trkpt>
      <trkpt lat="36.77793444134294986724853515625" lon="-118.512351550161838531494140625">
        <ele>2030</ele>
        <time>2021-06-24T19:07:37.000Z</time>
        <extensions>
          <ns3:TrackPointExtension>
            <ns3:atemp>32.0</ns3:atemp>
            <ns3:hr>103</ns3:hr>
          </ns3:TrackPointExtension>
        </extensions>
      </trkpt>
      <trkpt lat="36.77793611772358417510986328125" lon="-118.51234576664865016937255859375">
        <ele>2030</ele>
        <time>2021-06-24T19:07:38.000Z</time>
        <extensions>
          <ns3:TrackPointExtension>
            <ns3:atemp>32.0</ns3:atemp>
            <ns3:hr>102</ns3:hr>
          </ns3:TrackPointExtension>
        </extensions>
      </trkpt>
      <trkpt lat="36.77793192677199840545654296875" lon="-118.51233704946935176849365234375">
        <ele>2030</ele>
        <time>2021-06-24T19:07:39.000Z</time>
        <extensions>
          <ns3:TrackPointExtension>
            <ns3:atemp>32.0</ns3:atemp>
            <ns3:hr>101</ns3:hr>
          </ns3:TrackPointExtension>
        </extensions>
      </trkpt>
      <trkpt lat="36.7779060266911983489990234375" lon="-118.5123064555227756500244140625">
        <ele>2030</ele>
        <time>2021-06-24T19:07:43.000Z</time>
        <extensions>
          <ns3:TrackPointExtension>
            <ns3:atemp>32.0</ns3:atemp>
            <ns3:hr>99</ns3:hr>
          </ns3:TrackPointExtension>
        </extensions>
      </trkpt>
      <trkpt lat="36.77790259011089801788330078125" lon="-118.5122974030673503875732421875">
        <ele>2029.5999755859375</ele>
        <time>2021-06-24T19:07:45.000Z</time>
        <extensions>
          <ns3:TrackPointExtension>
            <ns3:atemp>32.0</ns3:atemp>
            <ns3:hr>98</ns3:hr>
          </ns3:TrackPointExtension>
        </extensions>
      </trkpt>
      <trkpt lat="36.777905859053134918212890625" lon="-118.51227954961359500885009765625">
        <ele>2029.5999755859375</ele>
        <time>2021-06-24T19:07:47.000Z</time>
        <extensions>
          <ns3:TrackPointExtension>
            <ns3:atemp>32.0</ns3:atemp>
            <ns3:hr>97</ns3:hr>
          </ns3:TrackPointExtension>
        </extensions>
      </trkpt>
      <trkpt lat="36.7779003269970417022705078125" lon="-118.512253649532794952392578125">
        <ele>2030</ele>
        <time>2021-06-24T19:07:50.000Z</time>
        <extensions>
          <ns3:TrackPointExtension>
            <ns3:atemp>32.0</ns3:atemp>
            <ns3:hr>96</ns3:hr>
          </ns3:TrackPointExtension>
        </extensions>
      </trkpt>
      <trkpt lat="36.7779016681015491485595703125" lon="-118.512240909039974212646484375">
        <ele>2030.199951171875</ele>
        <time>2021-06-24T19:07:51.000Z</time>
        <extensions>
          <ns3:TrackPointExtension>
            <ns3:atemp>32.0</ns3:atemp>
            <ns3:hr>95</ns3:hr>
          </ns3:TrackPointExtension>
        </extensions>
      </trkpt>
      <trkpt lat="36.77790225483477115631103515625" lon="-118.512230850756168365478515625">
        <ele>2030.5999755859375</ele>
        <time>2021-06-24T19:07:52.000Z</time>
        <extensions>
          <ns3:TrackPointExtension>
            <ns3:atemp>32.0</ns3:atemp>
            <ns3:hr>95</ns3:hr>
          </ns3:TrackPointExtension>
        </extensions>
      </trkpt>
      <trkpt lat="36.77790141664445400238037109375" lon="-118.51220360957086086273193359375">
        <ele>2031</ele>
        <time>2021-06-24T19:07:54.000Z</time>
        <extensions>
          <ns3:TrackPointExtension>
            <ns3:atemp>32.0</ns3:atemp>
            <ns3:hr>94</ns3:hr>
          </ns3:TrackPointExtension>
        </extensions>
      </trkpt>
      <trkpt lat="36.7779003269970417022705078125" lon="-118.51215549744665622711181640625">
        <ele>2031.800048828125</ele>
        <time>2021-06-24T19:07:58.000Z</time>
        <extensions>
          <ns3:TrackPointExtension>
            <ns3:atemp>32.0</ns3:atemp>
            <ns3:hr>95</ns3:hr>
          </ns3:TrackPointExtension>
        </extensions>
      </trkpt>
      <trkpt lat="36.777898482978343963623046875" lon="-118.51214342750608921051025390625">
        <ele>2031.800048828125</ele>
        <time>2021-06-24T19:07:59.000Z</time>
        <extensions>
          <ns3:TrackPointExtension>
            <ns3:atemp>32.0</ns3:atemp>
            <ns3:hr>95</ns3:hr>
          </ns3:TrackPointExtension>
        </extensions>
      </trkpt>
      <trkpt lat="36.77790393121540546417236328125" lon="-118.512135632336139678955078125">
        <ele>2032</ele>
        <time>2021-06-24T19:08:01.000Z</time>
        <extensions>
          <ns3:TrackPointExtension>
            <ns3:atemp>32.0</ns3:atemp>
            <ns3:hr>98</ns3:hr>
          </ns3:TrackPointExtension>
        </extensions>
      </trkpt>
      <trkpt lat="36.77791021764278411865234375" lon="-118.51213403977453708648681640625">
        <ele>2032.199951171875</ele>
        <time>2021-06-24T19:08:02.000Z</time>
        <extensions>
          <ns3:TrackPointExtension>
            <ns3:atemp>32.0</ns3:atemp>
            <ns3:hr>97</ns3:hr>
          </ns3:TrackPointExtension>
        </extensions>
      </trkpt>
      <trkpt lat="36.7779197730123996734619140625" lon="-118.51212121546268463134765625">
        <ele>2032.4000244140625</ele>
        <time>2021-06-24T19:08:04.000Z</time>
        <extensions>
          <ns3:TrackPointExtension>
            <ns3:atemp>32.0</ns3:atemp>
            <ns3:hr>96</ns3:hr>
          </ns3:TrackPointExtension>
        </extensions>
      </trkpt>
      <trkpt lat="36.77791784517467021942138671875" lon="-118.51210352964699268341064453125">
        <ele>2033</ele>
        <time>2021-06-24T19:08:05.000Z</time>
        <extensions>
          <ns3:TrackPointExtension>
            <ns3:atemp>32.0</ns3:atemp>
            <ns3:hr>94</ns3:hr>
          </ns3:TrackPointExtension>
        </extensions>
      </trkpt>
      <trkpt lat="36.777913905680179595947265625" lon="-118.51209313608705997467041015625">
        <ele>2033.199951171875</ele>
        <time>2021-06-24T19:08:06.000Z</time>
        <extensions>
          <ns3:TrackPointExtension>
            <ns3:atemp>32.0</ns3:atemp>
            <ns3:hr>91</ns3:hr>
          </ns3:TrackPointExtension>
        </extensions>
      </trkpt>
      <trkpt lat="36.77791667170822620391845703125" lon="-118.51208223961293697357177734375">
        <ele>2033.199951171875</ele>
        <time>2021-06-24T19:08:07.000Z</time>
        <extensions>
          <ns3:TrackPointExtension>
            <ns3:atemp>32.0</ns3:atemp>
            <ns3:hr>92</ns3:hr>
          </ns3:TrackPointExtension>
        </extensions>
      </trkpt>
      <trkpt lat="36.77792170085012912750244140625" lon="-118.51206748746335506439208984375">
        <ele>2034</ele>
        <time>2021-06-24T19:08:09.000Z</time>
        <extensions>
          <ns3:TrackPointExtension>
            <ns3:atemp>32.0</ns3:atemp>
            <ns3:hr>95</ns3:hr>
          </ns3:TrackPointExtension>
        </extensions>
      </trkpt>
      <trkpt lat="36.77791893482208251953125" lon="-118.5120479576289653778076171875">
        <ele>2034</ele>
        <time>2021-06-24T19:08:11.000Z</time>
        <extensions>
          <ns3:TrackPointExtension>
            <ns3:atemp>32.0</ns3:atemp>
            <ns3:hr>101</ns3:hr>
          </ns3:TrackPointExtension>
        </extensions>
      </trkpt>
      <trkpt lat="36.77791918627917766571044921875" lon="-118.51203739643096923828125">
        <ele>2034.199951171875</ele>
        <time>2021-06-24T19:08:12.000Z</time>
        <extensions>
          <ns3:TrackPointExtension>
            <ns3:atemp>32.0</ns3:atemp>
            <ns3:hr>104</ns3:hr>
          </ns3:TrackPointExtension>
        </extensions>
      </trkpt>
      <trkpt lat="36.777923293411731719970703125" lon="-118.51202876307070255279541015625">
        <ele>2034.199951171875</ele>
        <time>2021-06-24T19:08:13.000Z</time>
        <extensions>
          <ns3:TrackPointExtension>
            <ns3:atemp>32.0</ns3:atemp>
            <ns3:hr>108</ns3:hr>
          </ns3:TrackPointExtension>
        </extensions>
      </trkpt>
      <trkpt lat="36.77793293260037899017333984375" lon="-118.51201518438756465911865234375">
        <ele>2034.4000244140625</ele>
        <time>2021-06-24T19:08:15.000Z</time>
        <extensions>
          <ns3:TrackPointExtension>
            <ns3:atemp>32.0</ns3:atemp>
            <ns3:hr>114</ns3:hr>
          </ns3:TrackPointExtension>
        </extensions>
      </trkpt>
      <trkpt lat="36.77793762646615505218505859375" lon="-118.5120070539414882659912109375">
        <ele>2035</ele>
        <time>2021-06-24T19:08:16.000Z</time>
        <extensions>
          <ns3:TrackPointExtension>
            <ns3:atemp>32.0</ns3:atemp>
            <ns3:hr>117</ns3:hr>
          </ns3:TrackPointExtension>
        </extensions>
      </trkpt>
      <trkpt lat="36.77794039249420166015625" lon="-118.51199649274349212646484375">
        <ele>2035.199951171875</ele>
        <time>2021-06-24T19:08:17.000Z</time>
        <extensions>
          <ns3:TrackPointExtension>
            <ns3:atemp>32.0</ns3:atemp>
            <ns3:hr>119</ns3:hr>
          </ns3:TrackPointExtension>
        </extensions>
      </trkpt>
      <trkpt lat="36.77794198505580425262451171875" lon="-118.51198819465935230255126953125">
        <ele>2035.199951171875</ele>
        <time>2021-06-24T19:08:18.000Z</time>
        <extensions>
          <ns3:TrackPointExtension>
            <ns3:atemp>32.0</ns3:atemp>
            <ns3:hr>121</ns3:hr>
          </ns3:TrackPointExtension>
        </extensions>
      </trkpt>
      <trkpt lat="36.77793980576097965240478515625" lon="-118.5119631327688694000244140625">
        <ele>2035.4000244140625</ele>
        <time>2021-06-24T19:08:20.000Z</time>
        <extensions>
          <ns3:TrackPointExtension>
            <ns3:atemp>32.0</ns3:atemp>
            <ns3:hr>122</ns3:hr>
          </ns3:TrackPointExtension>
        </extensions>
      </trkpt>
      <trkpt lat="36.77791063673794269561767578125" lon="-118.51192650385200977325439453125">
        <ele>2036</ele>
        <time>2021-06-24T19:08:24.000Z</time>
        <extensions>
          <ns3:TrackPointExtension>
            <ns3:atemp>32.0</ns3:atemp>
            <ns3:hr>122</ns3:hr>
          </ns3:TrackPointExtension>
        </extensions>
      </trkpt>
      <trkpt lat="36.777900494635105133056640625" lon="-118.51192130707204341888427734375">
        <ele>2036.199951171875</ele>
        <time>2021-06-24T19:08:25.000Z</time>
        <extensions>
          <ns3:TrackPointExtension>
            <ns3:atemp>32.0</ns3:atemp>
            <ns3:hr>122</ns3:hr>
          </ns3:TrackPointExtension>
        </extensions>
      </trkpt>
      <trkpt lat="36.77788817323744297027587890625" lon="-118.51191745139658451080322265625">
        <ele>2036.199951171875</ele>
        <time>2021-06-24T19:08:26.000Z</time>
        <extensions>
          <ns3:TrackPointExtension>
            <ns3:atemp>32.0</ns3:atemp>
            <ns3:hr>121</ns3:hr>
          </ns3:TrackPointExtension>
        </extensions>
      </trkpt>
      <trkpt lat="36.77787677384912967681884765625" lon="-118.51191208697855472564697265625">
        <ele>2036.199951171875</ele>
        <time>2021-06-24T19:08:27.000Z</time>
        <extensions>
          <ns3:TrackPointExtension>
            <ns3:atemp>32.0</ns3:atemp>
            <ns3:hr>121</ns3:hr>
          </ns3:TrackPointExtension>
        </extensions>
      </trkpt>
      <trkpt lat="36.7778453417122364044189453125" lon="-118.5118749551475048065185546875">
        <ele>2036.5999755859375</ele>
        <time>2021-06-24T19:08:31.000Z</time>
        <extensions>
          <ns3:TrackPointExtension>
            <ns3:atemp>32.0</ns3:atemp>
            <ns3:hr>121</ns3:hr>
          </ns3:TrackPointExtension>
        </extensions>
      </trkpt>
      <trkpt lat="36.77785447798669338226318359375" lon="-118.5118281841278076171875">
        <ele>2037</ele>
        <time>2021-06-24T19:08:35.000Z</time>
        <extensions>
          <ns3:TrackPointExtension>
            <ns3:atemp>32.0</ns3:atemp>
            <ns3:hr>122</ns3:hr>
          </ns3:TrackPointExtension>
        </extensions>
      </trkpt>
      <trkpt lat="36.777855567634105682373046875" lon="-118.51181988604366779327392578125">
        <ele>2037.199951171875</ele>
        <time>2021-06-24T19:08:36.000Z</time>
        <extensions>
          <ns3:TrackPointExtension>
            <ns3:atemp>32.0</ns3:atemp>
            <ns3:hr>123</ns3:hr>
          </ns3:TrackPointExtension>
        </extensions>
      </trkpt>
      <trkpt lat="36.777848862111568450927734375" lon="-118.51181670092046260833740234375">
        <ele>2037.800048828125</ele>
        <time>2021-06-24T19:08:37.000Z</time>
        <extensions>
          <ns3:TrackPointExtension>
            <ns3:atemp>32.0</ns3:atemp>
            <ns3:hr>123</ns3:hr>
          </ns3:TrackPointExtension>
        </extensions>
      </trkpt>
      <trkpt lat="36.7778423242270946502685546875" lon="-118.51178099401295185089111328125">
        <ele>2038.199951171875</ele>
        <time>2021-06-24T19:08:41.000Z</time>
        <extensions>
          <ns3:TrackPointExtension>
            <ns3:atemp>32.0</ns3:atemp>
            <ns3:hr>120</ns3:hr>
          </ns3:TrackPointExtension>
        </extensions>
      </trkpt>
      <trkpt lat="36.77783922292292118072509765625" lon="-118.511770851910114288330078125">
        <ele>2038.4000244140625</ele>
        <time>2021-06-24T19:08:42.000Z</time>
        <extensions>
          <ns3:TrackPointExtension>
            <ns3:atemp>32.0</ns3:atemp>
            <ns3:hr>117</ns3:hr>
          </ns3:TrackPointExtension>
        </extensions>
      </trkpt>
      <trkpt lat="36.777832768857479095458984375" lon="-118.51175400428473949432373046875">
        <ele>2038.800048828125</ele>
        <time>2021-06-24T19:08:44.000Z</time>
        <extensions>
          <ns3:TrackPointExtension>
            <ns3:atemp>32.0</ns3:atemp>
            <ns3:hr>118</ns3:hr>
          </ns3:TrackPointExtension>
        </extensions>
      </trkpt>
      <trkpt lat="36.77782933227717876434326171875" lon="-118.511744029819965362548828125">
        <ele>2038.800048828125</ele>
        <time>2021-06-24T19:08:45.000Z</time>
        <extensions>
          <ns3:TrackPointExtension>
            <ns3:atemp>32.0</ns3:atemp>
            <ns3:hr>119</ns3:hr>
          </ns3:TrackPointExtension>
        </extensions>
      </trkpt>
      <trkpt lat="36.7778305895626544952392578125" lon="-118.5117354802787303924560546875">
        <ele>2038.800048828125</ele>
        <time>2021-06-24T19:08:46.000Z</time>
        <extensions>
          <ns3:TrackPointExtension>
            <ns3:atemp>32.0</ns3:atemp>
            <ns3:hr>122</ns3:hr>
          </ns3:TrackPointExtension>
        </extensions>
      </trkpt>
      <trkpt lat="36.77782899700105190277099609375" lon="-118.5116949118673801422119140625">
        <ele>2038.800048828125</ele>
        <time>2021-06-24T19:08:50.000Z</time>
        <extensions>
          <ns3:TrackPointExtension>
            <ns3:atemp>32.0</ns3:atemp>
            <ns3:hr>121</ns3:hr>
          </ns3:TrackPointExtension>
        </extensions>
      </trkpt>
      <trkpt lat="36.7778175137937068939208984375" lon="-118.511668257415294647216796875">
        <ele>2038.199951171875</ele>
        <time>2021-06-24T19:08:53.000Z</time>
        <extensions>
          <ns3:TrackPointExtension>
            <ns3:atemp>32.0</ns3:atemp>
            <ns3:hr>121</ns3:hr>
          </ns3:TrackPointExtension>
        </extensions>
      </trkpt>
      <trkpt lat="36.77780871279537677764892578125" lon="-118.5116516612470149993896484375">
        <ele>2038</ele>
        <time>2021-06-24T19:08:55.000Z</time>
        <extensions>
          <ns3:TrackPointExtension>
            <ns3:atemp>32.0</ns3:atemp>
            <ns3:hr>123</ns3:hr>
          </ns3:TrackPointExtension>
        </extensions>
      </trkpt>
      <trkpt lat="36.77779798395931720733642578125" lon="-118.51163699291646480560302734375">
        <ele>2038</ele>
        <time>2021-06-24T19:08:57.000Z</time>
        <extensions>
          <ns3:TrackPointExtension>
            <ns3:atemp>32.0</ns3:atemp>
            <ns3:hr>120</ns3:hr>
          </ns3:TrackPointExtension>
        </extensions>
      </trkpt>
      <trkpt lat="36.7777826450765132904052734375" lon="-118.511629365384578704833984375">
        <ele>2037.800048828125</ele>
        <time>2021-06-24T19:08:59.000Z</time>
        <extensions>
          <ns3:TrackPointExtension>
            <ns3:atemp>32.0</ns3:atemp>
            <ns3:hr>117</ns3:hr>
          </ns3:TrackPointExtension>
        </extensions>
      </trkpt>
      <trkpt lat="36.7777715809643268585205078125" lon="-118.51163079030811786651611328125">
        <ele>2037.4000244140625</ele>
        <time>2021-06-24T19:09:00.000Z</time>
        <extensions>
          <ns3:TrackPointExtension>
            <ns3:atemp>32.0</ns3:atemp>
            <ns3:hr>116</ns3:hr>
          </ns3:TrackPointExtension>
        </extensions>
      </trkpt>
      <trkpt lat="36.77774257957935333251953125" lon="-118.5116191394627094268798828125">
        <ele>2037</ele>
        <time>2021-06-24T19:09:02.000Z</time>
        <extensions>
          <ns3:TrackPointExtension>
            <ns3:atemp>32.0</ns3:atemp>
            <ns3:hr>115</ns3:hr>
          </ns3:TrackPointExtension>
        </extensions>
      </trkpt>
      <trkpt lat="36.777726151049137115478515625" lon="-118.511628694832324981689453125">
        <ele>2036.199951171875</ele>
        <time>2021-06-24T19:09:04.000Z</time>
        <extensions>
          <ns3:TrackPointExtension>
            <ns3:atemp>32.0</ns3:atemp>
            <ns3:hr>114</ns3:hr>
          </ns3:TrackPointExtension>
        </extensions>
      </trkpt>
      <trkpt lat="36.77769538946449756622314453125" lon="-118.5116851888597011566162109375">
        <ele>2035.5999755859375</ele>
        <time>2021-06-24T19:09:09.000Z</time>
        <extensions>
          <ns3:TrackPointExtension>
            <ns3:atemp>32.0</ns3:atemp>
            <ns3:hr>111</ns3:hr>
          </ns3:TrackPointExtension>
        </extensions>
      </trkpt>
      <trkpt lat="36.77768281660974025726318359375" lon="-118.51168242283165454864501953125">
        <ele>2035.4000244140625</ele>
        <time>2021-06-24T19:09:11.000Z</time>
        <extensions>
          <ns3:TrackPointExtension>
            <ns3:atemp>32.0</ns3:atemp>
            <ns3:hr>112</ns3:hr>
          </ns3:TrackPointExtension>
        </extensions>
      </trkpt>
      <trkpt lat="36.77767409943044185638427734375" lon="-118.51169734261929988861083984375">
        <ele>2034.5999755859375</ele>
        <time>2021-06-24T19:09:13.000Z</time>
        <extensions>
          <ns3:TrackPointExtension>
            <ns3:atemp>32.0</ns3:atemp>
            <ns3:hr>112</ns3:hr>
          </ns3:TrackPointExtension>
        </extensions>
      </trkpt>
      <trkpt lat="36.77767217159271240234375" lon="-118.51169935427606105804443359375">
        <ele>2034.5999755859375</ele>
        <time>2021-06-24T19:09:14.000Z</time>
        <extensions>
          <ns3:TrackPointExtension>
            <ns3:atemp>32.0</ns3:atemp>
            <ns3:hr>109</ns3:hr>
          </ns3:TrackPointExtension>
        </extensions>
      </trkpt>
      <trkpt lat="36.77765666507184505462646484375" lon="-118.5116932354867458343505859375">
        <ele>2034</ele>
        <time>2021-06-24T19:09:17.000Z</time>
        <extensions>
          <ns3:TrackPointExtension>
            <ns3:atemp>32.0</ns3:atemp>
            <ns3:hr>106</ns3:hr>
          </ns3:TrackPointExtension>
        </extensions>
      </trkpt>
      <trkpt lat="36.777652390301227569580078125" lon="-118.51169382221996784210205078125">
        <ele>2033.4000244140625</ele>
        <time>2021-06-24T19:09:18.000Z</time>
        <extensions>
          <ns3:TrackPointExtension>
            <ns3:atemp>32.0</ns3:atemp>
            <ns3:hr>106</ns3:hr>
          </ns3:TrackPointExtension>
        </extensions>
      </trkpt>
      <trkpt lat="36.77765331231057643890380859375" lon="-118.51168493740260601043701171875">
        <ele>2032.4000244140625</ele>
        <time>2021-06-24T19:09:24.000Z</time>
        <extensions>
          <ns3:TrackPointExtension>
            <ns3:atemp>32.0</ns3:atemp>
            <ns3:hr>106</ns3:hr>
          </ns3:TrackPointExtension>
        </extensions>
      </trkpt>
      <trkpt lat="36.77766001783311367034912109375" lon="-118.51167839951813220977783203125">
        <ele>2032</ele>
        <time>2021-06-24T19:09:25.000Z</time>
        <extensions>
          <ns3:TrackPointExtension>
            <ns3:atemp>32.0</ns3:atemp>
            <ns3:hr>106</ns3:hr>
          </ns3:TrackPointExtension>
        </extensions>
      </trkpt>
      <trkpt lat="36.77769505418837070465087890625" lon="-118.51164084859192371368408203125">
        <ele>2031.4000244140625</ele>
        <time>2021-06-24T19:09:29.000Z</time>
        <extensions>
          <ns3:TrackPointExtension>
            <ns3:atemp>32.0</ns3:atemp>
            <ns3:hr>103</ns3:hr>
          </ns3:TrackPointExtension>
        </extensions>
      </trkpt>
      <trkpt lat="36.7777139134705066680908203125" lon="-118.511615283787250518798828125">
        <ele>2031</ele>
        <time>2021-06-24T19:09:31.000Z</time>
        <extensions>
          <ns3:TrackPointExtension>
            <ns3:atemp>32.0</ns3:atemp>
            <ns3:hr>103</ns3:hr>
          </ns3:TrackPointExtension>
        </extensions>
      </trkpt>
      <trkpt lat="36.77771709859371185302734375" lon="-118.511600531637668609619140625">
        <ele>2030.800048828125</ele>
        <time>2021-06-24T19:09:32.000Z</time>
        <extensions>
          <ns3:TrackPointExtension>
            <ns3:atemp>32.0</ns3:atemp>
            <ns3:hr>104</ns3:hr>
          </ns3:TrackPointExtension>
        </extensions>
      </trkpt>
      <trkpt lat="36.777716092765331268310546875" lon="-118.51156373508274555206298828125">
        <ele>2031</ele>
        <time>2021-06-24T19:09:36.000Z</time>
        <extensions>
          <ns3:TrackPointExtension>
            <ns3:atemp>32.0</ns3:atemp>
            <ns3:hr>103</ns3:hr>
          </ns3:TrackPointExtension>
        </extensions>
      </trkpt>
      <trkpt lat="36.77772271446883678436279296875" lon="-118.5115654952824115753173828125">
        <ele>2031</ele>
        <time>2021-06-24T19:09:38.000Z</time>
        <extensions>
          <ns3:TrackPointExtension>
            <ns3:atemp>32.0</ns3:atemp>
            <ns3:hr>102</ns3:hr>
          </ns3:TrackPointExtension>
        </extensions>
      </trkpt>
      <trkpt lat="36.77773495204746723175048828125" lon="-118.51157672703266143798828125">
        <ele>2031</ele>
        <time>2021-06-24T19:09:42.000Z</time>
        <extensions>
          <ns3:TrackPointExtension>
            <ns3:atemp>32.0</ns3:atemp>
            <ns3:hr>100</ns3:hr>
          </ns3:TrackPointExtension>
        </extensions>
      </trkpt>
      <trkpt lat="36.77773914299905300140380859375" lon="-118.51156725548207759857177734375">
        <ele>2031</ele>
        <time>2021-06-24T19:09:48.000Z</time>
        <extensions>
          <ns3:TrackPointExtension>
            <ns3:atemp>32.0</ns3:atemp>
            <ns3:hr>102</ns3:hr>
          </ns3:TrackPointExtension>
        </extensions>
      </trkpt>
      <trkpt lat="36.777743585407733917236328125" lon="-118.5115452110767364501953125">
        <ele>2031</ele>
        <time>2021-06-24T19:09:54.000Z</time>
        <extensions>
          <ns3:TrackPointExtension>
            <ns3:atemp>32.0</ns3:atemp>
            <ns3:hr>103</ns3:hr>
          </ns3:TrackPointExtension>
        </extensions>
      </trkpt>
      <trkpt lat="36.77774165757000446319580078125" lon="-118.51153783500194549560546875">
        <ele>2031</ele>
        <time>2021-06-24T19:10:01.000Z</time>
        <extensions>
          <ns3:TrackPointExtension>
            <ns3:atemp>32.0</ns3:atemp>
            <ns3:hr>100</ns3:hr>
          </ns3:TrackPointExtension>
        </extensions>
      </trkpt>
      <trkpt lat="36.77774165757000446319580078125" lon="-118.51153783500194549560546875">
        <ele>2031</ele>
        <time>2021-06-24T19:10:03.000Z</time>
        <extensions>
          <ns3:TrackPointExtension>
            <ns3:atemp>32.0</ns3:atemp>
            <ns3:hr>90</ns3:hr>
          </ns3:TrackPointExtension>
        </extensions>
      </trkpt>
      <trkpt lat="36.77774165757000446319580078125" lon="-118.51153783500194549560546875">
        <ele>2031</ele>
        <time>2021-06-24T19:10:04.000Z</time>
        <extensions>
          <ns3:TrackPointExtension>
            <ns3:atemp>32.0</ns3:atemp>
            <ns3:hr>90</ns3:hr>
          </ns3:TrackPointExtension>
        </extensions>
      </trkpt>
      <trkpt lat="36.777741573750972747802734375" lon="-118.5115487314760684967041015625">
        <ele>2031</ele>
        <time>2021-06-24T19:10:14.000Z</time>
        <extensions>
          <ns3:TrackPointExtension>
            <ns3:atemp>32.0</ns3:atemp>
            <ns3:hr>87</ns3:hr>
          </ns3:TrackPointExtension>
        </extensions>
      </trkpt>
      <trkpt lat="36.77773277275264263153076171875" lon="-118.51155116222798824310302734375">
        <ele>2031.199951171875</ele>
        <time>2021-06-24T19:10:17.000Z</time>
        <extensions>
          <ns3:TrackPointExtension>
            <ns3:atemp>32.0</ns3:atemp>
            <ns3:hr>84</ns3:hr>
          </ns3:TrackPointExtension>
        </extensions>
      </trkpt>
      <trkpt lat="36.7777159251272678375244140625" lon="-118.5115658305585384368896484375">
        <ele>2031.199951171875</ele>
        <time>2021-06-24T19:10:21.000Z</time>
        <extensions>
          <ns3:TrackPointExtension>
            <ns3:atemp>32.0</ns3:atemp>
            <ns3:hr>81</ns3:hr>
          </ns3:TrackPointExtension>
        </extensions>
      </trkpt>
      <trkpt lat="36.77769052796065807342529296875" lon="-118.51155132986605167388916015625">
        <ele>2031.5999755859375</ele>
        <time>2021-06-24T19:10:32.000Z</time>
        <extensions>
          <ns3:TrackPointExtension>
            <ns3:atemp>32.0</ns3:atemp>
            <ns3:hr>78</ns3:hr>
          </ns3:TrackPointExtension>
        </extensions>
      </trkpt>
      <trkpt lat="36.77767929621040821075439453125" lon="-118.51154278032481670379638671875">
        <ele>2031.5999755859375</ele>
        <time>2021-06-24T19:10:33.000Z</time>
        <extensions>
          <ns3:TrackPointExtension>
            <ns3:atemp>32.0</ns3:atemp>
            <ns3:hr>77</ns3:hr>
          </ns3:TrackPointExtension>
        </extensions>
      </trkpt>
      <trkpt lat="36.77766806446015834808349609375" lon="-118.51152098737657070159912109375">
        <ele>2031.800048828125</ele>
        <time>2021-06-24T19:10:35.000Z</time>
        <extensions>
          <ns3:TrackPointExtension>
            <ns3:atemp>31.0</ns3:atemp>
            <ns3:hr>73</ns3:hr>
          </ns3:TrackPointExtension>
        </extensions>
      </trkpt>
      <trkpt lat="36.77765649743378162384033203125" lon="-118.51149902679026126861572265625">
        <ele>2032</ele>
        <time>2021-06-24T19:10:37.000Z</time>
        <extensions>
          <ns3:TrackPointExtension>
            <ns3:atemp>31.0</ns3:atemp>
            <ns3:hr>75</ns3:hr>
          </ns3:TrackPointExtension>
        </extensions>
      </trkpt>
      <trkpt lat="36.77763604559004306793212890625" lon="-118.51146809756755828857421875">
        <ele>2032.199951171875</ele>
        <time>2021-06-24T19:10:40.000Z</time>
        <extensions>
          <ns3:TrackPointExtension>
            <ns3:atemp>32.0</ns3:atemp>
            <ns3:hr>76</ns3:hr>
          </ns3:TrackPointExtension>
        </extensions>
      </trkpt>
      <trkpt lat="36.777628920972347259521484375" lon="-118.5114639066159725189208984375">
        <ele>2032.4000244140625</ele>
        <time>2021-06-24T19:10:44.000Z</time>
        <extensions>
          <ns3:TrackPointExtension>
            <ns3:atemp>31.0</ns3:atemp>
            <ns3:hr>79</ns3:hr>
          </ns3:TrackPointExtension>
        </extensions>
      </trkpt>
      <trkpt lat="36.7776267416775226593017578125" lon="-118.51146130822598934173583984375">
        <ele>2032.199951171875</ele>
        <time>2021-06-24T19:10:46.000Z</time>
        <extensions>
          <ns3:TrackPointExtension>
            <ns3:atemp>31.0</ns3:atemp>
            <ns3:hr>80</ns3:hr>
          </ns3:TrackPointExtension>
        </extensions>
      </trkpt>
      <trkpt lat="36.77761039696633815765380859375" lon="-118.51147203706204891204833984375">
        <ele>2032.199951171875</ele>
        <time>2021-06-24T19:10:50.000Z</time>
        <extensions>
          <ns3:TrackPointExtension>
            <ns3:atemp>31.0</ns3:atemp>
            <ns3:hr>83</ns3:hr>
          </ns3:TrackPointExtension>
        </extensions>
      </trkpt>
      <trkpt lat="36.777586005628108978271484375" lon="-118.5114783234894275665283203125">
        <ele>2032.5999755859375</ele>
        <time>2021-06-24T19:10:53.000Z</time>
        <extensions>
          <ns3:TrackPointExtension>
            <ns3:atemp>31.0</ns3:atemp>
            <ns3:hr>84</ns3:hr>
          </ns3:TrackPointExtension>
        </extensions>
      </trkpt>
      <trkpt lat="36.77756697870790958404541015625" lon="-118.51148310117423534393310546875">
        <ele>2032.5999755859375</ele>
        <time>2021-06-24T19:10:56.000Z</time>
        <extensions>
          <ns3:TrackPointExtension>
            <ns3:atemp>31.0</ns3:atemp>
            <ns3:hr>87</ns3:hr>
          </ns3:TrackPointExtension>
        </extensions>
      </trkpt>
      <trkpt lat="36.7775502987205982208251953125" lon="-118.5115041397511959075927734375">
        <ele>2032.5999755859375</ele>
        <time>2021-06-24T19:10:59.000Z</time>
        <extensions>
          <ns3:TrackPointExtension>
            <ns3:atemp>31.0</ns3:atemp>
            <ns3:hr>88</ns3:hr>
          </ns3:TrackPointExtension>
        </extensions>
      </trkpt>
      <trkpt lat="36.7775472812354564666748046875" lon="-118.511533476412296295166015625">
        <ele>2032.4000244140625</ele>
        <time>2021-06-24T19:11:07.000Z</time>
        <extensions>
          <ns3:TrackPointExtension>
            <ns3:atemp>31.0</ns3:atemp>
            <ns3:hr>88</ns3:hr>
          </ns3:TrackPointExtension>
        </extensions>
      </trkpt>
      <trkpt lat="36.77755624987185001373291015625" lon="-118.511530458927154541015625">
        <ele>2032.5999755859375</ele>
        <time>2021-06-24T19:11:12.000Z</time>
        <extensions>
          <ns3:TrackPointExtension>
            <ns3:atemp>31.0</ns3:atemp>
            <ns3:hr>88</ns3:hr>
          </ns3:TrackPointExtension>
        </extensions>
      </trkpt>
      <trkpt lat="36.77754870615899562835693359375" lon="-118.5115473903715610504150390625">
        <ele>2032.5999755859375</ele>
        <time>2021-06-24T19:11:25.000Z</time>
        <extensions>
          <ns3:TrackPointExtension>
            <ns3:atemp>32.0</ns3:atemp>
            <ns3:hr>85</ns3:hr>
          </ns3:TrackPointExtension>
        </extensions>
      </trkpt>
      <trkpt lat="36.7775501310825347900390625" lon="-118.51154856383800506591796875">
        <ele>2032.5999755859375</ele>
        <time>2021-06-24T19:11:26.000Z</time>
        <extensions>
          <ns3:TrackPointExtension>
            <ns3:atemp>32.0</ns3:atemp>
            <ns3:hr>83</ns3:hr>
          </ns3:TrackPointExtension>
        </extensions>
      </trkpt>
      <trkpt lat="36.77755080163478851318359375" lon="-118.51156926713883876800537109375">
        <ele>2032.800048828125</ele>
        <time>2021-06-24T19:11:30.000Z</time>
        <extensions>
          <ns3:TrackPointExtension>
            <ns3:atemp>32.0</ns3:atemp>
            <ns3:hr>85</ns3:hr>
          </ns3:TrackPointExtension>
        </extensions>
      </trkpt>
      <trkpt lat="36.7775338701903820037841796875" lon="-118.51158737204968929290771484375">
        <ele>2032.4000244140625</ele>
        <time>2021-06-24T19:11:35.000Z</time>
        <extensions>
          <ns3:TrackPointExtension>
            <ns3:atemp>32.0</ns3:atemp>
            <ns3:hr>85</ns3:hr>
          </ns3:TrackPointExtension>
        </extensions>
      </trkpt>
      <trkpt lat="36.77756546996533870697021484375" lon="-118.5115581192076206207275390625">
        <ele>2032.199951171875</ele>
        <time>2021-06-24T19:11:39.000Z</time>
        <extensions>
          <ns3:TrackPointExtension>
            <ns3:atemp>32.0</ns3:atemp>
            <ns3:hr>84</ns3:hr>
          </ns3:TrackPointExtension>
        </extensions>
      </trkpt>
      <trkpt lat="36.777567565441131591796875" lon="-118.51155669428408145904541015625">
        <ele>2032</ele>
        <time>2021-06-24T19:11:42.000Z</time>
        <extensions>
          <ns3:TrackPointExtension>
            <ns3:atemp>32.0</ns3:atemp>
            <ns3:hr>81</ns3:hr>
          </ns3:TrackPointExtension>
        </extensions>
      </trkpt>
      <trkpt lat="36.7775704152882099151611328125" lon="-118.5115537606179714202880859375">
        <ele>2032.199951171875</ele>
        <time>2021-06-24T19:11:45.000Z</time>
        <extensions>
          <ns3:TrackPointExtension>
            <ns3:atemp>32.0</ns3:atemp>
            <ns3:hr>78</ns3:hr>
          </ns3:TrackPointExtension>
        </extensions>
      </trkpt>
      <trkpt lat="36.7775704152882099151611328125" lon="-118.5115537606179714202880859375">
        <ele>2032.199951171875</ele>
        <time>2021-06-24T19:11:47.000Z</time>
        <extensions>
          <ns3:TrackPointExtension>
            <ns3:atemp>32.0</ns3:atemp>
            <ns3:hr>76</ns3:hr>
          </ns3:TrackPointExtension>
        </extensions>
      </trkpt>
      <trkpt lat="36.7775704152882099151611328125" lon="-118.5115537606179714202880859375">
        <ele>2032.199951171875</ele>
        <time>2021-06-24T19:11:50.000Z</time>
        <extensions>
          <ns3:TrackPointExtension>
            <ns3:atemp>32.0</ns3:atemp>
            <ns3:hr>73</ns3:hr>
          </ns3:TrackPointExtension>
        </extensions>
      </trkpt>
      <trkpt lat="36.77756211720407009124755859375" lon="-118.511571027338504791259765625">
        <ele>2032.199951171875</ele>
        <time>2021-06-24T19:12:05.000Z</time>
        <extensions>
          <ns3:TrackPointExtension>
            <ns3:atemp>32.0</ns3:atemp>
            <ns3:hr>76</ns3:hr>
          </ns3:TrackPointExtension>
        </extensions>
      </trkpt>
      <trkpt lat="36.77755138836801052093505859375" lon="-118.51157111115753650665283203125">
        <ele>2032.199951171875</ele>
        <time>2021-06-24T19:12:18.000Z</time>
        <extensions>
          <ns3:TrackPointExtension>
            <ns3:atemp>32.0</ns3:atemp>
            <ns3:hr>79</ns3:hr>
          </ns3:TrackPointExtension>
        </extensions>
      </trkpt>
      <trkpt lat="36.77754518575966358184814453125" lon="-118.51157044060528278350830078125">
        <ele>2032.199951171875</ele>
        <time>2021-06-24T19:12:19.000Z</time>
        <extensions>
          <ns3:TrackPointExtension>
            <ns3:atemp>32.0</ns3:atemp>
            <ns3:hr>76</ns3:hr>
          </ns3:TrackPointExtension>
        </extensions>
      </trkpt>
      <trkpt lat="36.7774845845997333526611328125" lon="-118.51152869872748851776123046875">
        <ele>2032.199951171875</ele>
        <time>2021-06-24T19:12:24.000Z</time>
        <extensions>
          <ns3:TrackPointExtension>
            <ns3:atemp>32.0</ns3:atemp>
            <ns3:hr>75</ns3:hr>
          </ns3:TrackPointExtension>
        </extensions>
      </trkpt>
      <trkpt lat="36.77747343666851520538330078125" lon="-118.5115262679755687713623046875">
        <ele>2032.199951171875</ele>
        <time>2021-06-24T19:12:25.000Z</time>
        <extensions>
          <ns3:TrackPointExtension>
            <ns3:atemp>32.0</ns3:atemp>
            <ns3:hr>78</ns3:hr>
          </ns3:TrackPointExtension>
        </extensions>
      </trkpt>
      <trkpt lat="36.7774470336735248565673828125" lon="-118.51151310838758945465087890625">
        <ele>2032.199951171875</ele>
        <time>2021-06-24T19:12:27.000Z</time>
        <extensions>
          <ns3:TrackPointExtension>
            <ns3:atemp>32.0</ns3:atemp>
            <ns3:hr>81</ns3:hr>
          </ns3:TrackPointExtension>
        </extensions>
      </trkpt>
      <trkpt lat="36.777421049773693084716796875" lon="-118.511505983769893646240234375">
        <ele>2032.199951171875</ele>
        <time>2021-06-24T19:12:30.000Z</time>
        <extensions>
          <ns3:TrackPointExtension>
            <ns3:atemp>32.0</ns3:atemp>
            <ns3:hr>85</ns3:hr>
          </ns3:TrackPointExtension>
        </extensions>
      </trkpt>
      <trkpt lat="36.7774106562137603759765625" lon="-118.51150372065603733062744140625">
        <ele>2032.199951171875</ele>
        <time>2021-06-24T19:12:31.000Z</time>
        <extensions>
          <ns3:TrackPointExtension>
            <ns3:atemp>32.0</ns3:atemp>
            <ns3:hr>88</ns3:hr>
          </ns3:TrackPointExtension>
        </extensions>
      </trkpt>
      <trkpt lat="36.777403615415096282958984375" lon="-118.5114954225718975067138671875">
        <ele>2032.199951171875</ele>
        <time>2021-06-24T19:12:32.000Z</time>
        <extensions>
          <ns3:TrackPointExtension>
            <ns3:atemp>32.0</ns3:atemp>
            <ns3:hr>92</ns3:hr>
          </ns3:TrackPointExtension>
        </extensions>
      </trkpt>
      <trkpt lat="36.77739431150257587432861328125" lon="-118.51148678921163082122802734375">
        <ele>2032.199951171875</ele>
        <time>2021-06-24T19:12:33.000Z</time>
        <extensions>
          <ns3:TrackPointExtension>
            <ns3:atemp>32.0</ns3:atemp>
            <ns3:hr>85</ns3:hr>
          </ns3:TrackPointExtension>
        </extensions>
      </trkpt>
      <trkpt lat="36.77737645804882049560546875" lon="-118.51147019304335117340087890625">
        <ele>2032.199951171875</ele>
        <time>2021-06-24T19:12:35.000Z</time>
        <extensions>
          <ns3:TrackPointExtension>
            <ns3:atemp>32.0</ns3:atemp>
            <ns3:hr>90</ns3:hr>
          </ns3:TrackPointExtension>
        </extensions>
      </trkpt>
      <trkpt lat="36.77736480720341205596923828125" lon="-118.5114592127501964569091796875">
        <ele>2032</ele>
        <time>2021-06-24T19:12:36.000Z</time>
        <extensions>
          <ns3:TrackPointExtension>
            <ns3:atemp>32.0</ns3:atemp>
            <ns3:hr>90</ns3:hr>
          </ns3:TrackPointExtension>
        </extensions>
      </trkpt>
      <trkpt lat="36.77735189907252788543701171875" lon="-118.51144672371447086334228515625">
        <ele>2032</ele>
        <time>2021-06-24T19:12:37.000Z</time>
        <extensions>
          <ns3:TrackPointExtension>
            <ns3:atemp>32.0</ns3:atemp>
            <ns3:hr>91</ns3:hr>
          </ns3:TrackPointExtension>
        </extensions>
      </trkpt>
      <trkpt lat="36.77733764983713626861572265625" lon="-118.51143783889710903167724609375">
        <ele>2032</ele>
        <time>2021-06-24T19:12:39.000Z</time>
        <extensions>
          <ns3:TrackPointExtension>
            <ns3:atemp>32.0</ns3:atemp>
            <ns3:hr>93</ns3:hr>
          </ns3:TrackPointExtension>
        </extensions>
      </trkpt>
      <trkpt lat="36.7773119173943996429443359375" lon="-118.5114223323762416839599609375">
        <ele>2032.4000244140625</ele>
        <time>2021-06-24T19:12:42.000Z</time>
        <extensions>
          <ns3:TrackPointExtension>
            <ns3:atemp>32.0</ns3:atemp>
            <ns3:hr>95</ns3:hr>
          </ns3:TrackPointExtension>
        </extensions>
      </trkpt>
      <trkpt lat="36.77728618495166301727294921875" lon="-118.5114005394279956817626953125">
        <ele>2032</ele>
        <time>2021-06-24T19:12:45.000Z</time>
        <extensions>
          <ns3:TrackPointExtension>
            <ns3:atemp>32.0</ns3:atemp>
            <ns3:hr>91</ns3:hr>
          </ns3:TrackPointExtension>
        </extensions>
      </trkpt>
      <trkpt lat="36.777268163859844207763671875" lon="-118.5113874636590480804443359375">
        <ele>2031.5999755859375</ele>
        <time>2021-06-24T19:12:48.000Z</time>
        <extensions>
          <ns3:TrackPointExtension>
            <ns3:atemp>32.0</ns3:atemp>
            <ns3:hr>90</ns3:hr>
          </ns3:TrackPointExtension>
        </extensions>
      </trkpt>
      <trkpt lat="36.77726472727954387664794921875" lon="-118.511367850005626678466796875">
        <ele>2031.4000244140625</ele>
        <time>2021-06-24T19:12:50.000Z</time>
        <extensions>
          <ns3:TrackPointExtension>
            <ns3:atemp>32.0</ns3:atemp>
            <ns3:hr>88</ns3:hr>
          </ns3:TrackPointExtension>
        </extensions>
      </trkpt>
      <trkpt lat="36.77727394737303256988525390625" lon="-118.5113475657999515533447265625">
        <ele>2031.5999755859375</ele>
        <time>2021-06-24T19:12:52.000Z</time>
        <extensions>
          <ns3:TrackPointExtension>
            <ns3:atemp>32.0</ns3:atemp>
            <ns3:hr>87</ns3:hr>
          </ns3:TrackPointExtension>
        </extensions>
      </trkpt>
      <trkpt lat="36.77727595902979373931884765625" lon="-118.51130590774118900299072265625">
        <ele>2031.5999755859375</ele>
        <time>2021-06-24T19:12:55.000Z</time>
        <extensions>
          <ns3:TrackPointExtension>
            <ns3:atemp>32.0</ns3:atemp>
            <ns3:hr>88</ns3:hr>
          </ns3:TrackPointExtension>
        </extensions>
      </trkpt>
      <trkpt lat="36.7772736959159374237060546875" lon="-118.51127271540462970733642578125">
        <ele>2031.5999755859375</ele>
        <time>2021-06-24T19:12:58.000Z</time>
        <extensions>
          <ns3:TrackPointExtension>
            <ns3:atemp>32.0</ns3:atemp>
            <ns3:hr>87</ns3:hr>
          </ns3:TrackPointExtension>
        </extensions>
      </trkpt>
      <trkpt lat="36.7772649787366390228271484375" lon="-118.511247150599956512451171875">
        <ele>2031.800048828125</ele>
        <time>2021-06-24T19:13:01.000Z</time>
        <extensions>
          <ns3:TrackPointExtension>
            <ns3:atemp>32.0</ns3:atemp>
            <ns3:hr>89</ns3:hr>
          </ns3:TrackPointExtension>
        </extensions>
      </trkpt>
      <trkpt lat="36.77726858295500278472900390625" lon="-118.511209599673748016357421875">
        <ele>2031.800048828125</ele>
        <time>2021-06-24T19:13:04.000Z</time>
        <extensions>
          <ns3:TrackPointExtension>
            <ns3:atemp>32.0</ns3:atemp>
            <ns3:hr>89</ns3:hr>
          </ns3:TrackPointExtension>
        </extensions>
      </trkpt>
      <trkpt lat="36.77730864845216274261474609375" lon="-118.51116576232016086578369140625">
        <ele>2031.800048828125</ele>
        <time>2021-06-24T19:13:08.000Z</time>
        <extensions>
          <ns3:TrackPointExtension>
            <ns3:atemp>32.0</ns3:atemp>
            <ns3:hr>89</ns3:hr>
          </ns3:TrackPointExtension>
        </extensions>
      </trkpt>
      <trkpt lat="36.7773194611072540283203125" lon="-118.51114329881966114044189453125">
        <ele>2032.199951171875</ele>
        <time>2021-06-24T19:13:11.000Z</time>
        <extensions>
          <ns3:TrackPointExtension>
            <ns3:atemp>32.0</ns3:atemp>
            <ns3:hr>89</ns3:hr>
          </ns3:TrackPointExtension>
        </extensions>
      </trkpt>
      <trkpt lat="36.77733379416167736053466796875" lon="-118.51111295633018016815185546875">
        <ele>2032.5999755859375</ele>
        <time>2021-06-24T19:13:15.000Z</time>
        <extensions>
          <ns3:TrackPointExtension>
            <ns3:atemp>32.0</ns3:atemp>
            <ns3:hr>90</ns3:hr>
          </ns3:TrackPointExtension>
        </extensions>
      </trkpt>
      <trkpt lat="36.7773407511413097381591796875" lon="-118.51110340096056461334228515625">
        <ele>2033.199951171875</ele>
        <time>2021-06-24T19:13:18.000Z</time>
        <extensions>
          <ns3:TrackPointExtension>
            <ns3:atemp>32.0</ns3:atemp>
            <ns3:hr>92</ns3:hr>
          </ns3:TrackPointExtension>
        </extensions>
      </trkpt>
      <trkpt lat="36.777355670928955078125" lon="-118.511084876954555511474609375">
        <ele>2033.5999755859375</ele>
        <time>2021-06-24T19:13:21.000Z</time>
        <extensions>
          <ns3:TrackPointExtension>
            <ns3:atemp>32.0</ns3:atemp>
            <ns3:hr>93</ns3:hr>
          </ns3:TrackPointExtension>
        </extensions>
      </trkpt>
      <trkpt lat="36.77735843695700168609619140625" lon="-118.511074148118495941162109375">
        <ele>2033.800048828125</ele>
        <time>2021-06-24T19:13:22.000Z</time>
        <extensions>
          <ns3:TrackPointExtension>
            <ns3:atemp>32.0</ns3:atemp>
            <ns3:hr>95</ns3:hr>
          </ns3:TrackPointExtension>
        </extensions>
      </trkpt>
      <trkpt lat="36.77736095152795314788818359375" lon="-118.51106232963502407073974609375">
        <ele>2033.800048828125</ele>
        <time>2021-06-24T19:13:23.000Z</time>
        <extensions>
          <ns3:TrackPointExtension>
            <ns3:atemp>32.0</ns3:atemp>
            <ns3:hr>94</ns3:hr>
          </ns3:TrackPointExtension>
        </extensions>
      </trkpt>
      <trkpt lat="36.77736363373696804046630859375" lon="-118.51104707457125186920166015625">
        <ele>2034.199951171875</ele>
        <time>2021-06-24T19:13:25.000Z</time>
        <extensions>
          <ns3:TrackPointExtension>
            <ns3:atemp>32.0</ns3:atemp>
            <ns3:hr>93</ns3:hr>
          </ns3:TrackPointExtension>
        </extensions>
      </trkpt>
      <trkpt lat="36.777383498847484588623046875" lon="-118.51100809872150421142578125">
        <ele>2034.800048828125</ele>
        <time>2021-06-24T19:13:29.000Z</time>
        <extensions>
          <ns3:TrackPointExtension>
            <ns3:atemp>32.0</ns3:atemp>
            <ns3:hr>95</ns3:hr>
          </ns3:TrackPointExtension>
        </extensions>
      </trkpt>
      <trkpt lat="36.77739062346518039703369140625" lon="-118.5109532810747623443603515625">
        <ele>2034.800048828125</ele>
        <time>2021-06-24T19:13:33.000Z</time>
        <extensions>
          <ns3:TrackPointExtension>
            <ns3:atemp>32.0</ns3:atemp>
            <ns3:hr>97</ns3:hr>
          </ns3:TrackPointExtension>
        </extensions>
      </trkpt>
      <trkpt lat="36.77739028818905353546142578125" lon="-118.5109390318393707275390625">
        <ele>2034.800048828125</ele>
        <time>2021-06-24T19:13:34.000Z</time>
        <extensions>
          <ns3:TrackPointExtension>
            <ns3:atemp>32.0</ns3:atemp>
            <ns3:hr>94</ns3:hr>
          </ns3:TrackPointExtension>
        </extensions>
      </trkpt>
      <trkpt lat="36.77739112637937068939208984375" lon="-118.5109041631221771240234375">
        <ele>2034.800048828125</ele>
        <time>2021-06-24T19:13:37.000Z</time>
        <extensions>
          <ns3:TrackPointExtension>
            <ns3:atemp>32.0</ns3:atemp>
            <ns3:hr>93</ns3:hr>
          </ns3:TrackPointExtension>
        </extensions>
      </trkpt>
      <trkpt lat="36.77737469784915447235107421875" lon="-118.51085655391216278076171875">
        <ele>2035</ele>
        <time>2021-06-24T19:13:41.000Z</time>
        <extensions>
          <ns3:TrackPointExtension>
            <ns3:atemp>32.0</ns3:atemp>
            <ns3:hr>90</ns3:hr>
          </ns3:TrackPointExtension>
        </extensions>
      </trkpt>
      <trkpt lat="36.7773665674030780792236328125" lon="-118.5108372755348682403564453125">
        <ele>2035</ele>
        <time>2021-06-24T19:13:43.000Z</time>
        <extensions>
          <ns3:TrackPointExtension>
            <ns3:atemp>32.0</ns3:atemp>
            <ns3:hr>90</ns3:hr>
          </ns3:TrackPointExtension>
        </extensions>
      </trkpt>
      <trkpt lat="36.777366735041141510009765625" lon="-118.51079008542001247406005859375">
        <ele>2035.4000244140625</ele>
        <time>2021-06-24T19:13:48.000Z</time>
        <extensions>
          <ns3:TrackPointExtension>
            <ns3:atemp>32.0</ns3:atemp>
            <ns3:hr>90</ns3:hr>
          </ns3:TrackPointExtension>
        </extensions>
      </trkpt>
      <trkpt lat="36.77737134508788585662841796875" lon="-118.51077885366976261138916015625">
        <ele>2035.5999755859375</ele>
        <time>2021-06-24T19:13:49.000Z</time>
        <extensions>
          <ns3:TrackPointExtension>
            <ns3:atemp>33.0</ns3:atemp>
            <ns3:hr>91</ns3:hr>
          </ns3:TrackPointExtension>
        </extensions>
      </trkpt>
      <trkpt lat="36.7773638851940631866455078125" lon="-118.51074063219130039215087890625">
        <ele>2036</ele>
        <time>2021-06-24T19:13:53.000Z</time>
        <extensions>
          <ns3:TrackPointExtension>
            <ns3:atemp>33.0</ns3:atemp>
            <ns3:hr>94</ns3:hr>
          </ns3:TrackPointExtension>
        </extensions>
      </trkpt>
      <trkpt lat="36.77736866287887096405029296875" lon="-118.51072504185140132904052734375">
        <ele>2036.199951171875</ele>
        <time>2021-06-24T19:13:55.000Z</time>
        <extensions>
          <ns3:TrackPointExtension>
            <ns3:atemp>33.0</ns3:atemp>
            <ns3:hr>95</ns3:hr>
          </ns3:TrackPointExtension>
        </extensions>
      </trkpt>
      <trkpt lat="36.777366064488887786865234375" lon="-118.510715402662754058837890625">
        <ele>2036.4000244140625</ele>
        <time>2021-06-24T19:13:56.000Z</time>
        <extensions>
          <ns3:TrackPointExtension>
            <ns3:atemp>33.0</ns3:atemp>
            <ns3:hr>96</ns3:hr>
          </ns3:TrackPointExtension>
        </extensions>
      </trkpt>
      <trkpt lat="36.77738718688488006591796875" lon="-118.51066100411117076873779296875">
        <ele>2037</ele>
        <time>2021-06-24T19:14:01.000Z</time>
        <extensions>
          <ns3:TrackPointExtension>
            <ns3:atemp>33.0</ns3:atemp>
            <ns3:hr>96</ns3:hr>
          </ns3:TrackPointExtension>
        </extensions>
      </trkpt>
      <trkpt lat="36.777390539646148681640625" lon="-118.5106049291789531707763671875">
        <ele>2037</ele>
        <time>2021-06-24T19:14:05.000Z</time>
        <extensions>
          <ns3:TrackPointExtension>
            <ns3:atemp>33.0</ns3:atemp>
            <ns3:hr>95</ns3:hr>
          </ns3:TrackPointExtension>
        </extensions>
      </trkpt>
      <trkpt lat="36.77738794125616550445556640625" lon="-118.51053058169782161712646484375">
        <ele>2037</ele>
        <time>2021-06-24T19:14:10.000Z</time>
        <extensions>
          <ns3:TrackPointExtension>
            <ns3:atemp>33.0</ns3:atemp>
            <ns3:hr>96</ns3:hr>
          </ns3:TrackPointExtension>
        </extensions>
      </trkpt>
      <trkpt lat="36.7774004302918910980224609375" lon="-118.5104939527809619903564453125">
        <ele>2037.4000244140625</ele>
        <time>2021-06-24T19:14:13.000Z</time>
        <extensions>
          <ns3:TrackPointExtension>
            <ns3:atemp>33.0</ns3:atemp>
            <ns3:hr>93</ns3:hr>
          </ns3:TrackPointExtension>
        </extensions>
      </trkpt>
      <trkpt lat="36.77740017883479595184326171875" lon="-118.5104755125939846038818359375">
        <ele>2037.4000244140625</ele>
        <time>2021-06-24T19:14:15.000Z</time>
        <extensions>
          <ns3:TrackPointExtension>
            <ns3:atemp>33.0</ns3:atemp>
            <ns3:hr>96</ns3:hr>
          </ns3:TrackPointExtension>
        </extensions>
      </trkpt>
      <trkpt lat="36.77740353159606456756591796875" lon="-118.5104496963322162628173828125">
        <ele>2037.5999755859375</ele>
        <time>2021-06-24T19:14:17.000Z</time>
        <extensions>
          <ns3:TrackPointExtension>
            <ns3:atemp>33.0</ns3:atemp>
            <ns3:hr>97</ns3:hr>
          </ns3:TrackPointExtension>
        </extensions>
      </trkpt>
      <trkpt lat="36.77740654908120632171630859375" lon="-118.51042027585208415985107421875">
        <ele>2037.5999755859375</ele>
        <time>2021-06-24T19:14:20.000Z</time>
        <extensions>
          <ns3:TrackPointExtension>
            <ns3:atemp>33.0</ns3:atemp>
            <ns3:hr>96</ns3:hr>
          </ns3:TrackPointExtension>
        </extensions>
      </trkpt>
      <trkpt lat="36.77741845138370990753173828125" lon="-118.5103757679462432861328125">
        <ele>2037.5999755859375</ele>
        <time>2021-06-24T19:14:24.000Z</time>
        <extensions>
          <ns3:TrackPointExtension>
            <ns3:atemp>33.0</ns3:atemp>
            <ns3:hr>97</ns3:hr>
          </ns3:TrackPointExtension>
        </extensions>
      </trkpt>
      <trkpt lat="36.7774007655680179595947265625" lon="-118.5103186033666133880615234375">
        <ele>2037.800048828125</ele>
        <time>2021-06-24T19:14:30.000Z</time>
        <extensions>
          <ns3:TrackPointExtension>
            <ns3:atemp>33.0</ns3:atemp>
            <ns3:hr>98</ns3:hr>
          </ns3:TrackPointExtension>
        </extensions>
      </trkpt>
      <trkpt lat="36.77735994569957256317138671875" lon="-118.51028935052454471588134765625">
        <ele>2038</ele>
        <time>2021-06-24T19:14:35.000Z</time>
        <extensions>
          <ns3:TrackPointExtension>
            <ns3:atemp>33.0</ns3:atemp>
            <ns3:hr>96</ns3:hr>
          </ns3:TrackPointExtension>
        </extensions>
      </trkpt>
      <trkpt lat="36.77735625766217708587646484375" lon="-118.51028524339199066162109375">
        <ele>2038.199951171875</ele>
        <time>2021-06-24T19:14:36.000Z</time>
        <extensions>
          <ns3:TrackPointExtension>
            <ns3:atemp>33.0</ns3:atemp>
            <ns3:hr>97</ns3:hr>
          </ns3:TrackPointExtension>
        </extensions>
      </trkpt>
      <trkpt lat="36.77735491655766963958740234375" lon="-118.5102652944624423980712890625">
        <ele>2038.800048828125</ele>
        <time>2021-06-24T19:14:39.000Z</time>
        <extensions>
          <ns3:TrackPointExtension>
            <ns3:atemp>33.0</ns3:atemp>
            <ns3:hr>96</ns3:hr>
          </ns3:TrackPointExtension>
        </extensions>
      </trkpt>
      <trkpt lat="36.7773615382611751556396484375" lon="-118.51024073548614978790283203125">
        <ele>2038.800048828125</ele>
        <time>2021-06-24T19:14:41.000Z</time>
        <extensions>
          <ns3:TrackPointExtension>
            <ns3:atemp>33.0</ns3:atemp>
            <ns3:hr>98</ns3:hr>
          </ns3:TrackPointExtension>
        </extensions>
      </trkpt>
      <trkpt lat="36.77736246027052402496337890625" lon="-118.51022447459399700164794921875">
        <ele>2039</ele>
        <time>2021-06-24T19:14:42.000Z</time>
        <extensions>
          <ns3:TrackPointExtension>
            <ns3:atemp>33.0</ns3:atemp>
            <ns3:hr>97</ns3:hr>
          </ns3:TrackPointExtension>
        </extensions>
      </trkpt>
      <trkpt lat="36.77736614830791950225830078125" lon="-118.5102039389312267303466796875">
        <ele>2039</ele>
        <time>2021-06-24T19:14:43.000Z</time>
        <extensions>
          <ns3:TrackPointExtension>
            <ns3:atemp>33.0</ns3:atemp>
            <ns3:hr>96</ns3:hr>
          </ns3:TrackPointExtension>
        </extensions>
      </trkpt>
      <trkpt lat="36.77736262790858745574951171875" lon="-118.51016211323440074920654296875">
        <ele>2039</ele>
        <time>2021-06-24T19:14:47.000Z</time>
        <extensions>
          <ns3:TrackPointExtension>
            <ns3:atemp>33.0</ns3:atemp>
            <ns3:hr>99</ns3:hr>
          </ns3:TrackPointExtension>
        </extensions>
      </trkpt>
      <trkpt lat="36.77736975252628326416015625" lon="-118.5101489536464214324951171875">
        <ele>2039.199951171875</ele>
        <time>2021-06-24T19:14:49.000Z</time>
        <extensions>
          <ns3:TrackPointExtension>
            <ns3:atemp>33.0</ns3:atemp>
            <ns3:hr>100</ns3:hr>
          </ns3:TrackPointExtension>
        </extensions>
      </trkpt>
      <trkpt lat="36.77737955935299396514892578125" lon="-118.5101355426013469696044921875">
        <ele>2039.4000244140625</ele>
        <time>2021-06-24T19:14:51.000Z</time>
        <extensions>
          <ns3:TrackPointExtension>
            <ns3:atemp>33.0</ns3:atemp>
            <ns3:hr>101</ns3:hr>
          </ns3:TrackPointExtension>
        </extensions>
      </trkpt>
      <trkpt lat="36.77738718688488006591796875" lon="-118.5101010091602802276611328125">
        <ele>2039.5999755859375</ele>
        <time>2021-06-24T19:14:55.000Z</time>
        <extensions>
          <ns3:TrackPointExtension>
            <ns3:atemp>33.0</ns3:atemp>
            <ns3:hr>104</ns3:hr>
          </ns3:TrackPointExtension>
        </extensions>
      </trkpt>
      <trkpt lat="36.77738509140908718109130859375" lon="-118.510093130171298980712890625">
        <ele>2039.800048828125</ele>
        <time>2021-06-24T19:14:56.000Z</time>
        <extensions>
          <ns3:TrackPointExtension>
            <ns3:atemp>33.0</ns3:atemp>
            <ns3:hr>104</ns3:hr>
          </ns3:TrackPointExtension>
        </extensions>
      </trkpt>
      <trkpt lat="36.7773796431720256805419921875" lon="-118.51008600555360317230224609375">
        <ele>2039.800048828125</ele>
        <time>2021-06-24T19:14:57.000Z</time>
        <extensions>
          <ns3:TrackPointExtension>
            <ns3:atemp>33.0</ns3:atemp>
            <ns3:hr>105</ns3:hr>
          </ns3:TrackPointExtension>
        </extensions>
      </trkpt>
      <trkpt lat="36.7773749493062496185302734375" lon="-118.51007745601236820220947265625">
        <ele>2040</ele>
        <time>2021-06-24T19:14:58.000Z</time>
        <extensions>
          <ns3:TrackPointExtension>
            <ns3:atemp>33.0</ns3:atemp>
            <ns3:hr>108</ns3:hr>
          </ns3:TrackPointExtension>
        </extensions>
      </trkpt>
      <trkpt lat="36.7773498035967350006103515625" lon="-118.510017357766628265380859375">
        <ele>2040</ele>
        <time>2021-06-24T19:15:04.000Z</time>
        <extensions>
          <ns3:TrackPointExtension>
            <ns3:atemp>33.0</ns3:atemp>
            <ns3:hr>107</ns3:hr>
          </ns3:TrackPointExtension>
        </extensions>
      </trkpt>
      <trkpt lat="36.7773192934691905975341796875" lon="-118.509939573705196380615234375">
        <ele>2039.800048828125</ele>
        <time>2021-06-24T19:15:11.000Z</time>
        <extensions>
          <ns3:TrackPointExtension>
            <ns3:atemp>33.0</ns3:atemp>
            <ns3:hr>109</ns3:hr>
          </ns3:TrackPointExtension>
        </extensions>
      </trkpt>
      <trkpt lat="36.77730613388121128082275390625" lon="-118.50989808328449726104736328125">
        <ele>2039.800048828125</ele>
        <time>2021-06-24T19:15:14.000Z</time>
        <extensions>
          <ns3:TrackPointExtension>
            <ns3:atemp>33.0</ns3:atemp>
            <ns3:hr>106</ns3:hr>
          </ns3:TrackPointExtension>
        </extensions>
      </trkpt>
      <trkpt lat="36.7772958241403102874755859375" lon="-118.50985885597765445709228515625">
        <ele>2040</ele>
        <time>2021-06-24T19:15:17.000Z</time>
        <extensions>
          <ns3:TrackPointExtension>
            <ns3:atemp>33.0</ns3:atemp>
            <ns3:hr>103</ns3:hr>
          </ns3:TrackPointExtension>
        </extensions>
      </trkpt>
      <trkpt lat="36.77728417329490184783935546875" lon="-118.50983672775328159332275390625">
        <ele>2039.800048828125</ele>
        <time>2021-06-24T19:15:19.000Z</time>
        <extensions>
          <ns3:TrackPointExtension>
            <ns3:atemp>33.0</ns3:atemp>
            <ns3:hr>100</ns3:hr>
          </ns3:TrackPointExtension>
        </extensions>
      </trkpt>
      <trkpt lat="36.77726506255567073822021484375" lon="-118.50978903472423553466796875">
        <ele>2040.800048828125</ele>
        <time>2021-06-24T19:15:24.000Z</time>
        <extensions>
          <ns3:TrackPointExtension>
            <ns3:atemp>33.0</ns3:atemp>
            <ns3:hr>97</ns3:hr>
          </ns3:TrackPointExtension>
        </extensions>
      </trkpt>
      <trkpt lat="36.77726405672729015350341796875" lon="-118.50978040136396884918212890625">
        <ele>2040.800048828125</ele>
        <time>2021-06-24T19:15:25.000Z</time>
        <extensions>
          <ns3:TrackPointExtension>
            <ns3:atemp>33.0</ns3:atemp>
            <ns3:hr>95</ns3:hr>
          </ns3:TrackPointExtension>
        </extensions>
      </trkpt>
      <trkpt lat="36.7772317864000797271728515625" lon="-118.509698174893856048583984375">
        <ele>2041.800048828125</ele>
        <time>2021-06-24T19:15:33.000Z</time>
        <extensions>
          <ns3:TrackPointExtension>
            <ns3:atemp>33.0</ns3:atemp>
            <ns3:hr>94</ns3:hr>
          </ns3:TrackPointExtension>
        </extensions>
      </trkpt>
      <trkpt lat="36.777227930724620819091796875" lon="-118.5096872784197330474853515625">
        <ele>2042</ele>
        <time>2021-06-24T19:15:34.000Z</time>
        <extensions>
          <ns3:TrackPointExtension>
            <ns3:atemp>33.0</ns3:atemp>
            <ns3:hr>96</ns3:hr>
          </ns3:TrackPointExtension>
        </extensions>
      </trkpt>
      <trkpt lat="36.77722382359206676483154296875" lon="-118.50968015380203723907470703125">
        <ele>2042</ele>
        <time>2021-06-24T19:15:35.000Z</time>
        <extensions>
          <ns3:TrackPointExtension>
            <ns3:atemp>33.0</ns3:atemp>
            <ns3:hr>93</ns3:hr>
          </ns3:TrackPointExtension>
        </extensions>
      </trkpt>
      <trkpt lat="36.777222566306591033935546875" lon="-118.50967126898467540740966796875">
        <ele>2042</ele>
        <time>2021-06-24T19:15:36.000Z</time>
        <extensions>
          <ns3:TrackPointExtension>
            <ns3:atemp>33.0</ns3:atemp>
            <ns3:hr>96</ns3:hr>
          </ns3:TrackPointExtension>
        </extensions>
      </trkpt>
      <trkpt lat="36.77722231484949588775634765625" lon="-118.50964645855128765106201171875">
        <ele>2042</ele>
        <time>2021-06-24T19:15:38.000Z</time>
        <extensions>
          <ns3:TrackPointExtension>
            <ns3:atemp>33.0</ns3:atemp>
            <ns3:hr>97</ns3:hr>
          </ns3:TrackPointExtension>
        </extensions>
      </trkpt>
      <trkpt lat="36.7772207222878932952880859375" lon="-118.50960555486381053924560546875">
        <ele>2041.800048828125</ele>
        <time>2021-06-24T19:15:41.000Z</time>
        <extensions>
          <ns3:TrackPointExtension>
            <ns3:atemp>33.0</ns3:atemp>
            <ns3:hr>96</ns3:hr>
          </ns3:TrackPointExtension>
        </extensions>
      </trkpt>
      <trkpt lat="36.7772161960601806640625" lon="-118.50957873277366161346435546875">
        <ele>2041.5999755859375</ele>
        <time>2021-06-24T19:15:43.000Z</time>
        <extensions>
          <ns3:TrackPointExtension>
            <ns3:atemp>33.0</ns3:atemp>
            <ns3:hr>96</ns3:hr>
          </ns3:TrackPointExtension>
        </extensions>
      </trkpt>
      <trkpt lat="36.77720018662512302398681640625" lon="-118.5095243342220783233642578125">
        <ele>2041.4000244140625</ele>
        <time>2021-06-24T19:15:47.000Z</time>
        <extensions>
          <ns3:TrackPointExtension>
            <ns3:atemp>33.0</ns3:atemp>
            <ns3:hr>93</ns3:hr>
          </ns3:TrackPointExtension>
        </extensions>
      </trkpt>
      <trkpt lat="36.77719381637871265411376953125" lon="-118.50948720239102840423583984375">
        <ele>2040.800048828125</ele>
        <time>2021-06-24T19:15:50.000Z</time>
        <extensions>
          <ns3:TrackPointExtension>
            <ns3:atemp>33.0</ns3:atemp>
            <ns3:hr>94</ns3:hr>
          </ns3:TrackPointExtension>
        </extensions>
      </trkpt>
      <trkpt lat="36.7771922238171100616455078125" lon="-118.5094649903476238250732421875">
        <ele>2040.800048828125</ele>
        <time>2021-06-24T19:15:51.000Z</time>
        <extensions>
          <ns3:TrackPointExtension>
            <ns3:atemp>33.0</ns3:atemp>
            <ns3:hr>94</ns3:hr>
          </ns3:TrackPointExtension>
        </extensions>
      </trkpt>
      <trkpt lat="36.7771677486598491668701171875" lon="-118.5094026289880275726318359375">
        <ele>2039.800048828125</ele>
        <time>2021-06-24T19:15:58.000Z</time>
        <extensions>
          <ns3:TrackPointExtension>
            <ns3:atemp>33.0</ns3:atemp>
            <ns3:hr>92</ns3:hr>
          </ns3:TrackPointExtension>
        </extensions>
      </trkpt>
      <trkpt lat="36.77716456353664398193359375" lon="-118.5093965940177440643310546875">
        <ele>2039.5999755859375</ele>
        <time>2021-06-24T19:15:59.000Z</time>
        <extensions>
          <ns3:TrackPointExtension>
            <ns3:atemp>33.0</ns3:atemp>
            <ns3:hr>93</ns3:hr>
          </ns3:TrackPointExtension>
        </extensions>
      </trkpt>
      <trkpt lat="36.7771477997303009033203125" lon="-118.50930380634963512420654296875">
        <ele>2039.199951171875</ele>
        <time>2021-06-24T19:16:07.000Z</time>
        <extensions>
          <ns3:TrackPointExtension>
            <ns3:atemp>33.0</ns3:atemp>
            <ns3:hr>94</ns3:hr>
          </ns3:TrackPointExtension>
        </extensions>
      </trkpt>
      <trkpt lat="36.7771449498832225799560546875" lon="-118.50926642306149005889892578125">
        <ele>2039.4000244140625</ele>
        <time>2021-06-24T19:16:10.000Z</time>
        <extensions>
          <ns3:TrackPointExtension>
            <ns3:atemp>33.0</ns3:atemp>
            <ns3:hr>91</ns3:hr>
          </ns3:TrackPointExtension>
        </extensions>
      </trkpt>
      <trkpt lat="36.7771171219646930694580078125" lon="-118.50918964482843875885009765625">
        <ele>2040</ele>
        <time>2021-06-24T19:16:17.000Z</time>
        <extensions>
          <ns3:TrackPointExtension>
            <ns3:atemp>33.0</ns3:atemp>
            <ns3:hr>94</ns3:hr>
          </ns3:TrackPointExtension>
        </extensions>
      </trkpt>
      <trkpt lat="36.77711603231728076934814453125" lon="-118.50916567258536815643310546875">
        <ele>2040.199951171875</ele>
        <time>2021-06-24T19:16:19.000Z</time>
        <extensions>
          <ns3:TrackPointExtension>
            <ns3:atemp>33.0</ns3:atemp>
            <ns3:hr>94</ns3:hr>
          </ns3:TrackPointExtension>
        </extensions>
      </trkpt>
      <trkpt lat="36.7771161161363124847412109375" lon="-118.50913298316299915313720703125">
        <ele>2040.4000244140625</ele>
        <time>2021-06-24T19:16:22.000Z</time>
        <extensions>
          <ns3:TrackPointExtension>
            <ns3:atemp>33.0</ns3:atemp>
            <ns3:hr>96</ns3:hr>
          </ns3:TrackPointExtension>
        </extensions>
      </trkpt>
      <trkpt lat="36.777100861072540283203125" lon="-118.50909300148487091064453125">
        <ele>2040.800048828125</ele>
        <time>2021-06-24T19:16:25.000Z</time>
        <extensions>
          <ns3:TrackPointExtension>
            <ns3:atemp>33.0</ns3:atemp>
            <ns3:hr>95</ns3:hr>
          </ns3:TrackPointExtension>
        </extensions>
      </trkpt>
      <trkpt lat="36.7771000228822231292724609375" lon="-118.50905402563512325286865234375">
        <ele>2041.5999755859375</ele>
        <time>2021-06-24T19:16:28.000Z</time>
        <extensions>
          <ns3:TrackPointExtension>
            <ns3:atemp>33.0</ns3:atemp>
            <ns3:hr>95</ns3:hr>
          </ns3:TrackPointExtension>
        </extensions>
      </trkpt>
      <trkpt lat="36.77708988077938556671142578125" lon="-118.50903172977268695831298828125">
        <ele>2041.800048828125</ele>
        <time>2021-06-24T19:16:30.000Z</time>
        <extensions>
          <ns3:TrackPointExtension>
            <ns3:atemp>33.0</ns3:atemp>
            <ns3:hr>93</ns3:hr>
          </ns3:TrackPointExtension>
        </extensions>
      </trkpt>
      <trkpt lat="36.7770856060087680816650390625" lon="-118.50900775752961635589599609375">
        <ele>2041.800048828125</ele>
        <time>2021-06-24T19:16:32.000Z</time>
        <extensions>
          <ns3:TrackPointExtension>
            <ns3:atemp>33.0</ns3:atemp>
            <ns3:hr>97</ns3:hr>
          </ns3:TrackPointExtension>
        </extensions>
      </trkpt>
      <trkpt lat="36.77708384580910205841064453125" lon="-118.50896836258471012115478515625">
        <ele>2041.5999755859375</ele>
        <time>2021-06-24T19:16:35.000Z</time>
        <extensions>
          <ns3:TrackPointExtension>
            <ns3:atemp>33.0</ns3:atemp>
            <ns3:hr>97</ns3:hr>
          </ns3:TrackPointExtension>
        </extensions>
      </trkpt>
      <trkpt lat="36.77708543837070465087890625" lon="-118.50894279778003692626953125">
        <ele>2041.800048828125</ele>
        <time>2021-06-24T19:16:37.000Z</time>
        <extensions>
          <ns3:TrackPointExtension>
            <ns3:atemp>33.0</ns3:atemp>
            <ns3:hr>100</ns3:hr>
          </ns3:TrackPointExtension>
        </extensions>
      </trkpt>
      <trkpt lat="36.77708334289491176605224609375" lon="-118.50893743336200714111328125">
        <ele>2042</ele>
        <time>2021-06-24T19:16:38.000Z</time>
        <extensions>
          <ns3:TrackPointExtension>
            <ns3:atemp>33.0</ns3:atemp>
            <ns3:hr>100</ns3:hr>
          </ns3:TrackPointExtension>
        </extensions>
      </trkpt>
      <trkpt lat="36.777082420885562896728515625" lon="-118.508929722011089324951171875">
        <ele>2042</ele>
        <time>2021-06-24T19:16:40.000Z</time>
        <extensions>
          <ns3:TrackPointExtension>
            <ns3:atemp>33.0</ns3:atemp>
            <ns3:hr>104</ns3:hr>
          </ns3:TrackPointExtension>
        </extensions>
      </trkpt>
      <trkpt lat="36.77707814611494541168212890625" lon="-118.50892041809856891632080078125">
        <ele>2042.199951171875</ele>
        <time>2021-06-24T19:16:41.000Z</time>
        <extensions>
          <ns3:TrackPointExtension>
            <ns3:atemp>33.0</ns3:atemp>
            <ns3:hr>104</ns3:hr>
          </ns3:TrackPointExtension>
        </extensions>
      </trkpt>
      <trkpt lat="36.7770753800868988037109375" lon="-118.50888521410524845123291015625">
        <ele>2042.4000244140625</ele>
        <time>2021-06-24T19:16:44.000Z</time>
        <extensions>
          <ns3:TrackPointExtension>
            <ns3:atemp>33.0</ns3:atemp>
            <ns3:hr>101</ns3:hr>
          </ns3:TrackPointExtension>
        </extensions>
      </trkpt>
      <trkpt lat="36.77707127295434474945068359375" lon="-118.50884615443646907806396484375">
        <ele>2043</ele>
        <time>2021-06-24T19:16:48.000Z</time>
        <extensions>
          <ns3:TrackPointExtension>
            <ns3:atemp>33.0</ns3:atemp>
            <ns3:hr>100</ns3:hr>
          </ns3:TrackPointExtension>
        </extensions>
      </trkpt>
      <trkpt lat="36.7770539224147796630859375" lon="-118.50876417942345142364501953125">
        <ele>2044</ele>
        <time>2021-06-24T19:16:55.000Z</time>
        <extensions>
          <ns3:TrackPointExtension>
            <ns3:atemp>33.0</ns3:atemp>
            <ns3:hr>97</ns3:hr>
          </ns3:TrackPointExtension>
        </extensions>
      </trkpt>
      <trkpt lat="36.777048222720623016357421875" lon="-118.50873894989490509033203125">
        <ele>2044.4000244140625</ele>
        <time>2021-06-24T19:16:57.000Z</time>
        <extensions>
          <ns3:TrackPointExtension>
            <ns3:atemp>33.0</ns3:atemp>
            <ns3:hr>95</ns3:hr>
          </ns3:TrackPointExtension>
        </extensions>
      </trkpt>
      <trkpt lat="36.77702374756336212158203125" lon="-118.50871757604181766510009765625">
        <ele>2045</ele>
        <time>2021-06-24T19:17:01.000Z</time>
        <extensions>
          <ns3:TrackPointExtension>
            <ns3:atemp>33.0</ns3:atemp>
            <ns3:hr>95</ns3:hr>
          </ns3:TrackPointExtension>
        </extensions>
      </trkpt>
      <trkpt lat="36.7770110070705413818359375" lon="-118.508692346513271331787109375">
        <ele>2045.199951171875</ele>
        <time>2021-06-24T19:17:04.000Z</time>
        <extensions>
          <ns3:TrackPointExtension>
            <ns3:atemp>33.0</ns3:atemp>
            <ns3:hr>96</ns3:hr>
          </ns3:TrackPointExtension>
        </extensions>
      </trkpt>
      <trkpt lat="36.777020394802093505859375" lon="-118.5086412169039249420166015625">
        <ele>2045.5999755859375</ele>
        <time>2021-06-24T19:17:08.000Z</time>
        <extensions>
          <ns3:TrackPointExtension>
            <ns3:atemp>33.0</ns3:atemp>
            <ns3:hr>99</ns3:hr>
          </ns3:TrackPointExtension>
        </extensions>
      </trkpt>
      <trkpt lat="36.7770054750144481658935546875" lon="-118.50859939120709896087646484375">
        <ele>2045.5999755859375</ele>
        <time>2021-06-24T19:17:11.000Z</time>
        <extensions>
          <ns3:TrackPointExtension>
            <ns3:atemp>33.0</ns3:atemp>
            <ns3:hr>99</ns3:hr>
          </ns3:TrackPointExtension>
        </extensions>
      </trkpt>
      <trkpt lat="36.77700036205351352691650390625" lon="-118.508563600480556488037109375">
        <ele>2045.5999755859375</ele>
        <time>2021-06-24T19:17:13.000Z</time>
        <extensions>
          <ns3:TrackPointExtension>
            <ns3:atemp>33.0</ns3:atemp>
            <ns3:hr>96</ns3:hr>
          </ns3:TrackPointExtension>
        </extensions>
      </trkpt>
      <trkpt lat="36.77700228989124298095703125" lon="-118.5085483454167842864990234375">
        <ele>2045.800048828125</ele>
        <time>2021-06-24T19:17:14.000Z</time>
        <extensions>
          <ns3:TrackPointExtension>
            <ns3:atemp>33.0</ns3:atemp>
            <ns3:hr>96</ns3:hr>
          </ns3:TrackPointExtension>
        </extensions>
      </trkpt>
      <trkpt lat="36.77700153551995754241943359375" lon="-118.508531749248504638671875">
        <ele>2045.800048828125</ele>
        <time>2021-06-24T19:17:15.000Z</time>
        <extensions>
          <ns3:TrackPointExtension>
            <ns3:atemp>33.0</ns3:atemp>
            <ns3:hr>99</ns3:hr>
          </ns3:TrackPointExtension>
        </extensions>
      </trkpt>
      <trkpt lat="36.77700287662446498870849609375" lon="-118.5085030831396579742431640625">
        <ele>2045.800048828125</ele>
        <time>2021-06-24T19:17:17.000Z</time>
        <extensions>
          <ns3:TrackPointExtension>
            <ns3:atemp>33.0</ns3:atemp>
            <ns3:hr>100</ns3:hr>
          </ns3:TrackPointExtension>
        </extensions>
      </trkpt>
      <trkpt lat="36.7770105041563510894775390625" lon="-118.50845706649124622344970703125">
        <ele>2046.199951171875</ele>
        <time>2021-06-24T19:17:20.000Z</time>
        <extensions>
          <ns3:TrackPointExtension>
            <ns3:atemp>33.0</ns3:atemp>
            <ns3:hr>101</ns3:hr>
          </ns3:TrackPointExtension>
        </extensions>
      </trkpt>
      <trkpt lat="36.77699918858706951141357421875" lon="-118.50842756219208240509033203125">
        <ele>2046.4000244140625</ele>
        <time>2021-06-24T19:17:24.000Z</time>
        <extensions>
          <ns3:TrackPointExtension>
            <ns3:atemp>33.0</ns3:atemp>
            <ns3:hr>102</ns3:hr>
          </ns3:TrackPointExtension>
        </extensions>
      </trkpt>
      <trkpt lat="36.7769913934171199798583984375" lon="-118.50831725634634494781494140625">
        <ele>2047.199951171875</ele>
        <time>2021-06-24T19:17:31.000Z</time>
        <extensions>
          <ns3:TrackPointExtension>
            <ns3:atemp>33.0</ns3:atemp>
            <ns3:hr>102</ns3:hr>
          </ns3:TrackPointExtension>
        </extensions>
      </trkpt>
      <trkpt lat="36.7769917286932468414306640625" lon="-118.508306778967380523681640625">
        <ele>2047.4000244140625</ele>
        <time>2021-06-24T19:17:32.000Z</time>
        <extensions>
          <ns3:TrackPointExtension>
            <ns3:atemp>33.0</ns3:atemp>
            <ns3:hr>102</ns3:hr>
          </ns3:TrackPointExtension>
        </extensions>
      </trkpt>
      <trkpt lat="36.7770083248615264892578125" lon="-118.50827048532664775848388671875">
        <ele>2047.800048828125</ele>
        <time>2021-06-24T19:17:37.000Z</time>
        <extensions>
          <ns3:TrackPointExtension>
            <ns3:atemp>33.0</ns3:atemp>
            <ns3:hr>100</ns3:hr>
          </ns3:TrackPointExtension>
        </extensions>
      </trkpt>
      <trkpt lat="36.77700270898640155792236328125" lon="-118.50825891830027103424072265625">
        <ele>2048.199951171875</ele>
        <time>2021-06-24T19:17:39.000Z</time>
        <extensions>
          <ns3:TrackPointExtension>
            <ns3:atemp>33.0</ns3:atemp>
            <ns3:hr>101</ns3:hr>
          </ns3:TrackPointExtension>
        </extensions>
      </trkpt>
      <trkpt lat="36.7769900523126125335693359375" lon="-118.5082559846341609954833984375">
        <ele>2048.39990234375</ele>
        <time>2021-06-24T19:17:40.000Z</time>
        <extensions>
          <ns3:TrackPointExtension>
            <ns3:atemp>33.0</ns3:atemp>
            <ns3:hr>102</ns3:hr>
          </ns3:TrackPointExtension>
        </extensions>
      </trkpt>
      <trkpt lat="36.7769481427967548370361328125" lon="-118.50821650587022304534912109375">
        <ele>2048.800048828125</ele>
        <time>2021-06-24T19:17:45.000Z</time>
        <extensions>
          <ns3:TrackPointExtension>
            <ns3:atemp>33.0</ns3:atemp>
            <ns3:hr>100</ns3:hr>
          </ns3:TrackPointExtension>
        </extensions>
      </trkpt>
      <trkpt lat="36.7769447900354862213134765625" lon="-118.508166968822479248046875">
        <ele>2049.60009765625</ele>
        <time>2021-06-24T19:17:49.000Z</time>
        <extensions>
          <ns3:TrackPointExtension>
            <ns3:atemp>33.0</ns3:atemp>
            <ns3:hr>102</ns3:hr>
          </ns3:TrackPointExtension>
        </extensions>
      </trkpt>
      <trkpt lat="36.776942946016788482666015625" lon="-118.50814576260745525360107421875">
        <ele>2049.60009765625</ele>
        <time>2021-06-24T19:17:50.000Z</time>
        <extensions>
          <ns3:TrackPointExtension>
            <ns3:atemp>33.0</ns3:atemp>
            <ns3:hr>101</ns3:hr>
          </ns3:TrackPointExtension>
        </extensions>
      </trkpt>
      <trkpt lat="36.77694235928356647491455078125" lon="-118.50812816061079502105712890625">
        <ele>2049.800048828125</ele>
        <time>2021-06-24T19:17:51.000Z</time>
        <extensions>
          <ns3:TrackPointExtension>
            <ns3:atemp>33.0</ns3:atemp>
            <ns3:hr>106</ns3:hr>
          </ns3:TrackPointExtension>
        </extensions>
      </trkpt>
      <trkpt lat="36.77694755606353282928466796875" lon="-118.5081128217279911041259765625">
        <ele>2049.800048828125</ele>
        <time>2021-06-24T19:17:52.000Z</time>
        <extensions>
          <ns3:TrackPointExtension>
            <ns3:atemp>33.0</ns3:atemp>
            <ns3:hr>107</ns3:hr>
          </ns3:TrackPointExtension>
        </extensions>
      </trkpt>
      <trkpt lat="36.77696473896503448486328125" lon="-118.50808775983750820159912109375">
        <ele>2049.60009765625</ele>
        <time>2021-06-24T19:17:54.000Z</time>
        <extensions>
          <ns3:TrackPointExtension>
            <ns3:atemp>33.0</ns3:atemp>
            <ns3:hr>110</ns3:hr>
          </ns3:TrackPointExtension>
        </extensions>
      </trkpt>
      <trkpt lat="36.7769729532301425933837890625" lon="-118.50807518698275089263916015625">
        <ele>2049.60009765625</ele>
        <time>2021-06-24T19:17:55.000Z</time>
        <extensions>
          <ns3:TrackPointExtension>
            <ns3:atemp>33.0</ns3:atemp>
            <ns3:hr>113</ns3:hr>
          </ns3:TrackPointExtension>
        </extensions>
      </trkpt>
      <trkpt lat="36.7769830115139484405517578125" lon="-118.508060015738010406494140625">
        <ele>2049.800048828125</ele>
        <time>2021-06-24T19:17:56.000Z</time>
        <extensions>
          <ns3:TrackPointExtension>
            <ns3:atemp>33.0</ns3:atemp>
            <ns3:hr>110</ns3:hr>
          </ns3:TrackPointExtension>
        </extensions>
      </trkpt>
      <trkpt lat="36.77700740285217761993408203125" lon="-118.508016429841518402099609375">
        <ele>2050.199951171875</ele>
        <time>2021-06-24T19:17:59.000Z</time>
        <extensions>
          <ns3:TrackPointExtension>
            <ns3:atemp>33.0</ns3:atemp>
            <ns3:hr>110</ns3:hr>
          </ns3:TrackPointExtension>
        </extensions>
      </trkpt>
      <trkpt lat="36.77700321190059185028076171875" lon="-118.5079787112772464752197265625">
        <ele>2050.800048828125</ele>
        <time>2021-06-24T19:18:03.000Z</time>
        <extensions>
          <ns3:TrackPointExtension>
            <ns3:atemp>33.0</ns3:atemp>
            <ns3:hr>108</ns3:hr>
          </ns3:TrackPointExtension>
        </extensions>
      </trkpt>
      <trkpt lat="36.77699667401611804962158203125" lon="-118.507980220019817352294921875">
        <ele>2050.800048828125</ele>
        <time>2021-06-24T19:18:04.000Z</time>
        <extensions>
          <ns3:TrackPointExtension>
            <ns3:atemp>33.0</ns3:atemp>
            <ns3:hr>108</ns3:hr>
          </ns3:TrackPointExtension>
        </extensions>
      </trkpt>
      <trkpt lat="36.77699600346386432647705078125" lon="-118.50797074846923351287841796875">
        <ele>2051</ele>
        <time>2021-06-24T19:18:06.000Z</time>
        <extensions>
          <ns3:TrackPointExtension>
            <ns3:atemp>33.0</ns3:atemp>
            <ns3:hr>107</ns3:hr>
          </ns3:TrackPointExtension>
        </extensions>
      </trkpt>
      <trkpt lat="36.77700572647154331207275390625" lon="-118.5079428367316722869873046875">
        <ele>2051.60009765625</ele>
        <time>2021-06-24T19:18:09.000Z</time>
        <extensions>
          <ns3:TrackPointExtension>
            <ns3:atemp>33.0</ns3:atemp>
            <ns3:hr>108</ns3:hr>
          </ns3:TrackPointExtension>
        </extensions>
      </trkpt>
      <trkpt lat="36.7770091630518436431884765625" lon="-118.507915176451206207275390625">
        <ele>2051.800048828125</ele>
        <time>2021-06-24T19:18:11.000Z</time>
        <extensions>
          <ns3:TrackPointExtension>
            <ns3:atemp>33.0</ns3:atemp>
            <ns3:hr>108</ns3:hr>
          </ns3:TrackPointExtension>
        </extensions>
      </trkpt>
      <trkpt lat="36.7770108394324779510498046875" lon="-118.5079026035964488983154296875">
        <ele>2051.800048828125</ele>
        <time>2021-06-24T19:18:12.000Z</time>
        <extensions>
          <ns3:TrackPointExtension>
            <ns3:atemp>33.0</ns3:atemp>
            <ns3:hr>108</ns3:hr>
          </ns3:TrackPointExtension>
        </extensions>
      </trkpt>
      <trkpt lat="36.77701477892696857452392578125" lon="-118.5078898631036281585693359375">
        <ele>2052</ele>
        <time>2021-06-24T19:18:13.000Z</time>
        <extensions>
          <ns3:TrackPointExtension>
            <ns3:atemp>33.0</ns3:atemp>
            <ns3:hr>108</ns3:hr>
          </ns3:TrackPointExtension>
        </extensions>
      </trkpt>
      <trkpt lat="36.7770190536975860595703125" lon="-118.50785105489194393157958984375">
        <ele>2052.199951171875</ele>
        <time>2021-06-24T19:18:16.000Z</time>
        <extensions>
          <ns3:TrackPointExtension>
            <ns3:atemp>33.0</ns3:atemp>
            <ns3:hr>108</ns3:hr>
          </ns3:TrackPointExtension>
        </extensions>
      </trkpt>
      <trkpt lat="36.77701645530760288238525390625" lon="-118.5077941417694091796875">
        <ele>2052.60009765625</ele>
        <time>2021-06-24T19:18:20.000Z</time>
        <extensions>
          <ns3:TrackPointExtension>
            <ns3:atemp>33.0</ns3:atemp>
            <ns3:hr>112</ns3:hr>
          </ns3:TrackPointExtension>
        </extensions>
      </trkpt>
      <trkpt lat="36.77701746113598346710205078125" lon="-118.50778450258076190948486328125">
        <ele>2053</ele>
        <time>2021-06-24T19:18:21.000Z</time>
        <extensions>
          <ns3:TrackPointExtension>
            <ns3:atemp>33.0</ns3:atemp>
            <ns3:hr>113</ns3:hr>
          </ns3:TrackPointExtension>
        </extensions>
      </trkpt>
      <trkpt lat="36.777015365660190582275390625" lon="-118.5077765397727489471435546875">
        <ele>2053.199951171875</ele>
        <time>2021-06-24T19:18:23.000Z</time>
        <extensions>
          <ns3:TrackPointExtension>
            <ns3:atemp>33.0</ns3:atemp>
            <ns3:hr>112</ns3:hr>
          </ns3:TrackPointExtension>
        </extensions>
      </trkpt>
      <trkpt lat="36.7770135216414928436279296875" lon="-118.507770001888275146484375">
        <ele>2053.39990234375</ele>
        <time>2021-06-24T19:18:24.000Z</time>
        <extensions>
          <ns3:TrackPointExtension>
            <ns3:atemp>33.0</ns3:atemp>
            <ns3:hr>113</ns3:hr>
          </ns3:TrackPointExtension>
        </extensions>
      </trkpt>
      <trkpt lat="36.77700337953865528106689453125" lon="-118.507753908634185791015625">
        <ele>2054</ele>
        <time>2021-06-24T19:18:26.000Z</time>
        <extensions>
          <ns3:TrackPointExtension>
            <ns3:atemp>33.0</ns3:atemp>
            <ns3:hr>112</ns3:hr>
          </ns3:TrackPointExtension>
        </extensions>
      </trkpt>
      <trkpt lat="36.77700019441545009613037109375" lon="-118.50774259306490421295166015625">
        <ele>2054</ele>
        <time>2021-06-24T19:18:27.000Z</time>
        <extensions>
          <ns3:TrackPointExtension>
            <ns3:atemp>33.0</ns3:atemp>
            <ns3:hr>111</ns3:hr>
          </ns3:TrackPointExtension>
        </extensions>
      </trkpt>
      <trkpt lat="36.77701494656503200531005859375" lon="-118.50770093500614166259765625">
        <ele>2054.39990234375</ele>
        <time>2021-06-24T19:18:30.000Z</time>
        <extensions>
          <ns3:TrackPointExtension>
            <ns3:atemp>33.0</ns3:atemp>
            <ns3:hr>112</ns3:hr>
          </ns3:TrackPointExtension>
        </extensions>
      </trkpt>
      <trkpt lat="36.77701343782246112823486328125" lon="-118.507687859237194061279296875">
        <ele>2054.39990234375</ele>
        <time>2021-06-24T19:18:31.000Z</time>
        <extensions>
          <ns3:TrackPointExtension>
            <ns3:atemp>33.0</ns3:atemp>
            <ns3:hr>111</ns3:hr>
          </ns3:TrackPointExtension>
        </extensions>
      </trkpt>
      <trkpt lat="36.77699700929224491119384765625" lon="-118.50761803798377513885498046875">
        <ele>2055.199951171875</ele>
        <time>2021-06-24T19:18:38.000Z</time>
        <extensions>
          <ns3:TrackPointExtension>
            <ns3:atemp>33.0</ns3:atemp>
            <ns3:hr>114</ns3:hr>
          </ns3:TrackPointExtension>
        </extensions>
      </trkpt>
      <trkpt lat="36.77699633873999118804931640625" lon="-118.50761015899479389190673828125">
        <ele>2055.39990234375</ele>
        <time>2021-06-24T19:18:39.000Z</time>
        <extensions>
          <ns3:TrackPointExtension>
            <ns3:atemp>33.0</ns3:atemp>
            <ns3:hr>114</ns3:hr>
          </ns3:TrackPointExtension>
        </extensions>
      </trkpt>
      <trkpt lat="36.77699021995067596435546875" lon="-118.507602028548717498779296875">
        <ele>2055.800048828125</ele>
        <time>2021-06-24T19:18:41.000Z</time>
        <extensions>
          <ns3:TrackPointExtension>
            <ns3:atemp>33.0</ns3:atemp>
            <ns3:hr>115</ns3:hr>
          </ns3:TrackPointExtension>
        </extensions>
      </trkpt>
      <trkpt lat="36.77699382416903972625732421875" lon="-118.50758400745689868927001953125">
        <ele>2056</ele>
        <time>2021-06-24T19:18:43.000Z</time>
        <extensions>
          <ns3:TrackPointExtension>
            <ns3:atemp>33.0</ns3:atemp>
            <ns3:hr>114</ns3:hr>
          </ns3:TrackPointExtension>
        </extensions>
      </trkpt>
      <trkpt lat="36.7770001105964183807373046875" lon="-118.50755718536674976348876953125">
        <ele>2056.199951171875</ele>
        <time>2021-06-24T19:18:45.000Z</time>
        <extensions>
          <ns3:TrackPointExtension>
            <ns3:atemp>33.0</ns3:atemp>
            <ns3:hr>112</ns3:hr>
          </ns3:TrackPointExtension>
        </extensions>
      </trkpt>
      <trkpt lat="36.7770054750144481658935546875" lon="-118.5075307823717594146728515625">
        <ele>2056.800048828125</ele>
        <time>2021-06-24T19:18:47.000Z</time>
        <extensions>
          <ns3:TrackPointExtension>
            <ns3:atemp>33.0</ns3:atemp>
            <ns3:hr>113</ns3:hr>
          </ns3:TrackPointExtension>
        </extensions>
      </trkpt>
      <trkpt lat="36.77701729349792003631591796875" lon="-118.50750555284321308135986328125">
        <ele>2056.800048828125</ele>
        <time>2021-06-24T19:18:48.000Z</time>
        <extensions>
          <ns3:TrackPointExtension>
            <ns3:atemp>33.0</ns3:atemp>
            <ns3:hr>114</ns3:hr>
          </ns3:TrackPointExtension>
        </extensions>
      </trkpt>
      <trkpt lat="36.77701125852763652801513671875" lon="-118.50747965276241302490234375">
        <ele>2057.60009765625</ele>
        <time>2021-06-24T19:18:50.000Z</time>
        <extensions>
          <ns3:TrackPointExtension>
            <ns3:atemp>33.0</ns3:atemp>
            <ns3:hr>114</ns3:hr>
          </ns3:TrackPointExtension>
        </extensions>
      </trkpt>
      <trkpt lat="36.77700639702379703521728515625" lon="-118.5074690915644168853759765625">
        <ele>2057.60009765625</ele>
        <time>2021-06-24T19:18:51.000Z</time>
        <extensions>
          <ns3:TrackPointExtension>
            <ns3:atemp>33.0</ns3:atemp>
            <ns3:hr>113</ns3:hr>
          </ns3:TrackPointExtension>
        </extensions>
      </trkpt>
      <trkpt lat="36.77699650637805461883544921875" lon="-118.50742910988628864288330078125">
        <ele>2057.800048828125</ele>
        <time>2021-06-24T19:18:54.000Z</time>
        <extensions>
          <ns3:TrackPointExtension>
            <ns3:atemp>33.0</ns3:atemp>
            <ns3:hr>113</ns3:hr>
          </ns3:TrackPointExtension>
        </extensions>
      </trkpt>
      <trkpt lat="36.77698158659040927886962890625" lon="-118.5073527507483959197998046875">
        <ele>2058.60009765625</ele>
        <time>2021-06-24T19:19:00.000Z</time>
        <extensions>
          <ns3:TrackPointExtension>
            <ns3:atemp>33.0</ns3:atemp>
            <ns3:hr>115</ns3:hr>
          </ns3:TrackPointExtension>
        </extensions>
      </trkpt>
      <trkpt lat="36.77698125131428241729736328125" lon="-118.50732584483921527862548828125">
        <ele>2058.60009765625</ele>
        <time>2021-06-24T19:19:02.000Z</time>
        <extensions>
          <ns3:TrackPointExtension>
            <ns3:atemp>33.0</ns3:atemp>
            <ns3:hr>116</ns3:hr>
          </ns3:TrackPointExtension>
        </extensions>
      </trkpt>
      <trkpt lat="36.77698753774166107177734375" lon="-118.5073118470609188079833984375">
        <ele>2059.60009765625</ele>
        <time>2021-06-24T19:19:06.000Z</time>
        <extensions>
          <ns3:TrackPointExtension>
            <ns3:atemp>33.0</ns3:atemp>
            <ns3:hr>118</ns3:hr>
          </ns3:TrackPointExtension>
        </extensions>
      </trkpt>
      <trkpt lat="36.77698460407555103302001953125" lon="-118.50730606354773044586181640625">
        <ele>2059.800048828125</ele>
        <time>2021-06-24T19:19:07.000Z</time>
        <extensions>
          <ns3:TrackPointExtension>
            <ns3:atemp>33.0</ns3:atemp>
            <ns3:hr>118</ns3:hr>
          </ns3:TrackPointExtension>
        </extensions>
      </trkpt>
      <trkpt lat="36.776983179152011871337890625" lon="-118.50729717873036861419677734375">
        <ele>2060</ele>
        <time>2021-06-24T19:19:08.000Z</time>
        <extensions>
          <ns3:TrackPointExtension>
            <ns3:atemp>33.0</ns3:atemp>
            <ns3:hr>118</ns3:hr>
          </ns3:TrackPointExtension>
        </extensions>
      </trkpt>
      <trkpt lat="36.7769702710211277008056640625" lon="-118.50728175602853298187255859375">
        <ele>2060.199951171875</ele>
        <time>2021-06-24T19:19:10.000Z</time>
        <extensions>
          <ns3:TrackPointExtension>
            <ns3:atemp>33.0</ns3:atemp>
            <ns3:hr>119</ns3:hr>
          </ns3:TrackPointExtension>
        </extensions>
      </trkpt>
      <trkpt lat="36.77695375867187976837158203125" lon="-118.5072280280292034149169921875">
        <ele>2060.800048828125</ele>
        <time>2021-06-24T19:19:14.000Z</time>
        <extensions>
          <ns3:TrackPointExtension>
            <ns3:atemp>33.0</ns3:atemp>
            <ns3:hr>120</ns3:hr>
          </ns3:TrackPointExtension>
        </extensions>
      </trkpt>
      <trkpt lat="36.77695409394800662994384765625" lon="-118.507209755480289459228515625">
        <ele>2060.800048828125</ele>
        <time>2021-06-24T19:19:16.000Z</time>
        <extensions>
          <ns3:TrackPointExtension>
            <ns3:atemp>33.0</ns3:atemp>
            <ns3:hr>119</ns3:hr>
          </ns3:TrackPointExtension>
        </extensions>
      </trkpt>
      <trkpt lat="36.776950322091579437255859375" lon="-118.50719458423554897308349609375">
        <ele>2061</ele>
        <time>2021-06-24T19:19:18.000Z</time>
        <extensions>
          <ns3:TrackPointExtension>
            <ns3:atemp>33.0</ns3:atemp>
            <ns3:hr>121</ns3:hr>
          </ns3:TrackPointExtension>
        </extensions>
      </trkpt>
      <trkpt lat="36.77695007063448429107666015625" lon="-118.50717924535274505615234375">
        <ele>2061.39990234375</ele>
        <time>2021-06-24T19:19:20.000Z</time>
        <extensions>
          <ns3:TrackPointExtension>
            <ns3:atemp>33.0</ns3:atemp>
            <ns3:hr>119</ns3:hr>
          </ns3:TrackPointExtension>
        </extensions>
      </trkpt>
      <trkpt lat="36.77695040591061115264892578125" lon="-118.50714513100683689117431640625">
        <ele>2061.60009765625</ele>
        <time>2021-06-24T19:19:23.000Z</time>
        <extensions>
          <ns3:TrackPointExtension>
            <ns3:atemp>33.0</ns3:atemp>
            <ns3:hr>117</ns3:hr>
          </ns3:TrackPointExtension>
        </extensions>
      </trkpt>
      <trkpt lat="36.77694864571094512939453125" lon="-118.50713431835174560546875">
        <ele>2061.60009765625</ele>
        <time>2021-06-24T19:19:24.000Z</time>
        <extensions>
          <ns3:TrackPointExtension>
            <ns3:atemp>33.0</ns3:atemp>
            <ns3:hr>118</ns3:hr>
          </ns3:TrackPointExtension>
        </extensions>
      </trkpt>
      <trkpt lat="36.77694705314934253692626953125" lon="-118.50711814127862453460693359375">
        <ele>2062</ele>
        <time>2021-06-24T19:19:26.000Z</time>
        <extensions>
          <ns3:TrackPointExtension>
            <ns3:atemp>33.0</ns3:atemp>
            <ns3:hr>118</ns3:hr>
          </ns3:TrackPointExtension>
        </extensions>
      </trkpt>
      <trkpt lat="36.77694956772029399871826171875" lon="-118.5071049816906452178955078125">
        <ele>2062.39990234375</ele>
        <time>2021-06-24T19:19:28.000Z</time>
        <extensions>
          <ns3:TrackPointExtension>
            <ns3:atemp>33.0</ns3:atemp>
            <ns3:hr>116</ns3:hr>
          </ns3:TrackPointExtension>
        </extensions>
      </trkpt>
      <trkpt lat="36.77694302983582019805908203125" lon="-118.50706734694540500640869140625">
        <ele>2062.800048828125</ele>
        <time>2021-06-24T19:19:32.000Z</time>
        <extensions>
          <ns3:TrackPointExtension>
            <ns3:atemp>33.0</ns3:atemp>
            <ns3:hr>115</ns3:hr>
          </ns3:TrackPointExtension>
        </extensions>
      </trkpt>
      <trkpt lat="36.7769407667219638824462890625" lon="-118.5070597194135189056396484375">
        <ele>2063</ele>
        <time>2021-06-24T19:19:33.000Z</time>
        <extensions>
          <ns3:TrackPointExtension>
            <ns3:atemp>33.0</ns3:atemp>
            <ns3:hr>114</ns3:hr>
          </ns3:TrackPointExtension>
        </extensions>
      </trkpt>
      <trkpt lat="36.77692224271595478057861328125" lon="-118.5069988667964935302734375">
        <ele>2063.800048828125</ele>
        <time>2021-06-24T19:19:40.000Z</time>
        <extensions>
          <ns3:TrackPointExtension>
            <ns3:atemp>33.0</ns3:atemp>
            <ns3:hr>114</ns3:hr>
          </ns3:TrackPointExtension>
        </extensions>
      </trkpt>
      <trkpt lat="36.77689759992063045501708984375" lon="-118.506947569549083709716796875">
        <ele>2064</ele>
        <time>2021-06-24T19:19:45.000Z</time>
        <extensions>
          <ns3:TrackPointExtension>
            <ns3:atemp>33.0</ns3:atemp>
            <ns3:hr>114</ns3:hr>
          </ns3:TrackPointExtension>
        </extensions>
      </trkpt>
      <trkpt lat="36.7768807522952556610107421875" lon="-118.50691831670701503753662109375">
        <ele>2064</ele>
        <time>2021-06-24T19:19:48.000Z</time>
        <extensions>
          <ns3:TrackPointExtension>
            <ns3:atemp>33.0</ns3:atemp>
            <ns3:hr>115</ns3:hr>
          </ns3:TrackPointExtension>
        </extensions>
      </trkpt>
      <trkpt lat="36.7768770642578601837158203125" lon="-118.5069071687757968902587890625">
        <ele>2064</ele>
        <time>2021-06-24T19:19:49.000Z</time>
        <extensions>
          <ns3:TrackPointExtension>
            <ns3:atemp>33.0</ns3:atemp>
            <ns3:hr>116</ns3:hr>
          </ns3:TrackPointExtension>
        </extensions>
      </trkpt>
      <trkpt lat="36.77687413059175014495849609375" lon="-118.50687959231436252593994140625">
        <ele>2064.39990234375</ele>
        <time>2021-06-24T19:19:51.000Z</time>
        <extensions>
          <ns3:TrackPointExtension>
            <ns3:atemp>33.0</ns3:atemp>
            <ns3:hr>119</ns3:hr>
          </ns3:TrackPointExtension>
        </extensions>
      </trkpt>
      <trkpt lat="36.7768690176308155059814453125" lon="-118.5068541951477527618408203125">
        <ele>2064.199951171875</ele>
        <time>2021-06-24T19:19:53.000Z</time>
        <extensions>
          <ns3:TrackPointExtension>
            <ns3:atemp>33.0</ns3:atemp>
            <ns3:hr>121</ns3:hr>
          </ns3:TrackPointExtension>
        </extensions>
      </trkpt>
      <trkpt lat="36.776861809194087982177734375" lon="-118.506831564009189605712890625">
        <ele>2064.199951171875</ele>
        <time>2021-06-24T19:19:55.000Z</time>
        <extensions>
          <ns3:TrackPointExtension>
            <ns3:atemp>33.0</ns3:atemp>
            <ns3:hr>121</ns3:hr>
          </ns3:TrackPointExtension>
        </extensions>
      </trkpt>
      <trkpt lat="36.77685686387121677398681640625" lon="-118.50682427175343036651611328125">
        <ele>2064.39990234375</ele>
        <time>2021-06-24T19:19:56.000Z</time>
        <extensions>
          <ns3:TrackPointExtension>
            <ns3:atemp>33.0</ns3:atemp>
            <ns3:hr>120</ns3:hr>
          </ns3:TrackPointExtension>
        </extensions>
      </trkpt>
      <trkpt lat="36.77682928740978240966796875" lon="-118.50677817128598690032958984375">
        <ele>2064.800048828125</ele>
        <time>2021-06-24T19:20:01.000Z</time>
        <extensions>
          <ns3:TrackPointExtension>
            <ns3:atemp>33.0</ns3:atemp>
            <ns3:hr>118</ns3:hr>
          </ns3:TrackPointExtension>
        </extensions>
      </trkpt>
      <trkpt lat="36.77682434208691120147705078125" lon="-118.50669736973941326141357421875">
        <ele>2065</ele>
        <time>2021-06-24T19:20:08.000Z</time>
        <extensions>
          <ns3:TrackPointExtension>
            <ns3:atemp>33.0</ns3:atemp>
            <ns3:hr>118</ns3:hr>
          </ns3:TrackPointExtension>
        </extensions>
      </trkpt>
      <trkpt lat="36.7768264375627040863037109375" lon="-118.5066634230315685272216796875">
        <ele>2065.800048828125</ele>
        <time>2021-06-24T19:20:13.000Z</time>
        <extensions>
          <ns3:TrackPointExtension>
            <ns3:atemp>33.0</ns3:atemp>
            <ns3:hr>115</ns3:hr>
          </ns3:TrackPointExtension>
        </extensions>
      </trkpt>
      <trkpt lat="36.7768240906298160552978515625" lon="-118.5066158138215541839599609375">
        <ele>2066</ele>
        <time>2021-06-24T19:20:17.000Z</time>
        <extensions>
          <ns3:TrackPointExtension>
            <ns3:atemp>33.0</ns3:atemp>
            <ns3:hr>117</ns3:hr>
          </ns3:TrackPointExtension>
        </extensions>
      </trkpt>
      <trkpt lat="36.77681881003081798553466796875" lon="-118.50659695453941822052001953125">
        <ele>2065.800048828125</ele>
        <time>2021-06-24T19:20:19.000Z</time>
        <extensions>
          <ns3:TrackPointExtension>
            <ns3:atemp>33.0</ns3:atemp>
            <ns3:hr>114</ns3:hr>
          </ns3:TrackPointExtension>
        </extensions>
      </trkpt>
      <trkpt lat="36.7768150381743907928466796875" lon="-118.50657851435244083404541015625">
        <ele>2066.199951171875</ele>
        <time>2021-06-24T19:20:21.000Z</time>
        <extensions>
          <ns3:TrackPointExtension>
            <ns3:atemp>33.0</ns3:atemp>
            <ns3:hr>116</ns3:hr>
          </ns3:TrackPointExtension>
        </extensions>
      </trkpt>
      <trkpt lat="36.7768123559653759002685546875" lon="-118.5065614990890026092529296875">
        <ele>2066.39990234375</ele>
        <time>2021-06-24T19:20:23.000Z</time>
        <extensions>
          <ns3:TrackPointExtension>
            <ns3:atemp>33.0</ns3:atemp>
            <ns3:hr>113</ns3:hr>
          </ns3:TrackPointExtension>
        </extensions>
      </trkpt>
      <trkpt lat="36.77681327797472476959228515625" lon="-118.5065232776105403900146484375">
        <ele>2066.39990234375</ele>
        <time>2021-06-24T19:20:26.000Z</time>
        <extensions>
          <ns3:TrackPointExtension>
            <ns3:atemp>33.0</ns3:atemp>
            <ns3:hr>110</ns3:hr>
          </ns3:TrackPointExtension>
        </extensions>
      </trkpt>
      <trkpt lat="36.77679969929158687591552734375" lon="-118.50645161233842372894287109375">
        <ele>2066.39990234375</ele>
        <time>2021-06-24T19:20:31.000Z</time>
        <extensions>
          <ns3:TrackPointExtension>
            <ns3:atemp>33.0</ns3:atemp>
            <ns3:hr>107</ns3:hr>
          </ns3:TrackPointExtension>
        </extensions>
      </trkpt>
      <trkpt lat="36.77680187858641147613525390625" lon="-118.50637852214276790618896484375">
        <ele>2066.800048828125</ele>
        <time>2021-06-24T19:20:36.000Z</time>
        <extensions>
          <ns3:TrackPointExtension>
            <ns3:atemp>33.0</ns3:atemp>
            <ns3:hr>107</ns3:hr>
          </ns3:TrackPointExtension>
        </extensions>
      </trkpt>
      <trkpt lat="36.77678863517940044403076171875" lon="-118.50632093846797943115234375">
        <ele>2067</ele>
        <time>2021-06-24T19:20:40.000Z</time>
        <extensions>
          <ns3:TrackPointExtension>
            <ns3:atemp>33.0</ns3:atemp>
            <ns3:hr>108</ns3:hr>
          </ns3:TrackPointExtension>
        </extensions>
      </trkpt>
      <trkpt lat="36.77678310312330722808837890625" lon="-118.50630752742290496826171875">
        <ele>2067.199951171875</ele>
        <time>2021-06-24T19:20:42.000Z</time>
        <extensions>
          <ns3:TrackPointExtension>
            <ns3:atemp>33.0</ns3:atemp>
            <ns3:hr>107</ns3:hr>
          </ns3:TrackPointExtension>
        </extensions>
      </trkpt>
      <trkpt lat="36.7767801694571971893310546875" lon="-118.5062962956726551055908203125">
        <ele>2067.39990234375</ele>
        <time>2021-06-24T19:20:43.000Z</time>
        <extensions>
          <ns3:TrackPointExtension>
            <ns3:atemp>33.0</ns3:atemp>
            <ns3:hr>107</ns3:hr>
          </ns3:TrackPointExtension>
        </extensions>
      </trkpt>
      <trkpt lat="36.77676818333566188812255859375" lon="-118.50623938255012035369873046875">
        <ele>2067.800048828125</ele>
        <time>2021-06-24T19:20:48.000Z</time>
        <extensions>
          <ns3:TrackPointExtension>
            <ns3:atemp>33.0</ns3:atemp>
            <ns3:hr>110</ns3:hr>
          </ns3:TrackPointExtension>
        </extensions>
      </trkpt>
      <trkpt lat="36.7767486535012722015380859375" lon="-118.50619764067232608795166015625">
        <ele>2068.199951171875</ele>
        <time>2021-06-24T19:20:52.000Z</time>
        <extensions>
          <ns3:TrackPointExtension>
            <ns3:atemp>33.0</ns3:atemp>
            <ns3:hr>109</ns3:hr>
          </ns3:TrackPointExtension>
        </extensions>
      </trkpt>
      <trkpt lat="36.7767432890832424163818359375" lon="-118.5061826370656490325927734375">
        <ele>2068.39990234375</ele>
        <time>2021-06-24T19:20:53.000Z</time>
        <extensions>
          <ns3:TrackPointExtension>
            <ns3:atemp>33.0</ns3:atemp>
            <ns3:hr>109</ns3:hr>
          </ns3:TrackPointExtension>
        </extensions>
      </trkpt>
      <trkpt lat="36.776746474206447601318359375" lon="-118.50610879249870777130126953125">
        <ele>2068.39990234375</ele>
        <time>2021-06-24T19:20:59.000Z</time>
        <extensions>
          <ns3:TrackPointExtension>
            <ns3:atemp>33.0</ns3:atemp>
            <ns3:hr>110</ns3:hr>
          </ns3:TrackPointExtension>
        </extensions>
      </trkpt>
      <trkpt lat="36.77671873010694980621337890625" lon="-118.5059898532927036285400390625">
        <ele>2068.199951171875</ele>
        <time>2021-06-24T19:21:07.000Z</time>
        <extensions>
          <ns3:TrackPointExtension>
            <ns3:atemp>32.0</ns3:atemp>
            <ns3:hr>111</ns3:hr>
          </ns3:TrackPointExtension>
        </extensions>
      </trkpt>
      <trkpt lat="36.77669241093099117279052734375" lon="-118.50593277253210544586181640625">
        <ele>2068.199951171875</ele>
        <time>2021-06-24T19:21:13.000Z</time>
        <extensions>
          <ns3:TrackPointExtension>
            <ns3:atemp>32.0</ns3:atemp>
            <ns3:hr>108</ns3:hr>
          </ns3:TrackPointExtension>
        </extensions>
      </trkpt>
      <trkpt lat="36.776688136160373687744140625" lon="-118.50592003203928470611572265625">
        <ele>2068.199951171875</ele>
        <time>2021-06-24T19:21:14.000Z</time>
        <extensions>
          <ns3:TrackPointExtension>
            <ns3:atemp>32.0</ns3:atemp>
            <ns3:hr>107</ns3:hr>
          </ns3:TrackPointExtension>
        </extensions>
      </trkpt>
      <trkpt lat="36.77668352611362934112548828125" lon="-118.50590427406132221221923828125">
        <ele>2068</ele>
        <time>2021-06-24T19:21:15.000Z</time>
        <extensions>
          <ns3:TrackPointExtension>
            <ns3:atemp>32.0</ns3:atemp>
            <ns3:hr>106</ns3:hr>
          </ns3:TrackPointExtension>
        </extensions>
      </trkpt>
      <trkpt lat="36.7766792513430118560791015625" lon="-118.50588834844529628753662109375">
        <ele>2068</ele>
        <time>2021-06-24T19:21:16.000Z</time>
        <extensions>
          <ns3:TrackPointExtension>
            <ns3:atemp>32.0</ns3:atemp>
            <ns3:hr>102</ns3:hr>
          </ns3:TrackPointExtension>
        </extensions>
      </trkpt>
      <trkpt lat="36.77667363546788692474365234375" lon="-118.5058503784239292144775390625">
        <ele>2068</ele>
        <time>2021-06-24T19:21:18.000Z</time>
        <extensions>
          <ns3:TrackPointExtension>
            <ns3:atemp>32.0</ns3:atemp>
            <ns3:hr>98</ns3:hr>
          </ns3:TrackPointExtension>
        </extensions>
      </trkpt>
      <trkpt lat="36.7766668461263179779052734375" lon="-118.50580452941358089447021484375">
        <ele>2067.800048828125</ele>
        <time>2021-06-24T19:21:21.000Z</time>
        <extensions>
          <ns3:TrackPointExtension>
            <ns3:atemp>32.0</ns3:atemp>
            <ns3:hr>95</ns3:hr>
          </ns3:TrackPointExtension>
        </extensions>
      </trkpt>
      <trkpt lat="36.77666299045085906982421875" lon="-118.5057771205902099609375">
        <ele>2067.800048828125</ele>
        <time>2021-06-24T19:21:23.000Z</time>
        <extensions>
          <ns3:TrackPointExtension>
            <ns3:atemp>32.0</ns3:atemp>
            <ns3:hr>93</ns3:hr>
          </ns3:TrackPointExtension>
        </extensions>
      </trkpt>
      <trkpt lat="36.77663641981780529022216796875" lon="-118.5056891106069087982177734375">
        <ele>2067.800048828125</ele>
        <time>2021-06-24T19:21:29.000Z</time>
        <extensions>
          <ns3:TrackPointExtension>
            <ns3:atemp>32.0</ns3:atemp>
            <ns3:hr>92</ns3:hr>
          </ns3:TrackPointExtension>
        </extensions>
      </trkpt>
      <trkpt lat="36.77661999128758907318115234375" lon="-118.50569237954914569854736328125">
        <ele>2067.800048828125</ele>
        <time>2021-06-24T19:21:37.000Z</time>
        <extensions>
          <ns3:TrackPointExtension>
            <ns3:atemp>32.0</ns3:atemp>
            <ns3:hr>90</ns3:hr>
          </ns3:TrackPointExtension>
        </extensions>
      </trkpt>
      <trkpt lat="36.77660658024251461029052734375" lon="-118.5057033598423004150390625">
        <ele>2067.800048828125</ele>
        <time>2021-06-24T19:21:41.000Z</time>
        <extensions>
          <ns3:TrackPointExtension>
            <ns3:atemp>32.0</ns3:atemp>
            <ns3:hr>86</ns3:hr>
          </ns3:TrackPointExtension>
        </extensions>
      </trkpt>
      <trkpt lat="36.77660993300378322601318359375" lon="-118.50569866597652435302734375">
        <ele>2068</ele>
        <time>2021-06-24T19:21:44.000Z</time>
        <extensions>
          <ns3:TrackPointExtension>
            <ns3:atemp>32.0</ns3:atemp>
            <ns3:hr>83</ns3:hr>
          </ns3:TrackPointExtension>
        </extensions>
      </trkpt>
      <trkpt lat="36.77661362104117870330810546875" lon="-118.50569154135882854461669921875">
        <ele>2068.199951171875</ele>
        <time>2021-06-24T19:21:46.000Z</time>
        <extensions>
          <ns3:TrackPointExtension>
            <ns3:atemp>32.0</ns3:atemp>
            <ns3:hr>82</ns3:hr>
          </ns3:TrackPointExtension>
        </extensions>
      </trkpt>
      <trkpt lat="36.77661630325019359588623046875" lon="-118.50566052831709384918212890625">
        <ele>2068.199951171875</ele>
        <time>2021-06-24T19:21:50.000Z</time>
        <extensions>
          <ns3:TrackPointExtension>
            <ns3:atemp>32.0</ns3:atemp>
            <ns3:hr>79</ns3:hr>
          </ns3:TrackPointExtension>
        </extensions>
      </trkpt>
      <trkpt lat="36.77661378867924213409423828125" lon="-118.505631275475025177001953125">
        <ele>2068.39990234375</ele>
        <time>2021-06-24T19:21:53.000Z</time>
        <extensions>
          <ns3:TrackPointExtension>
            <ns3:atemp>32.0</ns3:atemp>
            <ns3:hr>78</ns3:hr>
          </ns3:TrackPointExtension>
        </extensions>
      </trkpt>
      <trkpt lat="36.77661848254501819610595703125" lon="-118.50556614808738231658935546875">
        <ele>2068.199951171875</ele>
        <time>2021-06-24T19:21:59.000Z</time>
        <extensions>
          <ns3:TrackPointExtension>
            <ns3:atemp>32.0</ns3:atemp>
            <ns3:hr>81</ns3:hr>
          </ns3:TrackPointExtension>
        </extensions>
      </trkpt>
      <trkpt lat="36.77662384696304798126220703125" lon="-118.5055593587458133697509765625">
        <ele>2068.199951171875</ele>
        <time>2021-06-24T19:22:00.000Z</time>
        <extensions>
          <ns3:TrackPointExtension>
            <ns3:atemp>32.0</ns3:atemp>
            <ns3:hr>83</ns3:hr>
          </ns3:TrackPointExtension>
        </extensions>
      </trkpt>
      <trkpt lat="36.776611022651195526123046875" lon="-118.505487106740474700927734375">
        <ele>2068.800048828125</ele>
        <time>2021-06-24T19:22:07.000Z</time>
        <extensions>
          <ns3:TrackPointExtension>
            <ns3:atemp>32.0</ns3:atemp>
            <ns3:hr>81</ns3:hr>
          </ns3:TrackPointExtension>
        </extensions>
      </trkpt>
      <trkpt lat="36.77660808898508548736572265625" lon="-118.5054728575050830841064453125">
        <ele>2068.800048828125</ele>
        <time>2021-06-24T19:22:09.000Z</time>
        <extensions>
          <ns3:TrackPointExtension>
            <ns3:atemp>32.0</ns3:atemp>
            <ns3:hr>81</ns3:hr>
          </ns3:TrackPointExtension>
        </extensions>
      </trkpt>
      <trkpt lat="36.776593588292598724365234375" lon="-118.50544913671910762786865234375">
        <ele>2068.800048828125</ele>
        <time>2021-06-24T19:22:12.000Z</time>
        <extensions>
          <ns3:TrackPointExtension>
            <ns3:atemp>32.0</ns3:atemp>
            <ns3:hr>84</ns3:hr>
          </ns3:TrackPointExtension>
        </extensions>
      </trkpt>
      <trkpt lat="36.776555366814136505126953125" lon="-118.505381159484386444091796875">
        <ele>2068.60009765625</ele>
        <time>2021-06-24T19:22:18.000Z</time>
        <extensions>
          <ns3:TrackPointExtension>
            <ns3:atemp>32.0</ns3:atemp>
            <ns3:hr>86</ns3:hr>
          </ns3:TrackPointExtension>
        </extensions>
      </trkpt>
      <trkpt lat="36.77653365768492221832275390625" lon="-118.5052623040974140167236328125">
        <ele>2069</ele>
        <time>2021-06-24T19:22:28.000Z</time>
        <extensions>
          <ns3:TrackPointExtension>
            <ns3:atemp>32.0</ns3:atemp>
            <ns3:hr>86</ns3:hr>
          </ns3:TrackPointExtension>
        </extensions>
      </trkpt>
      <trkpt lat="36.7765320651233196258544921875" lon="-118.50516465492546558380126953125">
        <ele>2069</ele>
        <time>2021-06-24T19:22:36.000Z</time>
        <extensions>
          <ns3:TrackPointExtension>
            <ns3:atemp>32.0</ns3:atemp>
            <ns3:hr>87</ns3:hr>
          </ns3:TrackPointExtension>
        </extensions>
      </trkpt>
      <trkpt lat="36.7765079252421855926513671875" lon="-118.50514520891010761260986328125">
        <ele>2069</ele>
        <time>2021-06-24T19:22:38.000Z</time>
        <extensions>
          <ns3:TrackPointExtension>
            <ns3:atemp>32.0</ns3:atemp>
            <ns3:hr>88</ns3:hr>
          </ns3:TrackPointExtension>
        </extensions>
      </trkpt>
      <trkpt lat="36.7764904908835887908935546875" lon="-118.50508888252079486846923828125">
        <ele>2069.199951171875</ele>
        <time>2021-06-24T19:22:43.000Z</time>
        <extensions>
          <ns3:TrackPointExtension>
            <ns3:atemp>32.0</ns3:atemp>
            <ns3:hr>88</ns3:hr>
          </ns3:TrackPointExtension>
        </extensions>
      </trkpt>
      <trkpt lat="36.77648127079010009765625" lon="-118.505028448998928070068359375">
        <ele>2069</ele>
        <time>2021-06-24T19:22:47.000Z</time>
        <extensions>
          <ns3:TrackPointExtension>
            <ns3:atemp>32.0</ns3:atemp>
            <ns3:hr>91</ns3:hr>
          </ns3:TrackPointExtension>
        </extensions>
      </trkpt>
      <trkpt lat="36.7764807678759098052978515625" lon="-118.50498310290277004241943359375">
        <ele>2068.60009765625</ele>
        <time>2021-06-24T19:22:51.000Z</time>
        <extensions>
          <ns3:TrackPointExtension>
            <ns3:atemp>32.0</ns3:atemp>
            <ns3:hr>92</ns3:hr>
          </ns3:TrackPointExtension>
        </extensions>
      </trkpt>
      <trkpt lat="36.7764743976294994354248046875" lon="-118.50491973571479320526123046875">
        <ele>2068.60009765625</ele>
        <time>2021-06-24T19:22:56.000Z</time>
        <extensions>
          <ns3:TrackPointExtension>
            <ns3:atemp>32.0</ns3:atemp>
            <ns3:hr>94</ns3:hr>
          </ns3:TrackPointExtension>
        </extensions>
      </trkpt>
      <trkpt lat="36.776476241648197174072265625" lon="-118.50491051562130451202392578125">
        <ele>2068.60009765625</ele>
        <time>2021-06-24T19:22:57.000Z</time>
        <extensions>
          <ns3:TrackPointExtension>
            <ns3:atemp>32.0</ns3:atemp>
            <ns3:hr>94</ns3:hr>
          </ns3:TrackPointExtension>
        </extensions>
      </trkpt>
      <trkpt lat="36.77646324969828128814697265625" lon="-118.5048234276473522186279296875">
        <ele>2068.39990234375</ele>
        <time>2021-06-24T19:23:05.000Z</time>
        <extensions>
          <ns3:TrackPointExtension>
            <ns3:atemp>32.0</ns3:atemp>
            <ns3:hr>95</ns3:hr>
          </ns3:TrackPointExtension>
        </extensions>
      </trkpt>
      <trkpt lat="36.7764723859727382659912109375" lon="-118.5047510080039501190185546875">
        <ele>2068</ele>
        <time>2021-06-24T19:23:10.000Z</time>
        <extensions>
          <ns3:TrackPointExtension>
            <ns3:atemp>32.0</ns3:atemp>
            <ns3:hr>100</ns3:hr>
          </ns3:TrackPointExtension>
        </extensions>
      </trkpt>
      <trkpt lat="36.77647481672465801239013671875" lon="-118.50473709404468536376953125">
        <ele>2068</ele>
        <time>2021-06-24T19:23:11.000Z</time>
        <extensions>
          <ns3:TrackPointExtension>
            <ns3:atemp>32.0</ns3:atemp>
            <ns3:hr>96</ns3:hr>
          </ns3:TrackPointExtension>
        </extensions>
      </trkpt>
      <trkpt lat="36.7764707095921039581298828125" lon="-118.50472209043800830841064453125">
        <ele>2068</ele>
        <time>2021-06-24T19:23:12.000Z</time>
        <extensions>
          <ns3:TrackPointExtension>
            <ns3:atemp>32.0</ns3:atemp>
            <ns3:hr>96</ns3:hr>
          </ns3:TrackPointExtension>
        </extensions>
      </trkpt>
      <trkpt lat="36.77646827884018421173095703125" lon="-118.5047084279358386993408203125">
        <ele>2068</ele>
        <time>2021-06-24T19:23:13.000Z</time>
        <extensions>
          <ns3:TrackPointExtension>
            <ns3:atemp>32.0</ns3:atemp>
            <ns3:hr>96</ns3:hr>
          </ns3:TrackPointExtension>
        </extensions>
      </trkpt>
      <trkpt lat="36.7764717154204845428466796875" lon="-118.5046410374343395233154296875">
        <ele>2067.800048828125</ele>
        <time>2021-06-24T19:23:19.000Z</time>
        <extensions>
          <ns3:TrackPointExtension>
            <ns3:atemp>32.0</ns3:atemp>
            <ns3:hr>92</ns3:hr>
          </ns3:TrackPointExtension>
        </extensions>
      </trkpt>
      <trkpt lat="36.7764720506966114044189453125" lon="-118.50462536327540874481201171875">
        <ele>2067.800048828125</ele>
        <time>2021-06-24T19:23:20.000Z</time>
        <extensions>
          <ns3:TrackPointExtension>
            <ns3:atemp>32.0</ns3:atemp>
            <ns3:hr>95</ns3:hr>
          </ns3:TrackPointExtension>
        </extensions>
      </trkpt>
      <trkpt lat="36.7764770798385143280029296875" lon="-118.50458077155053615570068359375">
        <ele>2068</ele>
        <time>2021-06-24T19:23:23.000Z</time>
        <extensions>
          <ns3:TrackPointExtension>
            <ns3:atemp>32.0</ns3:atemp>
            <ns3:hr>96</ns3:hr>
          </ns3:TrackPointExtension>
        </extensions>
      </trkpt>
      <trkpt lat="36.776488311588764190673828125" lon="-118.5045280493795871734619140625">
        <ele>2068.60009765625</ele>
        <time>2021-06-24T19:23:28.000Z</time>
        <extensions>
          <ns3:TrackPointExtension>
            <ns3:atemp>32.0</ns3:atemp>
            <ns3:hr>93</ns3:hr>
          </ns3:TrackPointExtension>
        </extensions>
      </trkpt>
      <trkpt lat="36.7764884792268276214599609375" lon="-118.5045186616480350494384765625">
        <ele>2068.800048828125</ele>
        <time>2021-06-24T19:23:29.000Z</time>
        <extensions>
          <ns3:TrackPointExtension>
            <ns3:atemp>32.0</ns3:atemp>
            <ns3:hr>96</ns3:hr>
          </ns3:TrackPointExtension>
        </extensions>
      </trkpt>
      <trkpt lat="36.77649241872131824493408203125" lon="-118.50449837744235992431640625">
        <ele>2068.800048828125</ele>
        <time>2021-06-24T19:23:31.000Z</time>
        <extensions>
          <ns3:TrackPointExtension>
            <ns3:atemp>32.0</ns3:atemp>
            <ns3:hr>92</ns3:hr>
          </ns3:TrackPointExtension>
        </extensions>
      </trkpt>
      <trkpt lat="36.77648990415036678314208984375" lon="-118.5044961981475353240966796875">
        <ele>2069.199951171875</ele>
        <time>2021-06-24T19:23:32.000Z</time>
        <extensions>
          <ns3:TrackPointExtension>
            <ns3:atemp>32.0</ns3:atemp>
            <ns3:hr>94</ns3:hr>
          </ns3:TrackPointExtension>
        </extensions>
      </trkpt>
      <trkpt lat="36.776491664350032806396484375" lon="-118.504496030509471893310546875">
        <ele>2069.39990234375</ele>
        <time>2021-06-24T19:23:33.000Z</time>
        <extensions>
          <ns3:TrackPointExtension>
            <ns3:atemp>32.0</ns3:atemp>
            <ns3:hr>94</ns3:hr>
          </ns3:TrackPointExtension>
        </extensions>
      </trkpt>
      <trkpt lat="36.77652544341981410980224609375" lon="-118.50445604883134365081787109375">
        <ele>2069.800048828125</ele>
        <time>2021-06-24T19:23:38.000Z</time>
        <extensions>
          <ns3:TrackPointExtension>
            <ns3:atemp>32.0</ns3:atemp>
            <ns3:hr>97</ns3:hr>
          </ns3:TrackPointExtension>
        </extensions>
      </trkpt>
      <trkpt lat="36.7765223421156406402587890625" lon="-118.504446409642696380615234375">
        <ele>2070.60009765625</ele>
        <time>2021-06-24T19:23:39.000Z</time>
        <extensions>
          <ns3:TrackPointExtension>
            <ns3:atemp>32.0</ns3:atemp>
            <ns3:hr>96</ns3:hr>
          </ns3:TrackPointExtension>
        </extensions>
      </trkpt>
      <trkpt lat="36.77651873789727687835693359375" lon="-118.504404164850711822509765625">
        <ele>2070.800048828125</ele>
        <time>2021-06-24T19:23:43.000Z</time>
        <extensions>
          <ns3:TrackPointExtension>
            <ns3:atemp>32.0</ns3:atemp>
            <ns3:hr>99</ns3:hr>
          </ns3:TrackPointExtension>
        </extensions>
      </trkpt>
      <trkpt lat="36.7765163071453571319580078125" lon="-118.50438279099762439727783203125">
        <ele>2071.199951171875</ele>
        <time>2021-06-24T19:23:45.000Z</time>
        <extensions>
          <ns3:TrackPointExtension>
            <ns3:atemp>32.0</ns3:atemp>
            <ns3:hr>101</ns3:hr>
          </ns3:TrackPointExtension>
        </extensions>
      </trkpt>
      <trkpt lat="36.7765149660408496856689453125" lon="-118.50436133332550525665283203125">
        <ele>2071.60009765625</ele>
        <time>2021-06-24T19:23:48.000Z</time>
        <extensions>
          <ns3:TrackPointExtension>
            <ns3:atemp>32.0</ns3:atemp>
            <ns3:hr>102</ns3:hr>
          </ns3:TrackPointExtension>
        </extensions>
      </trkpt>
      <trkpt lat="36.77650935016572475433349609375" lon="-118.5043568909168243408203125">
        <ele>2071.800048828125</ele>
        <time>2021-06-24T19:23:49.000Z</time>
        <extensions>
          <ns3:TrackPointExtension>
            <ns3:atemp>32.0</ns3:atemp>
            <ns3:hr>102</ns3:hr>
          </ns3:TrackPointExtension>
        </extensions>
      </trkpt>
      <trkpt lat="36.77651412785053253173828125" lon="-118.50433317013084888458251953125">
        <ele>2072.199951171875</ele>
        <time>2021-06-24T19:23:51.000Z</time>
        <extensions>
          <ns3:TrackPointExtension>
            <ns3:atemp>32.0</ns3:atemp>
            <ns3:hr>102</ns3:hr>
          </ns3:TrackPointExtension>
        </extensions>
      </trkpt>
      <trkpt lat="36.77653868682682514190673828125" lon="-118.50429260171949863433837890625">
        <ele>2072.39990234375</ele>
        <time>2021-06-24T19:23:55.000Z</time>
        <extensions>
          <ns3:TrackPointExtension>
            <ns3:atemp>32.0</ns3:atemp>
            <ns3:hr>104</ns3:hr>
          </ns3:TrackPointExtension>
        </extensions>
      </trkpt>
      <trkpt lat="36.77654589526355266571044921875" lon="-118.50423627533018589019775390625">
        <ele>2072.39990234375</ele>
        <time>2021-06-24T19:23:59.000Z</time>
        <extensions>
          <ns3:TrackPointExtension>
            <ns3:atemp>32.0</ns3:atemp>
            <ns3:hr>103</ns3:hr>
          </ns3:TrackPointExtension>
        </extensions>
      </trkpt>
      <trkpt lat="36.7765327356755733489990234375" lon="-118.50422873161733150482177734375">
        <ele>2072.60009765625</ele>
        <time>2021-06-24T19:24:01.000Z</time>
        <extensions>
          <ns3:TrackPointExtension>
            <ns3:atemp>32.0</ns3:atemp>
            <ns3:hr>103</ns3:hr>
          </ns3:TrackPointExtension>
        </extensions>
      </trkpt>
      <trkpt lat="36.7765236832201480865478515625" lon="-118.50422671996057033538818359375">
        <ele>2072.800048828125</ele>
        <time>2021-06-24T19:24:03.000Z</time>
        <extensions>
          <ns3:TrackPointExtension>
            <ns3:atemp>32.0</ns3:atemp>
            <ns3:hr>100</ns3:hr>
          </ns3:TrackPointExtension>
        </extensions>
      </trkpt>
      <trkpt lat="36.77652577869594097137451171875" lon="-118.5042068548500537872314453125">
        <ele>2073</ele>
        <time>2021-06-24T19:24:05.000Z</time>
        <extensions>
          <ns3:TrackPointExtension>
            <ns3:atemp>32.0</ns3:atemp>
            <ns3:hr>97</ns3:hr>
          </ns3:TrackPointExtension>
        </extensions>
      </trkpt>
      <trkpt lat="36.776523850858211517333984375" lon="-118.5041776858270168304443359375">
        <ele>2073.39990234375</ele>
        <time>2021-06-24T19:24:08.000Z</time>
        <extensions>
          <ns3:TrackPointExtension>
            <ns3:atemp>32.0</ns3:atemp>
            <ns3:hr>95</ns3:hr>
          </ns3:TrackPointExtension>
        </extensions>
      </trkpt>
      <trkpt lat="36.7765228450298309326171875" lon="-118.504159413278102874755859375">
        <ele>2074</ele>
        <time>2021-06-24T19:24:10.000Z</time>
        <extensions>
          <ns3:TrackPointExtension>
            <ns3:atemp>32.0</ns3:atemp>
            <ns3:hr>95</ns3:hr>
          </ns3:TrackPointExtension>
        </extensions>
      </trkpt>
      <trkpt lat="36.7765193246304988861083984375" lon="-118.5041401349008083343505859375">
        <ele>2074.39990234375</ele>
        <time>2021-06-24T19:24:12.000Z</time>
        <extensions>
          <ns3:TrackPointExtension>
            <ns3:atemp>32.0</ns3:atemp>
            <ns3:hr>94</ns3:hr>
          </ns3:TrackPointExtension>
        </extensions>
      </trkpt>
      <trkpt lat="36.77652527578175067901611328125" lon="-118.50408799946308135986328125">
        <ele>2074.60009765625</ele>
        <time>2021-06-24T19:24:16.000Z</time>
        <extensions>
          <ns3:TrackPointExtension>
            <ns3:atemp>32.0</ns3:atemp>
            <ns3:hr>95</ns3:hr>
          </ns3:TrackPointExtension>
        </extensions>
      </trkpt>
      <trkpt lat="36.776527203619480133056640625" lon="-118.5040559805929660797119140625">
        <ele>2075</ele>
        <time>2021-06-24T19:24:18.000Z</time>
        <extensions>
          <ns3:TrackPointExtension>
            <ns3:atemp>32.0</ns3:atemp>
            <ns3:hr>97</ns3:hr>
          </ns3:TrackPointExtension>
        </extensions>
      </trkpt>
      <trkpt lat="36.7764857970178127288818359375" lon="-118.50401666946709156036376953125">
        <ele>2075.800048828125</ele>
        <time>2021-06-24T19:24:24.000Z</time>
        <extensions>
          <ns3:TrackPointExtension>
            <ns3:atemp>32.0</ns3:atemp>
            <ns3:hr>98</ns3:hr>
          </ns3:TrackPointExtension>
        </extensions>
      </trkpt>
      <trkpt lat="36.77648135460913181304931640625" lon="-118.50399889983236789703369140625">
        <ele>2076.199951171875</ele>
        <time>2021-06-24T19:24:25.000Z</time>
        <extensions>
          <ns3:TrackPointExtension>
            <ns3:atemp>32.0</ns3:atemp>
            <ns3:hr>98</ns3:hr>
          </ns3:TrackPointExtension>
        </extensions>
      </trkpt>
      <trkpt lat="36.77648060023784637451171875" lon="-118.50398213602602481842041015625">
        <ele>2076.39990234375</ele>
        <time>2021-06-24T19:24:26.000Z</time>
        <extensions>
          <ns3:TrackPointExtension>
            <ns3:atemp>32.0</ns3:atemp>
            <ns3:hr>99</ns3:hr>
          </ns3:TrackPointExtension>
        </extensions>
      </trkpt>
      <trkpt lat="36.77646710537374019622802734375" lon="-118.5039331018924713134765625">
        <ele>2077</ele>
        <time>2021-06-24T19:24:30.000Z</time>
        <extensions>
          <ns3:TrackPointExtension>
            <ns3:atemp>32.0</ns3:atemp>
            <ns3:hr>100</ns3:hr>
          </ns3:TrackPointExtension>
        </extensions>
      </trkpt>
      <trkpt lat="36.77646894939243793487548828125" lon="-118.50391726009547710418701171875">
        <ele>2077.199951171875</ele>
        <time>2021-06-24T19:24:31.000Z</time>
        <extensions>
          <ns3:TrackPointExtension>
            <ns3:atemp>32.0</ns3:atemp>
            <ns3:hr>100</ns3:hr>
          </ns3:TrackPointExtension>
        </extensions>
      </trkpt>
      <trkpt lat="36.77646987140178680419921875" lon="-118.50390426814556121826171875">
        <ele>2077.199951171875</ele>
        <time>2021-06-24T19:24:32.000Z</time>
        <extensions>
          <ns3:TrackPointExtension>
            <ns3:atemp>32.0</ns3:atemp>
            <ns3:hr>101</ns3:hr>
          </ns3:TrackPointExtension>
        </extensions>
      </trkpt>
      <trkpt lat="36.77647850476205348968505859375" lon="-118.5038434155285358428955078125">
        <ele>2077.60009765625</ele>
        <time>2021-06-24T19:24:38.000Z</time>
        <extensions>
          <ns3:TrackPointExtension>
            <ns3:atemp>32.0</ns3:atemp>
            <ns3:hr>101</ns3:hr>
          </ns3:TrackPointExtension>
        </extensions>
      </trkpt>
      <trkpt lat="36.77649199962615966796875" lon="-118.50378532893955707550048828125">
        <ele>2078</ele>
        <time>2021-06-24T19:24:44.000Z</time>
        <extensions>
          <ns3:TrackPointExtension>
            <ns3:atemp>32.0</ns3:atemp>
            <ns3:hr>101</ns3:hr>
          </ns3:TrackPointExtension>
        </extensions>
      </trkpt>
      <trkpt lat="36.77650314755737781524658203125" lon="-118.5037426650524139404296875">
        <ele>2078.39990234375</ele>
        <time>2021-06-24T19:24:48.000Z</time>
        <extensions>
          <ns3:TrackPointExtension>
            <ns3:atemp>32.0</ns3:atemp>
            <ns3:hr>99</ns3:hr>
          </ns3:TrackPointExtension>
        </extensions>
      </trkpt>
      <trkpt lat="36.77653231658041477203369140625" lon="-118.50370570085942745208740234375">
        <ele>2078.39990234375</ele>
        <time>2021-06-24T19:24:51.000Z</time>
        <extensions>
          <ns3:TrackPointExtension>
            <ns3:atemp>32.0</ns3:atemp>
            <ns3:hr>102</ns3:hr>
          </ns3:TrackPointExtension>
        </extensions>
      </trkpt>
      <trkpt lat="36.77653768099844455718994140625" lon="-118.50369027815759181976318359375">
        <ele>2078.60009765625</ele>
        <time>2021-06-24T19:24:52.000Z</time>
        <extensions>
          <ns3:TrackPointExtension>
            <ns3:atemp>32.0</ns3:atemp>
            <ns3:hr>100</ns3:hr>
          </ns3:TrackPointExtension>
        </extensions>
      </trkpt>
      <trkpt lat="36.7765330709517002105712890625" lon="-118.5036593489348888397216796875">
        <ele>2079</ele>
        <time>2021-06-24T19:24:55.000Z</time>
        <extensions>
          <ns3:TrackPointExtension>
            <ns3:atemp>32.0</ns3:atemp>
            <ns3:hr>97</ns3:hr>
          </ns3:TrackPointExtension>
        </extensions>
      </trkpt>
      <trkpt lat="36.7765206657350063323974609375" lon="-118.50365876220166683197021484375">
        <ele>2079.199951171875</ele>
        <time>2021-06-24T19:24:56.000Z</time>
        <extensions>
          <ns3:TrackPointExtension>
            <ns3:atemp>32.0</ns3:atemp>
            <ns3:hr>102</ns3:hr>
          </ns3:TrackPointExtension>
        </extensions>
      </trkpt>
      <trkpt lat="36.7764948494732379913330078125" lon="-118.50364417769014835357666015625">
        <ele>2079.39990234375</ele>
        <time>2021-06-24T19:24:58.000Z</time>
        <extensions>
          <ns3:TrackPointExtension>
            <ns3:atemp>32.0</ns3:atemp>
            <ns3:hr>105</ns3:hr>
          </ns3:TrackPointExtension>
        </extensions>
      </trkpt>
      <trkpt lat="36.7764884792268276214599609375" lon="-118.5036271624267101287841796875">
        <ele>2079.39990234375</ele>
        <time>2021-06-24T19:24:59.000Z</time>
        <extensions>
          <ns3:TrackPointExtension>
            <ns3:atemp>32.0</ns3:atemp>
            <ns3:hr>107</ns3:hr>
          </ns3:TrackPointExtension>
        </extensions>
      </trkpt>
      <trkpt lat="36.7764834500849246978759765625" lon="-118.5036103986203670501708984375">
        <ele>2079.39990234375</ele>
        <time>2021-06-24T19:25:00.000Z</time>
        <extensions>
          <ns3:TrackPointExtension>
            <ns3:atemp>32.0</ns3:atemp>
            <ns3:hr>108</ns3:hr>
          </ns3:TrackPointExtension>
        </extensions>
      </trkpt>
      <trkpt lat="36.77647867240011692047119140625" lon="-118.50356874056160449981689453125">
        <ele>2080</ele>
        <time>2021-06-24T19:25:04.000Z</time>
        <extensions>
          <ns3:TrackPointExtension>
            <ns3:atemp>32.0</ns3:atemp>
            <ns3:hr>109</ns3:hr>
          </ns3:TrackPointExtension>
        </extensions>
      </trkpt>
      <trkpt lat="36.7764824442565441131591796875" lon="-118.5035507194697856903076171875">
        <ele>2080.39990234375</ele>
        <time>2021-06-24T19:25:07.000Z</time>
        <extensions>
          <ns3:TrackPointExtension>
            <ns3:atemp>32.0</ns3:atemp>
            <ns3:hr>107</ns3:hr>
          </ns3:TrackPointExtension>
        </extensions>
      </trkpt>
      <trkpt lat="36.77647951059043407440185546875" lon="-118.503545187413692474365234375">
        <ele>2080.39990234375</ele>
        <time>2021-06-24T19:25:08.000Z</time>
        <extensions>
          <ns3:TrackPointExtension>
            <ns3:atemp>32.0</ns3:atemp>
            <ns3:hr>106</ns3:hr>
          </ns3:TrackPointExtension>
        </extensions>
      </trkpt>
      <trkpt lat="36.77647632546722888946533203125" lon="-118.50353705696761608123779296875">
        <ele>2080.800048828125</ele>
        <time>2021-06-24T19:25:09.000Z</time>
        <extensions>
          <ns3:TrackPointExtension>
            <ns3:atemp>32.0</ns3:atemp>
            <ns3:hr>106</ns3:hr>
          </ns3:TrackPointExtension>
        </extensions>
      </trkpt>
      <trkpt lat="36.776474229991436004638671875" lon="-118.503527082502841949462890625">
        <ele>2081</ele>
        <time>2021-06-24T19:25:10.000Z</time>
        <extensions>
          <ns3:TrackPointExtension>
            <ns3:atemp>32.0</ns3:atemp>
            <ns3:hr>107</ns3:hr>
          </ns3:TrackPointExtension>
        </extensions>
      </trkpt>
      <trkpt lat="36.77646911703050136566162109375" lon="-118.5035047866404056549072265625">
        <ele>2081.199951171875</ele>
        <time>2021-06-24T19:25:12.000Z</time>
        <extensions>
          <ns3:TrackPointExtension>
            <ns3:atemp>32.0</ns3:atemp>
            <ns3:hr>107</ns3:hr>
          </ns3:TrackPointExtension>
        </extensions>
      </trkpt>
      <trkpt lat="36.7764412052929401397705078125" lon="-118.5034571774303913116455078125">
        <ele>2081.39990234375</ele>
        <time>2021-06-24T19:25:16.000Z</time>
        <extensions>
          <ns3:TrackPointExtension>
            <ns3:atemp>32.0</ns3:atemp>
            <ns3:hr>109</ns3:hr>
          </ns3:TrackPointExtension>
        </extensions>
      </trkpt>
      <trkpt lat="36.77643324248492717742919921875" lon="-118.50344837643206119537353515625">
        <ele>2081.60009765625</ele>
        <time>2021-06-24T19:25:17.000Z</time>
        <extensions>
          <ns3:TrackPointExtension>
            <ns3:atemp>32.0</ns3:atemp>
            <ns3:hr>109</ns3:hr>
          </ns3:TrackPointExtension>
        </extensions>
      </trkpt>
      <trkpt lat="36.77642653696238994598388671875" lon="-118.50344267673790454864501953125">
        <ele>2081.60009765625</ele>
        <time>2021-06-24T19:25:19.000Z</time>
        <extensions>
          <ns3:TrackPointExtension>
            <ns3:atemp>32.0</ns3:atemp>
            <ns3:hr>108</ns3:hr>
          </ns3:TrackPointExtension>
        </extensions>
      </trkpt>
      <trkpt lat="36.77641631104052066802978515625" lon="-118.5034410841763019561767578125">
        <ele>2081.800048828125</ele>
        <time>2021-06-24T19:25:21.000Z</time>
        <extensions>
          <ns3:TrackPointExtension>
            <ns3:atemp>32.0</ns3:atemp>
            <ns3:hr>107</ns3:hr>
          </ns3:TrackPointExtension>
        </extensions>
      </trkpt>
      <trkpt lat="36.77642083726823329925537109375" lon="-118.5034259967505931854248046875">
        <ele>2082.60009765625</ele>
        <time>2021-06-24T19:25:25.000Z</time>
        <extensions>
          <ns3:TrackPointExtension>
            <ns3:atemp>32.0</ns3:atemp>
            <ns3:hr>110</ns3:hr>
          </ns3:TrackPointExtension>
        </extensions>
      </trkpt>
      <trkpt lat="36.77642100490629673004150390625" lon="-118.50341937504708766937255859375">
        <ele>2082.60009765625</ele>
        <time>2021-06-24T19:25:26.000Z</time>
        <extensions>
          <ns3:TrackPointExtension>
            <ns3:atemp>32.0</ns3:atemp>
            <ns3:hr>111</ns3:hr>
          </ns3:TrackPointExtension>
        </extensions>
      </trkpt>
      <trkpt lat="36.7764214240014553070068359375" lon="-118.50340931676328182220458984375">
        <ele>2082.800048828125</ele>
        <time>2021-06-24T19:25:27.000Z</time>
        <extensions>
          <ns3:TrackPointExtension>
            <ns3:atemp>32.0</ns3:atemp>
            <ns3:hr>113</ns3:hr>
          </ns3:TrackPointExtension>
        </extensions>
      </trkpt>
      <trkpt lat="36.776411533355712890625" lon="-118.50335014052689075469970703125">
        <ele>2083.39990234375</ele>
        <time>2021-06-24T19:25:31.000Z</time>
        <extensions>
          <ns3:TrackPointExtension>
            <ns3:atemp>32.0</ns3:atemp>
            <ns3:hr>114</ns3:hr>
          </ns3:TrackPointExtension>
        </extensions>
      </trkpt>
      <trkpt lat="36.776410527527332305908203125" lon="-118.50332533009350299835205078125">
        <ele>2083.60009765625</ele>
        <time>2021-06-24T19:25:33.000Z</time>
        <extensions>
          <ns3:TrackPointExtension>
            <ns3:atemp>32.0</ns3:atemp>
            <ns3:hr>113</ns3:hr>
          </ns3:TrackPointExtension>
        </extensions>
      </trkpt>
      <trkpt lat="36.7764009721577167510986328125" lon="-118.50331284105777740478515625">
        <ele>2084</ele>
        <time>2021-06-24T19:25:35.000Z</time>
        <extensions>
          <ns3:TrackPointExtension>
            <ns3:atemp>32.0</ns3:atemp>
            <ns3:hr>111</ns3:hr>
          </ns3:TrackPointExtension>
        </extensions>
      </trkpt>
      <trkpt lat="36.7764075100421905517578125" lon="-118.503280989825725555419921875">
        <ele>2084</ele>
        <time>2021-06-24T19:25:37.000Z</time>
        <extensions>
          <ns3:TrackPointExtension>
            <ns3:atemp>32.0</ns3:atemp>
            <ns3:hr>111</ns3:hr>
          </ns3:TrackPointExtension>
        </extensions>
      </trkpt>
      <trkpt lat="36.7763818614184856414794921875" lon="-118.503260202705860137939453125">
        <ele>2084.199951171875</ele>
        <time>2021-06-24T19:25:39.000Z</time>
        <extensions>
          <ns3:TrackPointExtension>
            <ns3:atemp>32.0</ns3:atemp>
            <ns3:hr>108</ns3:hr>
          </ns3:TrackPointExtension>
        </extensions>
      </trkpt>
      <trkpt lat="36.77637440152466297149658203125" lon="-118.50316607393324375152587890625">
        <ele>2085</ele>
        <time>2021-06-24T19:25:44.000Z</time>
        <extensions>
          <ns3:TrackPointExtension>
            <ns3:atemp>32.0</ns3:atemp>
            <ns3:hr>111</ns3:hr>
          </ns3:TrackPointExtension>
        </extensions>
      </trkpt>
      <trkpt lat="36.77637389861047267913818359375" lon="-118.50315995514392852783203125">
        <ele>2085</ele>
        <time>2021-06-24T19:25:45.000Z</time>
        <extensions>
          <ns3:TrackPointExtension>
            <ns3:atemp>32.0</ns3:atemp>
            <ns3:hr>110</ns3:hr>
          </ns3:TrackPointExtension>
        </extensions>
      </trkpt>
      <trkpt lat="36.77636551670730113983154296875" lon="-118.503156267106533050537109375">
        <ele>2085.39990234375</ele>
        <time>2021-06-24T19:25:46.000Z</time>
        <extensions>
          <ns3:TrackPointExtension>
            <ns3:atemp>32.0</ns3:atemp>
            <ns3:hr>111</ns3:hr>
          </ns3:TrackPointExtension>
        </extensions>
      </trkpt>
      <trkpt lat="36.7763637565076351165771484375" lon="-118.5031311213970184326171875">
        <ele>2085.39990234375</ele>
        <time>2021-06-24T19:25:48.000Z</time>
        <extensions>
          <ns3:TrackPointExtension>
            <ns3:atemp>32.0</ns3:atemp>
            <ns3:hr>112</ns3:hr>
          </ns3:TrackPointExtension>
        </extensions>
      </trkpt>
      <trkpt lat="36.77634808234870433807373046875" lon="-118.503127433359622955322265625">
        <ele>2085.60009765625</ele>
        <time>2021-06-24T19:25:50.000Z</time>
        <extensions>
          <ns3:TrackPointExtension>
            <ns3:atemp>32.0</ns3:atemp>
            <ns3:hr>113</ns3:hr>
          </ns3:TrackPointExtension>
        </extensions>
      </trkpt>
      <trkpt lat="36.77633819170296192169189453125" lon="-118.5030960850417613983154296875">
        <ele>2086</ele>
        <time>2021-06-24T19:25:53.000Z</time>
        <extensions>
          <ns3:TrackPointExtension>
            <ns3:atemp>32.0</ns3:atemp>
            <ns3:hr>111</ns3:hr>
          </ns3:TrackPointExtension>
        </extensions>
      </trkpt>
      <trkpt lat="36.7763335816562175750732421875" lon="-118.5030732862651348114013671875">
        <ele>2086.39990234375</ele>
        <time>2021-06-24T19:25:55.000Z</time>
        <extensions>
          <ns3:TrackPointExtension>
            <ns3:atemp>32.0</ns3:atemp>
            <ns3:hr>111</ns3:hr>
          </ns3:TrackPointExtension>
        </extensions>
      </trkpt>
      <trkpt lat="36.7763272114098072052001953125" lon="-118.50303657352924346923828125">
        <ele>2086.60009765625</ele>
        <time>2021-06-24T19:25:58.000Z</time>
        <extensions>
          <ns3:TrackPointExtension>
            <ns3:atemp>32.0</ns3:atemp>
            <ns3:hr>110</ns3:hr>
          </ns3:TrackPointExtension>
        </extensions>
      </trkpt>
      <trkpt lat="36.77631388418376445770263671875" lon="-118.50299810059368610382080078125">
        <ele>2087</ele>
        <time>2021-06-24T19:26:01.000Z</time>
        <extensions>
          <ns3:TrackPointExtension>
            <ns3:atemp>32.0</ns3:atemp>
            <ns3:hr>110</ns3:hr>
          </ns3:TrackPointExtension>
        </extensions>
      </trkpt>
      <trkpt lat="36.7763114534318447113037109375" lon="-118.5029851086437702178955078125">
        <ele>2087.199951171875</ele>
        <time>2021-06-24T19:26:02.000Z</time>
        <extensions>
          <ns3:TrackPointExtension>
            <ns3:atemp>32.0</ns3:atemp>
            <ns3:hr>109</ns3:hr>
          </ns3:TrackPointExtension>
        </extensions>
      </trkpt>
      <trkpt lat="36.77630902267992496490478515625" lon="-118.5029760561883449554443359375">
        <ele>2087.199951171875</ele>
        <time>2021-06-24T19:26:03.000Z</time>
        <extensions>
          <ns3:TrackPointExtension>
            <ns3:atemp>32.0</ns3:atemp>
            <ns3:hr>109</ns3:hr>
          </ns3:TrackPointExtension>
        </extensions>
      </trkpt>
      <trkpt lat="36.77630131132900714874267578125" lon="-118.5029596276581287384033203125">
        <ele>2087.199951171875</ele>
        <time>2021-06-24T19:26:05.000Z</time>
        <extensions>
          <ns3:TrackPointExtension>
            <ns3:atemp>32.0</ns3:atemp>
            <ns3:hr>110</ns3:hr>
          </ns3:TrackPointExtension>
        </extensions>
      </trkpt>
      <trkpt lat="36.7762812785804271697998046875" lon="-118.5029353201389312744140625">
        <ele>2087.60009765625</ele>
        <time>2021-06-24T19:26:08.000Z</time>
        <extensions>
          <ns3:TrackPointExtension>
            <ns3:atemp>32.0</ns3:atemp>
            <ns3:hr>112</ns3:hr>
          </ns3:TrackPointExtension>
        </extensions>
      </trkpt>
      <trkpt lat="36.77626979537308216094970703125" lon="-118.502915538847446441650390625">
        <ele>2087.800048828125</ele>
        <time>2021-06-24T19:26:10.000Z</time>
        <extensions>
          <ns3:TrackPointExtension>
            <ns3:atemp>32.0</ns3:atemp>
            <ns3:hr>113</ns3:hr>
          </ns3:TrackPointExtension>
        </extensions>
      </trkpt>
      <trkpt lat="36.77625395357608795166015625" lon="-118.50290338508784770965576171875">
        <ele>2088</ele>
        <time>2021-06-24T19:26:12.000Z</time>
        <extensions>
          <ns3:TrackPointExtension>
            <ns3:atemp>32.0</ns3:atemp>
            <ns3:hr>113</ns3:hr>
          </ns3:TrackPointExtension>
        </extensions>
      </trkpt>
      <trkpt lat="36.776226460933685302734375" lon="-118.502877652645111083984375">
        <ele>2088.199951171875</ele>
        <time>2021-06-24T19:26:15.000Z</time>
        <extensions>
          <ns3:TrackPointExtension>
            <ns3:atemp>33.0</ns3:atemp>
            <ns3:hr>112</ns3:hr>
          </ns3:TrackPointExtension>
        </extensions>
      </trkpt>
      <trkpt lat="36.77621933631598949432373046875" lon="-118.5028701089322566986083984375">
        <ele>2088.199951171875</ele>
        <time>2021-06-24T19:26:16.000Z</time>
        <extensions>
          <ns3:TrackPointExtension>
            <ns3:atemp>32.0</ns3:atemp>
            <ns3:hr>113</ns3:hr>
          </ns3:TrackPointExtension>
        </extensions>
      </trkpt>
      <trkpt lat="36.77621212787926197052001953125" lon="-118.50285284221172332763671875">
        <ele>2088.39990234375</ele>
        <time>2021-06-24T19:26:18.000Z</time>
        <extensions>
          <ns3:TrackPointExtension>
            <ns3:atemp>33.0</ns3:atemp>
            <ns3:hr>111</ns3:hr>
          </ns3:TrackPointExtension>
        </extensions>
      </trkpt>
      <trkpt lat="36.77618497051298618316650390625" lon="-118.5027879662811756134033203125">
        <ele>2089.199951171875</ele>
        <time>2021-06-24T19:26:27.000Z</time>
        <extensions>
          <ns3:TrackPointExtension>
            <ns3:atemp>33.0</ns3:atemp>
            <ns3:hr>111</ns3:hr>
          </ns3:TrackPointExtension>
        </extensions>
      </trkpt>
      <trkpt lat="36.776177845895290374755859375" lon="-118.5027745552361011505126953125">
        <ele>2089.39990234375</ele>
        <time>2021-06-24T19:26:29.000Z</time>
        <extensions>
          <ns3:TrackPointExtension>
            <ns3:atemp>33.0</ns3:atemp>
            <ns3:hr>111</ns3:hr>
          </ns3:TrackPointExtension>
        </extensions>
      </trkpt>
      <trkpt lat="36.77616753615438938140869140625" lon="-118.5027628205716609954833984375">
        <ele>2089.39990234375</ele>
        <time>2021-06-24T19:26:31.000Z</time>
        <extensions>
          <ns3:TrackPointExtension>
            <ns3:atemp>33.0</ns3:atemp>
            <ns3:hr>110</ns3:hr>
          </ns3:TrackPointExtension>
        </extensions>
      </trkpt>
      <trkpt lat="36.77616686560213565826416015625" lon="-118.50274731405079364776611328125">
        <ele>2090.199951171875</ele>
        <time>2021-06-24T19:26:33.000Z</time>
        <extensions>
          <ns3:TrackPointExtension>
            <ns3:atemp>33.0</ns3:atemp>
            <ns3:hr>110</ns3:hr>
          </ns3:TrackPointExtension>
        </extensions>
      </trkpt>
      <trkpt lat="36.77616812288761138916015625" lon="-118.50274044089019298553466796875">
        <ele>2090.199951171875</ele>
        <time>2021-06-24T19:26:34.000Z</time>
        <extensions>
          <ns3:TrackPointExtension>
            <ns3:atemp>33.0</ns3:atemp>
            <ns3:hr>110</ns3:hr>
          </ns3:TrackPointExtension>
        </extensions>
      </trkpt>
      <trkpt lat="36.7761599086225032806396484375" lon="-118.50272669456899166107177734375">
        <ele>2090.39990234375</ele>
        <time>2021-06-24T19:26:36.000Z</time>
        <extensions>
          <ns3:TrackPointExtension>
            <ns3:atemp>33.0</ns3:atemp>
            <ns3:hr>109</ns3:hr>
          </ns3:TrackPointExtension>
        </extensions>
      </trkpt>
      <trkpt lat="36.77614792250096797943115234375" lon="-118.502715714275836944580078125">
        <ele>2090.800048828125</ele>
        <time>2021-06-24T19:26:38.000Z</time>
        <extensions>
          <ns3:TrackPointExtension>
            <ns3:atemp>33.0</ns3:atemp>
            <ns3:hr>106</ns3:hr>
          </ns3:TrackPointExtension>
        </extensions>
      </trkpt>
      <trkpt lat="36.77612713538110256195068359375" lon="-118.5026800073683261871337890625">
        <ele>2091.199951171875</ele>
        <time>2021-06-24T19:26:42.000Z</time>
        <extensions>
          <ns3:TrackPointExtension>
            <ns3:atemp>33.0</ns3:atemp>
            <ns3:hr>104</ns3:hr>
          </ns3:TrackPointExtension>
        </extensions>
      </trkpt>
      <trkpt lat="36.776100061833858489990234375" lon="-118.50264874286949634552001953125">
        <ele>2091.60009765625</ele>
        <time>2021-06-24T19:26:46.000Z</time>
        <extensions>
          <ns3:TrackPointExtension>
            <ns3:atemp>33.0</ns3:atemp>
            <ns3:hr>106</ns3:hr>
          </ns3:TrackPointExtension>
        </extensions>
      </trkpt>
      <trkpt lat="36.776086650788784027099609375" lon="-118.5026394389569759368896484375">
        <ele>2091.60009765625</ele>
        <time>2021-06-24T19:26:48.000Z</time>
        <extensions>
          <ns3:TrackPointExtension>
            <ns3:atemp>33.0</ns3:atemp>
            <ns3:hr>106</ns3:hr>
          </ns3:TrackPointExtension>
        </extensions>
      </trkpt>
      <trkpt lat="36.77607357501983642578125" lon="-118.5026233457028865814208984375">
        <ele>2091.39990234375</ele>
        <time>2021-06-24T19:26:50.000Z</time>
        <extensions>
          <ns3:TrackPointExtension>
            <ns3:atemp>33.0</ns3:atemp>
            <ns3:hr>106</ns3:hr>
          </ns3:TrackPointExtension>
        </extensions>
      </trkpt>
      <trkpt lat="36.776054799556732177734375" lon="-118.50259996019303798675537109375">
        <ele>2091.199951171875</ele>
        <time>2021-06-24T19:26:53.000Z</time>
        <extensions>
          <ns3:TrackPointExtension>
            <ns3:atemp>33.0</ns3:atemp>
            <ns3:hr>106</ns3:hr>
          </ns3:TrackPointExtension>
        </extensions>
      </trkpt>
      <trkpt lat="36.776049435138702392578125" lon="-118.50259040482342243194580078125">
        <ele>2091.199951171875</ele>
        <time>2021-06-24T19:26:54.000Z</time>
        <extensions>
          <ns3:TrackPointExtension>
            <ns3:atemp>33.0</ns3:atemp>
            <ns3:hr>105</ns3:hr>
          </ns3:TrackPointExtension>
        </extensions>
      </trkpt>
      <trkpt lat="36.77602906711399555206298828125" lon="-118.5025490820407867431640625">
        <ele>2091.199951171875</ele>
        <time>2021-06-24T19:26:58.000Z</time>
        <extensions>
          <ns3:TrackPointExtension>
            <ns3:atemp>33.0</ns3:atemp>
            <ns3:hr>105</ns3:hr>
          </ns3:TrackPointExtension>
        </extensions>
      </trkpt>
      <trkpt lat="36.7760160751640796661376953125" lon="-118.50250147283077239990234375">
        <ele>2091.60009765625</ele>
        <time>2021-06-24T19:27:03.000Z</time>
        <extensions>
          <ns3:TrackPointExtension>
            <ns3:atemp>33.0</ns3:atemp>
            <ns3:hr>104</ns3:hr>
          </ns3:TrackPointExtension>
        </extensions>
      </trkpt>
      <trkpt lat="36.77601146511733531951904296875" lon="-118.50247909314930438995361328125">
        <ele>2092</ele>
        <time>2021-06-24T19:27:06.000Z</time>
        <extensions>
          <ns3:TrackPointExtension>
            <ns3:atemp>33.0</ns3:atemp>
            <ns3:hr>104</ns3:hr>
          </ns3:TrackPointExtension>
        </extensions>
      </trkpt>
      <trkpt lat="36.77600878290832042694091796875" lon="-118.50245813839137554168701171875">
        <ele>2092.199951171875</ele>
        <time>2021-06-24T19:27:09.000Z</time>
        <extensions>
          <ns3:TrackPointExtension>
            <ns3:atemp>33.0</ns3:atemp>
            <ns3:hr>102</ns3:hr>
          </ns3:TrackPointExtension>
        </extensions>
      </trkpt>
      <trkpt lat="36.77600643597543239593505859375" lon="-118.50244070403277873992919921875">
        <ele>2092.39990234375</ele>
        <time>2021-06-24T19:27:11.000Z</time>
        <extensions>
          <ns3:TrackPointExtension>
            <ns3:atemp>33.0</ns3:atemp>
            <ns3:hr>101</ns3:hr>
          </ns3:TrackPointExtension>
        </extensions>
      </trkpt>
      <trkpt lat="36.7760023288428783416748046875" lon="-118.50243282504379749298095703125">
        <ele>2092.39990234375</ele>
        <time>2021-06-24T19:27:12.000Z</time>
        <extensions>
          <ns3:TrackPointExtension>
            <ns3:atemp>33.0</ns3:atemp>
            <ns3:hr>101</ns3:hr>
          </ns3:TrackPointExtension>
        </extensions>
      </trkpt>
      <trkpt lat="36.7759912647306919097900390625" lon="-118.50240834988653659820556640625">
        <ele>2092.800048828125</ele>
        <time>2021-06-24T19:27:15.000Z</time>
        <extensions>
          <ns3:TrackPointExtension>
            <ns3:atemp>33.0</ns3:atemp>
            <ns3:hr>98</ns3:hr>
          </ns3:TrackPointExtension>
        </extensions>
      </trkpt>
      <trkpt lat="36.77599151618778705596923828125" lon="-118.502397872507572174072265625">
        <ele>2093</ele>
        <time>2021-06-24T19:27:16.000Z</time>
        <extensions>
          <ns3:TrackPointExtension>
            <ns3:atemp>33.0</ns3:atemp>
            <ns3:hr>97</ns3:hr>
          </ns3:TrackPointExtension>
        </extensions>
      </trkpt>
      <trkpt lat="36.7759922705590724945068359375" lon="-118.50237046368420124053955078125">
        <ele>2093.199951171875</ele>
        <time>2021-06-24T19:27:19.000Z</time>
        <extensions>
          <ns3:TrackPointExtension>
            <ns3:atemp>33.0</ns3:atemp>
            <ns3:hr>97</ns3:hr>
          </ns3:TrackPointExtension>
        </extensions>
      </trkpt>
      <trkpt lat="36.7759909294545650482177734375" lon="-118.50236291997134685516357421875">
        <ele>2093.199951171875</ele>
        <time>2021-06-24T19:27:20.000Z</time>
        <extensions>
          <ns3:TrackPointExtension>
            <ns3:atemp>33.0</ns3:atemp>
            <ns3:hr>97</ns3:hr>
          </ns3:TrackPointExtension>
        </extensions>
      </trkpt>
      <trkpt lat="36.775990426540374755859375" lon="-118.502353616058826446533203125">
        <ele>2093.199951171875</ele>
        <time>2021-06-24T19:27:21.000Z</time>
        <extensions>
          <ns3:TrackPointExtension>
            <ns3:atemp>33.0</ns3:atemp>
            <ns3:hr>99</ns3:hr>
          </ns3:TrackPointExtension>
        </extensions>
      </trkpt>
      <trkpt lat="36.77599051035940647125244140625" lon="-118.50234364159405231475830078125">
        <ele>2093.199951171875</ele>
        <time>2021-06-24T19:27:22.000Z</time>
        <extensions>
          <ns3:TrackPointExtension>
            <ns3:atemp>33.0</ns3:atemp>
            <ns3:hr>97</ns3:hr>
          </ns3:TrackPointExtension>
        </extensions>
      </trkpt>
      <trkpt lat="36.775990426540374755859375" lon="-118.50232402794063091278076171875">
        <ele>2093.39990234375</ele>
        <time>2021-06-24T19:27:24.000Z</time>
        <extensions>
          <ns3:TrackPointExtension>
            <ns3:atemp>33.0</ns3:atemp>
            <ns3:hr>97</ns3:hr>
          </ns3:TrackPointExtension>
        </extensions>
      </trkpt>
      <trkpt lat="36.77598707377910614013671875" lon="-118.5023034922778606414794921875">
        <ele>2093.800048828125</ele>
        <time>2021-06-24T19:27:26.000Z</time>
        <extensions>
          <ns3:TrackPointExtension>
            <ns3:atemp>33.0</ns3:atemp>
            <ns3:hr>97</ns3:hr>
          </ns3:TrackPointExtension>
        </extensions>
      </trkpt>
      <trkpt lat="36.77598715759813785552978515625" lon="-118.5022709704935550689697265625">
        <ele>2094.39990234375</ele>
        <time>2021-06-24T19:27:29.000Z</time>
        <extensions>
          <ns3:TrackPointExtension>
            <ns3:atemp>33.0</ns3:atemp>
            <ns3:hr>96</ns3:hr>
          </ns3:TrackPointExtension>
        </extensions>
      </trkpt>
      <trkpt lat="36.775984726846218109130859375" lon="-118.50225336849689483642578125">
        <ele>2094.60009765625</ele>
        <time>2021-06-24T19:27:31.000Z</time>
        <extensions>
          <ns3:TrackPointExtension>
            <ns3:atemp>33.0</ns3:atemp>
            <ns3:hr>100</ns3:hr>
          </ns3:TrackPointExtension>
        </extensions>
      </trkpt>
      <trkpt lat="36.77597844041883945465087890625" lon="-118.50220735184848308563232421875">
        <ele>2095.199951171875</ele>
        <time>2021-06-24T19:27:35.000Z</time>
        <extensions>
          <ns3:TrackPointExtension>
            <ns3:atemp>33.0</ns3:atemp>
            <ns3:hr>99</ns3:hr>
          </ns3:TrackPointExtension>
        </extensions>
      </trkpt>
      <trkpt lat="36.77598439157009124755859375" lon="-118.5021690465509891510009765625">
        <ele>2095</ele>
        <time>2021-06-24T19:27:38.000Z</time>
        <extensions>
          <ns3:TrackPointExtension>
            <ns3:atemp>33.0</ns3:atemp>
            <ns3:hr>99</ns3:hr>
          </ns3:TrackPointExtension>
        </extensions>
      </trkpt>
      <trkpt lat="36.77598598413169384002685546875" lon="-118.5021388716995716094970703125">
        <ele>2095.39990234375</ele>
        <time>2021-06-24T19:27:41.000Z</time>
        <extensions>
          <ns3:TrackPointExtension>
            <ns3:atemp>33.0</ns3:atemp>
            <ns3:hr>99</ns3:hr>
          </ns3:TrackPointExtension>
        </extensions>
      </trkpt>
      <trkpt lat="36.77598439157009124755859375" lon="-118.50210995413362979888916015625">
        <ele>2095.800048828125</ele>
        <time>2021-06-24T19:27:44.000Z</time>
        <extensions>
          <ns3:TrackPointExtension>
            <ns3:atemp>33.0</ns3:atemp>
            <ns3:hr>94</ns3:hr>
          </ns3:TrackPointExtension>
        </extensions>
      </trkpt>
      <trkpt lat="36.77598380483686923980712890625" lon="-118.502101488411426544189453125">
        <ele>2096</ele>
        <time>2021-06-24T19:27:45.000Z</time>
        <extensions>
          <ns3:TrackPointExtension>
            <ns3:atemp>33.0</ns3:atemp>
            <ns3:hr>94</ns3:hr>
          </ns3:TrackPointExtension>
        </extensions>
      </trkpt>
      <trkpt lat="36.77598481066524982452392578125" lon="-118.50209268741309642791748046875">
        <ele>2096.199951171875</ele>
        <time>2021-06-24T19:27:46.000Z</time>
        <extensions>
          <ns3:TrackPointExtension>
            <ns3:atemp>33.0</ns3:atemp>
            <ns3:hr>100</ns3:hr>
          </ns3:TrackPointExtension>
        </extensions>
      </trkpt>
      <trkpt lat="36.77598263137042522430419921875" lon="-118.5020852275192737579345703125">
        <ele>2096.199951171875</ele>
        <time>2021-06-24T19:27:47.000Z</time>
        <extensions>
          <ns3:TrackPointExtension>
            <ns3:atemp>33.0</ns3:atemp>
            <ns3:hr>99</ns3:hr>
          </ns3:TrackPointExtension>
        </extensions>
      </trkpt>
      <trkpt lat="36.775955222547054290771484375" lon="-118.50204943679273128509521484375">
        <ele>2096.800048828125</ele>
        <time>2021-06-24T19:27:52.000Z</time>
        <extensions>
          <ns3:TrackPointExtension>
            <ns3:atemp>33.0</ns3:atemp>
            <ns3:hr>99</ns3:hr>
          </ns3:TrackPointExtension>
        </extensions>
      </trkpt>
      <trkpt lat="36.77594290114939212799072265625" lon="-118.50203703157603740692138671875">
        <ele>2097.199951171875</ele>
        <time>2021-06-24T19:27:54.000Z</time>
        <extensions>
          <ns3:TrackPointExtension>
            <ns3:atemp>33.0</ns3:atemp>
            <ns3:hr>99</ns3:hr>
          </ns3:TrackPointExtension>
        </extensions>
      </trkpt>
      <trkpt lat="36.7759171687066555023193359375" lon="-118.5019755922257900238037109375">
        <ele>2097.60009765625</ele>
        <time>2021-06-24T19:28:00.000Z</time>
        <extensions>
          <ns3:TrackPointExtension>
            <ns3:atemp>33.0</ns3:atemp>
            <ns3:hr>98</ns3:hr>
          </ns3:TrackPointExtension>
        </extensions>
      </trkpt>
      <trkpt lat="36.77587886340916156768798828125" lon="-118.5018877498805522918701171875">
        <ele>2097.60009765625</ele>
        <time>2021-06-24T19:28:09.000Z</time>
        <extensions>
          <ns3:TrackPointExtension>
            <ns3:atemp>33.0</ns3:atemp>
            <ns3:hr>98</ns3:hr>
          </ns3:TrackPointExtension>
        </extensions>
      </trkpt>
      <trkpt lat="36.77588372491300106048583984375" lon="-118.5018436610698699951171875">
        <ele>2097.800048828125</ele>
        <time>2021-06-24T19:28:13.000Z</time>
        <extensions>
          <ns3:TrackPointExtension>
            <ns3:atemp>33.0</ns3:atemp>
            <ns3:hr>98</ns3:hr>
          </ns3:TrackPointExtension>
        </extensions>
      </trkpt>
      <trkpt lat="36.7758695594966411590576171875" lon="-118.50180787034332752227783203125">
        <ele>2098.199951171875</ele>
        <time>2021-06-24T19:28:17.000Z</time>
        <extensions>
          <ns3:TrackPointExtension>
            <ns3:atemp>33.0</ns3:atemp>
            <ns3:hr>97</ns3:hr>
          </ns3:TrackPointExtension>
        </extensions>
      </trkpt>
      <trkpt lat="36.77583192475140094757080078125" lon="-118.5017953813076019287109375">
        <ele>2098.39990234375</ele>
        <time>2021-06-24T19:28:21.000Z</time>
        <extensions>
          <ns3:TrackPointExtension>
            <ns3:atemp>33.0</ns3:atemp>
            <ns3:hr>100</ns3:hr>
          </ns3:TrackPointExtension>
        </extensions>
      </trkpt>
      <trkpt lat="36.7758025042712688446044921875" lon="-118.50177216343581676483154296875">
        <ele>2098</ele>
        <time>2021-06-24T19:28:24.000Z</time>
        <extensions>
          <ns3:TrackPointExtension>
            <ns3:atemp>33.0</ns3:atemp>
            <ns3:hr>103</ns3:hr>
          </ns3:TrackPointExtension>
        </extensions>
      </trkpt>
      <trkpt lat="36.775758080184459686279296875" lon="-118.50166034884750843048095703125">
        <ele>2097.800048828125</ele>
        <time>2021-06-24T19:28:34.000Z</time>
        <extensions>
          <ns3:TrackPointExtension>
            <ns3:atemp>33.0</ns3:atemp>
            <ns3:hr>104</ns3:hr>
          </ns3:TrackPointExtension>
        </extensions>
      </trkpt>
      <trkpt lat="36.77573402412235736846923828125" lon="-118.5016269050538539886474609375">
        <ele>2098.39990234375</ele>
        <time>2021-06-24T19:28:40.000Z</time>
        <extensions>
          <ns3:TrackPointExtension>
            <ns3:atemp>33.0</ns3:atemp>
            <ns3:hr>107</ns3:hr>
          </ns3:TrackPointExtension>
        </extensions>
      </trkpt>
      <trkpt lat="36.7757206968963146209716796875" lon="-118.50155238993465900421142578125">
        <ele>2098.800048828125</ele>
        <time>2021-06-24T19:28:46.000Z</time>
        <extensions>
          <ns3:TrackPointExtension>
            <ns3:atemp>33.0</ns3:atemp>
            <ns3:hr>110</ns3:hr>
          </ns3:TrackPointExtension>
        </extensions>
      </trkpt>
      <trkpt lat="36.77569882012903690338134765625" lon="-118.50141023285686969757080078125">
        <ele>2098.800048828125</ele>
        <time>2021-06-24T19:28:56.000Z</time>
        <extensions>
          <ns3:TrackPointExtension>
            <ns3:atemp>33.0</ns3:atemp>
            <ns3:hr>111</ns3:hr>
          </ns3:TrackPointExtension>
        </extensions>
      </trkpt>
      <trkpt lat="36.77569798193871974945068359375" lon="-118.50138106383383274078369140625">
        <ele>2099.199951171875</ele>
        <time>2021-06-24T19:28:58.000Z</time>
        <extensions>
          <ns3:TrackPointExtension>
            <ns3:atemp>33.0</ns3:atemp>
            <ns3:hr>110</ns3:hr>
          </ns3:TrackPointExtension>
        </extensions>
      </trkpt>
      <trkpt lat="36.77567702718079090118408203125" lon="-118.50137134082615375518798828125">
        <ele>2099.39990234375</ele>
        <time>2021-06-24T19:29:02.000Z</time>
        <extensions>
          <ns3:TrackPointExtension>
            <ns3:atemp>33.0</ns3:atemp>
            <ns3:hr>111</ns3:hr>
          </ns3:TrackPointExtension>
        </extensions>
      </trkpt>
      <trkpt lat="36.77566411904990673065185546875" lon="-118.50133613683283329010009765625">
        <ele>2099.800048828125</ele>
        <time>2021-06-24T19:29:06.000Z</time>
        <extensions>
          <ns3:TrackPointExtension>
            <ns3:atemp>33.0</ns3:atemp>
            <ns3:hr>114</ns3:hr>
          </ns3:TrackPointExtension>
        </extensions>
      </trkpt>
      <trkpt lat="36.77566587924957275390625" lon="-118.50131635554134845733642578125">
        <ele>2099.800048828125</ele>
        <time>2021-06-24T19:29:07.000Z</time>
        <extensions>
          <ns3:TrackPointExtension>
            <ns3:atemp>33.0</ns3:atemp>
            <ns3:hr>114</ns3:hr>
          </ns3:TrackPointExtension>
        </extensions>
      </trkpt>
      <trkpt lat="36.7756559886038303375244140625" lon="-118.501267321407794952392578125">
        <ele>2099.800048828125</ele>
        <time>2021-06-24T19:29:12.000Z</time>
        <extensions>
          <ns3:TrackPointExtension>
            <ns3:atemp>33.0</ns3:atemp>
            <ns3:hr>113</ns3:hr>
          </ns3:TrackPointExtension>
        </extensions>
      </trkpt>
      <trkpt lat="36.775661520659923553466796875" lon="-118.50124888122081756591796875">
        <ele>2099.800048828125</ele>
        <time>2021-06-24T19:29:13.000Z</time>
        <extensions>
          <ns3:TrackPointExtension>
            <ns3:atemp>33.0</ns3:atemp>
            <ns3:hr>112</ns3:hr>
          </ns3:TrackPointExtension>
        </extensions>
      </trkpt>
      <trkpt lat="36.775660179555416107177734375" lon="-118.50122717209160327911376953125">
        <ele>2100</ele>
        <time>2021-06-24T19:29:15.000Z</time>
        <extensions>
          <ns3:TrackPointExtension>
            <ns3:atemp>33.0</ns3:atemp>
            <ns3:hr>109</ns3:hr>
          </ns3:TrackPointExtension>
        </extensions>
      </trkpt>
      <trkpt lat="36.77567266859114170074462890625" lon="-118.50115626119077205657958984375">
        <ele>2100.199951171875</ele>
        <time>2021-06-24T19:29:20.000Z</time>
        <extensions>
          <ns3:TrackPointExtension>
            <ns3:atemp>33.0</ns3:atemp>
            <ns3:hr>110</ns3:hr>
          </ns3:TrackPointExtension>
        </extensions>
      </trkpt>
      <trkpt lat="36.77567233331501483917236328125" lon="-118.50112776271998882293701171875">
        <ele>2100.199951171875</ele>
        <time>2021-06-24T19:29:22.000Z</time>
        <extensions>
          <ns3:TrackPointExtension>
            <ns3:atemp>33.0</ns3:atemp>
            <ns3:hr>107</ns3:hr>
          </ns3:TrackPointExtension>
        </extensions>
      </trkpt>
      <trkpt lat="36.77566663362085819244384765625" lon="-118.50111837498843669891357421875">
        <ele>2100</ele>
        <time>2021-06-24T19:29:23.000Z</time>
        <extensions>
          <ns3:TrackPointExtension>
            <ns3:atemp>33.0</ns3:atemp>
            <ns3:hr>109</ns3:hr>
          </ns3:TrackPointExtension>
        </extensions>
      </trkpt>
      <trkpt lat="36.77563495002686977386474609375" lon="-118.5011089034378528594970703125">
        <ele>2099.800048828125</ele>
        <time>2021-06-24T19:29:26.000Z</time>
        <extensions>
          <ns3:TrackPointExtension>
            <ns3:atemp>33.0</ns3:atemp>
            <ns3:hr>108</ns3:hr>
          </ns3:TrackPointExtension>
        </extensions>
      </trkpt>
      <trkpt lat="36.77558750845491886138916015625" lon="-118.501101695001125335693359375">
        <ele>2099.39990234375</ele>
        <time>2021-06-24T19:29:30.000Z</time>
        <extensions>
          <ns3:TrackPointExtension>
            <ns3:atemp>33.0</ns3:atemp>
            <ns3:hr>107</ns3:hr>
          </ns3:TrackPointExtension>
        </extensions>
      </trkpt>
      <trkpt lat="36.77557275630533695220947265625" lon="-118.5010971687734127044677734375">
        <ele>2099</ele>
        <time>2021-06-24T19:29:32.000Z</time>
        <extensions>
          <ns3:TrackPointExtension>
            <ns3:atemp>33.0</ns3:atemp>
            <ns3:hr>106</ns3:hr>
          </ns3:TrackPointExtension>
        </extensions>
      </trkpt>
      <trkpt lat="36.77556018345057964324951171875" lon="-118.50108618848025798797607421875">
        <ele>2098.800048828125</ele>
        <time>2021-06-24T19:29:34.000Z</time>
        <extensions>
          <ns3:TrackPointExtension>
            <ns3:atemp>33.0</ns3:atemp>
            <ns3:hr>105</ns3:hr>
          </ns3:TrackPointExtension>
        </extensions>
      </trkpt>
      <trkpt lat="36.77555347792804241180419921875" lon="-118.50106724537909030914306640625">
        <ele>2098.39990234375</ele>
        <time>2021-06-24T19:29:36.000Z</time>
        <extensions>
          <ns3:TrackPointExtension>
            <ns3:atemp>33.0</ns3:atemp>
            <ns3:hr>104</ns3:hr>
          </ns3:TrackPointExtension>
        </extensions>
      </trkpt>
      <trkpt lat="36.775554902851581573486328125" lon="-118.5010582767426967620849609375">
        <ele>2097.800048828125</ele>
        <time>2021-06-24T19:29:37.000Z</time>
        <extensions>
          <ns3:TrackPointExtension>
            <ns3:atemp>33.0</ns3:atemp>
            <ns3:hr>104</ns3:hr>
          </ns3:TrackPointExtension>
        </extensions>
      </trkpt>
      <trkpt lat="36.7755545675754547119140625" lon="-118.50104562006890773773193359375">
        <ele>2097.60009765625</ele>
        <time>2021-06-24T19:29:38.000Z</time>
        <extensions>
          <ns3:TrackPointExtension>
            <ns3:atemp>33.0</ns3:atemp>
            <ns3:hr>100</ns3:hr>
          </ns3:TrackPointExtension>
        </extensions>
      </trkpt>
      <trkpt lat="36.7755513824522495269775390625" lon="-118.50103388540446758270263671875">
        <ele>2097.60009765625</ele>
        <time>2021-06-24T19:29:39.000Z</time>
        <extensions>
          <ns3:TrackPointExtension>
            <ns3:atemp>33.0</ns3:atemp>
            <ns3:hr>104</ns3:hr>
          </ns3:TrackPointExtension>
        </extensions>
      </trkpt>
      <trkpt lat="36.77554274909198284149169921875" lon="-118.5010019503533840179443359375">
        <ele>2097.60009765625</ele>
        <time>2021-06-24T19:29:42.000Z</time>
        <extensions>
          <ns3:TrackPointExtension>
            <ns3:atemp>33.0</ns3:atemp>
            <ns3:hr>103</ns3:hr>
          </ns3:TrackPointExtension>
        </extensions>
      </trkpt>
      <trkpt lat="36.77552447654306888580322265625" lon="-118.50099348463118076324462890625">
        <ele>2097.39990234375</ele>
        <time>2021-06-24T19:29:44.000Z</time>
        <extensions>
          <ns3:TrackPointExtension>
            <ns3:atemp>33.0</ns3:atemp>
            <ns3:hr>105</ns3:hr>
          </ns3:TrackPointExtension>
        </extensions>
      </trkpt>
      <trkpt lat="36.77551777102053165435791015625" lon="-118.5010022856295108795166015625">
        <ele>2097.800048828125</ele>
        <time>2021-06-24T19:29:46.000Z</time>
        <extensions>
          <ns3:TrackPointExtension>
            <ns3:atemp>33.0</ns3:atemp>
            <ns3:hr>101</ns3:hr>
          </ns3:TrackPointExtension>
        </extensions>
      </trkpt>
      <trkpt lat="36.77550670690834522247314453125" lon="-118.5010103322565555572509765625">
        <ele>2098</ele>
        <time>2021-06-24T19:29:49.000Z</time>
        <extensions>
          <ns3:TrackPointExtension>
            <ns3:atemp>33.0</ns3:atemp>
            <ns3:hr>102</ns3:hr>
          </ns3:TrackPointExtension>
        </extensions>
      </trkpt>
      <trkpt lat="36.77551140077412128448486328125" lon="-118.50099817849695682525634765625">
        <ele>2098.800048828125</ele>
        <time>2021-06-24T19:29:51.000Z</time>
        <extensions>
          <ns3:TrackPointExtension>
            <ns3:atemp>33.0</ns3:atemp>
            <ns3:hr>102</ns3:hr>
          </ns3:TrackPointExtension>
        </extensions>
      </trkpt>
      <trkpt lat="36.7755275778472423553466796875" lon="-118.5009764693677425384521484375">
        <ele>2099</ele>
        <time>2021-06-24T19:29:54.000Z</time>
        <extensions>
          <ns3:TrackPointExtension>
            <ns3:atemp>33.0</ns3:atemp>
            <ns3:hr>103</ns3:hr>
          </ns3:TrackPointExtension>
        </extensions>
      </trkpt>
      <trkpt lat="36.77553369663655757904052734375" lon="-118.50097571499645709991455078125">
        <ele>2099.39990234375</ele>
        <time>2021-06-24T19:29:55.000Z</time>
        <extensions>
          <ns3:TrackPointExtension>
            <ns3:atemp>33.0</ns3:atemp>
            <ns3:hr>100</ns3:hr>
          </ns3:TrackPointExtension>
        </extensions>
      </trkpt>
      <trkpt lat="36.7755373008549213409423828125" lon="-118.50097470916807651519775390625">
        <ele>2099.39990234375</ele>
        <time>2021-06-24T19:29:56.000Z</time>
        <extensions>
          <ns3:TrackPointExtension>
            <ns3:atemp>33.0</ns3:atemp>
            <ns3:hr>103</ns3:hr>
          </ns3:TrackPointExtension>
        </extensions>
      </trkpt>
      <trkpt lat="36.77554660476744174957275390625" lon="-118.50096590816974639892578125">
        <ele>2099.800048828125</ele>
        <time>2021-06-24T19:29:59.000Z</time>
        <extensions>
          <ns3:TrackPointExtension>
            <ns3:atemp>33.0</ns3:atemp>
            <ns3:hr>99</ns3:hr>
          </ns3:TrackPointExtension>
        </extensions>
      </trkpt>
      <trkpt lat="36.77555062808096408843994140625" lon="-118.5009600408375263214111328125">
        <ele>2100</ele>
        <time>2021-06-24T19:30:00.000Z</time>
        <extensions>
          <ns3:TrackPointExtension>
            <ns3:atemp>33.0</ns3:atemp>
            <ns3:hr>99</ns3:hr>
          </ns3:TrackPointExtension>
        </extensions>
      </trkpt>
      <trkpt lat="36.7755577526986598968505859375" lon="-118.5009405948221683502197265625">
        <ele>2100.199951171875</ele>
        <time>2021-06-24T19:30:02.000Z</time>
        <extensions>
          <ns3:TrackPointExtension>
            <ns3:atemp>33.0</ns3:atemp>
            <ns3:hr>101</ns3:hr>
          </ns3:TrackPointExtension>
        </extensions>
      </trkpt>
      <trkpt lat="36.775551550090312957763671875" lon="-118.50092793814837932586669921875">
        <ele>2100.39990234375</ele>
        <time>2021-06-24T19:30:04.000Z</time>
        <extensions>
          <ns3:TrackPointExtension>
            <ns3:atemp>33.0</ns3:atemp>
            <ns3:hr>104</ns3:hr>
          </ns3:TrackPointExtension>
        </extensions>
      </trkpt>
      <trkpt lat="36.77554962225258350372314453125" lon="-118.50091905333101749420166015625">
        <ele>2100.60009765625</ele>
        <time>2021-06-24T19:30:05.000Z</time>
        <extensions>
          <ns3:TrackPointExtension>
            <ns3:atemp>33.0</ns3:atemp>
            <ns3:hr>103</ns3:hr>
          </ns3:TrackPointExtension>
        </extensions>
      </trkpt>
      <trkpt lat="36.775549538433551788330078125" lon="-118.50089759565889835357666015625">
        <ele>2101.39990234375</ele>
        <time>2021-06-24T19:30:08.000Z</time>
        <extensions>
          <ns3:TrackPointExtension>
            <ns3:atemp>33.0</ns3:atemp>
            <ns3:hr>107</ns3:hr>
          </ns3:TrackPointExtension>
        </extensions>
      </trkpt>
      <trkpt lat="36.7755473591387271881103515625" lon="-118.50089139305055141448974609375">
        <ele>2101.800048828125</ele>
        <time>2021-06-24T19:30:09.000Z</time>
        <extensions>
          <ns3:TrackPointExtension>
            <ns3:atemp>33.0</ns3:atemp>
            <ns3:hr>108</ns3:hr>
          </ns3:TrackPointExtension>
        </extensions>
      </trkpt>
      <trkpt lat="36.775530762970447540283203125" lon="-118.50086406804621219635009765625">
        <ele>2101.800048828125</ele>
        <time>2021-06-24T19:30:13.000Z</time>
        <extensions>
          <ns3:TrackPointExtension>
            <ns3:atemp>33.0</ns3:atemp>
            <ns3:hr>108</ns3:hr>
          </ns3:TrackPointExtension>
        </extensions>
      </trkpt>
      <trkpt lat="36.7755436711013317108154296875" lon="-118.5007722862064838409423828125">
        <ele>2102.39990234375</ele>
        <time>2021-06-24T19:30:20.000Z</time>
        <extensions>
          <ns3:TrackPointExtension>
            <ns3:atemp>33.0</ns3:atemp>
            <ns3:hr>108</ns3:hr>
          </ns3:TrackPointExtension>
        </extensions>
      </trkpt>
      <trkpt lat="36.77552917040884494781494140625" lon="-118.50065016187727451324462890625">
        <ele>2102.800048828125</ele>
        <time>2021-06-24T19:30:27.000Z</time>
        <extensions>
          <ns3:TrackPointExtension>
            <ns3:atemp>33.0</ns3:atemp>
            <ns3:hr>108</ns3:hr>
          </ns3:TrackPointExtension>
        </extensions>
      </trkpt>
      <trkpt lat="36.775556914508342742919921875" lon="-118.50052242167294025421142578125">
        <ele>2103.39990234375</ele>
        <time>2021-06-24T19:30:35.000Z</time>
        <extensions>
          <ns3:TrackPointExtension>
            <ns3:atemp>33.0</ns3:atemp>
            <ns3:hr>105</ns3:hr>
          </ns3:TrackPointExtension>
        </extensions>
      </trkpt>
      <trkpt lat="36.77554576657712459564208984375" lon="-118.5004926659166812896728515625">
        <ele>2103.39990234375</ele>
        <time>2021-06-24T19:30:37.000Z</time>
        <extensions>
          <ns3:TrackPointExtension>
            <ns3:atemp>33.0</ns3:atemp>
            <ns3:hr>103</ns3:hr>
          </ns3:TrackPointExtension>
        </extensions>
      </trkpt>
      <trkpt lat="36.77556487731635570526123046875" lon="-118.50043617188930511474609375">
        <ele>2103.800048828125</ele>
        <time>2021-06-24T19:30:41.000Z</time>
        <extensions>
          <ns3:TrackPointExtension>
            <ns3:atemp>33.0</ns3:atemp>
            <ns3:hr>103</ns3:hr>
          </ns3:TrackPointExtension>
        </extensions>
      </trkpt>
      <trkpt lat="36.77554660476744174957275390625" lon="-118.50035998038947582244873046875">
        <ele>2104.39990234375</ele>
        <time>2021-06-24T19:30:47.000Z</time>
        <extensions>
          <ns3:TrackPointExtension>
            <ns3:atemp>33.0</ns3:atemp>
            <ns3:hr>106</ns3:hr>
          </ns3:TrackPointExtension>
        </extensions>
      </trkpt>
      <trkpt lat="36.77553185261785984039306640625" lon="-118.50032963789999485015869140625">
        <ele>2104.800048828125</ele>
        <time>2021-06-24T19:30:50.000Z</time>
        <extensions>
          <ns3:TrackPointExtension>
            <ns3:atemp>33.0</ns3:atemp>
            <ns3:hr>106</ns3:hr>
          </ns3:TrackPointExtension>
        </extensions>
      </trkpt>
      <trkpt lat="36.7755302600562572479248046875" lon="-118.50029678083956241607666015625">
        <ele>2105</ele>
        <time>2021-06-24T19:30:53.000Z</time>
        <extensions>
          <ns3:TrackPointExtension>
            <ns3:atemp>33.0</ns3:atemp>
            <ns3:hr>107</ns3:hr>
          </ns3:TrackPointExtension>
        </extensions>
      </trkpt>
      <trkpt lat="36.77553889341652393341064453125" lon="-118.500280939042568206787109375">
        <ele>2105.199951171875</ele>
        <time>2021-06-24T19:30:55.000Z</time>
        <extensions>
          <ns3:TrackPointExtension>
            <ns3:atemp>33.0</ns3:atemp>
            <ns3:hr>111</ns3:hr>
          </ns3:TrackPointExtension>
        </extensions>
      </trkpt>
      <trkpt lat="36.77553914487361907958984375" lon="-118.50026995874941349029541015625">
        <ele>2105.199951171875</ele>
        <time>2021-06-24T19:30:56.000Z</time>
        <extensions>
          <ns3:TrackPointExtension>
            <ns3:atemp>33.0</ns3:atemp>
            <ns3:hr>114</ns3:hr>
          </ns3:TrackPointExtension>
        </extensions>
      </trkpt>
      <trkpt lat="36.7755362950265407562255859375" lon="-118.500260151922702789306640625">
        <ele>2105.39990234375</ele>
        <time>2021-06-24T19:30:57.000Z</time>
        <extensions>
          <ns3:TrackPointExtension>
            <ns3:atemp>33.0</ns3:atemp>
            <ns3:hr>117</ns3:hr>
          </ns3:TrackPointExtension>
        </extensions>
      </trkpt>
      <trkpt lat="36.7755366303026676177978515625" lon="-118.50024984218180179595947265625">
        <ele>2105.60009765625</ele>
        <time>2021-06-24T19:30:58.000Z</time>
        <extensions>
          <ns3:TrackPointExtension>
            <ns3:atemp>33.0</ns3:atemp>
            <ns3:hr>120</ns3:hr>
          </ns3:TrackPointExtension>
        </extensions>
      </trkpt>
      <trkpt lat="36.775539480149745941162109375" lon="-118.5002395324409008026123046875">
        <ele>2106</ele>
        <time>2021-06-24T19:30:59.000Z</time>
        <extensions>
          <ns3:TrackPointExtension>
            <ns3:atemp>33.0</ns3:atemp>
            <ns3:hr>123</ns3:hr>
          </ns3:TrackPointExtension>
        </extensions>
      </trkpt>
      <trkpt lat="36.77554761059582233428955078125" lon="-118.5002214275300502777099609375">
        <ele>2106.199951171875</ele>
        <time>2021-06-24T19:31:01.000Z</time>
        <extensions>
          <ns3:TrackPointExtension>
            <ns3:atemp>33.0</ns3:atemp>
            <ns3:hr>126</ns3:hr>
          </ns3:TrackPointExtension>
        </extensions>
      </trkpt>
      <trkpt lat="36.7755460180342197418212890625" lon="-118.50017708726227283477783203125">
        <ele>2106.800048828125</ele>
        <time>2021-06-24T19:31:05.000Z</time>
        <extensions>
          <ns3:TrackPointExtension>
            <ns3:atemp>33.0</ns3:atemp>
            <ns3:hr>128</ns3:hr>
          </ns3:TrackPointExtension>
        </extensions>
      </trkpt>
      <trkpt lat="36.775529086589813232421875" lon="-118.50015428848564624786376953125">
        <ele>2107</ele>
        <time>2021-06-24T19:31:08.000Z</time>
        <extensions>
          <ns3:TrackPointExtension>
            <ns3:atemp>33.0</ns3:atemp>
            <ns3:hr>128</ns3:hr>
          </ns3:TrackPointExtension>
        </extensions>
      </trkpt>
      <trkpt lat="36.7755282483994960784912109375" lon="-118.50012025795876979827880859375">
        <ele>2107.60009765625</ele>
        <time>2021-06-24T19:31:11.000Z</time>
        <extensions>
          <ns3:TrackPointExtension>
            <ns3:atemp>33.0</ns3:atemp>
            <ns3:hr>126</ns3:hr>
          </ns3:TrackPointExtension>
        </extensions>
      </trkpt>
      <trkpt lat="36.77552414126694202423095703125" lon="-118.50008270703256130218505859375">
        <ele>2108.199951171875</ele>
        <time>2021-06-24T19:31:14.000Z</time>
        <extensions>
          <ns3:TrackPointExtension>
            <ns3:atemp>33.0</ns3:atemp>
            <ns3:hr>125</ns3:hr>
          </ns3:TrackPointExtension>
        </extensions>
      </trkpt>
      <trkpt lat="36.7755210399627685546875" lon="-118.500064350664615631103515625">
        <ele>2108.39990234375</ele>
        <time>2021-06-24T19:31:16.000Z</time>
        <extensions>
          <ns3:TrackPointExtension>
            <ns3:atemp>32.0</ns3:atemp>
            <ns3:hr>121</ns3:hr>
          </ns3:TrackPointExtension>
        </extensions>
      </trkpt>
      <trkpt lat="36.77553017623722553253173828125" lon="-118.500022776424884796142578125">
        <ele>2108.800048828125</ele>
        <time>2021-06-24T19:31:20.000Z</time>
        <extensions>
          <ns3:TrackPointExtension>
            <ns3:atemp>32.0</ns3:atemp>
            <ns3:hr>122</ns3:hr>
          </ns3:TrackPointExtension>
        </extensions>
      </trkpt>
      <trkpt lat="36.77554056979715824127197265625" lon="-118.5000098682940006256103515625">
        <ele>2109.39990234375</ele>
        <time>2021-06-24T19:31:22.000Z</time>
        <extensions>
          <ns3:TrackPointExtension>
            <ns3:atemp>32.0</ns3:atemp>
            <ns3:hr>123</ns3:hr>
          </ns3:TrackPointExtension>
        </extensions>
      </trkpt>
      <trkpt lat="36.77554492838680744171142578125" lon="-118.50000140257179737091064453125">
        <ele>2109.60009765625</ele>
        <time>2021-06-24T19:31:23.000Z</time>
        <extensions>
          <ns3:TrackPointExtension>
            <ns3:atemp>32.0</ns3:atemp>
            <ns3:hr>126</ns3:hr>
          </ns3:TrackPointExtension>
        </extensions>
      </trkpt>
      <trkpt lat="36.77554241381585597991943359375" lon="-118.499993942677974700927734375">
        <ele>2109.60009765625</ele>
        <time>2021-06-24T19:31:25.000Z</time>
        <extensions>
          <ns3:TrackPointExtension>
            <ns3:atemp>32.0</ns3:atemp>
            <ns3:hr>125</ns3:hr>
          </ns3:TrackPointExtension>
        </extensions>
      </trkpt>
      <trkpt lat="36.7755393125116825103759765625" lon="-118.4999920986592769622802734375">
        <ele>2109.60009765625</ele>
        <time>2021-06-24T19:31:26.000Z</time>
        <extensions>
          <ns3:TrackPointExtension>
            <ns3:atemp>32.0</ns3:atemp>
            <ns3:hr>123</ns3:hr>
          </ns3:TrackPointExtension>
        </extensions>
      </trkpt>
      <trkpt lat="36.7754833213984966278076171875" lon="-118.4999297372996807098388671875">
        <ele>2109.800048828125</ele>
        <time>2021-06-24T19:31:31.000Z</time>
        <extensions>
          <ns3:TrackPointExtension>
            <ns3:atemp>32.0</ns3:atemp>
            <ns3:hr>123</ns3:hr>
          </ns3:TrackPointExtension>
        </extensions>
      </trkpt>
      <trkpt lat="36.77544660866260528564453125" lon="-118.499916158616542816162109375">
        <ele>2109.800048828125</ele>
        <time>2021-06-24T19:31:39.000Z</time>
        <extensions>
          <ns3:TrackPointExtension>
            <ns3:atemp>32.0</ns3:atemp>
            <ns3:hr>126</ns3:hr>
          </ns3:TrackPointExtension>
        </extensions>
      </trkpt>
      <trkpt lat="36.7754377238452434539794921875" lon="-118.499912805855274200439453125">
        <ele>2109.800048828125</ele>
        <time>2021-06-24T19:31:42.000Z</time>
        <extensions>
          <ns3:TrackPointExtension>
            <ns3:atemp>32.0</ns3:atemp>
            <ns3:hr>123</ns3:hr>
          </ns3:TrackPointExtension>
        </extensions>
      </trkpt>
      <trkpt lat="36.7754417471587657928466796875" lon="-118.4999045915901660919189453125">
        <ele>2109.800048828125</ele>
        <time>2021-06-24T19:31:44.000Z</time>
        <extensions>
          <ns3:TrackPointExtension>
            <ns3:atemp>32.0</ns3:atemp>
            <ns3:hr>119</ns3:hr>
          </ns3:TrackPointExtension>
        </extensions>
      </trkpt>
      <trkpt lat="36.77542070858180522918701171875" lon="-118.49986058659851551055908203125">
        <ele>2110.199951171875</ele>
        <time>2021-06-24T19:31:49.000Z</time>
        <extensions>
          <ns3:TrackPointExtension>
            <ns3:atemp>32.0</ns3:atemp>
            <ns3:hr>117</ns3:hr>
          </ns3:TrackPointExtension>
        </extensions>
      </trkpt>
      <trkpt lat="36.77541442215442657470703125" lon="-118.4998429007828235626220703125">
        <ele>2110.39990234375</ele>
        <time>2021-06-24T19:31:51.000Z</time>
        <extensions>
          <ns3:TrackPointExtension>
            <ns3:atemp>32.0</ns3:atemp>
            <ns3:hr>116</ns3:hr>
          </ns3:TrackPointExtension>
        </extensions>
      </trkpt>
      <trkpt lat="36.7754137516021728515625" lon="-118.49981800653040409088134765625">
        <ele>2110.39990234375</ele>
        <time>2021-06-24T19:31:53.000Z</time>
        <extensions>
          <ns3:TrackPointExtension>
            <ns3:atemp>32.0</ns3:atemp>
            <ns3:hr>117</ns3:hr>
          </ns3:TrackPointExtension>
        </extensions>
      </trkpt>
      <trkpt lat="36.77540830336511135101318359375" lon="-118.4997439943253993988037109375">
        <ele>2110.60009765625</ele>
        <time>2021-06-24T19:31:59.000Z</time>
        <extensions>
          <ns3:TrackPointExtension>
            <ns3:atemp>32.0</ns3:atemp>
            <ns3:hr>114</ns3:hr>
          </ns3:TrackPointExtension>
        </extensions>
      </trkpt>
      <trkpt lat="36.7754008434712886810302734375" lon="-118.4997222013771533966064453125">
        <ele>2110.800048828125</ele>
        <time>2021-06-24T19:32:01.000Z</time>
        <extensions>
          <ns3:TrackPointExtension>
            <ns3:atemp>32.0</ns3:atemp>
            <ns3:hr>111</ns3:hr>
          </ns3:TrackPointExtension>
        </extensions>
      </trkpt>
      <trkpt lat="36.7753968201577663421630859375" lon="-118.49969319999217987060546875">
        <ele>2110.800048828125</ele>
        <time>2021-06-24T19:32:04.000Z</time>
        <extensions>
          <ns3:TrackPointExtension>
            <ns3:atemp>32.0</ns3:atemp>
            <ns3:hr>107</ns3:hr>
          </ns3:TrackPointExtension>
        </extensions>
      </trkpt>
      <trkpt lat="36.77539472468197345733642578125" lon="-118.499672077596187591552734375">
        <ele>2110.800048828125</ele>
        <time>2021-06-24T19:32:06.000Z</time>
        <extensions>
          <ns3:TrackPointExtension>
            <ns3:atemp>32.0</ns3:atemp>
            <ns3:hr>104</ns3:hr>
          </ns3:TrackPointExtension>
        </extensions>
      </trkpt>
      <trkpt lat="36.775389946997165679931640625" lon="-118.499625809490680694580078125">
        <ele>2111.199951171875</ele>
        <time>2021-06-24T19:32:09.000Z</time>
        <extensions>
          <ns3:TrackPointExtension>
            <ns3:atemp>32.0</ns3:atemp>
            <ns3:hr>102</ns3:hr>
          </ns3:TrackPointExtension>
        </extensions>
      </trkpt>
      <trkpt lat="36.7754031904041767120361328125" lon="-118.4995803795754909515380859375">
        <ele>2111.39990234375</ele>
        <time>2021-06-24T19:32:12.000Z</time>
        <extensions>
          <ns3:TrackPointExtension>
            <ns3:atemp>32.0</ns3:atemp>
            <ns3:hr>101</ns3:hr>
          </ns3:TrackPointExtension>
        </extensions>
      </trkpt>
      <trkpt lat="36.77538868971168994903564453125" lon="-118.499529920518398284912109375">
        <ele>2111.60009765625</ele>
        <time>2021-06-24T19:32:16.000Z</time>
        <extensions>
          <ns3:TrackPointExtension>
            <ns3:atemp>32.0</ns3:atemp>
            <ns3:hr>101</ns3:hr>
          </ns3:TrackPointExtension>
        </extensions>
      </trkpt>
      <trkpt lat="36.77534745074808597564697265625" lon="-118.49939891137182712554931640625">
        <ele>2112.199951171875</ele>
        <time>2021-06-24T19:32:26.000Z</time>
        <extensions>
          <ns3:TrackPointExtension>
            <ns3:atemp>32.0</ns3:atemp>
            <ns3:hr>102</ns3:hr>
          </ns3:TrackPointExtension>
        </extensions>
      </trkpt>
      <trkpt lat="36.77533890120685100555419921875" lon="-118.49936555139720439910888671875">
        <ele>2112.199951171875</ele>
        <time>2021-06-24T19:32:29.000Z</time>
        <extensions>
          <ns3:TrackPointExtension>
            <ns3:atemp>32.0</ns3:atemp>
            <ns3:hr>102</ns3:hr>
          </ns3:TrackPointExtension>
        </extensions>
      </trkpt>
      <trkpt lat="36.7753351293504238128662109375" lon="-118.499364964663982391357421875">
        <ele>2112.39990234375</ele>
        <time>2021-06-24T19:32:30.000Z</time>
        <extensions>
          <ns3:TrackPointExtension>
            <ns3:atemp>32.0</ns3:atemp>
            <ns3:hr>103</ns3:hr>
          </ns3:TrackPointExtension>
        </extensions>
      </trkpt>
      <trkpt lat="36.775336302816867828369140625" lon="-118.4993533976376056671142578125">
        <ele>2112.39990234375</ele>
        <time>2021-06-24T19:32:32.000Z</time>
        <extensions>
          <ns3:TrackPointExtension>
            <ns3:atemp>32.0</ns3:atemp>
            <ns3:hr>104</ns3:hr>
          </ns3:TrackPointExtension>
        </extensions>
      </trkpt>
      <trkpt lat="36.77533320151269435882568359375" lon="-118.49927083589136600494384765625">
        <ele>2113.39990234375</ele>
        <time>2021-06-24T19:32:39.000Z</time>
        <extensions>
          <ns3:TrackPointExtension>
            <ns3:atemp>32.0</ns3:atemp>
            <ns3:hr>106</ns3:hr>
          </ns3:TrackPointExtension>
        </extensions>
      </trkpt>
      <trkpt lat="36.77533521316945552825927734375" lon="-118.4992608614265918731689453125">
        <ele>2113.39990234375</ele>
        <time>2021-06-24T19:32:40.000Z</time>
        <extensions>
          <ns3:TrackPointExtension>
            <ns3:atemp>32.0</ns3:atemp>
            <ns3:hr>107</ns3:hr>
          </ns3:TrackPointExtension>
        </extensions>
      </trkpt>
      <trkpt lat="36.7753399908542633056640625" lon="-118.4991951473057270050048828125">
        <ele>2114.60009765625</ele>
        <time>2021-06-24T19:32:47.000Z</time>
        <extensions>
          <ns3:TrackPointExtension>
            <ns3:atemp>32.0</ns3:atemp>
            <ns3:hr>109</ns3:hr>
          </ns3:TrackPointExtension>
        </extensions>
      </trkpt>
      <trkpt lat="36.775335632264614105224609375" lon="-118.4991817362606525421142578125">
        <ele>2114.60009765625</ele>
        <time>2021-06-24T19:32:48.000Z</time>
        <extensions>
          <ns3:TrackPointExtension>
            <ns3:atemp>32.0</ns3:atemp>
            <ns3:hr>105</ns3:hr>
          </ns3:TrackPointExtension>
        </extensions>
      </trkpt>
      <trkpt lat="36.77532515488564968109130859375" lon="-118.499133624136447906494140625">
        <ele>2114.800048828125</ele>
        <time>2021-06-24T19:32:52.000Z</time>
        <extensions>
          <ns3:TrackPointExtension>
            <ns3:atemp>32.0</ns3:atemp>
            <ns3:hr>108</ns3:hr>
          </ns3:TrackPointExtension>
        </extensions>
      </trkpt>
      <trkpt lat="36.77532456815242767333984375" lon="-118.49911384284496307373046875">
        <ele>2114.800048828125</ele>
        <time>2021-06-24T19:32:54.000Z</time>
        <extensions>
          <ns3:TrackPointExtension>
            <ns3:atemp>32.0</ns3:atemp>
            <ns3:hr>115</ns3:hr>
          </ns3:TrackPointExtension>
        </extensions>
      </trkpt>
      <trkpt lat="36.77532783709466457366943359375" lon="-118.49909213371574878692626953125">
        <ele>2114.800048828125</ele>
        <time>2021-06-24T19:32:56.000Z</time>
        <extensions>
          <ns3:TrackPointExtension>
            <ns3:atemp>32.0</ns3:atemp>
            <ns3:hr>119</ns3:hr>
          </ns3:TrackPointExtension>
        </extensions>
      </trkpt>
      <trkpt lat="36.77532398141920566558837890625" lon="-118.4990804828703403472900390625">
        <ele>2115.39990234375</ele>
        <time>2021-06-24T19:32:58.000Z</time>
        <extensions>
          <ns3:TrackPointExtension>
            <ns3:atemp>32.0</ns3:atemp>
            <ns3:hr>120</ns3:hr>
          </ns3:TrackPointExtension>
        </extensions>
      </trkpt>
      <trkpt lat="36.7753180302679538726806640625" lon="-118.49906967021524906158447265625">
        <ele>2115.60009765625</ele>
        <time>2021-06-24T19:32:59.000Z</time>
        <extensions>
          <ns3:TrackPointExtension>
            <ns3:atemp>32.0</ns3:atemp>
            <ns3:hr>120</ns3:hr>
          </ns3:TrackPointExtension>
        </extensions>
      </trkpt>
      <trkpt lat="36.7753166891634464263916015625" lon="-118.49895215593278408050537109375">
        <ele>2116.39990234375</ele>
        <time>2021-06-24T19:33:06.000Z</time>
        <extensions>
          <ns3:TrackPointExtension>
            <ns3:atemp>32.0</ns3:atemp>
            <ns3:hr>121</ns3:hr>
          </ns3:TrackPointExtension>
        </extensions>
      </trkpt>
      <trkpt lat="36.77531895227730274200439453125" lon="-118.498906306922435760498046875">
        <ele>2116.60009765625</ele>
        <time>2021-06-24T19:33:10.000Z</time>
        <extensions>
          <ns3:TrackPointExtension>
            <ns3:atemp>32.0</ns3:atemp>
            <ns3:hr>122</ns3:hr>
          </ns3:TrackPointExtension>
        </extensions>
      </trkpt>
      <trkpt lat="36.77531006745994091033935546875" lon="-118.49885710515081882476806640625">
        <ele>2116.800048828125</ele>
        <time>2021-06-24T19:33:14.000Z</time>
        <extensions>
          <ns3:TrackPointExtension>
            <ns3:atemp>32.0</ns3:atemp>
            <ns3:hr>123</ns3:hr>
          </ns3:TrackPointExtension>
        </extensions>
      </trkpt>
      <trkpt lat="36.7753049544990062713623046875" lon="-118.49883011542260646820068359375">
        <ele>2116.800048828125</ele>
        <time>2021-06-24T19:33:16.000Z</time>
        <extensions>
          <ns3:TrackPointExtension>
            <ns3:atemp>32.0</ns3:atemp>
            <ns3:hr>122</ns3:hr>
          </ns3:TrackPointExtension>
        </extensions>
      </trkpt>
      <trkpt lat="36.77530109882354736328125" lon="-118.498763144016265869140625">
        <ele>2116.800048828125</ele>
        <time>2021-06-24T19:33:21.000Z</time>
        <extensions>
          <ns3:TrackPointExtension>
            <ns3:atemp>32.0</ns3:atemp>
            <ns3:hr>119</ns3:hr>
          </ns3:TrackPointExtension>
        </extensions>
      </trkpt>
      <trkpt lat="36.77529984153807163238525390625" lon="-118.49875166080892086029052734375">
        <ele>2116.800048828125</ele>
        <time>2021-06-24T19:33:22.000Z</time>
        <extensions>
          <ns3:TrackPointExtension>
            <ns3:atemp>32.0</ns3:atemp>
            <ns3:hr>119</ns3:hr>
          </ns3:TrackPointExtension>
        </extensions>
      </trkpt>
      <trkpt lat="36.77529506385326385498046875" lon="-118.49869365803897380828857421875">
        <ele>2117.800048828125</ele>
        <time>2021-06-24T19:33:28.000Z</time>
        <extensions>
          <ns3:TrackPointExtension>
            <ns3:atemp>32.0</ns3:atemp>
            <ns3:hr>119</ns3:hr>
          </ns3:TrackPointExtension>
        </extensions>
      </trkpt>
      <trkpt lat="36.77528961561620235443115234375" lon="-118.49859793670475482940673828125">
        <ele>2118.800048828125</ele>
        <time>2021-06-24T19:33:36.000Z</time>
        <extensions>
          <ns3:TrackPointExtension>
            <ns3:atemp>32.0</ns3:atemp>
            <ns3:hr>118</ns3:hr>
          </ns3:TrackPointExtension>
        </extensions>
      </trkpt>
      <trkpt lat="36.77528056316077709197998046875" lon="-118.49855971522629261016845703125">
        <ele>2119</ele>
        <time>2021-06-24T19:33:40.000Z</time>
        <extensions>
          <ns3:TrackPointExtension>
            <ns3:atemp>32.0</ns3:atemp>
            <ns3:hr>115</ns3:hr>
          </ns3:TrackPointExtension>
        </extensions>
      </trkpt>
      <trkpt lat="36.77529028616845607757568359375" lon="-118.4985473938286304473876953125">
        <ele>2119.199951171875</ele>
        <time>2021-06-24T19:33:42.000Z</time>
        <extensions>
          <ns3:TrackPointExtension>
            <ns3:atemp>32.0</ns3:atemp>
            <ns3:hr>116</ns3:hr>
          </ns3:TrackPointExtension>
        </extensions>
      </trkpt>
      <trkpt lat="36.7752890288829803466796875" lon="-118.49853674881160259246826171875">
        <ele>2119.39990234375</ele>
        <time>2021-06-24T19:33:43.000Z</time>
        <extensions>
          <ns3:TrackPointExtension>
            <ns3:atemp>32.0</ns3:atemp>
            <ns3:hr>115</ns3:hr>
          </ns3:TrackPointExtension>
        </extensions>
      </trkpt>
      <trkpt lat="36.7752917110919952392578125" lon="-118.49850757978856563568115234375">
        <ele>2119.60009765625</ele>
        <time>2021-06-24T19:33:45.000Z</time>
        <extensions>
          <ns3:TrackPointExtension>
            <ns3:atemp>32.0</ns3:atemp>
            <ns3:hr>112</ns3:hr>
          </ns3:TrackPointExtension>
        </extensions>
      </trkpt>
      <trkpt lat="36.77529397420585155487060546875" lon="-118.49850221537053585052490234375">
        <ele>2120</ele>
        <time>2021-06-24T19:33:46.000Z</time>
        <extensions>
          <ns3:TrackPointExtension>
            <ns3:atemp>32.0</ns3:atemp>
            <ns3:hr>111</ns3:hr>
          </ns3:TrackPointExtension>
        </extensions>
      </trkpt>
      <trkpt lat="36.77529967390000820159912109375" lon="-118.4984950907528400421142578125">
        <ele>2120</ele>
        <time>2021-06-24T19:33:47.000Z</time>
        <extensions>
          <ns3:TrackPointExtension>
            <ns3:atemp>32.0</ns3:atemp>
            <ns3:hr>110</ns3:hr>
          </ns3:TrackPointExtension>
        </extensions>
      </trkpt>
      <trkpt lat="36.77529816515743732452392578125" lon="-118.498470447957515716552734375">
        <ele>2120.199951171875</ele>
        <time>2021-06-24T19:33:49.000Z</time>
        <extensions>
          <ns3:TrackPointExtension>
            <ns3:atemp>32.0</ns3:atemp>
            <ns3:hr>108</ns3:hr>
          </ns3:TrackPointExtension>
        </extensions>
      </trkpt>
      <trkpt lat="36.77530218847095966339111328125" lon="-118.49845611490309238433837890625">
        <ele>2120.60009765625</ele>
        <time>2021-06-24T19:33:51.000Z</time>
        <extensions>
          <ns3:TrackPointExtension>
            <ns3:atemp>32.0</ns3:atemp>
            <ns3:hr>107</ns3:hr>
          </ns3:TrackPointExtension>
        </extensions>
      </trkpt>
      <trkpt lat="36.77529774606227874755859375" lon="-118.4984318912029266357421875">
        <ele>2121.199951171875</ele>
        <time>2021-06-24T19:33:55.000Z</time>
        <extensions>
          <ns3:TrackPointExtension>
            <ns3:atemp>32.0</ns3:atemp>
            <ns3:hr>107</ns3:hr>
          </ns3:TrackPointExtension>
        </extensions>
      </trkpt>
      <trkpt lat="36.7752917110919952392578125" lon="-118.49841512739658355712890625">
        <ele>2121.39990234375</ele>
        <time>2021-06-24T19:33:57.000Z</time>
        <extensions>
          <ns3:TrackPointExtension>
            <ns3:atemp>32.0</ns3:atemp>
            <ns3:hr>107</ns3:hr>
          </ns3:TrackPointExtension>
        </extensions>
      </trkpt>
      <trkpt lat="36.77528643049299716949462890625" lon="-118.49839366972446441650390625">
        <ele>2121.60009765625</ele>
        <time>2021-06-24T19:33:59.000Z</time>
        <extensions>
          <ns3:TrackPointExtension>
            <ns3:atemp>32.0</ns3:atemp>
            <ns3:hr>107</ns3:hr>
          </ns3:TrackPointExtension>
        </extensions>
      </trkpt>
      <trkpt lat="36.77525675855576992034912109375" lon="-118.498328626155853271484375">
        <ele>2122.199951171875</ele>
        <time>2021-06-24T19:34:06.000Z</time>
        <extensions>
          <ns3:TrackPointExtension>
            <ns3:atemp>32.0</ns3:atemp>
            <ns3:hr>110</ns3:hr>
          </ns3:TrackPointExtension>
        </extensions>
      </trkpt>
      <trkpt lat="36.775245107710361480712890625" lon="-118.49832586012780666351318359375">
        <ele>2122.199951171875</ele>
        <time>2021-06-24T19:34:07.000Z</time>
        <extensions>
          <ns3:TrackPointExtension>
            <ns3:atemp>32.0</ns3:atemp>
            <ns3:hr>111</ns3:hr>
          </ns3:TrackPointExtension>
        </extensions>
      </trkpt>
      <trkpt lat="36.77515047602355480194091796875" lon="-118.4982466511428356170654296875">
        <ele>2122.60009765625</ele>
        <time>2021-06-24T19:34:15.000Z</time>
        <extensions>
          <ns3:TrackPointExtension>
            <ns3:atemp>32.0</ns3:atemp>
            <ns3:hr>111</ns3:hr>
          </ns3:TrackPointExtension>
        </extensions>
      </trkpt>
      <trkpt lat="36.77514980547130107879638671875" lon="-118.49823684431612491607666015625">
        <ele>2122.800048828125</ele>
        <time>2021-06-24T19:34:16.000Z</time>
        <extensions>
          <ns3:TrackPointExtension>
            <ns3:atemp>32.0</ns3:atemp>
            <ns3:hr>111</ns3:hr>
          </ns3:TrackPointExtension>
        </extensions>
      </trkpt>
      <trkpt lat="36.7751621268689632415771484375" lon="-118.49817247129976749420166015625">
        <ele>2123.39990234375</ele>
        <time>2021-06-24T19:34:22.000Z</time>
        <extensions>
          <ns3:TrackPointExtension>
            <ns3:atemp>32.0</ns3:atemp>
            <ns3:hr>110</ns3:hr>
          </ns3:TrackPointExtension>
        </extensions>
      </trkpt>
      <trkpt lat="36.7751634679734706878662109375" lon="-118.498160652816295623779296875">
        <ele>2123.39990234375</ele>
        <time>2021-06-24T19:34:23.000Z</time>
        <extensions>
          <ns3:TrackPointExtension>
            <ns3:atemp>32.0</ns3:atemp>
            <ns3:hr>110</ns3:hr>
          </ns3:TrackPointExtension>
        </extensions>
      </trkpt>
      <trkpt lat="36.7751765437424182891845703125" lon="-118.49810206331312656402587890625">
        <ele>2124.60009765625</ele>
        <time>2021-06-24T19:34:29.000Z</time>
        <extensions>
          <ns3:TrackPointExtension>
            <ns3:atemp>32.0</ns3:atemp>
            <ns3:hr>111</ns3:hr>
          </ns3:TrackPointExtension>
        </extensions>
      </trkpt>
      <trkpt lat="36.77518433891236782073974609375" lon="-118.49808731116354465484619140625">
        <ele>2124.800048828125</ele>
        <time>2021-06-24T19:34:31.000Z</time>
        <extensions>
          <ns3:TrackPointExtension>
            <ns3:atemp>32.0</ns3:atemp>
            <ns3:hr>111</ns3:hr>
          </ns3:TrackPointExtension>
        </extensions>
      </trkpt>
      <trkpt lat="36.77520344965159893035888671875" lon="-118.49803182296454906463623046875">
        <ele>2125.39990234375</ele>
        <time>2021-06-24T19:34:37.000Z</time>
        <extensions>
          <ns3:TrackPointExtension>
            <ns3:atemp>32.0</ns3:atemp>
            <ns3:hr>114</ns3:hr>
          </ns3:TrackPointExtension>
        </extensions>
      </trkpt>
      <trkpt lat="36.77519976161420345306396484375" lon="-118.49802193231880664825439453125">
        <ele>2125.60009765625</ele>
        <time>2021-06-24T19:34:38.000Z</time>
        <extensions>
          <ns3:TrackPointExtension>
            <ns3:atemp>32.0</ns3:atemp>
            <ns3:hr>112</ns3:hr>
          </ns3:TrackPointExtension>
        </extensions>
      </trkpt>
      <trkpt lat="36.77518484182655811309814453125" lon="-118.4979972057044506072998046875">
        <ele>2125.800048828125</ele>
        <time>2021-06-24T19:34:41.000Z</time>
        <extensions>
          <ns3:TrackPointExtension>
            <ns3:atemp>32.0</ns3:atemp>
            <ns3:hr>112</ns3:hr>
          </ns3:TrackPointExtension>
        </extensions>
      </trkpt>
      <trkpt lat="36.7751735262572765350341796875" lon="-118.4979603253304958343505859375">
        <ele>2126.800048828125</ele>
        <time>2021-06-24T19:34:46.000Z</time>
        <extensions>
          <ns3:TrackPointExtension>
            <ns3:atemp>32.0</ns3:atemp>
            <ns3:hr>110</ns3:hr>
          </ns3:TrackPointExtension>
        </extensions>
      </trkpt>
      <trkpt lat="36.77517679519951343536376953125" lon="-118.497941382229328155517578125">
        <ele>2127.199951171875</ele>
        <time>2021-06-24T19:34:48.000Z</time>
        <extensions>
          <ns3:TrackPointExtension>
            <ns3:atemp>32.0</ns3:atemp>
            <ns3:hr>112</ns3:hr>
          </ns3:TrackPointExtension>
        </extensions>
      </trkpt>
      <trkpt lat="36.7751684971153736114501953125" lon="-118.497878350317478179931640625">
        <ele>2127.60009765625</ele>
        <time>2021-06-24T19:34:53.000Z</time>
        <extensions>
          <ns3:TrackPointExtension>
            <ns3:atemp>32.0</ns3:atemp>
            <ns3:hr>109</ns3:hr>
          </ns3:TrackPointExtension>
        </extensions>
      </trkpt>
      <trkpt lat="36.77516656927764415740966796875" lon="-118.497869968414306640625">
        <ele>2127.800048828125</ele>
        <time>2021-06-24T19:34:54.000Z</time>
        <extensions>
          <ns3:TrackPointExtension>
            <ns3:atemp>32.0</ns3:atemp>
            <ns3:hr>107</ns3:hr>
          </ns3:TrackPointExtension>
        </extensions>
      </trkpt>
      <trkpt lat="36.775165311992168426513671875" lon="-118.49783350713551044464111328125">
        <ele>2128.199951171875</ele>
        <time>2021-06-24T19:34:59.000Z</time>
        <extensions>
          <ns3:TrackPointExtension>
            <ns3:atemp>32.0</ns3:atemp>
            <ns3:hr>107</ns3:hr>
          </ns3:TrackPointExtension>
        </extensions>
      </trkpt>
      <trkpt lat="36.77515986375510692596435546875" lon="-118.4978074394166469573974609375">
        <ele>2129</ele>
        <time>2021-06-24T19:35:02.000Z</time>
        <extensions>
          <ns3:TrackPointExtension>
            <ns3:atemp>32.0</ns3:atemp>
            <ns3:hr>107</ns3:hr>
          </ns3:TrackPointExtension>
        </extensions>
      </trkpt>
      <trkpt lat="36.77514083683490753173828125" lon="-118.49775656126439571380615234375">
        <ele>2129.60009765625</ele>
        <time>2021-06-24T19:35:08.000Z</time>
        <extensions>
          <ns3:TrackPointExtension>
            <ns3:atemp>32.0</ns3:atemp>
            <ns3:hr>109</ns3:hr>
          </ns3:TrackPointExtension>
        </extensions>
      </trkpt>
      <trkpt lat="36.77511426620185375213623046875" lon="-118.4977237880229949951171875">
        <ele>2129.800048828125</ele>
        <time>2021-06-24T19:35:13.000Z</time>
        <extensions>
          <ns3:TrackPointExtension>
            <ns3:atemp>32.0</ns3:atemp>
            <ns3:hr>109</ns3:hr>
          </ns3:TrackPointExtension>
        </extensions>
      </trkpt>
      <trkpt lat="36.7751146852970123291015625" lon="-118.49771180190145969390869140625">
        <ele>2130</ele>
        <time>2021-06-24T19:35:14.000Z</time>
        <extensions>
          <ns3:TrackPointExtension>
            <ns3:atemp>32.0</ns3:atemp>
            <ns3:hr>112</ns3:hr>
          </ns3:TrackPointExtension>
        </extensions>
      </trkpt>
      <trkpt lat="36.77512600086629390716552734375" lon="-118.4976733289659023284912109375">
        <ele>2131.39990234375</ele>
        <time>2021-06-24T19:35:20.000Z</time>
        <extensions>
          <ns3:TrackPointExtension>
            <ns3:atemp>32.0</ns3:atemp>
            <ns3:hr>109</ns3:hr>
          </ns3:TrackPointExtension>
        </extensions>
      </trkpt>
      <trkpt lat="36.77513086237013339996337890625" lon="-118.49767274223268032073974609375">
        <ele>2131.39990234375</ele>
        <time>2021-06-24T19:35:21.000Z</time>
        <extensions>
          <ns3:TrackPointExtension>
            <ns3:atemp>32.0</ns3:atemp>
            <ns3:hr>110</ns3:hr>
          </ns3:TrackPointExtension>
        </extensions>
      </trkpt>
      <trkpt lat="36.775129772722721099853515625" lon="-118.49765933118760585784912109375">
        <ele>2131.60009765625</ele>
        <time>2021-06-24T19:35:23.000Z</time>
        <extensions>
          <ns3:TrackPointExtension>
            <ns3:atemp>32.0</ns3:atemp>
            <ns3:hr>111</ns3:hr>
          </ns3:TrackPointExtension>
        </extensions>
      </trkpt>
      <trkpt lat="36.7751349695026874542236328125" lon="-118.497630916535854339599609375">
        <ele>2132.199951171875</ele>
        <time>2021-06-24T19:35:26.000Z</time>
        <extensions>
          <ns3:TrackPointExtension>
            <ns3:atemp>32.0</ns3:atemp>
            <ns3:hr>108</ns3:hr>
          </ns3:TrackPointExtension>
        </extensions>
      </trkpt>
      <trkpt lat="36.77513974718749523162841796875" lon="-118.4976069442927837371826171875">
        <ele>2132.199951171875</ele>
        <time>2021-06-24T19:35:29.000Z</time>
        <extensions>
          <ns3:TrackPointExtension>
            <ns3:atemp>32.0</ns3:atemp>
            <ns3:hr>111</ns3:hr>
          </ns3:TrackPointExtension>
        </extensions>
      </trkpt>
      <trkpt lat="36.77514159120619297027587890625" lon="-118.49760015495121479034423828125">
        <ele>2132.199951171875</ele>
        <time>2021-06-24T19:35:30.000Z</time>
        <extensions>
          <ns3:TrackPointExtension>
            <ns3:atemp>32.0</ns3:atemp>
            <ns3:hr>109</ns3:hr>
          </ns3:TrackPointExtension>
        </extensions>
      </trkpt>
      <trkpt lat="36.77514242939651012420654296875" lon="-118.49757920019328594207763671875">
        <ele>2132.60009765625</ele>
        <time>2021-06-24T19:35:32.000Z</time>
        <extensions>
          <ns3:TrackPointExtension>
            <ns3:atemp>32.0</ns3:atemp>
            <ns3:hr>108</ns3:hr>
          </ns3:TrackPointExtension>
        </extensions>
      </trkpt>
      <trkpt lat="36.7751415073871612548828125" lon="-118.49756863899528980255126953125">
        <ele>2132.60009765625</ele>
        <time>2021-06-24T19:35:33.000Z</time>
        <extensions>
          <ns3:TrackPointExtension>
            <ns3:atemp>32.0</ns3:atemp>
            <ns3:hr>108</ns3:hr>
          </ns3:TrackPointExtension>
        </extensions>
      </trkpt>
      <trkpt lat="36.77514108829200267791748046875" lon="-118.49755388684570789337158203125">
        <ele>2132.60009765625</ele>
        <time>2021-06-24T19:35:35.000Z</time>
        <extensions>
          <ns3:TrackPointExtension>
            <ns3:atemp>32.0</ns3:atemp>
            <ns3:hr>113</ns3:hr>
          </ns3:TrackPointExtension>
        </extensions>
      </trkpt>
      <trkpt lat="36.775138489902019500732421875" lon="-118.49753544665873050689697265625">
        <ele>2133.39990234375</ele>
        <time>2021-06-24T19:35:38.000Z</time>
        <extensions>
          <ns3:TrackPointExtension>
            <ns3:atemp>32.0</ns3:atemp>
            <ns3:hr>114</ns3:hr>
          </ns3:TrackPointExtension>
        </extensions>
      </trkpt>
      <trkpt lat="36.77513279020786285400390625" lon="-118.49751834757626056671142578125">
        <ele>2133.800048828125</ele>
        <time>2021-06-24T19:35:40.000Z</time>
        <extensions>
          <ns3:TrackPointExtension>
            <ns3:atemp>32.0</ns3:atemp>
            <ns3:hr>114</ns3:hr>
          </ns3:TrackPointExtension>
        </extensions>
      </trkpt>
      <trkpt lat="36.77513706497848033905029296875" lon="-118.497451879084110260009765625">
        <ele>2134.800048828125</ele>
        <time>2021-06-24T19:35:48.000Z</time>
        <extensions>
          <ns3:TrackPointExtension>
            <ns3:atemp>32.0</ns3:atemp>
            <ns3:hr>117</ns3:hr>
          </ns3:TrackPointExtension>
        </extensions>
      </trkpt>
      <trkpt lat="36.775135137140750885009765625" lon="-118.49744073115289211273193359375">
        <ele>2134.800048828125</ele>
        <time>2021-06-24T19:35:49.000Z</time>
        <extensions>
          <ns3:TrackPointExtension>
            <ns3:atemp>32.0</ns3:atemp>
            <ns3:hr>117</ns3:hr>
          </ns3:TrackPointExtension>
        </extensions>
      </trkpt>
      <trkpt lat="36.77513320930302143096923828125" lon="-118.497414328157901763916015625">
        <ele>2135</ele>
        <time>2021-06-24T19:35:52.000Z</time>
        <extensions>
          <ns3:TrackPointExtension>
            <ns3:atemp>32.0</ns3:atemp>
            <ns3:hr>118</ns3:hr>
          </ns3:TrackPointExtension>
        </extensions>
      </trkpt>
      <trkpt lat="36.7751307785511016845703125" lon="-118.497399576008319854736328125">
        <ele>2135.39990234375</ele>
        <time>2021-06-24T19:35:54.000Z</time>
        <extensions>
          <ns3:TrackPointExtension>
            <ns3:atemp>32.0</ns3:atemp>
            <ns3:hr>115</ns3:hr>
          </ns3:TrackPointExtension>
        </extensions>
      </trkpt>
      <trkpt lat="36.77512876689434051513671875" lon="-118.49739043973386287689208984375">
        <ele>2135.800048828125</ele>
        <time>2021-06-24T19:35:56.000Z</time>
        <extensions>
          <ns3:TrackPointExtension>
            <ns3:atemp>32.0</ns3:atemp>
            <ns3:hr>113</ns3:hr>
          </ns3:TrackPointExtension>
        </extensions>
      </trkpt>
      <trkpt lat="36.77512952126562595367431640625" lon="-118.49737174808979034423828125">
        <ele>2136</ele>
        <time>2021-06-24T19:35:58.000Z</time>
        <extensions>
          <ns3:TrackPointExtension>
            <ns3:atemp>32.0</ns3:atemp>
            <ns3:hr>110</ns3:hr>
          </ns3:TrackPointExtension>
        </extensions>
      </trkpt>
      <trkpt lat="36.7751279287040233612060546875" lon="-118.49736613221466541290283203125">
        <ele>2136.199951171875</ele>
        <time>2021-06-24T19:35:59.000Z</time>
        <extensions>
          <ns3:TrackPointExtension>
            <ns3:atemp>32.0</ns3:atemp>
            <ns3:hr>109</ns3:hr>
          </ns3:TrackPointExtension>
        </extensions>
      </trkpt>
      <trkpt lat="36.77513035945594310760498046875" lon="-118.49733419716358184814453125">
        <ele>2137</ele>
        <time>2021-06-24T19:36:03.000Z</time>
        <extensions>
          <ns3:TrackPointExtension>
            <ns3:atemp>32.0</ns3:atemp>
            <ns3:hr>107</ns3:hr>
          </ns3:TrackPointExtension>
        </extensions>
      </trkpt>
      <trkpt lat="36.77513069473206996917724609375" lon="-118.49732539616525173187255859375">
        <ele>2137.199951171875</ele>
        <time>2021-06-24T19:36:04.000Z</time>
        <extensions>
          <ns3:TrackPointExtension>
            <ns3:atemp>32.0</ns3:atemp>
            <ns3:hr>108</ns3:hr>
          </ns3:TrackPointExtension>
        </extensions>
      </trkpt>
      <trkpt lat="36.77512449212372303009033203125" lon="-118.4972917847335338592529296875">
        <ele>2137.60009765625</ele>
        <time>2021-06-24T19:36:08.000Z</time>
        <extensions>
          <ns3:TrackPointExtension>
            <ns3:atemp>32.0</ns3:atemp>
            <ns3:hr>105</ns3:hr>
          </ns3:TrackPointExtension>
        </extensions>
      </trkpt>
      <trkpt lat="36.7751200497150421142578125" lon="-118.4972830675542354583740234375">
        <ele>2137.60009765625</ele>
        <time>2021-06-24T19:36:09.000Z</time>
        <extensions>
          <ns3:TrackPointExtension>
            <ns3:atemp>32.0</ns3:atemp>
            <ns3:hr>105</ns3:hr>
          </ns3:TrackPointExtension>
        </extensions>
      </trkpt>
      <trkpt lat="36.7751171998679637908935546875" lon="-118.49727275781333446502685546875">
        <ele>2138</ele>
        <time>2021-06-24T19:36:10.000Z</time>
        <extensions>
          <ns3:TrackPointExtension>
            <ns3:atemp>32.0</ns3:atemp>
            <ns3:hr>102</ns3:hr>
          </ns3:TrackPointExtension>
        </extensions>
      </trkpt>
      <trkpt lat="36.77511258982121944427490234375" lon="-118.4972624480724334716796875">
        <ele>2138</ele>
        <time>2021-06-24T19:36:11.000Z</time>
        <extensions>
          <ns3:TrackPointExtension>
            <ns3:atemp>32.0</ns3:atemp>
            <ns3:hr>108</ns3:hr>
          </ns3:TrackPointExtension>
        </extensions>
      </trkpt>
      <trkpt lat="36.77510739304125308990478515625" lon="-118.4972525574266910552978515625">
        <ele>2138.39990234375</ele>
        <time>2021-06-24T19:36:12.000Z</time>
        <extensions>
          <ns3:TrackPointExtension>
            <ns3:atemp>32.0</ns3:atemp>
            <ns3:hr>109</ns3:hr>
          </ns3:TrackPointExtension>
        </extensions>
      </trkpt>
      <trkpt lat="36.7751051299273967742919921875" lon="-118.49724325351417064666748046875">
        <ele>2138.60009765625</ele>
        <time>2021-06-24T19:36:13.000Z</time>
        <extensions>
          <ns3:TrackPointExtension>
            <ns3:atemp>32.0</ns3:atemp>
            <ns3:hr>109</ns3:hr>
          </ns3:TrackPointExtension>
        </extensions>
      </trkpt>
      <trkpt lat="36.77510353736579418182373046875" lon="-118.4972334466874599456787109375">
        <ele>2138.800048828125</ele>
        <time>2021-06-24T19:36:14.000Z</time>
        <extensions>
          <ns3:TrackPointExtension>
            <ns3:atemp>32.0</ns3:atemp>
            <ns3:hr>109</ns3:hr>
          </ns3:TrackPointExtension>
        </extensions>
      </trkpt>
      <trkpt lat="36.77508241496980190277099609375" lon="-118.497183322906494140625">
        <ele>2139</ele>
        <time>2021-06-24T19:36:19.000Z</time>
        <extensions>
          <ns3:TrackPointExtension>
            <ns3:atemp>32.0</ns3:atemp>
            <ns3:hr>109</ns3:hr>
          </ns3:TrackPointExtension>
        </extensions>
      </trkpt>
      <trkpt lat="36.775073111057281494140625" lon="-118.49715423770248889923095703125">
        <ele>2139.60009765625</ele>
        <time>2021-06-24T19:36:22.000Z</time>
        <extensions>
          <ns3:TrackPointExtension>
            <ns3:atemp>32.0</ns3:atemp>
            <ns3:hr>112</ns3:hr>
          </ns3:TrackPointExtension>
        </extensions>
      </trkpt>
      <trkpt lat="36.77505995146930217742919921875" lon="-118.4971429221332073211669921875">
        <ele>2139.60009765625</ele>
        <time>2021-06-24T19:36:24.000Z</time>
        <extensions>
          <ns3:TrackPointExtension>
            <ns3:atemp>32.0</ns3:atemp>
            <ns3:hr>113</ns3:hr>
          </ns3:TrackPointExtension>
        </extensions>
      </trkpt>
      <trkpt lat="36.7750514857470989227294921875" lon="-118.49711886607110500335693359375">
        <ele>2140</ele>
        <time>2021-06-24T19:36:26.000Z</time>
        <extensions>
          <ns3:TrackPointExtension>
            <ns3:atemp>32.0</ns3:atemp>
            <ns3:hr>117</ns3:hr>
          </ns3:TrackPointExtension>
        </extensions>
      </trkpt>
      <trkpt lat="36.7750477977097034454345703125" lon="-118.497106544673442840576171875">
        <ele>2140</ele>
        <time>2021-06-24T19:36:27.000Z</time>
        <extensions>
          <ns3:TrackPointExtension>
            <ns3:atemp>32.0</ns3:atemp>
            <ns3:hr>114</ns3:hr>
          </ns3:TrackPointExtension>
        </extensions>
      </trkpt>
      <trkpt lat="36.775031201541423797607421875" lon="-118.49707695655524730682373046875">
        <ele>2140</ele>
        <time>2021-06-24T19:36:30.000Z</time>
        <extensions>
          <ns3:TrackPointExtension>
            <ns3:atemp>32.0</ns3:atemp>
            <ns3:hr>114</ns3:hr>
          </ns3:TrackPointExtension>
        </extensions>
      </trkpt>
      <trkpt lat="36.775009073317050933837890625" lon="-118.49703052081167697906494140625">
        <ele>2140.39990234375</ele>
        <time>2021-06-24T19:36:34.000Z</time>
        <extensions>
          <ns3:TrackPointExtension>
            <ns3:atemp>32.0</ns3:atemp>
            <ns3:hr>117</ns3:hr>
          </ns3:TrackPointExtension>
        </extensions>
      </trkpt>
      <trkpt lat="36.7750042118132114410400390625" lon="-118.4970215521752834320068359375">
        <ele>2140.60009765625</ele>
        <time>2021-06-24T19:36:35.000Z</time>
        <extensions>
          <ns3:TrackPointExtension>
            <ns3:atemp>32.0</ns3:atemp>
            <ns3:hr>114</ns3:hr>
          </ns3:TrackPointExtension>
        </extensions>
      </trkpt>
      <trkpt lat="36.7749971710145473480224609375" lon="-118.497023396193981170654296875">
        <ele>2140.60009765625</ele>
        <time>2021-06-24T19:36:37.000Z</time>
        <extensions>
          <ns3:TrackPointExtension>
            <ns3:atemp>32.0</ns3:atemp>
            <ns3:hr>116</ns3:hr>
          </ns3:TrackPointExtension>
        </extensions>
      </trkpt>
      <trkpt lat="36.774995326995849609375" lon="-118.4970237314701080322265625">
        <ele>2140.60009765625</ele>
        <time>2021-06-24T19:36:38.000Z</time>
        <extensions>
          <ns3:TrackPointExtension>
            <ns3:atemp>32.0</ns3:atemp>
            <ns3:hr>115</ns3:hr>
          </ns3:TrackPointExtension>
        </extensions>
      </trkpt>
      <trkpt lat="36.77499222569167613983154296875" lon="-118.4970223903656005859375">
        <ele>2140.60009765625</ele>
        <time>2021-06-24T19:36:39.000Z</time>
        <extensions>
          <ns3:TrackPointExtension>
            <ns3:atemp>32.0</ns3:atemp>
            <ns3:hr>114</ns3:hr>
          </ns3:TrackPointExtension>
        </extensions>
      </trkpt>
      <trkpt lat="36.7749861069023609161376953125" lon="-118.49701744504272937774658203125">
        <ele>2140.60009765625</ele>
        <time>2021-06-24T19:36:41.000Z</time>
        <extensions>
          <ns3:TrackPointExtension>
            <ns3:atemp>32.0</ns3:atemp>
            <ns3:hr>117</ns3:hr>
          </ns3:TrackPointExtension>
        </extensions>
      </trkpt>
      <trkpt lat="36.7749861069023609161376953125" lon="-118.49701023660600185394287109375">
        <ele>2140.60009765625</ele>
        <time>2021-06-24T19:36:42.000Z</time>
        <extensions>
          <ns3:TrackPointExtension>
            <ns3:atemp>32.0</ns3:atemp>
            <ns3:hr>114</ns3:hr>
          </ns3:TrackPointExtension>
        </extensions>
      </trkpt>
      <trkpt lat="36.77498258650302886962890625" lon="-118.49703236483037471771240234375">
        <ele>2140.60009765625</ele>
        <time>2021-06-24T19:36:46.000Z</time>
        <extensions>
          <ns3:TrackPointExtension>
            <ns3:atemp>32.0</ns3:atemp>
            <ns3:hr>115</ns3:hr>
          </ns3:TrackPointExtension>
        </extensions>
      </trkpt>
      <trkpt lat="36.77497562952339649200439453125" lon="-118.49703420884907245635986328125">
        <ele>2140.39990234375</ele>
        <time>2021-06-24T19:36:55.000Z</time>
        <extensions>
          <ns3:TrackPointExtension>
            <ns3:atemp>32.0</ns3:atemp>
            <ns3:hr>112</ns3:hr>
          </ns3:TrackPointExtension>
        </extensions>
      </trkpt>
      <trkpt lat="36.7749753780663013458251953125" lon="-118.4970316104590892791748046875">
        <ele>2140.60009765625</ele>
        <time>2021-06-24T19:37:00.000Z</time>
        <extensions>
          <ns3:TrackPointExtension>
            <ns3:atemp>32.0</ns3:atemp>
            <ns3:hr>110</ns3:hr>
          </ns3:TrackPointExtension>
        </extensions>
      </trkpt>
      <trkpt lat="36.7749752104282379150390625" lon="-118.4970151819288730621337890625">
        <ele>2141</ele>
        <time>2021-06-24T19:37:05.000Z</time>
        <extensions>
          <ns3:TrackPointExtension>
            <ns3:atemp>32.0</ns3:atemp>
            <ns3:hr>109</ns3:hr>
          </ns3:TrackPointExtension>
        </extensions>
      </trkpt>
      <trkpt lat="36.7749752104282379150390625" lon="-118.4970151819288730621337890625">
        <ele>2141.199951171875</ele>
        <time>2021-06-24T19:37:14.000Z</time>
        <extensions>
          <ns3:TrackPointExtension>
            <ns3:atemp>32.0</ns3:atemp>
            <ns3:hr>112</ns3:hr>
          </ns3:TrackPointExtension>
        </extensions>
      </trkpt>
      <trkpt lat="36.7749807424843311309814453125" lon="-118.497020713984966278076171875">
        <ele>2141</ele>
        <time>2021-06-24T19:37:23.000Z</time>
        <extensions>
          <ns3:TrackPointExtension>
            <ns3:atemp>32.0</ns3:atemp>
            <ns3:hr>109</ns3:hr>
          </ns3:TrackPointExtension>
        </extensions>
      </trkpt>
      <trkpt lat="36.7749810777604579925537109375" lon="-118.49700906313955783843994140625">
        <ele>2141</ele>
        <time>2021-06-24T19:37:33.000Z</time>
        <extensions>
          <ns3:TrackPointExtension>
            <ns3:atemp>32.0</ns3:atemp>
            <ns3:hr>106</ns3:hr>
          </ns3:TrackPointExtension>
        </extensions>
      </trkpt>
      <trkpt lat="36.774944029748439788818359375" lon="-118.49690998904407024383544921875">
        <ele>2141.39990234375</ele>
        <time>2021-06-24T19:37:39.000Z</time>
        <extensions>
          <ns3:TrackPointExtension>
            <ns3:atemp>32.0</ns3:atemp>
            <ns3:hr>105</ns3:hr>
          </ns3:TrackPointExtension>
        </extensions>
      </trkpt>
      <trkpt lat="36.7749287746846675872802734375" lon="-118.49687025882303714752197265625">
        <ele>2141.800048828125</ele>
        <time>2021-06-24T19:37:41.000Z</time>
        <extensions>
          <ns3:TrackPointExtension>
            <ns3:atemp>32.0</ns3:atemp>
            <ns3:hr>104</ns3:hr>
          </ns3:TrackPointExtension>
        </extensions>
      </trkpt>
      <trkpt lat="36.77492081187665462493896484375" lon="-118.4968279302120208740234375">
        <ele>2142</ele>
        <time>2021-06-24T19:37:43.000Z</time>
        <extensions>
          <ns3:TrackPointExtension>
            <ns3:atemp>32.0</ns3:atemp>
            <ns3:hr>103</ns3:hr>
          </ns3:TrackPointExtension>
        </extensions>
      </trkpt>
      <trkpt lat="36.77490488626062870025634765625" lon="-118.49678141064941883087158203125">
        <ele>2142.199951171875</ele>
        <time>2021-06-24T19:37:47.000Z</time>
        <extensions>
          <ns3:TrackPointExtension>
            <ns3:atemp>32.0</ns3:atemp>
            <ns3:hr>106</ns3:hr>
          </ns3:TrackPointExtension>
        </extensions>
      </trkpt>
      <trkpt lat="36.77490354515612125396728515625" lon="-118.49677168764173984527587890625">
        <ele>2142.39990234375</ele>
        <time>2021-06-24T19:37:48.000Z</time>
        <extensions>
          <ns3:TrackPointExtension>
            <ns3:atemp>32.0</ns3:atemp>
            <ns3:hr>107</ns3:hr>
          </ns3:TrackPointExtension>
        </extensions>
      </trkpt>
      <trkpt lat="36.7748969234526157379150390625" lon="-118.49673874676227569580078125">
        <ele>2142.60009765625</ele>
        <time>2021-06-24T19:37:51.000Z</time>
        <extensions>
          <ns3:TrackPointExtension>
            <ns3:atemp>32.0</ns3:atemp>
            <ns3:hr>110</ns3:hr>
          </ns3:TrackPointExtension>
        </extensions>
      </trkpt>
      <trkpt lat="36.774889715015888214111328125" lon="-118.496708236634731292724609375">
        <ele>2142.800048828125</ele>
        <time>2021-06-24T19:37:54.000Z</time>
        <extensions>
          <ns3:TrackPointExtension>
            <ns3:atemp>32.0</ns3:atemp>
            <ns3:hr>112</ns3:hr>
          </ns3:TrackPointExtension>
        </extensions>
      </trkpt>
      <trkpt lat="36.77488602697849273681640625" lon="-118.4967010281980037689208984375">
        <ele>2143</ele>
        <time>2021-06-24T19:37:55.000Z</time>
        <extensions>
          <ns3:TrackPointExtension>
            <ns3:atemp>32.0</ns3:atemp>
            <ns3:hr>113</ns3:hr>
          </ns3:TrackPointExtension>
        </extensions>
      </trkpt>
      <trkpt lat="36.7748758010566234588623046875" lon="-118.49668443202972412109375">
        <ele>2143</ele>
        <time>2021-06-24T19:37:57.000Z</time>
        <extensions>
          <ns3:TrackPointExtension>
            <ns3:atemp>32.0</ns3:atemp>
            <ns3:hr>112</ns3:hr>
          </ns3:TrackPointExtension>
        </extensions>
      </trkpt>
      <trkpt lat="36.77483598701655864715576171875" lon="-118.49655845202505588531494140625">
        <ele>2143.199951171875</ele>
        <time>2021-06-24T19:38:06.000Z</time>
        <extensions>
          <ns3:TrackPointExtension>
            <ns3:atemp>32.0</ns3:atemp>
            <ns3:hr>112</ns3:hr>
          </ns3:TrackPointExtension>
        </extensions>
      </trkpt>
      <trkpt lat="36.77480463869869709014892578125" lon="-118.4964596293866634368896484375">
        <ele>2142.800048828125</ele>
        <time>2021-06-24T19:38:14.000Z</time>
        <extensions>
          <ns3:TrackPointExtension>
            <ns3:atemp>32.0</ns3:atemp>
            <ns3:hr>117</ns3:hr>
          </ns3:TrackPointExtension>
        </extensions>
      </trkpt>
      <trkpt lat="36.7747785709798336029052734375" lon="-118.49641822278499603271484375">
        <ele>2142.800048828125</ele>
        <time>2021-06-24T19:38:17.000Z</time>
        <extensions>
          <ns3:TrackPointExtension>
            <ns3:atemp>32.0</ns3:atemp>
            <ns3:hr>115</ns3:hr>
          </ns3:TrackPointExtension>
        </extensions>
      </trkpt>
      <trkpt lat="36.7747715301811695098876953125" lon="-118.496370613574981689453125">
        <ele>2142.60009765625</ele>
        <time>2021-06-24T19:38:20.000Z</time>
        <extensions>
          <ns3:TrackPointExtension>
            <ns3:atemp>32.0</ns3:atemp>
            <ns3:hr>118</ns3:hr>
          </ns3:TrackPointExtension>
        </extensions>
      </trkpt>
      <trkpt lat="36.7747686803340911865234375" lon="-118.49631705321371555328369140625">
        <ele>2142.800048828125</ele>
        <time>2021-06-24T19:38:25.000Z</time>
        <extensions>
          <ns3:TrackPointExtension>
            <ns3:atemp>32.0</ns3:atemp>
            <ns3:hr>116</ns3:hr>
          </ns3:TrackPointExtension>
        </extensions>
      </trkpt>
      <trkpt lat="36.7747698538005352020263671875" lon="-118.496300540864467620849609375">
        <ele>2142.800048828125</ele>
        <time>2021-06-24T19:38:26.000Z</time>
        <extensions>
          <ns3:TrackPointExtension>
            <ns3:atemp>32.0</ns3:atemp>
            <ns3:hr>113</ns3:hr>
          </ns3:TrackPointExtension>
        </extensions>
      </trkpt>
      <trkpt lat="36.774771697819232940673828125" lon="-118.49627531133592128753662109375">
        <ele>2142.800048828125</ele>
        <time>2021-06-24T19:38:28.000Z</time>
        <extensions>
          <ns3:TrackPointExtension>
            <ns3:atemp>32.0</ns3:atemp>
            <ns3:hr>108</ns3:hr>
          </ns3:TrackPointExtension>
        </extensions>
      </trkpt>
      <trkpt lat="36.774769015610218048095703125" lon="-118.49626391194760799407958984375">
        <ele>2142.800048828125</ele>
        <time>2021-06-24T19:38:29.000Z</time>
        <extensions>
          <ns3:TrackPointExtension>
            <ns3:atemp>32.0</ns3:atemp>
            <ns3:hr>108</ns3:hr>
          </ns3:TrackPointExtension>
        </extensions>
      </trkpt>
      <trkpt lat="36.77476423792541027069091796875" lon="-118.4962485730648040771484375">
        <ele>2142.199951171875</ele>
        <time>2021-06-24T19:38:31.000Z</time>
        <extensions>
          <ns3:TrackPointExtension>
            <ns3:atemp>32.0</ns3:atemp>
            <ns3:hr>108</ns3:hr>
          </ns3:TrackPointExtension>
        </extensions>
      </trkpt>
      <trkpt lat="36.7747597955167293548583984375" lon="-118.49621932022273540496826171875">
        <ele>2142.199951171875</ele>
        <time>2021-06-24T19:38:33.000Z</time>
        <extensions>
          <ns3:TrackPointExtension>
            <ns3:atemp>32.0</ns3:atemp>
            <ns3:hr>107</ns3:hr>
          </ns3:TrackPointExtension>
        </extensions>
      </trkpt>
      <trkpt lat="36.7747551016509532928466796875" lon="-118.49617472849786281585693359375">
        <ele>2142</ele>
        <time>2021-06-24T19:38:36.000Z</time>
        <extensions>
          <ns3:TrackPointExtension>
            <ns3:atemp>32.0</ns3:atemp>
            <ns3:hr>107</ns3:hr>
          </ns3:TrackPointExtension>
        </extensions>
      </trkpt>
      <trkpt lat="36.77475619129836559295654296875" lon="-118.49610566161572933197021484375">
        <ele>2142.199951171875</ele>
        <time>2021-06-24T19:38:41.000Z</time>
        <extensions>
          <ns3:TrackPointExtension>
            <ns3:atemp>32.0</ns3:atemp>
            <ns3:hr>108</ns3:hr>
          </ns3:TrackPointExtension>
        </extensions>
      </trkpt>
      <trkpt lat="36.77476122044026851654052734375" lon="-118.4960898198187351226806640625">
        <ele>2142.199951171875</ele>
        <time>2021-06-24T19:38:42.000Z</time>
        <extensions>
          <ns3:TrackPointExtension>
            <ns3:atemp>32.0</ns3:atemp>
            <ns3:hr>108</ns3:hr>
          </ns3:TrackPointExtension>
        </extensions>
      </trkpt>
      <trkpt lat="36.77476239390671253204345703125" lon="-118.496055118739604949951171875">
        <ele>2142.60009765625</ele>
        <time>2021-06-24T19:38:45.000Z</time>
        <extensions>
          <ns3:TrackPointExtension>
            <ns3:atemp>32.0</ns3:atemp>
            <ns3:hr>105</ns3:hr>
          </ns3:TrackPointExtension>
        </extensions>
      </trkpt>
      <trkpt lat="36.774747557938098907470703125" lon="-118.4960314817726612091064453125">
        <ele>2142.800048828125</ele>
        <time>2021-06-24T19:38:48.000Z</time>
        <extensions>
          <ns3:TrackPointExtension>
            <ns3:atemp>32.0</ns3:atemp>
            <ns3:hr>105</ns3:hr>
          </ns3:TrackPointExtension>
        </extensions>
      </trkpt>
      <trkpt lat="36.77474026568233966827392578125" lon="-118.4960147179663181304931640625">
        <ele>2143</ele>
        <time>2021-06-24T19:38:50.000Z</time>
        <extensions>
          <ns3:TrackPointExtension>
            <ns3:atemp>32.0</ns3:atemp>
            <ns3:hr>104</ns3:hr>
          </ns3:TrackPointExtension>
        </extensions>
      </trkpt>
      <trkpt lat="36.7747064866125583648681640625" lon="-118.49601857364177703857421875">
        <ele>2143.39990234375</ele>
        <time>2021-06-24T19:38:52.000Z</time>
        <extensions>
          <ns3:TrackPointExtension>
            <ns3:atemp>32.0</ns3:atemp>
            <ns3:hr>104</ns3:hr>
          </ns3:TrackPointExtension>
        </extensions>
      </trkpt>
      <trkpt lat="36.77469651214778423309326171875" lon="-118.49601664580404758453369140625">
        <ele>2143.800048828125</ele>
        <time>2021-06-24T19:38:53.000Z</time>
        <extensions>
          <ns3:TrackPointExtension>
            <ns3:atemp>32.0</ns3:atemp>
            <ns3:hr>103</ns3:hr>
          </ns3:TrackPointExtension>
        </extensions>
      </trkpt>
      <trkpt lat="36.77470237948000431060791015625" lon="-118.49599300883710384368896484375">
        <ele>2143.800048828125</ele>
        <time>2021-06-24T19:38:55.000Z</time>
        <extensions>
          <ns3:TrackPointExtension>
            <ns3:atemp>32.0</ns3:atemp>
            <ns3:hr>102</ns3:hr>
          </ns3:TrackPointExtension>
        </extensions>
      </trkpt>
      <trkpt lat="36.77469424903392791748046875" lon="-118.4959691204130649566650390625">
        <ele>2144</ele>
        <time>2021-06-24T19:38:58.000Z</time>
        <extensions>
          <ns3:TrackPointExtension>
            <ns3:atemp>32.0</ns3:atemp>
            <ns3:hr>103</ns3:hr>
          </ns3:TrackPointExtension>
        </extensions>
      </trkpt>
      <trkpt lat="36.7746907286345958709716796875" lon="-118.49595998413860797882080078125">
        <ele>2144</ele>
        <time>2021-06-24T19:38:59.000Z</time>
        <extensions>
          <ns3:TrackPointExtension>
            <ns3:atemp>32.0</ns3:atemp>
            <ns3:hr>104</ns3:hr>
          </ns3:TrackPointExtension>
        </extensions>
      </trkpt>
      <trkpt lat="36.77468192763626575469970703125" lon="-118.49590181373059749603271484375">
        <ele>2144.199951171875</ele>
        <time>2021-06-24T19:39:03.000Z</time>
        <extensions>
          <ns3:TrackPointExtension>
            <ns3:atemp>32.0</ns3:atemp>
            <ns3:hr>108</ns3:hr>
          </ns3:TrackPointExtension>
        </extensions>
      </trkpt>
      <trkpt lat="36.77467220462858676910400390625" lon="-118.4958893246948719024658203125">
        <ele>2144</ele>
        <time>2021-06-24T19:39:04.000Z</time>
        <extensions>
          <ns3:TrackPointExtension>
            <ns3:atemp>32.0</ns3:atemp>
            <ns3:hr>105</ns3:hr>
          </ns3:TrackPointExtension>
        </extensions>
      </trkpt>
      <trkpt lat="36.77464672364294528961181640625" lon="-118.495870716869831085205078125">
        <ele>2144</ele>
        <time>2021-06-24T19:39:06.000Z</time>
        <extensions>
          <ns3:TrackPointExtension>
            <ns3:atemp>32.0</ns3:atemp>
            <ns3:hr>107</ns3:hr>
          </ns3:TrackPointExtension>
        </extensions>
      </trkpt>
      <trkpt lat="36.77464035339653491973876953125" lon="-118.4958360157907009124755859375">
        <ele>2144</ele>
        <time>2021-06-24T19:39:08.000Z</time>
        <extensions>
          <ns3:TrackPointExtension>
            <ns3:atemp>32.0</ns3:atemp>
            <ns3:hr>108</ns3:hr>
          </ns3:TrackPointExtension>
        </extensions>
      </trkpt>
      <trkpt lat="36.774638928472995758056640625" lon="-118.4958051703870296478271484375">
        <ele>2144.199951171875</ele>
        <time>2021-06-24T19:39:10.000Z</time>
        <extensions>
          <ns3:TrackPointExtension>
            <ns3:atemp>32.0</ns3:atemp>
            <ns3:hr>107</ns3:hr>
          </ns3:TrackPointExtension>
        </extensions>
      </trkpt>
      <trkpt lat="36.7746293731033802032470703125" lon="-118.4957994706928730010986328125">
        <ele>2144.199951171875</ele>
        <time>2021-06-24T19:39:11.000Z</time>
        <extensions>
          <ns3:TrackPointExtension>
            <ns3:atemp>32.0</ns3:atemp>
            <ns3:hr>105</ns3:hr>
          </ns3:TrackPointExtension>
        </extensions>
      </trkpt>
      <trkpt lat="36.7746203206479549407958984375" lon="-118.495799638330936431884765625">
        <ele>2144.199951171875</ele>
        <time>2021-06-24T19:39:12.000Z</time>
        <extensions>
          <ns3:TrackPointExtension>
            <ns3:atemp>32.0</ns3:atemp>
            <ns3:hr>105</ns3:hr>
          </ns3:TrackPointExtension>
        </extensions>
      </trkpt>
      <trkpt lat="36.7746159620583057403564453125" lon="-118.49578698165714740753173828125">
        <ele>2144.199951171875</ele>
        <time>2021-06-24T19:39:13.000Z</time>
        <extensions>
          <ns3:TrackPointExtension>
            <ns3:atemp>32.0</ns3:atemp>
            <ns3:hr>108</ns3:hr>
          </ns3:TrackPointExtension>
        </extensions>
      </trkpt>
      <trkpt lat="36.77460548467934131622314453125" lon="-118.4957850538194179534912109375">
        <ele>2144.39990234375</ele>
        <time>2021-06-24T19:39:14.000Z</time>
        <extensions>
          <ns3:TrackPointExtension>
            <ns3:atemp>32.0</ns3:atemp>
            <ns3:hr>107</ns3:hr>
          </ns3:TrackPointExtension>
        </extensions>
      </trkpt>
      <trkpt lat="36.7745888046920299530029296875" lon="-118.49578631110489368438720703125">
        <ele>2144.39990234375</ele>
        <time>2021-06-24T19:39:15.000Z</time>
        <extensions>
          <ns3:TrackPointExtension>
            <ns3:atemp>32.0</ns3:atemp>
            <ns3:hr>108</ns3:hr>
          </ns3:TrackPointExtension>
        </extensions>
      </trkpt>
      <trkpt lat="36.774579919874668121337890625" lon="-118.4957818686962127685546875">
        <ele>2144.39990234375</ele>
        <time>2021-06-24T19:39:16.000Z</time>
        <extensions>
          <ns3:TrackPointExtension>
            <ns3:atemp>32.0</ns3:atemp>
            <ns3:hr>108</ns3:hr>
          </ns3:TrackPointExtension>
        </extensions>
      </trkpt>
      <trkpt lat="36.77456458099186420440673828125" lon="-118.4957518614828586578369140625">
        <ele>2144.39990234375</ele>
        <time>2021-06-24T19:39:19.000Z</time>
        <extensions>
          <ns3:TrackPointExtension>
            <ns3:atemp>32.0</ns3:atemp>
            <ns3:hr>106</ns3:hr>
          </ns3:TrackPointExtension>
        </extensions>
      </trkpt>
      <trkpt lat="36.77456290461122989654541015625" lon="-118.49573249928653240203857421875">
        <ele>2144.60009765625</ele>
        <time>2021-06-24T19:39:20.000Z</time>
        <extensions>
          <ns3:TrackPointExtension>
            <ns3:atemp>32.0</ns3:atemp>
            <ns3:hr>106</ns3:hr>
          </ns3:TrackPointExtension>
        </extensions>
      </trkpt>
      <trkpt lat="36.7745344899594783782958984375" lon="-118.495713807642459869384765625">
        <ele>2144.800048828125</ele>
        <time>2021-06-24T19:39:23.000Z</time>
        <extensions>
          <ns3:TrackPointExtension>
            <ns3:atemp>32.0</ns3:atemp>
            <ns3:hr>104</ns3:hr>
          </ns3:TrackPointExtension>
        </extensions>
      </trkpt>
      <trkpt lat="36.77453356795012950897216796875" lon="-118.49570400081574916839599609375">
        <ele>2145</ele>
        <time>2021-06-24T19:39:24.000Z</time>
        <extensions>
          <ns3:TrackPointExtension>
            <ns3:atemp>32.0</ns3:atemp>
            <ns3:hr>104</ns3:hr>
          </ns3:TrackPointExtension>
        </extensions>
      </trkpt>
      <trkpt lat="36.77453155629336833953857421875" lon="-118.49567181430757045745849609375">
        <ele>2145</ele>
        <time>2021-06-24T19:39:26.000Z</time>
        <extensions>
          <ns3:TrackPointExtension>
            <ns3:atemp>32.0</ns3:atemp>
            <ns3:hr>101</ns3:hr>
          </ns3:TrackPointExtension>
        </extensions>
      </trkpt>
      <trkpt lat="36.7745271138846874237060546875" lon="-118.49566225893795490264892578125">
        <ele>2145.199951171875</ele>
        <time>2021-06-24T19:39:27.000Z</time>
        <extensions>
          <ns3:TrackPointExtension>
            <ns3:atemp>32.0</ns3:atemp>
            <ns3:hr>100</ns3:hr>
          </ns3:TrackPointExtension>
        </extensions>
      </trkpt>
      <trkpt lat="36.77451328374445438385009765625" lon="-118.49563308991491794586181640625">
        <ele>2145.60009765625</ele>
        <time>2021-06-24T19:39:30.000Z</time>
        <extensions>
          <ns3:TrackPointExtension>
            <ns3:atemp>32.0</ns3:atemp>
            <ns3:hr>98</ns3:hr>
          </ns3:TrackPointExtension>
        </extensions>
      </trkpt>
      <trkpt lat="36.77451898343861103057861328125" lon="-118.49559889174997806549072265625">
        <ele>2145.60009765625</ele>
        <time>2021-06-24T19:39:33.000Z</time>
        <extensions>
          <ns3:TrackPointExtension>
            <ns3:atemp>32.0</ns3:atemp>
            <ns3:hr>98</ns3:hr>
          </ns3:TrackPointExtension>
        </extensions>
      </trkpt>
      <trkpt lat="36.7745227552950382232666015625" lon="-118.49558732472360134124755859375">
        <ele>2145.800048828125</ele>
        <time>2021-06-24T19:39:34.000Z</time>
        <extensions>
          <ns3:TrackPointExtension>
            <ns3:atemp>32.0</ns3:atemp>
            <ns3:hr>97</ns3:hr>
          </ns3:TrackPointExtension>
        </extensions>
      </trkpt>
      <trkpt lat="36.77452929317951202392578125" lon="-118.4955657832324504852294921875">
        <ele>2146</ele>
        <time>2021-06-24T19:39:36.000Z</time>
        <extensions>
          <ns3:TrackPointExtension>
            <ns3:atemp>32.0</ns3:atemp>
            <ns3:hr>96</ns3:hr>
          </ns3:TrackPointExtension>
        </extensions>
      </trkpt>
      <trkpt lat="36.77453759126365184783935546875" lon="-118.4955315850675106048583984375">
        <ele>2146.39990234375</ele>
        <time>2021-06-24T19:39:38.000Z</time>
        <extensions>
          <ns3:TrackPointExtension>
            <ns3:atemp>32.0</ns3:atemp>
            <ns3:hr>98</ns3:hr>
          </ns3:TrackPointExtension>
        </extensions>
      </trkpt>
      <trkpt lat="36.774532981216907501220703125" lon="-118.49551054649055004119873046875">
        <ele>2146.39990234375</ele>
        <time>2021-06-24T19:39:40.000Z</time>
        <extensions>
          <ns3:TrackPointExtension>
            <ns3:atemp>32.0</ns3:atemp>
            <ns3:hr>98</ns3:hr>
          </ns3:TrackPointExtension>
        </extensions>
      </trkpt>
      <trkpt lat="36.77449668757617473602294921875" lon="-118.49540325812995433807373046875">
        <ele>2147</ele>
        <time>2021-06-24T19:39:48.000Z</time>
        <extensions>
          <ns3:TrackPointExtension>
            <ns3:atemp>32.0</ns3:atemp>
            <ns3:hr>98</ns3:hr>
          </ns3:TrackPointExtension>
        </extensions>
      </trkpt>
      <trkpt lat="36.7744905687868595123291015625" lon="-118.49537040106952190399169921875">
        <ele>2147.39990234375</ele>
        <time>2021-06-24T19:39:51.000Z</time>
        <extensions>
          <ns3:TrackPointExtension>
            <ns3:atemp>32.0</ns3:atemp>
            <ns3:hr>96</ns3:hr>
          </ns3:TrackPointExtension>
        </extensions>
      </trkpt>
      <trkpt lat="36.77447774447500705718994140625" lon="-118.49533637054264545440673828125">
        <ele>2147.800048828125</ele>
        <time>2021-06-24T19:39:54.000Z</time>
        <extensions>
          <ns3:TrackPointExtension>
            <ns3:atemp>32.0</ns3:atemp>
            <ns3:hr>99</ns3:hr>
          </ns3:TrackPointExtension>
        </extensions>
      </trkpt>
      <trkpt lat="36.7744734697043895721435546875" lon="-118.49532731808722019195556640625">
        <ele>2147.800048828125</ele>
        <time>2021-06-24T19:39:55.000Z</time>
        <extensions>
          <ns3:TrackPointExtension>
            <ns3:atemp>32.0</ns3:atemp>
            <ns3:hr>100</ns3:hr>
          </ns3:TrackPointExtension>
        </extensions>
      </trkpt>
      <trkpt lat="36.77446969784796237945556640625" lon="-118.495303094387054443359375">
        <ele>2147.800048828125</ele>
        <time>2021-06-24T19:39:57.000Z</time>
        <extensions>
          <ns3:TrackPointExtension>
            <ns3:atemp>32.0</ns3:atemp>
            <ns3:hr>101</ns3:hr>
          </ns3:TrackPointExtension>
        </extensions>
      </trkpt>
      <trkpt lat="36.77444706670939922332763671875" lon="-118.49526227451860904693603515625">
        <ele>2148.60009765625</ele>
        <time>2021-06-24T19:40:01.000Z</time>
        <extensions>
          <ns3:TrackPointExtension>
            <ns3:atemp>32.0</ns3:atemp>
            <ns3:hr>103</ns3:hr>
          </ns3:TrackPointExtension>
        </extensions>
      </trkpt>
      <trkpt lat="36.77443943917751312255859375" lon="-118.49525271914899349212646484375">
        <ele>2148.60009765625</ele>
        <time>2021-06-24T19:40:02.000Z</time>
        <extensions>
          <ns3:TrackPointExtension>
            <ns3:atemp>32.0</ns3:atemp>
            <ns3:hr>105</ns3:hr>
          </ns3:TrackPointExtension>
        </extensions>
      </trkpt>
      <trkpt lat="36.77443197928369045257568359375" lon="-118.4952177666127681732177734375">
        <ele>2148.60009765625</ele>
        <time>2021-06-24T19:40:04.000Z</time>
        <extensions>
          <ns3:TrackPointExtension>
            <ns3:atemp>32.0</ns3:atemp>
            <ns3:hr>109</ns3:hr>
          </ns3:TrackPointExtension>
        </extensions>
      </trkpt>
      <trkpt lat="36.77443273365497589111328125" lon="-118.4952023439109325408935546875">
        <ele>2148.60009765625</ele>
        <time>2021-06-24T19:40:05.000Z</time>
        <extensions>
          <ns3:TrackPointExtension>
            <ns3:atemp>32.0</ns3:atemp>
            <ns3:hr>111</ns3:hr>
          </ns3:TrackPointExtension>
        </extensions>
      </trkpt>
      <trkpt lat="36.77442602813243865966796875" lon="-118.49513319320976734161376953125">
        <ele>2148.800048828125</ele>
        <time>2021-06-24T19:40:09.000Z</time>
        <extensions>
          <ns3:TrackPointExtension>
            <ns3:atemp>32.0</ns3:atemp>
            <ns3:hr>109</ns3:hr>
          </ns3:TrackPointExtension>
        </extensions>
      </trkpt>
      <trkpt lat="36.77441664040088653564453125" lon="-118.49508692510426044464111328125">
        <ele>2149</ele>
        <time>2021-06-24T19:40:12.000Z</time>
        <extensions>
          <ns3:TrackPointExtension>
            <ns3:atemp>32.0</ns3:atemp>
            <ns3:hr>106</ns3:hr>
          </ns3:TrackPointExtension>
        </extensions>
      </trkpt>
      <trkpt lat="36.77439660765230655670166015625" lon="-118.495019786059856414794921875">
        <ele>2149.39990234375</ele>
        <time>2021-06-24T19:40:17.000Z</time>
        <extensions>
          <ns3:TrackPointExtension>
            <ns3:atemp>32.0</ns3:atemp>
            <ns3:hr>103</ns3:hr>
          </ns3:TrackPointExtension>
        </extensions>
      </trkpt>
      <trkpt lat="36.7743926681578159332275390625" lon="-118.49500997923314571380615234375">
        <ele>2149.39990234375</ele>
        <time>2021-06-24T19:40:18.000Z</time>
        <extensions>
          <ns3:TrackPointExtension>
            <ns3:atemp>32.0</ns3:atemp>
            <ns3:hr>103</ns3:hr>
          </ns3:TrackPointExtension>
        </extensions>
      </trkpt>
      <trkpt lat="36.77438554354012012481689453125" lon="-118.4949891082942485809326171875">
        <ele>2150</ele>
        <time>2021-06-24T19:40:20.000Z</time>
        <extensions>
          <ns3:TrackPointExtension>
            <ns3:atemp>32.0</ns3:atemp>
            <ns3:hr>104</ns3:hr>
          </ns3:TrackPointExtension>
        </extensions>
      </trkpt>
      <trkpt lat="36.77437900565564632415771484375" lon="-118.49497511051595211029052734375">
        <ele>2150</ele>
        <time>2021-06-24T19:40:21.000Z</time>
        <extensions>
          <ns3:TrackPointExtension>
            <ns3:atemp>32.0</ns3:atemp>
            <ns3:hr>105</ns3:hr>
          </ns3:TrackPointExtension>
        </extensions>
      </trkpt>
      <trkpt lat="36.77437095902860164642333984375" lon="-118.49496237002313137054443359375">
        <ele>2150</ele>
        <time>2021-06-24T19:40:22.000Z</time>
        <extensions>
          <ns3:TrackPointExtension>
            <ns3:atemp>32.0</ns3:atemp>
            <ns3:hr>109</ns3:hr>
          </ns3:TrackPointExtension>
        </extensions>
      </trkpt>
      <trkpt lat="36.77436274476349353790283203125" lon="-118.49494946189224720001220703125">
        <ele>2150.199951171875</ele>
        <time>2021-06-24T19:40:23.000Z</time>
        <extensions>
          <ns3:TrackPointExtension>
            <ns3:atemp>32.0</ns3:atemp>
            <ns3:hr>106</ns3:hr>
          </ns3:TrackPointExtension>
        </extensions>
      </trkpt>
      <trkpt lat="36.77434631623327732086181640625" lon="-118.4949180297553539276123046875">
        <ele>2150.199951171875</ele>
        <time>2021-06-24T19:40:26.000Z</time>
        <extensions>
          <ns3:TrackPointExtension>
            <ns3:atemp>32.0</ns3:atemp>
            <ns3:hr>107</ns3:hr>
          </ns3:TrackPointExtension>
        </extensions>
      </trkpt>
      <trkpt lat="36.77433676086366176605224609375" lon="-118.4948429279029369354248046875">
        <ele>2150.39990234375</ele>
        <time>2021-06-24T19:40:32.000Z</time>
        <extensions>
          <ns3:TrackPointExtension>
            <ns3:atemp>32.0</ns3:atemp>
            <ns3:hr>108</ns3:hr>
          </ns3:TrackPointExtension>
        </extensions>
      </trkpt>
      <trkpt lat="36.77432368509471416473388671875" lon="-118.49475684575736522674560546875">
        <ele>2150.39990234375</ele>
        <time>2021-06-24T19:40:39.000Z</time>
        <extensions>
          <ns3:TrackPointExtension>
            <ns3:atemp>32.0</ns3:atemp>
            <ns3:hr>109</ns3:hr>
          </ns3:TrackPointExtension>
        </extensions>
      </trkpt>
      <trkpt lat="36.77430474199354648590087890625" lon="-118.49466942250728607177734375">
        <ele>2150.199951171875</ele>
        <time>2021-06-24T19:40:45.000Z</time>
        <extensions>
          <ns3:TrackPointExtension>
            <ns3:atemp>32.0</ns3:atemp>
            <ns3:hr>105</ns3:hr>
          </ns3:TrackPointExtension>
        </extensions>
      </trkpt>
      <trkpt lat="36.77429250441491603851318359375" lon="-118.49464637227356433868408203125">
        <ele>2150</ele>
        <time>2021-06-24T19:40:47.000Z</time>
        <extensions>
          <ns3:TrackPointExtension>
            <ns3:atemp>32.0</ns3:atemp>
            <ns3:hr>102</ns3:hr>
          </ns3:TrackPointExtension>
        </extensions>
      </trkpt>
      <trkpt lat="36.7742672748863697052001953125" lon="-118.4945914708077907562255859375">
        <ele>2149.800048828125</ele>
        <time>2021-06-24T19:40:50.000Z</time>
        <extensions>
          <ns3:TrackPointExtension>
            <ns3:atemp>32.0</ns3:atemp>
            <ns3:hr>102</ns3:hr>
          </ns3:TrackPointExtension>
        </extensions>
      </trkpt>
      <trkpt lat="36.7742501758038997650146484375" lon="-118.4945539198815822601318359375">
        <ele>2150.199951171875</ele>
        <time>2021-06-24T19:40:53.000Z</time>
        <extensions>
          <ns3:TrackPointExtension>
            <ns3:atemp>32.0</ns3:atemp>
            <ns3:hr>105</ns3:hr>
          </ns3:TrackPointExtension>
        </extensions>
      </trkpt>
      <trkpt lat="36.774245314300060272216796875" lon="-118.4945401735603809356689453125">
        <ele>2150.199951171875</ele>
        <time>2021-06-24T19:40:54.000Z</time>
        <extensions>
          <ns3:TrackPointExtension>
            <ns3:atemp>32.0</ns3:atemp>
            <ns3:hr>106</ns3:hr>
          </ns3:TrackPointExtension>
        </extensions>
      </trkpt>
      <trkpt lat="36.7742263711988925933837890625" lon="-118.49449776113033294677734375">
        <ele>2150.199951171875</ele>
        <time>2021-06-24T19:40:57.000Z</time>
        <extensions>
          <ns3:TrackPointExtension>
            <ns3:atemp>32.0</ns3:atemp>
            <ns3:hr>103</ns3:hr>
          </ns3:TrackPointExtension>
        </extensions>
      </trkpt>
      <trkpt lat="36.774219162762165069580078125" lon="-118.49444604478776454925537109375">
        <ele>2151</ele>
        <time>2021-06-24T19:41:02.000Z</time>
        <extensions>
          <ns3:TrackPointExtension>
            <ns3:atemp>32.0</ns3:atemp>
            <ns3:hr>101</ns3:hr>
          </ns3:TrackPointExtension>
        </extensions>
      </trkpt>
      <trkpt lat="36.77420667372643947601318359375" lon="-118.49441402591764926910400390625">
        <ele>2151.39990234375</ele>
        <time>2021-06-24T19:41:04.000Z</time>
        <extensions>
          <ns3:TrackPointExtension>
            <ns3:atemp>32.0</ns3:atemp>
            <ns3:hr>102</ns3:hr>
          </ns3:TrackPointExtension>
        </extensions>
      </trkpt>
      <trkpt lat="36.774189658463001251220703125" lon="-118.494382761418819427490234375">
        <ele>2152.199951171875</ele>
        <time>2021-06-24T19:41:08.000Z</time>
        <extensions>
          <ns3:TrackPointExtension>
            <ns3:atemp>32.0</ns3:atemp>
            <ns3:hr>102</ns3:hr>
          </ns3:TrackPointExtension>
        </extensions>
      </trkpt>
      <trkpt lat="36.774184294044971466064453125" lon="-118.4943765588104724884033203125">
        <ele>2152.199951171875</ele>
        <time>2021-06-24T19:41:09.000Z</time>
        <extensions>
          <ns3:TrackPointExtension>
            <ns3:atemp>32.0</ns3:atemp>
            <ns3:hr>102</ns3:hr>
          </ns3:TrackPointExtension>
        </extensions>
      </trkpt>
      <trkpt lat="36.77417716942727565765380859375" lon="-118.49436390213668346405029296875">
        <ele>2152.60009765625</ele>
        <time>2021-06-24T19:41:12.000Z</time>
        <extensions>
          <ns3:TrackPointExtension>
            <ns3:atemp>32.0</ns3:atemp>
            <ns3:hr>104</ns3:hr>
          </ns3:TrackPointExtension>
        </extensions>
      </trkpt>
      <trkpt lat="36.7741839587688446044921875" lon="-118.4943483956158161163330078125">
        <ele>2153</ele>
        <time>2021-06-24T19:41:15.000Z</time>
        <extensions>
          <ns3:TrackPointExtension>
            <ns3:atemp>32.0</ns3:atemp>
            <ns3:hr>107</ns3:hr>
          </ns3:TrackPointExtension>
        </extensions>
      </trkpt>
      <trkpt lat="36.77418370731174945831298828125" lon="-118.4943403489887714385986328125">
        <ele>2153</ele>
        <time>2021-06-24T19:41:16.000Z</time>
        <extensions>
          <ns3:TrackPointExtension>
            <ns3:atemp>32.0</ns3:atemp>
            <ns3:hr>107</ns3:hr>
          </ns3:TrackPointExtension>
        </extensions>
      </trkpt>
      <trkpt lat="36.7741821147501468658447265625" lon="-118.4943309612572193145751953125">
        <ele>2153.199951171875</ele>
        <time>2021-06-24T19:41:17.000Z</time>
        <extensions>
          <ns3:TrackPointExtension>
            <ns3:atemp>32.0</ns3:atemp>
            <ns3:hr>109</ns3:hr>
          </ns3:TrackPointExtension>
        </extensions>
      </trkpt>
      <trkpt lat="36.7741717211902141571044921875" lon="-118.49429952912032604217529296875">
        <ele>2154.199951171875</ele>
        <time>2021-06-24T19:41:20.000Z</time>
        <extensions>
          <ns3:TrackPointExtension>
            <ns3:atemp>32.0</ns3:atemp>
            <ns3:hr>112</ns3:hr>
          </ns3:TrackPointExtension>
        </extensions>
      </trkpt>
      <trkpt lat="36.7741559632122516632080078125" lon="-118.4942843578755855560302734375">
        <ele>2154.199951171875</ele>
        <time>2021-06-24T19:41:22.000Z</time>
        <extensions>
          <ns3:TrackPointExtension>
            <ns3:atemp>32.0</ns3:atemp>
            <ns3:hr>113</ns3:hr>
          </ns3:TrackPointExtension>
        </extensions>
      </trkpt>
      <trkpt lat="36.77414682693779468536376953125" lon="-118.49428444169461727142333984375">
        <ele>2154.199951171875</ele>
        <time>2021-06-24T19:41:23.000Z</time>
        <extensions>
          <ns3:TrackPointExtension>
            <ns3:atemp>32.0</ns3:atemp>
            <ns3:hr>113</ns3:hr>
          </ns3:TrackPointExtension>
        </extensions>
      </trkpt>
      <trkpt lat="36.7741375230252742767333984375" lon="-118.49428125657141208648681640625">
        <ele>2154.39990234375</ele>
        <time>2021-06-24T19:41:24.000Z</time>
        <extensions>
          <ns3:TrackPointExtension>
            <ns3:atemp>32.0</ns3:atemp>
            <ns3:hr>113</ns3:hr>
          </ns3:TrackPointExtension>
        </extensions>
      </trkpt>
      <trkpt lat="36.77412654273211956024169921875" lon="-118.494268096983432769775390625">
        <ele>2155.199951171875</ele>
        <time>2021-06-24T19:41:26.000Z</time>
        <extensions>
          <ns3:TrackPointExtension>
            <ns3:atemp>32.0</ns3:atemp>
            <ns3:hr>113</ns3:hr>
          </ns3:TrackPointExtension>
        </extensions>
      </trkpt>
      <trkpt lat="36.77411648444831371307373046875" lon="-118.494249992072582244873046875">
        <ele>2155.39990234375</ele>
        <time>2021-06-24T19:41:28.000Z</time>
        <extensions>
          <ns3:TrackPointExtension>
            <ns3:atemp>32.0</ns3:atemp>
            <ns3:hr>114</ns3:hr>
          </ns3:TrackPointExtension>
        </extensions>
      </trkpt>
      <trkpt lat="36.77411044947803020477294921875" lon="-118.4942300431430339813232421875">
        <ele>2155.60009765625</ele>
        <time>2021-06-24T19:41:30.000Z</time>
        <extensions>
          <ns3:TrackPointExtension>
            <ns3:atemp>32.0</ns3:atemp>
            <ns3:hr>115</ns3:hr>
          </ns3:TrackPointExtension>
        </extensions>
      </trkpt>
      <trkpt lat="36.77409100346267223358154296875" lon="-118.49418620578944683074951171875">
        <ele>2155.60009765625</ele>
        <time>2021-06-24T19:41:34.000Z</time>
        <extensions>
          <ns3:TrackPointExtension>
            <ns3:atemp>32.0</ns3:atemp>
            <ns3:hr>118</ns3:hr>
          </ns3:TrackPointExtension>
        </extensions>
      </trkpt>
      <trkpt lat="36.77407323382794857025146484375" lon="-118.49414010532200336456298828125">
        <ele>2155.800048828125</ele>
        <time>2021-06-24T19:41:38.000Z</time>
        <extensions>
          <ns3:TrackPointExtension>
            <ns3:atemp>32.0</ns3:atemp>
            <ns3:hr>120</ns3:hr>
          </ns3:TrackPointExtension>
        </extensions>
      </trkpt>
      <trkpt lat="36.7740691266953945159912109375" lon="-118.4941113553941249847412109375">
        <ele>2156.39990234375</ele>
        <time>2021-06-24T19:41:43.000Z</time>
        <extensions>
          <ns3:TrackPointExtension>
            <ns3:atemp>32.0</ns3:atemp>
            <ns3:hr>122</ns3:hr>
          </ns3:TrackPointExtension>
        </extensions>
      </trkpt>
      <trkpt lat="36.77407323382794857025146484375" lon="-118.49410607479512691497802734375">
        <ele>2156.39990234375</ele>
        <time>2021-06-24T19:41:44.000Z</time>
        <extensions>
          <ns3:TrackPointExtension>
            <ns3:atemp>32.0</ns3:atemp>
            <ns3:hr>120</ns3:hr>
          </ns3:TrackPointExtension>
        </extensions>
      </trkpt>
      <trkpt lat="36.77407734096050262451171875" lon="-118.49409366957843303680419921875">
        <ele>2156.60009765625</ele>
        <time>2021-06-24T19:41:45.000Z</time>
        <extensions>
          <ns3:TrackPointExtension>
            <ns3:atemp>32.0</ns3:atemp>
            <ns3:hr>120</ns3:hr>
          </ns3:TrackPointExtension>
        </extensions>
      </trkpt>
      <trkpt lat="36.77407625131309032440185546875" lon="-118.49405125714838504791259765625">
        <ele>2157.39990234375</ele>
        <time>2021-06-24T19:41:50.000Z</time>
        <extensions>
          <ns3:TrackPointExtension>
            <ns3:atemp>32.0</ns3:atemp>
            <ns3:hr>117</ns3:hr>
          </ns3:TrackPointExtension>
        </extensions>
      </trkpt>
      <trkpt lat="36.77407373674213886260986328125" lon="-118.49404555745422840118408203125">
        <ele>2157.60009765625</ele>
        <time>2021-06-24T19:41:51.000Z</time>
        <extensions>
          <ns3:TrackPointExtension>
            <ns3:atemp>32.0</ns3:atemp>
            <ns3:hr>117</ns3:hr>
          </ns3:TrackPointExtension>
        </extensions>
      </trkpt>
      <trkpt lat="36.7740510217845439910888671875" lon="-118.49403684027493000030517578125">
        <ele>2157.60009765625</ele>
        <time>2021-06-24T19:41:54.000Z</time>
        <extensions>
          <ns3:TrackPointExtension>
            <ns3:atemp>32.0</ns3:atemp>
            <ns3:hr>116</ns3:hr>
          </ns3:TrackPointExtension>
        </extensions>
      </trkpt>
      <trkpt lat="36.7740486748516559600830078125" lon="-118.49403901956975460052490234375">
        <ele>2157.800048828125</ele>
        <time>2021-06-24T19:41:57.000Z</time>
        <extensions>
          <ns3:TrackPointExtension>
            <ns3:atemp>32.0</ns3:atemp>
            <ns3:hr>116</ns3:hr>
          </ns3:TrackPointExtension>
        </extensions>
      </trkpt>
      <trkpt lat="36.77404507063329219818115234375" lon="-118.4939661808311939239501953125">
        <ele>2158.800048828125</ele>
        <time>2021-06-24T19:42:03.000Z</time>
        <extensions>
          <ns3:TrackPointExtension>
            <ns3:atemp>32.0</ns3:atemp>
            <ns3:hr>114</ns3:hr>
          </ns3:TrackPointExtension>
        </extensions>
      </trkpt>
      <trkpt lat="36.7740480042994022369384765625" lon="-118.4939534403383731842041015625">
        <ele>2159</ele>
        <time>2021-06-24T19:42:04.000Z</time>
        <extensions>
          <ns3:TrackPointExtension>
            <ns3:atemp>32.0</ns3:atemp>
            <ns3:hr>114</ns3:hr>
          </ns3:TrackPointExtension>
        </extensions>
      </trkpt>
      <trkpt lat="36.77403752692043781280517578125" lon="-118.4938989579677581787109375">
        <ele>2159.60009765625</ele>
        <time>2021-06-24T19:42:09.000Z</time>
        <extensions>
          <ns3:TrackPointExtension>
            <ns3:atemp>32.0</ns3:atemp>
            <ns3:hr>110</ns3:hr>
          </ns3:TrackPointExtension>
        </extensions>
      </trkpt>
      <trkpt lat="36.774036772549152374267578125" lon="-118.4938562102615833282470703125">
        <ele>2159.800048828125</ele>
        <time>2021-06-24T19:42:12.000Z</time>
        <extensions>
          <ns3:TrackPointExtension>
            <ns3:atemp>32.0</ns3:atemp>
            <ns3:hr>112</ns3:hr>
          </ns3:TrackPointExtension>
        </extensions>
      </trkpt>
      <trkpt lat="36.7740339227020740509033203125" lon="-118.493846319615840911865234375">
        <ele>2160</ele>
        <time>2021-06-24T19:42:13.000Z</time>
        <extensions>
          <ns3:TrackPointExtension>
            <ns3:atemp>32.0</ns3:atemp>
            <ns3:hr>111</ns3:hr>
          </ns3:TrackPointExtension>
        </extensions>
      </trkpt>
      <trkpt lat="36.77402160130441188812255859375" lon="-118.49376945756375789642333984375">
        <ele>2160.39990234375</ele>
        <time>2021-06-24T19:42:20.000Z</time>
        <extensions>
          <ns3:TrackPointExtension>
            <ns3:atemp>32.0</ns3:atemp>
            <ns3:hr>114</ns3:hr>
          </ns3:TrackPointExtension>
        </extensions>
      </trkpt>
      <trkpt lat="36.774013973772525787353515625" lon="-118.49374674260616302490234375">
        <ele>2160.60009765625</ele>
        <time>2021-06-24T19:42:22.000Z</time>
        <extensions>
          <ns3:TrackPointExtension>
            <ns3:atemp>32.0</ns3:atemp>
            <ns3:hr>118</ns3:hr>
          </ns3:TrackPointExtension>
        </extensions>
      </trkpt>
      <trkpt lat="36.7740091122686862945556640625" lon="-118.4937147237360477447509765625">
        <ele>2160.800048828125</ele>
        <time>2021-06-24T19:42:25.000Z</time>
        <extensions>
          <ns3:TrackPointExtension>
            <ns3:atemp>32.0</ns3:atemp>
            <ns3:hr>122</ns3:hr>
          </ns3:TrackPointExtension>
        </extensions>
      </trkpt>
      <trkpt lat="36.7740054242312908172607421875" lon="-118.493704833090305328369140625">
        <ele>2161</ele>
        <time>2021-06-24T19:42:26.000Z</time>
        <extensions>
          <ns3:TrackPointExtension>
            <ns3:atemp>32.0</ns3:atemp>
            <ns3:hr>116</ns3:hr>
          </ns3:TrackPointExtension>
        </extensions>
      </trkpt>
      <trkpt lat="36.77398807369172573089599609375" lon="-118.49368966184556484222412109375">
        <ele>2161</ele>
        <time>2021-06-24T19:42:28.000Z</time>
        <extensions>
          <ns3:TrackPointExtension>
            <ns3:atemp>32.0</ns3:atemp>
            <ns3:hr>111</ns3:hr>
          </ns3:TrackPointExtension>
        </extensions>
      </trkpt>
      <trkpt lat="36.7739802785217761993408203125" lon="-118.4936852194368839263916015625">
        <ele>2161</ele>
        <time>2021-06-24T19:42:29.000Z</time>
        <extensions>
          <ns3:TrackPointExtension>
            <ns3:atemp>32.0</ns3:atemp>
            <ns3:hr>111</ns3:hr>
          </ns3:TrackPointExtension>
        </extensions>
      </trkpt>
      <trkpt lat="36.77396795712411403656005859375" lon="-118.4936721436679363250732421875">
        <ele>2161.60009765625</ele>
        <time>2021-06-24T19:42:31.000Z</time>
        <extensions>
          <ns3:TrackPointExtension>
            <ns3:atemp>32.0</ns3:atemp>
            <ns3:hr>116</ns3:hr>
          </ns3:TrackPointExtension>
        </extensions>
      </trkpt>
      <trkpt lat="36.77395823411643505096435546875" lon="-118.4936520271003246307373046875">
        <ele>2161.60009765625</ele>
        <time>2021-06-24T19:42:33.000Z</time>
        <extensions>
          <ns3:TrackPointExtension>
            <ns3:atemp>32.0</ns3:atemp>
            <ns3:hr>119</ns3:hr>
          </ns3:TrackPointExtension>
        </extensions>
      </trkpt>
      <trkpt lat="36.773951947689056396484375" lon="-118.493644483387470245361328125">
        <ele>2162</ele>
        <time>2021-06-24T19:42:35.000Z</time>
        <extensions>
          <ns3:TrackPointExtension>
            <ns3:atemp>32.0</ns3:atemp>
            <ns3:hr>119</ns3:hr>
          </ns3:TrackPointExtension>
        </extensions>
      </trkpt>
      <trkpt lat="36.7739480920135974884033203125" lon="-118.49362662993371486663818359375">
        <ele>2162</ele>
        <time>2021-06-24T19:42:37.000Z</time>
        <extensions>
          <ns3:TrackPointExtension>
            <ns3:atemp>32.0</ns3:atemp>
            <ns3:hr>118</ns3:hr>
          </ns3:TrackPointExtension>
        </extensions>
      </trkpt>
      <trkpt lat="36.77394113503396511077880859375" lon="-118.493592180311679840087890625">
        <ele>2162.39990234375</ele>
        <time>2021-06-24T19:42:40.000Z</time>
        <extensions>
          <ns3:TrackPointExtension>
            <ns3:atemp>32.0</ns3:atemp>
            <ns3:hr>115</ns3:hr>
          </ns3:TrackPointExtension>
        </extensions>
      </trkpt>
      <trkpt lat="36.77393426187336444854736328125" lon="-118.49352017976343631744384765625">
        <ele>2162.800048828125</ele>
        <time>2021-06-24T19:42:46.000Z</time>
        <extensions>
          <ns3:TrackPointExtension>
            <ns3:atemp>32.0</ns3:atemp>
            <ns3:hr>116</ns3:hr>
          </ns3:TrackPointExtension>
        </extensions>
      </trkpt>
      <trkpt lat="36.7739095352590084075927734375" lon="-118.49346703849732875823974609375">
        <ele>2163</ele>
        <time>2021-06-24T19:42:51.000Z</time>
        <extensions>
          <ns3:TrackPointExtension>
            <ns3:atemp>33.0</ns3:atemp>
            <ns3:hr>118</ns3:hr>
          </ns3:TrackPointExtension>
        </extensions>
      </trkpt>
      <trkpt lat="36.77390702068805694580078125" lon="-118.49345781840384006500244140625">
        <ele>2163.199951171875</ele>
        <time>2021-06-24T19:42:52.000Z</time>
        <extensions>
          <ns3:TrackPointExtension>
            <ns3:atemp>33.0</ns3:atemp>
            <ns3:hr>117</ns3:hr>
          </ns3:TrackPointExtension>
        </extensions>
      </trkpt>
      <trkpt lat="36.77388933487236499786376953125" lon="-118.49341054446995258331298828125">
        <ele>2163.60009765625</ele>
        <time>2021-06-24T19:42:56.000Z</time>
        <extensions>
          <ns3:TrackPointExtension>
            <ns3:atemp>33.0</ns3:atemp>
            <ns3:hr>118</ns3:hr>
          </ns3:TrackPointExtension>
        </extensions>
      </trkpt>
      <trkpt lat="36.77388614974915981292724609375" lon="-118.49328045733273029327392578125">
        <ele>2163.60009765625</ele>
        <time>2021-06-24T19:43:06.000Z</time>
        <extensions>
          <ns3:TrackPointExtension>
            <ns3:atemp>33.0</ns3:atemp>
            <ns3:hr>118</ns3:hr>
          </ns3:TrackPointExtension>
        </extensions>
      </trkpt>
      <trkpt lat="36.7738823778927326202392578125" lon="-118.49326620809733867645263671875">
        <ele>2163.60009765625</ele>
        <time>2021-06-24T19:43:07.000Z</time>
        <extensions>
          <ns3:TrackPointExtension>
            <ns3:atemp>33.0</ns3:atemp>
            <ns3:hr>118</ns3:hr>
          </ns3:TrackPointExtension>
        </extensions>
      </trkpt>
      <trkpt lat="36.7738800309598445892333984375" lon="-118.4932557307183742523193359375">
        <ele>2164</ele>
        <time>2021-06-24T19:43:08.000Z</time>
        <extensions>
          <ns3:TrackPointExtension>
            <ns3:atemp>33.0</ns3:atemp>
            <ns3:hr>118</ns3:hr>
          </ns3:TrackPointExtension>
        </extensions>
      </trkpt>
      <trkpt lat="36.7738572321832180023193359375" lon="-118.49321139045059680938720703125">
        <ele>2164.39990234375</ele>
        <time>2021-06-24T19:43:13.000Z</time>
        <extensions>
          <ns3:TrackPointExtension>
            <ns3:atemp>33.0</ns3:atemp>
            <ns3:hr>119</ns3:hr>
          </ns3:TrackPointExtension>
        </extensions>
      </trkpt>
      <trkpt lat="36.77385781891644001007080078125" lon="-118.49320367909967899322509765625">
        <ele>2164.39990234375</ele>
        <time>2021-06-24T19:43:14.000Z</time>
        <extensions>
          <ns3:TrackPointExtension>
            <ns3:atemp>33.0</ns3:atemp>
            <ns3:hr>121</ns3:hr>
          </ns3:TrackPointExtension>
        </extensions>
      </trkpt>
      <trkpt lat="36.77386184222996234893798828125" lon="-118.4931806288659572601318359375">
        <ele>2164.39990234375</ele>
        <time>2021-06-24T19:43:16.000Z</time>
        <extensions>
          <ns3:TrackPointExtension>
            <ns3:atemp>33.0</ns3:atemp>
            <ns3:hr>122</ns3:hr>
          </ns3:TrackPointExtension>
        </extensions>
      </trkpt>
      <trkpt lat="36.7738431505858898162841796875" lon="-118.4931172616779804229736328125">
        <ele>2165</ele>
        <time>2021-06-24T19:43:22.000Z</time>
        <extensions>
          <ns3:TrackPointExtension>
            <ns3:atemp>33.0</ns3:atemp>
            <ns3:hr>121</ns3:hr>
          </ns3:TrackPointExtension>
        </extensions>
      </trkpt>
      <trkpt lat="36.7738304100930690765380859375" lon="-118.49309018813073635101318359375">
        <ele>2165</ele>
        <time>2021-06-24T19:43:25.000Z</time>
        <extensions>
          <ns3:TrackPointExtension>
            <ns3:atemp>33.0</ns3:atemp>
            <ns3:hr>122</ns3:hr>
          </ns3:TrackPointExtension>
        </extensions>
      </trkpt>
      <trkpt lat="36.7738253809511661529541015625" lon="-118.49307929165661334991455078125">
        <ele>2165.199951171875</ele>
        <time>2021-06-24T19:43:26.000Z</time>
        <extensions>
          <ns3:TrackPointExtension>
            <ns3:atemp>33.0</ns3:atemp>
            <ns3:hr>122</ns3:hr>
          </ns3:TrackPointExtension>
        </extensions>
      </trkpt>
      <trkpt lat="36.773818172514438629150390625" lon="-118.4930594265460968017578125">
        <ele>2165.199951171875</ele>
        <time>2021-06-24T19:43:28.000Z</time>
        <extensions>
          <ns3:TrackPointExtension>
            <ns3:atemp>33.0</ns3:atemp>
            <ns3:hr>125</ns3:hr>
          </ns3:TrackPointExtension>
        </extensions>
      </trkpt>
      <trkpt lat="36.77381708286702632904052734375" lon="-118.49305498413741588592529296875">
        <ele>2165.199951171875</ele>
        <time>2021-06-24T19:43:29.000Z</time>
        <extensions>
          <ns3:TrackPointExtension>
            <ns3:atemp>33.0</ns3:atemp>
            <ns3:hr>125</ns3:hr>
          </ns3:TrackPointExtension>
        </extensions>
      </trkpt>
      <trkpt lat="36.7738044261932373046875" lon="-118.49305339157581329345703125">
        <ele>2165</ele>
        <time>2021-06-24T19:43:31.000Z</time>
        <extensions>
          <ns3:TrackPointExtension>
            <ns3:atemp>33.0</ns3:atemp>
            <ns3:hr>122</ns3:hr>
          </ns3:TrackPointExtension>
        </extensions>
      </trkpt>
      <trkpt lat="36.77379210479557514190673828125" lon="-118.493050038814544677734375">
        <ele>2165</ele>
        <time>2021-06-24T19:43:37.000Z</time>
        <extensions>
          <ns3:TrackPointExtension>
            <ns3:atemp>32.0</ns3:atemp>
            <ns3:hr>119</ns3:hr>
          </ns3:TrackPointExtension>
        </extensions>
      </trkpt>
      <trkpt lat="36.77378841675817966461181640625" lon="-118.49305649287998676300048828125">
        <ele>2165</ele>
        <time>2021-06-24T19:43:38.000Z</time>
        <extensions>
          <ns3:TrackPointExtension>
            <ns3:atemp>32.0</ns3:atemp>
            <ns3:hr>119</ns3:hr>
          </ns3:TrackPointExtension>
        </extensions>
      </trkpt>
      <trkpt lat="36.773769222199916839599609375" lon="-118.49310443736612796783447265625">
        <ele>2165.199951171875</ele>
        <time>2021-06-24T19:43:44.000Z</time>
        <extensions>
          <ns3:TrackPointExtension>
            <ns3:atemp>32.0</ns3:atemp>
            <ns3:hr>116</ns3:hr>
          </ns3:TrackPointExtension>
        </extensions>
      </trkpt>
      <trkpt lat="36.773769222199916839599609375" lon="-118.49310443736612796783447265625">
        <ele>2165.199951171875</ele>
        <time>2021-06-24T19:43:49.000Z</time>
        <extensions>
          <ns3:TrackPointExtension>
            <ns3:atemp>32.0</ns3:atemp>
            <ns3:hr>113</ns3:hr>
          </ns3:TrackPointExtension>
        </extensions>
      </trkpt>
      <trkpt lat="36.773769222199916839599609375" lon="-118.49310443736612796783447265625">
        <ele>2165.39990234375</ele>
        <time>2021-06-24T19:43:52.000Z</time>
        <extensions>
          <ns3:TrackPointExtension>
            <ns3:atemp>32.0</ns3:atemp>
            <ns3:hr>109</ns3:hr>
          </ns3:TrackPointExtension>
        </extensions>
      </trkpt>
      <trkpt lat="36.773769222199916839599609375" lon="-118.49310443736612796783447265625">
        <ele>2165.39990234375</ele>
        <time>2021-06-24T19:43:54.000Z</time>
        <extensions>
          <ns3:TrackPointExtension>
            <ns3:atemp>32.0</ns3:atemp>
            <ns3:hr>106</ns3:hr>
          </ns3:TrackPointExtension>
        </extensions>
      </trkpt>
      <trkpt lat="36.773769222199916839599609375" lon="-118.49310443736612796783447265625">
        <ele>2165.199951171875</ele>
        <time>2021-06-24T19:43:58.000Z</time>
        <extensions>
          <ns3:TrackPointExtension>
            <ns3:atemp>32.0</ns3:atemp>
            <ns3:hr>104</ns3:hr>
          </ns3:TrackPointExtension>
        </extensions>
      </trkpt>
      <trkpt lat="36.7737682163715362548828125" lon="-118.49311131052672863006591796875">
        <ele>2165.199951171875</ele>
        <time>2021-06-24T19:44:03.000Z</time>
        <extensions>
          <ns3:TrackPointExtension>
            <ns3:atemp>32.0</ns3:atemp>
            <ns3:hr>101</ns3:hr>
          </ns3:TrackPointExtension>
        </extensions>
      </trkpt>
      <trkpt lat="36.773766539990901947021484375" lon="-118.49312178790569305419921875">
        <ele>2165</ele>
        <time>2021-06-24T19:44:07.000Z</time>
        <extensions>
          <ns3:TrackPointExtension>
            <ns3:atemp>32.0</ns3:atemp>
            <ns3:hr>98</ns3:hr>
          </ns3:TrackPointExtension>
        </extensions>
      </trkpt>
      <trkpt lat="36.77375606261193752288818359375" lon="-118.4931454248726367950439453125">
        <ele>2165.199951171875</ele>
        <time>2021-06-24T19:44:21.000Z</time>
        <extensions>
          <ns3:TrackPointExtension>
            <ns3:atemp>32.0</ns3:atemp>
            <ns3:hr>96</ns3:hr>
          </ns3:TrackPointExtension>
        </extensions>
      </trkpt>
      <trkpt lat="36.7737395502626895904541015625" lon="-118.493157662451267242431640625">
        <ele>2166.199951171875</ele>
        <time>2021-06-24T19:44:32.000Z</time>
        <extensions>
          <ns3:TrackPointExtension>
            <ns3:atemp>32.0</ns3:atemp>
            <ns3:hr>97</ns3:hr>
          </ns3:TrackPointExtension>
        </extensions>
      </trkpt>
      <trkpt lat="36.7737351916730403900146484375" lon="-118.49315799772739410400390625">
        <ele>2165.800048828125</ele>
        <time>2021-06-24T19:44:41.000Z</time>
        <extensions>
          <ns3:TrackPointExtension>
            <ns3:atemp>31.0</ns3:atemp>
            <ns3:hr>94</ns3:hr>
          </ns3:TrackPointExtension>
        </extensions>
      </trkpt>
      <trkpt lat="36.7737157456576824188232421875" lon="-118.49314919672906398773193359375">
        <ele>2166.39990234375</ele>
        <time>2021-06-24T19:44:51.000Z</time>
        <extensions>
          <ns3:TrackPointExtension>
            <ns3:atemp>31.0</ns3:atemp>
            <ns3:hr>92</ns3:hr>
          </ns3:TrackPointExtension>
        </extensions>
      </trkpt>
      <trkpt lat="36.77368171513080596923828125" lon="-118.49314500577747821807861328125">
        <ele>2166</ele>
        <time>2021-06-24T19:44:59.000Z</time>
        <extensions>
          <ns3:TrackPointExtension>
            <ns3:atemp>31.0</ns3:atemp>
            <ns3:hr>95</ns3:hr>
          </ns3:TrackPointExtension>
        </extensions>
      </trkpt>
      <trkpt lat="36.77366134710609912872314453125" lon="-118.49318356253206729888916015625">
        <ele>2166.800048828125</ele>
        <time>2021-06-24T19:45:17.000Z</time>
        <extensions>
          <ns3:TrackPointExtension>
            <ns3:atemp>31.0</ns3:atemp>
            <ns3:hr>92</ns3:hr>
          </ns3:TrackPointExtension>
        </extensions>
      </trkpt>
      <trkpt lat="36.7736600898206233978271484375" lon="-118.493192195892333984375">
        <ele>2167.199951171875</ele>
        <time>2021-06-24T19:45:29.000Z</time>
        <extensions>
          <ns3:TrackPointExtension>
            <ns3:atemp>31.0</ns3:atemp>
            <ns3:hr>94</ns3:hr>
          </ns3:TrackPointExtension>
        </extensions>
      </trkpt>
      <trkpt lat="36.773676015436649322509765625" lon="-118.493135534226894378662109375">
        <ele>2168</ele>
        <time>2021-06-24T19:45:34.000Z</time>
        <extensions>
          <ns3:TrackPointExtension>
            <ns3:atemp>31.0</ns3:atemp>
            <ns3:hr>96</ns3:hr>
          </ns3:TrackPointExtension>
        </extensions>
      </trkpt>
      <trkpt lat="36.7736778594553470611572265625" lon="-118.4931103885173797607421875">
        <ele>2168.199951171875</ele>
        <time>2021-06-24T19:45:36.000Z</time>
        <extensions>
          <ns3:TrackPointExtension>
            <ns3:atemp>31.0</ns3:atemp>
            <ns3:hr>97</ns3:hr>
          </ns3:TrackPointExtension>
        </extensions>
      </trkpt>
      <trkpt lat="36.7736852355301380157470703125" lon="-118.49305867217481136322021484375">
        <ele>2168.60009765625</ele>
        <time>2021-06-24T19:45:38.000Z</time>
        <extensions>
          <ns3:TrackPointExtension>
            <ns3:atemp>31.0</ns3:atemp>
            <ns3:hr>100</ns3:hr>
          </ns3:TrackPointExtension>
        </extensions>
      </trkpt>
      <trkpt lat="36.77369537763297557830810546875" lon="-118.49301659502089023590087890625">
        <ele>2168.800048828125</ele>
        <time>2021-06-24T19:45:40.000Z</time>
        <extensions>
          <ns3:TrackPointExtension>
            <ns3:atemp>31.0</ns3:atemp>
            <ns3:hr>99</ns3:hr>
          </ns3:TrackPointExtension>
        </extensions>
      </trkpt>
      <trkpt lat="36.77369671873748302459716796875" lon="-118.49295624531805515289306640625">
        <ele>2169</ele>
        <time>2021-06-24T19:45:43.000Z</time>
        <extensions>
          <ns3:TrackPointExtension>
            <ns3:atemp>31.0</ns3:atemp>
            <ns3:hr>100</ns3:hr>
          </ns3:TrackPointExtension>
        </extensions>
      </trkpt>
      <trkpt lat="36.77370342426002025604248046875" lon="-118.4929217956960201263427734375">
        <ele>2169.199951171875</ele>
        <time>2021-06-24T19:45:47.000Z</time>
        <extensions>
          <ns3:TrackPointExtension>
            <ns3:atemp>31.0</ns3:atemp>
            <ns3:hr>102</ns3:hr>
          </ns3:TrackPointExtension>
        </extensions>
      </trkpt>
      <trkpt lat="36.77370443008840084075927734375" lon="-118.49291232414543628692626953125">
        <ele>2169.39990234375</ele>
        <time>2021-06-24T19:45:48.000Z</time>
        <extensions>
          <ns3:TrackPointExtension>
            <ns3:atemp>31.0</ns3:atemp>
            <ns3:hr>102</ns3:hr>
          </ns3:TrackPointExtension>
        </extensions>
      </trkpt>
      <trkpt lat="36.7736936174333095550537109375" lon="-118.49288600496947765350341796875">
        <ele>2169.60009765625</ele>
        <time>2021-06-24T19:45:50.000Z</time>
        <extensions>
          <ns3:TrackPointExtension>
            <ns3:atemp>31.0</ns3:atemp>
            <ns3:hr>103</ns3:hr>
          </ns3:TrackPointExtension>
        </extensions>
      </trkpt>
      <trkpt lat="36.773705184459686279296875" lon="-118.49286823533475399017333984375">
        <ele>2169.800048828125</ele>
        <time>2021-06-24T19:45:52.000Z</time>
        <extensions>
          <ns3:TrackPointExtension>
            <ns3:atemp>31.0</ns3:atemp>
            <ns3:hr>103</ns3:hr>
          </ns3:TrackPointExtension>
        </extensions>
      </trkpt>
      <trkpt lat="36.773706860840320587158203125" lon="-118.492858596146106719970703125">
        <ele>2169.800048828125</ele>
        <time>2021-06-24T19:45:53.000Z</time>
        <extensions>
          <ns3:TrackPointExtension>
            <ns3:atemp>31.0</ns3:atemp>
            <ns3:hr>102</ns3:hr>
          </ns3:TrackPointExtension>
        </extensions>
      </trkpt>
      <trkpt lat="36.77370040677487850189208984375" lon="-118.49282146431505680084228515625">
        <ele>2170.39990234375</ele>
        <time>2021-06-24T19:45:56.000Z</time>
        <extensions>
          <ns3:TrackPointExtension>
            <ns3:atemp>31.0</ns3:atemp>
            <ns3:hr>102</ns3:hr>
          </ns3:TrackPointExtension>
        </extensions>
      </trkpt>
      <trkpt lat="36.7737060226500034332275390625" lon="-118.49276371300220489501953125">
        <ele>2170.60009765625</ele>
        <time>2021-06-24T19:46:01.000Z</time>
        <extensions>
          <ns3:TrackPointExtension>
            <ns3:atemp>31.0</ns3:atemp>
            <ns3:hr>102</ns3:hr>
          </ns3:TrackPointExtension>
        </extensions>
      </trkpt>
      <trkpt lat="36.7736956290900707244873046875" lon="-118.49272591061890125274658203125">
        <ele>2171</ele>
        <time>2021-06-24T19:46:05.000Z</time>
        <extensions>
          <ns3:TrackPointExtension>
            <ns3:atemp>31.0</ns3:atemp>
            <ns3:hr>105</ns3:hr>
          </ns3:TrackPointExtension>
        </extensions>
      </trkpt>
      <trkpt lat="36.77369487471878528594970703125" lon="-118.49268953315913677215576171875">
        <ele>2171.39990234375</ele>
        <time>2021-06-24T19:46:09.000Z</time>
        <extensions>
          <ns3:TrackPointExtension>
            <ns3:atemp>31.0</ns3:atemp>
            <ns3:hr>105</ns3:hr>
          </ns3:TrackPointExtension>
        </extensions>
      </trkpt>
      <trkpt lat="36.77369873039424419403076171875" lon="-118.49268115125596523284912109375">
        <ele>2171.39990234375</ele>
        <time>2021-06-24T19:46:10.000Z</time>
        <extensions>
          <ns3:TrackPointExtension>
            <ns3:atemp>31.0</ns3:atemp>
            <ns3:hr>105</ns3:hr>
          </ns3:TrackPointExtension>
        </extensions>
      </trkpt>
      <trkpt lat="36.7736979760229587554931640625" lon="-118.4926331229507923126220703125">
        <ele>2172</ele>
        <time>2021-06-24T19:46:15.000Z</time>
        <extensions>
          <ns3:TrackPointExtension>
            <ns3:atemp>31.0</ns3:atemp>
            <ns3:hr>108</ns3:hr>
          </ns3:TrackPointExtension>
        </extensions>
      </trkpt>
      <trkpt lat="36.77369487471878528594970703125" lon="-118.49259733222424983978271484375">
        <ele>2172</ele>
        <time>2021-06-24T19:46:18.000Z</time>
        <extensions>
          <ns3:TrackPointExtension>
            <ns3:atemp>31.0</ns3:atemp>
            <ns3:hr>108</ns3:hr>
          </ns3:TrackPointExtension>
        </extensions>
      </trkpt>
      <trkpt lat="36.773699484765529632568359375" lon="-118.49257738329470157623291015625">
        <ele>2172.39990234375</ele>
        <time>2021-06-24T19:46:20.000Z</time>
        <extensions>
          <ns3:TrackPointExtension>
            <ns3:atemp>31.0</ns3:atemp>
            <ns3:hr>109</ns3:hr>
          </ns3:TrackPointExtension>
        </extensions>
      </trkpt>
      <trkpt lat="36.77370610646903514862060546875" lon="-118.49256631918251514434814453125">
        <ele>2172.800048828125</ele>
        <time>2021-06-24T19:46:22.000Z</time>
        <extensions>
          <ns3:TrackPointExtension>
            <ns3:atemp>31.0</ns3:atemp>
            <ns3:hr>109</ns3:hr>
          </ns3:TrackPointExtension>
        </extensions>
      </trkpt>
      <trkpt lat="36.77371582947671413421630859375" lon="-118.49255441688001155853271484375">
        <ele>2173</ele>
        <time>2021-06-24T19:46:24.000Z</time>
        <extensions>
          <ns3:TrackPointExtension>
            <ns3:atemp>31.0</ns3:atemp>
            <ns3:hr>110</ns3:hr>
          </ns3:TrackPointExtension>
        </extensions>
      </trkpt>
      <trkpt lat="36.7737207747995853424072265625" lon="-118.492532037198543548583984375">
        <ele>2173.60009765625</ele>
        <time>2021-06-24T19:46:26.000Z</time>
        <extensions>
          <ns3:TrackPointExtension>
            <ns3:atemp>31.0</ns3:atemp>
            <ns3:hr>110</ns3:hr>
          </ns3:TrackPointExtension>
        </extensions>
      </trkpt>
      <trkpt lat="36.77371566183865070343017578125" lon="-118.49252122454345226287841796875">
        <ele>2173.800048828125</ele>
        <time>2021-06-24T19:46:29.000Z</time>
        <extensions>
          <ns3:TrackPointExtension>
            <ns3:atemp>31.0</ns3:atemp>
            <ns3:hr>109</ns3:hr>
          </ns3:TrackPointExtension>
        </extensions>
      </trkpt>
      <trkpt lat="36.77363251335918903350830078125" lon="-118.492430113255977630615234375">
        <ele>2174</ele>
        <time>2021-06-24T19:46:37.000Z</time>
        <extensions>
          <ns3:TrackPointExtension>
            <ns3:atemp>31.0</ns3:atemp>
            <ns3:hr>111</ns3:hr>
          </ns3:TrackPointExtension>
        </extensions>
      </trkpt>
      <trkpt lat="36.77360367961227893829345703125" lon="-118.492368422448635101318359375">
        <ele>2174.39990234375</ele>
        <time>2021-06-24T19:46:42.000Z</time>
        <extensions>
          <ns3:TrackPointExtension>
            <ns3:atemp>31.0</ns3:atemp>
            <ns3:hr>112</ns3:hr>
          </ns3:TrackPointExtension>
        </extensions>
      </trkpt>
      <trkpt lat="36.77358792163431644439697265625" lon="-118.49234185181558132171630859375">
        <ele>2174.60009765625</ele>
        <time>2021-06-24T19:46:44.000Z</time>
        <extensions>
          <ns3:TrackPointExtension>
            <ns3:atemp>31.0</ns3:atemp>
            <ns3:hr>114</ns3:hr>
          </ns3:TrackPointExtension>
        </extensions>
      </trkpt>
      <trkpt lat="36.77356361411511898040771484375" lon="-118.492299020290374755859375">
        <ele>2174.60009765625</ele>
        <time>2021-06-24T19:46:48.000Z</time>
        <extensions>
          <ns3:TrackPointExtension>
            <ns3:atemp>31.0</ns3:atemp>
            <ns3:hr>117</ns3:hr>
          </ns3:TrackPointExtension>
        </extensions>
      </trkpt>
      <trkpt lat="36.7735403962433338165283203125" lon="-118.492234311997890472412109375">
        <ele>2174.60009765625</ele>
        <time>2021-06-24T19:46:53.000Z</time>
        <extensions>
          <ns3:TrackPointExtension>
            <ns3:atemp>31.0</ns3:atemp>
            <ns3:hr>115</ns3:hr>
          </ns3:TrackPointExtension>
        </extensions>
      </trkpt>
      <trkpt lat="36.77352455444633960723876953125" lon="-118.49215879105031490325927734375">
        <ele>2175</ele>
        <time>2021-06-24T19:46:59.000Z</time>
        <extensions>
          <ns3:TrackPointExtension>
            <ns3:atemp>31.0</ns3:atemp>
            <ns3:hr>114</ns3:hr>
          </ns3:TrackPointExtension>
        </extensions>
      </trkpt>
      <trkpt lat="36.77352069877088069915771484375" lon="-118.49214437417685985565185546875">
        <ele>2175</ele>
        <time>2021-06-24T19:47:00.000Z</time>
        <extensions>
          <ns3:TrackPointExtension>
            <ns3:atemp>31.0</ns3:atemp>
            <ns3:hr>114</ns3:hr>
          </ns3:TrackPointExtension>
        </extensions>
      </trkpt>
      <trkpt lat="36.7735102213919162750244140625" lon="-118.4920846112072467803955078125">
        <ele>2175.199951171875</ele>
        <time>2021-06-24T19:47:05.000Z</time>
        <extensions>
          <ns3:TrackPointExtension>
            <ns3:atemp>31.0</ns3:atemp>
            <ns3:hr>118</ns3:hr>
          </ns3:TrackPointExtension>
        </extensions>
      </trkpt>
      <trkpt lat="36.77350175566971302032470703125" lon="-118.4920480661094188690185546875">
        <ele>2175.60009765625</ele>
        <time>2021-06-24T19:47:09.000Z</time>
        <extensions>
          <ns3:TrackPointExtension>
            <ns3:atemp>31.0</ns3:atemp>
            <ns3:hr>120</ns3:hr>
          </ns3:TrackPointExtension>
        </extensions>
      </trkpt>
      <trkpt lat="36.77349932491779327392578125" lon="-118.4920416958630084991455078125">
        <ele>2175.60009765625</ele>
        <time>2021-06-24T19:47:10.000Z</time>
        <extensions>
          <ns3:TrackPointExtension>
            <ns3:atemp>31.0</ns3:atemp>
            <ns3:hr>121</ns3:hr>
          </ns3:TrackPointExtension>
        </extensions>
      </trkpt>
      <trkpt lat="36.77348331548273563385009765625" lon="-118.49200372584164142608642578125">
        <ele>2176</ele>
        <time>2021-06-24T19:47:14.000Z</time>
        <extensions>
          <ns3:TrackPointExtension>
            <ns3:atemp>32.0</ns3:atemp>
            <ns3:hr>124</ns3:hr>
          </ns3:TrackPointExtension>
        </extensions>
      </trkpt>
      <trkpt lat="36.7734719999134540557861328125" lon="-118.4919897280633449554443359375">
        <ele>2176</ele>
        <time>2021-06-24T19:47:16.000Z</time>
        <extensions>
          <ns3:TrackPointExtension>
            <ns3:atemp>32.0</ns3:atemp>
            <ns3:hr>126</ns3:hr>
          </ns3:TrackPointExtension>
        </extensions>
      </trkpt>
      <trkpt lat="36.7734611034393310546875" lon="-118.491974137723445892333984375">
        <ele>2176.60009765625</ele>
        <time>2021-06-24T19:47:19.000Z</time>
        <extensions>
          <ns3:TrackPointExtension>
            <ns3:atemp>32.0</ns3:atemp>
            <ns3:hr>127</ns3:hr>
          </ns3:TrackPointExtension>
        </extensions>
      </trkpt>
      <trkpt lat="36.77344425581395626068115234375" lon="-118.491944633424282073974609375">
        <ele>2176.800048828125</ele>
        <time>2021-06-24T19:47:22.000Z</time>
        <extensions>
          <ns3:TrackPointExtension>
            <ns3:atemp>32.0</ns3:atemp>
            <ns3:hr>125</ns3:hr>
          </ns3:TrackPointExtension>
        </extensions>
      </trkpt>
      <trkpt lat="36.7734394781291484832763671875" lon="-118.49193298257887363433837890625">
        <ele>2176.800048828125</ele>
        <time>2021-06-24T19:47:23.000Z</time>
        <extensions>
          <ns3:TrackPointExtension>
            <ns3:atemp>32.0</ns3:atemp>
            <ns3:hr>124</ns3:hr>
          </ns3:TrackPointExtension>
        </extensions>
      </trkpt>
      <trkpt lat="36.77342883311212062835693359375" lon="-118.49191051907837390899658203125">
        <ele>2177.199951171875</ele>
        <time>2021-06-24T19:47:25.000Z</time>
        <extensions>
          <ns3:TrackPointExtension>
            <ns3:atemp>32.0</ns3:atemp>
            <ns3:hr>123</ns3:hr>
          </ns3:TrackPointExtension>
        </extensions>
      </trkpt>
      <trkpt lat="36.77339849062263965606689453125" lon="-118.49186575971543788909912109375">
        <ele>2177.60009765625</ele>
        <time>2021-06-24T19:47:30.000Z</time>
        <extensions>
          <ns3:TrackPointExtension>
            <ns3:atemp>32.0</ns3:atemp>
            <ns3:hr>124</ns3:hr>
          </ns3:TrackPointExtension>
        </extensions>
      </trkpt>
      <trkpt lat="36.77338264882564544677734375" lon="-118.4918385185301303863525390625">
        <ele>2177.800048828125</ele>
        <time>2021-06-24T19:47:33.000Z</time>
        <extensions>
          <ns3:TrackPointExtension>
            <ns3:atemp>32.0</ns3:atemp>
            <ns3:hr>127</ns3:hr>
          </ns3:TrackPointExtension>
        </extensions>
      </trkpt>
      <trkpt lat="36.7733787931501865386962890625" lon="-118.491815887391567230224609375">
        <ele>2177.800048828125</ele>
        <time>2021-06-24T19:47:35.000Z</time>
        <extensions>
          <ns3:TrackPointExtension>
            <ns3:atemp>32.0</ns3:atemp>
            <ns3:hr>126</ns3:hr>
          </ns3:TrackPointExtension>
        </extensions>
      </trkpt>
      <trkpt lat="36.77337921224534511566162109375" lon="-118.491805829107761383056640625">
        <ele>2177.800048828125</ele>
        <time>2021-06-24T19:47:36.000Z</time>
        <extensions>
          <ns3:TrackPointExtension>
            <ns3:atemp>32.0</ns3:atemp>
            <ns3:hr>126</ns3:hr>
          </ns3:TrackPointExtension>
        </extensions>
      </trkpt>
      <trkpt lat="36.7733747698366641998291015625" lon="-118.491796441376209259033203125">
        <ele>2178.199951171875</ele>
        <time>2021-06-24T19:47:37.000Z</time>
        <extensions>
          <ns3:TrackPointExtension>
            <ns3:atemp>32.0</ns3:atemp>
            <ns3:hr>128</ns3:hr>
          </ns3:TrackPointExtension>
        </extensions>
      </trkpt>
      <trkpt lat="36.7733687348663806915283203125" lon="-118.491780348122119903564453125">
        <ele>2178.199951171875</ele>
        <time>2021-06-24T19:47:39.000Z</time>
        <extensions>
          <ns3:TrackPointExtension>
            <ns3:atemp>32.0</ns3:atemp>
            <ns3:hr>125</ns3:hr>
          </ns3:TrackPointExtension>
        </extensions>
      </trkpt>
      <trkpt lat="36.77337552420794963836669921875" lon="-118.49177171476185321807861328125">
        <ele>2178.199951171875</ele>
        <time>2021-06-24T19:47:40.000Z</time>
        <extensions>
          <ns3:TrackPointExtension>
            <ns3:atemp>32.0</ns3:atemp>
            <ns3:hr>126</ns3:hr>
          </ns3:TrackPointExtension>
        </extensions>
      </trkpt>
      <trkpt lat="36.77337653003633022308349609375" lon="-118.49176593124866485595703125">
        <ele>2178.39990234375</ele>
        <time>2021-06-24T19:47:41.000Z</time>
        <extensions>
          <ns3:TrackPointExtension>
            <ns3:atemp>32.0</ns3:atemp>
            <ns3:hr>127</ns3:hr>
          </ns3:TrackPointExtension>
        </extensions>
      </trkpt>
      <trkpt lat="36.77337518893182277679443359375" lon="-118.49173332564532756805419921875">
        <ele>2178.800048828125</ele>
        <time>2021-06-24T19:47:45.000Z</time>
        <extensions>
          <ns3:TrackPointExtension>
            <ns3:atemp>32.0</ns3:atemp>
            <ns3:hr>124</ns3:hr>
          </ns3:TrackPointExtension>
        </extensions>
      </trkpt>
      <trkpt lat="36.77336982451379299163818359375" lon="-118.49172192625701427459716796875">
        <ele>2179.199951171875</ele>
        <time>2021-06-24T19:47:47.000Z</time>
        <extensions>
          <ns3:TrackPointExtension>
            <ns3:atemp>32.0</ns3:atemp>
            <ns3:hr>121</ns3:hr>
          </ns3:TrackPointExtension>
        </extensions>
      </trkpt>
      <trkpt lat="36.773356497287750244140625" lon="-118.49172427318990230560302734375">
        <ele>2179.199951171875</ele>
        <time>2021-06-24T19:47:48.000Z</time>
        <extensions>
          <ns3:TrackPointExtension>
            <ns3:atemp>32.0</ns3:atemp>
            <ns3:hr>121</ns3:hr>
          </ns3:TrackPointExtension>
        </extensions>
      </trkpt>
      <trkpt lat="36.77331961691379547119140625" lon="-118.49162201397120952606201171875">
        <ele>2180</ele>
        <time>2021-06-24T19:47:56.000Z</time>
        <extensions>
          <ns3:TrackPointExtension>
            <ns3:atemp>32.0</ns3:atemp>
            <ns3:hr>118</ns3:hr>
          </ns3:TrackPointExtension>
        </extensions>
      </trkpt>
      <trkpt lat="36.77331668324768543243408203125" lon="-118.49161027930676937103271484375">
        <ele>2180.199951171875</ele>
        <time>2021-06-24T19:47:57.000Z</time>
        <extensions>
          <ns3:TrackPointExtension>
            <ns3:atemp>32.0</ns3:atemp>
            <ns3:hr>120</ns3:hr>
          </ns3:TrackPointExtension>
        </extensions>
      </trkpt>
      <trkpt lat="36.7733261547982692718505859375" lon="-118.49155428819358348846435546875">
        <ele>2181.39990234375</ele>
        <time>2021-06-24T19:48:04.000Z</time>
        <extensions>
          <ns3:TrackPointExtension>
            <ns3:atemp>32.0</ns3:atemp>
            <ns3:hr>120</ns3:hr>
          </ns3:TrackPointExtension>
        </extensions>
      </trkpt>
      <trkpt lat="36.77332523278892040252685546875" lon="-118.49154624156653881072998046875">
        <ele>2181.39990234375</ele>
        <time>2021-06-24T19:48:05.000Z</time>
        <extensions>
          <ns3:TrackPointExtension>
            <ns3:atemp>32.0</ns3:atemp>
            <ns3:hr>122</ns3:hr>
          </ns3:TrackPointExtension>
        </extensions>
      </trkpt>
      <trkpt lat="36.7733077146112918853759765625" lon="-118.49148027598857879638671875">
        <ele>2182.199951171875</ele>
        <time>2021-06-24T19:48:12.000Z</time>
        <extensions>
          <ns3:TrackPointExtension>
            <ns3:atemp>32.0</ns3:atemp>
            <ns3:hr>120</ns3:hr>
          </ns3:TrackPointExtension>
        </extensions>
      </trkpt>
      <trkpt lat="36.7733050324022769927978515625" lon="-118.49146845750510692596435546875">
        <ele>2182.39990234375</ele>
        <time>2021-06-24T19:48:13.000Z</time>
        <extensions>
          <ns3:TrackPointExtension>
            <ns3:atemp>32.0</ns3:atemp>
            <ns3:hr>120</ns3:hr>
          </ns3:TrackPointExtension>
        </extensions>
      </trkpt>
      <trkpt lat="36.77330511622130870819091796875" lon="-118.4914227761328220367431640625">
        <ele>2183.39990234375</ele>
        <time>2021-06-24T19:48:18.000Z</time>
        <extensions>
          <ns3:TrackPointExtension>
            <ns3:atemp>32.0</ns3:atemp>
            <ns3:hr>122</ns3:hr>
          </ns3:TrackPointExtension>
        </extensions>
      </trkpt>
      <trkpt lat="36.7733030207455158233642578125" lon="-118.49140919744968414306640625">
        <ele>2183.39990234375</ele>
        <time>2021-06-24T19:48:19.000Z</time>
        <extensions>
          <ns3:TrackPointExtension>
            <ns3:atemp>32.0</ns3:atemp>
            <ns3:hr>122</ns3:hr>
          </ns3:TrackPointExtension>
        </extensions>
      </trkpt>
      <trkpt lat="36.7732989974319934844970703125" lon="-118.4913771785795688629150390625">
        <ele>2183.60009765625</ele>
        <time>2021-06-24T19:48:21.000Z</time>
        <extensions>
          <ns3:TrackPointExtension>
            <ns3:atemp>32.0</ns3:atemp>
            <ns3:hr>122</ns3:hr>
          </ns3:TrackPointExtension>
        </extensions>
      </trkpt>
      <trkpt lat="36.7732720077037811279296875" lon="-118.49131590686738491058349609375">
        <ele>2184.60009765625</ele>
        <time>2021-06-24T19:48:27.000Z</time>
        <extensions>
          <ns3:TrackPointExtension>
            <ns3:atemp>32.0</ns3:atemp>
            <ns3:hr>122</ns3:hr>
          </ns3:TrackPointExtension>
        </extensions>
      </trkpt>
      <trkpt lat="36.7732500471174716949462890625" lon="-118.49128003232181072235107421875">
        <ele>2185</ele>
        <time>2021-06-24T19:48:34.000Z</time>
        <extensions>
          <ns3:TrackPointExtension>
            <ns3:atemp>32.0</ns3:atemp>
            <ns3:hr>123</ns3:hr>
          </ns3:TrackPointExtension>
        </extensions>
      </trkpt>
      <trkpt lat="36.77324979566037654876708984375" lon="-118.4912655316293239593505859375">
        <ele>2185</ele>
        <time>2021-06-24T19:48:36.000Z</time>
        <extensions>
          <ns3:TrackPointExtension>
            <ns3:atemp>32.0</ns3:atemp>
            <ns3:hr>125</ns3:hr>
          </ns3:TrackPointExtension>
        </extensions>
      </trkpt>
      <trkpt lat="36.773246191442012786865234375" lon="-118.4912410564720630645751953125">
        <ele>2185</ele>
        <time>2021-06-24T19:48:38.000Z</time>
        <extensions>
          <ns3:TrackPointExtension>
            <ns3:atemp>32.0</ns3:atemp>
            <ns3:hr>125</ns3:hr>
          </ns3:TrackPointExtension>
        </extensions>
      </trkpt>
      <trkpt lat="36.7732344567775726318359375" lon="-118.4912222810089588165283203125">
        <ele>2185</ele>
        <time>2021-06-24T19:48:40.000Z</time>
        <extensions>
          <ns3:TrackPointExtension>
            <ns3:atemp>32.0</ns3:atemp>
            <ns3:hr>126</ns3:hr>
          </ns3:TrackPointExtension>
        </extensions>
      </trkpt>
      <trkpt lat="36.7732336185872554779052734375" lon="-118.49120224826037883758544921875">
        <ele>2185</ele>
        <time>2021-06-24T19:48:42.000Z</time>
        <extensions>
          <ns3:TrackPointExtension>
            <ns3:atemp>32.0</ns3:atemp>
            <ns3:hr>125</ns3:hr>
          </ns3:TrackPointExtension>
        </extensions>
      </trkpt>
      <trkpt lat="36.77323873154819011688232421875" lon="-118.4911760129034519195556640625">
        <ele>2185.60009765625</ele>
        <time>2021-06-24T19:48:44.000Z</time>
        <extensions>
          <ns3:TrackPointExtension>
            <ns3:atemp>32.0</ns3:atemp>
            <ns3:hr>126</ns3:hr>
          </ns3:TrackPointExtension>
        </extensions>
      </trkpt>
      <trkpt lat="36.77324744872748851776123046875" lon="-118.49114424549043178558349609375">
        <ele>2185.60009765625</ele>
        <time>2021-06-24T19:48:46.000Z</time>
        <extensions>
          <ns3:TrackPointExtension>
            <ns3:atemp>32.0</ns3:atemp>
            <ns3:hr>124</ns3:hr>
          </ns3:TrackPointExtension>
        </extensions>
      </trkpt>
      <trkpt lat="36.773248873651027679443359375" lon="-118.49112764932215213775634765625">
        <ele>2185.60009765625</ele>
        <time>2021-06-24T19:48:47.000Z</time>
        <extensions>
          <ns3:TrackPointExtension>
            <ns3:atemp>32.0</ns3:atemp>
            <ns3:hr>127</ns3:hr>
          </ns3:TrackPointExtension>
        </extensions>
      </trkpt>
      <trkpt lat="36.77325063385069370269775390625" lon="-118.491113148629665374755859375">
        <ele>2185.60009765625</ele>
        <time>2021-06-24T19:48:48.000Z</time>
        <extensions>
          <ns3:TrackPointExtension>
            <ns3:atemp>32.0</ns3:atemp>
            <ns3:hr>127</ns3:hr>
          </ns3:TrackPointExtension>
        </extensions>
      </trkpt>
      <trkpt lat="36.77326438017189502716064453125" lon="-118.4910754300653934478759765625">
        <ele>2185.800048828125</ele>
        <time>2021-06-24T19:48:50.000Z</time>
        <extensions>
          <ns3:TrackPointExtension>
            <ns3:atemp>32.0</ns3:atemp>
            <ns3:hr>124</ns3:hr>
          </ns3:TrackPointExtension>
        </extensions>
      </trkpt>
      <trkpt lat="36.77327142097055912017822265625" lon="-118.49102832376956939697265625">
        <ele>2186</ele>
        <time>2021-06-24T19:48:52.000Z</time>
        <extensions>
          <ns3:TrackPointExtension>
            <ns3:atemp>32.0</ns3:atemp>
            <ns3:hr>121</ns3:hr>
          </ns3:TrackPointExtension>
        </extensions>
      </trkpt>
      <trkpt lat="36.77327326498925685882568359375" lon="-118.49099454469978809356689453125">
        <ele>2186.199951171875</ele>
        <time>2021-06-24T19:48:55.000Z</time>
        <extensions>
          <ns3:TrackPointExtension>
            <ns3:atemp>32.0</ns3:atemp>
            <ns3:hr>119</ns3:hr>
          </ns3:TrackPointExtension>
        </extensions>
      </trkpt>
      <trkpt lat="36.77327334880828857421875" lon="-118.49093721248209476470947265625">
        <ele>2186.60009765625</ele>
        <time>2021-06-24T19:48:59.000Z</time>
        <extensions>
          <ns3:TrackPointExtension>
            <ns3:atemp>32.0</ns3:atemp>
            <ns3:hr>116</ns3:hr>
          </ns3:TrackPointExtension>
        </extensions>
      </trkpt>
      <trkpt lat="36.7732493765652179718017578125" lon="-118.49088708870112895965576171875">
        <ele>2186.800048828125</ele>
        <time>2021-06-24T19:49:03.000Z</time>
        <extensions>
          <ns3:TrackPointExtension>
            <ns3:atemp>32.0</ns3:atemp>
            <ns3:hr>114</ns3:hr>
          </ns3:TrackPointExtension>
        </extensions>
      </trkpt>
      <trkpt lat="36.773241497576236724853515625" lon="-118.4908792935311794281005859375">
        <ele>2186.800048828125</ele>
        <time>2021-06-24T19:49:04.000Z</time>
        <extensions>
          <ns3:TrackPointExtension>
            <ns3:atemp>32.0</ns3:atemp>
            <ns3:hr>116</ns3:hr>
          </ns3:TrackPointExtension>
        </extensions>
      </trkpt>
      <trkpt lat="36.7731933854520320892333984375" lon="-118.49084065295755863189697265625">
        <ele>2186.800048828125</ele>
        <time>2021-06-24T19:49:09.000Z</time>
        <extensions>
          <ns3:TrackPointExtension>
            <ns3:atemp>32.0</ns3:atemp>
            <ns3:hr>114</ns3:hr>
          </ns3:TrackPointExtension>
        </extensions>
      </trkpt>
      <trkpt lat="36.77317771129310131072998046875" lon="-118.49082791246473789215087890625">
        <ele>2186.800048828125</ele>
        <time>2021-06-24T19:49:10.000Z</time>
        <extensions>
          <ns3:TrackPointExtension>
            <ns3:atemp>32.0</ns3:atemp>
            <ns3:hr>114</ns3:hr>
          </ns3:TrackPointExtension>
        </extensions>
      </trkpt>
      <trkpt lat="36.77314217202365398406982421875" lon="-118.490743674337863922119140625">
        <ele>2186.60009765625</ele>
        <time>2021-06-24T19:49:15.000Z</time>
        <extensions>
          <ns3:TrackPointExtension>
            <ns3:atemp>32.0</ns3:atemp>
            <ns3:hr>112</ns3:hr>
          </ns3:TrackPointExtension>
        </extensions>
      </trkpt>
      <trkpt lat="36.7731298506259918212890625" lon="-118.4907260723412036895751953125">
        <ele>2186.800048828125</ele>
        <time>2021-06-24T19:49:17.000Z</time>
        <extensions>
          <ns3:TrackPointExtension>
            <ns3:atemp>32.0</ns3:atemp>
            <ns3:hr>113</ns3:hr>
          </ns3:TrackPointExtension>
        </extensions>
      </trkpt>
      <trkpt lat="36.773116774857044219970703125" lon="-118.49069732241332530975341796875">
        <ele>2186.800048828125</ele>
        <time>2021-06-24T19:49:19.000Z</time>
        <extensions>
          <ns3:TrackPointExtension>
            <ns3:atemp>32.0</ns3:atemp>
            <ns3:hr>114</ns3:hr>
          </ns3:TrackPointExtension>
        </extensions>
      </trkpt>
      <trkpt lat="36.77310143597424030303955078125" lon="-118.49067293107509613037109375">
        <ele>2187</ele>
        <time>2021-06-24T19:49:21.000Z</time>
        <extensions>
          <ns3:TrackPointExtension>
            <ns3:atemp>32.0</ns3:atemp>
            <ns3:hr>113</ns3:hr>
          </ns3:TrackPointExtension>
        </extensions>
      </trkpt>
      <trkpt lat="36.77310059778392314910888671875" lon="-118.49066245369613170623779296875">
        <ele>2187</ele>
        <time>2021-06-24T19:49:22.000Z</time>
        <extensions>
          <ns3:TrackPointExtension>
            <ns3:atemp>32.0</ns3:atemp>
            <ns3:hr>113</ns3:hr>
          </ns3:TrackPointExtension>
        </extensions>
      </trkpt>
      <trkpt lat="36.77308165468275547027587890625" lon="-118.4906321950256824493408203125">
        <ele>2187.39990234375</ele>
        <time>2021-06-24T19:49:26.000Z</time>
        <extensions>
          <ns3:TrackPointExtension>
            <ns3:atemp>32.0</ns3:atemp>
            <ns3:hr>114</ns3:hr>
          </ns3:TrackPointExtension>
        </extensions>
      </trkpt>
      <trkpt lat="36.77307151257991790771484375" lon="-118.4906040318310260772705078125">
        <ele>2187.60009765625</ele>
        <time>2021-06-24T19:49:28.000Z</time>
        <extensions>
          <ns3:TrackPointExtension>
            <ns3:atemp>32.0</ns3:atemp>
            <ns3:hr>114</ns3:hr>
          </ns3:TrackPointExtension>
        </extensions>
      </trkpt>
      <trkpt lat="36.77306338213384151458740234375" lon="-118.49058198742568492889404296875">
        <ele>2187.800048828125</ele>
        <time>2021-06-24T19:49:30.000Z</time>
        <extensions>
          <ns3:TrackPointExtension>
            <ns3:atemp>32.0</ns3:atemp>
            <ns3:hr>115</ns3:hr>
          </ns3:TrackPointExtension>
        </extensions>
      </trkpt>
      <trkpt lat="36.77305550314486026763916015625" lon="-118.4905292652547359466552734375">
        <ele>2187.800048828125</ele>
        <time>2021-06-24T19:49:34.000Z</time>
        <extensions>
          <ns3:TrackPointExtension>
            <ns3:atemp>32.0</ns3:atemp>
            <ns3:hr>113</ns3:hr>
          </ns3:TrackPointExtension>
        </extensions>
      </trkpt>
      <trkpt lat="36.77304334938526153564453125" lon="-118.4904967434704303741455078125">
        <ele>2187.800048828125</ele>
        <time>2021-06-24T19:49:36.000Z</time>
        <extensions>
          <ns3:TrackPointExtension>
            <ns3:atemp>32.0</ns3:atemp>
            <ns3:hr>116</ns3:hr>
          </ns3:TrackPointExtension>
        </extensions>
      </trkpt>
      <trkpt lat="36.7730294354259967803955078125" lon="-118.4904558397829532623291015625">
        <ele>2188.39990234375</ele>
        <time>2021-06-24T19:49:40.000Z</time>
        <extensions>
          <ns3:TrackPointExtension>
            <ns3:atemp>32.0</ns3:atemp>
            <ns3:hr>116</ns3:hr>
          </ns3:TrackPointExtension>
        </extensions>
      </trkpt>
      <trkpt lat="36.7730401642620563507080078125" lon="-118.49039641208946704864501953125">
        <ele>2188.800048828125</ele>
        <time>2021-06-24T19:49:45.000Z</time>
        <extensions>
          <ns3:TrackPointExtension>
            <ns3:atemp>32.0</ns3:atemp>
            <ns3:hr>117</ns3:hr>
          </ns3:TrackPointExtension>
        </extensions>
      </trkpt>
      <trkpt lat="36.77303086034953594207763671875" lon="-118.49037227220833301544189453125">
        <ele>2189</ele>
        <time>2021-06-24T19:49:47.000Z</time>
        <extensions>
          <ns3:TrackPointExtension>
            <ns3:atemp>32.0</ns3:atemp>
            <ns3:hr>117</ns3:hr>
          </ns3:TrackPointExtension>
        </extensions>
      </trkpt>
      <trkpt lat="36.77302750758826732635498046875" lon="-118.49036891944706439971923828125">
        <ele>2189</ele>
        <time>2021-06-24T19:49:48.000Z</time>
        <extensions>
          <ns3:TrackPointExtension>
            <ns3:atemp>32.0</ns3:atemp>
            <ns3:hr>118</ns3:hr>
          </ns3:TrackPointExtension>
        </extensions>
      </trkpt>
      <trkpt lat="36.77302834577858448028564453125" lon="-118.49035106599330902099609375">
        <ele>2189.199951171875</ele>
        <time>2021-06-24T19:49:50.000Z</time>
        <extensions>
          <ns3:TrackPointExtension>
            <ns3:atemp>32.0</ns3:atemp>
            <ns3:hr>118</ns3:hr>
          </ns3:TrackPointExtension>
        </extensions>
      </trkpt>
      <trkpt lat="36.77302398718893527984619140625" lon="-118.49029364995658397674560546875">
        <ele>2189.199951171875</ele>
        <time>2021-06-24T19:49:54.000Z</time>
        <extensions>
          <ns3:TrackPointExtension>
            <ns3:atemp>32.0</ns3:atemp>
            <ns3:hr>119</ns3:hr>
          </ns3:TrackPointExtension>
        </extensions>
      </trkpt>
      <trkpt lat="36.77302264608442783355712890625" lon="-118.4902714379131793975830078125">
        <ele>2189.39990234375</ele>
        <time>2021-06-24T19:49:56.000Z</time>
        <extensions>
          <ns3:TrackPointExtension>
            <ns3:atemp>32.0</ns3:atemp>
            <ns3:hr>118</ns3:hr>
          </ns3:TrackPointExtension>
        </extensions>
      </trkpt>
      <trkpt lat="36.7730247415602207183837890625" lon="-118.4902687557041645050048828125">
        <ele>2189.60009765625</ele>
        <time>2021-06-24T19:49:58.000Z</time>
        <extensions>
          <ns3:TrackPointExtension>
            <ns3:atemp>32.0</ns3:atemp>
            <ns3:hr>117</ns3:hr>
          </ns3:TrackPointExtension>
        </extensions>
      </trkpt>
      <trkpt lat="36.77302499301731586456298828125" lon="-118.49027101881802082061767578125">
        <ele>2189.800048828125</ele>
        <time>2021-06-24T19:49:59.000Z</time>
        <extensions>
          <ns3:TrackPointExtension>
            <ns3:atemp>32.0</ns3:atemp>
            <ns3:hr>117</ns3:hr>
          </ns3:TrackPointExtension>
        </extensions>
      </trkpt>
      <trkpt lat="36.77302633412182331085205078125" lon="-118.4902690909802913665771484375">
        <ele>2190.199951171875</ele>
        <time>2021-06-24T19:50:00.000Z</time>
        <extensions>
          <ns3:TrackPointExtension>
            <ns3:atemp>32.0</ns3:atemp>
            <ns3:hr>117</ns3:hr>
          </ns3:TrackPointExtension>
        </extensions>
      </trkpt>
      <trkpt lat="36.77302566356956958770751953125" lon="-118.49026548676192760467529296875">
        <ele>2190.199951171875</ele>
        <time>2021-06-24T19:50:01.000Z</time>
        <extensions>
          <ns3:TrackPointExtension>
            <ns3:atemp>32.0</ns3:atemp>
            <ns3:hr>117</ns3:hr>
          </ns3:TrackPointExtension>
        </extensions>
      </trkpt>
      <trkpt lat="36.77302549593150615692138671875" lon="-118.4902560152113437652587890625">
        <ele>2190.199951171875</ele>
        <time>2021-06-24T19:50:02.000Z</time>
        <extensions>
          <ns3:TrackPointExtension>
            <ns3:atemp>32.0</ns3:atemp>
            <ns3:hr>117</ns3:hr>
          </ns3:TrackPointExtension>
        </extensions>
      </trkpt>
      <trkpt lat="36.7730301059782505035400390625" lon="-118.49023933522403240203857421875">
        <ele>2190.39990234375</ele>
        <time>2021-06-24T19:50:03.000Z</time>
        <extensions>
          <ns3:TrackPointExtension>
            <ns3:atemp>32.0</ns3:atemp>
            <ns3:hr>117</ns3:hr>
          </ns3:TrackPointExtension>
        </extensions>
      </trkpt>
      <trkpt lat="36.7730277590453624725341796875" lon="-118.49021888338029384613037109375">
        <ele>2190.39990234375</ele>
        <time>2021-06-24T19:50:05.000Z</time>
        <extensions>
          <ns3:TrackPointExtension>
            <ns3:atemp>32.0</ns3:atemp>
            <ns3:hr>116</ns3:hr>
          </ns3:TrackPointExtension>
        </extensions>
      </trkpt>
      <trkpt lat="36.77301711402833461761474609375" lon="-118.490183092653751373291015625">
        <ele>2190.800048828125</ele>
        <time>2021-06-24T19:50:09.000Z</time>
        <extensions>
          <ns3:TrackPointExtension>
            <ns3:atemp>32.0</ns3:atemp>
            <ns3:hr>116</ns3:hr>
          </ns3:TrackPointExtension>
        </extensions>
      </trkpt>
      <trkpt lat="36.77301258780062198638916015625" lon="-118.4901728667318820953369140625">
        <ele>2191</ele>
        <time>2021-06-24T19:50:10.000Z</time>
        <extensions>
          <ns3:TrackPointExtension>
            <ns3:atemp>32.0</ns3:atemp>
            <ns3:hr>116</ns3:hr>
          </ns3:TrackPointExtension>
        </extensions>
      </trkpt>
      <trkpt lat="36.77300336770713329315185546875" lon="-118.4901493974030017852783203125">
        <ele>2191.60009765625</ele>
        <time>2021-06-24T19:50:13.000Z</time>
        <extensions>
          <ns3:TrackPointExtension>
            <ns3:atemp>32.0</ns3:atemp>
            <ns3:hr>119</ns3:hr>
          </ns3:TrackPointExtension>
        </extensions>
      </trkpt>
      <trkpt lat="36.7730009369552135467529296875" lon="-118.490138836205005645751953125">
        <ele>2192</ele>
        <time>2021-06-24T19:50:15.000Z</time>
        <extensions>
          <ns3:TrackPointExtension>
            <ns3:atemp>32.0</ns3:atemp>
            <ns3:hr>121</ns3:hr>
          </ns3:TrackPointExtension>
        </extensions>
      </trkpt>
      <trkpt lat="36.77300403825938701629638671875" lon="-118.49012710154056549072265625">
        <ele>2192</ele>
        <time>2021-06-24T19:50:16.000Z</time>
        <extensions>
          <ns3:TrackPointExtension>
            <ns3:atemp>32.0</ns3:atemp>
            <ns3:hr>123</ns3:hr>
          </ns3:TrackPointExtension>
        </extensions>
      </trkpt>
      <trkpt lat="36.77300437353551387786865234375" lon="-118.49011578597128391265869140625">
        <ele>2192.60009765625</ele>
        <time>2021-06-24T19:50:18.000Z</time>
        <extensions>
          <ns3:TrackPointExtension>
            <ns3:atemp>32.0</ns3:atemp>
            <ns3:hr>122</ns3:hr>
          </ns3:TrackPointExtension>
        </extensions>
      </trkpt>
      <trkpt lat="36.77300789393484592437744140625" lon="-118.4900944121181964874267578125">
        <ele>2193</ele>
        <time>2021-06-24T19:50:21.000Z</time>
        <extensions>
          <ns3:TrackPointExtension>
            <ns3:atemp>32.0</ns3:atemp>
            <ns3:hr>121</ns3:hr>
          </ns3:TrackPointExtension>
        </extensions>
      </trkpt>
      <trkpt lat="36.77302013151347637176513671875" lon="-118.49007672630250453948974609375">
        <ele>2193.39990234375</ele>
        <time>2021-06-24T19:50:24.000Z</time>
        <extensions>
          <ns3:TrackPointExtension>
            <ns3:atemp>32.0</ns3:atemp>
            <ns3:hr>122</ns3:hr>
          </ns3:TrackPointExtension>
        </extensions>
      </trkpt>
      <trkpt lat="36.7730220593512058258056640625" lon="-118.49004923366010189056396484375">
        <ele>2193.60009765625</ele>
        <time>2021-06-24T19:50:26.000Z</time>
        <extensions>
          <ns3:TrackPointExtension>
            <ns3:atemp>32.0</ns3:atemp>
            <ns3:hr>123</ns3:hr>
          </ns3:TrackPointExtension>
        </extensions>
      </trkpt>
      <trkpt lat="36.773020215332508087158203125" lon="-118.4900394268333911895751953125">
        <ele>2193.60009765625</ele>
        <time>2021-06-24T19:50:27.000Z</time>
        <extensions>
          <ns3:TrackPointExtension>
            <ns3:atemp>32.0</ns3:atemp>
            <ns3:hr>123</ns3:hr>
          </ns3:TrackPointExtension>
        </extensions>
      </trkpt>
      <trkpt lat="36.77300772629678249359130859375" lon="-118.49002140574157238006591796875">
        <ele>2194.39990234375</ele>
        <time>2021-06-24T19:50:30.000Z</time>
        <extensions>
          <ns3:TrackPointExtension>
            <ns3:atemp>32.0</ns3:atemp>
            <ns3:hr>122</ns3:hr>
          </ns3:TrackPointExtension>
        </extensions>
      </trkpt>
      <trkpt lat="36.7729999311268329620361328125" lon="-118.4900129400193691253662109375">
        <ele>2194.39990234375</ele>
        <time>2021-06-24T19:50:31.000Z</time>
        <extensions>
          <ns3:TrackPointExtension>
            <ns3:atemp>32.0</ns3:atemp>
            <ns3:hr>122</ns3:hr>
          </ns3:TrackPointExtension>
        </extensions>
      </trkpt>
      <trkpt lat="36.7729888670146465301513671875" lon="-118.48998653702437877655029296875">
        <ele>2194.800048828125</ele>
        <time>2021-06-24T19:50:33.000Z</time>
        <extensions>
          <ns3:TrackPointExtension>
            <ns3:atemp>32.0</ns3:atemp>
            <ns3:hr>122</ns3:hr>
          </ns3:TrackPointExtension>
        </extensions>
      </trkpt>
      <trkpt lat="36.77298811264336109161376953125" lon="-118.489957116544246673583984375">
        <ele>2195</ele>
        <time>2021-06-24T19:50:36.000Z</time>
        <extensions>
          <ns3:TrackPointExtension>
            <ns3:atemp>32.0</ns3:atemp>
            <ns3:hr>124</ns3:hr>
          </ns3:TrackPointExtension>
        </extensions>
      </trkpt>
      <trkpt lat="36.7729888670146465301513671875" lon="-118.4899559430778026580810546875">
        <ele>2195</ele>
        <time>2021-06-24T19:50:37.000Z</time>
        <extensions>
          <ns3:TrackPointExtension>
            <ns3:atemp>32.0</ns3:atemp>
            <ns3:hr>124</ns3:hr>
          </ns3:TrackPointExtension>
        </extensions>
      </trkpt>
      <trkpt lat="36.77298928610980510711669921875" lon="-118.4899515844881534576416015625">
        <ele>2195.199951171875</ele>
        <time>2021-06-24T19:50:38.000Z</time>
        <extensions>
          <ns3:TrackPointExtension>
            <ns3:atemp>32.0</ns3:atemp>
            <ns3:hr>124</ns3:hr>
          </ns3:TrackPointExtension>
        </extensions>
      </trkpt>
      <trkpt lat="36.77299800328910350799560546875" lon="-118.48993490450084209442138671875">
        <ele>2195.39990234375</ele>
        <time>2021-06-24T19:50:40.000Z</time>
        <extensions>
          <ns3:TrackPointExtension>
            <ns3:atemp>32.0</ns3:atemp>
            <ns3:hr>126</ns3:hr>
          </ns3:TrackPointExtension>
        </extensions>
      </trkpt>
      <trkpt lat="36.77300043404102325439453125" lon="-118.48992937244474887847900390625">
        <ele>2195.60009765625</ele>
        <time>2021-06-24T19:50:41.000Z</time>
        <extensions>
          <ns3:TrackPointExtension>
            <ns3:atemp>32.0</ns3:atemp>
            <ns3:hr>126</ns3:hr>
          </ns3:TrackPointExtension>
        </extensions>
      </trkpt>
      <trkpt lat="36.77300420589745044708251953125" lon="-118.48992652259767055511474609375">
        <ele>2196</ele>
        <time>2021-06-24T19:50:42.000Z</time>
        <extensions>
          <ns3:TrackPointExtension>
            <ns3:atemp>32.0</ns3:atemp>
            <ns3:hr>126</ns3:hr>
          </ns3:TrackPointExtension>
        </extensions>
      </trkpt>
      <trkpt lat="36.77300739102065563201904296875" lon="-118.48991830833256244659423828125">
        <ele>2196</ele>
        <time>2021-06-24T19:50:43.000Z</time>
        <extensions>
          <ns3:TrackPointExtension>
            <ns3:atemp>32.0</ns3:atemp>
            <ns3:hr>125</ns3:hr>
          </ns3:TrackPointExtension>
        </extensions>
      </trkpt>
      <trkpt lat="36.77302214317023754119873046875" lon="-118.48990825004875659942626953125">
        <ele>2196.199951171875</ele>
        <time>2021-06-24T19:50:45.000Z</time>
        <extensions>
          <ns3:TrackPointExtension>
            <ns3:atemp>32.0</ns3:atemp>
            <ns3:hr>123</ns3:hr>
          </ns3:TrackPointExtension>
        </extensions>
      </trkpt>
      <trkpt lat="36.77302985452115535736083984375" lon="-118.489918224513530731201171875">
        <ele>2196.199951171875</ele>
        <time>2021-06-24T19:50:47.000Z</time>
        <extensions>
          <ns3:TrackPointExtension>
            <ns3:atemp>32.0</ns3:atemp>
            <ns3:hr>122</ns3:hr>
          </ns3:TrackPointExtension>
        </extensions>
      </trkpt>
      <trkpt lat="36.7730425111949443817138671875" lon="-118.48991529084742069244384765625">
        <ele>2196.60009765625</ele>
        <time>2021-06-24T19:50:50.000Z</time>
        <extensions>
          <ns3:TrackPointExtension>
            <ns3:atemp>32.0</ns3:atemp>
            <ns3:hr>124</ns3:hr>
          </ns3:TrackPointExtension>
        </extensions>
      </trkpt>
      <trkpt lat="36.77304963581264019012451171875" lon="-118.48990472964942455291748046875">
        <ele>2197</ele>
        <time>2021-06-24T19:50:51.000Z</time>
        <extensions>
          <ns3:TrackPointExtension>
            <ns3:atemp>32.0</ns3:atemp>
            <ns3:hr>122</ns3:hr>
          </ns3:TrackPointExtension>
        </extensions>
      </trkpt>
      <trkpt lat="36.77307461388409137725830078125" lon="-118.48987321369349956512451171875">
        <ele>2197.199951171875</ele>
        <time>2021-06-24T19:50:54.000Z</time>
        <extensions>
          <ns3:TrackPointExtension>
            <ns3:atemp>32.0</ns3:atemp>
            <ns3:hr>119</ns3:hr>
          </ns3:TrackPointExtension>
        </extensions>
      </trkpt>
      <trkpt lat="36.7730763740837574005126953125" lon="-118.48986583761870861053466796875">
        <ele>2197.39990234375</ele>
        <time>2021-06-24T19:50:55.000Z</time>
        <extensions>
          <ns3:TrackPointExtension>
            <ns3:atemp>32.0</ns3:atemp>
            <ns3:hr>119</ns3:hr>
          </ns3:TrackPointExtension>
        </extensions>
      </trkpt>
      <trkpt lat="36.77308433689177036285400390625" lon="-118.48985276184976100921630859375">
        <ele>2198.199951171875</ele>
        <time>2021-06-24T19:50:58.000Z</time>
        <extensions>
          <ns3:TrackPointExtension>
            <ns3:atemp>32.0</ns3:atemp>
            <ns3:hr>117</ns3:hr>
          </ns3:TrackPointExtension>
        </extensions>
      </trkpt>
      <trkpt lat="36.7730958200991153717041015625" lon="-118.4898328967392444610595703125">
        <ele>2198.39990234375</ele>
        <time>2021-06-24T19:51:01.000Z</time>
        <extensions>
          <ns3:TrackPointExtension>
            <ns3:atemp>32.0</ns3:atemp>
            <ns3:hr>118</ns3:hr>
          </ns3:TrackPointExtension>
        </extensions>
      </trkpt>
      <trkpt lat="36.77312457002699375152587890625" lon="-118.48976827226579189300537109375">
        <ele>2199</ele>
        <time>2021-06-24T19:51:07.000Z</time>
        <extensions>
          <ns3:TrackPointExtension>
            <ns3:atemp>32.0</ns3:atemp>
            <ns3:hr>118</ns3:hr>
          </ns3:TrackPointExtension>
        </extensions>
      </trkpt>
      <trkpt lat="36.773130185902118682861328125" lon="-118.48975670523941516876220703125">
        <ele>2199.199951171875</ele>
        <time>2021-06-24T19:51:08.000Z</time>
        <extensions>
          <ns3:TrackPointExtension>
            <ns3:atemp>32.0</ns3:atemp>
            <ns3:hr>118</ns3:hr>
          </ns3:TrackPointExtension>
        </extensions>
      </trkpt>
      <trkpt lat="36.77313446067273616790771484375" lon="-118.48969786427915096282958984375">
        <ele>2199.60009765625</ele>
        <time>2021-06-24T19:51:13.000Z</time>
        <extensions>
          <ns3:TrackPointExtension>
            <ns3:atemp>32.0</ns3:atemp>
            <ns3:hr>117</ns3:hr>
          </ns3:TrackPointExtension>
        </extensions>
      </trkpt>
      <trkpt lat="36.77313177846372127532958984375" lon="-118.48957800306379795074462890625">
        <ele>2200.199951171875</ele>
        <time>2021-06-24T19:51:20.000Z</time>
        <extensions>
          <ns3:TrackPointExtension>
            <ns3:atemp>32.0</ns3:atemp>
            <ns3:hr>118</ns3:hr>
          </ns3:TrackPointExtension>
        </extensions>
      </trkpt>
      <trkpt lat="36.773129515349864959716796875" lon="-118.48956258036196231842041015625">
        <ele>2200.199951171875</ele>
        <time>2021-06-24T19:51:21.000Z</time>
        <extensions>
          <ns3:TrackPointExtension>
            <ns3:atemp>32.0</ns3:atemp>
            <ns3:hr>118</ns3:hr>
          </ns3:TrackPointExtension>
        </extensions>
      </trkpt>
      <trkpt lat="36.77311669103801250457763671875" lon="-118.48953475244343280792236328125">
        <ele>2200.60009765625</ele>
        <time>2021-06-24T19:51:23.000Z</time>
        <extensions>
          <ns3:TrackPointExtension>
            <ns3:atemp>32.0</ns3:atemp>
            <ns3:hr>121</ns3:hr>
          </ns3:TrackPointExtension>
        </extensions>
      </trkpt>
      <trkpt lat="36.7731132544577121734619140625" lon="-118.48950256593525409698486328125">
        <ele>2201</ele>
        <time>2021-06-24T19:51:25.000Z</time>
        <extensions>
          <ns3:TrackPointExtension>
            <ns3:atemp>32.0</ns3:atemp>
            <ns3:hr>124</ns3:hr>
          </ns3:TrackPointExtension>
        </extensions>
      </trkpt>
      <trkpt lat="36.77311400882899761199951171875" lon="-118.48948203027248382568359375">
        <ele>2201</ele>
        <time>2021-06-24T19:51:28.000Z</time>
        <extensions>
          <ns3:TrackPointExtension>
            <ns3:atemp>32.0</ns3:atemp>
            <ns3:hr>125</ns3:hr>
          </ns3:TrackPointExtension>
        </extensions>
      </trkpt>
      <trkpt lat="36.773110739886760711669921875" lon="-118.4894624166190624237060546875">
        <ele>2201.199951171875</ele>
        <time>2021-06-24T19:51:30.000Z</time>
        <extensions>
          <ns3:TrackPointExtension>
            <ns3:atemp>32.0</ns3:atemp>
            <ns3:hr>125</ns3:hr>
          </ns3:TrackPointExtension>
        </extensions>
      </trkpt>
      <trkpt lat="36.77311442792415618896484375" lon="-118.48945462144911289215087890625">
        <ele>2201.39990234375</ele>
        <time>2021-06-24T19:51:31.000Z</time>
        <extensions>
          <ns3:TrackPointExtension>
            <ns3:atemp>32.0</ns3:atemp>
            <ns3:hr>125</ns3:hr>
          </ns3:TrackPointExtension>
        </extensions>
      </trkpt>
      <trkpt lat="36.773120127618312835693359375" lon="-118.48942075856029987335205078125">
        <ele>2201.60009765625</ele>
        <time>2021-06-24T19:51:34.000Z</time>
        <extensions>
          <ns3:TrackPointExtension>
            <ns3:atemp>32.0</ns3:atemp>
            <ns3:hr>123</ns3:hr>
          </ns3:TrackPointExtension>
        </extensions>
      </trkpt>
      <trkpt lat="36.77311769686639308929443359375" lon="-118.48940684460103511810302734375">
        <ele>2201.60009765625</ele>
        <time>2021-06-24T19:51:35.000Z</time>
        <extensions>
          <ns3:TrackPointExtension>
            <ns3:atemp>32.0</ns3:atemp>
            <ns3:hr>123</ns3:hr>
          </ns3:TrackPointExtension>
        </extensions>
      </trkpt>
      <trkpt lat="36.7731191217899322509765625" lon="-118.48937566392123699188232421875">
        <ele>2201.800048828125</ele>
        <time>2021-06-24T19:51:38.000Z</time>
        <extensions>
          <ns3:TrackPointExtension>
            <ns3:atemp>32.0</ns3:atemp>
            <ns3:hr>125</ns3:hr>
          </ns3:TrackPointExtension>
        </extensions>
      </trkpt>
      <trkpt lat="36.7731015197932720184326171875" lon="-118.4893380291759967803955078125">
        <ele>2202.199951171875</ele>
        <time>2021-06-24T19:51:42.000Z</time>
        <extensions>
          <ns3:TrackPointExtension>
            <ns3:atemp>32.0</ns3:atemp>
            <ns3:hr>125</ns3:hr>
          </ns3:TrackPointExtension>
        </extensions>
      </trkpt>
      <trkpt lat="36.77309841848909854888916015625" lon="-118.4893311560153961181640625">
        <ele>2202.39990234375</ele>
        <time>2021-06-24T19:51:43.000Z</time>
        <extensions>
          <ns3:TrackPointExtension>
            <ns3:atemp>32.0</ns3:atemp>
            <ns3:hr>124</ns3:hr>
          </ns3:TrackPointExtension>
        </extensions>
      </trkpt>
      <trkpt lat="36.7730869352817535400390625" lon="-118.4892676211893558502197265625">
        <ele>2203</ele>
        <time>2021-06-24T19:51:49.000Z</time>
        <extensions>
          <ns3:TrackPointExtension>
            <ns3:atemp>32.0</ns3:atemp>
            <ns3:hr>123</ns3:hr>
          </ns3:TrackPointExtension>
        </extensions>
      </trkpt>
      <trkpt lat="36.7730706743896007537841796875" lon="-118.48922244273126125335693359375">
        <ele>2203.39990234375</ele>
        <time>2021-06-24T19:51:53.000Z</time>
        <extensions>
          <ns3:TrackPointExtension>
            <ns3:atemp>32.0</ns3:atemp>
            <ns3:hr>120</ns3:hr>
          </ns3:TrackPointExtension>
        </extensions>
      </trkpt>
      <trkpt lat="36.77306740544736385345458984375" lon="-118.48919092677533626556396484375">
        <ele>2203.60009765625</ele>
        <time>2021-06-24T19:51:55.000Z</time>
        <extensions>
          <ns3:TrackPointExtension>
            <ns3:atemp>32.0</ns3:atemp>
            <ns3:hr>120</ns3:hr>
          </ns3:TrackPointExtension>
        </extensions>
      </trkpt>
      <trkpt lat="36.773065812885761260986328125" lon="-118.4891569800674915313720703125">
        <ele>2203.60009765625</ele>
        <time>2021-06-24T19:51:57.000Z</time>
        <extensions>
          <ns3:TrackPointExtension>
            <ns3:atemp>32.0</ns3:atemp>
            <ns3:hr>118</ns3:hr>
          </ns3:TrackPointExtension>
        </extensions>
      </trkpt>
      <trkpt lat="36.77306757308542728424072265625" lon="-118.4891301579773426055908203125">
        <ele>2203.800048828125</ele>
        <time>2021-06-24T19:51:59.000Z</time>
        <extensions>
          <ns3:TrackPointExtension>
            <ns3:atemp>32.0</ns3:atemp>
            <ns3:hr>121</ns3:hr>
          </ns3:TrackPointExtension>
        </extensions>
      </trkpt>
      <trkpt lat="36.77306137047708034515380859375" lon="-118.4891190938651561737060546875">
        <ele>2203.800048828125</ele>
        <time>2021-06-24T19:52:00.000Z</time>
        <extensions>
          <ns3:TrackPointExtension>
            <ns3:atemp>32.0</ns3:atemp>
            <ns3:hr>124</ns3:hr>
          </ns3:TrackPointExtension>
        </extensions>
      </trkpt>
      <trkpt lat="36.77306153811514377593994140625" lon="-118.48910341970622539520263671875">
        <ele>2204</ele>
        <time>2021-06-24T19:52:02.000Z</time>
        <extensions>
          <ns3:TrackPointExtension>
            <ns3:atemp>32.0</ns3:atemp>
            <ns3:hr>121</ns3:hr>
          </ns3:TrackPointExtension>
        </extensions>
      </trkpt>
      <trkpt lat="36.77306220866739749908447265625" lon="-118.48905916325747966766357421875">
        <ele>2204.39990234375</ele>
        <time>2021-06-24T19:52:06.000Z</time>
        <extensions>
          <ns3:TrackPointExtension>
            <ns3:atemp>32.0</ns3:atemp>
            <ns3:hr>120</ns3:hr>
          </ns3:TrackPointExtension>
        </extensions>
      </trkpt>
      <trkpt lat="36.7730716802179813385009765625" lon="-118.48903167061507701873779296875">
        <ele>2204.800048828125</ele>
        <time>2021-06-24T19:52:09.000Z</time>
        <extensions>
          <ns3:TrackPointExtension>
            <ns3:atemp>32.0</ns3:atemp>
            <ns3:hr>120</ns3:hr>
          </ns3:TrackPointExtension>
        </extensions>
      </trkpt>
      <trkpt lat="36.7730441875755786895751953125" lon="-118.488962016999721527099609375">
        <ele>2205.60009765625</ele>
        <time>2021-06-24T19:52:16.000Z</time>
        <extensions>
          <ns3:TrackPointExtension>
            <ns3:atemp>32.0</ns3:atemp>
            <ns3:hr>120</ns3:hr>
          </ns3:TrackPointExtension>
        </extensions>
      </trkpt>
      <trkpt lat="36.7730467021465301513671875" lon="-118.4889481030404567718505859375">
        <ele>2205.800048828125</ele>
        <time>2021-06-24T19:52:18.000Z</time>
        <extensions>
          <ns3:TrackPointExtension>
            <ns3:atemp>32.0</ns3:atemp>
            <ns3:hr>119</ns3:hr>
          </ns3:TrackPointExtension>
        </extensions>
      </trkpt>
      <trkpt lat="36.77304527722299098968505859375" lon="-118.48887920379638671875">
        <ele>2206.39990234375</ele>
        <time>2021-06-24T19:52:24.000Z</time>
        <extensions>
          <ns3:TrackPointExtension>
            <ns3:atemp>32.0</ns3:atemp>
            <ns3:hr>118</ns3:hr>
          </ns3:TrackPointExtension>
        </extensions>
      </trkpt>
      <trkpt lat="36.7730388231575489044189453125" lon="-118.48882245831191539764404296875">
        <ele>2206.800048828125</ele>
        <time>2021-06-24T19:52:30.000Z</time>
        <extensions>
          <ns3:TrackPointExtension>
            <ns3:atemp>32.0</ns3:atemp>
            <ns3:hr>118</ns3:hr>
          </ns3:TrackPointExtension>
        </extensions>
      </trkpt>
      <trkpt lat="36.77305139601230621337890625" lon="-118.48877065815031528472900390625">
        <ele>2206.800048828125</ele>
        <time>2021-06-24T19:52:34.000Z</time>
        <extensions>
          <ns3:TrackPointExtension>
            <ns3:atemp>32.0</ns3:atemp>
            <ns3:hr>116</ns3:hr>
          </ns3:TrackPointExtension>
        </extensions>
      </trkpt>
      <trkpt lat="36.7730440199375152587890625" lon="-118.48872036673128604888916015625">
        <ele>2207</ele>
        <time>2021-06-24T19:52:37.000Z</time>
        <extensions>
          <ns3:TrackPointExtension>
            <ns3:atemp>32.0</ns3:atemp>
            <ns3:hr>113</ns3:hr>
          </ns3:TrackPointExtension>
        </extensions>
      </trkpt>
      <trkpt lat="36.77303798496723175048828125" lon="-118.48870025016367435455322265625">
        <ele>2207.199951171875</ele>
        <time>2021-06-24T19:52:38.000Z</time>
        <extensions>
          <ns3:TrackPointExtension>
            <ns3:atemp>32.0</ns3:atemp>
            <ns3:hr>112</ns3:hr>
          </ns3:TrackPointExtension>
        </extensions>
      </trkpt>
      <trkpt lat="36.77302566356956958770751953125" lon="-118.488681055605411529541015625">
        <ele>2207.39990234375</ele>
        <time>2021-06-24T19:52:39.000Z</time>
        <extensions>
          <ns3:TrackPointExtension>
            <ns3:atemp>32.0</ns3:atemp>
            <ns3:hr>110</ns3:hr>
          </ns3:TrackPointExtension>
        </extensions>
      </trkpt>
      <trkpt lat="36.77302264608442783355712890625" lon="-118.48863822408020496368408203125">
        <ele>2207.800048828125</ele>
        <time>2021-06-24T19:52:43.000Z</time>
        <extensions>
          <ns3:TrackPointExtension>
            <ns3:atemp>32.0</ns3:atemp>
            <ns3:hr>107</ns3:hr>
          </ns3:TrackPointExtension>
        </extensions>
      </trkpt>
      <trkpt lat="36.7730183713138103485107421875" lon="-118.48863185383379459381103515625">
        <ele>2208.199951171875</ele>
        <time>2021-06-24T19:52:45.000Z</time>
        <extensions>
          <ns3:TrackPointExtension>
            <ns3:atemp>32.0</ns3:atemp>
            <ns3:hr>111</ns3:hr>
          </ns3:TrackPointExtension>
        </extensions>
      </trkpt>
      <trkpt lat="36.7730207182466983795166015625" lon="-118.4886225499212741851806640625">
        <ele>2208.39990234375</ele>
        <time>2021-06-24T19:52:46.000Z</time>
        <extensions>
          <ns3:TrackPointExtension>
            <ns3:atemp>32.0</ns3:atemp>
            <ns3:hr>111</ns3:hr>
          </ns3:TrackPointExtension>
        </extensions>
      </trkpt>
      <trkpt lat="36.7730254121124744415283203125" lon="-118.48858793266117572784423828125">
        <ele>2208.39990234375</ele>
        <time>2021-06-24T19:52:49.000Z</time>
        <extensions>
          <ns3:TrackPointExtension>
            <ns3:atemp>32.0</ns3:atemp>
            <ns3:hr>114</ns3:hr>
          </ns3:TrackPointExtension>
        </extensions>
      </trkpt>
      <trkpt lat="36.77300822921097278594970703125" lon="-118.48852054215967655181884765625">
        <ele>2209</ele>
        <time>2021-06-24T19:52:53.000Z</time>
        <extensions>
          <ns3:TrackPointExtension>
            <ns3:atemp>32.0</ns3:atemp>
            <ns3:hr>114</ns3:hr>
          </ns3:TrackPointExtension>
        </extensions>
      </trkpt>
      <trkpt lat="36.7730083130300045013427734375" lon="-118.48849690519273281097412109375">
        <ele>2209</ele>
        <time>2021-06-24T19:52:55.000Z</time>
        <extensions>
          <ns3:TrackPointExtension>
            <ns3:atemp>32.0</ns3:atemp>
            <ns3:hr>114</ns3:hr>
          </ns3:TrackPointExtension>
        </extensions>
      </trkpt>
      <trkpt lat="36.77301124669611454010009765625" lon="-118.48846656270325183868408203125">
        <ele>2209</ele>
        <time>2021-06-24T19:52:58.000Z</time>
        <extensions>
          <ns3:TrackPointExtension>
            <ns3:atemp>32.0</ns3:atemp>
            <ns3:hr>111</ns3:hr>
          </ns3:TrackPointExtension>
        </extensions>
      </trkpt>
      <trkpt lat="36.7730089835822582244873046875" lon="-118.4884223900735378265380859375">
        <ele>2209</ele>
        <time>2021-06-24T19:53:02.000Z</time>
        <extensions>
          <ns3:TrackPointExtension>
            <ns3:atemp>32.0</ns3:atemp>
            <ns3:hr>110</ns3:hr>
          </ns3:TrackPointExtension>
        </extensions>
      </trkpt>
      <trkpt lat="36.77301426418125629425048828125" lon="-118.48840369842946529388427734375">
        <ele>2209</ele>
        <time>2021-06-24T19:53:05.000Z</time>
        <extensions>
          <ns3:TrackPointExtension>
            <ns3:atemp>32.0</ns3:atemp>
            <ns3:hr>111</ns3:hr>
          </ns3:TrackPointExtension>
        </extensions>
      </trkpt>
      <trkpt lat="36.77302180789411067962646484375" lon="-118.48838894627988338470458984375">
        <ele>2209</ele>
        <time>2021-06-24T19:53:07.000Z</time>
        <extensions>
          <ns3:TrackPointExtension>
            <ns3:atemp>32.0</ns3:atemp>
            <ns3:hr>109</ns3:hr>
          </ns3:TrackPointExtension>
        </extensions>
      </trkpt>
      <trkpt lat="36.77302298136055469512939453125" lon="-118.4883781336247920989990234375">
        <ele>2209</ele>
        <time>2021-06-24T19:53:08.000Z</time>
        <extensions>
          <ns3:TrackPointExtension>
            <ns3:atemp>32.0</ns3:atemp>
            <ns3:hr>109</ns3:hr>
          </ns3:TrackPointExtension>
        </extensions>
      </trkpt>
      <trkpt lat="36.77303287200629711151123046875" lon="-118.4883521497249603271484375">
        <ele>2209.39990234375</ele>
        <time>2021-06-24T19:53:11.000Z</time>
        <extensions>
          <ns3:TrackPointExtension>
            <ns3:atemp>32.0</ns3:atemp>
            <ns3:hr>109</ns3:hr>
          </ns3:TrackPointExtension>
        </extensions>
      </trkpt>
      <trkpt lat="36.77302784286439418792724609375" lon="-118.488315604627132415771484375">
        <ele>2209.60009765625</ele>
        <time>2021-06-24T19:53:14.000Z</time>
        <extensions>
          <ns3:TrackPointExtension>
            <ns3:atemp>32.0</ns3:atemp>
            <ns3:hr>106</ns3:hr>
          </ns3:TrackPointExtension>
        </extensions>
      </trkpt>
      <trkpt lat="36.77302717231214046478271484375" lon="-118.48829473368823528289794921875">
        <ele>2210</ele>
        <time>2021-06-24T19:53:16.000Z</time>
        <extensions>
          <ns3:TrackPointExtension>
            <ns3:atemp>32.0</ns3:atemp>
            <ns3:hr>104</ns3:hr>
          </ns3:TrackPointExtension>
        </extensions>
      </trkpt>
      <trkpt lat="36.77301577292382717132568359375" lon="-118.488275706768035888671875">
        <ele>2210.199951171875</ele>
        <time>2021-06-24T19:53:19.000Z</time>
        <extensions>
          <ns3:TrackPointExtension>
            <ns3:atemp>32.0</ns3:atemp>
            <ns3:hr>108</ns3:hr>
          </ns3:TrackPointExtension>
        </extensions>
      </trkpt>
      <trkpt lat="36.77301778458058834075927734375" lon="-118.4882430173456668853759765625">
        <ele>2210.60009765625</ele>
        <time>2021-06-24T19:53:21.000Z</time>
        <extensions>
          <ns3:TrackPointExtension>
            <ns3:atemp>32.0</ns3:atemp>
            <ns3:hr>107</ns3:hr>
          </ns3:TrackPointExtension>
        </extensions>
      </trkpt>
      <trkpt lat="36.77300889976322650909423828125" lon="-118.4882126748561859130859375">
        <ele>2211.199951171875</ele>
        <time>2021-06-24T19:53:23.000Z</time>
        <extensions>
          <ns3:TrackPointExtension>
            <ns3:atemp>32.0</ns3:atemp>
            <ns3:hr>105</ns3:hr>
          </ns3:TrackPointExtension>
        </extensions>
      </trkpt>
      <trkpt lat="36.77297604270279407501220703125" lon="-118.48814218305051326751708984375">
        <ele>2212</ele>
        <time>2021-06-24T19:53:30.000Z</time>
        <extensions>
          <ns3:TrackPointExtension>
            <ns3:atemp>31.0</ns3:atemp>
            <ns3:hr>103</ns3:hr>
          </ns3:TrackPointExtension>
        </extensions>
      </trkpt>
      <trkpt lat="36.77297067828476428985595703125" lon="-118.4881229884922504425048828125">
        <ele>2212.199951171875</ele>
        <time>2021-06-24T19:53:31.000Z</time>
        <extensions>
          <ns3:TrackPointExtension>
            <ns3:atemp>31.0</ns3:atemp>
            <ns3:hr>104</ns3:hr>
          </ns3:TrackPointExtension>
        </extensions>
      </trkpt>
      <trkpt lat="36.77296212874352931976318359375" lon="-118.4880892932415008544921875">
        <ele>2212.60009765625</ele>
        <time>2021-06-24T19:53:33.000Z</time>
        <extensions>
          <ns3:TrackPointExtension>
            <ns3:atemp>31.0</ns3:atemp>
            <ns3:hr>105</ns3:hr>
          </ns3:TrackPointExtension>
        </extensions>
      </trkpt>
      <trkpt lat="36.77294469438493251800537109375" lon="-118.488066829741001129150390625">
        <ele>2212.800048828125</ele>
        <time>2021-06-24T19:53:36.000Z</time>
        <extensions>
          <ns3:TrackPointExtension>
            <ns3:atemp>31.0</ns3:atemp>
            <ns3:hr>107</ns3:hr>
          </ns3:TrackPointExtension>
        </extensions>
      </trkpt>
      <trkpt lat="36.772943437099456787109375" lon="-118.48804729990661144256591796875">
        <ele>2213.199951171875</ele>
        <time>2021-06-24T19:53:40.000Z</time>
        <extensions>
          <ns3:TrackPointExtension>
            <ns3:atemp>31.0</ns3:atemp>
            <ns3:hr>109</ns3:hr>
          </ns3:TrackPointExtension>
        </extensions>
      </trkpt>
      <trkpt lat="36.77294251509010791778564453125" lon="-118.4880398400127887725830078125">
        <ele>2213.199951171875</ele>
        <time>2021-06-24T19:53:41.000Z</time>
        <extensions>
          <ns3:TrackPointExtension>
            <ns3:atemp>31.0</ns3:atemp>
            <ns3:hr>109</ns3:hr>
          </ns3:TrackPointExtension>
        </extensions>
      </trkpt>
      <trkpt lat="36.77294888533651828765869140625" lon="-118.488009832799434661865234375">
        <ele>2214</ele>
        <time>2021-06-24T19:53:45.000Z</time>
        <extensions>
          <ns3:TrackPointExtension>
            <ns3:atemp>31.0</ns3:atemp>
            <ns3:hr>112</ns3:hr>
          </ns3:TrackPointExtension>
        </extensions>
      </trkpt>
      <trkpt lat="36.77295139990746974945068359375" lon="-118.4879996068775653839111328125">
        <ele>2214</ele>
        <time>2021-06-24T19:53:46.000Z</time>
        <extensions>
          <ns3:TrackPointExtension>
            <ns3:atemp>31.0</ns3:atemp>
            <ns3:hr>112</ns3:hr>
          </ns3:TrackPointExtension>
        </extensions>
      </trkpt>
      <trkpt lat="36.77294737659394741058349609375" lon="-118.48797018639743328094482421875">
        <ele>2214.60009765625</ele>
        <time>2021-06-24T19:53:49.000Z</time>
        <extensions>
          <ns3:TrackPointExtension>
            <ns3:atemp>31.0</ns3:atemp>
            <ns3:hr>112</ns3:hr>
          </ns3:TrackPointExtension>
        </extensions>
      </trkpt>
      <trkpt lat="36.77294720895588397979736328125" lon="-118.48795627243816852569580078125">
        <ele>2214.800048828125</ele>
        <time>2021-06-24T19:53:50.000Z</time>
        <extensions>
          <ns3:TrackPointExtension>
            <ns3:atemp>31.0</ns3:atemp>
            <ns3:hr>112</ns3:hr>
          </ns3:TrackPointExtension>
        </extensions>
      </trkpt>
      <trkpt lat="36.77294603548943996429443359375" lon="-118.48794512450695037841796875">
        <ele>2214.800048828125</ele>
        <time>2021-06-24T19:53:51.000Z</time>
        <extensions>
          <ns3:TrackPointExtension>
            <ns3:atemp>31.0</ns3:atemp>
            <ns3:hr>113</ns3:hr>
          </ns3:TrackPointExtension>
        </extensions>
      </trkpt>
      <trkpt lat="36.77293916232883930206298828125" lon="-118.4879231639206409454345703125">
        <ele>2215</ele>
        <time>2021-06-24T19:53:53.000Z</time>
        <extensions>
          <ns3:TrackPointExtension>
            <ns3:atemp>31.0</ns3:atemp>
            <ns3:hr>113</ns3:hr>
          </ns3:TrackPointExtension>
        </extensions>
      </trkpt>
      <trkpt lat="36.77293983288109302520751953125" lon="-118.487898521125316619873046875">
        <ele>2215.199951171875</ele>
        <time>2021-06-24T19:53:55.000Z</time>
        <extensions>
          <ns3:TrackPointExtension>
            <ns3:atemp>31.0</ns3:atemp>
            <ns3:hr>113</ns3:hr>
          </ns3:TrackPointExtension>
        </extensions>
      </trkpt>
      <trkpt lat="36.7729338817298412322998046875" lon="-118.48789818584918975830078125">
        <ele>2215.199951171875</ele>
        <time>2021-06-24T19:53:56.000Z</time>
        <extensions>
          <ns3:TrackPointExtension>
            <ns3:atemp>31.0</ns3:atemp>
            <ns3:hr>113</ns3:hr>
          </ns3:TrackPointExtension>
        </extensions>
      </trkpt>
      <trkpt lat="36.77291921339929103851318359375" lon="-118.487879745662212371826171875">
        <ele>2215.60009765625</ele>
        <time>2021-06-24T19:53:59.000Z</time>
        <extensions>
          <ns3:TrackPointExtension>
            <ns3:atemp>31.0</ns3:atemp>
            <ns3:hr>113</ns3:hr>
          </ns3:TrackPointExtension>
        </extensions>
      </trkpt>
      <trkpt lat="36.7729285173118114471435546875" lon="-118.4878514148294925689697265625">
        <ele>2216.199951171875</ele>
        <time>2021-06-24T19:54:02.000Z</time>
        <extensions>
          <ns3:TrackPointExtension>
            <ns3:atemp>31.0</ns3:atemp>
            <ns3:hr>113</ns3:hr>
          </ns3:TrackPointExtension>
        </extensions>
      </trkpt>
      <trkpt lat="36.7729218117892742156982421875" lon="-118.48778980784118175506591796875">
        <ele>2216.60009765625</ele>
        <time>2021-06-24T19:54:07.000Z</time>
        <extensions>
          <ns3:TrackPointExtension>
            <ns3:atemp>31.0</ns3:atemp>
            <ns3:hr>113</ns3:hr>
          </ns3:TrackPointExtension>
        </extensions>
      </trkpt>
      <trkpt lat="36.77289842627942562103271484375" lon="-118.48776181228458881378173828125">
        <ele>2217.199951171875</ele>
        <time>2021-06-24T19:54:11.000Z</time>
        <extensions>
          <ns3:TrackPointExtension>
            <ns3:atemp>31.0</ns3:atemp>
            <ns3:hr>112</ns3:hr>
          </ns3:TrackPointExtension>
        </extensions>
      </trkpt>
      <trkpt lat="36.772896833717823028564453125" lon="-118.4877526760101318359375">
        <ele>2217.39990234375</ele>
        <time>2021-06-24T19:54:13.000Z</time>
        <extensions>
          <ns3:TrackPointExtension>
            <ns3:atemp>31.0</ns3:atemp>
            <ns3:hr>112</ns3:hr>
          </ns3:TrackPointExtension>
        </extensions>
      </trkpt>
      <trkpt lat="36.77289775572717189788818359375" lon="-118.48774756304919719696044921875">
        <ele>2217.60009765625</ele>
        <time>2021-06-24T19:54:14.000Z</time>
        <extensions>
          <ns3:TrackPointExtension>
            <ns3:atemp>31.0</ns3:atemp>
            <ns3:hr>112</ns3:hr>
          </ns3:TrackPointExtension>
        </extensions>
      </trkpt>
      <trkpt lat="36.77289943210780620574951171875" lon="-118.48772577010095119476318359375">
        <ele>2217.60009765625</ele>
        <time>2021-06-24T19:54:16.000Z</time>
        <extensions>
          <ns3:TrackPointExtension>
            <ns3:atemp>31.0</ns3:atemp>
            <ns3:hr>112</ns3:hr>
          </ns3:TrackPointExtension>
        </extensions>
      </trkpt>
      <trkpt lat="36.7728970013558864593505859375" lon="-118.48771403543651103973388671875">
        <ele>2217.800048828125</ele>
        <time>2021-06-24T19:54:17.000Z</time>
        <extensions>
          <ns3:TrackPointExtension>
            <ns3:atemp>31.0</ns3:atemp>
            <ns3:hr>112</ns3:hr>
          </ns3:TrackPointExtension>
        </extensions>
      </trkpt>
      <trkpt lat="36.77288199774920940399169921875" lon="-118.487700708210468292236328125">
        <ele>2218</ele>
        <time>2021-06-24T19:54:19.000Z</time>
        <extensions>
          <ns3:TrackPointExtension>
            <ns3:atemp>31.0</ns3:atemp>
            <ns3:hr>112</ns3:hr>
          </ns3:TrackPointExtension>
        </extensions>
      </trkpt>
      <trkpt lat="36.77287227474153041839599609375" lon="-118.48766148090362548828125">
        <ele>2218.60009765625</ele>
        <time>2021-06-24T19:54:25.000Z</time>
        <extensions>
          <ns3:TrackPointExtension>
            <ns3:atemp>31.0</ns3:atemp>
            <ns3:hr>111</ns3:hr>
          </ns3:TrackPointExtension>
        </extensions>
      </trkpt>
      <trkpt lat="36.77287965081632137298583984375" lon="-118.487626612186431884765625">
        <ele>2219</ele>
        <time>2021-06-24T19:54:29.000Z</time>
        <extensions>
          <ns3:TrackPointExtension>
            <ns3:atemp>31.0</ns3:atemp>
            <ns3:hr>111</ns3:hr>
          </ns3:TrackPointExtension>
        </extensions>
      </trkpt>
      <trkpt lat="36.77287529222667217254638671875" lon="-118.4876224212348461151123046875">
        <ele>2219.39990234375</ele>
        <time>2021-06-24T19:54:30.000Z</time>
        <extensions>
          <ns3:TrackPointExtension>
            <ns3:atemp>31.0</ns3:atemp>
            <ns3:hr>111</ns3:hr>
          </ns3:TrackPointExtension>
        </extensions>
      </trkpt>
      <trkpt lat="36.772901527583599090576171875" lon="-118.48755410872399806976318359375">
        <ele>2220</ele>
        <time>2021-06-24T19:54:36.000Z</time>
        <extensions>
          <ns3:TrackPointExtension>
            <ns3:atemp>31.0</ns3:atemp>
            <ns3:hr>113</ns3:hr>
          </ns3:TrackPointExtension>
        </extensions>
      </trkpt>
      <trkpt lat="36.77290027029812335968017578125" lon="-118.4875406138598918914794921875">
        <ele>2220.199951171875</ele>
        <time>2021-06-24T19:54:37.000Z</time>
        <extensions>
          <ns3:TrackPointExtension>
            <ns3:atemp>31.0</ns3:atemp>
            <ns3:hr>114</ns3:hr>
          </ns3:TrackPointExtension>
        </extensions>
      </trkpt>
      <trkpt lat="36.77288400940597057342529296875" lon="-118.487527035176753997802734375">
        <ele>2220.39990234375</ele>
        <time>2021-06-24T19:54:40.000Z</time>
        <extensions>
          <ns3:TrackPointExtension>
            <ns3:atemp>31.0</ns3:atemp>
            <ns3:hr>114</ns3:hr>
          </ns3:TrackPointExtension>
        </extensions>
      </trkpt>
      <trkpt lat="36.7728804051876068115234375" lon="-118.4874997101724147796630859375">
        <ele>2221</ele>
        <time>2021-06-24T19:54:44.000Z</time>
        <extensions>
          <ns3:TrackPointExtension>
            <ns3:atemp>31.0</ns3:atemp>
            <ns3:hr>114</ns3:hr>
          </ns3:TrackPointExtension>
        </extensions>
      </trkpt>
      <trkpt lat="36.77288333885371685028076171875" lon="-118.4874795936048030853271484375">
        <ele>2221.199951171875</ele>
        <time>2021-06-24T19:54:46.000Z</time>
        <extensions>
          <ns3:TrackPointExtension>
            <ns3:atemp>31.0</ns3:atemp>
            <ns3:hr>114</ns3:hr>
          </ns3:TrackPointExtension>
        </extensions>
      </trkpt>
      <trkpt lat="36.772884428501129150390625" lon="-118.487459979951381683349609375">
        <ele>2221.39990234375</ele>
        <time>2021-06-24T19:54:48.000Z</time>
        <extensions>
          <ns3:TrackPointExtension>
            <ns3:atemp>31.0</ns3:atemp>
            <ns3:hr>115</ns3:hr>
          </ns3:TrackPointExtension>
        </extensions>
      </trkpt>
      <trkpt lat="36.77288266830146312713623046875" lon="-118.48744883202016353607177734375">
        <ele>2221.60009765625</ele>
        <time>2021-06-24T19:54:50.000Z</time>
        <extensions>
          <ns3:TrackPointExtension>
            <ns3:atemp>31.0</ns3:atemp>
            <ns3:hr>114</ns3:hr>
          </ns3:TrackPointExtension>
        </extensions>
      </trkpt>
      <trkpt lat="36.7728845961391925811767578125" lon="-118.48743424750864505767822265625">
        <ele>2221.800048828125</ele>
        <time>2021-06-24T19:54:52.000Z</time>
        <extensions>
          <ns3:TrackPointExtension>
            <ns3:atemp>31.0</ns3:atemp>
            <ns3:hr>114</ns3:hr>
          </ns3:TrackPointExtension>
        </extensions>
      </trkpt>
      <trkpt lat="36.772886104881763458251953125" lon="-118.48741404712200164794921875">
        <ele>2222</ele>
        <time>2021-06-24T19:54:54.000Z</time>
        <extensions>
          <ns3:TrackPointExtension>
            <ns3:atemp>31.0</ns3:atemp>
            <ns3:hr>115</ns3:hr>
          </ns3:TrackPointExtension>
        </extensions>
      </trkpt>
      <trkpt lat="36.7729053832590579986572265625" lon="-118.487373478710651397705078125">
        <ele>2222</ele>
        <time>2021-06-24T19:54:57.000Z</time>
        <extensions>
          <ns3:TrackPointExtension>
            <ns3:atemp>31.0</ns3:atemp>
            <ns3:hr>115</ns3:hr>
          </ns3:TrackPointExtension>
        </extensions>
      </trkpt>
      <trkpt lat="36.77290462888777256011962890625" lon="-118.4873570501804351806640625">
        <ele>2222.199951171875</ele>
        <time>2021-06-24T19:54:59.000Z</time>
        <extensions>
          <ns3:TrackPointExtension>
            <ns3:atemp>31.0</ns3:atemp>
            <ns3:hr>115</ns3:hr>
          </ns3:TrackPointExtension>
        </extensions>
      </trkpt>
      <trkpt lat="36.77290764637291431427001953125" lon="-118.4873521886765956878662109375">
        <ele>2222.39990234375</ele>
        <time>2021-06-24T19:55:00.000Z</time>
        <extensions>
          <ns3:TrackPointExtension>
            <ns3:atemp>31.0</ns3:atemp>
            <ns3:hr>115</ns3:hr>
          </ns3:TrackPointExtension>
        </extensions>
      </trkpt>
      <trkpt lat="36.77290764637291431427001953125" lon="-118.48734539933502674102783203125">
        <ele>2222.39990234375</ele>
        <time>2021-06-24T19:55:01.000Z</time>
        <extensions>
          <ns3:TrackPointExtension>
            <ns3:atemp>31.0</ns3:atemp>
            <ns3:hr>114</ns3:hr>
          </ns3:TrackPointExtension>
        </extensions>
      </trkpt>
      <trkpt lat="36.77289172075688838958740234375" lon="-118.48731212317943572998046875">
        <ele>2222.800048828125</ele>
        <time>2021-06-24T19:55:04.000Z</time>
        <extensions>
          <ns3:TrackPointExtension>
            <ns3:atemp>31.0</ns3:atemp>
            <ns3:hr>114</ns3:hr>
          </ns3:TrackPointExtension>
        </extensions>
      </trkpt>
      <trkpt lat="36.7728819139301776885986328125" lon="-118.48730281926691532135009765625">
        <ele>2223</ele>
        <time>2021-06-24T19:55:06.000Z</time>
        <extensions>
          <ns3:TrackPointExtension>
            <ns3:atemp>31.0</ns3:atemp>
            <ns3:hr>114</ns3:hr>
          </ns3:TrackPointExtension>
        </extensions>
      </trkpt>
      <trkpt lat="36.77287328056991100311279296875" lon="-118.487311117351055145263671875">
        <ele>2222.800048828125</ele>
        <time>2021-06-24T19:55:08.000Z</time>
        <extensions>
          <ns3:TrackPointExtension>
            <ns3:atemp>31.0</ns3:atemp>
            <ns3:hr>114</ns3:hr>
          </ns3:TrackPointExtension>
        </extensions>
      </trkpt>
      <trkpt lat="36.7728758789598941802978515625" lon="-118.48730315454304218292236328125">
        <ele>2222.39990234375</ele>
        <time>2021-06-24T19:55:15.000Z</time>
        <extensions>
          <ns3:TrackPointExtension>
            <ns3:atemp>31.0</ns3:atemp>
            <ns3:hr>113</ns3:hr>
          </ns3:TrackPointExtension>
        </extensions>
      </trkpt>
      <trkpt lat="36.77287579514086246490478515625" lon="-118.48730407655239105224609375">
        <ele>2222.60009765625</ele>
        <time>2021-06-24T19:55:22.000Z</time>
        <extensions>
          <ns3:TrackPointExtension>
            <ns3:atemp>31.0</ns3:atemp>
            <ns3:hr>109</ns3:hr>
          </ns3:TrackPointExtension>
        </extensions>
      </trkpt>
      <trkpt lat="36.77287579514086246490478515625" lon="-118.48730407655239105224609375">
        <ele>2222.60009765625</ele>
        <time>2021-06-24T19:55:23.000Z</time>
        <extensions>
          <ns3:TrackPointExtension>
            <ns3:atemp>31.0</ns3:atemp>
            <ns3:hr>106</ns3:hr>
          </ns3:TrackPointExtension>
        </extensions>
      </trkpt>
      <trkpt lat="36.77287579514086246490478515625" lon="-118.48730407655239105224609375">
        <ele>2222.800048828125</ele>
        <time>2021-06-24T19:55:25.000Z</time>
        <extensions>
          <ns3:TrackPointExtension>
            <ns3:atemp>31.0</ns3:atemp>
            <ns3:hr>102</ns3:hr>
          </ns3:TrackPointExtension>
        </extensions>
      </trkpt>
      <trkpt lat="36.77287571132183074951171875" lon="-118.48730541765689849853515625">
        <ele>2222.800048828125</ele>
        <time>2021-06-24T19:55:27.000Z</time>
        <extensions>
          <ns3:TrackPointExtension>
            <ns3:atemp>31.0</ns3:atemp>
            <ns3:hr>96</ns3:hr>
          </ns3:TrackPointExtension>
        </extensions>
      </trkpt>
      <trkpt lat="36.77287545986473560333251953125" lon="-118.4873065911233425140380859375">
        <ele>2222.800048828125</ele>
        <time>2021-06-24T19:55:29.000Z</time>
        <extensions>
          <ns3:TrackPointExtension>
            <ns3:atemp>31.0</ns3:atemp>
            <ns3:hr>92</ns3:hr>
          </ns3:TrackPointExtension>
        </extensions>
      </trkpt>
      <trkpt lat="36.77287512458860874176025390625" lon="-118.4873089380562305450439453125">
        <ele>2222.800048828125</ele>
        <time>2021-06-24T19:55:31.000Z</time>
        <extensions>
          <ns3:TrackPointExtension>
            <ns3:atemp>31.0</ns3:atemp>
            <ns3:hr>88</ns3:hr>
          </ns3:TrackPointExtension>
        </extensions>
      </trkpt>
      <trkpt lat="36.77287378348410129547119140625" lon="-118.487311787903308868408203125">
        <ele>2222.800048828125</ele>
        <time>2021-06-24T19:55:32.000Z</time>
        <extensions>
          <ns3:TrackPointExtension>
            <ns3:atemp>31.0</ns3:atemp>
            <ns3:hr>87</ns3:hr>
          </ns3:TrackPointExtension>
        </extensions>
      </trkpt>
      <trkpt lat="36.772870011627674102783203125" lon="-118.4873153083026409149169921875">
        <ele>2222.800048828125</ele>
        <time>2021-06-24T19:55:34.000Z</time>
        <extensions>
          <ns3:TrackPointExtension>
            <ns3:atemp>31.0</ns3:atemp>
            <ns3:hr>83</ns3:hr>
          </ns3:TrackPointExtension>
        </extensions>
      </trkpt>
      <trkpt lat="36.7728587798774242401123046875" lon="-118.487327881157398223876953125">
        <ele>2222.800048828125</ele>
        <time>2021-06-24T19:55:38.000Z</time>
        <extensions>
          <ns3:TrackPointExtension>
            <ns3:atemp>31.0</ns3:atemp>
            <ns3:hr>80</ns3:hr>
          </ns3:TrackPointExtension>
        </extensions>
      </trkpt>
      <trkpt lat="36.77278988063335418701171875" lon="-118.48735378123819828033447265625">
        <ele>2222.800048828125</ele>
        <time>2021-06-24T19:56:05.000Z</time>
        <extensions>
          <ns3:TrackPointExtension>
            <ns3:atemp>31.0</ns3:atemp>
            <ns3:hr>83</ns3:hr>
          </ns3:TrackPointExtension>
        </extensions>
      </trkpt>
      <trkpt lat="36.77278493531048297882080078125" lon="-118.487354703247547149658203125">
        <ele>2223</ele>
        <time>2021-06-24T19:56:19.000Z</time>
        <extensions>
          <ns3:TrackPointExtension>
            <ns3:atemp>31.0</ns3:atemp>
            <ns3:hr>80</ns3:hr>
          </ns3:TrackPointExtension>
        </extensions>
      </trkpt>
      <trkpt lat="36.772782839834690093994140625" lon="-118.48735495470464229583740234375">
        <ele>2222.800048828125</ele>
        <time>2021-06-24T19:56:23.000Z</time>
        <extensions>
          <ns3:TrackPointExtension>
            <ns3:atemp>31.0</ns3:atemp>
            <ns3:hr>77</ns3:hr>
          </ns3:TrackPointExtension>
        </extensions>
      </trkpt>
      <trkpt lat="36.77277646958827972412109375" lon="-118.4873785078525543212890625">
        <ele>2223.39990234375</ele>
        <time>2021-06-24T19:56:29.000Z</time>
        <extensions>
          <ns3:TrackPointExtension>
            <ns3:atemp>31.0</ns3:atemp>
            <ns3:hr>80</ns3:hr>
          </ns3:TrackPointExtension>
        </extensions>
      </trkpt>
      <trkpt lat="36.7727719433605670928955078125" lon="-118.48738990724086761474609375">
        <ele>2223.39990234375</ele>
        <time>2021-06-24T19:56:33.000Z</time>
        <extensions>
          <ns3:TrackPointExtension>
            <ns3:atemp>31.0</ns3:atemp>
            <ns3:hr>83</ns3:hr>
          </ns3:TrackPointExtension>
        </extensions>
      </trkpt>
      <trkpt lat="36.7727592028677463531494140625" lon="-118.48739518783986568450927734375">
        <ele>2223.39990234375</ele>
        <time>2021-06-24T19:56:36.000Z</time>
        <extensions>
          <ns3:TrackPointExtension>
            <ns3:atemp>31.0</ns3:atemp>
            <ns3:hr>86</ns3:hr>
          </ns3:TrackPointExtension>
        </extensions>
      </trkpt>
      <trkpt lat="36.7727310396730899810791015625" lon="-118.48741614259779453277587890625">
        <ele>2223.39990234375</ele>
        <time>2021-06-24T19:56:47.000Z</time>
        <extensions>
          <ns3:TrackPointExtension>
            <ns3:atemp>31.0</ns3:atemp>
            <ns3:hr>85</ns3:hr>
          </ns3:TrackPointExtension>
        </extensions>
      </trkpt>
      <trkpt lat="36.7727290280163288116455078125" lon="-118.48741614259779453277587890625">
        <ele>2223.39990234375</ele>
        <time>2021-06-24T19:56:53.000Z</time>
        <extensions>
          <ns3:TrackPointExtension>
            <ns3:atemp>31.0</ns3:atemp>
            <ns3:hr>82</ns3:hr>
          </ns3:TrackPointExtension>
        </extensions>
      </trkpt>
      <trkpt lat="36.77272894419729709625244140625" lon="-118.4874142147600650787353515625">
        <ele>2223.39990234375</ele>
        <time>2021-06-24T19:56:55.000Z</time>
        <extensions>
          <ns3:TrackPointExtension>
            <ns3:atemp>31.0</ns3:atemp>
            <ns3:hr>79</ns3:hr>
          </ns3:TrackPointExtension>
        </extensions>
      </trkpt>
      <trkpt lat="36.77272894419729709625244140625" lon="-118.48741144873201847076416015625">
        <ele>2223.39990234375</ele>
        <time>2021-06-24T19:56:57.000Z</time>
        <extensions>
          <ns3:TrackPointExtension>
            <ns3:atemp>31.0</ns3:atemp>
            <ns3:hr>76</ns3:hr>
          </ns3:TrackPointExtension>
        </extensions>
      </trkpt>
      <trkpt lat="36.77273330278694629669189453125" lon="-118.48740407265722751617431640625">
        <ele>2223.39990234375</ele>
        <time>2021-06-24T19:57:06.000Z</time>
        <extensions>
          <ns3:TrackPointExtension>
            <ns3:atemp>31.0</ns3:atemp>
            <ns3:hr>73</ns3:hr>
          </ns3:TrackPointExtension>
        </extensions>
      </trkpt>
      <trkpt lat="36.77274025976657867431640625" lon="-118.4873999655246734619140625">
        <ele>2223.39990234375</ele>
        <time>2021-06-24T19:57:12.000Z</time>
        <extensions>
          <ns3:TrackPointExtension>
            <ns3:atemp>31.0</ns3:atemp>
            <ns3:hr>68</ns3:hr>
          </ns3:TrackPointExtension>
        </extensions>
      </trkpt>
      <trkpt lat="36.77276431582868099212646484375" lon="-118.4872727282345294952392578125">
        <ele>2223.39990234375</ele>
        <time>2021-06-24T19:57:27.000Z</time>
        <extensions>
          <ns3:TrackPointExtension>
            <ns3:atemp>31.0</ns3:atemp>
            <ns3:hr>65</ns3:hr>
          </ns3:TrackPointExtension>
        </extensions>
      </trkpt>
      <trkpt lat="36.7727548442780971527099609375" lon="-118.48723978735506534576416015625">
        <ele>2223.39990234375</ele>
        <time>2021-06-24T19:57:28.000Z</time>
        <extensions>
          <ns3:TrackPointExtension>
            <ns3:atemp>31.0</ns3:atemp>
            <ns3:hr>65</ns3:hr>
          </ns3:TrackPointExtension>
        </extensions>
      </trkpt>
      <trkpt lat="36.7727315425872802734375" lon="-118.48716250620782375335693359375">
        <ele>2223.39990234375</ele>
        <time>2021-06-24T19:57:32.000Z</time>
        <extensions>
          <ns3:TrackPointExtension>
            <ns3:atemp>31.0</ns3:atemp>
            <ns3:hr>66</ns3:hr>
          </ns3:TrackPointExtension>
        </extensions>
      </trkpt>
      <trkpt lat="36.77272810600697994232177734375" lon="-118.4871344268321990966796875">
        <ele>2224</ele>
        <time>2021-06-24T19:57:34.000Z</time>
        <extensions>
          <ns3:TrackPointExtension>
            <ns3:atemp>31.0</ns3:atemp>
            <ns3:hr>66</ns3:hr>
          </ns3:TrackPointExtension>
        </extensions>
      </trkpt>
      <trkpt lat="36.77271285094320774078369140625" lon="-118.487122356891632080078125">
        <ele>2224.199951171875</ele>
        <time>2021-06-24T19:57:38.000Z</time>
        <extensions>
          <ns3:TrackPointExtension>
            <ns3:atemp>31.0</ns3:atemp>
            <ns3:hr>65</ns3:hr>
          </ns3:TrackPointExtension>
        </extensions>
      </trkpt>
      <trkpt lat="36.77269709296524524688720703125" lon="-118.48709779791533946990966796875">
        <ele>2224.60009765625</ele>
        <time>2021-06-24T19:57:43.000Z</time>
        <extensions>
          <ns3:TrackPointExtension>
            <ns3:atemp>31.0</ns3:atemp>
            <ns3:hr>64</ns3:hr>
          </ns3:TrackPointExtension>
        </extensions>
      </trkpt>
      <trkpt lat="36.772687621414661407470703125" lon="-118.48708145320415496826171875">
        <ele>2224.60009765625</ele>
        <time>2021-06-24T19:57:45.000Z</time>
        <extensions>
          <ns3:TrackPointExtension>
            <ns3:atemp>31.0</ns3:atemp>
            <ns3:hr>64</ns3:hr>
          </ns3:TrackPointExtension>
        </extensions>
      </trkpt>
      <trkpt lat="36.772666163742542266845703125" lon="-118.487050943076610565185546875">
        <ele>2224.800048828125</ele>
        <time>2021-06-24T19:57:49.000Z</time>
        <extensions>
          <ns3:TrackPointExtension>
            <ns3:atemp>31.0</ns3:atemp>
            <ns3:hr>64</ns3:hr>
          </ns3:TrackPointExtension>
        </extensions>
      </trkpt>
      <trkpt lat="36.772664152085781097412109375" lon="-118.4870397113263607025146484375">
        <ele>2225</ele>
        <time>2021-06-24T19:57:50.000Z</time>
        <extensions>
          <ns3:TrackPointExtension>
            <ns3:atemp>31.0</ns3:atemp>
            <ns3:hr>65</ns3:hr>
          </ns3:TrackPointExtension>
        </extensions>
      </trkpt>
      <trkpt lat="36.77265644073486328125" lon="-118.4870088659226894378662109375">
        <ele>2225</ele>
        <time>2021-06-24T19:57:53.000Z</time>
        <extensions>
          <ns3:TrackPointExtension>
            <ns3:atemp>31.0</ns3:atemp>
            <ns3:hr>62</ns3:hr>
          </ns3:TrackPointExtension>
        </extensions>
      </trkpt>
      <trkpt lat="36.7726586200296878814697265625" lon="-118.4869860671460628509521484375">
        <ele>2225</ele>
        <time>2021-06-24T19:57:54.000Z</time>
        <extensions>
          <ns3:TrackPointExtension>
            <ns3:atemp>31.0</ns3:atemp>
            <ns3:hr>63</ns3:hr>
          </ns3:TrackPointExtension>
        </extensions>
      </trkpt>
      <trkpt lat="36.77266373299062252044677734375" lon="-118.48692462779581546783447265625">
        <ele>2225</ele>
        <time>2021-06-24T19:57:57.000Z</time>
        <extensions>
          <ns3:TrackPointExtension>
            <ns3:atemp>31.0</ns3:atemp>
            <ns3:hr>67</ns3:hr>
          </ns3:TrackPointExtension>
        </extensions>
      </trkpt>
      <trkpt lat="36.77266515791416168212890625" lon="-118.486883305013179779052734375">
        <ele>2225.39990234375</ele>
        <time>2021-06-24T19:57:59.000Z</time>
        <extensions>
          <ns3:TrackPointExtension>
            <ns3:atemp>31.0</ns3:atemp>
            <ns3:hr>66</ns3:hr>
          </ns3:TrackPointExtension>
        </extensions>
      </trkpt>
      <trkpt lat="36.772626601159572601318359375" lon="-118.48683930002152919769287109375">
        <ele>2225.39990234375</ele>
        <time>2021-06-24T19:58:05.000Z</time>
        <extensions>
          <ns3:TrackPointExtension>
            <ns3:atemp>31.0</ns3:atemp>
            <ns3:hr>66</ns3:hr>
          </ns3:TrackPointExtension>
        </extensions>
      </trkpt>
      <trkpt lat="36.77262215875089168548583984375" lon="-118.4868130646646022796630859375">
        <ele>2225.60009765625</ele>
        <time>2021-06-24T19:58:07.000Z</time>
        <extensions>
          <ns3:TrackPointExtension>
            <ns3:atemp>31.0</ns3:atemp>
            <ns3:hr>67</ns3:hr>
          </ns3:TrackPointExtension>
        </extensions>
      </trkpt>
      <trkpt lat="36.7726217396557331085205078125" lon="-118.48676889203488826751708984375">
        <ele>2225.800048828125</ele>
        <time>2021-06-24T19:58:10.000Z</time>
        <extensions>
          <ns3:TrackPointExtension>
            <ns3:atemp>31.0</ns3:atemp>
            <ns3:hr>65</ns3:hr>
          </ns3:TrackPointExtension>
        </extensions>
      </trkpt>
      <trkpt lat="36.7726126872003078460693359375" lon="-118.4867580793797969818115234375">
        <ele>2226</ele>
        <time>2021-06-24T19:58:11.000Z</time>
        <extensions>
          <ns3:TrackPointExtension>
            <ns3:atemp>31.0</ns3:atemp>
            <ns3:hr>67</ns3:hr>
          </ns3:TrackPointExtension>
        </extensions>
      </trkpt>
      <trkpt lat="36.77259684540331363677978515625" lon="-118.48675011657178401947021484375">
        <ele>2226</ele>
        <time>2021-06-24T19:58:12.000Z</time>
        <extensions>
          <ns3:TrackPointExtension>
            <ns3:atemp>31.0</ns3:atemp>
            <ns3:hr>68</ns3:hr>
          </ns3:TrackPointExtension>
        </extensions>
      </trkpt>
      <trkpt lat="36.77257857285439968109130859375" lon="-118.48673385567963123321533203125">
        <ele>2226</ele>
        <time>2021-06-24T19:58:14.000Z</time>
        <extensions>
          <ns3:TrackPointExtension>
            <ns3:atemp>31.0</ns3:atemp>
            <ns3:hr>71</ns3:hr>
          </ns3:TrackPointExtension>
        </extensions>
      </trkpt>
      <trkpt lat="36.7725748009979724884033203125" lon="-118.48672715015709400177001953125">
        <ele>2226</ele>
        <time>2021-06-24T19:58:15.000Z</time>
        <extensions>
          <ns3:TrackPointExtension>
            <ns3:atemp>31.0</ns3:atemp>
            <ns3:hr>77</ns3:hr>
          </ns3:TrackPointExtension>
        </extensions>
      </trkpt>
      <trkpt lat="36.77257019095122814178466796875" lon="-118.48671256564557552337646484375">
        <ele>2226</ele>
        <time>2021-06-24T19:58:16.000Z</time>
        <extensions>
          <ns3:TrackPointExtension>
            <ns3:atemp>31.0</ns3:atemp>
            <ns3:hr>80</ns3:hr>
          </ns3:TrackPointExtension>
        </extensions>
      </trkpt>
      <trkpt lat="36.7725665867328643798828125" lon="-118.48668842576444149017333984375">
        <ele>2226.199951171875</ele>
        <time>2021-06-24T19:58:18.000Z</time>
        <extensions>
          <ns3:TrackPointExtension>
            <ns3:atemp>31.0</ns3:atemp>
            <ns3:hr>80</ns3:hr>
          </ns3:TrackPointExtension>
        </extensions>
      </trkpt>
      <trkpt lat="36.7725647427141666412353515625" lon="-118.48665657453238964080810546875">
        <ele>2226.39990234375</ele>
        <time>2021-06-24T19:58:21.000Z</time>
        <extensions>
          <ns3:TrackPointExtension>
            <ns3:atemp>31.0</ns3:atemp>
            <ns3:hr>78</ns3:hr>
          </ns3:TrackPointExtension>
        </extensions>
      </trkpt>
      <trkpt lat="36.77256365306675434112548828125" lon="-118.48665037192404270172119140625">
        <ele>2226.60009765625</ele>
        <time>2021-06-24T19:58:24.000Z</time>
        <extensions>
          <ns3:TrackPointExtension>
            <ns3:atemp>31.0</ns3:atemp>
            <ns3:hr>76</ns3:hr>
          </ns3:TrackPointExtension>
        </extensions>
      </trkpt>
      <trkpt lat="36.77256801165640354156494140625" lon="-118.48662874661386013031005859375">
        <ele>2226.60009765625</ele>
        <time>2021-06-24T19:58:26.000Z</time>
        <extensions>
          <ns3:TrackPointExtension>
            <ns3:atemp>31.0</ns3:atemp>
            <ns3:hr>77</ns3:hr>
          </ns3:TrackPointExtension>
        </extensions>
      </trkpt>
      <trkpt lat="36.77254722453653812408447265625" lon="-118.48661743104457855224609375">
        <ele>2226.60009765625</ele>
        <time>2021-06-24T19:58:28.000Z</time>
        <extensions>
          <ns3:TrackPointExtension>
            <ns3:atemp>31.0</ns3:atemp>
            <ns3:hr>78</ns3:hr>
          </ns3:TrackPointExtension>
        </extensions>
      </trkpt>
      <trkpt lat="36.77253733389079570770263671875" lon="-118.486615754663944244384765625">
        <ele>2226.60009765625</ele>
        <time>2021-06-24T19:58:29.000Z</time>
        <extensions>
          <ns3:TrackPointExtension>
            <ns3:atemp>31.0</ns3:atemp>
            <ns3:hr>76</ns3:hr>
          </ns3:TrackPointExtension>
        </extensions>
      </trkpt>
      <trkpt lat="36.77251973189413547515869140625" lon="-118.4866051934659481048583984375">
        <ele>2226.800048828125</ele>
        <time>2021-06-24T19:58:31.000Z</time>
        <extensions>
          <ns3:TrackPointExtension>
            <ns3:atemp>31.0</ns3:atemp>
            <ns3:hr>76</ns3:hr>
          </ns3:TrackPointExtension>
        </extensions>
      </trkpt>
      <trkpt lat="36.772498190402984619140625" lon="-118.486585579812526702880859375">
        <ele>2227</ele>
        <time>2021-06-24T19:58:32.000Z</time>
        <extensions>
          <ns3:TrackPointExtension>
            <ns3:atemp>31.0</ns3:atemp>
            <ns3:hr>76</ns3:hr>
          </ns3:TrackPointExtension>
        </extensions>
      </trkpt>
      <trkpt lat="36.7724728770554065704345703125" lon="-118.48655582405626773834228515625">
        <ele>2227</ele>
        <time>2021-06-24T19:58:34.000Z</time>
        <extensions>
          <ns3:TrackPointExtension>
            <ns3:atemp>31.0</ns3:atemp>
            <ns3:hr>77</ns3:hr>
          </ns3:TrackPointExtension>
        </extensions>
      </trkpt>
      <trkpt lat="36.77245452068746089935302734375" lon="-118.486554734408855438232421875">
        <ele>2227.199951171875</ele>
        <time>2021-06-24T19:58:35.000Z</time>
        <extensions>
          <ns3:TrackPointExtension>
            <ns3:atemp>31.0</ns3:atemp>
            <ns3:hr>76</ns3:hr>
          </ns3:TrackPointExtension>
        </extensions>
      </trkpt>
      <trkpt lat="36.77244027145206928253173828125" lon="-118.48655113019049167633056640625">
        <ele>2227.39990234375</ele>
        <time>2021-06-24T19:58:36.000Z</time>
        <extensions>
          <ns3:TrackPointExtension>
            <ns3:atemp>31.0</ns3:atemp>
            <ns3:hr>76</ns3:hr>
          </ns3:TrackPointExtension>
        </extensions>
      </trkpt>
      <trkpt lat="36.7724118568003177642822265625" lon="-118.48655481822788715362548828125">
        <ele>2227.39990234375</ele>
        <time>2021-06-24T19:58:38.000Z</time>
        <extensions>
          <ns3:TrackPointExtension>
            <ns3:atemp>31.0</ns3:atemp>
            <ns3:hr>76</ns3:hr>
          </ns3:TrackPointExtension>
        </extensions>
      </trkpt>
      <trkpt lat="36.7723893932998180389404296875" lon="-118.48655247129499912261962890625">
        <ele>2227.199951171875</ele>
        <time>2021-06-24T19:58:40.000Z</time>
        <extensions>
          <ns3:TrackPointExtension>
            <ns3:atemp>31.0</ns3:atemp>
            <ns3:hr>75</ns3:hr>
          </ns3:TrackPointExtension>
        </extensions>
      </trkpt>
      <trkpt lat="36.77238444797694683074951171875" lon="-118.48653084598481655120849609375">
        <ele>2227.199951171875</ele>
        <time>2021-06-24T19:58:42.000Z</time>
        <extensions>
          <ns3:TrackPointExtension>
            <ns3:atemp>31.0</ns3:atemp>
            <ns3:hr>73</ns3:hr>
          </ns3:TrackPointExtension>
        </extensions>
      </trkpt>
      <trkpt lat="36.772377490997314453125" lon="-118.4865183569490909576416015625">
        <ele>2227.199951171875</ele>
        <time>2021-06-24T19:58:43.000Z</time>
        <extensions>
          <ns3:TrackPointExtension>
            <ns3:atemp>31.0</ns3:atemp>
            <ns3:hr>76</ns3:hr>
          </ns3:TrackPointExtension>
        </extensions>
      </trkpt>
      <trkpt lat="36.77237355150282382965087890625" lon="-118.4865056164562702178955078125">
        <ele>2227.199951171875</ele>
        <time>2021-06-24T19:58:44.000Z</time>
        <extensions>
          <ns3:TrackPointExtension>
            <ns3:atemp>31.0</ns3:atemp>
            <ns3:hr>77</ns3:hr>
          </ns3:TrackPointExtension>
        </extensions>
      </trkpt>
      <trkpt lat="36.77236634306609630584716796875" lon="-118.486492373049259185791015625">
        <ele>2227.199951171875</ele>
        <time>2021-06-24T19:58:45.000Z</time>
        <extensions>
          <ns3:TrackPointExtension>
            <ns3:atemp>31.0</ns3:atemp>
            <ns3:hr>77</ns3:hr>
          </ns3:TrackPointExtension>
        </extensions>
      </trkpt>
      <trkpt lat="36.77234304137527942657470703125" lon="-118.486428670585155487060546875">
        <ele>2227.800048828125</ele>
        <time>2021-06-24T19:58:50.000Z</time>
        <extensions>
          <ns3:TrackPointExtension>
            <ns3:atemp>31.0</ns3:atemp>
            <ns3:hr>77</ns3:hr>
          </ns3:TrackPointExtension>
        </extensions>
      </trkpt>
      <trkpt lat="36.77231571637094020843505859375" lon="-118.4864021837711334228515625">
        <ele>2228.199951171875</ele>
        <time>2021-06-24T19:58:53.000Z</time>
        <extensions>
          <ns3:TrackPointExtension>
            <ns3:atemp>31.0</ns3:atemp>
            <ns3:hr>76</ns3:hr>
          </ns3:TrackPointExtension>
        </extensions>
      </trkpt>
      <trkpt lat="36.77230716682970523834228515625" lon="-118.48637678660452365875244140625">
        <ele>2228.199951171875</ele>
        <time>2021-06-24T19:58:55.000Z</time>
        <extensions>
          <ns3:TrackPointExtension>
            <ns3:atemp>31.0</ns3:atemp>
            <ns3:hr>79</ns3:hr>
          </ns3:TrackPointExtension>
        </extensions>
      </trkpt>
      <trkpt lat="36.77227833308279514312744140625" lon="-118.4863389842212200164794921875">
        <ele>2228.800048828125</ele>
        <time>2021-06-24T19:58:58.000Z</time>
        <extensions>
          <ns3:TrackPointExtension>
            <ns3:atemp>31.0</ns3:atemp>
            <ns3:hr>75</ns3:hr>
          </ns3:TrackPointExtension>
        </extensions>
      </trkpt>
      <trkpt lat="36.7722673527896404266357421875" lon="-118.4863243997097015380859375">
        <ele>2228.800048828125</ele>
        <time>2021-06-24T19:58:59.000Z</time>
        <extensions>
          <ns3:TrackPointExtension>
            <ns3:atemp>31.0</ns3:atemp>
            <ns3:hr>78</ns3:hr>
          </ns3:TrackPointExtension>
        </extensions>
      </trkpt>
      <trkpt lat="36.7722559534013271331787109375" lon="-118.48631794564425945281982421875">
        <ele>2229.199951171875</ele>
        <time>2021-06-24T19:59:00.000Z</time>
        <extensions>
          <ns3:TrackPointExtension>
            <ns3:atemp>31.0</ns3:atemp>
            <ns3:hr>79</ns3:hr>
          </ns3:TrackPointExtension>
        </extensions>
      </trkpt>
      <trkpt lat="36.77224933169782161712646484375" lon="-118.486314676702022552490234375">
        <ele>2229.199951171875</ele>
        <time>2021-06-24T19:59:01.000Z</time>
        <extensions>
          <ns3:TrackPointExtension>
            <ns3:atemp>31.0</ns3:atemp>
            <ns3:hr>76</ns3:hr>
          </ns3:TrackPointExtension>
        </extensions>
      </trkpt>
      <trkpt lat="36.7722210846841335296630859375" lon="-118.4862689115107059478759765625">
        <ele>2230</ele>
        <time>2021-06-24T19:59:06.000Z</time>
        <extensions>
          <ns3:TrackPointExtension>
            <ns3:atemp>31.0</ns3:atemp>
            <ns3:hr>75</ns3:hr>
          </ns3:TrackPointExtension>
        </extensions>
      </trkpt>
      <trkpt lat="36.772198118269443511962890625" lon="-118.4862441010773181915283203125">
        <ele>2230</ele>
        <time>2021-06-24T19:59:10.000Z</time>
        <extensions>
          <ns3:TrackPointExtension>
            <ns3:atemp>31.0</ns3:atemp>
            <ns3:hr>78</ns3:hr>
          </ns3:TrackPointExtension>
        </extensions>
      </trkpt>
      <trkpt lat="36.77219065837562084197998046875" lon="-118.48624200560152530670166015625">
        <ele>2229.60009765625</ele>
        <time>2021-06-24T19:59:11.000Z</time>
        <extensions>
          <ns3:TrackPointExtension>
            <ns3:atemp>31.0</ns3:atemp>
            <ns3:hr>80</ns3:hr>
          </ns3:TrackPointExtension>
        </extensions>
      </trkpt>
      <trkpt lat="36.77215813659131526947021484375" lon="-118.48624016158282756805419921875">
        <ele>2230</ele>
        <time>2021-06-24T19:59:15.000Z</time>
        <extensions>
          <ns3:TrackPointExtension>
            <ns3:atemp>31.0</ns3:atemp>
            <ns3:hr>78</ns3:hr>
          </ns3:TrackPointExtension>
        </extensions>
      </trkpt>
      <trkpt lat="36.7721439711749553680419921875" lon="-118.4862223081290721893310546875">
        <ele>2230.39990234375</ele>
        <time>2021-06-24T19:59:17.000Z</time>
        <extensions>
          <ns3:TrackPointExtension>
            <ns3:atemp>31.0</ns3:atemp>
            <ns3:hr>79</ns3:hr>
          </ns3:TrackPointExtension>
        </extensions>
      </trkpt>
      <trkpt lat="36.7721372656524181365966796875" lon="-118.48621484823524951934814453125">
        <ele>2230.60009765625</ele>
        <time>2021-06-24T19:59:18.000Z</time>
        <extensions>
          <ns3:TrackPointExtension>
            <ns3:atemp>31.0</ns3:atemp>
            <ns3:hr>77</ns3:hr>
          </ns3:TrackPointExtension>
        </extensions>
      </trkpt>
      <trkpt lat="36.7721359245479106903076171875" lon="-118.486208058893680572509765625">
        <ele>2231.199951171875</ele>
        <time>2021-06-24T19:59:19.000Z</time>
        <extensions>
          <ns3:TrackPointExtension>
            <ns3:atemp>31.0</ns3:atemp>
            <ns3:hr>82</ns3:hr>
          </ns3:TrackPointExtension>
        </extensions>
      </trkpt>
      <trkpt lat="36.772114969789981842041015625" lon="-118.486171178519725799560546875">
        <ele>2231.39990234375</ele>
        <time>2021-06-24T19:59:25.000Z</time>
        <extensions>
          <ns3:TrackPointExtension>
            <ns3:atemp>31.0</ns3:atemp>
            <ns3:hr>79</ns3:hr>
          </ns3:TrackPointExtension>
        </extensions>
      </trkpt>
      <trkpt lat="36.7721054144203662872314453125" lon="-118.48615785129368305206298828125">
        <ele>2231.800048828125</ele>
        <time>2021-06-24T19:59:27.000Z</time>
        <extensions>
          <ns3:TrackPointExtension>
            <ns3:atemp>31.0</ns3:atemp>
            <ns3:hr>78</ns3:hr>
          </ns3:TrackPointExtension>
        </extensions>
      </trkpt>
      <trkpt lat="36.7720759101212024688720703125" lon="-118.48611644469201564788818359375">
        <ele>2233</ele>
        <time>2021-06-24T19:59:31.000Z</time>
        <extensions>
          <ns3:TrackPointExtension>
            <ns3:atemp>31.0</ns3:atemp>
            <ns3:hr>79</ns3:hr>
          </ns3:TrackPointExtension>
        </extensions>
      </trkpt>
      <trkpt lat="36.77207029424607753753662109375" lon="-118.4861079789698123931884765625">
        <ele>2233</ele>
        <time>2021-06-24T19:59:32.000Z</time>
        <extensions>
          <ns3:TrackPointExtension>
            <ns3:atemp>31.0</ns3:atemp>
            <ns3:hr>79</ns3:hr>
          </ns3:TrackPointExtension>
        </extensions>
      </trkpt>
      <trkpt lat="36.7720095254480838775634765625" lon="-118.4860776364803314208984375">
        <ele>2233.60009765625</ele>
        <time>2021-06-24T19:59:41.000Z</time>
        <extensions>
          <ns3:TrackPointExtension>
            <ns3:atemp>31.0</ns3:atemp>
            <ns3:hr>80</ns3:hr>
          </ns3:TrackPointExtension>
        </extensions>
      </trkpt>
      <trkpt lat="36.771990247070789337158203125" lon="-118.486006222665309906005859375">
        <ele>2234</ele>
        <time>2021-06-24T19:59:48.000Z</time>
        <extensions>
          <ns3:TrackPointExtension>
            <ns3:atemp>31.0</ns3:atemp>
            <ns3:hr>80</ns3:hr>
          </ns3:TrackPointExtension>
        </extensions>
      </trkpt>
      <trkpt lat="36.771991252899169921875" lon="-118.48599239252507686614990234375">
        <ele>2234</ele>
        <time>2021-06-24T19:59:49.000Z</time>
        <extensions>
          <ns3:TrackPointExtension>
            <ns3:atemp>31.0</ns3:atemp>
            <ns3:hr>80</ns3:hr>
          </ns3:TrackPointExtension>
        </extensions>
      </trkpt>
      <trkpt lat="36.771996952593326568603515625" lon="-118.48592952825129032135009765625">
        <ele>2235.199951171875</ele>
        <time>2021-06-24T19:59:54.000Z</time>
        <extensions>
          <ns3:TrackPointExtension>
            <ns3:atemp>31.0</ns3:atemp>
            <ns3:hr>79</ns3:hr>
          </ns3:TrackPointExtension>
        </extensions>
      </trkpt>
      <trkpt lat="36.77198664285242557525634765625" lon="-118.4859118424355983734130859375">
        <ele>2235.199951171875</ele>
        <time>2021-06-24T19:59:56.000Z</time>
        <extensions>
          <ns3:TrackPointExtension>
            <ns3:atemp>31.0</ns3:atemp>
            <ns3:hr>79</ns3:hr>
          </ns3:TrackPointExtension>
        </extensions>
      </trkpt>
      <trkpt lat="36.77195797674357891082763671875" lon="-118.4858397580683231353759765625">
        <ele>2235.199951171875</ele>
        <time>2021-06-24T20:00:03.000Z</time>
        <extensions>
          <ns3:TrackPointExtension>
            <ns3:atemp>31.0</ns3:atemp>
            <ns3:hr>82</ns3:hr>
          </ns3:TrackPointExtension>
        </extensions>
      </trkpt>
      <trkpt lat="36.77195529453456401824951171875" lon="-118.4858281910419464111328125">
        <ele>2235.199951171875</ele>
        <time>2021-06-24T20:00:04.000Z</time>
        <extensions>
          <ns3:TrackPointExtension>
            <ns3:atemp>31.0</ns3:atemp>
            <ns3:hr>81</ns3:hr>
          </ns3:TrackPointExtension>
        </extensions>
      </trkpt>
      <trkpt lat="36.77194892428815364837646484375" lon="-118.485790975391864776611328125">
        <ele>2235.60009765625</ele>
        <time>2021-06-24T20:00:07.000Z</time>
        <extensions>
          <ns3:TrackPointExtension>
            <ns3:atemp>31.0</ns3:atemp>
            <ns3:hr>78</ns3:hr>
          </ns3:TrackPointExtension>
        </extensions>
      </trkpt>
      <trkpt lat="36.77191682159900665283203125" lon="-118.4857623092830181121826171875">
        <ele>2235.60009765625</ele>
        <time>2021-06-24T20:00:10.000Z</time>
        <extensions>
          <ns3:TrackPointExtension>
            <ns3:atemp>31.0</ns3:atemp>
            <ns3:hr>82</ns3:hr>
          </ns3:TrackPointExtension>
        </extensions>
      </trkpt>
      <trkpt lat="36.77189980633556842803955078125" lon="-118.48575652576982975006103515625">
        <ele>2235.60009765625</ele>
        <time>2021-06-24T20:00:11.000Z</time>
        <extensions>
          <ns3:TrackPointExtension>
            <ns3:atemp>31.0</ns3:atemp>
            <ns3:hr>83</ns3:hr>
          </ns3:TrackPointExtension>
        </extensions>
      </trkpt>
      <trkpt lat="36.7718908376991748809814453125" lon="-118.4857408516108989715576171875">
        <ele>2235.39990234375</ele>
        <time>2021-06-24T20:00:12.000Z</time>
        <extensions>
          <ns3:TrackPointExtension>
            <ns3:atemp>31.0</ns3:atemp>
            <ns3:hr>86</ns3:hr>
          </ns3:TrackPointExtension>
        </extensions>
      </trkpt>
      <trkpt lat="36.77184683270752429962158203125" lon="-118.4856905601918697357177734375">
        <ele>2235.39990234375</ele>
        <time>2021-06-24T20:00:17.000Z</time>
        <extensions>
          <ns3:TrackPointExtension>
            <ns3:atemp>31.0</ns3:atemp>
            <ns3:hr>88</ns3:hr>
          </ns3:TrackPointExtension>
        </extensions>
      </trkpt>
      <trkpt lat="36.77182218991219997406005859375" lon="-118.48562258295714855194091796875">
        <ele>2236</ele>
        <time>2021-06-24T20:00:23.000Z</time>
        <extensions>
          <ns3:TrackPointExtension>
            <ns3:atemp>31.0</ns3:atemp>
            <ns3:hr>87</ns3:hr>
          </ns3:TrackPointExtension>
        </extensions>
      </trkpt>
      <trkpt lat="36.77180475555360317230224609375" lon="-118.48558553494513034820556640625">
        <ele>2236.199951171875</ele>
        <time>2021-06-24T20:00:25.000Z</time>
        <extensions>
          <ns3:TrackPointExtension>
            <ns3:atemp>31.0</ns3:atemp>
            <ns3:hr>86</ns3:hr>
          </ns3:TrackPointExtension>
        </extensions>
      </trkpt>
      <trkpt lat="36.771741807460784912109375" lon="-118.48555351607501506805419921875">
        <ele>2236.800048828125</ele>
        <time>2021-06-24T20:00:31.000Z</time>
        <extensions>
          <ns3:TrackPointExtension>
            <ns3:atemp>31.0</ns3:atemp>
            <ns3:hr>84</ns3:hr>
          </ns3:TrackPointExtension>
        </extensions>
      </trkpt>
      <trkpt lat="36.7716693878173828125" lon="-118.4855272807180881500244140625">
        <ele>2235.800048828125</ele>
        <time>2021-06-24T20:00:37.000Z</time>
        <extensions>
          <ns3:TrackPointExtension>
            <ns3:atemp>31.0</ns3:atemp>
            <ns3:hr>84</ns3:hr>
          </ns3:TrackPointExtension>
        </extensions>
      </trkpt>
      <trkpt lat="36.77164717577397823333740234375" lon="-118.48554614000022411346435546875">
        <ele>2235.199951171875</ele>
        <time>2021-06-24T20:00:40.000Z</time>
        <extensions>
          <ns3:TrackPointExtension>
            <ns3:atemp>31.0</ns3:atemp>
            <ns3:hr>87</ns3:hr>
          </ns3:TrackPointExtension>
        </extensions>
      </trkpt>
      <trkpt lat="36.77164189517498016357421875" lon="-118.485555611550807952880859375">
        <ele>2235.199951171875</ele>
        <time>2021-06-24T20:00:41.000Z</time>
        <extensions>
          <ns3:TrackPointExtension>
            <ns3:atemp>31.0</ns3:atemp>
            <ns3:hr>87</ns3:hr>
          </ns3:TrackPointExtension>
        </extensions>
      </trkpt>
      <trkpt lat="36.77163544110953807830810546875" lon="-118.48556893877685070037841796875">
        <ele>2235.199951171875</ele>
        <time>2021-06-24T20:00:42.000Z</time>
        <extensions>
          <ns3:TrackPointExtension>
            <ns3:atemp>31.0</ns3:atemp>
            <ns3:hr>89</ns3:hr>
          </ns3:TrackPointExtension>
        </extensions>
      </trkpt>
      <trkpt lat="36.7716251313686370849609375" lon="-118.48558234982192516326904296875">
        <ele>2235.199951171875</ele>
        <time>2021-06-24T20:00:43.000Z</time>
        <extensions>
          <ns3:TrackPointExtension>
            <ns3:atemp>31.0</ns3:atemp>
            <ns3:hr>92</ns3:hr>
          </ns3:TrackPointExtension>
        </extensions>
      </trkpt>
      <trkpt lat="36.771614737808704376220703125" lon="-118.48559475503861904144287109375">
        <ele>2235.199951171875</ele>
        <time>2021-06-24T20:00:45.000Z</time>
        <extensions>
          <ns3:TrackPointExtension>
            <ns3:atemp>31.0</ns3:atemp>
            <ns3:hr>95</ns3:hr>
          </ns3:TrackPointExtension>
        </extensions>
      </trkpt>
      <trkpt lat="36.77161331288516521453857421875" lon="-118.48559559322893619537353515625">
        <ele>2235.199951171875</ele>
        <time>2021-06-24T20:00:46.000Z</time>
        <extensions>
          <ns3:TrackPointExtension>
            <ns3:atemp>31.0</ns3:atemp>
            <ns3:hr>97</ns3:hr>
          </ns3:TrackPointExtension>
        </extensions>
      </trkpt>
      <trkpt lat="36.7715931124985218048095703125" lon="-118.485623337328433990478515625">
        <ele>2235.39990234375</ele>
        <time>2021-06-24T20:00:57.000Z</time>
        <extensions>
          <ns3:TrackPointExtension>
            <ns3:atemp>31.0</ns3:atemp>
            <ns3:hr>98</ns3:hr>
          </ns3:TrackPointExtension>
        </extensions>
      </trkpt>
      <trkpt lat="36.77155983634293079376220703125" lon="-118.48564605228602886199951171875">
        <ele>2235.60009765625</ele>
        <time>2021-06-24T20:01:06.000Z</time>
        <extensions>
          <ns3:TrackPointExtension>
            <ns3:atemp>30.0</ns3:atemp>
            <ns3:hr>98</ns3:hr>
          </ns3:TrackPointExtension>
        </extensions>
      </trkpt>
      <trkpt lat="36.7715468443930149078369140625" lon="-118.48566147498786449432373046875">
        <ele>2235.800048828125</ele>
        <time>2021-06-24T20:01:11.000Z</time>
        <extensions>
          <ns3:TrackPointExtension>
            <ns3:atemp>30.0</ns3:atemp>
            <ns3:hr>95</ns3:hr>
          </ns3:TrackPointExtension>
        </extensions>
      </trkpt>
      <trkpt lat="36.7715485207736492156982421875" lon="-118.4856687672436237335205078125">
        <ele>2236.199951171875</ele>
        <time>2021-06-24T20:01:14.000Z</time>
        <extensions>
          <ns3:TrackPointExtension>
            <ns3:atemp>30.0</ns3:atemp>
            <ns3:hr>93</ns3:hr>
          </ns3:TrackPointExtension>
        </extensions>
      </trkpt>
      <trkpt lat="36.77153837867081165313720703125" lon="-118.485682010650634765625">
        <ele>2236.39990234375</ele>
        <time>2021-06-24T20:01:20.000Z</time>
        <extensions>
          <ns3:TrackPointExtension>
            <ns3:atemp>30.0</ns3:atemp>
            <ns3:hr>95</ns3:hr>
          </ns3:TrackPointExtension>
        </extensions>
      </trkpt>
      <trkpt lat="36.77153837867081165313720703125" lon="-118.485682010650634765625">
        <ele>2236.39990234375</ele>
        <time>2021-06-24T20:01:22.000Z</time>
        <extensions>
          <ns3:TrackPointExtension>
            <ns3:atemp>30.0</ns3:atemp>
            <ns3:hr>98</ns3:hr>
          </ns3:TrackPointExtension>
        </extensions>
      </trkpt>
      <trkpt lat="36.77153837867081165313720703125" lon="-118.485682010650634765625">
        <ele>2236.800048828125</ele>
        <time>2021-06-24T20:01:28.000Z</time>
        <extensions>
          <ns3:TrackPointExtension>
            <ns3:atemp>30.0</ns3:atemp>
            <ns3:hr>95</ns3:hr>
          </ns3:TrackPointExtension>
        </extensions>
      </trkpt>
      <trkpt lat="36.77153837867081165313720703125" lon="-118.485682010650634765625">
        <ele>2237</ele>
        <time>2021-06-24T20:01:30.000Z</time>
        <extensions>
          <ns3:TrackPointExtension>
            <ns3:atemp>30.0</ns3:atemp>
            <ns3:hr>92</ns3:hr>
          </ns3:TrackPointExtension>
        </extensions>
      </trkpt>
      <trkpt lat="36.77153351716697216033935546875" lon="-118.48563381470739841461181640625">
        <ele>2237.199951171875</ele>
        <time>2021-06-24T20:01:34.000Z</time>
        <extensions>
          <ns3:TrackPointExtension>
            <ns3:atemp>30.0</ns3:atemp>
            <ns3:hr>88</ns3:hr>
          </ns3:TrackPointExtension>
        </extensions>
      </trkpt>
      <trkpt lat="36.77152982912957668304443359375" lon="-118.485617972910404205322265625">
        <ele>2237.199951171875</ele>
        <time>2021-06-24T20:01:35.000Z</time>
        <extensions>
          <ns3:TrackPointExtension>
            <ns3:atemp>30.0</ns3:atemp>
            <ns3:hr>88</ns3:hr>
          </ns3:TrackPointExtension>
        </extensions>
      </trkpt>
      <trkpt lat="36.77153058350086212158203125" lon="-118.48558084107935428619384765625">
        <ele>2237.199951171875</ele>
        <time>2021-06-24T20:01:37.000Z</time>
        <extensions>
          <ns3:TrackPointExtension>
            <ns3:atemp>30.0</ns3:atemp>
            <ns3:hr>90</ns3:hr>
          </ns3:TrackPointExtension>
        </extensions>
      </trkpt>
      <trkpt lat="36.771557740867137908935546875" lon="-118.485496602952480316162109375">
        <ele>2237</ele>
        <time>2021-06-24T20:01:41.000Z</time>
        <extensions>
          <ns3:TrackPointExtension>
            <ns3:atemp>30.0</ns3:atemp>
            <ns3:hr>88</ns3:hr>
          </ns3:TrackPointExtension>
        </extensions>
      </trkpt>
      <trkpt lat="36.7715793661773204803466796875" lon="-118.485472463071346282958984375">
        <ele>2237</ele>
        <time>2021-06-24T20:01:43.000Z</time>
        <extensions>
          <ns3:TrackPointExtension>
            <ns3:atemp>30.0</ns3:atemp>
            <ns3:hr>89</ns3:hr>
          </ns3:TrackPointExtension>
        </extensions>
      </trkpt>
      <trkpt lat="36.77159269340336322784423828125" lon="-118.48545880056917667388916015625">
        <ele>2237.199951171875</ele>
        <time>2021-06-24T20:01:44.000Z</time>
        <extensions>
          <ns3:TrackPointExtension>
            <ns3:atemp>30.0</ns3:atemp>
            <ns3:hr>89</ns3:hr>
          </ns3:TrackPointExtension>
        </extensions>
      </trkpt>
      <trkpt lat="36.7715956270694732666015625" lon="-118.4854446351528167724609375">
        <ele>2237</ele>
        <time>2021-06-24T20:01:45.000Z</time>
        <extensions>
          <ns3:TrackPointExtension>
            <ns3:atemp>30.0</ns3:atemp>
            <ns3:hr>94</ns3:hr>
          </ns3:TrackPointExtension>
        </extensions>
      </trkpt>
      <trkpt lat="36.77159621380269527435302734375" lon="-118.48543348722159862518310546875">
        <ele>2237</ele>
        <time>2021-06-24T20:01:46.000Z</time>
        <extensions>
          <ns3:TrackPointExtension>
            <ns3:atemp>30.0</ns3:atemp>
            <ns3:hr>94</ns3:hr>
          </ns3:TrackPointExtension>
        </extensions>
      </trkpt>
      <trkpt lat="36.771612055599689483642578125" lon="-118.48540197126567363739013671875">
        <ele>2237.199951171875</ele>
        <time>2021-06-24T20:01:50.000Z</time>
        <extensions>
          <ns3:TrackPointExtension>
            <ns3:atemp>30.0</ns3:atemp>
            <ns3:hr>91</ns3:hr>
          </ns3:TrackPointExtension>
        </extensions>
      </trkpt>
      <trkpt lat="36.77161130122840404510498046875" lon="-118.48540507256984710693359375">
        <ele>2237</ele>
        <time>2021-06-24T20:01:52.000Z</time>
        <extensions>
          <ns3:TrackPointExtension>
            <ns3:atemp>30.0</ns3:atemp>
            <ns3:hr>91</ns3:hr>
          </ns3:TrackPointExtension>
        </extensions>
      </trkpt>
      <trkpt lat="36.77160744555294513702392578125" lon="-118.48540247417986392974853515625">
        <ele>2237</ele>
        <time>2021-06-24T20:01:53.000Z</time>
        <extensions>
          <ns3:TrackPointExtension>
            <ns3:atemp>30.0</ns3:atemp>
            <ns3:hr>91</ns3:hr>
          </ns3:TrackPointExtension>
        </extensions>
      </trkpt>
      <trkpt lat="36.7716098763048648834228515625" lon="-118.48537380807101726531982421875">
        <ele>2237</ele>
        <time>2021-06-24T20:01:55.000Z</time>
        <extensions>
          <ns3:TrackPointExtension>
            <ns3:atemp>30.0</ns3:atemp>
            <ns3:hr>88</ns3:hr>
          </ns3:TrackPointExtension>
        </extensions>
      </trkpt>
      <trkpt lat="36.77158690989017486572265625" lon="-118.48533399403095245361328125">
        <ele>2236.800048828125</ele>
        <time>2021-06-24T20:02:01.000Z</time>
        <extensions>
          <ns3:TrackPointExtension>
            <ns3:atemp>30.0</ns3:atemp>
            <ns3:hr>88</ns3:hr>
          </ns3:TrackPointExtension>
        </extensions>
      </trkpt>
      <trkpt lat="36.77168942056596279144287109375" lon="-118.485350422561168670654296875">
        <ele>2237.39990234375</ele>
        <time>2021-06-24T20:51:09.000Z</time>
        <extensions>
          <ns3:TrackPointExtension>
            <ns3:atemp>29.0</ns3:atemp>
            <ns3:hr>79</ns3:hr>
          </ns3:TrackPointExtension>
        </extensions>
      </trkpt>
      <trkpt lat="36.77168975584208965301513671875" lon="-118.485351093113422393798828125">
        <ele>2237.39990234375</ele>
        <time>2021-06-24T20:51:10.000Z</time>
        <extensions>
          <ns3:TrackPointExtension>
            <ns3:atemp>29.0</ns3:atemp>
            <ns3:hr>79</ns3:hr>
          </ns3:TrackPointExtension>
        </extensions>
      </trkpt>
      <trkpt lat="36.7716895043849945068359375" lon="-118.48535167984664440155029296875">
        <ele>2237.39990234375</ele>
        <time>2021-06-24T20:51:13.000Z</time>
        <extensions>
          <ns3:TrackPointExtension>
            <ns3:atemp>29.0</ns3:atemp>
            <ns3:hr>76</ns3:hr>
          </ns3:TrackPointExtension>
        </extensions>
      </trkpt>
      <trkpt lat="36.771672405302524566650390625" lon="-118.485352098941802978515625">
        <ele>2237.60009765625</ele>
        <time>2021-06-24T20:51:18.000Z</time>
        <extensions>
          <ns3:TrackPointExtension>
            <ns3:atemp>29.0</ns3:atemp>
            <ns3:hr>73</ns3:hr>
          </ns3:TrackPointExtension>
        </extensions>
      </trkpt>
      <trkpt lat="36.7716102115809917449951171875" lon="-118.48532326519489288330078125">
        <ele>2237</ele>
        <time>2021-06-24T20:51:23.000Z</time>
        <extensions>
          <ns3:TrackPointExtension>
            <ns3:atemp>29.0</ns3:atemp>
            <ns3:hr>70</ns3:hr>
          </ns3:TrackPointExtension>
        </extensions>
      </trkpt>
      <trkpt lat="36.7715911008417606353759765625" lon="-118.4853140451014041900634765625">
        <ele>2237</ele>
        <time>2021-06-24T20:51:24.000Z</time>
        <extensions>
          <ns3:TrackPointExtension>
            <ns3:atemp>29.0</ns3:atemp>
            <ns3:hr>70</ns3:hr>
          </ns3:TrackPointExtension>
        </extensions>
      </trkpt>
      <trkpt lat="36.7715743370354175567626953125" lon="-118.4853100217878818511962890625">
        <ele>2237</ele>
        <time>2021-06-24T20:51:26.000Z</time>
        <extensions>
          <ns3:TrackPointExtension>
            <ns3:atemp>29.0</ns3:atemp>
            <ns3:hr>70</ns3:hr>
          </ns3:TrackPointExtension>
        </extensions>
      </trkpt>
      <trkpt lat="36.771553047001361846923828125" lon="-118.485287725925445556640625">
        <ele>2237</ele>
        <time>2021-06-24T20:51:30.000Z</time>
        <extensions>
          <ns3:TrackPointExtension>
            <ns3:atemp>29.0</ns3:atemp>
            <ns3:hr>71</ns3:hr>
          </ns3:TrackPointExtension>
        </extensions>
      </trkpt>
      <trkpt lat="36.7715250514447689056396484375" lon="-118.48529350943863391876220703125">
        <ele>2236.39990234375</ele>
        <time>2021-06-24T20:51:34.000Z</time>
        <extensions>
          <ns3:TrackPointExtension>
            <ns3:atemp>29.0</ns3:atemp>
            <ns3:hr>72</ns3:hr>
          </ns3:TrackPointExtension>
        </extensions>
      </trkpt>
      <trkpt lat="36.7715223692357540130615234375" lon="-118.48530071787536144256591796875">
        <ele>2236</ele>
        <time>2021-06-24T20:51:35.000Z</time>
        <extensions>
          <ns3:TrackPointExtension>
            <ns3:atemp>29.0</ns3:atemp>
            <ns3:hr>69</ns3:hr>
          </ns3:TrackPointExtension>
        </extensions>
      </trkpt>
      <trkpt lat="36.7715230397880077362060546875" lon="-118.48531312309205532073974609375">
        <ele>2236</ele>
        <time>2021-06-24T20:51:37.000Z</time>
        <extensions>
          <ns3:TrackPointExtension>
            <ns3:atemp>29.0</ns3:atemp>
            <ns3:hr>72</ns3:hr>
          </ns3:TrackPointExtension>
        </extensions>
      </trkpt>
      <trkpt lat="36.77152547053992748260498046875" lon="-118.48531664349138736724853515625">
        <ele>2236</ele>
        <time>2021-06-24T20:51:38.000Z</time>
        <extensions>
          <ns3:TrackPointExtension>
            <ns3:atemp>29.0</ns3:atemp>
            <ns3:hr>72</ns3:hr>
          </ns3:TrackPointExtension>
        </extensions>
      </trkpt>
      <trkpt lat="36.77151725627481937408447265625" lon="-118.48528764210641384124755859375">
        <ele>2235.800048828125</ele>
        <time>2021-06-24T20:51:43.000Z</time>
        <extensions>
          <ns3:TrackPointExtension>
            <ns3:atemp>29.0</ns3:atemp>
            <ns3:hr>73</ns3:hr>
          </ns3:TrackPointExtension>
        </extensions>
      </trkpt>
      <trkpt lat="36.77150200121104717254638671875" lon="-118.48524548113346099853515625">
        <ele>2235.60009765625</ele>
        <time>2021-06-24T20:51:47.000Z</time>
        <extensions>
          <ns3:TrackPointExtension>
            <ns3:atemp>29.0</ns3:atemp>
            <ns3:hr>76</ns3:hr>
          </ns3:TrackPointExtension>
        </extensions>
      </trkpt>
      <trkpt lat="36.7714977264404296875" lon="-118.48524154163897037506103515625">
        <ele>2235.60009765625</ele>
        <time>2021-06-24T20:51:48.000Z</time>
        <extensions>
          <ns3:TrackPointExtension>
            <ns3:atemp>29.0</ns3:atemp>
            <ns3:hr>75</ns3:hr>
          </ns3:TrackPointExtension>
        </extensions>
      </trkpt>
      <trkpt lat="36.77149697206914424896240234375" lon="-118.4852493368089199066162109375">
        <ele>2235.199951171875</ele>
        <time>2021-06-24T20:51:52.000Z</time>
        <extensions>
          <ns3:TrackPointExtension>
            <ns3:atemp>29.0</ns3:atemp>
            <ns3:hr>78</ns3:hr>
          </ns3:TrackPointExtension>
        </extensions>
      </trkpt>
      <trkpt lat="36.7715009115636348724365234375" lon="-118.4852258674800395965576171875">
        <ele>2235.199951171875</ele>
        <time>2021-06-24T20:51:54.000Z</time>
        <extensions>
          <ns3:TrackPointExtension>
            <ns3:atemp>29.0</ns3:atemp>
            <ns3:hr>78</ns3:hr>
          </ns3:TrackPointExtension>
        </extensions>
      </trkpt>
      <trkpt lat="36.77151449024677276611328125" lon="-118.48520516417920589447021484375">
        <ele>2234.800048828125</ele>
        <time>2021-06-24T20:51:56.000Z</time>
        <extensions>
          <ns3:TrackPointExtension>
            <ns3:atemp>29.0</ns3:atemp>
            <ns3:hr>79</ns3:hr>
          </ns3:TrackPointExtension>
        </extensions>
      </trkpt>
      <trkpt lat="36.77151977084577083587646484375" lon="-118.48517348058521747589111328125">
        <ele>2234</ele>
        <time>2021-06-24T20:51:59.000Z</time>
        <extensions>
          <ns3:TrackPointExtension>
            <ns3:atemp>29.0</ns3:atemp>
            <ns3:hr>78</ns3:hr>
          </ns3:TrackPointExtension>
        </extensions>
      </trkpt>
      <trkpt lat="36.77154424600303173065185546875" lon="-118.4851329959928989410400390625">
        <ele>2234</ele>
        <time>2021-06-24T20:52:05.000Z</time>
        <extensions>
          <ns3:TrackPointExtension>
            <ns3:atemp>29.0</ns3:atemp>
            <ns3:hr>79</ns3:hr>
          </ns3:TrackPointExtension>
        </extensions>
      </trkpt>
      <trkpt lat="36.771542988717555999755859375" lon="-118.48506837151944637298583984375">
        <ele>2233.800048828125</ele>
        <time>2021-06-24T20:52:09.000Z</time>
        <extensions>
          <ns3:TrackPointExtension>
            <ns3:atemp>29.0</ns3:atemp>
            <ns3:hr>76</ns3:hr>
          </ns3:TrackPointExtension>
        </extensions>
      </trkpt>
      <trkpt lat="36.77154458127915859222412109375" lon="-118.485052026808261871337890625">
        <ele>2233.800048828125</ele>
        <time>2021-06-24T20:52:11.000Z</time>
        <extensions>
          <ns3:TrackPointExtension>
            <ns3:atemp>29.0</ns3:atemp>
            <ns3:hr>78</ns3:hr>
          </ns3:TrackPointExtension>
        </extensions>
      </trkpt>
      <trkpt lat="36.77152790129184722900390625" lon="-118.48499293439090251922607421875">
        <ele>2234.199951171875</ele>
        <time>2021-06-24T20:52:16.000Z</time>
        <extensions>
          <ns3:TrackPointExtension>
            <ns3:atemp>29.0</ns3:atemp>
            <ns3:hr>76</ns3:hr>
          </ns3:TrackPointExtension>
        </extensions>
      </trkpt>
      <trkpt lat="36.77152094431221485137939453125" lon="-118.48496443592011928558349609375">
        <ele>2234.39990234375</ele>
        <time>2021-06-24T20:52:19.000Z</time>
        <extensions>
          <ns3:TrackPointExtension>
            <ns3:atemp>29.0</ns3:atemp>
            <ns3:hr>76</ns3:hr>
          </ns3:TrackPointExtension>
        </extensions>
      </trkpt>
      <trkpt lat="36.77150434814393520355224609375" lon="-118.48492085002362728118896484375">
        <ele>2234.39990234375</ele>
        <time>2021-06-24T20:52:21.000Z</time>
        <extensions>
          <ns3:TrackPointExtension>
            <ns3:atemp>29.0</ns3:atemp>
            <ns3:hr>77</ns3:hr>
          </ns3:TrackPointExtension>
        </extensions>
      </trkpt>
      <trkpt lat="36.771502755582332611083984375" lon="-118.4848840534687042236328125">
        <ele>2235</ele>
        <time>2021-06-24T20:52:24.000Z</time>
        <extensions>
          <ns3:TrackPointExtension>
            <ns3:atemp>29.0</ns3:atemp>
            <ns3:hr>78</ns3:hr>
          </ns3:TrackPointExtension>
        </extensions>
      </trkpt>
      <trkpt lat="36.77149680443108081817626953125" lon="-118.48485932685434818267822265625">
        <ele>2235.199951171875</ele>
        <time>2021-06-24T20:52:27.000Z</time>
        <extensions>
          <ns3:TrackPointExtension>
            <ns3:atemp>29.0</ns3:atemp>
            <ns3:hr>81</ns3:hr>
          </ns3:TrackPointExtension>
        </extensions>
      </trkpt>
      <trkpt lat="36.77150183357298374176025390625" lon="-118.48481875844299793243408203125">
        <ele>2235.39990234375</ele>
        <time>2021-06-24T20:52:33.000Z</time>
        <extensions>
          <ns3:TrackPointExtension>
            <ns3:atemp>29.0</ns3:atemp>
            <ns3:hr>79</ns3:hr>
          </ns3:TrackPointExtension>
        </extensions>
      </trkpt>
      <trkpt lat="36.77149563096463680267333984375" lon="-118.48478422500193119049072265625">
        <ele>2235.39990234375</ele>
        <time>2021-06-24T20:52:37.000Z</time>
        <extensions>
          <ns3:TrackPointExtension>
            <ns3:atemp>29.0</ns3:atemp>
            <ns3:hr>75</ns3:hr>
          </ns3:TrackPointExtension>
        </extensions>
      </trkpt>
      <trkpt lat="36.77149244584143161773681640625" lon="-118.48477366380393505096435546875">
        <ele>2235.39990234375</ele>
        <time>2021-06-24T20:52:39.000Z</time>
        <extensions>
          <ns3:TrackPointExtension>
            <ns3:atemp>29.0</ns3:atemp>
            <ns3:hr>76</ns3:hr>
          </ns3:TrackPointExtension>
        </extensions>
      </trkpt>
      <trkpt lat="36.77147828042507171630859375" lon="-118.4847579896450042724609375">
        <ele>2235.39990234375</ele>
        <time>2021-06-24T20:52:42.000Z</time>
        <extensions>
          <ns3:TrackPointExtension>
            <ns3:atemp>30.0</ns3:atemp>
            <ns3:hr>73</ns3:hr>
          </ns3:TrackPointExtension>
        </extensions>
      </trkpt>
      <trkpt lat="36.7714910209178924560546875" lon="-118.4847169183194637298583984375">
        <ele>2235.60009765625</ele>
        <time>2021-06-24T20:52:45.000Z</time>
        <extensions>
          <ns3:TrackPointExtension>
            <ns3:atemp>30.0</ns3:atemp>
            <ns3:hr>70</ns3:hr>
          </ns3:TrackPointExtension>
        </extensions>
      </trkpt>
      <trkpt lat="36.77148641087114810943603515625" lon="-118.4846206940710544586181640625">
        <ele>2235.60009765625</ele>
        <time>2021-06-24T20:52:52.000Z</time>
        <extensions>
          <ns3:TrackPointExtension>
            <ns3:atemp>30.0</ns3:atemp>
            <ns3:hr>71</ns3:hr>
          </ns3:TrackPointExtension>
        </extensions>
      </trkpt>
      <trkpt lat="36.7714781127870082855224609375" lon="-118.48459864966571331024169921875">
        <ele>2235.60009765625</ele>
        <time>2021-06-24T20:52:53.000Z</time>
        <extensions>
          <ns3:TrackPointExtension>
            <ns3:atemp>30.0</ns3:atemp>
            <ns3:hr>72</ns3:hr>
          </ns3:TrackPointExtension>
        </extensions>
      </trkpt>
      <trkpt lat="36.77147869952023029327392578125" lon="-118.48458138294517993927001953125">
        <ele>2236</ele>
        <time>2021-06-24T20:52:54.000Z</time>
        <extensions>
          <ns3:TrackPointExtension>
            <ns3:atemp>30.0</ns3:atemp>
            <ns3:hr>71</ns3:hr>
          </ns3:TrackPointExtension>
        </extensions>
      </trkpt>
      <trkpt lat="36.77146755158901214599609375" lon="-118.48453528247773647308349609375">
        <ele>2236</ele>
        <time>2021-06-24T20:52:57.000Z</time>
        <extensions>
          <ns3:TrackPointExtension>
            <ns3:atemp>30.0</ns3:atemp>
            <ns3:hr>72</ns3:hr>
          </ns3:TrackPointExtension>
        </extensions>
      </trkpt>
      <trkpt lat="36.7714700661599636077880859375" lon="-118.48450175486505031585693359375">
        <ele>2236.199951171875</ele>
        <time>2021-06-24T20:53:01.000Z</time>
        <extensions>
          <ns3:TrackPointExtension>
            <ns3:atemp>30.0</ns3:atemp>
            <ns3:hr>73</ns3:hr>
          </ns3:TrackPointExtension>
        </extensions>
      </trkpt>
      <trkpt lat="36.7714673839509487152099609375" lon="-118.48444744013249874114990234375">
        <ele>2236.60009765625</ele>
        <time>2021-06-24T20:53:05.000Z</time>
        <extensions>
          <ns3:TrackPointExtension>
            <ns3:atemp>30.0</ns3:atemp>
            <ns3:hr>72</ns3:hr>
          </ns3:TrackPointExtension>
        </extensions>
      </trkpt>
      <trkpt lat="36.77147752605378627777099609375" lon="-118.4843910299241542816162109375">
        <ele>2236.800048828125</ele>
        <time>2021-06-24T20:53:09.000Z</time>
        <extensions>
          <ns3:TrackPointExtension>
            <ns3:atemp>30.0</ns3:atemp>
            <ns3:hr>72</ns3:hr>
          </ns3:TrackPointExtension>
        </extensions>
      </trkpt>
      <trkpt lat="36.77147014997899532318115234375" lon="-118.48433562554419040679931640625">
        <ele>2237</ele>
        <time>2021-06-24T20:53:13.000Z</time>
        <extensions>
          <ns3:TrackPointExtension>
            <ns3:atemp>30.0</ns3:atemp>
            <ns3:hr>75</ns3:hr>
          </ns3:TrackPointExtension>
        </extensions>
      </trkpt>
      <trkpt lat="36.77147367037832736968994140625" lon="-118.4842912852764129638671875">
        <ele>2237.60009765625</ele>
        <time>2021-06-24T20:53:16.000Z</time>
        <extensions>
          <ns3:TrackPointExtension>
            <ns3:atemp>30.0</ns3:atemp>
            <ns3:hr>77</ns3:hr>
          </ns3:TrackPointExtension>
        </extensions>
      </trkpt>
      <trkpt lat="36.7714730836451053619384765625" lon="-118.48427695222198963165283203125">
        <ele>2237.39990234375</ele>
        <time>2021-06-24T20:53:17.000Z</time>
        <extensions>
          <ns3:TrackPointExtension>
            <ns3:atemp>30.0</ns3:atemp>
            <ns3:hr>78</ns3:hr>
          </ns3:TrackPointExtension>
        </extensions>
      </trkpt>
      <trkpt lat="36.77146193571388721466064453125" lon="-118.48422230221331119537353515625">
        <ele>2237.39990234375</ele>
        <time>2021-06-24T20:53:21.000Z</time>
        <extensions>
          <ns3:TrackPointExtension>
            <ns3:atemp>30.0</ns3:atemp>
            <ns3:hr>80</ns3:hr>
          </ns3:TrackPointExtension>
        </extensions>
      </trkpt>
      <trkpt lat="36.77144081331789493560791015625" lon="-118.48418676294386386871337890625">
        <ele>2237.39990234375</ele>
        <time>2021-06-24T20:53:26.000Z</time>
        <extensions>
          <ns3:TrackPointExtension>
            <ns3:atemp>30.0</ns3:atemp>
            <ns3:hr>80</ns3:hr>
          </ns3:TrackPointExtension>
        </extensions>
      </trkpt>
      <trkpt lat="36.77143402397632598876953125" lon="-118.4841724298894405364990234375">
        <ele>2237.60009765625</ele>
        <time>2021-06-24T20:53:27.000Z</time>
        <extensions>
          <ns3:TrackPointExtension>
            <ns3:atemp>30.0</ns3:atemp>
            <ns3:hr>80</ns3:hr>
          </ns3:TrackPointExtension>
        </extensions>
      </trkpt>
      <trkpt lat="36.77143025211989879608154296875" lon="-118.484149463474750518798828125">
        <ele>2237.60009765625</ele>
        <time>2021-06-24T20:53:30.000Z</time>
        <extensions>
          <ns3:TrackPointExtension>
            <ns3:atemp>30.0</ns3:atemp>
            <ns3:hr>79</ns3:hr>
          </ns3:TrackPointExtension>
        </extensions>
      </trkpt>
      <trkpt lat="36.77143880166113376617431640625" lon="-118.48411333747208118438720703125">
        <ele>2237.60009765625</ele>
        <time>2021-06-24T20:53:32.000Z</time>
        <extensions>
          <ns3:TrackPointExtension>
            <ns3:atemp>30.0</ns3:atemp>
            <ns3:hr>77</ns3:hr>
          </ns3:TrackPointExtension>
        </extensions>
      </trkpt>
      <trkpt lat="36.7714368738234043121337890625" lon="-118.4840981662273406982421875">
        <ele>2237.60009765625</ele>
        <time>2021-06-24T20:53:33.000Z</time>
        <extensions>
          <ns3:TrackPointExtension>
            <ns3:atemp>30.0</ns3:atemp>
            <ns3:hr>77</ns3:hr>
          </ns3:TrackPointExtension>
        </extensions>
      </trkpt>
      <trkpt lat="36.77144533954560756683349609375" lon="-118.48404527641832828521728515625">
        <ele>2237.199951171875</ele>
        <time>2021-06-24T20:53:36.000Z</time>
        <extensions>
          <ns3:TrackPointExtension>
            <ns3:atemp>30.0</ns3:atemp>
            <ns3:hr>73</ns3:hr>
          </ns3:TrackPointExtension>
        </extensions>
      </trkpt>
      <trkpt lat="36.77143804728984832763671875" lon="-118.484021387994289398193359375">
        <ele>2237.39990234375</ele>
        <time>2021-06-24T20:53:41.000Z</time>
        <extensions>
          <ns3:TrackPointExtension>
            <ns3:atemp>30.0</ns3:atemp>
            <ns3:hr>72</ns3:hr>
          </ns3:TrackPointExtension>
        </extensions>
      </trkpt>
      <trkpt lat="36.77144282497465610504150390625" lon="-118.4840171970427036285400390625">
        <ele>2237.39990234375</ele>
        <time>2021-06-24T20:53:43.000Z</time>
        <extensions>
          <ns3:TrackPointExtension>
            <ns3:atemp>30.0</ns3:atemp>
            <ns3:hr>71</ns3:hr>
          </ns3:TrackPointExtension>
        </extensions>
      </trkpt>
      <trkpt lat="36.7714197747409343719482421875" lon="-118.48397721536457538604736328125">
        <ele>2237.39990234375</ele>
        <time>2021-06-24T20:53:46.000Z</time>
        <extensions>
          <ns3:TrackPointExtension>
            <ns3:atemp>30.0</ns3:atemp>
            <ns3:hr>72</ns3:hr>
          </ns3:TrackPointExtension>
        </extensions>
      </trkpt>
      <trkpt lat="36.771387420594692230224609375" lon="-118.4839575178921222686767578125">
        <ele>2237.199951171875</ele>
        <time>2021-06-24T20:53:49.000Z</time>
        <extensions>
          <ns3:TrackPointExtension>
            <ns3:atemp>30.0</ns3:atemp>
            <ns3:hr>73</ns3:hr>
          </ns3:TrackPointExtension>
        </extensions>
      </trkpt>
      <trkpt lat="36.7713822238147258758544921875" lon="-118.48392046988010406494140625">
        <ele>2237.199951171875</ele>
        <time>2021-06-24T20:53:52.000Z</time>
        <extensions>
          <ns3:TrackPointExtension>
            <ns3:atemp>30.0</ns3:atemp>
            <ns3:hr>73</ns3:hr>
          </ns3:TrackPointExtension>
        </extensions>
      </trkpt>
      <trkpt lat="36.7713842354714870452880859375" lon="-118.48389607854187488555908203125">
        <ele>2236.800048828125</ele>
        <time>2021-06-24T20:53:54.000Z</time>
        <extensions>
          <ns3:TrackPointExtension>
            <ns3:atemp>30.0</ns3:atemp>
            <ns3:hr>74</ns3:hr>
          </ns3:TrackPointExtension>
        </extensions>
      </trkpt>
      <trkpt lat="36.77137979306280612945556640625" lon="-118.48380915820598602294921875">
        <ele>2236.800048828125</ele>
        <time>2021-06-24T20:53:58.000Z</time>
        <extensions>
          <ns3:TrackPointExtension>
            <ns3:atemp>30.0</ns3:atemp>
            <ns3:hr>71</ns3:hr>
          </ns3:TrackPointExtension>
        </extensions>
      </trkpt>
      <trkpt lat="36.771369315683841705322265625" lon="-118.483780324459075927734375">
        <ele>2236.60009765625</ele>
        <time>2021-06-24T20:53:59.000Z</time>
        <extensions>
          <ns3:TrackPointExtension>
            <ns3:atemp>30.0</ns3:atemp>
            <ns3:hr>75</ns3:hr>
          </ns3:TrackPointExtension>
        </extensions>
      </trkpt>
      <trkpt lat="36.77136294543743133544921875" lon="-118.4837546758353710174560546875">
        <ele>2236.60009765625</ele>
        <time>2021-06-24T20:54:00.000Z</time>
        <extensions>
          <ns3:TrackPointExtension>
            <ns3:atemp>30.0</ns3:atemp>
            <ns3:hr>73</ns3:hr>
          </ns3:TrackPointExtension>
        </extensions>
      </trkpt>
      <trkpt lat="36.7713634483516216278076171875" lon="-118.483737409114837646484375">
        <ele>2236.60009765625</ele>
        <time>2021-06-24T20:54:02.000Z</time>
        <extensions>
          <ns3:TrackPointExtension>
            <ns3:atemp>30.0</ns3:atemp>
            <ns3:hr>75</ns3:hr>
          </ns3:TrackPointExtension>
        </extensions>
      </trkpt>
      <trkpt lat="36.7713497020304203033447265625" lon="-118.48370547406375408172607421875">
        <ele>2236.800048828125</ele>
        <time>2021-06-24T20:54:05.000Z</time>
        <extensions>
          <ns3:TrackPointExtension>
            <ns3:atemp>30.0</ns3:atemp>
            <ns3:hr>76</ns3:hr>
          </ns3:TrackPointExtension>
        </extensions>
      </trkpt>
      <trkpt lat="36.771353892982006072998046875" lon="-118.48359868861734867095947265625">
        <ele>2237.199951171875</ele>
        <time>2021-06-24T20:54:11.000Z</time>
        <extensions>
          <ns3:TrackPointExtension>
            <ns3:atemp>30.0</ns3:atemp>
            <ns3:hr>77</ns3:hr>
          </ns3:TrackPointExtension>
        </extensions>
      </trkpt>
      <trkpt lat="36.7713587544858455657958984375" lon="-118.4835612215101718902587890625">
        <ele>2236.800048828125</ele>
        <time>2021-06-24T20:54:14.000Z</time>
        <extensions>
          <ns3:TrackPointExtension>
            <ns3:atemp>30.0</ns3:atemp>
            <ns3:hr>77</ns3:hr>
          </ns3:TrackPointExtension>
        </extensions>
      </trkpt>
      <trkpt lat="36.77137258462607860565185546875" lon="-118.483527861535549163818359375">
        <ele>2236.800048828125</ele>
        <time>2021-06-24T20:54:16.000Z</time>
        <extensions>
          <ns3:TrackPointExtension>
            <ns3:atemp>30.0</ns3:atemp>
            <ns3:hr>80</ns3:hr>
          </ns3:TrackPointExtension>
        </extensions>
      </trkpt>
      <trkpt lat="36.7713758535683155059814453125" lon="-118.48351017571985721588134765625">
        <ele>2236.800048828125</ele>
        <time>2021-06-24T20:54:17.000Z</time>
        <extensions>
          <ns3:TrackPointExtension>
            <ns3:atemp>30.0</ns3:atemp>
            <ns3:hr>77</ns3:hr>
          </ns3:TrackPointExtension>
        </extensions>
      </trkpt>
      <trkpt lat="36.77138146944344043731689453125" lon="-118.48348637111485004425048828125">
        <ele>2236.800048828125</ele>
        <time>2021-06-24T20:54:19.000Z</time>
        <extensions>
          <ns3:TrackPointExtension>
            <ns3:atemp>30.0</ns3:atemp>
            <ns3:hr>76</ns3:hr>
          </ns3:TrackPointExtension>
        </extensions>
      </trkpt>
      <trkpt lat="36.77138465456664562225341796875" lon="-118.4834727086126804351806640625">
        <ele>2236.800048828125</ele>
        <time>2021-06-24T20:54:20.000Z</time>
        <extensions>
          <ns3:TrackPointExtension>
            <ns3:atemp>30.0</ns3:atemp>
            <ns3:hr>77</ns3:hr>
          </ns3:TrackPointExtension>
        </extensions>
      </trkpt>
      <trkpt lat="36.77138901315629482269287109375" lon="-118.48346172831952571868896484375">
        <ele>2236.800048828125</ele>
        <time>2021-06-24T20:54:21.000Z</time>
        <extensions>
          <ns3:TrackPointExtension>
            <ns3:atemp>30.0</ns3:atemp>
            <ns3:hr>76</ns3:hr>
          </ns3:TrackPointExtension>
        </extensions>
      </trkpt>
      <trkpt lat="36.7714144103229045867919921875" lon="-118.48340204916894435882568359375">
        <ele>2236.60009765625</ele>
        <time>2021-06-24T20:54:25.000Z</time>
        <extensions>
          <ns3:TrackPointExtension>
            <ns3:atemp>30.0</ns3:atemp>
            <ns3:hr>76</ns3:hr>
          </ns3:TrackPointExtension>
        </extensions>
      </trkpt>
      <trkpt lat="36.771431677043437957763671875" lon="-118.4833831898868083953857421875">
        <ele>2236.60009765625</ele>
        <time>2021-06-24T20:54:26.000Z</time>
        <extensions>
          <ns3:TrackPointExtension>
            <ns3:atemp>30.0</ns3:atemp>
            <ns3:hr>75</ns3:hr>
          </ns3:TrackPointExtension>
        </extensions>
      </trkpt>
      <trkpt lat="36.77147735841572284698486328125" lon="-118.48329794593155384063720703125">
        <ele>2236.199951171875</ele>
        <time>2021-06-24T20:54:30.000Z</time>
        <extensions>
          <ns3:TrackPointExtension>
            <ns3:atemp>30.0</ns3:atemp>
            <ns3:hr>75</ns3:hr>
          </ns3:TrackPointExtension>
        </extensions>
      </trkpt>
      <trkpt lat="36.771475262939929962158203125" lon="-118.4832386858761310577392578125">
        <ele>2236.199951171875</ele>
        <time>2021-06-24T20:54:35.000Z</time>
        <extensions>
          <ns3:TrackPointExtension>
            <ns3:atemp>30.0</ns3:atemp>
            <ns3:hr>75</ns3:hr>
          </ns3:TrackPointExtension>
        </extensions>
      </trkpt>
      <trkpt lat="36.771472580730915069580078125" lon="-118.4832313098013401031494140625">
        <ele>2236</ele>
        <time>2021-06-24T20:54:36.000Z</time>
        <extensions>
          <ns3:TrackPointExtension>
            <ns3:atemp>30.0</ns3:atemp>
            <ns3:hr>75</ns3:hr>
          </ns3:TrackPointExtension>
        </extensions>
      </trkpt>
      <trkpt lat="36.77146981470286846160888671875" lon="-118.48319099284708499908447265625">
        <ele>2236</ele>
        <time>2021-06-24T20:54:40.000Z</time>
        <extensions>
          <ns3:TrackPointExtension>
            <ns3:atemp>30.0</ns3:atemp>
            <ns3:hr>75</ns3:hr>
          </ns3:TrackPointExtension>
        </extensions>
      </trkpt>
      <trkpt lat="36.77146880887448787689208984375" lon="-118.48310532979667186737060546875">
        <ele>2235.800048828125</ele>
        <time>2021-06-24T20:54:47.000Z</time>
        <extensions>
          <ns3:TrackPointExtension>
            <ns3:atemp>30.0</ns3:atemp>
            <ns3:hr>76</ns3:hr>
          </ns3:TrackPointExtension>
        </extensions>
      </trkpt>
      <trkpt lat="36.77145523019134998321533203125" lon="-118.48304330371320247650146484375">
        <ele>2234.800048828125</ele>
        <time>2021-06-24T20:54:53.000Z</time>
        <extensions>
          <ns3:TrackPointExtension>
            <ns3:atemp>30.0</ns3:atemp>
            <ns3:hr>76</ns3:hr>
          </ns3:TrackPointExtension>
        </extensions>
      </trkpt>
      <trkpt lat="36.77147216163575649261474609375" lon="-118.482938446104526519775390625">
        <ele>2233.60009765625</ele>
        <time>2021-06-24T20:55:01.000Z</time>
        <extensions>
          <ns3:TrackPointExtension>
            <ns3:atemp>30.0</ns3:atemp>
            <ns3:hr>73</ns3:hr>
          </ns3:TrackPointExtension>
        </extensions>
      </trkpt>
      <trkpt lat="36.77146847359836101531982421875" lon="-118.48290651105344295501708984375">
        <ele>2233.39990234375</ele>
        <time>2021-06-24T20:55:03.000Z</time>
        <extensions>
          <ns3:TrackPointExtension>
            <ns3:atemp>30.0</ns3:atemp>
            <ns3:hr>71</ns3:hr>
          </ns3:TrackPointExtension>
        </extensions>
      </trkpt>
      <trkpt lat="36.77146092988550662994384765625" lon="-118.48287130706012248992919921875">
        <ele>2232.60009765625</ele>
        <time>2021-06-24T20:55:08.000Z</time>
        <extensions>
          <ns3:TrackPointExtension>
            <ns3:atemp>30.0</ns3:atemp>
            <ns3:hr>70</ns3:hr>
          </ns3:TrackPointExtension>
        </extensions>
      </trkpt>
      <trkpt lat="36.7714650370180606842041015625" lon="-118.482857644557952880859375">
        <ele>2232.60009765625</ele>
        <time>2021-06-24T20:55:09.000Z</time>
        <extensions>
          <ns3:TrackPointExtension>
            <ns3:atemp>30.0</ns3:atemp>
            <ns3:hr>69</ns3:hr>
          </ns3:TrackPointExtension>
        </extensions>
      </trkpt>
      <trkpt lat="36.77146294154226779937744140625" lon="-118.4828410483896732330322265625">
        <ele>2232.60009765625</ele>
        <time>2021-06-24T20:55:10.000Z</time>
        <extensions>
          <ns3:TrackPointExtension>
            <ns3:atemp>30.0</ns3:atemp>
            <ns3:hr>69</ns3:hr>
          </ns3:TrackPointExtension>
        </extensions>
      </trkpt>
      <trkpt lat="36.77145271562039852142333984375" lon="-118.4828252904117107391357421875">
        <ele>2232.60009765625</ele>
        <time>2021-06-24T20:55:12.000Z</time>
        <extensions>
          <ns3:TrackPointExtension>
            <ns3:atemp>30.0</ns3:atemp>
            <ns3:hr>69</ns3:hr>
          </ns3:TrackPointExtension>
        </extensions>
      </trkpt>
      <trkpt lat="36.77145824767649173736572265625" lon="-118.48280467092990875244140625">
        <ele>2232.800048828125</ele>
        <time>2021-06-24T20:55:14.000Z</time>
        <extensions>
          <ns3:TrackPointExtension>
            <ns3:atemp>30.0</ns3:atemp>
            <ns3:hr>69</ns3:hr>
          </ns3:TrackPointExtension>
        </extensions>
      </trkpt>
      <trkpt lat="36.77143846638500690460205078125" lon="-118.48275479860603809356689453125">
        <ele>2233</ele>
        <time>2021-06-24T20:55:19.000Z</time>
        <extensions>
          <ns3:TrackPointExtension>
            <ns3:atemp>30.0</ns3:atemp>
            <ns3:hr>69</ns3:hr>
          </ns3:TrackPointExtension>
        </extensions>
      </trkpt>
      <trkpt lat="36.7714405618607997894287109375" lon="-118.48270081914961338043212890625">
        <ele>2232.800048828125</ele>
        <time>2021-06-24T20:55:24.000Z</time>
        <extensions>
          <ns3:TrackPointExtension>
            <ns3:atemp>30.0</ns3:atemp>
            <ns3:hr>69</ns3:hr>
          </ns3:TrackPointExtension>
        </extensions>
      </trkpt>
      <trkpt lat="36.7714419029653072357177734375" lon="-118.48268405534327030181884765625">
        <ele>2232.800048828125</ele>
        <time>2021-06-24T20:55:25.000Z</time>
        <extensions>
          <ns3:TrackPointExtension>
            <ns3:atemp>30.0</ns3:atemp>
            <ns3:hr>69</ns3:hr>
          </ns3:TrackPointExtension>
        </extensions>
      </trkpt>
      <trkpt lat="36.77145791240036487579345703125" lon="-118.48258632235229015350341796875">
        <ele>2232.60009765625</ele>
        <time>2021-06-24T20:55:30.000Z</time>
        <extensions>
          <ns3:TrackPointExtension>
            <ns3:atemp>30.0</ns3:atemp>
            <ns3:hr>68</ns3:hr>
          </ns3:TrackPointExtension>
        </extensions>
      </trkpt>
      <trkpt lat="36.77144768647849559783935546875" lon="-118.482522033154964447021484375">
        <ele>2232.39990234375</ele>
        <time>2021-06-24T20:55:34.000Z</time>
        <extensions>
          <ns3:TrackPointExtension>
            <ns3:atemp>30.0</ns3:atemp>
            <ns3:hr>67</ns3:hr>
          </ns3:TrackPointExtension>
        </extensions>
      </trkpt>
      <trkpt lat="36.77144316025078296661376953125" lon="-118.482501246035099029541015625">
        <ele>2232</ele>
        <time>2021-06-24T20:55:35.000Z</time>
        <extensions>
          <ns3:TrackPointExtension>
            <ns3:atemp>30.0</ns3:atemp>
            <ns3:hr>67</ns3:hr>
          </ns3:TrackPointExtension>
        </extensions>
      </trkpt>
      <trkpt lat="36.771458499133586883544921875" lon="-118.48247182555496692657470703125">
        <ele>2231.800048828125</ele>
        <time>2021-06-24T20:55:38.000Z</time>
        <extensions>
          <ns3:TrackPointExtension>
            <ns3:atemp>30.0</ns3:atemp>
            <ns3:hr>68</ns3:hr>
          </ns3:TrackPointExtension>
        </extensions>
      </trkpt>
      <trkpt lat="36.7714680545032024383544921875" lon="-118.4824578277766704559326171875">
        <ele>2231.800048828125</ele>
        <time>2021-06-24T20:55:40.000Z</time>
        <extensions>
          <ns3:TrackPointExtension>
            <ns3:atemp>30.0</ns3:atemp>
            <ns3:hr>69</ns3:hr>
          </ns3:TrackPointExtension>
        </extensions>
      </trkpt>
      <trkpt lat="36.7714774422347545623779296875" lon="-118.48243586719036102294921875">
        <ele>2231.800048828125</ele>
        <time>2021-06-24T20:55:42.000Z</time>
        <extensions>
          <ns3:TrackPointExtension>
            <ns3:atemp>30.0</ns3:atemp>
            <ns3:hr>70</ns3:hr>
          </ns3:TrackPointExtension>
        </extensions>
      </trkpt>
      <trkpt lat="36.7714744247496128082275390625" lon="-118.48241684027016162872314453125">
        <ele>2231.60009765625</ele>
        <time>2021-06-24T20:55:43.000Z</time>
        <extensions>
          <ns3:TrackPointExtension>
            <ns3:atemp>30.0</ns3:atemp>
            <ns3:hr>70</ns3:hr>
          </ns3:TrackPointExtension>
        </extensions>
      </trkpt>
      <trkpt lat="36.77147786132991313934326171875" lon="-118.48238624632358551025390625">
        <ele>2231.39990234375</ele>
        <time>2021-06-24T20:55:45.000Z</time>
        <extensions>
          <ns3:TrackPointExtension>
            <ns3:atemp>30.0</ns3:atemp>
            <ns3:hr>70</ns3:hr>
          </ns3:TrackPointExtension>
        </extensions>
      </trkpt>
      <trkpt lat="36.7714730836451053619384765625" lon="-118.48236344754695892333984375">
        <ele>2231.60009765625</ele>
        <time>2021-06-24T20:55:47.000Z</time>
        <extensions>
          <ns3:TrackPointExtension>
            <ns3:atemp>30.0</ns3:atemp>
            <ns3:hr>71</ns3:hr>
          </ns3:TrackPointExtension>
        </extensions>
      </trkpt>
      <trkpt lat="36.77146461792290210723876953125" lon="-118.48235196433961391448974609375">
        <ele>2231.60009765625</ele>
        <time>2021-06-24T20:55:48.000Z</time>
        <extensions>
          <ns3:TrackPointExtension>
            <ns3:atemp>30.0</ns3:atemp>
            <ns3:hr>71</ns3:hr>
          </ns3:TrackPointExtension>
        </extensions>
      </trkpt>
      <trkpt lat="36.77142237313091754913330078125" lon="-118.48226579837501049041748046875">
        <ele>2231.199951171875</ele>
        <time>2021-06-24T20:55:54.000Z</time>
        <extensions>
          <ns3:TrackPointExtension>
            <ns3:atemp>30.0</ns3:atemp>
            <ns3:hr>69</ns3:hr>
          </ns3:TrackPointExtension>
        </extensions>
      </trkpt>
      <trkpt lat="36.771412901580333709716796875" lon="-118.4822590090334415435791015625">
        <ele>2230.60009765625</ele>
        <time>2021-06-24T20:55:57.000Z</time>
        <extensions>
          <ns3:TrackPointExtension>
            <ns3:atemp>30.0</ns3:atemp>
            <ns3:hr>67</ns3:hr>
          </ns3:TrackPointExtension>
        </extensions>
      </trkpt>
      <trkpt lat="36.77141533233225345611572265625" lon="-118.4822603501379489898681640625">
        <ele>2230.60009765625</ele>
        <time>2021-06-24T20:55:59.000Z</time>
        <extensions>
          <ns3:TrackPointExtension>
            <ns3:atemp>30.0</ns3:atemp>
            <ns3:hr>64</ns3:hr>
          </ns3:TrackPointExtension>
        </extensions>
      </trkpt>
      <trkpt lat="36.77140845917165279388427734375" lon="-118.48224903456866741180419921875">
        <ele>2230.60009765625</ele>
        <time>2021-06-24T20:56:01.000Z</time>
        <extensions>
          <ns3:TrackPointExtension>
            <ns3:atemp>30.0</ns3:atemp>
            <ns3:hr>64</ns3:hr>
          </ns3:TrackPointExtension>
        </extensions>
      </trkpt>
      <trkpt lat="36.77139555104076862335205078125" lon="-118.48219446837902069091796875">
        <ele>2230.60009765625</ele>
        <time>2021-06-24T20:56:06.000Z</time>
        <extensions>
          <ns3:TrackPointExtension>
            <ns3:atemp>30.0</ns3:atemp>
            <ns3:hr>63</ns3:hr>
          </ns3:TrackPointExtension>
        </extensions>
      </trkpt>
      <trkpt lat="36.7713909409940242767333984375" lon="-118.48217896185815334320068359375">
        <ele>2230.60009765625</ele>
        <time>2021-06-24T20:56:07.000Z</time>
        <extensions>
          <ns3:TrackPointExtension>
            <ns3:atemp>30.0</ns3:atemp>
            <ns3:hr>63</ns3:hr>
          </ns3:TrackPointExtension>
        </extensions>
      </trkpt>
      <trkpt lat="36.77138599567115306854248046875" lon="-118.48216169513761997222900390625">
        <ele>2230.60009765625</ele>
        <time>2021-06-24T20:56:08.000Z</time>
        <extensions>
          <ns3:TrackPointExtension>
            <ns3:atemp>30.0</ns3:atemp>
            <ns3:hr>62</ns3:hr>
          </ns3:TrackPointExtension>
        </extensions>
      </trkpt>
      <trkpt lat="36.7713728360831737518310546875" lon="-118.48209748975932598114013671875">
        <ele>2230.60009765625</ele>
        <time>2021-06-24T20:56:13.000Z</time>
        <extensions>
          <ns3:TrackPointExtension>
            <ns3:atemp>30.0</ns3:atemp>
            <ns3:hr>62</ns3:hr>
          </ns3:TrackPointExtension>
        </extensions>
      </trkpt>
      <trkpt lat="36.77133553661406040191650390625" lon="-118.48194058053195476531982421875">
        <ele>2230.39990234375</ele>
        <time>2021-06-24T20:56:19.000Z</time>
        <extensions>
          <ns3:TrackPointExtension>
            <ns3:atemp>30.0</ns3:atemp>
            <ns3:hr>61</ns3:hr>
          </ns3:TrackPointExtension>
        </extensions>
      </trkpt>
      <trkpt lat="36.7713309265673160552978515625" lon="-118.4818907082080841064453125">
        <ele>2230.39990234375</ele>
        <time>2021-06-24T20:56:22.000Z</time>
        <extensions>
          <ns3:TrackPointExtension>
            <ns3:atemp>30.0</ns3:atemp>
            <ns3:hr>64</ns3:hr>
          </ns3:TrackPointExtension>
        </extensions>
      </trkpt>
      <trkpt lat="36.77131575532257556915283203125" lon="-118.48185919225215911865234375">
        <ele>2230.39990234375</ele>
        <time>2021-06-24T20:56:24.000Z</time>
        <extensions>
          <ns3:TrackPointExtension>
            <ns3:atemp>30.0</ns3:atemp>
            <ns3:hr>66</ns3:hr>
          </ns3:TrackPointExtension>
        </extensions>
      </trkpt>
      <trkpt lat="36.77131005562841892242431640625" lon="-118.48185508511960506439208984375">
        <ele>2230.39990234375</ele>
        <time>2021-06-24T20:56:25.000Z</time>
        <extensions>
          <ns3:TrackPointExtension>
            <ns3:atemp>30.0</ns3:atemp>
            <ns3:hr>66</ns3:hr>
          </ns3:TrackPointExtension>
        </extensions>
      </trkpt>
      <trkpt lat="36.7713113129138946533203125" lon="-118.48181426525115966796875">
        <ele>2230.39990234375</ele>
        <time>2021-06-24T20:56:28.000Z</time>
        <extensions>
          <ns3:TrackPointExtension>
            <ns3:atemp>30.0</ns3:atemp>
            <ns3:hr>67</ns3:hr>
          </ns3:TrackPointExtension>
        </extensions>
      </trkpt>
      <trkpt lat="36.77127351053059101104736328125" lon="-118.48171913065016269683837890625">
        <ele>2230.39990234375</ele>
        <time>2021-06-24T20:56:33.000Z</time>
        <extensions>
          <ns3:TrackPointExtension>
            <ns3:atemp>30.0</ns3:atemp>
            <ns3:hr>67</ns3:hr>
          </ns3:TrackPointExtension>
        </extensions>
      </trkpt>
      <trkpt lat="36.77127853967249393463134765625" lon="-118.4816964156925678253173828125">
        <ele>2230.39990234375</ele>
        <time>2021-06-24T20:56:35.000Z</time>
        <extensions>
          <ns3:TrackPointExtension>
            <ns3:atemp>30.0</ns3:atemp>
            <ns3:hr>68</ns3:hr>
          </ns3:TrackPointExtension>
        </extensions>
      </trkpt>
      <trkpt lat="36.771283484995365142822265625" lon="-118.48166280426084995269775390625">
        <ele>2230.800048828125</ele>
        <time>2021-06-24T20:56:37.000Z</time>
        <extensions>
          <ns3:TrackPointExtension>
            <ns3:atemp>30.0</ns3:atemp>
            <ns3:hr>69</ns3:hr>
          </ns3:TrackPointExtension>
        </extensions>
      </trkpt>
      <trkpt lat="36.771284155547618865966796875" lon="-118.4816548414528369903564453125">
        <ele>2230.800048828125</ele>
        <time>2021-06-24T20:56:38.000Z</time>
        <extensions>
          <ns3:TrackPointExtension>
            <ns3:atemp>30.0</ns3:atemp>
            <ns3:hr>69</ns3:hr>
          </ns3:TrackPointExtension>
        </extensions>
      </trkpt>
      <trkpt lat="36.77128356881439685821533203125" lon="-118.481634221971035003662109375">
        <ele>2231.199951171875</ele>
        <time>2021-06-24T20:56:41.000Z</time>
        <extensions>
          <ns3:TrackPointExtension>
            <ns3:atemp>30.0</ns3:atemp>
            <ns3:hr>70</ns3:hr>
          </ns3:TrackPointExtension>
        </extensions>
      </trkpt>
      <trkpt lat="36.7712883464992046356201171875" lon="-118.48161284811794757843017578125">
        <ele>2231.39990234375</ele>
        <time>2021-06-24T20:56:43.000Z</time>
        <extensions>
          <ns3:TrackPointExtension>
            <ns3:atemp>30.0</ns3:atemp>
            <ns3:hr>71</ns3:hr>
          </ns3:TrackPointExtension>
        </extensions>
      </trkpt>
      <trkpt lat="36.77128373645246028900146484375" lon="-118.48159206099808216094970703125">
        <ele>2231.800048828125</ele>
        <time>2021-06-24T20:56:44.000Z</time>
        <extensions>
          <ns3:TrackPointExtension>
            <ns3:atemp>30.0</ns3:atemp>
            <ns3:hr>71</ns3:hr>
          </ns3:TrackPointExtension>
        </extensions>
      </trkpt>
      <trkpt lat="36.77126982249319553375244140625" lon="-118.4815193898975849151611328125">
        <ele>2232.39990234375</ele>
        <time>2021-06-24T20:56:48.000Z</time>
        <extensions>
          <ns3:TrackPointExtension>
            <ns3:atemp>30.0</ns3:atemp>
            <ns3:hr>72</ns3:hr>
          </ns3:TrackPointExtension>
        </extensions>
      </trkpt>
      <trkpt lat="36.7712836526334285736083984375" lon="-118.48147940821945667266845703125">
        <ele>2232.800048828125</ele>
        <time>2021-06-24T20:56:52.000Z</time>
        <extensions>
          <ns3:TrackPointExtension>
            <ns3:atemp>30.0</ns3:atemp>
            <ns3:hr>76</ns3:hr>
          </ns3:TrackPointExtension>
        </extensions>
      </trkpt>
      <trkpt lat="36.77127501927316188812255859375" lon="-118.4814684279263019561767578125">
        <ele>2232.800048828125</ele>
        <time>2021-06-24T20:56:53.000Z</time>
        <extensions>
          <ns3:TrackPointExtension>
            <ns3:atemp>30.0</ns3:atemp>
            <ns3:hr>75</ns3:hr>
          </ns3:TrackPointExtension>
        </extensions>
      </trkpt>
      <trkpt lat="36.77126361988484859466552734375" lon="-118.48146147094666957855224609375">
        <ele>2233</ele>
        <time>2021-06-24T20:56:54.000Z</time>
        <extensions>
          <ns3:TrackPointExtension>
            <ns3:atemp>30.0</ns3:atemp>
            <ns3:hr>78</ns3:hr>
          </ns3:TrackPointExtension>
        </extensions>
      </trkpt>
      <trkpt lat="36.77125691436231136322021484375" lon="-118.481462560594081878662109375">
        <ele>2233.199951171875</ele>
        <time>2021-06-24T20:56:57.000Z</time>
        <extensions>
          <ns3:TrackPointExtension>
            <ns3:atemp>30.0</ns3:atemp>
            <ns3:hr>81</ns3:hr>
          </ns3:TrackPointExtension>
        </extensions>
      </trkpt>
      <trkpt lat="36.77125624381005764007568359375" lon="-118.48146088421344757080078125">
        <ele>2233.199951171875</ele>
        <time>2021-06-24T20:56:58.000Z</time>
        <extensions>
          <ns3:TrackPointExtension>
            <ns3:atemp>30.0</ns3:atemp>
            <ns3:hr>81</ns3:hr>
          </ns3:TrackPointExtension>
        </extensions>
      </trkpt>
      <trkpt lat="36.771233193576335906982421875" lon="-118.48145551979541778564453125">
        <ele>2234</ele>
        <time>2021-06-24T20:57:01.000Z</time>
        <extensions>
          <ns3:TrackPointExtension>
            <ns3:atemp>30.0</ns3:atemp>
            <ns3:hr>82</ns3:hr>
          </ns3:TrackPointExtension>
        </extensions>
      </trkpt>
      <trkpt lat="36.77122615277767181396484375" lon="-118.48143967799842357635498046875">
        <ele>2234.199951171875</ele>
        <time>2021-06-24T20:57:03.000Z</time>
        <extensions>
          <ns3:TrackPointExtension>
            <ns3:atemp>30.0</ns3:atemp>
            <ns3:hr>84</ns3:hr>
          </ns3:TrackPointExtension>
        </extensions>
      </trkpt>
      <trkpt lat="36.7712269909679889678955078125" lon="-118.48138016648590564727783203125">
        <ele>2234.60009765625</ele>
        <time>2021-06-24T20:57:07.000Z</time>
        <extensions>
          <ns3:TrackPointExtension>
            <ns3:atemp>30.0</ns3:atemp>
            <ns3:hr>85</ns3:hr>
          </ns3:TrackPointExtension>
        </extensions>
      </trkpt>
      <trkpt lat="36.77121969871222972869873046875" lon="-118.4813584573566913604736328125">
        <ele>2234.39990234375</ele>
        <time>2021-06-24T20:57:09.000Z</time>
        <extensions>
          <ns3:TrackPointExtension>
            <ns3:atemp>30.0</ns3:atemp>
            <ns3:hr>85</ns3:hr>
          </ns3:TrackPointExtension>
        </extensions>
      </trkpt>
      <trkpt lat="36.77121944725513458251953125" lon="-118.4813312999904155731201171875">
        <ele>2234.39990234375</ele>
        <time>2021-06-24T20:57:12.000Z</time>
        <extensions>
          <ns3:TrackPointExtension>
            <ns3:atemp>30.0</ns3:atemp>
            <ns3:hr>82</ns3:hr>
          </ns3:TrackPointExtension>
        </extensions>
      </trkpt>
      <trkpt lat="36.77122388966381549835205078125" lon="-118.48129450343549251556396484375">
        <ele>2234.199951171875</ele>
        <time>2021-06-24T20:57:15.000Z</time>
        <extensions>
          <ns3:TrackPointExtension>
            <ns3:atemp>30.0</ns3:atemp>
            <ns3:hr>80</ns3:hr>
          </ns3:TrackPointExtension>
        </extensions>
      </trkpt>
      <trkpt lat="36.77121936343610286712646484375" lon="-118.48124764859676361083984375">
        <ele>2234</ele>
        <time>2021-06-24T20:57:18.000Z</time>
        <extensions>
          <ns3:TrackPointExtension>
            <ns3:atemp>30.0</ns3:atemp>
            <ns3:hr>80</ns3:hr>
          </ns3:TrackPointExtension>
        </extensions>
      </trkpt>
      <trkpt lat="36.77121064625680446624755859375" lon="-118.48121889866888523101806640625">
        <ele>2233.800048828125</ele>
        <time>2021-06-24T20:57:20.000Z</time>
        <extensions>
          <ns3:TrackPointExtension>
            <ns3:atemp>30.0</ns3:atemp>
            <ns3:hr>80</ns3:hr>
          </ns3:TrackPointExtension>
        </extensions>
      </trkpt>
      <trkpt lat="36.77118214778602123260498046875" lon="-118.481175564229488372802734375">
        <ele>2232.800048828125</ele>
        <time>2021-06-24T20:57:24.000Z</time>
        <extensions>
          <ns3:TrackPointExtension>
            <ns3:atemp>30.0</ns3:atemp>
            <ns3:hr>80</ns3:hr>
          </ns3:TrackPointExtension>
        </extensions>
      </trkpt>
      <trkpt lat="36.77116991020739078521728515625" lon="-118.4811479039490222930908203125">
        <ele>2232</ele>
        <time>2021-06-24T20:57:26.000Z</time>
        <extensions>
          <ns3:TrackPointExtension>
            <ns3:atemp>30.0</ns3:atemp>
            <ns3:hr>81</ns3:hr>
          </ns3:TrackPointExtension>
        </extensions>
      </trkpt>
      <trkpt lat="36.77111995406448841094970703125" lon="-118.481087051331996917724609375">
        <ele>2231.60009765625</ele>
        <time>2021-06-24T20:57:30.000Z</time>
        <extensions>
          <ns3:TrackPointExtension>
            <ns3:atemp>30.0</ns3:atemp>
            <ns3:hr>81</ns3:hr>
          </ns3:TrackPointExtension>
        </extensions>
      </trkpt>
      <trkpt lat="36.77108877338469028472900390625" lon="-118.48108847625553607940673828125">
        <ele>2231.39990234375</ele>
        <time>2021-06-24T20:57:32.000Z</time>
        <extensions>
          <ns3:TrackPointExtension>
            <ns3:atemp>30.0</ns3:atemp>
            <ns3:hr>80</ns3:hr>
          </ns3:TrackPointExtension>
        </extensions>
      </trkpt>
      <trkpt lat="36.77107485942542552947998046875" lon="-118.48107506521046161651611328125">
        <ele>2230.800048828125</ele>
        <time>2021-06-24T20:57:34.000Z</time>
        <extensions>
          <ns3:TrackPointExtension>
            <ns3:atemp>30.0</ns3:atemp>
            <ns3:hr>82</ns3:hr>
          </ns3:TrackPointExtension>
        </extensions>
      </trkpt>
      <trkpt lat="36.77107351832091808319091796875" lon="-118.4810644201934337615966796875">
        <ele>2230.60009765625</ele>
        <time>2021-06-24T20:57:35.000Z</time>
        <extensions>
          <ns3:TrackPointExtension>
            <ns3:atemp>30.0</ns3:atemp>
            <ns3:hr>82</ns3:hr>
          </ns3:TrackPointExtension>
        </extensions>
      </trkpt>
      <trkpt lat="36.77105826325714588165283203125" lon="-118.48103332333266735076904296875">
        <ele>2230</ele>
        <time>2021-06-24T20:57:38.000Z</time>
        <extensions>
          <ns3:TrackPointExtension>
            <ns3:atemp>30.0</ns3:atemp>
            <ns3:hr>84</ns3:hr>
          </ns3:TrackPointExtension>
        </extensions>
      </trkpt>
      <trkpt lat="36.771042756736278533935546875" lon="-118.48100516013801097869873046875">
        <ele>2229.800048828125</ele>
        <time>2021-06-24T20:57:40.000Z</time>
        <extensions>
          <ns3:TrackPointExtension>
            <ns3:atemp>30.0</ns3:atemp>
            <ns3:hr>84</ns3:hr>
          </ns3:TrackPointExtension>
        </extensions>
      </trkpt>
      <trkpt lat="36.77104175090789794921875" lon="-118.480958305299282073974609375">
        <ele>2229.800048828125</ele>
        <time>2021-06-24T20:57:44.000Z</time>
        <extensions>
          <ns3:TrackPointExtension>
            <ns3:atemp>30.0</ns3:atemp>
            <ns3:hr>85</ns3:hr>
          </ns3:TrackPointExtension>
        </extensions>
      </trkpt>
      <trkpt lat="36.77104351110756397247314453125" lon="-118.4809438884258270263671875">
        <ele>2229.800048828125</ele>
        <time>2021-06-24T20:57:45.000Z</time>
        <extensions>
          <ns3:TrackPointExtension>
            <ns3:atemp>30.0</ns3:atemp>
            <ns3:hr>85</ns3:hr>
          </ns3:TrackPointExtension>
        </extensions>
      </trkpt>
      <trkpt lat="36.7710472829639911651611328125" lon="-118.48091798834502696990966796875">
        <ele>2229.800048828125</ele>
        <time>2021-06-24T20:57:47.000Z</time>
        <extensions>
          <ns3:TrackPointExtension>
            <ns3:atemp>30.0</ns3:atemp>
            <ns3:hr>85</ns3:hr>
          </ns3:TrackPointExtension>
        </extensions>
      </trkpt>
      <trkpt lat="36.77104317583143711090087890625" lon="-118.48089988343417644500732421875">
        <ele>2230.199951171875</ele>
        <time>2021-06-24T20:57:49.000Z</time>
        <extensions>
          <ns3:TrackPointExtension>
            <ns3:atemp>30.0</ns3:atemp>
            <ns3:hr>88</ns3:hr>
          </ns3:TrackPointExtension>
        </extensions>
      </trkpt>
      <trkpt lat="36.7710430920124053955078125" lon="-118.48089468665421009063720703125">
        <ele>2230.39990234375</ele>
        <time>2021-06-24T20:57:50.000Z</time>
        <extensions>
          <ns3:TrackPointExtension>
            <ns3:atemp>30.0</ns3:atemp>
            <ns3:hr>88</ns3:hr>
          </ns3:TrackPointExtension>
        </extensions>
      </trkpt>
      <trkpt lat="36.771053485572338104248046875" lon="-118.48087037913501262664794921875">
        <ele>2230.800048828125</ele>
        <time>2021-06-24T20:57:53.000Z</time>
        <extensions>
          <ns3:TrackPointExtension>
            <ns3:atemp>30.0</ns3:atemp>
            <ns3:hr>90</ns3:hr>
          </ns3:TrackPointExtension>
        </extensions>
      </trkpt>
      <trkpt lat="36.77105809561908245086669921875" lon="-118.48086903803050518035888671875">
        <ele>2230.800048828125</ele>
        <time>2021-06-24T20:57:54.000Z</time>
        <extensions>
          <ns3:TrackPointExtension>
            <ns3:atemp>30.0</ns3:atemp>
            <ns3:hr>89</ns3:hr>
          </ns3:TrackPointExtension>
        </extensions>
      </trkpt>
      <trkpt lat="36.77103546448051929473876953125" lon="-118.48080449737608432769775390625">
        <ele>2231.199951171875</ele>
        <time>2021-06-24T20:57:58.000Z</time>
        <extensions>
          <ns3:TrackPointExtension>
            <ns3:atemp>30.0</ns3:atemp>
            <ns3:hr>89</ns3:hr>
          </ns3:TrackPointExtension>
        </extensions>
      </trkpt>
      <trkpt lat="36.77105608396232128143310546875" lon="-118.4808022342622280120849609375">
        <ele>2231.39990234375</ele>
        <time>2021-06-24T20:58:01.000Z</time>
        <extensions>
          <ns3:TrackPointExtension>
            <ns3:atemp>30.0</ns3:atemp>
            <ns3:hr>87</ns3:hr>
          </ns3:TrackPointExtension>
        </extensions>
      </trkpt>
      <trkpt lat="36.77105826325714588165283203125" lon="-118.480791337788105010986328125">
        <ele>2231.39990234375</ele>
        <time>2021-06-24T20:58:02.000Z</time>
        <extensions>
          <ns3:TrackPointExtension>
            <ns3:atemp>30.0</ns3:atemp>
            <ns3:hr>86</ns3:hr>
          </ns3:TrackPointExtension>
        </extensions>
      </trkpt>
      <trkpt lat="36.7710578441619873046875" lon="-118.480752445757389068603515625">
        <ele>2231.60009765625</ele>
        <time>2021-06-24T20:58:05.000Z</time>
        <extensions>
          <ns3:TrackPointExtension>
            <ns3:atemp>30.0</ns3:atemp>
            <ns3:hr>83</ns3:hr>
          </ns3:TrackPointExtension>
        </extensions>
      </trkpt>
      <trkpt lat="36.77104367874562740325927734375" lon="-118.4807274676859378814697265625">
        <ele>2231.60009765625</ele>
        <time>2021-06-24T20:58:07.000Z</time>
        <extensions>
          <ns3:TrackPointExtension>
            <ns3:atemp>30.0</ns3:atemp>
            <ns3:hr>83</ns3:hr>
          </ns3:TrackPointExtension>
        </extensions>
      </trkpt>
      <trkpt lat="36.77099741064012050628662109375" lon="-118.480649851262569427490234375">
        <ele>2231.199951171875</ele>
        <time>2021-06-24T20:58:13.000Z</time>
        <extensions>
          <ns3:TrackPointExtension>
            <ns3:atemp>30.0</ns3:atemp>
            <ns3:hr>79</ns3:hr>
          </ns3:TrackPointExtension>
        </extensions>
      </trkpt>
      <trkpt lat="36.77098332904279232025146484375" lon="-118.4806453250348567962646484375">
        <ele>2231</ele>
        <time>2021-06-24T20:58:14.000Z</time>
        <extensions>
          <ns3:TrackPointExtension>
            <ns3:atemp>30.0</ns3:atemp>
            <ns3:hr>80</ns3:hr>
          </ns3:TrackPointExtension>
        </extensions>
      </trkpt>
      <trkpt lat="36.7709718458354473114013671875" lon="-118.480645157396793365478515625">
        <ele>2231</ele>
        <time>2021-06-24T20:58:15.000Z</time>
        <extensions>
          <ns3:TrackPointExtension>
            <ns3:atemp>30.0</ns3:atemp>
            <ns3:hr>83</ns3:hr>
          </ns3:TrackPointExtension>
        </extensions>
      </trkpt>
      <trkpt lat="36.7709624581038951873779296875" lon="-118.48063602112233638763427734375">
        <ele>2231</ele>
        <time>2021-06-24T20:58:16.000Z</time>
        <extensions>
          <ns3:TrackPointExtension>
            <ns3:atemp>30.0</ns3:atemp>
            <ns3:hr>83</ns3:hr>
          </ns3:TrackPointExtension>
        </extensions>
      </trkpt>
      <trkpt lat="36.770951561629772186279296875" lon="-118.4806252084672451019287109375">
        <ele>2231</ele>
        <time>2021-06-24T20:58:17.000Z</time>
        <extensions>
          <ns3:TrackPointExtension>
            <ns3:atemp>30.0</ns3:atemp>
            <ns3:hr>83</ns3:hr>
          </ns3:TrackPointExtension>
        </extensions>
      </trkpt>
      <trkpt lat="36.77092465572059154510498046875" lon="-118.480541221797466278076171875">
        <ele>2231.39990234375</ele>
        <time>2021-06-24T20:58:23.000Z</time>
        <extensions>
          <ns3:TrackPointExtension>
            <ns3:atemp>30.0</ns3:atemp>
            <ns3:hr>83</ns3:hr>
          </ns3:TrackPointExtension>
        </extensions>
      </trkpt>
      <trkpt lat="36.77091828547418117523193359375" lon="-118.48052102141082286834716796875">
        <ele>2231.800048828125</ele>
        <time>2021-06-24T20:58:25.000Z</time>
        <extensions>
          <ns3:TrackPointExtension>
            <ns3:atemp>30.0</ns3:atemp>
            <ns3:hr>83</ns3:hr>
          </ns3:TrackPointExtension>
        </extensions>
      </trkpt>
      <trkpt lat="36.7709000967442989349365234375" lon="-118.4804825484752655029296875">
        <ele>2232.39990234375</ele>
        <time>2021-06-24T20:58:29.000Z</time>
        <extensions>
          <ns3:TrackPointExtension>
            <ns3:atemp>30.0</ns3:atemp>
            <ns3:hr>84</ns3:hr>
          </ns3:TrackPointExtension>
        </extensions>
      </trkpt>
      <trkpt lat="36.77090336568653583526611328125" lon="-118.48045983351767063140869140625">
        <ele>2232.39990234375</ele>
        <time>2021-06-24T20:58:31.000Z</time>
        <extensions>
          <ns3:TrackPointExtension>
            <ns3:atemp>30.0</ns3:atemp>
            <ns3:hr>84</ns3:hr>
          </ns3:TrackPointExtension>
        </extensions>
      </trkpt>
      <trkpt lat="36.77091300487518310546875" lon="-118.480451367795467376708984375">
        <ele>2232.60009765625</ele>
        <time>2021-06-24T20:58:32.000Z</time>
        <extensions>
          <ns3:TrackPointExtension>
            <ns3:atemp>30.0</ns3:atemp>
            <ns3:hr>81</ns3:hr>
          </ns3:TrackPointExtension>
        </extensions>
      </trkpt>
      <trkpt lat="36.770916022360324859619140625" lon="-118.480439297854900360107421875">
        <ele>2232.60009765625</ele>
        <time>2021-06-24T20:58:33.000Z</time>
        <extensions>
          <ns3:TrackPointExtension>
            <ns3:atemp>30.0</ns3:atemp>
            <ns3:hr>84</ns3:hr>
          </ns3:TrackPointExtension>
        </extensions>
      </trkpt>
      <trkpt lat="36.770910322666168212890625" lon="-118.48042647354304790496826171875">
        <ele>2233</ele>
        <time>2021-06-24T20:58:34.000Z</time>
        <extensions>
          <ns3:TrackPointExtension>
            <ns3:atemp>30.0</ns3:atemp>
            <ns3:hr>84</ns3:hr>
          </ns3:TrackPointExtension>
        </extensions>
      </trkpt>
      <trkpt lat="36.7709051258862018585205078125" lon="-118.4804240427911281585693359375">
        <ele>2233.39990234375</ele>
        <time>2021-06-24T20:58:35.000Z</time>
        <extensions>
          <ns3:TrackPointExtension>
            <ns3:atemp>30.0</ns3:atemp>
            <ns3:hr>84</ns3:hr>
          </ns3:TrackPointExtension>
        </extensions>
      </trkpt>
      <trkpt lat="36.77089079283177852630615234375" lon="-118.4804123081266880035400390625">
        <ele>2233.60009765625</ele>
        <time>2021-06-24T20:58:37.000Z</time>
        <extensions>
          <ns3:TrackPointExtension>
            <ns3:atemp>30.0</ns3:atemp>
            <ns3:hr>85</ns3:hr>
          </ns3:TrackPointExtension>
        </extensions>
      </trkpt>
      <trkpt lat="36.7708809860050678253173828125" lon="-118.48039428703486919403076171875">
        <ele>2233.800048828125</ele>
        <time>2021-06-24T20:58:39.000Z</time>
        <extensions>
          <ns3:TrackPointExtension>
            <ns3:atemp>30.0</ns3:atemp>
            <ns3:hr>84</ns3:hr>
          </ns3:TrackPointExtension>
        </extensions>
      </trkpt>
      <trkpt lat="36.77087612450122833251953125" lon="-118.48038406111299991607666015625">
        <ele>2233.800048828125</ele>
        <time>2021-06-24T20:58:40.000Z</time>
        <extensions>
          <ns3:TrackPointExtension>
            <ns3:atemp>30.0</ns3:atemp>
            <ns3:hr>89</ns3:hr>
          </ns3:TrackPointExtension>
        </extensions>
      </trkpt>
      <trkpt lat="36.77086682058870792388916015625" lon="-118.4803764335811138153076171875">
        <ele>2233.800048828125</ele>
        <time>2021-06-24T20:58:41.000Z</time>
        <extensions>
          <ns3:TrackPointExtension>
            <ns3:atemp>30.0</ns3:atemp>
            <ns3:hr>89</ns3:hr>
          </ns3:TrackPointExtension>
        </extensions>
      </trkpt>
      <trkpt lat="36.77084050141274929046630859375" lon="-118.4803640283644199371337890625">
        <ele>2233.60009765625</ele>
        <time>2021-06-24T20:58:44.000Z</time>
        <extensions>
          <ns3:TrackPointExtension>
            <ns3:atemp>30.0</ns3:atemp>
            <ns3:hr>90</ns3:hr>
          </ns3:TrackPointExtension>
        </extensions>
      </trkpt>
      <trkpt lat="36.7707985080778598785400390625" lon="-118.4803368709981441497802734375">
        <ele>2233.199951171875</ele>
        <time>2021-06-24T20:58:48.000Z</time>
        <extensions>
          <ns3:TrackPointExtension>
            <ns3:atemp>30.0</ns3:atemp>
            <ns3:hr>90</ns3:hr>
          </ns3:TrackPointExtension>
        </extensions>
      </trkpt>
      <trkpt lat="36.77078434266149997711181640625" lon="-118.480327986180782318115234375">
        <ele>2233</ele>
        <time>2021-06-24T20:58:50.000Z</time>
        <extensions>
          <ns3:TrackPointExtension>
            <ns3:atemp>30.0</ns3:atemp>
            <ns3:hr>89</ns3:hr>
          </ns3:TrackPointExtension>
        </extensions>
      </trkpt>
      <trkpt lat="36.77076355554163455963134765625" lon="-118.48031113855540752410888671875">
        <ele>2233</ele>
        <time>2021-06-24T20:58:52.000Z</time>
        <extensions>
          <ns3:TrackPointExtension>
            <ns3:atemp>30.0</ns3:atemp>
            <ns3:hr>88</ns3:hr>
          </ns3:TrackPointExtension>
        </extensions>
      </trkpt>
      <trkpt lat="36.770743690431118011474609375" lon="-118.4802751801908016204833984375">
        <ele>2232.800048828125</ele>
        <time>2021-06-24T20:58:55.000Z</time>
        <extensions>
          <ns3:TrackPointExtension>
            <ns3:atemp>30.0</ns3:atemp>
            <ns3:hr>87</ns3:hr>
          </ns3:TrackPointExtension>
        </extensions>
      </trkpt>
      <trkpt lat="36.77074964158236980438232421875" lon="-118.480234779417514801025390625">
        <ele>2232.800048828125</ele>
        <time>2021-06-24T20:58:57.000Z</time>
        <extensions>
          <ns3:TrackPointExtension>
            <ns3:atemp>30.0</ns3:atemp>
            <ns3:hr>85</ns3:hr>
          </ns3:TrackPointExtension>
        </extensions>
      </trkpt>
      <trkpt lat="36.770763136446475982666015625" lon="-118.4801930375397205352783203125">
        <ele>2233</ele>
        <time>2021-06-24T20:58:59.000Z</time>
        <extensions>
          <ns3:TrackPointExtension>
            <ns3:atemp>30.0</ns3:atemp>
            <ns3:hr>85</ns3:hr>
          </ns3:TrackPointExtension>
        </extensions>
      </trkpt>
      <trkpt lat="36.77076523192226886749267578125" lon="-118.480156324803829193115234375">
        <ele>2233.199951171875</ele>
        <time>2021-06-24T20:59:01.000Z</time>
        <extensions>
          <ns3:TrackPointExtension>
            <ns3:atemp>30.0</ns3:atemp>
            <ns3:hr>84</ns3:hr>
          </ns3:TrackPointExtension>
        </extensions>
      </trkpt>
      <trkpt lat="36.770782582461833953857421875" lon="-118.4800589270889759063720703125">
        <ele>2233.199951171875</ele>
        <time>2021-06-24T20:59:05.000Z</time>
        <extensions>
          <ns3:TrackPointExtension>
            <ns3:atemp>30.0</ns3:atemp>
            <ns3:hr>83</ns3:hr>
          </ns3:TrackPointExtension>
        </extensions>
      </trkpt>
      <trkpt lat="36.77079607732594013214111328125" lon="-118.48000234924256801605224609375">
        <ele>2233.199951171875</ele>
        <time>2021-06-24T20:59:08.000Z</time>
        <extensions>
          <ns3:TrackPointExtension>
            <ns3:atemp>30.0</ns3:atemp>
            <ns3:hr>83</ns3:hr>
          </ns3:TrackPointExtension>
        </extensions>
      </trkpt>
      <trkpt lat="36.7708058841526508331298828125" lon="-118.479982651770114898681640625">
        <ele>2233</ele>
        <time>2021-06-24T20:59:10.000Z</time>
        <extensions>
          <ns3:TrackPointExtension>
            <ns3:atemp>30.0</ns3:atemp>
            <ns3:hr>82</ns3:hr>
          </ns3:TrackPointExtension>
        </extensions>
      </trkpt>
      <trkpt lat="36.770760118961334228515625" lon="-118.47998969256877899169921875">
        <ele>2233</ele>
        <time>2021-06-24T20:59:13.000Z</time>
        <extensions>
          <ns3:TrackPointExtension>
            <ns3:atemp>30.0</ns3:atemp>
            <ns3:hr>80</ns3:hr>
          </ns3:TrackPointExtension>
        </extensions>
      </trkpt>
      <trkpt lat="36.7707408405840396881103515625" lon="-118.4799675643444061279296875">
        <ele>2232.800048828125</ele>
        <time>2021-06-24T20:59:15.000Z</time>
        <extensions>
          <ns3:TrackPointExtension>
            <ns3:atemp>30.0</ns3:atemp>
            <ns3:hr>79</ns3:hr>
          </ns3:TrackPointExtension>
        </extensions>
      </trkpt>
      <trkpt lat="36.7707400023937225341796875" lon="-118.479953147470951080322265625">
        <ele>2233</ele>
        <time>2021-06-24T20:59:16.000Z</time>
        <extensions>
          <ns3:TrackPointExtension>
            <ns3:atemp>30.0</ns3:atemp>
            <ns3:hr>80</ns3:hr>
          </ns3:TrackPointExtension>
        </extensions>
      </trkpt>
      <trkpt lat="36.77074008621275424957275390625" lon="-118.47993512637913227081298828125">
        <ele>2232.800048828125</ele>
        <time>2021-06-24T20:59:18.000Z</time>
        <extensions>
          <ns3:TrackPointExtension>
            <ns3:atemp>30.0</ns3:atemp>
            <ns3:hr>79</ns3:hr>
          </ns3:TrackPointExtension>
        </extensions>
      </trkpt>
      <trkpt lat="36.77072013728320598602294921875" lon="-118.4799060411751270294189453125">
        <ele>2232.800048828125</ele>
        <time>2021-06-24T20:59:20.000Z</time>
        <extensions>
          <ns3:TrackPointExtension>
            <ns3:atemp>30.0</ns3:atemp>
            <ns3:hr>79</ns3:hr>
          </ns3:TrackPointExtension>
        </extensions>
      </trkpt>
      <trkpt lat="36.77068568766117095947265625" lon="-118.4798897802829742431640625">
        <ele>2232.60009765625</ele>
        <time>2021-06-24T20:59:23.000Z</time>
        <extensions>
          <ns3:TrackPointExtension>
            <ns3:atemp>30.0</ns3:atemp>
            <ns3:hr>79</ns3:hr>
          </ns3:TrackPointExtension>
        </extensions>
      </trkpt>
      <trkpt lat="36.77066330797970294952392578125" lon="-118.47987829707562923431396484375">
        <ele>2232.60009765625</ele>
        <time>2021-06-24T20:59:26.000Z</time>
        <extensions>
          <ns3:TrackPointExtension>
            <ns3:atemp>30.0</ns3:atemp>
            <ns3:hr>79</ns3:hr>
          </ns3:TrackPointExtension>
        </extensions>
      </trkpt>
      <trkpt lat="36.770657189190387725830078125" lon="-118.47987092100083827972412109375">
        <ele>2232.60009765625</ele>
        <time>2021-06-24T20:59:27.000Z</time>
        <extensions>
          <ns3:TrackPointExtension>
            <ns3:atemp>30.0</ns3:atemp>
            <ns3:hr>75</ns3:hr>
          </ns3:TrackPointExtension>
        </extensions>
      </trkpt>
      <trkpt lat="36.770652830600738525390625" lon="-118.47986203618347644805908203125">
        <ele>2233</ele>
        <time>2021-06-24T20:59:28.000Z</time>
        <extensions>
          <ns3:TrackPointExtension>
            <ns3:atemp>30.0</ns3:atemp>
            <ns3:hr>79</ns3:hr>
          </ns3:TrackPointExtension>
        </extensions>
      </trkpt>
      <trkpt lat="36.7706509865820407867431640625" lon="-118.47984275780618190765380859375">
        <ele>2233</ele>
        <time>2021-06-24T20:59:30.000Z</time>
        <extensions>
          <ns3:TrackPointExtension>
            <ns3:atemp>30.0</ns3:atemp>
            <ns3:hr>78</ns3:hr>
          </ns3:TrackPointExtension>
        </extensions>
      </trkpt>
      <trkpt lat="36.77064989693462848663330078125" lon="-118.47981677390635013580322265625">
        <ele>2233</ele>
        <time>2021-06-24T20:59:32.000Z</time>
        <extensions>
          <ns3:TrackPointExtension>
            <ns3:atemp>30.0</ns3:atemp>
            <ns3:hr>78</ns3:hr>
          </ns3:TrackPointExtension>
        </extensions>
      </trkpt>
      <trkpt lat="36.77063548006117343902587890625" lon="-118.47979598678648471832275390625">
        <ele>2233</ele>
        <time>2021-06-24T20:59:35.000Z</time>
        <extensions>
          <ns3:TrackPointExtension>
            <ns3:atemp>30.0</ns3:atemp>
            <ns3:hr>81</ns3:hr>
          </ns3:TrackPointExtension>
        </extensions>
      </trkpt>
      <trkpt lat="36.7706300318241119384765625" lon="-118.47978257574141025543212890625">
        <ele>2233.199951171875</ele>
        <time>2021-06-24T20:59:36.000Z</time>
        <extensions>
          <ns3:TrackPointExtension>
            <ns3:atemp>30.0</ns3:atemp>
            <ns3:hr>78</ns3:hr>
          </ns3:TrackPointExtension>
        </extensions>
      </trkpt>
      <trkpt lat="36.77062424831092357635498046875" lon="-118.4797504730522632598876953125">
        <ele>2233</ele>
        <time>2021-06-24T20:59:38.000Z</time>
        <extensions>
          <ns3:TrackPointExtension>
            <ns3:atemp>30.0</ns3:atemp>
            <ns3:hr>78</ns3:hr>
          </ns3:TrackPointExtension>
        </extensions>
      </trkpt>
      <trkpt lat="36.7706231586635112762451171875" lon="-118.47970814444124698638916015625">
        <ele>2233</ele>
        <time>2021-06-24T20:59:41.000Z</time>
        <extensions>
          <ns3:TrackPointExtension>
            <ns3:atemp>30.0</ns3:atemp>
            <ns3:hr>79</ns3:hr>
          </ns3:TrackPointExtension>
        </extensions>
      </trkpt>
      <trkpt lat="36.7706053890287876129150390625" lon="-118.47967143170535564422607421875">
        <ele>2233</ele>
        <time>2021-06-24T20:59:43.000Z</time>
        <extensions>
          <ns3:TrackPointExtension>
            <ns3:atemp>30.0</ns3:atemp>
            <ns3:hr>78</ns3:hr>
          </ns3:TrackPointExtension>
        </extensions>
      </trkpt>
      <trkpt lat="36.77060094662010669708251953125" lon="-118.47963857464492321014404296875">
        <ele>2233</ele>
        <time>2021-06-24T20:59:45.000Z</time>
        <extensions>
          <ns3:TrackPointExtension>
            <ns3:atemp>30.0</ns3:atemp>
            <ns3:hr>81</ns3:hr>
          </ns3:TrackPointExtension>
        </extensions>
      </trkpt>
      <trkpt lat="36.77060212008655071258544921875" lon="-118.47962315194308757781982421875">
        <ele>2233</ele>
        <time>2021-06-24T20:59:46.000Z</time>
        <extensions>
          <ns3:TrackPointExtension>
            <ns3:atemp>30.0</ns3:atemp>
            <ns3:hr>78</ns3:hr>
          </ns3:TrackPointExtension>
        </extensions>
      </trkpt>
      <trkpt lat="36.77060228772461414337158203125" lon="-118.479605130851268768310546875">
        <ele>2233</ele>
        <time>2021-06-24T20:59:47.000Z</time>
        <extensions>
          <ns3:TrackPointExtension>
            <ns3:atemp>30.0</ns3:atemp>
            <ns3:hr>77</ns3:hr>
          </ns3:TrackPointExtension>
        </extensions>
      </trkpt>
      <trkpt lat="36.7706057243049144744873046875" lon="-118.47958995960652828216552734375">
        <ele>2233</ele>
        <time>2021-06-24T20:59:48.000Z</time>
        <extensions>
          <ns3:TrackPointExtension>
            <ns3:atemp>30.0</ns3:atemp>
            <ns3:hr>76</ns3:hr>
          </ns3:TrackPointExtension>
        </extensions>
      </trkpt>
      <trkpt lat="36.77061385475099086761474609375" lon="-118.4795677475631237030029296875">
        <ele>2233</ele>
        <time>2021-06-24T20:59:51.000Z</time>
        <extensions>
          <ns3:TrackPointExtension>
            <ns3:atemp>30.0</ns3:atemp>
            <ns3:hr>78</ns3:hr>
          </ns3:TrackPointExtension>
        </extensions>
      </trkpt>
      <trkpt lat="36.77061636932194232940673828125" lon="-118.47956414334475994110107421875">
        <ele>2233</ele>
        <time>2021-06-24T20:59:52.000Z</time>
        <extensions>
          <ns3:TrackPointExtension>
            <ns3:atemp>30.0</ns3:atemp>
            <ns3:hr>75</ns3:hr>
          </ns3:TrackPointExtension>
        </extensions>
      </trkpt>
      <trkpt lat="36.77061117254197597503662109375" lon="-118.479557521641254425048828125">
        <ele>2233</ele>
        <time>2021-06-24T20:59:54.000Z</time>
        <extensions>
          <ns3:TrackPointExtension>
            <ns3:atemp>30.0</ns3:atemp>
            <ns3:hr>76</ns3:hr>
          </ns3:TrackPointExtension>
        </extensions>
      </trkpt>
      <trkpt lat="36.770610921084880828857421875" lon="-118.47955374978482723236083984375">
        <ele>2233</ele>
        <time>2021-06-24T20:59:55.000Z</time>
        <extensions>
          <ns3:TrackPointExtension>
            <ns3:atemp>30.0</ns3:atemp>
            <ns3:hr>73</ns3:hr>
          </ns3:TrackPointExtension>
        </extensions>
      </trkpt>
      <trkpt lat="36.770610250532627105712890625" lon="-118.47955006174743175506591796875">
        <ele>2233</ele>
        <time>2021-06-24T20:59:56.000Z</time>
        <extensions>
          <ns3:TrackPointExtension>
            <ns3:atemp>30.0</ns3:atemp>
            <ns3:hr>76</ns3:hr>
          </ns3:TrackPointExtension>
        </extensions>
      </trkpt>
      <trkpt lat="36.77061335183680057525634765625" lon="-118.479523323476314544677734375">
        <ele>2233.800048828125</ele>
        <time>2021-06-24T21:00:01.000Z</time>
        <extensions>
          <ns3:TrackPointExtension>
            <ns3:atemp>30.0</ns3:atemp>
            <ns3:hr>77</ns3:hr>
          </ns3:TrackPointExtension>
        </extensions>
      </trkpt>
      <trkpt lat="36.77061469294130802154541015625" lon="-118.479516617953777313232421875">
        <ele>2233.800048828125</ele>
        <time>2021-06-24T21:00:02.000Z</time>
        <extensions>
          <ns3:TrackPointExtension>
            <ns3:atemp>30.0</ns3:atemp>
            <ns3:hr>78</ns3:hr>
          </ns3:TrackPointExtension>
        </extensions>
      </trkpt>
      <trkpt lat="36.77061460912227630615234375" lon="-118.4795094095170497894287109375">
        <ele>2234</ele>
        <time>2021-06-24T21:00:03.000Z</time>
        <extensions>
          <ns3:TrackPointExtension>
            <ns3:atemp>30.0</ns3:atemp>
            <ns3:hr>78</ns3:hr>
          </ns3:TrackPointExtension>
        </extensions>
      </trkpt>
      <trkpt lat="36.77061653696000576019287109375" lon="-118.47946942783892154693603515625">
        <ele>2234.199951171875</ele>
        <time>2021-06-24T21:00:06.000Z</time>
        <extensions>
          <ns3:TrackPointExtension>
            <ns3:atemp>30.0</ns3:atemp>
            <ns3:hr>79</ns3:hr>
          </ns3:TrackPointExtension>
        </extensions>
      </trkpt>
      <trkpt lat="36.77061771042644977569580078125" lon="-118.4794554300606250762939453125">
        <ele>2234.39990234375</ele>
        <time>2021-06-24T21:00:07.000Z</time>
        <extensions>
          <ns3:TrackPointExtension>
            <ns3:atemp>30.0</ns3:atemp>
            <ns3:hr>79</ns3:hr>
          </ns3:TrackPointExtension>
        </extensions>
      </trkpt>
      <trkpt lat="36.770598851144313812255859375" lon="-118.47941963933408260345458984375">
        <ele>2234.60009765625</ele>
        <time>2021-06-24T21:00:10.000Z</time>
        <extensions>
          <ns3:TrackPointExtension>
            <ns3:atemp>30.0</ns3:atemp>
            <ns3:hr>81</ns3:hr>
          </ns3:TrackPointExtension>
        </extensions>
      </trkpt>
      <trkpt lat="36.77059524692595005035400390625" lon="-118.47938208840787410736083984375">
        <ele>2234.800048828125</ele>
        <time>2021-06-24T21:00:14.000Z</time>
        <extensions>
          <ns3:TrackPointExtension>
            <ns3:atemp>30.0</ns3:atemp>
            <ns3:hr>84</ns3:hr>
          </ns3:TrackPointExtension>
        </extensions>
      </trkpt>
      <trkpt lat="36.77058988250792026519775390625" lon="-118.4793695993721485137939453125">
        <ele>2234.800048828125</ele>
        <time>2021-06-24T21:00:15.000Z</time>
        <extensions>
          <ns3:TrackPointExtension>
            <ns3:atemp>30.0</ns3:atemp>
            <ns3:hr>85</ns3:hr>
          </ns3:TrackPointExtension>
        </extensions>
      </trkpt>
      <trkpt lat="36.7705862782895565032958984375" lon="-118.47934671677649021148681640625">
        <ele>2234.800048828125</ele>
        <time>2021-06-24T21:00:16.000Z</time>
        <extensions>
          <ns3:TrackPointExtension>
            <ns3:atemp>30.0</ns3:atemp>
            <ns3:hr>85</ns3:hr>
          </ns3:TrackPointExtension>
        </extensions>
      </trkpt>
      <trkpt lat="36.77059424109756946563720703125" lon="-118.47929927520453929901123046875">
        <ele>2234.800048828125</ele>
        <time>2021-06-24T21:00:19.000Z</time>
        <extensions>
          <ns3:TrackPointExtension>
            <ns3:atemp>30.0</ns3:atemp>
            <ns3:hr>87</ns3:hr>
          </ns3:TrackPointExtension>
        </extensions>
      </trkpt>
      <trkpt lat="36.77058108150959014892578125" lon="-118.47926826216280460357666015625">
        <ele>2234.800048828125</ele>
        <time>2021-06-24T21:00:21.000Z</time>
        <extensions>
          <ns3:TrackPointExtension>
            <ns3:atemp>30.0</ns3:atemp>
            <ns3:hr>87</ns3:hr>
          </ns3:TrackPointExtension>
        </extensions>
      </trkpt>
      <trkpt lat="36.7705735377967357635498046875" lon="-118.479255102574825286865234375">
        <ele>2235</ele>
        <time>2021-06-24T21:00:22.000Z</time>
        <extensions>
          <ns3:TrackPointExtension>
            <ns3:atemp>30.0</ns3:atemp>
            <ns3:hr>86</ns3:hr>
          </ns3:TrackPointExtension>
        </extensions>
      </trkpt>
      <trkpt lat="36.7705705203115940093994140625" lon="-118.47924135625362396240234375">
        <ele>2235.199951171875</ele>
        <time>2021-06-24T21:00:23.000Z</time>
        <extensions>
          <ns3:TrackPointExtension>
            <ns3:atemp>30.0</ns3:atemp>
            <ns3:hr>86</ns3:hr>
          </ns3:TrackPointExtension>
        </extensions>
      </trkpt>
      <trkpt lat="36.77055685780942440032958984375" lon="-118.47919383086264133453369140625">
        <ele>2235.60009765625</ele>
        <time>2021-06-24T21:00:28.000Z</time>
        <extensions>
          <ns3:TrackPointExtension>
            <ns3:atemp>30.0</ns3:atemp>
            <ns3:hr>85</ns3:hr>
          </ns3:TrackPointExtension>
        </extensions>
      </trkpt>
      <trkpt lat="36.77054478786885738372802734375" lon="-118.47917907871305942535400390625">
        <ele>2235.60009765625</ele>
        <time>2021-06-24T21:00:29.000Z</time>
        <extensions>
          <ns3:TrackPointExtension>
            <ns3:atemp>30.0</ns3:atemp>
            <ns3:hr>85</ns3:hr>
          </ns3:TrackPointExtension>
        </extensions>
      </trkpt>
      <trkpt lat="36.77052316255867481231689453125" lon="-118.47913834266364574432373046875">
        <ele>2236</ele>
        <time>2021-06-24T21:00:33.000Z</time>
        <extensions>
          <ns3:TrackPointExtension>
            <ns3:atemp>30.0</ns3:atemp>
            <ns3:hr>84</ns3:hr>
          </ns3:TrackPointExtension>
        </extensions>
      </trkpt>
      <trkpt lat="36.7705214023590087890625" lon="-118.47912157885730266571044921875">
        <ele>2236.199951171875</ele>
        <time>2021-06-24T21:00:35.000Z</time>
        <extensions>
          <ns3:TrackPointExtension>
            <ns3:atemp>30.0</ns3:atemp>
            <ns3:hr>86</ns3:hr>
          </ns3:TrackPointExtension>
        </extensions>
      </trkpt>
      <trkpt lat="36.77051042206585407257080078125" lon="-118.47905737347900867462158203125">
        <ele>2236.800048828125</ele>
        <time>2021-06-24T21:00:39.000Z</time>
        <extensions>
          <ns3:TrackPointExtension>
            <ns3:atemp>30.0</ns3:atemp>
            <ns3:hr>88</ns3:hr>
          </ns3:TrackPointExtension>
        </extensions>
      </trkpt>
      <trkpt lat="36.7704873718321323394775390625" lon="-118.478987216949462890625">
        <ele>2236.60009765625</ele>
        <time>2021-06-24T21:00:44.000Z</time>
        <extensions>
          <ns3:TrackPointExtension>
            <ns3:atemp>30.0</ns3:atemp>
            <ns3:hr>85</ns3:hr>
          </ns3:TrackPointExtension>
        </extensions>
      </trkpt>
      <trkpt lat="36.77048326469957828521728515625" lon="-118.47896508872509002685546875">
        <ele>2236.39990234375</ele>
        <time>2021-06-24T21:00:46.000Z</time>
        <extensions>
          <ns3:TrackPointExtension>
            <ns3:atemp>30.0</ns3:atemp>
            <ns3:hr>86</ns3:hr>
          </ns3:TrackPointExtension>
        </extensions>
      </trkpt>
      <trkpt lat="36.770465411245822906494140625" lon="-118.47892963327467441558837890625">
        <ele>2236.199951171875</ele>
        <time>2021-06-24T21:00:49.000Z</time>
        <extensions>
          <ns3:TrackPointExtension>
            <ns3:atemp>30.0</ns3:atemp>
            <ns3:hr>87</ns3:hr>
          </ns3:TrackPointExtension>
        </extensions>
      </trkpt>
      <trkpt lat="36.77045174874365329742431640625" lon="-118.4789049066603183746337890625">
        <ele>2236</ele>
        <time>2021-06-24T21:00:51.000Z</time>
        <extensions>
          <ns3:TrackPointExtension>
            <ns3:atemp>30.0</ns3:atemp>
            <ns3:hr>86</ns3:hr>
          </ns3:TrackPointExtension>
        </extensions>
      </trkpt>
      <trkpt lat="36.77043733187019824981689453125" lon="-118.47887297160923480987548828125">
        <ele>2236</ele>
        <time>2021-06-24T21:00:55.000Z</time>
        <extensions>
          <ns3:TrackPointExtension>
            <ns3:atemp>30.0</ns3:atemp>
            <ns3:hr>85</ns3:hr>
          </ns3:TrackPointExtension>
        </extensions>
      </trkpt>
      <trkpt lat="36.7704323865473270416259765625" lon="-118.47886676900088787078857421875">
        <ele>2236</ele>
        <time>2021-06-24T21:00:56.000Z</time>
        <extensions>
          <ns3:TrackPointExtension>
            <ns3:atemp>30.0</ns3:atemp>
            <ns3:hr>85</ns3:hr>
          </ns3:TrackPointExtension>
        </extensions>
      </trkpt>
      <trkpt lat="36.7704243399202823638916015625" lon="-118.47885805182158946990966796875">
        <ele>2235.800048828125</ele>
        <time>2021-06-24T21:00:58.000Z</time>
        <extensions>
          <ns3:TrackPointExtension>
            <ns3:atemp>30.0</ns3:atemp>
            <ns3:hr>87</ns3:hr>
          </ns3:TrackPointExtension>
        </extensions>
      </trkpt>
      <trkpt lat="36.7704350687563419342041015625" lon="-118.47883106209337711334228515625">
        <ele>2236</ele>
        <time>2021-06-24T21:01:02.000Z</time>
        <extensions>
          <ns3:TrackPointExtension>
            <ns3:atemp>30.0</ns3:atemp>
            <ns3:hr>87</ns3:hr>
          </ns3:TrackPointExtension>
        </extensions>
      </trkpt>
      <trkpt lat="36.7704196460545063018798828125" lon="-118.47878864966332912445068359375">
        <ele>2236.39990234375</ele>
        <time>2021-06-24T21:01:04.000Z</time>
        <extensions>
          <ns3:TrackPointExtension>
            <ns3:atemp>30.0</ns3:atemp>
            <ns3:hr>87</ns3:hr>
          </ns3:TrackPointExtension>
        </extensions>
      </trkpt>
      <trkpt lat="36.77040380425751209259033203125" lon="-118.47873517312109470367431640625">
        <ele>2236.60009765625</ele>
        <time>2021-06-24T21:01:07.000Z</time>
        <extensions>
          <ns3:TrackPointExtension>
            <ns3:atemp>30.0</ns3:atemp>
            <ns3:hr>86</ns3:hr>
          </ns3:TrackPointExtension>
        </extensions>
      </trkpt>
      <trkpt lat="36.77040514536201953887939453125" lon="-118.4787044115364551544189453125">
        <ele>2236.60009765625</ele>
        <time>2021-06-24T21:01:11.000Z</time>
        <extensions>
          <ns3:TrackPointExtension>
            <ns3:atemp>30.0</ns3:atemp>
            <ns3:hr>85</ns3:hr>
          </ns3:TrackPointExtension>
        </extensions>
      </trkpt>
      <trkpt lat="36.770405732095241546630859375" lon="-118.47869376651942729949951171875">
        <ele>2236.800048828125</ele>
        <time>2021-06-24T21:01:12.000Z</time>
        <extensions>
          <ns3:TrackPointExtension>
            <ns3:atemp>30.0</ns3:atemp>
            <ns3:hr>85</ns3:hr>
          </ns3:TrackPointExtension>
        </extensions>
      </trkpt>
      <trkpt lat="36.77040598355233669281005859375" lon="-118.478677086532115936279296875">
        <ele>2237.199951171875</ele>
        <time>2021-06-24T21:01:13.000Z</time>
        <extensions>
          <ns3:TrackPointExtension>
            <ns3:atemp>30.0</ns3:atemp>
            <ns3:hr>86</ns3:hr>
          </ns3:TrackPointExtension>
        </extensions>
      </trkpt>
      <trkpt lat="36.77039307542145252227783203125" lon="-118.47861313261091709136962890625">
        <ele>2237.199951171875</ele>
        <time>2021-06-24T21:01:17.000Z</time>
        <extensions>
          <ns3:TrackPointExtension>
            <ns3:atemp>30.0</ns3:atemp>
            <ns3:hr>88</ns3:hr>
          </ns3:TrackPointExtension>
        </extensions>
      </trkpt>
      <trkpt lat="36.770390309393405914306640625" lon="-118.47860206849873065948486328125">
        <ele>2237.199951171875</ele>
        <time>2021-06-24T21:01:18.000Z</time>
        <extensions>
          <ns3:TrackPointExtension>
            <ns3:atemp>30.0</ns3:atemp>
            <ns3:hr>89</ns3:hr>
          </ns3:TrackPointExtension>
        </extensions>
      </trkpt>
      <trkpt lat="36.77039793692529201507568359375" lon="-118.47858999855816364288330078125">
        <ele>2237.199951171875</ele>
        <time>2021-06-24T21:01:19.000Z</time>
        <extensions>
          <ns3:TrackPointExtension>
            <ns3:atemp>30.0</ns3:atemp>
            <ns3:hr>90</ns3:hr>
          </ns3:TrackPointExtension>
        </extensions>
      </trkpt>
      <trkpt lat="36.77040816284716129302978515625" lon="-118.4785585664212703704833984375">
        <ele>2237.199951171875</ele>
        <time>2021-06-24T21:01:21.000Z</time>
        <extensions>
          <ns3:TrackPointExtension>
            <ns3:atemp>30.0</ns3:atemp>
            <ns3:hr>91</ns3:hr>
          </ns3:TrackPointExtension>
        </extensions>
      </trkpt>
      <trkpt lat="36.7704095877707004547119140625" lon="-118.478540293872356414794921875">
        <ele>2237.199951171875</ele>
        <time>2021-06-24T21:01:22.000Z</time>
        <extensions>
          <ns3:TrackPointExtension>
            <ns3:atemp>30.0</ns3:atemp>
            <ns3:hr>91</ns3:hr>
          </ns3:TrackPointExtension>
        </extensions>
      </trkpt>
      <trkpt lat="36.7704127728939056396484375" lon="-118.4784781001508235931396484375">
        <ele>2237.199951171875</ele>
        <time>2021-06-24T21:01:25.000Z</time>
        <extensions>
          <ns3:TrackPointExtension>
            <ns3:atemp>30.0</ns3:atemp>
            <ns3:hr>94</ns3:hr>
          </ns3:TrackPointExtension>
        </extensions>
      </trkpt>
      <trkpt lat="36.7704233340919017791748046875" lon="-118.4784727357327938079833984375">
        <ele>2237.199951171875</ele>
        <time>2021-06-24T21:01:26.000Z</time>
        <extensions>
          <ns3:TrackPointExtension>
            <ns3:atemp>30.0</ns3:atemp>
            <ns3:hr>94</ns3:hr>
          </ns3:TrackPointExtension>
        </extensions>
      </trkpt>
      <trkpt lat="36.7704360745847225189208984375" lon="-118.47845873795449733734130859375">
        <ele>2237.199951171875</ele>
        <time>2021-06-24T21:01:28.000Z</time>
        <extensions>
          <ns3:TrackPointExtension>
            <ns3:atemp>30.0</ns3:atemp>
            <ns3:hr>93</ns3:hr>
          </ns3:TrackPointExtension>
        </extensions>
      </trkpt>
      <trkpt lat="36.77043599076569080352783203125" lon="-118.47844666801393032073974609375">
        <ele>2237.199951171875</ele>
        <time>2021-06-24T21:01:29.000Z</time>
        <extensions>
          <ns3:TrackPointExtension>
            <ns3:atemp>30.0</ns3:atemp>
            <ns3:hr>92</ns3:hr>
          </ns3:TrackPointExtension>
        </extensions>
      </trkpt>
      <trkpt lat="36.77043356001377105712890625" lon="-118.47841783426702022552490234375">
        <ele>2237.199951171875</ele>
        <time>2021-06-24T21:01:32.000Z</time>
        <extensions>
          <ns3:TrackPointExtension>
            <ns3:atemp>30.0</ns3:atemp>
            <ns3:hr>93</ns3:hr>
          </ns3:TrackPointExtension>
        </extensions>
      </trkpt>
      <trkpt lat="36.77043733187019824981689453125" lon="-118.47841062583029270172119140625">
        <ele>2237.199951171875</ele>
        <time>2021-06-24T21:01:33.000Z</time>
        <extensions>
          <ns3:TrackPointExtension>
            <ns3:atemp>30.0</ns3:atemp>
            <ns3:hr>94</ns3:hr>
          </ns3:TrackPointExtension>
        </extensions>
      </trkpt>
      <trkpt lat="36.770439259707927703857421875" lon="-118.4783842228353023529052734375">
        <ele>2237.199951171875</ele>
        <time>2021-06-24T21:01:35.000Z</time>
        <extensions>
          <ns3:TrackPointExtension>
            <ns3:atemp>30.0</ns3:atemp>
            <ns3:hr>92</ns3:hr>
          </ns3:TrackPointExtension>
        </extensions>
      </trkpt>
      <trkpt lat="36.7704437859356403350830078125" lon="-118.4783587418496608734130859375">
        <ele>2237.60009765625</ele>
        <time>2021-06-24T21:01:38.000Z</time>
        <extensions>
          <ns3:TrackPointExtension>
            <ns3:atemp>30.0</ns3:atemp>
            <ns3:hr>91</ns3:hr>
          </ns3:TrackPointExtension>
        </extensions>
      </trkpt>
      <trkpt lat="36.77045501768589019775390625" lon="-118.47834390588104724884033203125">
        <ele>2237.60009765625</ele>
        <time>2021-06-24T21:01:42.000Z</time>
        <extensions>
          <ns3:TrackPointExtension>
            <ns3:atemp>30.0</ns3:atemp>
            <ns3:hr>91</ns3:hr>
          </ns3:TrackPointExtension>
        </extensions>
      </trkpt>
      <trkpt lat="36.7704454623162746429443359375" lon="-118.47832462750375270843505859375">
        <ele>2237.60009765625</ele>
        <time>2021-06-24T21:01:43.000Z</time>
        <extensions>
          <ns3:TrackPointExtension>
            <ns3:atemp>30.0</ns3:atemp>
            <ns3:hr>91</ns3:hr>
          </ns3:TrackPointExtension>
        </extensions>
      </trkpt>
      <trkpt lat="36.77043012343347072601318359375" lon="-118.4782812930643558502197265625">
        <ele>2237.800048828125</ele>
        <time>2021-06-24T21:01:45.000Z</time>
        <extensions>
          <ns3:TrackPointExtension>
            <ns3:atemp>30.0</ns3:atemp>
            <ns3:hr>90</ns3:hr>
          </ns3:TrackPointExtension>
        </extensions>
      </trkpt>
      <trkpt lat="36.77042777650058269500732421875" lon="-118.4782822988927364349365234375">
        <ele>2238</ele>
        <time>2021-06-24T21:01:47.000Z</time>
        <extensions>
          <ns3:TrackPointExtension>
            <ns3:atemp>30.0</ns3:atemp>
            <ns3:hr>90</ns3:hr>
          </ns3:TrackPointExtension>
        </extensions>
      </trkpt>
      <trkpt lat="36.77043356001377105712890625" lon="-118.47828741185367107391357421875">
        <ele>2238</ele>
        <time>2021-06-24T21:01:48.000Z</time>
        <extensions>
          <ns3:TrackPointExtension>
            <ns3:atemp>30.0</ns3:atemp>
            <ns3:hr>89</ns3:hr>
          </ns3:TrackPointExtension>
        </extensions>
      </trkpt>
      <trkpt lat="36.77043749950826168060302734375" lon="-118.478282131254673004150390625">
        <ele>2238.199951171875</ele>
        <time>2021-06-24T21:01:50.000Z</time>
        <extensions>
          <ns3:TrackPointExtension>
            <ns3:atemp>30.0</ns3:atemp>
            <ns3:hr>89</ns3:hr>
          </ns3:TrackPointExtension>
        </extensions>
      </trkpt>
      <trkpt lat="36.77043247036635875701904296875" lon="-118.47828037105500698089599609375">
        <ele>2238.199951171875</ele>
        <time>2021-06-24T21:01:51.000Z</time>
        <extensions>
          <ns3:TrackPointExtension>
            <ns3:atemp>30.0</ns3:atemp>
            <ns3:hr>89</ns3:hr>
          </ns3:TrackPointExtension>
        </extensions>
      </trkpt>
      <trkpt lat="36.77041939459741115570068359375" lon="-118.4782216139137744903564453125">
        <ele>2238.199951171875</ele>
        <time>2021-06-24T21:01:55.000Z</time>
        <extensions>
          <ns3:TrackPointExtension>
            <ns3:atemp>30.0</ns3:atemp>
            <ns3:hr>86</ns3:hr>
          </ns3:TrackPointExtension>
        </extensions>
      </trkpt>
      <trkpt lat="36.7703606374561786651611328125" lon="-118.47811977379024028778076171875">
        <ele>2237.39990234375</ele>
        <time>2021-06-24T21:02:01.000Z</time>
        <extensions>
          <ns3:TrackPointExtension>
            <ns3:atemp>30.0</ns3:atemp>
            <ns3:hr>88</ns3:hr>
          </ns3:TrackPointExtension>
        </extensions>
      </trkpt>
      <trkpt lat="36.77033968269824981689453125" lon="-118.4780781157314777374267578125">
        <ele>2236.800048828125</ele>
        <time>2021-06-24T21:02:04.000Z</time>
        <extensions>
          <ns3:TrackPointExtension>
            <ns3:atemp>30.0</ns3:atemp>
            <ns3:hr>85</ns3:hr>
          </ns3:TrackPointExtension>
        </extensions>
      </trkpt>
      <trkpt lat="36.77032266743481159210205078125" lon="-118.4780417382717132568359375">
        <ele>2236.60009765625</ele>
        <time>2021-06-24T21:02:06.000Z</time>
        <extensions>
          <ns3:TrackPointExtension>
            <ns3:atemp>30.0</ns3:atemp>
            <ns3:hr>85</ns3:hr>
          </ns3:TrackPointExtension>
        </extensions>
      </trkpt>
      <trkpt lat="36.770281009376049041748046875" lon="-118.47797174938023090362548828125">
        <ele>2236.800048828125</ele>
        <time>2021-06-24T21:02:10.000Z</time>
        <extensions>
          <ns3:TrackPointExtension>
            <ns3:atemp>30.0</ns3:atemp>
            <ns3:hr>82</ns3:hr>
          </ns3:TrackPointExtension>
        </extensions>
      </trkpt>
      <trkpt lat="36.7702738009393215179443359375" lon="-118.4779416583478450775146484375">
        <ele>2237</ele>
        <time>2021-06-24T21:02:12.000Z</time>
        <extensions>
          <ns3:TrackPointExtension>
            <ns3:atemp>30.0</ns3:atemp>
            <ns3:hr>81</ns3:hr>
          </ns3:TrackPointExtension>
        </extensions>
      </trkpt>
      <trkpt lat="36.77023063413798809051513671875" lon="-118.47785473801195621490478515625">
        <ele>2237.800048828125</ele>
        <time>2021-06-24T21:02:17.000Z</time>
        <extensions>
          <ns3:TrackPointExtension>
            <ns3:atemp>30.0</ns3:atemp>
            <ns3:hr>82</ns3:hr>
          </ns3:TrackPointExtension>
        </extensions>
      </trkpt>
      <trkpt lat="36.77021772600710391998291015625" lon="-118.47782556898891925811767578125">
        <ele>2238.199951171875</ele>
        <time>2021-06-24T21:02:19.000Z</time>
        <extensions>
          <ns3:TrackPointExtension>
            <ns3:atemp>30.0</ns3:atemp>
            <ns3:hr>84</ns3:hr>
          </ns3:TrackPointExtension>
        </extensions>
      </trkpt>
      <trkpt lat="36.77022074349224567413330078125" lon="-118.47780846990644931793212890625">
        <ele>2238.199951171875</ele>
        <time>2021-06-24T21:02:20.000Z</time>
        <extensions>
          <ns3:TrackPointExtension>
            <ns3:atemp>30.0</ns3:atemp>
            <ns3:hr>84</ns3:hr>
          </ns3:TrackPointExtension>
        </extensions>
      </trkpt>
      <trkpt lat="36.77021906711161136627197265625" lon="-118.47778500057756900787353515625">
        <ele>2238.39990234375</ele>
        <time>2021-06-24T21:02:21.000Z</time>
        <extensions>
          <ns3:TrackPointExtension>
            <ns3:atemp>30.0</ns3:atemp>
            <ns3:hr>84</ns3:hr>
          </ns3:TrackPointExtension>
        </extensions>
      </trkpt>
      <trkpt lat="36.77021504379808902740478515625" lon="-118.47773127257823944091796875">
        <ele>2238.800048828125</ele>
        <time>2021-06-24T21:02:26.000Z</time>
        <extensions>
          <ns3:TrackPointExtension>
            <ns3:atemp>30.0</ns3:atemp>
            <ns3:hr>83</ns3:hr>
          </ns3:TrackPointExtension>
        </extensions>
      </trkpt>
      <trkpt lat="36.77022493444383144378662109375" lon="-118.47772632725536823272705078125">
        <ele>2238.800048828125</ele>
        <time>2021-06-24T21:02:28.000Z</time>
        <extensions>
          <ns3:TrackPointExtension>
            <ns3:atemp>30.0</ns3:atemp>
            <ns3:hr>83</ns3:hr>
          </ns3:TrackPointExtension>
        </extensions>
      </trkpt>
      <trkpt lat="36.77023013122379779815673828125" lon="-118.4777197055518627166748046875">
        <ele>2238.800048828125</ele>
        <time>2021-06-24T21:02:30.000Z</time>
        <extensions>
          <ns3:TrackPointExtension>
            <ns3:atemp>30.0</ns3:atemp>
            <ns3:hr>84</ns3:hr>
          </ns3:TrackPointExtension>
        </extensions>
      </trkpt>
      <trkpt lat="36.770235411822795867919921875" lon="-118.4777198731899261474609375">
        <ele>2238.800048828125</ele>
        <time>2021-06-24T21:02:31.000Z</time>
        <extensions>
          <ns3:TrackPointExtension>
            <ns3:atemp>30.0</ns3:atemp>
            <ns3:hr>84</ns3:hr>
          </ns3:TrackPointExtension>
        </extensions>
      </trkpt>
      <trkpt lat="36.77024044096469879150390625" lon="-118.47770403139293193817138671875">
        <ele>2239.199951171875</ele>
        <time>2021-06-24T21:02:33.000Z</time>
        <extensions>
          <ns3:TrackPointExtension>
            <ns3:atemp>30.0</ns3:atemp>
            <ns3:hr>87</ns3:hr>
          </ns3:TrackPointExtension>
        </extensions>
      </trkpt>
      <trkpt lat="36.7702288739383220672607421875" lon="-118.4776922129094600677490234375">
        <ele>2239.199951171875</ele>
        <time>2021-06-24T21:02:35.000Z</time>
        <extensions>
          <ns3:TrackPointExtension>
            <ns3:atemp>31.0</ns3:atemp>
            <ns3:hr>87</ns3:hr>
          </ns3:TrackPointExtension>
        </extensions>
      </trkpt>
      <trkpt lat="36.7702087573707103729248046875" lon="-118.47768056206405162811279296875">
        <ele>2239.39990234375</ele>
        <time>2021-06-24T21:02:37.000Z</time>
        <extensions>
          <ns3:TrackPointExtension>
            <ns3:atemp>31.0</ns3:atemp>
            <ns3:hr>88</ns3:hr>
          </ns3:TrackPointExtension>
        </extensions>
      </trkpt>
      <trkpt lat="36.770197190344333648681640625" lon="-118.47766287624835968017578125">
        <ele>2239.39990234375</ele>
        <time>2021-06-24T21:02:38.000Z</time>
        <extensions>
          <ns3:TrackPointExtension>
            <ns3:atemp>31.0</ns3:atemp>
            <ns3:hr>88</ns3:hr>
          </ns3:TrackPointExtension>
        </extensions>
      </trkpt>
      <trkpt lat="36.77016072906553745269775390625" lon="-118.477612920105457305908203125">
        <ele>2239.199951171875</ele>
        <time>2021-06-24T21:02:40.000Z</time>
        <extensions>
          <ns3:TrackPointExtension>
            <ns3:atemp>31.0</ns3:atemp>
            <ns3:hr>91</ns3:hr>
          </ns3:TrackPointExtension>
        </extensions>
      </trkpt>
      <trkpt lat="36.77015184424817562103271484375" lon="-118.4775959886610507965087890625">
        <ele>2239.199951171875</ele>
        <time>2021-06-24T21:02:41.000Z</time>
        <extensions>
          <ns3:TrackPointExtension>
            <ns3:atemp>31.0</ns3:atemp>
            <ns3:hr>89</ns3:hr>
          </ns3:TrackPointExtension>
        </extensions>
      </trkpt>
      <trkpt lat="36.77014078013598918914794921875" lon="-118.47755885683000087738037109375">
        <ele>2239</ele>
        <time>2021-06-24T21:02:44.000Z</time>
        <extensions>
          <ns3:TrackPointExtension>
            <ns3:atemp>31.0</ns3:atemp>
            <ns3:hr>92</ns3:hr>
          </ns3:TrackPointExtension>
        </extensions>
      </trkpt>
      <trkpt lat="36.77012770436704158782958984375" lon="-118.477529771625995635986328125">
        <ele>2239</ele>
        <time>2021-06-24T21:02:46.000Z</time>
        <extensions>
          <ns3:TrackPointExtension>
            <ns3:atemp>31.0</ns3:atemp>
            <ns3:hr>92</ns3:hr>
          </ns3:TrackPointExtension>
        </extensions>
      </trkpt>
      <trkpt lat="36.77009501494467258453369140625" lon="-118.47744620405137538909912109375">
        <ele>2238.39990234375</ele>
        <time>2021-06-24T21:02:50.000Z</time>
        <extensions>
          <ns3:TrackPointExtension>
            <ns3:atemp>31.0</ns3:atemp>
            <ns3:hr>92</ns3:hr>
          </ns3:TrackPointExtension>
        </extensions>
      </trkpt>
      <trkpt lat="36.7700828611850738525390625" lon="-118.47742105834186077117919921875">
        <ele>2238.39990234375</ele>
        <time>2021-06-24T21:02:52.000Z</time>
        <extensions>
          <ns3:TrackPointExtension>
            <ns3:atemp>31.0</ns3:atemp>
            <ns3:hr>91</ns3:hr>
          </ns3:TrackPointExtension>
        </extensions>
      </trkpt>
      <trkpt lat="36.77006534300744533538818359375" lon="-118.47738551907241344451904296875">
        <ele>2238.39990234375</ele>
        <time>2021-06-24T21:02:54.000Z</time>
        <extensions>
          <ns3:TrackPointExtension>
            <ns3:atemp>31.0</ns3:atemp>
            <ns3:hr>88</ns3:hr>
          </ns3:TrackPointExtension>
        </extensions>
      </trkpt>
      <trkpt lat="36.770062409341335296630859375" lon="-118.47738325595855712890625">
        <ele>2238.39990234375</ele>
        <time>2021-06-24T21:02:55.000Z</time>
        <extensions>
          <ns3:TrackPointExtension>
            <ns3:atemp>31.0</ns3:atemp>
            <ns3:hr>87</ns3:hr>
          </ns3:TrackPointExtension>
        </extensions>
      </trkpt>
      <trkpt lat="36.7700515128672122955322265625" lon="-118.47738401032984256744384765625">
        <ele>2238.60009765625</ele>
        <time>2021-06-24T21:02:58.000Z</time>
        <extensions>
          <ns3:TrackPointExtension>
            <ns3:atemp>31.0</ns3:atemp>
            <ns3:hr>83</ns3:hr>
          </ns3:TrackPointExtension>
        </extensions>
      </trkpt>
      <trkpt lat="36.7700444720685482025146484375" lon="-118.4773827530443668365478515625">
        <ele>2238.800048828125</ele>
        <time>2021-06-24T21:02:59.000Z</time>
        <extensions>
          <ns3:TrackPointExtension>
            <ns3:atemp>31.0</ns3:atemp>
            <ns3:hr>82</ns3:hr>
          </ns3:TrackPointExtension>
        </extensions>
      </trkpt>
      <trkpt lat="36.77002846263349056243896484375" lon="-118.4773857705295085906982421875">
        <ele>2239</ele>
        <time>2021-06-24T21:03:01.000Z</time>
        <extensions>
          <ns3:TrackPointExtension>
            <ns3:atemp>31.0</ns3:atemp>
            <ns3:hr>82</ns3:hr>
          </ns3:TrackPointExtension>
        </extensions>
      </trkpt>
      <trkpt lat="36.77000851370394229888916015625" lon="-118.477383591234683990478515625">
        <ele>2239.39990234375</ele>
        <time>2021-06-24T21:03:03.000Z</time>
        <extensions>
          <ns3:TrackPointExtension>
            <ns3:atemp>31.0</ns3:atemp>
            <ns3:hr>82</ns3:hr>
          </ns3:TrackPointExtension>
        </extensions>
      </trkpt>
      <trkpt lat="36.7699814401566982269287109375" lon="-118.47734159789979457855224609375">
        <ele>2239.39990234375</ele>
        <time>2021-06-24T21:03:05.000Z</time>
        <extensions>
          <ns3:TrackPointExtension>
            <ns3:atemp>31.0</ns3:atemp>
            <ns3:hr>82</ns3:hr>
          </ns3:TrackPointExtension>
        </extensions>
      </trkpt>
      <trkpt lat="36.76996727474033832550048828125" lon="-118.47731477580964565277099609375">
        <ele>2238.800048828125</ele>
        <time>2021-06-24T21:03:08.000Z</time>
        <extensions>
          <ns3:TrackPointExtension>
            <ns3:atemp>31.0</ns3:atemp>
            <ns3:hr>83</ns3:hr>
          </ns3:TrackPointExtension>
        </extensions>
      </trkpt>
      <trkpt lat="36.7699629999697208404541015625" lon="-118.47729675471782684326171875">
        <ele>2238.60009765625</ele>
        <time>2021-06-24T21:03:09.000Z</time>
        <extensions>
          <ns3:TrackPointExtension>
            <ns3:atemp>31.0</ns3:atemp>
            <ns3:hr>83</ns3:hr>
          </ns3:TrackPointExtension>
        </extensions>
      </trkpt>
      <trkpt lat="36.76995738409459590911865234375" lon="-118.477276973426342010498046875">
        <ele>2238.60009765625</ele>
        <time>2021-06-24T21:03:10.000Z</time>
        <extensions>
          <ns3:TrackPointExtension>
            <ns3:atemp>31.0</ns3:atemp>
            <ns3:hr>83</ns3:hr>
          </ns3:TrackPointExtension>
        </extensions>
      </trkpt>
      <trkpt lat="36.76994430832564830780029296875" lon="-118.47724805586040019989013671875">
        <ele>2238.800048828125</ele>
        <time>2021-06-24T21:03:14.000Z</time>
        <extensions>
          <ns3:TrackPointExtension>
            <ns3:atemp>31.0</ns3:atemp>
            <ns3:hr>86</ns3:hr>
          </ns3:TrackPointExtension>
        </extensions>
      </trkpt>
      <trkpt lat="36.769935004413127899169921875" lon="-118.4772295318543910980224609375">
        <ele>2238.60009765625</ele>
        <time>2021-06-24T21:03:16.000Z</time>
        <extensions>
          <ns3:TrackPointExtension>
            <ns3:atemp>31.0</ns3:atemp>
            <ns3:hr>88</ns3:hr>
          </ns3:TrackPointExtension>
        </extensions>
      </trkpt>
      <trkpt lat="36.76993525587022304534912109375" lon="-118.47721687518060207366943359375">
        <ele>2237.800048828125</ele>
        <time>2021-06-24T21:03:18.000Z</time>
        <extensions>
          <ns3:TrackPointExtension>
            <ns3:atemp>31.0</ns3:atemp>
            <ns3:hr>90</ns3:hr>
          </ns3:TrackPointExtension>
        </extensions>
      </trkpt>
      <trkpt lat="36.7699133791029453277587890625" lon="-118.47719860263168811798095703125">
        <ele>2237.199951171875</ele>
        <time>2021-06-24T21:03:20.000Z</time>
        <extensions>
          <ns3:TrackPointExtension>
            <ns3:atemp>31.0</ns3:atemp>
            <ns3:hr>92</ns3:hr>
          </ns3:TrackPointExtension>
        </extensions>
      </trkpt>
      <trkpt lat="36.7698902450501918792724609375" lon="-118.477179743349552154541015625">
        <ele>2236.800048828125</ele>
        <time>2021-06-24T21:03:22.000Z</time>
        <extensions>
          <ns3:TrackPointExtension>
            <ns3:atemp>31.0</ns3:atemp>
            <ns3:hr>92</ns3:hr>
          </ns3:TrackPointExtension>
        </extensions>
      </trkpt>
      <trkpt lat="36.769873313605785369873046875" lon="-118.4771601296961307525634765625">
        <ele>2236.800048828125</ele>
        <time>2021-06-24T21:03:24.000Z</time>
        <extensions>
          <ns3:TrackPointExtension>
            <ns3:atemp>31.0</ns3:atemp>
            <ns3:hr>92</ns3:hr>
          </ns3:TrackPointExtension>
        </extensions>
      </trkpt>
      <trkpt lat="36.76987054757773876190185546875" lon="-118.47715199925005435943603515625">
        <ele>2237</ele>
        <time>2021-06-24T21:03:25.000Z</time>
        <extensions>
          <ns3:TrackPointExtension>
            <ns3:atemp>31.0</ns3:atemp>
            <ns3:hr>92</ns3:hr>
          </ns3:TrackPointExtension>
        </extensions>
      </trkpt>
      <trkpt lat="36.76986627280712127685546875" lon="-118.47714579664170742034912109375">
        <ele>2237</ele>
        <time>2021-06-24T21:03:26.000Z</time>
        <extensions>
          <ns3:TrackPointExtension>
            <ns3:atemp>31.0</ns3:atemp>
            <ns3:hr>89</ns3:hr>
          </ns3:TrackPointExtension>
        </extensions>
      </trkpt>
      <trkpt lat="36.76985730417072772979736328125" lon="-118.47714026458561420440673828125">
        <ele>2237</ele>
        <time>2021-06-24T21:03:27.000Z</time>
        <extensions>
          <ns3:TrackPointExtension>
            <ns3:atemp>31.0</ns3:atemp>
            <ns3:hr>91</ns3:hr>
          </ns3:TrackPointExtension>
        </extensions>
      </trkpt>
      <trkpt lat="36.7698493413627147674560546875" lon="-118.47713288851082324981689453125">
        <ele>2237</ele>
        <time>2021-06-24T21:03:28.000Z</time>
        <extensions>
          <ns3:TrackPointExtension>
            <ns3:atemp>31.0</ns3:atemp>
            <ns3:hr>91</ns3:hr>
          </ns3:TrackPointExtension>
        </extensions>
      </trkpt>
      <trkpt lat="36.76977667026221752166748046875" lon="-118.4770659171044826507568359375">
        <ele>2237.39990234375</ele>
        <time>2021-06-24T21:03:32.000Z</time>
        <extensions>
          <ns3:TrackPointExtension>
            <ns3:atemp>31.0</ns3:atemp>
            <ns3:hr>88</ns3:hr>
          </ns3:TrackPointExtension>
        </extensions>
      </trkpt>
      <trkpt lat="36.76976476795971393585205078125" lon="-118.477057702839374542236328125">
        <ele>2237.60009765625</ele>
        <time>2021-06-24T21:03:33.000Z</time>
        <extensions>
          <ns3:TrackPointExtension>
            <ns3:atemp>31.0</ns3:atemp>
            <ns3:hr>90</ns3:hr>
          </ns3:TrackPointExtension>
        </extensions>
      </trkpt>
      <trkpt lat="36.76973576657474040985107421875" lon="-118.4770385921001434326171875">
        <ele>2237.39990234375</ele>
        <time>2021-06-24T21:03:38.000Z</time>
        <extensions>
          <ns3:TrackPointExtension>
            <ns3:atemp>31.0</ns3:atemp>
            <ns3:hr>87</ns3:hr>
          </ns3:TrackPointExtension>
        </extensions>
      </trkpt>
      <trkpt lat="36.7697088606655597686767578125" lon="-118.4770045615732669830322265625">
        <ele>2237.60009765625</ele>
        <time>2021-06-24T21:03:42.000Z</time>
        <extensions>
          <ns3:TrackPointExtension>
            <ns3:atemp>31.0</ns3:atemp>
            <ns3:hr>85</ns3:hr>
          </ns3:TrackPointExtension>
        </extensions>
      </trkpt>
      <trkpt lat="36.7696988023817539215087890625" lon="-118.4769898094236850738525390625">
        <ele>2237.60009765625</ele>
        <time>2021-06-24T21:03:44.000Z</time>
        <extensions>
          <ns3:TrackPointExtension>
            <ns3:atemp>31.0</ns3:atemp>
            <ns3:hr>84</ns3:hr>
          </ns3:TrackPointExtension>
        </extensions>
      </trkpt>
      <trkpt lat="36.7696966230869293212890625" lon="-118.47698788158595561981201171875">
        <ele>2237.60009765625</ele>
        <time>2021-06-24T21:03:45.000Z</time>
        <extensions>
          <ns3:TrackPointExtension>
            <ns3:atemp>31.0</ns3:atemp>
            <ns3:hr>84</ns3:hr>
          </ns3:TrackPointExtension>
        </extensions>
      </trkpt>
      <trkpt lat="36.76968765445053577423095703125" lon="-118.4769753925502300262451171875">
        <ele>2237.800048828125</ele>
        <time>2021-06-24T21:03:47.000Z</time>
        <extensions>
          <ns3:TrackPointExtension>
            <ns3:atemp>31.0</ns3:atemp>
            <ns3:hr>84</ns3:hr>
          </ns3:TrackPointExtension>
        </extensions>
      </trkpt>
      <trkpt lat="36.76968530751764774322509765625" lon="-118.47696139477193355560302734375">
        <ele>2237.800048828125</ele>
        <time>2021-06-24T21:03:49.000Z</time>
        <extensions>
          <ns3:TrackPointExtension>
            <ns3:atemp>31.0</ns3:atemp>
            <ns3:hr>85</ns3:hr>
          </ns3:TrackPointExtension>
        </extensions>
      </trkpt>
      <trkpt lat="36.7696746625006198883056640625" lon="-118.4769492410123348236083984375">
        <ele>2238</ele>
        <time>2021-06-24T21:03:51.000Z</time>
        <extensions>
          <ns3:TrackPointExtension>
            <ns3:atemp>31.0</ns3:atemp>
            <ns3:hr>86</ns3:hr>
          </ns3:TrackPointExtension>
        </extensions>
      </trkpt>
      <trkpt lat="36.76966569386422634124755859375" lon="-118.4769405238330364227294921875">
        <ele>2238</ele>
        <time>2021-06-24T21:03:53.000Z</time>
        <extensions>
          <ns3:TrackPointExtension>
            <ns3:atemp>31.0</ns3:atemp>
            <ns3:hr>83</ns3:hr>
          </ns3:TrackPointExtension>
        </extensions>
      </trkpt>
      <trkpt lat="36.7696716450154781341552734375" lon="-118.47694940865039825439453125">
        <ele>2238.199951171875</ele>
        <time>2021-06-24T21:03:56.000Z</time>
        <extensions>
          <ns3:TrackPointExtension>
            <ns3:atemp>31.0</ns3:atemp>
            <ns3:hr>83</ns3:hr>
          </ns3:TrackPointExtension>
        </extensions>
      </trkpt>
      <trkpt lat="36.76967843435704708099365234375" lon="-118.47694672644138336181640625">
        <ele>2238.39990234375</ele>
        <time>2021-06-24T21:03:58.000Z</time>
        <extensions>
          <ns3:TrackPointExtension>
            <ns3:atemp>31.0</ns3:atemp>
            <ns3:hr>83</ns3:hr>
          </ns3:TrackPointExtension>
        </extensions>
      </trkpt>
      <trkpt lat="36.7696927674114704132080078125" lon="-118.476930968463420867919921875">
        <ele>2238.60009765625</ele>
        <time>2021-06-24T21:04:00.000Z</time>
        <extensions>
          <ns3:TrackPointExtension>
            <ns3:atemp>31.0</ns3:atemp>
            <ns3:hr>83</ns3:hr>
          </ns3:TrackPointExtension>
        </extensions>
      </trkpt>
      <trkpt lat="36.769687235355377197265625" lon="-118.4769049845635890960693359375">
        <ele>2238.800048828125</ele>
        <time>2021-06-24T21:04:02.000Z</time>
        <extensions>
          <ns3:TrackPointExtension>
            <ns3:atemp>31.0</ns3:atemp>
            <ns3:hr>84</ns3:hr>
          </ns3:TrackPointExtension>
        </extensions>
      </trkpt>
      <trkpt lat="36.76968513987958431243896484375" lon="-118.47689266316592693328857421875">
        <ele>2239</ele>
        <time>2021-06-24T21:04:03.000Z</time>
        <extensions>
          <ns3:TrackPointExtension>
            <ns3:atemp>31.0</ns3:atemp>
            <ns3:hr>85</ns3:hr>
          </ns3:TrackPointExtension>
        </extensions>
      </trkpt>
      <trkpt lat="36.76968581043183803558349609375" lon="-118.476884029805660247802734375">
        <ele>2239.199951171875</ele>
        <time>2021-06-24T21:04:04.000Z</time>
        <extensions>
          <ns3:TrackPointExtension>
            <ns3:atemp>31.0</ns3:atemp>
            <ns3:hr>87</ns3:hr>
          </ns3:TrackPointExtension>
        </extensions>
      </trkpt>
      <trkpt lat="36.76968120038509368896484375" lon="-118.476864583790302276611328125">
        <ele>2239.39990234375</ele>
        <time>2021-06-24T21:04:06.000Z</time>
        <extensions>
          <ns3:TrackPointExtension>
            <ns3:atemp>31.0</ns3:atemp>
            <ns3:hr>88</ns3:hr>
          </ns3:TrackPointExtension>
        </extensions>
      </trkpt>
      <trkpt lat="36.76966510713100433349609375" lon="-118.47682577557861804962158203125">
        <ele>2239.60009765625</ele>
        <time>2021-06-24T21:04:10.000Z</time>
        <extensions>
          <ns3:TrackPointExtension>
            <ns3:atemp>31.0</ns3:atemp>
            <ns3:hr>91</ns3:hr>
          </ns3:TrackPointExtension>
        </extensions>
      </trkpt>
      <trkpt lat="36.76965764723718166351318359375" lon="-118.47680649720132350921630859375">
        <ele>2239.39990234375</ele>
        <time>2021-06-24T21:04:11.000Z</time>
        <extensions>
          <ns3:TrackPointExtension>
            <ns3:atemp>31.0</ns3:atemp>
            <ns3:hr>92</ns3:hr>
          </ns3:TrackPointExtension>
        </extensions>
      </trkpt>
      <trkpt lat="36.76964490674436092376708984375" lon="-118.4767542779445648193359375">
        <ele>2238.800048828125</ele>
        <time>2021-06-24T21:04:15.000Z</time>
        <extensions>
          <ns3:TrackPointExtension>
            <ns3:atemp>31.0</ns3:atemp>
            <ns3:hr>94</ns3:hr>
          </ns3:TrackPointExtension>
        </extensions>
      </trkpt>
      <trkpt lat="36.76965094171464443206787109375" lon="-118.4767507575452327728271484375">
        <ele>2238.60009765625</ele>
        <time>2021-06-24T21:04:16.000Z</time>
        <extensions>
          <ns3:TrackPointExtension>
            <ns3:atemp>31.0</ns3:atemp>
            <ns3:hr>96</ns3:hr>
          </ns3:TrackPointExtension>
        </extensions>
      </trkpt>
      <trkpt lat="36.7696542106568813323974609375" lon="-118.4767408668994903564453125">
        <ele>2238.39990234375</ele>
        <time>2021-06-24T21:04:17.000Z</time>
        <extensions>
          <ns3:TrackPointExtension>
            <ns3:atemp>31.0</ns3:atemp>
            <ns3:hr>92</ns3:hr>
          </ns3:TrackPointExtension>
        </extensions>
      </trkpt>
      <trkpt lat="36.76967726089060306549072265625" lon="-118.476692922413349151611328125">
        <ele>2238</ele>
        <time>2021-06-24T21:04:21.000Z</time>
        <extensions>
          <ns3:TrackPointExtension>
            <ns3:atemp>31.0</ns3:atemp>
            <ns3:hr>90</ns3:hr>
          </ns3:TrackPointExtension>
        </extensions>
      </trkpt>
      <trkpt lat="36.7696800269186496734619140625" lon="-118.4766961075365543365478515625">
        <ele>2238</ele>
        <time>2021-06-24T21:04:22.000Z</time>
        <extensions>
          <ns3:TrackPointExtension>
            <ns3:atemp>31.0</ns3:atemp>
            <ns3:hr>88</ns3:hr>
          </ns3:TrackPointExtension>
        </extensions>
      </trkpt>
      <trkpt lat="36.76967541687190532684326171875" lon="-118.4766719676554203033447265625">
        <ele>2238.199951171875</ele>
        <time>2021-06-24T21:04:27.000Z</time>
        <extensions>
          <ns3:TrackPointExtension>
            <ns3:atemp>31.0</ns3:atemp>
            <ns3:hr>86</ns3:hr>
          </ns3:TrackPointExtension>
        </extensions>
      </trkpt>
      <trkpt lat="36.769655048847198486328125" lon="-118.47664673812687397003173828125">
        <ele>2238.199951171875</ele>
        <time>2021-06-24T21:04:34.000Z</time>
        <extensions>
          <ns3:TrackPointExtension>
            <ns3:atemp>31.0</ns3:atemp>
            <ns3:hr>84</ns3:hr>
          </ns3:TrackPointExtension>
        </extensions>
      </trkpt>
      <trkpt lat="36.769648678600788116455078125" lon="-118.4766488336026668548583984375">
        <ele>2238.199951171875</ele>
        <time>2021-06-24T21:04:39.000Z</time>
        <extensions>
          <ns3:TrackPointExtension>
            <ns3:atemp>31.0</ns3:atemp>
            <ns3:hr>87</ns3:hr>
          </ns3:TrackPointExtension>
        </extensions>
      </trkpt>
      <trkpt lat="36.76964457146823406219482421875" lon="-118.4766230173408985137939453125">
        <ele>2238.199951171875</ele>
        <time>2021-06-24T21:04:44.000Z</time>
        <extensions>
          <ns3:TrackPointExtension>
            <ns3:atemp>31.0</ns3:atemp>
            <ns3:hr>87</ns3:hr>
          </ns3:TrackPointExtension>
        </extensions>
      </trkpt>
      <trkpt lat="36.76960232667624950408935546875" lon="-118.47653576172888278961181640625">
        <ele>2238.199951171875</ele>
        <time>2021-06-24T21:04:49.000Z</time>
        <extensions>
          <ns3:TrackPointExtension>
            <ns3:atemp>31.0</ns3:atemp>
            <ns3:hr>88</ns3:hr>
          </ns3:TrackPointExtension>
        </extensions>
      </trkpt>
      <trkpt lat="36.76956175826489925384521484375" lon="-118.47645848058164119720458984375">
        <ele>2238.199951171875</ele>
        <time>2021-06-24T21:04:55.000Z</time>
        <extensions>
          <ns3:TrackPointExtension>
            <ns3:atemp>31.0</ns3:atemp>
            <ns3:hr>88</ns3:hr>
          </ns3:TrackPointExtension>
        </extensions>
      </trkpt>
      <trkpt lat="36.7695465870201587677001953125" lon="-118.47642696462571620941162109375">
        <ele>2238.199951171875</ele>
        <time>2021-06-24T21:04:57.000Z</time>
        <extensions>
          <ns3:TrackPointExtension>
            <ns3:atemp>31.0</ns3:atemp>
            <ns3:hr>88</ns3:hr>
          </ns3:TrackPointExtension>
        </extensions>
      </trkpt>
      <trkpt lat="36.769553460180759429931640625" lon="-118.47641824744641780853271484375">
        <ele>2238.199951171875</ele>
        <time>2021-06-24T21:04:59.000Z</time>
        <extensions>
          <ns3:TrackPointExtension>
            <ns3:atemp>31.0</ns3:atemp>
            <ns3:hr>87</ns3:hr>
          </ns3:TrackPointExtension>
        </extensions>
      </trkpt>
      <trkpt lat="36.7695848084986209869384765625" lon="-118.47637030296027660369873046875">
        <ele>2238</ele>
        <time>2021-06-24T21:05:02.000Z</time>
        <extensions>
          <ns3:TrackPointExtension>
            <ns3:atemp>31.0</ns3:atemp>
            <ns3:hr>85</ns3:hr>
          </ns3:TrackPointExtension>
        </extensions>
      </trkpt>
      <trkpt lat="36.76958925090730190277099609375" lon="-118.47635957412421703338623046875">
        <ele>2237.800048828125</ele>
        <time>2021-06-24T21:05:03.000Z</time>
        <extensions>
          <ns3:TrackPointExtension>
            <ns3:atemp>31.0</ns3:atemp>
            <ns3:hr>85</ns3:hr>
          </ns3:TrackPointExtension>
        </extensions>
      </trkpt>
      <trkpt lat="36.76960199140012264251708984375" lon="-118.476360999047756195068359375">
        <ele>2237.800048828125</ele>
        <time>2021-06-24T21:05:05.000Z</time>
        <extensions>
          <ns3:TrackPointExtension>
            <ns3:atemp>31.0</ns3:atemp>
            <ns3:hr>84</ns3:hr>
          </ns3:TrackPointExtension>
        </extensions>
      </trkpt>
      <trkpt lat="36.76958640106022357940673828125" lon="-118.47633409313857555389404296875">
        <ele>2238</ele>
        <time>2021-06-24T21:05:08.000Z</time>
        <extensions>
          <ns3:TrackPointExtension>
            <ns3:atemp>31.0</ns3:atemp>
            <ns3:hr>83</ns3:hr>
          </ns3:TrackPointExtension>
        </extensions>
      </trkpt>
      <trkpt lat="36.769579946994781494140625" lon="-118.47632084973156452178955078125">
        <ele>2238</ele>
        <time>2021-06-24T21:05:09.000Z</time>
        <extensions>
          <ns3:TrackPointExtension>
            <ns3:atemp>31.0</ns3:atemp>
            <ns3:hr>83</ns3:hr>
          </ns3:TrackPointExtension>
        </extensions>
      </trkpt>
      <trkpt lat="36.76957366056740283966064453125" lon="-118.476304002106189727783203125">
        <ele>2238</ele>
        <time>2021-06-24T21:05:10.000Z</time>
        <extensions>
          <ns3:TrackPointExtension>
            <ns3:atemp>31.0</ns3:atemp>
            <ns3:hr>82</ns3:hr>
          </ns3:TrackPointExtension>
        </extensions>
      </trkpt>
      <trkpt lat="36.76955739967525005340576171875" lon="-118.4762719832360744476318359375">
        <ele>2238</ele>
        <time>2021-06-24T21:05:12.000Z</time>
        <extensions>
          <ns3:TrackPointExtension>
            <ns3:atemp>31.0</ns3:atemp>
            <ns3:hr>82</ns3:hr>
          </ns3:TrackPointExtension>
        </extensions>
      </trkpt>
      <trkpt lat="36.76952202804386615753173828125" lon="-118.47619847394526004791259765625">
        <ele>2238</ele>
        <time>2021-06-24T21:05:17.000Z</time>
        <extensions>
          <ns3:TrackPointExtension>
            <ns3:atemp>31.0</ns3:atemp>
            <ns3:hr>81</ns3:hr>
          </ns3:TrackPointExtension>
        </extensions>
      </trkpt>
      <trkpt lat="36.7694711498916149139404296875" lon="-118.4761030040681362152099609375">
        <ele>2238</ele>
        <time>2021-06-24T21:05:23.000Z</time>
        <extensions>
          <ns3:TrackPointExtension>
            <ns3:atemp>31.0</ns3:atemp>
            <ns3:hr>81</ns3:hr>
          </ns3:TrackPointExtension>
        </extensions>
      </trkpt>
      <trkpt lat="36.76946050487458705902099609375" lon="-118.47609772346913814544677734375">
        <ele>2238</ele>
        <time>2021-06-24T21:05:24.000Z</time>
        <extensions>
          <ns3:TrackPointExtension>
            <ns3:atemp>31.0</ns3:atemp>
            <ns3:hr>82</ns3:hr>
          </ns3:TrackPointExtension>
        </extensions>
      </trkpt>
      <trkpt lat="36.76944809965789318084716796875" lon="-118.4760783612728118896484375">
        <ele>2238.199951171875</ele>
        <time>2021-06-24T21:05:27.000Z</time>
        <extensions>
          <ns3:TrackPointExtension>
            <ns3:atemp>31.0</ns3:atemp>
            <ns3:hr>83</ns3:hr>
          </ns3:TrackPointExtension>
        </extensions>
      </trkpt>
      <trkpt lat="36.76944726146757602691650390625" lon="-118.476061932742595672607421875">
        <ele>2238</ele>
        <time>2021-06-24T21:05:30.000Z</time>
        <extensions>
          <ns3:TrackPointExtension>
            <ns3:atemp>31.0</ns3:atemp>
            <ns3:hr>84</ns3:hr>
          </ns3:TrackPointExtension>
        </extensions>
      </trkpt>
      <trkpt lat="36.76944642327725887298583984375" lon="-118.47605346702039241790771484375">
        <ele>2237.800048828125</ele>
        <time>2021-06-24T21:05:32.000Z</time>
        <extensions>
          <ns3:TrackPointExtension>
            <ns3:atemp>31.0</ns3:atemp>
            <ns3:hr>83</ns3:hr>
          </ns3:TrackPointExtension>
        </extensions>
      </trkpt>
      <trkpt lat="36.76945162005722522735595703125" lon="-118.47604961134493350982666015625">
        <ele>2237.60009765625</ele>
        <time>2021-06-24T21:05:35.000Z</time>
        <extensions>
          <ns3:TrackPointExtension>
            <ns3:atemp>31.0</ns3:atemp>
            <ns3:hr>80</ns3:hr>
          </ns3:TrackPointExtension>
        </extensions>
      </trkpt>
      <trkpt lat="36.7694391310214996337890625" lon="-118.47602983005344867706298828125">
        <ele>2237.60009765625</ele>
        <time>2021-06-24T21:05:37.000Z</time>
        <extensions>
          <ns3:TrackPointExtension>
            <ns3:atemp>31.0</ns3:atemp>
            <ns3:hr>82</ns3:hr>
          </ns3:TrackPointExtension>
        </extensions>
      </trkpt>
      <trkpt lat="36.7693977244198322296142578125" lon="-118.47597618587315082550048828125">
        <ele>2238</ele>
        <time>2021-06-24T21:05:43.000Z</time>
        <extensions>
          <ns3:TrackPointExtension>
            <ns3:atemp>31.0</ns3:atemp>
            <ns3:hr>81</ns3:hr>
          </ns3:TrackPointExtension>
        </extensions>
      </trkpt>
      <trkpt lat="36.7693749256432056427001953125" lon="-118.47593729384243488311767578125">
        <ele>2237.800048828125</ele>
        <time>2021-06-24T21:05:46.000Z</time>
        <extensions>
          <ns3:TrackPointExtension>
            <ns3:atemp>31.0</ns3:atemp>
            <ns3:hr>80</ns3:hr>
          </ns3:TrackPointExtension>
        </extensions>
      </trkpt>
      <trkpt lat="36.76936645992100238800048828125" lon="-118.47590963356196880340576171875">
        <ele>2237.800048828125</ele>
        <time>2021-06-24T21:05:48.000Z</time>
        <extensions>
          <ns3:TrackPointExtension>
            <ns3:atemp>31.0</ns3:atemp>
            <ns3:hr>80</ns3:hr>
          </ns3:TrackPointExtension>
        </extensions>
      </trkpt>
      <trkpt lat="36.76935723982751369476318359375" lon="-118.4758932888507843017578125">
        <ele>2237.39990234375</ele>
        <time>2021-06-24T21:05:49.000Z</time>
        <extensions>
          <ns3:TrackPointExtension>
            <ns3:atemp>31.0</ns3:atemp>
            <ns3:hr>80</ns3:hr>
          </ns3:TrackPointExtension>
        </extensions>
      </trkpt>
      <trkpt lat="36.769344918429851531982421875" lon="-118.47584961913526058197021484375">
        <ele>2238</ele>
        <time>2021-06-24T21:05:53.000Z</time>
        <extensions>
          <ns3:TrackPointExtension>
            <ns3:atemp>31.0</ns3:atemp>
            <ns3:hr>81</ns3:hr>
          </ns3:TrackPointExtension>
        </extensions>
      </trkpt>
      <trkpt lat="36.769348271191120147705078125" lon="-118.4758542291820049285888671875">
        <ele>2238.199951171875</ele>
        <time>2021-06-24T21:05:54.000Z</time>
        <extensions>
          <ns3:TrackPointExtension>
            <ns3:atemp>31.0</ns3:atemp>
            <ns3:hr>81</ns3:hr>
          </ns3:TrackPointExtension>
        </extensions>
      </trkpt>
      <trkpt lat="36.76935053430497646331787109375" lon="-118.4758208692073822021484375">
        <ele>2238.39990234375</ele>
        <time>2021-06-24T21:05:57.000Z</time>
        <extensions>
          <ns3:TrackPointExtension>
            <ns3:atemp>31.0</ns3:atemp>
            <ns3:hr>80</ns3:hr>
          </ns3:TrackPointExtension>
        </extensions>
      </trkpt>
      <trkpt lat="36.76934282295405864715576171875" lon="-118.47577250562608242034912109375">
        <ele>2238.39990234375</ele>
        <time>2021-06-24T21:06:00.000Z</time>
        <extensions>
          <ns3:TrackPointExtension>
            <ns3:atemp>31.0</ns3:atemp>
            <ns3:hr>80</ns3:hr>
          </ns3:TrackPointExtension>
        </extensions>
      </trkpt>
      <trkpt lat="36.7693316750228404998779296875" lon="-118.4757432527840137481689453125">
        <ele>2238.39990234375</ele>
        <time>2021-06-24T21:06:02.000Z</time>
        <extensions>
          <ns3:TrackPointExtension>
            <ns3:atemp>31.0</ns3:atemp>
            <ns3:hr>79</ns3:hr>
          </ns3:TrackPointExtension>
        </extensions>
      </trkpt>
      <trkpt lat="36.7693105526268482208251953125" lon="-118.4757043607532978057861328125">
        <ele>2238.39990234375</ele>
        <time>2021-06-24T21:06:04.000Z</time>
        <extensions>
          <ns3:TrackPointExtension>
            <ns3:atemp>31.0</ns3:atemp>
            <ns3:hr>79</ns3:hr>
          </ns3:TrackPointExtension>
        </extensions>
      </trkpt>
      <trkpt lat="36.7692897655069828033447265625" lon="-118.4756446816027164459228515625">
        <ele>2238.39990234375</ele>
        <time>2021-06-24T21:06:08.000Z</time>
        <extensions>
          <ns3:TrackPointExtension>
            <ns3:atemp>31.0</ns3:atemp>
            <ns3:hr>81</ns3:hr>
          </ns3:TrackPointExtension>
        </extensions>
      </trkpt>
      <trkpt lat="36.7692867480218410491943359375" lon="-118.47560771740972995758056640625">
        <ele>2238.39990234375</ele>
        <time>2021-06-24T21:06:11.000Z</time>
        <extensions>
          <ns3:TrackPointExtension>
            <ns3:atemp>31.0</ns3:atemp>
            <ns3:hr>83</ns3:hr>
          </ns3:TrackPointExtension>
        </extensions>
      </trkpt>
      <trkpt lat="36.76929504610598087310791015625" lon="-118.47560402937233448028564453125">
        <ele>2238.39990234375</ele>
        <time>2021-06-24T21:06:15.000Z</time>
        <extensions>
          <ns3:TrackPointExtension>
            <ns3:atemp>31.0</ns3:atemp>
            <ns3:hr>85</ns3:hr>
          </ns3:TrackPointExtension>
        </extensions>
      </trkpt>
      <trkpt lat="36.76928951404988765716552734375" lon="-118.47558081150054931640625">
        <ele>2238.800048828125</ele>
        <time>2021-06-24T21:06:17.000Z</time>
        <extensions>
          <ns3:TrackPointExtension>
            <ns3:atemp>31.0</ns3:atemp>
            <ns3:hr>86</ns3:hr>
          </ns3:TrackPointExtension>
        </extensions>
      </trkpt>
      <trkpt lat="36.76929739303886890411376953125" lon="-118.47556270658969879150390625">
        <ele>2239</ele>
        <time>2021-06-24T21:06:19.000Z</time>
        <extensions>
          <ns3:TrackPointExtension>
            <ns3:atemp>31.0</ns3:atemp>
            <ns3:hr>87</ns3:hr>
          </ns3:TrackPointExtension>
        </extensions>
      </trkpt>
      <trkpt lat="36.769299991428852081298828125" lon="-118.47554217092692852020263671875">
        <ele>2239.199951171875</ele>
        <time>2021-06-24T21:06:21.000Z</time>
        <extensions>
          <ns3:TrackPointExtension>
            <ns3:atemp>31.0</ns3:atemp>
            <ns3:hr>86</ns3:hr>
          </ns3:TrackPointExtension>
        </extensions>
      </trkpt>
      <trkpt lat="36.76930409856140613555908203125" lon="-118.47553261555731296539306640625">
        <ele>2239.39990234375</ele>
        <time>2021-06-24T21:06:22.000Z</time>
        <extensions>
          <ns3:TrackPointExtension>
            <ns3:atemp>31.0</ns3:atemp>
            <ns3:hr>85</ns3:hr>
          </ns3:TrackPointExtension>
        </extensions>
      </trkpt>
      <trkpt lat="36.76931331865489482879638671875" lon="-118.4755177795886993408203125">
        <ele>2239.39990234375</ele>
        <time>2021-06-24T21:06:24.000Z</time>
        <extensions>
          <ns3:TrackPointExtension>
            <ns3:atemp>31.0</ns3:atemp>
            <ns3:hr>88</ns3:hr>
          </ns3:TrackPointExtension>
        </extensions>
      </trkpt>
      <trkpt lat="36.7693175934255123138427734375" lon="-118.4754971601068973541259765625">
        <ele>2239.39990234375</ele>
        <time>2021-06-24T21:06:26.000Z</time>
        <extensions>
          <ns3:TrackPointExtension>
            <ns3:atemp>31.0</ns3:atemp>
            <ns3:hr>88</ns3:hr>
          </ns3:TrackPointExtension>
        </extensions>
      </trkpt>
      <trkpt lat="36.7693246342241764068603515625" lon="-118.47549120895564556121826171875">
        <ele>2239.800048828125</ele>
        <time>2021-06-24T21:06:28.000Z</time>
        <extensions>
          <ns3:TrackPointExtension>
            <ns3:atemp>31.0</ns3:atemp>
            <ns3:hr>87</ns3:hr>
          </ns3:TrackPointExtension>
        </extensions>
      </trkpt>
      <trkpt lat="36.76932974718511104583740234375" lon="-118.4754488803446292877197265625">
        <ele>2240.199951171875</ele>
        <time>2021-06-24T21:06:31.000Z</time>
        <extensions>
          <ns3:TrackPointExtension>
            <ns3:atemp>31.0</ns3:atemp>
            <ns3:hr>87</ns3:hr>
          </ns3:TrackPointExtension>
        </extensions>
      </trkpt>
      <trkpt lat="36.7693246342241764068603515625" lon="-118.47543572075664997100830078125">
        <ele>2240.39990234375</ele>
        <time>2021-06-24T21:06:32.000Z</time>
        <extensions>
          <ns3:TrackPointExtension>
            <ns3:atemp>31.0</ns3:atemp>
            <ns3:hr>87</ns3:hr>
          </ns3:TrackPointExtension>
        </extensions>
      </trkpt>
      <trkpt lat="36.76931231282651424407958984375" lon="-118.47540420480072498321533203125">
        <ele>2240.60009765625</ele>
        <time>2021-06-24T21:06:34.000Z</time>
        <extensions>
          <ns3:TrackPointExtension>
            <ns3:atemp>31.0</ns3:atemp>
            <ns3:hr>88</ns3:hr>
          </ns3:TrackPointExtension>
        </extensions>
      </trkpt>
      <trkpt lat="36.7693296633660793304443359375" lon="-118.4753831662237644195556640625">
        <ele>2241</ele>
        <time>2021-06-24T21:06:36.000Z</time>
        <extensions>
          <ns3:TrackPointExtension>
            <ns3:atemp>31.0</ns3:atemp>
            <ns3:hr>88</ns3:hr>
          </ns3:TrackPointExtension>
        </extensions>
      </trkpt>
      <trkpt lat="36.76932874135673046112060546875" lon="-118.4753543324768543243408203125">
        <ele>2241</ele>
        <time>2021-06-24T21:06:37.000Z</time>
        <extensions>
          <ns3:TrackPointExtension>
            <ns3:atemp>31.0</ns3:atemp>
            <ns3:hr>88</ns3:hr>
          </ns3:TrackPointExtension>
        </extensions>
      </trkpt>
      <trkpt lat="36.76930359564721584320068359375" lon="-118.47529104910790920257568359375">
        <ele>2241</ele>
        <time>2021-06-24T21:06:41.000Z</time>
        <extensions>
          <ns3:TrackPointExtension>
            <ns3:atemp>31.0</ns3:atemp>
            <ns3:hr>89</ns3:hr>
          </ns3:TrackPointExtension>
        </extensions>
      </trkpt>
      <trkpt lat="36.76929228007793426513671875" lon="-118.475281409919261932373046875">
        <ele>2241.199951171875</ele>
        <time>2021-06-24T21:06:42.000Z</time>
        <extensions>
          <ns3:TrackPointExtension>
            <ns3:atemp>31.0</ns3:atemp>
            <ns3:hr>88</ns3:hr>
          </ns3:TrackPointExtension>
        </extensions>
      </trkpt>
      <trkpt lat="36.7692790366709232330322265625" lon="-118.4752736985683441162109375">
        <ele>2241.199951171875</ele>
        <time>2021-06-24T21:06:43.000Z</time>
        <extensions>
          <ns3:TrackPointExtension>
            <ns3:atemp>31.0</ns3:atemp>
            <ns3:hr>87</ns3:hr>
          </ns3:TrackPointExtension>
        </extensions>
      </trkpt>
      <trkpt lat="36.76925607025623321533203125" lon="-118.4752641431987285614013671875">
        <ele>2241.39990234375</ele>
        <time>2021-06-24T21:06:45.000Z</time>
        <extensions>
          <ns3:TrackPointExtension>
            <ns3:atemp>31.0</ns3:atemp>
            <ns3:hr>84</ns3:hr>
          </ns3:TrackPointExtension>
        </extensions>
      </trkpt>
      <trkpt lat="36.769232936203479766845703125" lon="-118.4752507321536540985107421875">
        <ele>2241.39990234375</ele>
        <time>2021-06-24T21:06:47.000Z</time>
        <extensions>
          <ns3:TrackPointExtension>
            <ns3:atemp>31.0</ns3:atemp>
            <ns3:hr>81</ns3:hr>
          </ns3:TrackPointExtension>
        </extensions>
      </trkpt>
      <trkpt lat="36.76922262646257877349853515625" lon="-118.47523991949856281280517578125">
        <ele>2241.199951171875</ele>
        <time>2021-06-24T21:06:48.000Z</time>
        <extensions>
          <ns3:TrackPointExtension>
            <ns3:atemp>31.0</ns3:atemp>
            <ns3:hr>81</ns3:hr>
          </ns3:TrackPointExtension>
        </extensions>
      </trkpt>
      <trkpt lat="36.7691911943256855010986328125" lon="-118.4752101637423038482666015625">
        <ele>2241.199951171875</ele>
        <time>2021-06-24T21:06:50.000Z</time>
        <extensions>
          <ns3:TrackPointExtension>
            <ns3:atemp>31.0</ns3:atemp>
            <ns3:hr>81</ns3:hr>
          </ns3:TrackPointExtension>
        </extensions>
      </trkpt>
      <trkpt lat="36.76915439777076244354248046875" lon="-118.47516238689422607421875">
        <ele>2240.800048828125</ele>
        <time>2021-06-24T21:06:54.000Z</time>
        <extensions>
          <ns3:TrackPointExtension>
            <ns3:atemp>31.0</ns3:atemp>
            <ns3:hr>82</ns3:hr>
          </ns3:TrackPointExtension>
        </extensions>
      </trkpt>
      <trkpt lat="36.76913310773670673370361328125" lon="-118.475129194557666778564453125">
        <ele>2240.800048828125</ele>
        <time>2021-06-24T21:06:58.000Z</time>
        <extensions>
          <ns3:TrackPointExtension>
            <ns3:atemp>31.0</ns3:atemp>
            <ns3:hr>83</ns3:hr>
          </ns3:TrackPointExtension>
        </extensions>
      </trkpt>
      <trkpt lat="36.76912053488194942474365234375" lon="-118.47510832361876964569091796875">
        <ele>2240.800048828125</ele>
        <time>2021-06-24T21:06:59.000Z</time>
        <extensions>
          <ns3:TrackPointExtension>
            <ns3:atemp>31.0</ns3:atemp>
            <ns3:hr>83</ns3:hr>
          </ns3:TrackPointExtension>
        </extensions>
      </trkpt>
      <trkpt lat="36.769116260111331939697265625" lon="-118.47509063780307769775390625">
        <ele>2241</ele>
        <time>2021-06-24T21:07:00.000Z</time>
        <extensions>
          <ns3:TrackPointExtension>
            <ns3:atemp>31.0</ns3:atemp>
            <ns3:hr>83</ns3:hr>
          </ns3:TrackPointExtension>
        </extensions>
      </trkpt>
      <trkpt lat="36.76911818794906139373779296875" lon="-118.4750874526798725128173828125">
        <ele>2241.39990234375</ele>
        <time>2021-06-24T21:07:03.000Z</time>
        <extensions>
          <ns3:TrackPointExtension>
            <ns3:atemp>31.0</ns3:atemp>
            <ns3:hr>83</ns3:hr>
          </ns3:TrackPointExtension>
        </extensions>
      </trkpt>
      <trkpt lat="36.7691214568912982940673828125" lon="-118.475084267556667327880859375">
        <ele>2241.39990234375</ele>
        <time>2021-06-24T21:07:04.000Z</time>
        <extensions>
          <ns3:TrackPointExtension>
            <ns3:atemp>31.0</ns3:atemp>
            <ns3:hr>83</ns3:hr>
          </ns3:TrackPointExtension>
        </extensions>
      </trkpt>
      <trkpt lat="36.76912061870098114013671875" lon="-118.47507513128221035003662109375">
        <ele>2241.39990234375</ele>
        <time>2021-06-24T21:07:05.000Z</time>
        <extensions>
          <ns3:TrackPointExtension>
            <ns3:atemp>31.0</ns3:atemp>
            <ns3:hr>82</ns3:hr>
          </ns3:TrackPointExtension>
        </extensions>
      </trkpt>
      <trkpt lat="36.7691056989133358001708984375" lon="-118.475025929510593414306640625">
        <ele>2241.199951171875</ele>
        <time>2021-06-24T21:07:08.000Z</time>
        <extensions>
          <ns3:TrackPointExtension>
            <ns3:atemp>31.0</ns3:atemp>
            <ns3:hr>83</ns3:hr>
          </ns3:TrackPointExtension>
        </extensions>
      </trkpt>
      <trkpt lat="36.769088096916675567626953125" lon="-118.47498594783246517181396484375">
        <ele>2241.199951171875</ele>
        <time>2021-06-24T21:07:11.000Z</time>
        <extensions>
          <ns3:TrackPointExtension>
            <ns3:atemp>31.0</ns3:atemp>
            <ns3:hr>85</ns3:hr>
          </ns3:TrackPointExtension>
        </extensions>
      </trkpt>
      <trkpt lat="36.76908348686993122100830078125" lon="-118.47498108632862567901611328125">
        <ele>2241.199951171875</ele>
        <time>2021-06-24T21:07:12.000Z</time>
        <extensions>
          <ns3:TrackPointExtension>
            <ns3:atemp>31.0</ns3:atemp>
            <ns3:hr>86</ns3:hr>
          </ns3:TrackPointExtension>
        </extensions>
      </trkpt>
      <trkpt lat="36.76907611079514026641845703125" lon="-118.47495459951460361480712890625">
        <ele>2241.199951171875</ele>
        <time>2021-06-24T21:07:14.000Z</time>
        <extensions>
          <ns3:TrackPointExtension>
            <ns3:atemp>31.0</ns3:atemp>
            <ns3:hr>87</ns3:hr>
          </ns3:TrackPointExtension>
        </extensions>
      </trkpt>
      <trkpt lat="36.76907376386225223541259765625" lon="-118.47494806163012981414794921875">
        <ele>2241.199951171875</ele>
        <time>2021-06-24T21:07:15.000Z</time>
        <extensions>
          <ns3:TrackPointExtension>
            <ns3:atemp>31.0</ns3:atemp>
            <ns3:hr>90</ns3:hr>
          </ns3:TrackPointExtension>
        </extensions>
      </trkpt>
      <trkpt lat="36.76907510496675968170166015625" lon="-118.47494554705917835235595703125">
        <ele>2241.39990234375</ele>
        <time>2021-06-24T21:07:16.000Z</time>
        <extensions>
          <ns3:TrackPointExtension>
            <ns3:atemp>31.0</ns3:atemp>
            <ns3:hr>90</ns3:hr>
          </ns3:TrackPointExtension>
        </extensions>
      </trkpt>
      <trkpt lat="36.76908231340348720550537109375" lon="-118.47493632696568965911865234375">
        <ele>2241.60009765625</ele>
        <time>2021-06-24T21:07:18.000Z</time>
        <extensions>
          <ns3:TrackPointExtension>
            <ns3:atemp>31.0</ns3:atemp>
            <ns3:hr>89</ns3:hr>
          </ns3:TrackPointExtension>
        </extensions>
      </trkpt>
      <trkpt lat="36.7690797150135040283203125" lon="-118.4749174676835536956787109375">
        <ele>2241.60009765625</ele>
        <time>2021-06-24T21:07:19.000Z</time>
        <extensions>
          <ns3:TrackPointExtension>
            <ns3:atemp>31.0</ns3:atemp>
            <ns3:hr>89</ns3:hr>
          </ns3:TrackPointExtension>
        </extensions>
      </trkpt>
      <trkpt lat="36.76906605251133441925048828125" lon="-118.47484563477337360382080078125">
        <ele>2241.60009765625</ele>
        <time>2021-06-24T21:07:25.000Z</time>
        <extensions>
          <ns3:TrackPointExtension>
            <ns3:atemp>31.0</ns3:atemp>
            <ns3:hr>92</ns3:hr>
          </ns3:TrackPointExtension>
        </extensions>
      </trkpt>
      <trkpt lat="36.76906119100749492645263671875" lon="-118.4748333133757114410400390625">
        <ele>2241.60009765625</ele>
        <time>2021-06-24T21:07:26.000Z</time>
        <extensions>
          <ns3:TrackPointExtension>
            <ns3:atemp>31.0</ns3:atemp>
            <ns3:hr>91</ns3:hr>
          </ns3:TrackPointExtension>
        </extensions>
      </trkpt>
      <trkpt lat="36.7690694890916347503662109375" lon="-118.47482350654900074005126953125">
        <ele>2241.60009765625</ele>
        <time>2021-06-24T21:07:28.000Z</time>
        <extensions>
          <ns3:TrackPointExtension>
            <ns3:atemp>31.0</ns3:atemp>
            <ns3:hr>90</ns3:hr>
          </ns3:TrackPointExtension>
        </extensions>
      </trkpt>
      <trkpt lat="36.7690661363303661346435546875" lon="-118.4747917391359806060791015625">
        <ele>2242.39990234375</ele>
        <time>2021-06-24T21:07:32.000Z</time>
        <extensions>
          <ns3:TrackPointExtension>
            <ns3:atemp>31.0</ns3:atemp>
            <ns3:hr>92</ns3:hr>
          </ns3:TrackPointExtension>
        </extensions>
      </trkpt>
      <trkpt lat="36.76904417574405670166015625" lon="-118.47480221651494503021240234375">
        <ele>2242</ele>
        <time>2021-06-24T21:07:35.000Z</time>
        <extensions>
          <ns3:TrackPointExtension>
            <ns3:atemp>31.0</ns3:atemp>
            <ns3:hr>95</ns3:hr>
          </ns3:TrackPointExtension>
        </extensions>
      </trkpt>
      <trkpt lat="36.76904124207794666290283203125" lon="-118.4748105145990848541259765625">
        <ele>2242</ele>
        <time>2021-06-24T21:07:37.000Z</time>
        <extensions>
          <ns3:TrackPointExtension>
            <ns3:atemp>31.0</ns3:atemp>
            <ns3:hr>95</ns3:hr>
          </ns3:TrackPointExtension>
        </extensions>
      </trkpt>
      <trkpt lat="36.76903369836509227752685546875" lon="-118.4748038090765476226806640625">
        <ele>2242</ele>
        <time>2021-06-24T21:07:38.000Z</time>
        <extensions>
          <ns3:TrackPointExtension>
            <ns3:atemp>31.0</ns3:atemp>
            <ns3:hr>95</ns3:hr>
          </ns3:TrackPointExtension>
        </extensions>
      </trkpt>
      <trkpt lat="36.769027076661586761474609375" lon="-118.474781177937984466552734375">
        <ele>2242.800048828125</ele>
        <time>2021-06-24T21:07:42.000Z</time>
        <extensions>
          <ns3:TrackPointExtension>
            <ns3:atemp>31.0</ns3:atemp>
            <ns3:hr>97</ns3:hr>
          </ns3:TrackPointExtension>
        </extensions>
      </trkpt>
      <trkpt lat="36.7690185271203517913818359375" lon="-118.47477807663381099700927734375">
        <ele>2243</ele>
        <time>2021-06-24T21:07:44.000Z</time>
        <extensions>
          <ns3:TrackPointExtension>
            <ns3:atemp>31.0</ns3:atemp>
            <ns3:hr>94</ns3:hr>
          </ns3:TrackPointExtension>
        </extensions>
      </trkpt>
      <trkpt lat="36.769008301198482513427734375" lon="-118.4747521765530109405517578125">
        <ele>2242.800048828125</ele>
        <time>2021-06-24T21:07:47.000Z</time>
        <extensions>
          <ns3:TrackPointExtension>
            <ns3:atemp>31.0</ns3:atemp>
            <ns3:hr>92</ns3:hr>
          </ns3:TrackPointExtension>
        </extensions>
      </trkpt>
      <trkpt lat="36.76900151185691356658935546875" lon="-118.47472175024449825286865234375">
        <ele>2242.800048828125</ele>
        <time>2021-06-24T21:07:51.000Z</time>
        <extensions>
          <ns3:TrackPointExtension>
            <ns3:atemp>31.0</ns3:atemp>
            <ns3:hr>89</ns3:hr>
          </ns3:TrackPointExtension>
        </extensions>
      </trkpt>
      <trkpt lat="36.76898826844990253448486328125" lon="-118.47470171749591827392578125">
        <ele>2243</ele>
        <time>2021-06-24T21:07:53.000Z</time>
        <extensions>
          <ns3:TrackPointExtension>
            <ns3:atemp>31.0</ns3:atemp>
            <ns3:hr>89</ns3:hr>
          </ns3:TrackPointExtension>
        </extensions>
      </trkpt>
      <trkpt lat="36.7689803056418895721435546875" lon="-118.47470867447555065155029296875">
        <ele>2243</ele>
        <time>2021-06-24T21:07:57.000Z</time>
        <extensions>
          <ns3:TrackPointExtension>
            <ns3:atemp>31.0</ns3:atemp>
            <ns3:hr>88</ns3:hr>
          </ns3:TrackPointExtension>
        </extensions>
      </trkpt>
      <trkpt lat="36.7689541541039943695068359375" lon="-118.47462954930961132049560546875">
        <ele>2243.199951171875</ele>
        <time>2021-06-24T21:08:04.000Z</time>
        <extensions>
          <ns3:TrackPointExtension>
            <ns3:atemp>31.0</ns3:atemp>
            <ns3:hr>87</ns3:hr>
          </ns3:TrackPointExtension>
        </extensions>
      </trkpt>
      <trkpt lat="36.76891232840716838836669921875" lon="-118.47454271279275417327880859375">
        <ele>2243</ele>
        <time>2021-06-24T21:08:11.000Z</time>
        <extensions>
          <ns3:TrackPointExtension>
            <ns3:atemp>31.0</ns3:atemp>
            <ns3:hr>89</ns3:hr>
          </ns3:TrackPointExtension>
        </extensions>
      </trkpt>
      <trkpt lat="36.76891115494072437286376953125" lon="-118.47452729009091854095458984375">
        <ele>2242.39990234375</ele>
        <time>2021-06-24T21:08:12.000Z</time>
        <extensions>
          <ns3:TrackPointExtension>
            <ns3:atemp>31.0</ns3:atemp>
            <ns3:hr>89</ns3:hr>
          </ns3:TrackPointExtension>
        </extensions>
      </trkpt>
      <trkpt lat="36.76891283132135868072509765625" lon="-118.4745168127119541168212890625">
        <ele>2242.60009765625</ele>
        <time>2021-06-24T21:08:15.000Z</time>
        <extensions>
          <ns3:TrackPointExtension>
            <ns3:atemp>31.0</ns3:atemp>
            <ns3:hr>88</ns3:hr>
          </ns3:TrackPointExtension>
        </extensions>
      </trkpt>
      <trkpt lat="36.7689135856926441192626953125" lon="-118.47451505251228809356689453125">
        <ele>2242.800048828125</ele>
        <time>2021-06-24T21:08:17.000Z</time>
        <extensions>
          <ns3:TrackPointExtension>
            <ns3:atemp>31.0</ns3:atemp>
            <ns3:hr>87</ns3:hr>
          </ns3:TrackPointExtension>
        </extensions>
      </trkpt>
      <trkpt lat="36.768913082778453826904296875" lon="-118.47451756708323955535888671875">
        <ele>2243</ele>
        <time>2021-06-24T21:08:19.000Z</time>
        <extensions>
          <ns3:TrackPointExtension>
            <ns3:atemp>31.0</ns3:atemp>
            <ns3:hr>88</ns3:hr>
          </ns3:TrackPointExtension>
        </extensions>
      </trkpt>
      <trkpt lat="36.76888165064156055450439453125" lon="-118.47444548271596431732177734375">
        <ele>2243.39990234375</ele>
        <time>2021-06-24T21:08:22.000Z</time>
        <extensions>
          <ns3:TrackPointExtension>
            <ns3:atemp>31.0</ns3:atemp>
            <ns3:hr>89</ns3:hr>
          </ns3:TrackPointExtension>
        </extensions>
      </trkpt>
      <trkpt lat="36.7688864283263683319091796875" lon="-118.47442871890962123870849609375">
        <ele>2244</ele>
        <time>2021-06-24T21:08:24.000Z</time>
        <extensions>
          <ns3:TrackPointExtension>
            <ns3:atemp>31.0</ns3:atemp>
            <ns3:hr>91</ns3:hr>
          </ns3:TrackPointExtension>
        </extensions>
      </trkpt>
      <trkpt lat="36.768889613449573516845703125" lon="-118.4744004718959331512451171875">
        <ele>2244</ele>
        <time>2021-06-24T21:08:26.000Z</time>
        <extensions>
          <ns3:TrackPointExtension>
            <ns3:atemp>31.0</ns3:atemp>
            <ns3:hr>92</ns3:hr>
          </ns3:TrackPointExtension>
        </extensions>
      </trkpt>
      <trkpt lat="36.76888969726860523223876953125" lon="-118.47438991069793701171875">
        <ele>2244</ele>
        <time>2021-06-24T21:08:27.000Z</time>
        <extensions>
          <ns3:TrackPointExtension>
            <ns3:atemp>31.0</ns3:atemp>
            <ns3:hr>93</ns3:hr>
          </ns3:TrackPointExtension>
        </extensions>
      </trkpt>
      <trkpt lat="36.76890411414206027984619140625" lon="-118.47435847856104373931884765625">
        <ele>2244</ele>
        <time>2021-06-24T21:08:30.000Z</time>
        <extensions>
          <ns3:TrackPointExtension>
            <ns3:atemp>31.0</ns3:atemp>
            <ns3:hr>96</ns3:hr>
          </ns3:TrackPointExtension>
        </extensions>
      </trkpt>
      <trkpt lat="36.76889791153371334075927734375" lon="-118.47434892319142818450927734375">
        <ele>2244.199951171875</ele>
        <time>2021-06-24T21:08:31.000Z</time>
        <extensions>
          <ns3:TrackPointExtension>
            <ns3:atemp>31.0</ns3:atemp>
            <ns3:hr>98</ns3:hr>
          </ns3:TrackPointExtension>
        </extensions>
      </trkpt>
      <trkpt lat="36.76888030953705310821533203125" lon="-118.47431908361613750457763671875">
        <ele>2244.199951171875</ele>
        <time>2021-06-24T21:08:33.000Z</time>
        <extensions>
          <ns3:TrackPointExtension>
            <ns3:atemp>31.0</ns3:atemp>
            <ns3:hr>99</ns3:hr>
          </ns3:TrackPointExtension>
        </extensions>
      </trkpt>
      <trkpt lat="36.76887628622353076934814453125" lon="-118.47430835478007793426513671875">
        <ele>2244.199951171875</ele>
        <time>2021-06-24T21:08:35.000Z</time>
        <extensions>
          <ns3:TrackPointExtension>
            <ns3:atemp>31.0</ns3:atemp>
            <ns3:hr>101</ns3:hr>
          </ns3:TrackPointExtension>
        </extensions>
      </trkpt>
      <trkpt lat="36.7688723467290401458740234375" lon="-118.47430265508592128753662109375">
        <ele>2244</ele>
        <time>2021-06-24T21:08:37.000Z</time>
        <extensions>
          <ns3:TrackPointExtension>
            <ns3:atemp>31.0</ns3:atemp>
            <ns3:hr>102</ns3:hr>
          </ns3:TrackPointExtension>
        </extensions>
      </trkpt>
      <trkpt lat="36.76885415799915790557861328125" lon="-118.47429410554468631744384765625">
        <ele>2243.800048828125</ele>
        <time>2021-06-24T21:08:40.000Z</time>
        <extensions>
          <ns3:TrackPointExtension>
            <ns3:atemp>31.0</ns3:atemp>
            <ns3:hr>104</ns3:hr>
          </ns3:TrackPointExtension>
        </extensions>
      </trkpt>
      <trkpt lat="36.76884829066693782806396484375" lon="-118.47430617548525333404541015625">
        <ele>2244</ele>
        <time>2021-06-24T21:08:42.000Z</time>
        <extensions>
          <ns3:TrackPointExtension>
            <ns3:atemp>31.0</ns3:atemp>
            <ns3:hr>101</ns3:hr>
          </ns3:TrackPointExtension>
        </extensions>
      </trkpt>
      <trkpt lat="36.7688314430415630340576171875" lon="-118.4743268787860870361328125">
        <ele>2244</ele>
        <time>2021-06-24T21:08:45.000Z</time>
        <extensions>
          <ns3:TrackPointExtension>
            <ns3:atemp>31.0</ns3:atemp>
            <ns3:hr>98</ns3:hr>
          </ns3:TrackPointExtension>
        </extensions>
      </trkpt>
      <trkpt lat="36.7688260786235332489013671875" lon="-118.47432889044284820556640625">
        <ele>2244.199951171875</ele>
        <time>2021-06-24T21:08:46.000Z</time>
        <extensions>
          <ns3:TrackPointExtension>
            <ns3:atemp>31.0</ns3:atemp>
            <ns3:hr>97</ns3:hr>
          </ns3:TrackPointExtension>
        </extensions>
      </trkpt>
      <trkpt lat="36.7688230611383914947509765625" lon="-118.47432981245219707489013671875">
        <ele>2244.39990234375</ele>
        <time>2021-06-24T21:08:48.000Z</time>
        <extensions>
          <ns3:TrackPointExtension>
            <ns3:atemp>31.0</ns3:atemp>
            <ns3:hr>94</ns3:hr>
          </ns3:TrackPointExtension>
        </extensions>
      </trkpt>
      <trkpt lat="36.76879246719181537628173828125" lon="-118.47431640140712261199951171875">
        <ele>2244.39990234375</ele>
        <time>2021-06-24T21:08:51.000Z</time>
        <extensions>
          <ns3:TrackPointExtension>
            <ns3:atemp>31.0</ns3:atemp>
            <ns3:hr>92</ns3:hr>
          </ns3:TrackPointExtension>
        </extensions>
      </trkpt>
      <trkpt lat="36.7687322013080120086669921875" lon="-118.4742965362966060638427734375">
        <ele>2244</ele>
        <time>2021-06-24T21:08:56.000Z</time>
        <extensions>
          <ns3:TrackPointExtension>
            <ns3:atemp>31.0</ns3:atemp>
            <ns3:hr>90</ns3:hr>
          </ns3:TrackPointExtension>
        </extensions>
      </trkpt>
      <trkpt lat="36.76870982162654399871826171875" lon="-118.474299050867557525634765625">
        <ele>2244.199951171875</ele>
        <time>2021-06-24T21:08:58.000Z</time>
        <extensions>
          <ns3:TrackPointExtension>
            <ns3:atemp>31.0</ns3:atemp>
            <ns3:hr>90</ns3:hr>
          </ns3:TrackPointExtension>
        </extensions>
      </trkpt>
      <trkpt lat="36.7686530761420726776123046875" lon="-118.47430701367557048797607421875">
        <ele>2244.199951171875</ele>
        <time>2021-06-24T21:09:01.000Z</time>
        <extensions>
          <ns3:TrackPointExtension>
            <ns3:atemp>31.0</ns3:atemp>
            <ns3:hr>90</ns3:hr>
          </ns3:TrackPointExtension>
        </extensions>
      </trkpt>
      <trkpt lat="36.7686296068131923675537109375" lon="-118.4743136353790760040283203125">
        <ele>2244.60009765625</ele>
        <time>2021-06-24T21:09:04.000Z</time>
        <extensions>
          <ns3:TrackPointExtension>
            <ns3:atemp>31.0</ns3:atemp>
            <ns3:hr>93</ns3:hr>
          </ns3:TrackPointExtension>
        </extensions>
      </trkpt>
      <trkpt lat="36.76861326210200786590576171875" lon="-118.4742965362966060638427734375">
        <ele>2244.800048828125</ele>
        <time>2021-06-24T21:09:07.000Z</time>
        <extensions>
          <ns3:TrackPointExtension>
            <ns3:atemp>31.0</ns3:atemp>
            <ns3:hr>90</ns3:hr>
          </ns3:TrackPointExtension>
        </extensions>
      </trkpt>
      <trkpt lat="36.7686145193874835968017578125" lon="-118.4743005596101284027099609375">
        <ele>2244.800048828125</ele>
        <time>2021-06-24T21:09:09.000Z</time>
        <extensions>
          <ns3:TrackPointExtension>
            <ns3:atemp>31.0</ns3:atemp>
            <ns3:hr>90</ns3:hr>
          </ns3:TrackPointExtension>
        </extensions>
      </trkpt>
      <trkpt lat="36.76861091516911983489990234375" lon="-118.4742941893637180328369140625">
        <ele>2244.800048828125</ele>
        <time>2021-06-24T21:09:10.000Z</time>
        <extensions>
          <ns3:TrackPointExtension>
            <ns3:atemp>31.0</ns3:atemp>
            <ns3:hr>90</ns3:hr>
          </ns3:TrackPointExtension>
        </extensions>
      </trkpt>
      <trkpt lat="36.76860303618013858795166015625" lon="-118.47428463399410247802734375">
        <ele>2244.800048828125</ele>
        <time>2021-06-24T21:09:12.000Z</time>
        <extensions>
          <ns3:TrackPointExtension>
            <ns3:atemp>31.0</ns3:atemp>
            <ns3:hr>90</ns3:hr>
          </ns3:TrackPointExtension>
        </extensions>
      </trkpt>
      <trkpt lat="36.76860052160918712615966796875" lon="-118.47428463399410247802734375">
        <ele>2244.800048828125</ele>
        <time>2021-06-24T21:09:13.000Z</time>
        <extensions>
          <ns3:TrackPointExtension>
            <ns3:atemp>31.0</ns3:atemp>
            <ns3:hr>91</ns3:hr>
          </ns3:TrackPointExtension>
        </extensions>
      </trkpt>
      <trkpt lat="36.768596582114696502685546875" lon="-118.4742864780128002166748046875">
        <ele>2245</ele>
        <time>2021-06-24T21:09:14.000Z</time>
        <extensions>
          <ns3:TrackPointExtension>
            <ns3:atemp>31.0</ns3:atemp>
            <ns3:hr>91</ns3:hr>
          </ns3:TrackPointExtension>
        </extensions>
      </trkpt>
      <trkpt lat="36.7685870267450809478759765625" lon="-118.4742797724902629852294921875">
        <ele>2245</ele>
        <time>2021-06-24T21:09:15.000Z</time>
        <extensions>
          <ns3:TrackPointExtension>
            <ns3:atemp>31.0</ns3:atemp>
            <ns3:hr>91</ns3:hr>
          </ns3:TrackPointExtension>
        </extensions>
      </trkpt>
      <trkpt lat="36.76855727098882198333740234375" lon="-118.4742469154298305511474609375">
        <ele>2245.39990234375</ele>
        <time>2021-06-24T21:09:17.000Z</time>
        <extensions>
          <ns3:TrackPointExtension>
            <ns3:atemp>31.0</ns3:atemp>
            <ns3:hr>92</ns3:hr>
          </ns3:TrackPointExtension>
        </extensions>
      </trkpt>
      <trkpt lat="36.76854989491403102874755859375" lon="-118.474244736135005950927734375">
        <ele>2245.39990234375</ele>
        <time>2021-06-24T21:09:18.000Z</time>
        <extensions>
          <ns3:TrackPointExtension>
            <ns3:atemp>31.0</ns3:atemp>
            <ns3:hr>92</ns3:hr>
          </ns3:TrackPointExtension>
        </extensions>
      </trkpt>
      <trkpt lat="36.76851904951035976409912109375" lon="-118.47423090599477291107177734375">
        <ele>2245.800048828125</ele>
        <time>2021-06-24T21:09:21.000Z</time>
        <extensions>
          <ns3:TrackPointExtension>
            <ns3:atemp>31.0</ns3:atemp>
            <ns3:hr>93</ns3:hr>
          </ns3:TrackPointExtension>
        </extensions>
      </trkpt>
      <trkpt lat="36.768507063388824462890625" lon="-118.47420073114335536956787109375">
        <ele>2246</ele>
        <time>2021-06-24T21:09:24.000Z</time>
        <extensions>
          <ns3:TrackPointExtension>
            <ns3:atemp>31.0</ns3:atemp>
            <ns3:hr>94</ns3:hr>
          </ns3:TrackPointExtension>
        </extensions>
      </trkpt>
      <trkpt lat="36.7684851028025150299072265625" lon="-118.47416938282549381256103515625">
        <ele>2246.199951171875</ele>
        <time>2021-06-24T21:09:27.000Z</time>
        <extensions>
          <ns3:TrackPointExtension>
            <ns3:atemp>31.0</ns3:atemp>
            <ns3:hr>93</ns3:hr>
          </ns3:TrackPointExtension>
        </extensions>
      </trkpt>
      <trkpt lat="36.7684827558696269989013671875" lon="-118.47414960153400897979736328125">
        <ele>2246.39990234375</ele>
        <time>2021-06-24T21:09:29.000Z</time>
        <extensions>
          <ns3:TrackPointExtension>
            <ns3:atemp>31.0</ns3:atemp>
            <ns3:hr>94</ns3:hr>
          </ns3:TrackPointExtension>
        </extensions>
      </trkpt>
      <trkpt lat="36.7684857733547687530517578125" lon="-118.4741372801363468170166015625">
        <ele>2246.60009765625</ele>
        <time>2021-06-24T21:09:31.000Z</time>
        <extensions>
          <ns3:TrackPointExtension>
            <ns3:atemp>31.0</ns3:atemp>
            <ns3:hr>96</ns3:hr>
          </ns3:TrackPointExtension>
        </extensions>
      </trkpt>
      <trkpt lat="36.76848585717380046844482421875" lon="-118.47412998788058757781982421875">
        <ele>2246.800048828125</ele>
        <time>2021-06-24T21:09:32.000Z</time>
        <extensions>
          <ns3:TrackPointExtension>
            <ns3:atemp>31.0</ns3:atemp>
            <ns3:hr>96</ns3:hr>
          </ns3:TrackPointExtension>
        </extensions>
      </trkpt>
      <trkpt lat="36.7684773914515972137451171875" lon="-118.4741131402552127838134765625">
        <ele>2246.800048828125</ele>
        <time>2021-06-24T21:09:34.000Z</time>
        <extensions>
          <ns3:TrackPointExtension>
            <ns3:atemp>31.0</ns3:atemp>
            <ns3:hr>96</ns3:hr>
          </ns3:TrackPointExtension>
        </extensions>
      </trkpt>
      <trkpt lat="36.76846213638782501220703125" lon="-118.47408858127892017364501953125">
        <ele>2246.800048828125</ele>
        <time>2021-06-24T21:09:35.000Z</time>
        <extensions>
          <ns3:TrackPointExtension>
            <ns3:atemp>31.0</ns3:atemp>
            <ns3:hr>97</ns3:hr>
          </ns3:TrackPointExtension>
        </extensions>
      </trkpt>
      <trkpt lat="36.76844872534275054931640625" lon="-118.47407148219645023345947265625">
        <ele>2246.60009765625</ele>
        <time>2021-06-24T21:09:36.000Z</time>
        <extensions>
          <ns3:TrackPointExtension>
            <ns3:atemp>31.0</ns3:atemp>
            <ns3:hr>99</ns3:hr>
          </ns3:TrackPointExtension>
        </extensions>
      </trkpt>
      <trkpt lat="36.76839365623891353607177734375" lon="-118.47402621991932392120361328125">
        <ele>2246.60009765625</ele>
        <time>2021-06-24T21:09:39.000Z</time>
        <extensions>
          <ns3:TrackPointExtension>
            <ns3:atemp>31.0</ns3:atemp>
            <ns3:hr>101</ns3:hr>
          </ns3:TrackPointExtension>
        </extensions>
      </trkpt>
      <trkpt lat="36.7683774791657924652099609375" lon="-118.47401968203485012054443359375">
        <ele>2246.60009765625</ele>
        <time>2021-06-24T21:09:40.000Z</time>
        <extensions>
          <ns3:TrackPointExtension>
            <ns3:atemp>31.0</ns3:atemp>
            <ns3:hr>101</ns3:hr>
          </ns3:TrackPointExtension>
        </extensions>
      </trkpt>
      <trkpt lat="36.768345125019550323486328125" lon="-118.4739880822598934173583984375">
        <ele>2246.800048828125</ele>
        <time>2021-06-24T21:09:42.000Z</time>
        <extensions>
          <ns3:TrackPointExtension>
            <ns3:atemp>31.0</ns3:atemp>
            <ns3:hr>102</ns3:hr>
          </ns3:TrackPointExtension>
        </extensions>
      </trkpt>
      <trkpt lat="36.76833380945026874542236328125" lon="-118.47397525794804096221923828125">
        <ele>2247</ele>
        <time>2021-06-24T21:09:44.000Z</time>
        <extensions>
          <ns3:TrackPointExtension>
            <ns3:atemp>31.0</ns3:atemp>
            <ns3:hr>101</ns3:hr>
          </ns3:TrackPointExtension>
        </extensions>
      </trkpt>
      <trkpt lat="36.76833632402122020721435546875" lon="-118.4739763475954532623291015625">
        <ele>2247.199951171875</ele>
        <time>2021-06-24T21:09:47.000Z</time>
        <extensions>
          <ns3:TrackPointExtension>
            <ns3:atemp>31.0</ns3:atemp>
            <ns3:hr>101</ns3:hr>
          </ns3:TrackPointExtension>
        </extensions>
      </trkpt>
      <trkpt lat="36.7683389224112033843994140625" lon="-118.47396955825388431549072265625">
        <ele>2247.199951171875</ele>
        <time>2021-06-24T21:09:49.000Z</time>
        <extensions>
          <ns3:TrackPointExtension>
            <ns3:atemp>31.0</ns3:atemp>
            <ns3:hr>102</ns3:hr>
          </ns3:TrackPointExtension>
        </extensions>
      </trkpt>
      <trkpt lat="36.7683342285454273223876953125" lon="-118.4739632718265056610107421875">
        <ele>2247.199951171875</ele>
        <time>2021-06-24T21:09:50.000Z</time>
        <extensions>
          <ns3:TrackPointExtension>
            <ns3:atemp>31.0</ns3:atemp>
            <ns3:hr>102</ns3:hr>
          </ns3:TrackPointExtension>
        </extensions>
      </trkpt>
      <trkpt lat="36.76831729710102081298828125" lon="-118.473945669829845428466796875">
        <ele>2247.199951171875</ele>
        <time>2021-06-24T21:09:53.000Z</time>
        <extensions>
          <ns3:TrackPointExtension>
            <ns3:atemp>31.0</ns3:atemp>
            <ns3:hr>100</ns3:hr>
          </ns3:TrackPointExtension>
        </extensions>
      </trkpt>
      <trkpt lat="36.7683090828359127044677734375" lon="-118.473940975964069366455078125">
        <ele>2247.39990234375</ele>
        <time>2021-06-24T21:09:54.000Z</time>
        <extensions>
          <ns3:TrackPointExtension>
            <ns3:atemp>31.0</ns3:atemp>
            <ns3:hr>99</ns3:hr>
          </ns3:TrackPointExtension>
        </extensions>
      </trkpt>
      <trkpt lat="36.76829089410603046417236328125" lon="-118.4739243797957897186279296875">
        <ele>2247.60009765625</ele>
        <time>2021-06-24T21:09:58.000Z</time>
        <extensions>
          <ns3:TrackPointExtension>
            <ns3:atemp>31.0</ns3:atemp>
            <ns3:hr>102</ns3:hr>
          </ns3:TrackPointExtension>
        </extensions>
      </trkpt>
      <trkpt lat="36.76827932707965373992919921875" lon="-118.47388523630797863006591796875">
        <ele>2248</ele>
        <time>2021-06-24T21:10:01.000Z</time>
        <extensions>
          <ns3:TrackPointExtension>
            <ns3:atemp>31.0</ns3:atemp>
            <ns3:hr>99</ns3:hr>
          </ns3:TrackPointExtension>
        </extensions>
      </trkpt>
      <trkpt lat="36.76827044226229190826416015625" lon="-118.47386411391198635101318359375">
        <ele>2248.199951171875</ele>
        <time>2021-06-24T21:10:02.000Z</time>
        <extensions>
          <ns3:TrackPointExtension>
            <ns3:atemp>31.0</ns3:atemp>
            <ns3:hr>100</ns3:hr>
          </ns3:TrackPointExtension>
        </extensions>
      </trkpt>
      <trkpt lat="36.768261305987834930419921875" lon="-118.47381415776908397674560546875">
        <ele>2248.800048828125</ele>
        <time>2021-06-24T21:10:06.000Z</time>
        <extensions>
          <ns3:TrackPointExtension>
            <ns3:atemp>31.0</ns3:atemp>
            <ns3:hr>101</ns3:hr>
          </ns3:TrackPointExtension>
        </extensions>
      </trkpt>
      <trkpt lat="36.7682608030736446380615234375" lon="-118.47379739396274089813232421875">
        <ele>2249</ele>
        <time>2021-06-24T21:10:08.000Z</time>
        <extensions>
          <ns3:TrackPointExtension>
            <ns3:atemp>31.0</ns3:atemp>
            <ns3:hr>101</ns3:hr>
          </ns3:TrackPointExtension>
        </extensions>
      </trkpt>
      <trkpt lat="36.76826356910169124603271484375" lon="-118.47375598736107349395751953125">
        <ele>2249</ele>
        <time>2021-06-24T21:10:11.000Z</time>
        <extensions>
          <ns3:TrackPointExtension>
            <ns3:atemp>31.0</ns3:atemp>
            <ns3:hr>102</ns3:hr>
          </ns3:TrackPointExtension>
        </extensions>
      </trkpt>
      <trkpt lat="36.76825820468366146087646484375" lon="-118.47374106757342815399169921875">
        <ele>2249.199951171875</ele>
        <time>2021-06-24T21:10:12.000Z</time>
        <extensions>
          <ns3:TrackPointExtension>
            <ns3:atemp>31.0</ns3:atemp>
            <ns3:hr>102</ns3:hr>
          </ns3:TrackPointExtension>
        </extensions>
      </trkpt>
      <trkpt lat="36.76827865652740001678466796875" lon="-118.4737054444849491119384765625">
        <ele>2249.199951171875</ele>
        <time>2021-06-24T21:10:16.000Z</time>
        <extensions>
          <ns3:TrackPointExtension>
            <ns3:atemp>31.0</ns3:atemp>
            <ns3:hr>100</ns3:hr>
          </ns3:TrackPointExtension>
        </extensions>
      </trkpt>
      <trkpt lat="36.76825485192239284515380859375" lon="-118.473663032054901123046875">
        <ele>2249.39990234375</ele>
        <time>2021-06-24T21:10:19.000Z</time>
        <extensions>
          <ns3:TrackPointExtension>
            <ns3:atemp>31.0</ns3:atemp>
            <ns3:hr>103</ns3:hr>
          </ns3:TrackPointExtension>
        </extensions>
      </trkpt>
      <trkpt lat="36.768220402300357818603515625" lon="-118.4735968150198459625244140625">
        <ele>2249.800048828125</ele>
        <time>2021-06-24T21:10:23.000Z</time>
        <extensions>
          <ns3:TrackPointExtension>
            <ns3:atemp>31.0</ns3:atemp>
            <ns3:hr>103</ns3:hr>
          </ns3:TrackPointExtension>
        </extensions>
      </trkpt>
      <trkpt lat="36.768205650150775909423828125" lon="-118.47357879392802715301513671875">
        <ele>2250</ele>
        <time>2021-06-24T21:10:24.000Z</time>
        <extensions>
          <ns3:TrackPointExtension>
            <ns3:atemp>31.0</ns3:atemp>
            <ns3:hr>101</ns3:hr>
          </ns3:TrackPointExtension>
        </extensions>
      </trkpt>
      <trkpt lat="36.7681967653334140777587890625" lon="-118.47355482168495655059814453125">
        <ele>2250</ele>
        <time>2021-06-24T21:10:25.000Z</time>
        <extensions>
          <ns3:TrackPointExtension>
            <ns3:atemp>31.0</ns3:atemp>
            <ns3:hr>98</ns3:hr>
          </ns3:TrackPointExtension>
        </extensions>
      </trkpt>
      <trkpt lat="36.76819768734276294708251953125" lon="-118.47353897988796234130859375">
        <ele>2250.199951171875</ele>
        <time>2021-06-24T21:10:26.000Z</time>
        <extensions>
          <ns3:TrackPointExtension>
            <ns3:atemp>31.0</ns3:atemp>
            <ns3:hr>102</ns3:hr>
          </ns3:TrackPointExtension>
        </extensions>
      </trkpt>
      <trkpt lat="36.76820053718984127044677734375" lon="-118.47353470511734485626220703125">
        <ele>2250.199951171875</ele>
        <time>2021-06-24T21:10:27.000Z</time>
        <extensions>
          <ns3:TrackPointExtension>
            <ns3:atemp>31.0</ns3:atemp>
            <ns3:hr>101</ns3:hr>
          </ns3:TrackPointExtension>
        </extensions>
      </trkpt>
      <trkpt lat="36.76819249056279659271240234375" lon="-118.47352087497711181640625">
        <ele>2250.39990234375</ele>
        <time>2021-06-24T21:10:28.000Z</time>
        <extensions>
          <ns3:TrackPointExtension>
            <ns3:atemp>31.0</ns3:atemp>
            <ns3:hr>101</ns3:hr>
          </ns3:TrackPointExtension>
        </extensions>
      </trkpt>
      <trkpt lat="36.768175475299358367919921875" lon="-118.47350218333303928375244140625">
        <ele>2250.39990234375</ele>
        <time>2021-06-24T21:10:29.000Z</time>
        <extensions>
          <ns3:TrackPointExtension>
            <ns3:atemp>31.0</ns3:atemp>
            <ns3:hr>100</ns3:hr>
          </ns3:TrackPointExtension>
        </extensions>
      </trkpt>
      <trkpt lat="36.768145971000194549560546875" lon="-118.47342791967093944549560546875">
        <ele>2251</ele>
        <time>2021-06-24T21:10:34.000Z</time>
        <extensions>
          <ns3:TrackPointExtension>
            <ns3:atemp>31.0</ns3:atemp>
            <ns3:hr>99</ns3:hr>
          </ns3:TrackPointExtension>
        </extensions>
      </trkpt>
      <trkpt lat="36.768130548298358917236328125" lon="-118.47340025939047336578369140625">
        <ele>2251.199951171875</ele>
        <time>2021-06-24T21:10:35.000Z</time>
        <extensions>
          <ns3:TrackPointExtension>
            <ns3:atemp>31.0</ns3:atemp>
            <ns3:hr>98</ns3:hr>
          </ns3:TrackPointExtension>
        </extensions>
      </trkpt>
      <trkpt lat="36.76812359131872653961181640625" lon="-118.47338248975574970245361328125">
        <ele>2251.39990234375</ele>
        <time>2021-06-24T21:10:36.000Z</time>
        <extensions>
          <ns3:TrackPointExtension>
            <ns3:atemp>31.0</ns3:atemp>
            <ns3:hr>98</ns3:hr>
          </ns3:TrackPointExtension>
        </extensions>
      </trkpt>
      <trkpt lat="36.76813398487865924835205078125" lon="-118.47337310202419757843017578125">
        <ele>2251.60009765625</ele>
        <time>2021-06-24T21:10:40.000Z</time>
        <extensions>
          <ns3:TrackPointExtension>
            <ns3:atemp>31.0</ns3:atemp>
            <ns3:hr>99</ns3:hr>
          </ns3:TrackPointExtension>
        </extensions>
      </trkpt>
      <trkpt lat="36.76811688579618930816650390625" lon="-118.4733319468796253204345703125">
        <ele>2252</ele>
        <time>2021-06-24T21:10:44.000Z</time>
        <extensions>
          <ns3:TrackPointExtension>
            <ns3:atemp>31.0</ns3:atemp>
            <ns3:hr>99</ns3:hr>
          </ns3:TrackPointExtension>
        </extensions>
      </trkpt>
      <trkpt lat="36.76812040619552135467529296875" lon="-118.47332566045224666595458984375">
        <ele>2252.199951171875</ele>
        <time>2021-06-24T21:10:45.000Z</time>
        <extensions>
          <ns3:TrackPointExtension>
            <ns3:atemp>31.0</ns3:atemp>
            <ns3:hr>98</ns3:hr>
          </ns3:TrackPointExtension>
        </extensions>
      </trkpt>
      <trkpt lat="36.768125854432582855224609375" lon="-118.4733041189610958099365234375">
        <ele>2252.39990234375</ele>
        <time>2021-06-24T21:10:47.000Z</time>
        <extensions>
          <ns3:TrackPointExtension>
            <ns3:atemp>31.0</ns3:atemp>
            <ns3:hr>100</ns3:hr>
          </ns3:TrackPointExtension>
        </extensions>
      </trkpt>
      <trkpt lat="36.7681243456900119781494140625" lon="-118.473281823098659515380859375">
        <ele>2253</ele>
        <time>2021-06-24T21:10:50.000Z</time>
        <extensions>
          <ns3:TrackPointExtension>
            <ns3:atemp>31.0</ns3:atemp>
            <ns3:hr>99</ns3:hr>
          </ns3:TrackPointExtension>
        </extensions>
      </trkpt>
      <trkpt lat="36.768121831119060516357421875" lon="-118.47327478229999542236328125">
        <ele>2253.39990234375</ele>
        <time>2021-06-24T21:10:51.000Z</time>
        <extensions>
          <ns3:TrackPointExtension>
            <ns3:atemp>31.0</ns3:atemp>
            <ns3:hr>102</ns3:hr>
          </ns3:TrackPointExtension>
        </extensions>
      </trkpt>
      <trkpt lat="36.7681196518242359161376953125" lon="-118.473263718187808990478515625">
        <ele>2253.39990234375</ele>
        <time>2021-06-24T21:10:52.000Z</time>
        <extensions>
          <ns3:TrackPointExtension>
            <ns3:atemp>31.0</ns3:atemp>
            <ns3:hr>102</ns3:hr>
          </ns3:TrackPointExtension>
        </extensions>
      </trkpt>
      <trkpt lat="36.76810003817081451416015625" lon="-118.47323664464056491851806640625">
        <ele>2253.60009765625</ele>
        <time>2021-06-24T21:10:54.000Z</time>
        <extensions>
          <ns3:TrackPointExtension>
            <ns3:atemp>31.0</ns3:atemp>
            <ns3:hr>103</ns3:hr>
          </ns3:TrackPointExtension>
        </extensions>
      </trkpt>
      <trkpt lat="36.76808570511639118194580078125" lon="-118.47320596687495708465576171875">
        <ele>2254</ele>
        <time>2021-06-24T21:10:57.000Z</time>
        <extensions>
          <ns3:TrackPointExtension>
            <ns3:atemp>31.0</ns3:atemp>
            <ns3:hr>102</ns3:hr>
          </ns3:TrackPointExtension>
        </extensions>
      </trkpt>
      <trkpt lat="36.7680774070322513580322265625" lon="-118.4731515683233737945556640625">
        <ele>2254.39990234375</ele>
        <time>2021-06-24T21:11:03.000Z</time>
        <extensions>
          <ns3:TrackPointExtension>
            <ns3:atemp>31.0</ns3:atemp>
            <ns3:hr>102</ns3:hr>
          </ns3:TrackPointExtension>
        </extensions>
      </trkpt>
      <trkpt lat="36.7680733837187290191650390625" lon="-118.47315232269465923309326171875">
        <ele>2254.60009765625</ele>
        <time>2021-06-24T21:11:05.000Z</time>
        <extensions>
          <ns3:TrackPointExtension>
            <ns3:atemp>31.0</ns3:atemp>
            <ns3:hr>102</ns3:hr>
          </ns3:TrackPointExtension>
        </extensions>
      </trkpt>
      <trkpt lat="36.76806843839585781097412109375" lon="-118.47313673235476016998291015625">
        <ele>2254.60009765625</ele>
        <time>2021-06-24T21:11:07.000Z</time>
        <extensions>
          <ns3:TrackPointExtension>
            <ns3:atemp>31.0</ns3:atemp>
            <ns3:hr>102</ns3:hr>
          </ns3:TrackPointExtension>
        </extensions>
      </trkpt>
      <trkpt lat="36.76806273870170116424560546875" lon="-118.47312063910067081451416015625">
        <ele>2254.800048828125</ele>
        <time>2021-06-24T21:11:08.000Z</time>
        <extensions>
          <ns3:TrackPointExtension>
            <ns3:atemp>31.0</ns3:atemp>
            <ns3:hr>102</ns3:hr>
          </ns3:TrackPointExtension>
        </extensions>
      </trkpt>
      <trkpt lat="36.7680539377033710479736328125" lon="-118.473094068467617034912109375">
        <ele>2254.800048828125</ele>
        <time>2021-06-24T21:11:10.000Z</time>
        <extensions>
          <ns3:TrackPointExtension>
            <ns3:atemp>31.0</ns3:atemp>
            <ns3:hr>103</ns3:hr>
          </ns3:TrackPointExtension>
        </extensions>
      </trkpt>
      <trkpt lat="36.76803859882056713104248046875" lon="-118.473075293004512786865234375">
        <ele>2255</ele>
        <time>2021-06-24T21:11:13.000Z</time>
        <extensions>
          <ns3:TrackPointExtension>
            <ns3:atemp>31.0</ns3:atemp>
            <ns3:hr>103</ns3:hr>
          </ns3:TrackPointExtension>
        </extensions>
      </trkpt>
      <trkpt lat="36.768036670982837677001953125" lon="-118.47306699492037296295166015625">
        <ele>2255.199951171875</ele>
        <time>2021-06-24T21:11:14.000Z</time>
        <extensions>
          <ns3:TrackPointExtension>
            <ns3:atemp>31.0</ns3:atemp>
            <ns3:hr>103</ns3:hr>
          </ns3:TrackPointExtension>
        </extensions>
      </trkpt>
      <trkpt lat="36.768015213310718536376953125" lon="-118.4730305336415767669677734375">
        <ele>2255.800048828125</ele>
        <time>2021-06-24T21:11:18.000Z</time>
        <extensions>
          <ns3:TrackPointExtension>
            <ns3:atemp>31.0</ns3:atemp>
            <ns3:hr>101</ns3:hr>
          </ns3:TrackPointExtension>
        </extensions>
      </trkpt>
      <trkpt lat="36.76801563240587711334228515625" lon="-118.4730271808803081512451171875">
        <ele>2256</ele>
        <time>2021-06-24T21:11:19.000Z</time>
        <extensions>
          <ns3:TrackPointExtension>
            <ns3:atemp>31.0</ns3:atemp>
            <ns3:hr>100</ns3:hr>
          </ns3:TrackPointExtension>
        </extensions>
      </trkpt>
      <trkpt lat="36.7680096812546253204345703125" lon="-118.47301787696778774261474609375">
        <ele>2256.199951171875</ele>
        <time>2021-06-24T21:11:20.000Z</time>
        <extensions>
          <ns3:TrackPointExtension>
            <ns3:atemp>31.0</ns3:atemp>
            <ns3:hr>99</ns3:hr>
          </ns3:TrackPointExtension>
        </extensions>
      </trkpt>
      <trkpt lat="36.7679882235825061798095703125" lon="-118.4729896299540996551513671875">
        <ele>2256.199951171875</ele>
        <time>2021-06-24T21:11:23.000Z</time>
        <extensions>
          <ns3:TrackPointExtension>
            <ns3:atemp>31.0</ns3:atemp>
            <ns3:hr>102</ns3:hr>
          </ns3:TrackPointExtension>
        </extensions>
      </trkpt>
      <trkpt lat="36.76799015142023563385009765625" lon="-118.47298669628798961639404296875">
        <ele>2256.60009765625</ele>
        <time>2021-06-24T21:11:24.000Z</time>
        <extensions>
          <ns3:TrackPointExtension>
            <ns3:atemp>31.0</ns3:atemp>
            <ns3:hr>101</ns3:hr>
          </ns3:TrackPointExtension>
        </extensions>
      </trkpt>
      <trkpt lat="36.767970621585845947265625" lon="-118.47294109873473644256591796875">
        <ele>2256.199951171875</ele>
        <time>2021-06-24T21:11:28.000Z</time>
        <extensions>
          <ns3:TrackPointExtension>
            <ns3:atemp>31.0</ns3:atemp>
            <ns3:hr>101</ns3:hr>
          </ns3:TrackPointExtension>
        </extensions>
      </trkpt>
      <trkpt lat="36.76796902902424335479736328125" lon="-118.472930453717708587646484375">
        <ele>2256.199951171875</ele>
        <time>2021-06-24T21:11:29.000Z</time>
        <extensions>
          <ns3:TrackPointExtension>
            <ns3:atemp>31.0</ns3:atemp>
            <ns3:hr>101</ns3:hr>
          </ns3:TrackPointExtension>
        </extensions>
      </trkpt>
      <trkpt lat="36.76793332211673259735107421875" lon="-118.47286163829267024993896484375">
        <ele>2256.800048828125</ele>
        <time>2021-06-24T21:11:35.000Z</time>
        <extensions>
          <ns3:TrackPointExtension>
            <ns3:atemp>31.0</ns3:atemp>
            <ns3:hr>102</ns3:hr>
          </ns3:TrackPointExtension>
        </extensions>
      </trkpt>
      <trkpt lat="36.7679322324693202972412109375" lon="-118.47285510040819644927978515625">
        <ele>2256.800048828125</ele>
        <time>2021-06-24T21:11:36.000Z</time>
        <extensions>
          <ns3:TrackPointExtension>
            <ns3:atemp>31.0</ns3:atemp>
            <ns3:hr>102</ns3:hr>
          </ns3:TrackPointExtension>
        </extensions>
      </trkpt>
      <trkpt lat="36.7679372616112232208251953125" lon="-118.472850322723388671875">
        <ele>2257</ele>
        <time>2021-06-24T21:11:37.000Z</time>
        <extensions>
          <ns3:TrackPointExtension>
            <ns3:atemp>31.0</ns3:atemp>
            <ns3:hr>102</ns3:hr>
          </ns3:TrackPointExtension>
        </extensions>
      </trkpt>
      <trkpt lat="36.76794983446598052978515625" lon="-118.47283699549734592437744140625">
        <ele>2257.199951171875</ele>
        <time>2021-06-24T21:11:39.000Z</time>
        <extensions>
          <ns3:TrackPointExtension>
            <ns3:atemp>31.0</ns3:atemp>
            <ns3:hr>102</ns3:hr>
          </ns3:TrackPointExtension>
        </extensions>
      </trkpt>
      <trkpt lat="36.76795293577015399932861328125" lon="-118.4728275239467620849609375">
        <ele>2257.39990234375</ele>
        <time>2021-06-24T21:11:41.000Z</time>
        <extensions>
          <ns3:TrackPointExtension>
            <ns3:atemp>31.0</ns3:atemp>
            <ns3:hr>103</ns3:hr>
          </ns3:TrackPointExtension>
        </extensions>
      </trkpt>
      <trkpt lat="36.76795897074043750762939453125" lon="-118.4728226624429225921630859375">
        <ele>2257.60009765625</ele>
        <time>2021-06-24T21:11:42.000Z</time>
        <extensions>
          <ns3:TrackPointExtension>
            <ns3:atemp>31.0</ns3:atemp>
            <ns3:hr>104</ns3:hr>
          </ns3:TrackPointExtension>
        </extensions>
      </trkpt>
      <trkpt lat="36.76797959022223949432373046875" lon="-118.4728186391294002532958984375">
        <ele>2257.800048828125</ele>
        <time>2021-06-24T21:11:45.000Z</time>
        <extensions>
          <ns3:TrackPointExtension>
            <ns3:atemp>31.0</ns3:atemp>
            <ns3:hr>105</ns3:hr>
          </ns3:TrackPointExtension>
        </extensions>
      </trkpt>
      <trkpt lat="36.7679835297167301177978515625" lon="-118.47278988920152187347412109375">
        <ele>2258</ele>
        <time>2021-06-24T21:11:47.000Z</time>
        <extensions>
          <ns3:TrackPointExtension>
            <ns3:atemp>31.0</ns3:atemp>
            <ns3:hr>104</ns3:hr>
          </ns3:TrackPointExtension>
        </extensions>
      </trkpt>
      <trkpt lat="36.76797824911773204803466796875" lon="-118.472741357982158660888671875">
        <ele>2258.60009765625</ele>
        <time>2021-06-24T21:11:50.000Z</time>
        <extensions>
          <ns3:TrackPointExtension>
            <ns3:atemp>31.0</ns3:atemp>
            <ns3:hr>104</ns3:hr>
          </ns3:TrackPointExtension>
        </extensions>
      </trkpt>
      <trkpt lat="36.7679637484252452850341796875" lon="-118.4727187268435955047607421875">
        <ele>2258.60009765625</ele>
        <time>2021-06-24T21:11:51.000Z</time>
        <extensions>
          <ns3:TrackPointExtension>
            <ns3:atemp>31.0</ns3:atemp>
            <ns3:hr>104</ns3:hr>
          </ns3:TrackPointExtension>
        </extensions>
      </trkpt>
      <trkpt lat="36.76795788109302520751953125" lon="-118.472706489264965057373046875">
        <ele>2259</ele>
        <time>2021-06-24T21:11:54.000Z</time>
        <extensions>
          <ns3:TrackPointExtension>
            <ns3:atemp>31.0</ns3:atemp>
            <ns3:hr>105</ns3:hr>
          </ns3:TrackPointExtension>
        </extensions>
      </trkpt>
      <trkpt lat="36.76796056330204010009765625" lon="-118.47270858474075794219970703125">
        <ele>2259.199951171875</ele>
        <time>2021-06-24T21:11:55.000Z</time>
        <extensions>
          <ns3:TrackPointExtension>
            <ns3:atemp>31.0</ns3:atemp>
            <ns3:hr>106</ns3:hr>
          </ns3:TrackPointExtension>
        </extensions>
      </trkpt>
      <trkpt lat="36.76796819083392620086669921875" lon="-118.472711853682994842529296875">
        <ele>2259.39990234375</ele>
        <time>2021-06-24T21:11:57.000Z</time>
        <extensions>
          <ns3:TrackPointExtension>
            <ns3:atemp>31.0</ns3:atemp>
            <ns3:hr>107</ns3:hr>
          </ns3:TrackPointExtension>
        </extensions>
      </trkpt>
      <trkpt lat="36.7679650895297527313232421875" lon="-118.472705148160457611083984375">
        <ele>2259.60009765625</ele>
        <time>2021-06-24T21:11:58.000Z</time>
        <extensions>
          <ns3:TrackPointExtension>
            <ns3:atemp>31.0</ns3:atemp>
            <ns3:hr>108</ns3:hr>
          </ns3:TrackPointExtension>
        </extensions>
      </trkpt>
      <trkpt lat="36.76796584390103816986083984375" lon="-118.4726851992309093475341796875">
        <ele>2259.800048828125</ele>
        <time>2021-06-24T21:12:00.000Z</time>
        <extensions>
          <ns3:TrackPointExtension>
            <ns3:atemp>31.0</ns3:atemp>
            <ns3:hr>109</ns3:hr>
          </ns3:TrackPointExtension>
        </extensions>
      </trkpt>
      <trkpt lat="36.767963580787181854248046875" lon="-118.4726694412529468536376953125">
        <ele>2259.800048828125</ele>
        <time>2021-06-24T21:12:02.000Z</time>
        <extensions>
          <ns3:TrackPointExtension>
            <ns3:atemp>31.0</ns3:atemp>
            <ns3:hr>113</ns3:hr>
          </ns3:TrackPointExtension>
        </extensions>
      </trkpt>
      <trkpt lat="36.76795662380754947662353515625" lon="-118.47265728749334812164306640625">
        <ele>2259.60009765625</ele>
        <time>2021-06-24T21:12:04.000Z</time>
        <extensions>
          <ns3:TrackPointExtension>
            <ns3:atemp>31.0</ns3:atemp>
            <ns3:hr>116</ns3:hr>
          </ns3:TrackPointExtension>
        </extensions>
      </trkpt>
      <trkpt lat="36.7679543606936931610107421875" lon="-118.47264689393341541290283203125">
        <ele>2259.60009765625</ele>
        <time>2021-06-24T21:12:05.000Z</time>
        <extensions>
          <ns3:TrackPointExtension>
            <ns3:atemp>31.0</ns3:atemp>
            <ns3:hr>118</ns3:hr>
          </ns3:TrackPointExtension>
        </extensions>
      </trkpt>
      <trkpt lat="36.7679533548653125762939453125" lon="-118.47263650037348270416259765625">
        <ele>2259.60009765625</ele>
        <time>2021-06-24T21:12:07.000Z</time>
        <extensions>
          <ns3:TrackPointExtension>
            <ns3:atemp>31.0</ns3:atemp>
            <ns3:hr>121</ns3:hr>
          </ns3:TrackPointExtension>
        </extensions>
      </trkpt>
      <trkpt lat="36.76795913837850093841552734375" lon="-118.472627699375152587890625">
        <ele>2259.60009765625</ele>
        <time>2021-06-24T21:12:09.000Z</time>
        <extensions>
          <ns3:TrackPointExtension>
            <ns3:atemp>31.0</ns3:atemp>
            <ns3:hr>124</ns3:hr>
          </ns3:TrackPointExtension>
        </extensions>
      </trkpt>
      <trkpt lat="36.76796383224427700042724609375" lon="-118.47262124530971050262451171875">
        <ele>2259.60009765625</ele>
        <time>2021-06-24T21:12:10.000Z</time>
        <extensions>
          <ns3:TrackPointExtension>
            <ns3:atemp>31.0</ns3:atemp>
            <ns3:hr>124</ns3:hr>
          </ns3:TrackPointExtension>
        </extensions>
      </trkpt>
      <trkpt lat="36.76797171123325824737548828125" lon="-118.472623340785503387451171875">
        <ele>2259.60009765625</ele>
        <time>2021-06-24T21:12:12.000Z</time>
        <extensions>
          <ns3:TrackPointExtension>
            <ns3:atemp>31.0</ns3:atemp>
            <ns3:hr>124</ns3:hr>
          </ns3:TrackPointExtension>
        </extensions>
      </trkpt>
      <trkpt lat="36.76795964129269123077392578125" lon="-118.472609929740428924560546875">
        <ele>2259.60009765625</ele>
        <time>2021-06-24T21:12:14.000Z</time>
        <extensions>
          <ns3:TrackPointExtension>
            <ns3:atemp>31.0</ns3:atemp>
            <ns3:hr>123</ns3:hr>
          </ns3:TrackPointExtension>
        </extensions>
      </trkpt>
      <trkpt lat="36.7679536901414394378662109375" lon="-118.47259819507598876953125">
        <ele>2259.199951171875</ele>
        <time>2021-06-24T21:12:15.000Z</time>
        <extensions>
          <ns3:TrackPointExtension>
            <ns3:atemp>31.0</ns3:atemp>
            <ns3:hr>124</ns3:hr>
          </ns3:TrackPointExtension>
        </extensions>
      </trkpt>
      <trkpt lat="36.7679429613053798675537109375" lon="-118.4725780785083770751953125">
        <ele>2259.199951171875</ele>
        <time>2021-06-24T21:12:17.000Z</time>
        <extensions>
          <ns3:TrackPointExtension>
            <ns3:atemp>31.0</ns3:atemp>
            <ns3:hr>122</ns3:hr>
          </ns3:TrackPointExtension>
        </extensions>
      </trkpt>
      <trkpt lat="36.76793784834444522857666015625" lon="-118.47256827168166637420654296875">
        <ele>2259</ele>
        <time>2021-06-24T21:12:18.000Z</time>
        <extensions>
          <ns3:TrackPointExtension>
            <ns3:atemp>31.0</ns3:atemp>
            <ns3:hr>121</ns3:hr>
          </ns3:TrackPointExtension>
        </extensions>
      </trkpt>
      <trkpt lat="36.76793365739285945892333984375" lon="-118.4725527651607990264892578125">
        <ele>2258.60009765625</ele>
        <time>2021-06-24T21:12:20.000Z</time>
        <extensions>
          <ns3:TrackPointExtension>
            <ns3:atemp>31.0</ns3:atemp>
            <ns3:hr>118</ns3:hr>
          </ns3:TrackPointExtension>
        </extensions>
      </trkpt>
      <trkpt lat="36.76790432073175907135009765625" lon="-118.47249233163893222808837890625">
        <ele>2258.199951171875</ele>
        <time>2021-06-24T21:12:24.000Z</time>
        <extensions>
          <ns3:TrackPointExtension>
            <ns3:atemp>31.0</ns3:atemp>
            <ns3:hr>117</ns3:hr>
          </ns3:TrackPointExtension>
        </extensions>
      </trkpt>
      <trkpt lat="36.76789711229503154754638671875" lon="-118.47248009406030178070068359375">
        <ele>2258</ele>
        <time>2021-06-24T21:12:25.000Z</time>
        <extensions>
          <ns3:TrackPointExtension>
            <ns3:atemp>31.0</ns3:atemp>
            <ns3:hr>116</ns3:hr>
          </ns3:TrackPointExtension>
        </extensions>
      </trkpt>
      <trkpt lat="36.7678950168192386627197265625" lon="-118.47247238270938396453857421875">
        <ele>2257.60009765625</ele>
        <time>2021-06-24T21:12:26.000Z</time>
        <extensions>
          <ns3:TrackPointExtension>
            <ns3:atemp>31.0</ns3:atemp>
            <ns3:hr>115</ns3:hr>
          </ns3:TrackPointExtension>
        </extensions>
      </trkpt>
      <trkpt lat="36.76788277924060821533203125" lon="-118.47243617288768291473388671875">
        <ele>2257.199951171875</ele>
        <time>2021-06-24T21:12:28.000Z</time>
        <extensions>
          <ns3:TrackPointExtension>
            <ns3:atemp>31.0</ns3:atemp>
            <ns3:hr>114</ns3:hr>
          </ns3:TrackPointExtension>
        </extensions>
      </trkpt>
      <trkpt lat="36.76787666045129299163818359375" lon="-118.47239501774311065673828125">
        <ele>2257.199951171875</ele>
        <time>2021-06-24T21:12:30.000Z</time>
        <extensions>
          <ns3:TrackPointExtension>
            <ns3:atemp>31.0</ns3:atemp>
            <ns3:hr>113</ns3:hr>
          </ns3:TrackPointExtension>
        </extensions>
      </trkpt>
      <trkpt lat="36.767874397337436676025390625" lon="-118.4723790921270847320556640625">
        <ele>2257.199951171875</ele>
        <time>2021-06-24T21:12:32.000Z</time>
        <extensions>
          <ns3:TrackPointExtension>
            <ns3:atemp>31.0</ns3:atemp>
            <ns3:hr>112</ns3:hr>
          </ns3:TrackPointExtension>
        </extensions>
      </trkpt>
      <trkpt lat="36.7678427137434482574462890625" lon="-118.4723298065364360809326171875">
        <ele>2257.199951171875</ele>
        <time>2021-06-24T21:12:35.000Z</time>
        <extensions>
          <ns3:TrackPointExtension>
            <ns3:atemp>31.0</ns3:atemp>
            <ns3:hr>111</ns3:hr>
          </ns3:TrackPointExtension>
        </extensions>
      </trkpt>
      <trkpt lat="36.76781195215880870819091796875" lon="-118.4722272120416164398193359375">
        <ele>2257.39990234375</ele>
        <time>2021-06-24T21:12:40.000Z</time>
        <extensions>
          <ns3:TrackPointExtension>
            <ns3:atemp>31.0</ns3:atemp>
            <ns3:hr>111</ns3:hr>
          </ns3:TrackPointExtension>
        </extensions>
      </trkpt>
      <trkpt lat="36.76779619418084621429443359375" lon="-118.47220097668468952178955078125">
        <ele>2257.39990234375</ele>
        <time>2021-06-24T21:12:42.000Z</time>
        <extensions>
          <ns3:TrackPointExtension>
            <ns3:atemp>31.0</ns3:atemp>
            <ns3:hr>109</ns3:hr>
          </ns3:TrackPointExtension>
        </extensions>
      </trkpt>
      <trkpt lat="36.76776551641523838043212890625" lon="-118.47211766056716442108154296875">
        <ele>2257.39990234375</ele>
        <time>2021-06-24T21:12:46.000Z</time>
        <extensions>
          <ns3:TrackPointExtension>
            <ns3:atemp>31.0</ns3:atemp>
            <ns3:hr>106</ns3:hr>
          </ns3:TrackPointExtension>
        </extensions>
      </trkpt>
      <trkpt lat="36.7677707970142364501953125" lon="-118.472108356654644012451171875">
        <ele>2257.39990234375</ele>
        <time>2021-06-24T21:12:47.000Z</time>
        <extensions>
          <ns3:TrackPointExtension>
            <ns3:atemp>31.0</ns3:atemp>
            <ns3:hr>105</ns3:hr>
          </ns3:TrackPointExtension>
        </extensions>
      </trkpt>
      <trkpt lat="36.76779292523860931396484375" lon="-118.47206921316683292388916015625">
        <ele>2257.39990234375</ele>
        <time>2021-06-24T21:12:50.000Z</time>
        <extensions>
          <ns3:TrackPointExtension>
            <ns3:atemp>31.0</ns3:atemp>
            <ns3:hr>104</ns3:hr>
          </ns3:TrackPointExtension>
        </extensions>
      </trkpt>
      <trkpt lat="36.76780675537884235382080078125" lon="-118.4720709733664989471435546875">
        <ele>2257.199951171875</ele>
        <time>2021-06-24T21:12:52.000Z</time>
        <extensions>
          <ns3:TrackPointExtension>
            <ns3:atemp>31.0</ns3:atemp>
            <ns3:hr>106</ns3:hr>
          </ns3:TrackPointExtension>
        </extensions>
      </trkpt>
      <trkpt lat="36.7677964456379413604736328125" lon="-118.47205731086432933807373046875">
        <ele>2257.199951171875</ele>
        <time>2021-06-24T21:12:54.000Z</time>
        <extensions>
          <ns3:TrackPointExtension>
            <ns3:atemp>31.0</ns3:atemp>
            <ns3:hr>107</ns3:hr>
          </ns3:TrackPointExtension>
        </extensions>
      </trkpt>
      <trkpt lat="36.76779091358184814453125" lon="-118.4720438160002231597900390625">
        <ele>2256.800048828125</ele>
        <time>2021-06-24T21:12:57.000Z</time>
        <extensions>
          <ns3:TrackPointExtension>
            <ns3:atemp>31.0</ns3:atemp>
            <ns3:hr>106</ns3:hr>
          </ns3:TrackPointExtension>
        </extensions>
      </trkpt>
      <trkpt lat="36.7678051628172397613525390625" lon="-118.47203266806900501251220703125">
        <ele>2256.60009765625</ele>
        <time>2021-06-24T21:13:02.000Z</time>
        <extensions>
          <ns3:TrackPointExtension>
            <ns3:atemp>31.0</ns3:atemp>
            <ns3:hr>107</ns3:hr>
          </ns3:TrackPointExtension>
        </extensions>
      </trkpt>
      <trkpt lat="36.76780038513243198394775390625" lon="-118.47203384153544902801513671875">
        <ele>2256.60009765625</ele>
        <time>2021-06-24T21:13:06.000Z</time>
        <extensions>
          <ns3:TrackPointExtension>
            <ns3:atemp>31.0</ns3:atemp>
            <ns3:hr>104</ns3:hr>
          </ns3:TrackPointExtension>
        </extensions>
      </trkpt>
      <trkpt lat="36.767791919410228729248046875" lon="-118.4720404632389545440673828125">
        <ele>2256.800048828125</ele>
        <time>2021-06-24T21:13:07.000Z</time>
        <extensions>
          <ns3:TrackPointExtension>
            <ns3:atemp>31.0</ns3:atemp>
            <ns3:hr>103</ns3:hr>
          </ns3:TrackPointExtension>
        </extensions>
      </trkpt>
      <trkpt lat="36.7677927576005458831787109375" lon="-118.47201950848102569580078125">
        <ele>2256.800048828125</ele>
        <time>2021-06-24T21:13:12.000Z</time>
        <extensions>
          <ns3:TrackPointExtension>
            <ns3:atemp>31.0</ns3:atemp>
            <ns3:hr>102</ns3:hr>
          </ns3:TrackPointExtension>
        </extensions>
      </trkpt>
      <trkpt lat="36.76779904402792453765869140625" lon="-118.47202110104262828826904296875">
        <ele>2256.800048828125</ele>
        <time>2021-06-24T21:13:18.000Z</time>
        <extensions>
          <ns3:TrackPointExtension>
            <ns3:atemp>31.0</ns3:atemp>
            <ns3:hr>103</ns3:hr>
          </ns3:TrackPointExtension>
        </extensions>
      </trkpt>
      <trkpt lat="36.76780072040855884552001953125" lon="-118.4720176644623279571533203125">
        <ele>2256.800048828125</ele>
        <time>2021-06-24T21:13:21.000Z</time>
        <extensions>
          <ns3:TrackPointExtension>
            <ns3:atemp>31.0</ns3:atemp>
            <ns3:hr>106</ns3:hr>
          </ns3:TrackPointExtension>
        </extensions>
      </trkpt>
      <trkpt lat="36.7678008042275905609130859375" lon="-118.4720407985150814056396484375">
        <ele>2256.800048828125</ele>
        <time>2021-06-24T21:13:24.000Z</time>
        <extensions>
          <ns3:TrackPointExtension>
            <ns3:atemp>31.0</ns3:atemp>
            <ns3:hr>107</ns3:hr>
          </ns3:TrackPointExtension>
        </extensions>
      </trkpt>
      <trkpt lat="36.7678068391978740692138671875" lon="-118.47207625396549701690673828125">
        <ele>2257.199951171875</ele>
        <time>2021-06-24T21:13:31.000Z</time>
        <extensions>
          <ns3:TrackPointExtension>
            <ns3:atemp>31.0</ns3:atemp>
            <ns3:hr>108</ns3:hr>
          </ns3:TrackPointExtension>
        </extensions>
      </trkpt>
      <trkpt lat="36.76778295077383518218994140625" lon="-118.47207575105130672454833984375">
        <ele>2256.60009765625</ele>
        <time>2021-06-24T21:13:38.000Z</time>
        <extensions>
          <ns3:TrackPointExtension>
            <ns3:atemp>31.0</ns3:atemp>
            <ns3:hr>110</ns3:hr>
          </ns3:TrackPointExtension>
        </extensions>
      </trkpt>
      <trkpt lat="36.7677780054509639739990234375" lon="-118.47205261699855327606201171875">
        <ele>2257</ele>
        <time>2021-06-24T21:13:48.000Z</time>
        <extensions>
          <ns3:TrackPointExtension>
            <ns3:atemp>31.0</ns3:atemp>
            <ns3:hr>107</ns3:hr>
          </ns3:TrackPointExtension>
        </extensions>
      </trkpt>
      <trkpt lat="36.767775826156139373779296875" lon="-118.47204658202826976776123046875">
        <ele>2257</ele>
        <time>2021-06-24T21:13:49.000Z</time>
        <extensions>
          <ns3:TrackPointExtension>
            <ns3:atemp>31.0</ns3:atemp>
            <ns3:hr>108</ns3:hr>
          </ns3:TrackPointExtension>
        </extensions>
      </trkpt>
      <trkpt lat="36.76779082976281642913818359375" lon="-118.4720625914633274078369140625">
        <ele>2256.800048828125</ele>
        <time>2021-06-24T21:13:53.000Z</time>
        <extensions>
          <ns3:TrackPointExtension>
            <ns3:atemp>31.0</ns3:atemp>
            <ns3:hr>106</ns3:hr>
          </ns3:TrackPointExtension>
        </extensions>
      </trkpt>
      <trkpt lat="36.767795272171497344970703125" lon="-118.472054712474346160888671875">
        <ele>2257.39990234375</ele>
        <time>2021-06-24T21:14:00.000Z</time>
        <extensions>
          <ns3:TrackPointExtension>
            <ns3:atemp>31.0</ns3:atemp>
            <ns3:hr>106</ns3:hr>
          </ns3:TrackPointExtension>
        </extensions>
      </trkpt>
      <trkpt lat="36.76778730936348438262939453125" lon="-118.4720599092543125152587890625">
        <ele>2257.199951171875</ele>
        <time>2021-06-24T21:14:05.000Z</time>
        <extensions>
          <ns3:TrackPointExtension>
            <ns3:atemp>31.0</ns3:atemp>
            <ns3:hr>108</ns3:hr>
          </ns3:TrackPointExtension>
        </extensions>
      </trkpt>
      <trkpt lat="36.76778328604996204376220703125" lon="-118.47205680795013904571533203125">
        <ele>2257.60009765625</ele>
        <time>2021-06-24T21:14:09.000Z</time>
        <extensions>
          <ns3:TrackPointExtension>
            <ns3:atemp>31.0</ns3:atemp>
            <ns3:hr>109</ns3:hr>
          </ns3:TrackPointExtension>
        </extensions>
      </trkpt>
      <trkpt lat="36.7677756585180759429931640625" lon="-118.47206032834947109222412109375">
        <ele>2257.60009765625</ele>
        <time>2021-06-24T21:14:11.000Z</time>
        <extensions>
          <ns3:TrackPointExtension>
            <ns3:atemp>31.0</ns3:atemp>
            <ns3:hr>110</ns3:hr>
          </ns3:TrackPointExtension>
        </extensions>
      </trkpt>
      <trkpt lat="36.76778010092675685882568359375" lon="-118.47209461033344268798828125">
        <ele>2257.60009765625</ele>
        <time>2021-06-24T21:14:16.000Z</time>
        <extensions>
          <ns3:TrackPointExtension>
            <ns3:atemp>30.0</ns3:atemp>
            <ns3:hr>109</ns3:hr>
          </ns3:TrackPointExtension>
        </extensions>
      </trkpt>
      <trkpt lat="36.7677830345928668975830078125" lon="-118.47208899445831775665283203125">
        <ele>2257.60009765625</ele>
        <time>2021-06-24T21:14:19.000Z</time>
        <extensions>
          <ns3:TrackPointExtension>
            <ns3:atemp>30.0</ns3:atemp>
            <ns3:hr>106</ns3:hr>
          </ns3:TrackPointExtension>
        </extensions>
      </trkpt>
      <trkpt lat="36.76777943037450313568115234375" lon="-118.472078181803226470947265625">
        <ele>2257.60009765625</ele>
        <time>2021-06-24T21:14:21.000Z</time>
        <extensions>
          <ns3:TrackPointExtension>
            <ns3:atemp>30.0</ns3:atemp>
            <ns3:hr>106</ns3:hr>
          </ns3:TrackPointExtension>
        </extensions>
      </trkpt>
      <trkpt lat="36.76775646395981311798095703125" lon="-118.47204423509538173675537109375">
        <ele>2257.60009765625</ele>
        <time>2021-06-24T21:14:27.000Z</time>
        <extensions>
          <ns3:TrackPointExtension>
            <ns3:atemp>30.0</ns3:atemp>
            <ns3:hr>104</ns3:hr>
          </ns3:TrackPointExtension>
        </extensions>
      </trkpt>
      <trkpt lat="36.7677493393421173095703125" lon="-118.471985645592212677001953125">
        <ele>2257.60009765625</ele>
        <time>2021-06-24T21:14:32.000Z</time>
        <extensions>
          <ns3:TrackPointExtension>
            <ns3:atemp>30.0</ns3:atemp>
            <ns3:hr>104</ns3:hr>
          </ns3:TrackPointExtension>
        </extensions>
      </trkpt>
      <trkpt lat="36.76772813312709331512451171875" lon="-118.471876680850982666015625">
        <ele>2257.60009765625</ele>
        <time>2021-06-24T21:14:39.000Z</time>
        <extensions>
          <ns3:TrackPointExtension>
            <ns3:atemp>30.0</ns3:atemp>
            <ns3:hr>104</ns3:hr>
          </ns3:TrackPointExtension>
        </extensions>
      </trkpt>
      <trkpt lat="36.76772075705230236053466796875" lon="-118.47184114158153533935546875">
        <ele>2257.60009765625</ele>
        <time>2021-06-24T21:14:41.000Z</time>
        <extensions>
          <ns3:TrackPointExtension>
            <ns3:atemp>30.0</ns3:atemp>
            <ns3:hr>105</ns3:hr>
          </ns3:TrackPointExtension>
        </extensions>
      </trkpt>
      <trkpt lat="36.76769343204796314239501953125" lon="-118.47179445438086986541748046875">
        <ele>2257.60009765625</ele>
        <time>2021-06-24T21:14:43.000Z</time>
        <extensions>
          <ns3:TrackPointExtension>
            <ns3:atemp>30.0</ns3:atemp>
            <ns3:hr>107</ns3:hr>
          </ns3:TrackPointExtension>
        </extensions>
      </trkpt>
      <trkpt lat="36.76768027245998382568359375" lon="-118.47174248658120632171630859375">
        <ele>2257.60009765625</ele>
        <time>2021-06-24T21:14:45.000Z</time>
        <extensions>
          <ns3:TrackPointExtension>
            <ns3:atemp>30.0</ns3:atemp>
            <ns3:hr>109</ns3:hr>
          </ns3:TrackPointExtension>
        </extensions>
      </trkpt>
      <trkpt lat="36.76769770681858062744140625" lon="-118.4717144072055816650390625">
        <ele>2257.60009765625</ele>
        <time>2021-06-24T21:14:49.000Z</time>
        <extensions>
          <ns3:TrackPointExtension>
            <ns3:atemp>30.0</ns3:atemp>
            <ns3:hr>112</ns3:hr>
          </ns3:TrackPointExtension>
        </extensions>
      </trkpt>
      <trkpt lat="36.76768697798252105712890625" lon="-118.47168163396418094635009765625">
        <ele>2257.60009765625</ele>
        <time>2021-06-24T21:14:51.000Z</time>
        <extensions>
          <ns3:TrackPointExtension>
            <ns3:atemp>30.0</ns3:atemp>
            <ns3:hr>114</ns3:hr>
          </ns3:TrackPointExtension>
        </extensions>
      </trkpt>
      <trkpt lat="36.76768689416348934173583984375" lon="-118.4716622717678546905517578125">
        <ele>2257.60009765625</ele>
        <time>2021-06-24T21:14:52.000Z</time>
        <extensions>
          <ns3:TrackPointExtension>
            <ns3:atemp>30.0</ns3:atemp>
            <ns3:hr>114</ns3:hr>
          </ns3:TrackPointExtension>
        </extensions>
      </trkpt>
      <trkpt lat="36.76768756471574306488037109375" lon="-118.4716217033565044403076171875">
        <ele>2257.800048828125</ele>
        <time>2021-06-24T21:14:56.000Z</time>
        <extensions>
          <ns3:TrackPointExtension>
            <ns3:atemp>30.0</ns3:atemp>
            <ns3:hr>114</ns3:hr>
          </ns3:TrackPointExtension>
        </extensions>
      </trkpt>
      <trkpt lat="36.767686307430267333984375" lon="-118.47161105833947658538818359375">
        <ele>2258.199951171875</ele>
        <time>2021-06-24T21:14:57.000Z</time>
        <extensions>
          <ns3:TrackPointExtension>
            <ns3:atemp>30.0</ns3:atemp>
            <ns3:hr>114</ns3:hr>
          </ns3:TrackPointExtension>
        </extensions>
      </trkpt>
      <trkpt lat="36.7676851339638233184814453125" lon="-118.47159848548471927642822265625">
        <ele>2258.199951171875</ele>
        <time>2021-06-24T21:14:58.000Z</time>
        <extensions>
          <ns3:TrackPointExtension>
            <ns3:atemp>30.0</ns3:atemp>
            <ns3:hr>114</ns3:hr>
          </ns3:TrackPointExtension>
        </extensions>
      </trkpt>
      <trkpt lat="36.76769762299954891204833984375" lon="-118.47153444774448871612548828125">
        <ele>2257.60009765625</ele>
        <time>2021-06-24T21:15:03.000Z</time>
        <extensions>
          <ns3:TrackPointExtension>
            <ns3:atemp>30.0</ns3:atemp>
            <ns3:hr>113</ns3:hr>
          </ns3:TrackPointExtension>
        </extensions>
      </trkpt>
      <trkpt lat="36.767702735960483551025390625" lon="-118.47151952795684337615966796875">
        <ele>2257.199951171875</ele>
        <time>2021-06-24T21:15:04.000Z</time>
        <extensions>
          <ns3:TrackPointExtension>
            <ns3:atemp>30.0</ns3:atemp>
            <ns3:hr>113</ns3:hr>
          </ns3:TrackPointExtension>
        </extensions>
      </trkpt>
      <trkpt lat="36.76771405152976512908935546875" lon="-118.47147879190742969512939453125">
        <ele>2257</ele>
        <time>2021-06-24T21:15:07.000Z</time>
        <extensions>
          <ns3:TrackPointExtension>
            <ns3:atemp>30.0</ns3:atemp>
            <ns3:hr>111</ns3:hr>
          </ns3:TrackPointExtension>
        </extensions>
      </trkpt>
      <trkpt lat="36.767718493938446044921875" lon="-118.47147024236619472503662109375">
        <ele>2257</ele>
        <time>2021-06-24T21:15:08.000Z</time>
        <extensions>
          <ns3:TrackPointExtension>
            <ns3:atemp>31.0</ns3:atemp>
            <ns3:hr>111</ns3:hr>
          </ns3:TrackPointExtension>
        </extensions>
      </trkpt>
      <trkpt lat="36.76773483864963054656982421875" lon="-118.47145096398890018463134765625">
        <ele>2257</ele>
        <time>2021-06-24T21:15:10.000Z</time>
        <extensions>
          <ns3:TrackPointExtension>
            <ns3:atemp>31.0</ns3:atemp>
            <ns3:hr>111</ns3:hr>
          </ns3:TrackPointExtension>
        </extensions>
      </trkpt>
      <trkpt lat="36.7677615769207477569580078125" lon="-118.47142766229808330535888671875">
        <ele>2257</ele>
        <time>2021-06-24T21:15:12.000Z</time>
        <extensions>
          <ns3:TrackPointExtension>
            <ns3:atemp>31.0</ns3:atemp>
            <ns3:hr>111</ns3:hr>
          </ns3:TrackPointExtension>
        </extensions>
      </trkpt>
      <trkpt lat="36.76775805652141571044921875" lon="-118.471388854086399078369140625">
        <ele>2257</ele>
        <time>2021-06-24T21:15:14.000Z</time>
        <extensions>
          <ns3:TrackPointExtension>
            <ns3:atemp>31.0</ns3:atemp>
            <ns3:hr>110</ns3:hr>
          </ns3:TrackPointExtension>
        </extensions>
      </trkpt>
      <trkpt lat="36.76772125996649265289306640625" lon="-118.47129455767571926116943359375">
        <ele>2257.199951171875</ele>
        <time>2021-06-24T21:15:20.000Z</time>
        <extensions>
          <ns3:TrackPointExtension>
            <ns3:atemp>31.0</ns3:atemp>
            <ns3:hr>107</ns3:hr>
          </ns3:TrackPointExtension>
        </extensions>
      </trkpt>
      <trkpt lat="36.76772846840322017669677734375" lon="-118.47126714885234832763671875">
        <ele>2257.199951171875</ele>
        <time>2021-06-24T21:15:22.000Z</time>
        <extensions>
          <ns3:TrackPointExtension>
            <ns3:atemp>31.0</ns3:atemp>
            <ns3:hr>108</ns3:hr>
          </ns3:TrackPointExtension>
        </extensions>
      </trkpt>
      <trkpt lat="36.767723858356475830078125" lon="-118.47120051272213459014892578125">
        <ele>2257.39990234375</ele>
        <time>2021-06-24T21:15:26.000Z</time>
        <extensions>
          <ns3:TrackPointExtension>
            <ns3:atemp>31.0</ns3:atemp>
            <ns3:hr>107</ns3:hr>
          </ns3:TrackPointExtension>
        </extensions>
      </trkpt>
      <trkpt lat="36.7677359282970428466796875" lon="-118.47114988602697849273681640625">
        <ele>2257.800048828125</ele>
        <time>2021-06-24T21:15:30.000Z</time>
        <extensions>
          <ns3:TrackPointExtension>
            <ns3:atemp>31.0</ns3:atemp>
            <ns3:hr>108</ns3:hr>
          </ns3:TrackPointExtension>
        </extensions>
      </trkpt>
      <trkpt lat="36.7677411250770092010498046875" lon="-118.47113077528774738311767578125">
        <ele>2257.800048828125</ele>
        <time>2021-06-24T21:15:31.000Z</time>
        <extensions>
          <ns3:TrackPointExtension>
            <ns3:atemp>31.0</ns3:atemp>
            <ns3:hr>108</ns3:hr>
          </ns3:TrackPointExtension>
        </extensions>
      </trkpt>
      <trkpt lat="36.76774322055280208587646484375" lon="-118.471114598214626312255859375">
        <ele>2258.199951171875</ele>
        <time>2021-06-24T21:15:32.000Z</time>
        <extensions>
          <ns3:TrackPointExtension>
            <ns3:atemp>31.0</ns3:atemp>
            <ns3:hr>107</ns3:hr>
          </ns3:TrackPointExtension>
        </extensions>
      </trkpt>
      <trkpt lat="36.7677471600472927093505859375" lon="-118.4710929729044437408447265625">
        <ele>2258.199951171875</ele>
        <time>2021-06-24T21:15:33.000Z</time>
        <extensions>
          <ns3:TrackPointExtension>
            <ns3:atemp>31.0</ns3:atemp>
            <ns3:hr>107</ns3:hr>
          </ns3:TrackPointExtension>
        </extensions>
      </trkpt>
      <trkpt lat="36.76775562576949596405029296875" lon="-118.4710706770420074462890625">
        <ele>2258.800048828125</ele>
        <time>2021-06-24T21:15:36.000Z</time>
        <extensions>
          <ns3:TrackPointExtension>
            <ns3:atemp>31.0</ns3:atemp>
            <ns3:hr>108</ns3:hr>
          </ns3:TrackPointExtension>
        </extensions>
      </trkpt>
      <trkpt lat="36.76774104125797748565673828125" lon="-118.47104326821863651275634765625">
        <ele>2258.800048828125</ele>
        <time>2021-06-24T21:15:38.000Z</time>
        <extensions>
          <ns3:TrackPointExtension>
            <ns3:atemp>31.0</ns3:atemp>
            <ns3:hr>107</ns3:hr>
          </ns3:TrackPointExtension>
        </extensions>
      </trkpt>
      <trkpt lat="36.767712123692035675048828125" lon="-118.47101527266204357147216796875">
        <ele>2259.199951171875</ele>
        <time>2021-06-24T21:15:40.000Z</time>
        <extensions>
          <ns3:TrackPointExtension>
            <ns3:atemp>31.0</ns3:atemp>
            <ns3:hr>107</ns3:hr>
          </ns3:TrackPointExtension>
        </extensions>
      </trkpt>
      <trkpt lat="36.7676858045160770416259765625" lon="-118.47097747027873992919921875">
        <ele>2259.39990234375</ele>
        <time>2021-06-24T21:15:43.000Z</time>
        <extensions>
          <ns3:TrackPointExtension>
            <ns3:atemp>31.0</ns3:atemp>
            <ns3:hr>109</ns3:hr>
          </ns3:TrackPointExtension>
        </extensions>
      </trkpt>
      <trkpt lat="36.76766476593911647796630859375" lon="-118.470944948494434356689453125">
        <ele>2259.800048828125</ele>
        <time>2021-06-24T21:15:45.000Z</time>
        <extensions>
          <ns3:TrackPointExtension>
            <ns3:atemp>31.0</ns3:atemp>
            <ns3:hr>111</ns3:hr>
          </ns3:TrackPointExtension>
        </extensions>
      </trkpt>
      <trkpt lat="36.76765001378953456878662109375" lon="-118.4708891250193119049072265625">
        <ele>2260.199951171875</ele>
        <time>2021-06-24T21:15:49.000Z</time>
        <extensions>
          <ns3:TrackPointExtension>
            <ns3:atemp>31.0</ns3:atemp>
            <ns3:hr>114</ns3:hr>
          </ns3:TrackPointExtension>
        </extensions>
      </trkpt>
      <trkpt lat="36.7676485888659954071044921875" lon="-118.47088225185871124267578125">
        <ele>2260.199951171875</ele>
        <time>2021-06-24T21:15:50.000Z</time>
        <extensions>
          <ns3:TrackPointExtension>
            <ns3:atemp>31.0</ns3:atemp>
            <ns3:hr>115</ns3:hr>
          </ns3:TrackPointExtension>
        </extensions>
      </trkpt>
      <trkpt lat="36.767643727362155914306640625" lon="-118.47085517831146717071533203125">
        <ele>2260.60009765625</ele>
        <time>2021-06-24T21:15:53.000Z</time>
        <extensions>
          <ns3:TrackPointExtension>
            <ns3:atemp>31.0</ns3:atemp>
            <ns3:hr>116</ns3:hr>
          </ns3:TrackPointExtension>
        </extensions>
      </trkpt>
      <trkpt lat="36.7676489241421222686767578125" lon="-118.4708488918840885162353515625">
        <ele>2261</ele>
        <time>2021-06-24T21:15:56.000Z</time>
        <extensions>
          <ns3:TrackPointExtension>
            <ns3:atemp>30.0</ns3:atemp>
            <ns3:hr>118</ns3:hr>
          </ns3:TrackPointExtension>
        </extensions>
      </trkpt>
      <trkpt lat="36.767627298831939697265625" lon="-118.4708069823682308197021484375">
        <ele>2261.199951171875</ele>
        <time>2021-06-24T21:16:00.000Z</time>
        <extensions>
          <ns3:TrackPointExtension>
            <ns3:atemp>30.0</ns3:atemp>
            <ns3:hr>117</ns3:hr>
          </ns3:TrackPointExtension>
        </extensions>
      </trkpt>
      <trkpt lat="36.767602153122425079345703125" lon="-118.4707801602780818939208984375">
        <ele>2261.39990234375</ele>
        <time>2021-06-24T21:16:02.000Z</time>
        <extensions>
          <ns3:TrackPointExtension>
            <ns3:atemp>30.0</ns3:atemp>
            <ns3:hr>115</ns3:hr>
          </ns3:TrackPointExtension>
        </extensions>
      </trkpt>
      <trkpt lat="36.76755823194980621337890625" lon="-118.47072106786072254180908203125">
        <ele>2261.60009765625</ele>
        <time>2021-06-24T21:16:09.000Z</time>
        <extensions>
          <ns3:TrackPointExtension>
            <ns3:atemp>30.0</ns3:atemp>
            <ns3:hr>115</ns3:hr>
          </ns3:TrackPointExtension>
        </extensions>
      </trkpt>
      <trkpt lat="36.76755446009337902069091796875" lon="-118.47068955190479755401611328125">
        <ele>2262.39990234375</ele>
        <time>2021-06-24T21:16:12.000Z</time>
        <extensions>
          <ns3:TrackPointExtension>
            <ns3:atemp>30.0</ns3:atemp>
            <ns3:hr>118</ns3:hr>
          </ns3:TrackPointExtension>
        </extensions>
      </trkpt>
      <trkpt lat="36.7675640992820262908935546875" lon="-118.4706768952310085296630859375">
        <ele>2262.800048828125</ele>
        <time>2021-06-24T21:16:14.000Z</time>
        <extensions>
          <ns3:TrackPointExtension>
            <ns3:atemp>30.0</ns3:atemp>
            <ns3:hr>118</ns3:hr>
          </ns3:TrackPointExtension>
        </extensions>
      </trkpt>
      <trkpt lat="36.76756049506366252899169921875" lon="-118.470657952129840850830078125">
        <ele>2263</ele>
        <time>2021-06-24T21:16:16.000Z</time>
        <extensions>
          <ns3:TrackPointExtension>
            <ns3:atemp>30.0</ns3:atemp>
            <ns3:hr>118</ns3:hr>
          </ns3:TrackPointExtension>
        </extensions>
      </trkpt>
      <trkpt lat="36.76755554974079132080078125" lon="-118.4706334769725799560546875">
        <ele>2263.39990234375</ele>
        <time>2021-06-24T21:16:19.000Z</time>
        <extensions>
          <ns3:TrackPointExtension>
            <ns3:atemp>30.0</ns3:atemp>
            <ns3:hr>120</ns3:hr>
          </ns3:TrackPointExtension>
        </extensions>
      </trkpt>
      <trkpt lat="36.7675540409982204437255859375" lon="-118.47061042673885822296142578125">
        <ele>2263.60009765625</ele>
        <time>2021-06-24T21:16:21.000Z</time>
        <extensions>
          <ns3:TrackPointExtension>
            <ns3:atemp>30.0</ns3:atemp>
            <ns3:hr>121</ns3:hr>
          </ns3:TrackPointExtension>
        </extensions>
      </trkpt>
      <trkpt lat="36.76755010150372982025146484375" lon="-118.4705503284931182861328125">
        <ele>2264</ele>
        <time>2021-06-24T21:16:26.000Z</time>
        <extensions>
          <ns3:TrackPointExtension>
            <ns3:atemp>30.0</ns3:atemp>
            <ns3:hr>120</ns3:hr>
          </ns3:TrackPointExtension>
        </extensions>
      </trkpt>
      <trkpt lat="36.7675185017287731170654296875" lon="-118.47046709619462490081787109375">
        <ele>2264</ele>
        <time>2021-06-24T21:16:32.000Z</time>
        <extensions>
          <ns3:TrackPointExtension>
            <ns3:atemp>30.0</ns3:atemp>
            <ns3:hr>121</ns3:hr>
          </ns3:TrackPointExtension>
        </extensions>
      </trkpt>
      <trkpt lat="36.767481453716754913330078125" lon="-118.47042652778327465057373046875">
        <ele>2264.199951171875</ele>
        <time>2021-06-24T21:16:37.000Z</time>
        <extensions>
          <ns3:TrackPointExtension>
            <ns3:atemp>30.0</ns3:atemp>
            <ns3:hr>124</ns3:hr>
          </ns3:TrackPointExtension>
        </extensions>
      </trkpt>
      <trkpt lat="36.76746745593845844268798828125" lon="-118.47041646949946880340576171875">
        <ele>2264.199951171875</ele>
        <time>2021-06-24T21:16:38.000Z</time>
        <extensions>
          <ns3:TrackPointExtension>
            <ns3:atemp>30.0</ns3:atemp>
            <ns3:hr>124</ns3:hr>
          </ns3:TrackPointExtension>
        </extensions>
      </trkpt>
      <trkpt lat="36.7674470879137516021728515625" lon="-118.47040079534053802490234375">
        <ele>2263.800048828125</ele>
        <time>2021-06-24T21:16:40.000Z</time>
        <extensions>
          <ns3:TrackPointExtension>
            <ns3:atemp>30.0</ns3:atemp>
            <ns3:hr>125</ns3:hr>
          </ns3:TrackPointExtension>
        </extensions>
      </trkpt>
      <trkpt lat="36.76743342541158199310302734375" lon="-118.470389731228351593017578125">
        <ele>2263.60009765625</ele>
        <time>2021-06-24T21:16:42.000Z</time>
        <extensions>
          <ns3:TrackPointExtension>
            <ns3:atemp>30.0</ns3:atemp>
            <ns3:hr>124</ns3:hr>
          </ns3:TrackPointExtension>
        </extensions>
      </trkpt>
      <trkpt lat="36.76741062663495540618896484375" lon="-118.47037539817392826080322265625">
        <ele>2263.199951171875</ele>
        <time>2021-06-24T21:16:44.000Z</time>
        <extensions>
          <ns3:TrackPointExtension>
            <ns3:atemp>30.0</ns3:atemp>
            <ns3:hr>124</ns3:hr>
          </ns3:TrackPointExtension>
        </extensions>
      </trkpt>
      <trkpt lat="36.76737994886934757232666015625" lon="-118.47035192884504795074462890625">
        <ele>2262.800048828125</ele>
        <time>2021-06-24T21:16:46.000Z</time>
        <extensions>
          <ns3:TrackPointExtension>
            <ns3:atemp>30.0</ns3:atemp>
            <ns3:hr>123</ns3:hr>
          </ns3:TrackPointExtension>
        </extensions>
      </trkpt>
      <trkpt lat="36.76735849119722843170166015625" lon="-118.47033667378127574920654296875">
        <ele>2262.60009765625</ele>
        <time>2021-06-24T21:16:48.000Z</time>
        <extensions>
          <ns3:TrackPointExtension>
            <ns3:atemp>30.0</ns3:atemp>
            <ns3:hr>122</ns3:hr>
          </ns3:TrackPointExtension>
        </extensions>
      </trkpt>
      <trkpt lat="36.76734625361859798431396484375" lon="-118.4703198261559009552001953125">
        <ele>2262.39990234375</ele>
        <time>2021-06-24T21:16:50.000Z</time>
        <extensions>
          <ns3:TrackPointExtension>
            <ns3:atemp>30.0</ns3:atemp>
            <ns3:hr>122</ns3:hr>
          </ns3:TrackPointExtension>
        </extensions>
      </trkpt>
      <trkpt lat="36.7673470079898834228515625" lon="-118.4703221730887889862060546875">
        <ele>2262.199951171875</ele>
        <time>2021-06-24T21:16:51.000Z</time>
        <extensions>
          <ns3:TrackPointExtension>
            <ns3:atemp>30.0</ns3:atemp>
            <ns3:hr>123</ns3:hr>
          </ns3:TrackPointExtension>
        </extensions>
      </trkpt>
      <trkpt lat="36.76734340377151966094970703125" lon="-118.47032208926975727081298828125">
        <ele>2262.199951171875</ele>
        <time>2021-06-24T21:16:52.000Z</time>
        <extensions>
          <ns3:TrackPointExtension>
            <ns3:atemp>30.0</ns3:atemp>
            <ns3:hr>122</ns3:hr>
          </ns3:TrackPointExtension>
        </extensions>
      </trkpt>
      <trkpt lat="36.76730216480791568756103515625" lon="-118.4702976979315280914306640625">
        <ele>2261.800048828125</ele>
        <time>2021-06-24T21:16:55.000Z</time>
        <extensions>
          <ns3:TrackPointExtension>
            <ns3:atemp>30.0</ns3:atemp>
            <ns3:hr>123</ns3:hr>
          </ns3:TrackPointExtension>
        </extensions>
      </trkpt>
      <trkpt lat="36.76729277707636356353759765625" lon="-118.4702973626554012298583984375">
        <ele>2261.800048828125</ele>
        <time>2021-06-24T21:16:56.000Z</time>
        <extensions>
          <ns3:TrackPointExtension>
            <ns3:atemp>30.0</ns3:atemp>
            <ns3:hr>120</ns3:hr>
          </ns3:TrackPointExtension>
        </extensions>
      </trkpt>
      <trkpt lat="36.7672653682529926300048828125" lon="-118.47027473151683807373046875">
        <ele>2261.800048828125</ele>
        <time>2021-06-24T21:17:00.000Z</time>
        <extensions>
          <ns3:TrackPointExtension>
            <ns3:atemp>30.0</ns3:atemp>
            <ns3:hr>119</ns3:hr>
          </ns3:TrackPointExtension>
        </extensions>
      </trkpt>
      <trkpt lat="36.7672432400286197662353515625" lon="-118.47025402821600437164306640625">
        <ele>2262.199951171875</ele>
        <time>2021-06-24T21:17:03.000Z</time>
        <extensions>
          <ns3:TrackPointExtension>
            <ns3:atemp>30.0</ns3:atemp>
            <ns3:hr>118</ns3:hr>
          </ns3:TrackPointExtension>
        </extensions>
      </trkpt>
      <trkpt lat="36.767239384353160858154296875" lon="-118.47024765796959400177001953125">
        <ele>2262.199951171875</ele>
        <time>2021-06-24T21:17:04.000Z</time>
        <extensions>
          <ns3:TrackPointExtension>
            <ns3:atemp>30.0</ns3:atemp>
            <ns3:hr>118</ns3:hr>
          </ns3:TrackPointExtension>
        </extensions>
      </trkpt>
      <trkpt lat="36.76724575459957122802734375" lon="-118.47024162299931049346923828125">
        <ele>2262.199951171875</ele>
        <time>2021-06-24T21:17:05.000Z</time>
        <extensions>
          <ns3:TrackPointExtension>
            <ns3:atemp>30.0</ns3:atemp>
            <ns3:hr>118</ns3:hr>
          </ns3:TrackPointExtension>
        </extensions>
      </trkpt>
      <trkpt lat="36.76726209931075572967529296875" lon="-118.47024044953286647796630859375">
        <ele>2262.199951171875</ele>
        <time>2021-06-24T21:17:07.000Z</time>
        <extensions>
          <ns3:TrackPointExtension>
            <ns3:atemp>30.0</ns3:atemp>
            <ns3:hr>117</ns3:hr>
          </ns3:TrackPointExtension>
        </extensions>
      </trkpt>
      <trkpt lat="36.76725673489272594451904296875" lon="-118.4702319838106632232666015625">
        <ele>2262.199951171875</ele>
        <time>2021-06-24T21:17:08.000Z</time>
        <extensions>
          <ns3:TrackPointExtension>
            <ns3:atemp>31.0</ns3:atemp>
            <ns3:hr>117</ns3:hr>
          </ns3:TrackPointExtension>
        </extensions>
      </trkpt>
      <trkpt lat="36.76724734716117382049560546875" lon="-118.4702209196984767913818359375">
        <ele>2262.39990234375</ele>
        <time>2021-06-24T21:17:09.000Z</time>
        <extensions>
          <ns3:TrackPointExtension>
            <ns3:atemp>30.0</ns3:atemp>
            <ns3:hr>117</ns3:hr>
          </ns3:TrackPointExtension>
        </extensions>
      </trkpt>
      <trkpt lat="36.7672291584312915802001953125" lon="-118.47018429078161716461181640625">
        <ele>2262.60009765625</ele>
        <time>2021-06-24T21:17:12.000Z</time>
        <extensions>
          <ns3:TrackPointExtension>
            <ns3:atemp>31.0</ns3:atemp>
            <ns3:hr>116</ns3:hr>
          </ns3:TrackPointExtension>
        </extensions>
      </trkpt>
      <trkpt lat="36.76722773350775241851806640625" lon="-118.47016199491918087005615234375">
        <ele>2262.800048828125</ele>
        <time>2021-06-24T21:17:15.000Z</time>
        <extensions>
          <ns3:TrackPointExtension>
            <ns3:atemp>31.0</ns3:atemp>
            <ns3:hr>116</ns3:hr>
          </ns3:TrackPointExtension>
        </extensions>
      </trkpt>
      <trkpt lat="36.76722806878387928009033203125" lon="-118.4701518528163433074951171875">
        <ele>2263</ele>
        <time>2021-06-24T21:17:17.000Z</time>
        <extensions>
          <ns3:TrackPointExtension>
            <ns3:atemp>31.0</ns3:atemp>
            <ns3:hr>116</ns3:hr>
          </ns3:TrackPointExtension>
        </extensions>
      </trkpt>
      <trkpt lat="36.76719487644731998443603515625" lon="-118.47011053003370761871337890625">
        <ele>2263.199951171875</ele>
        <time>2021-06-24T21:17:21.000Z</time>
        <extensions>
          <ns3:TrackPointExtension>
            <ns3:atemp>30.0</ns3:atemp>
            <ns3:hr>119</ns3:hr>
          </ns3:TrackPointExtension>
        </extensions>
      </trkpt>
      <trkpt lat="36.76718783564865589141845703125" lon="-118.47009762190282344818115234375">
        <ele>2263.39990234375</ele>
        <time>2021-06-24T21:17:23.000Z</time>
        <extensions>
          <ns3:TrackPointExtension>
            <ns3:atemp>31.0</ns3:atemp>
            <ns3:hr>120</ns3:hr>
          </ns3:TrackPointExtension>
        </extensions>
      </trkpt>
      <trkpt lat="36.76719387061893939971923828125" lon="-118.4700861386954784393310546875">
        <ele>2263.800048828125</ele>
        <time>2021-06-24T21:17:26.000Z</time>
        <extensions>
          <ns3:TrackPointExtension>
            <ns3:atemp>31.0</ns3:atemp>
            <ns3:hr>122</ns3:hr>
          </ns3:TrackPointExtension>
        </extensions>
      </trkpt>
      <trkpt lat="36.76718817092478275299072265625" lon="-118.47007717005908489227294921875">
        <ele>2264</ele>
        <time>2021-06-24T21:17:27.000Z</time>
        <extensions>
          <ns3:TrackPointExtension>
            <ns3:atemp>30.0</ns3:atemp>
            <ns3:hr>120</ns3:hr>
          </ns3:TrackPointExtension>
        </extensions>
      </trkpt>
      <trkpt lat="36.7671832256019115447998046875" lon="-118.47004649229347705841064453125">
        <ele>2264</ele>
        <time>2021-06-24T21:17:29.000Z</time>
        <extensions>
          <ns3:TrackPointExtension>
            <ns3:atemp>30.0</ns3:atemp>
            <ns3:hr>119</ns3:hr>
          </ns3:TrackPointExtension>
        </extensions>
      </trkpt>
      <trkpt lat="36.7671792022883892059326171875" lon="-118.4700130484998226165771484375">
        <ele>2264.199951171875</ele>
        <time>2021-06-24T21:17:31.000Z</time>
        <extensions>
          <ns3:TrackPointExtension>
            <ns3:atemp>30.0</ns3:atemp>
            <ns3:hr>122</ns3:hr>
          </ns3:TrackPointExtension>
        </extensions>
      </trkpt>
      <trkpt lat="36.76715849898755550384521484375" lon="-118.4699832089245319366455078125">
        <ele>2264.199951171875</ele>
        <time>2021-06-24T21:17:33.000Z</time>
        <extensions>
          <ns3:TrackPointExtension>
            <ns3:atemp>30.0</ns3:atemp>
            <ns3:hr>123</ns3:hr>
          </ns3:TrackPointExtension>
        </extensions>
      </trkpt>
      <trkpt lat="36.76709496416151523590087890625" lon="-118.46989830024540424346923828125">
        <ele>2264.199951171875</ele>
        <time>2021-06-24T21:17:39.000Z</time>
        <extensions>
          <ns3:TrackPointExtension>
            <ns3:atemp>30.0</ns3:atemp>
            <ns3:hr>122</ns3:hr>
          </ns3:TrackPointExtension>
        </extensions>
      </trkpt>
      <trkpt lat="36.76708440296351909637451171875" lon="-118.4698900021612644195556640625">
        <ele>2264.39990234375</ele>
        <time>2021-06-24T21:17:40.000Z</time>
        <extensions>
          <ns3:TrackPointExtension>
            <ns3:atemp>30.0</ns3:atemp>
            <ns3:hr>121</ns3:hr>
          </ns3:TrackPointExtension>
        </extensions>
      </trkpt>
      <trkpt lat="36.767060346901416778564453125" lon="-118.46986410208046436309814453125">
        <ele>2264.60009765625</ele>
        <time>2021-06-24T21:17:42.000Z</time>
        <extensions>
          <ns3:TrackPointExtension>
            <ns3:atemp>30.0</ns3:atemp>
            <ns3:hr>121</ns3:hr>
          </ns3:TrackPointExtension>
        </extensions>
      </trkpt>
      <trkpt lat="36.76703989505767822265625" lon="-118.46980442292988300323486328125">
        <ele>2265</ele>
        <time>2021-06-24T21:17:45.000Z</time>
        <extensions>
          <ns3:TrackPointExtension>
            <ns3:atemp>30.0</ns3:atemp>
            <ns3:hr>119</ns3:hr>
          </ns3:TrackPointExtension>
        </extensions>
      </trkpt>
      <trkpt lat="36.7670377157628536224365234375" lon="-118.46977047622203826904296875">
        <ele>2265</ele>
        <time>2021-06-24T21:17:47.000Z</time>
        <extensions>
          <ns3:TrackPointExtension>
            <ns3:atemp>30.0</ns3:atemp>
            <ns3:hr>121</ns3:hr>
          </ns3:TrackPointExtension>
        </extensions>
      </trkpt>
      <trkpt lat="36.767034865915775299072265625" lon="-118.46972529776394367218017578125">
        <ele>2265.39990234375</ele>
        <time>2021-06-24T21:17:49.000Z</time>
        <extensions>
          <ns3:TrackPointExtension>
            <ns3:atemp>30.0</ns3:atemp>
            <ns3:hr>119</ns3:hr>
          </ns3:TrackPointExtension>
        </extensions>
      </trkpt>
      <trkpt lat="36.76703427918255329132080078125" lon="-118.46971674822270870208740234375">
        <ele>2265.39990234375</ele>
        <time>2021-06-24T21:17:50.000Z</time>
        <extensions>
          <ns3:TrackPointExtension>
            <ns3:atemp>30.0</ns3:atemp>
            <ns3:hr>118</ns3:hr>
          </ns3:TrackPointExtension>
        </extensions>
      </trkpt>
      <trkpt lat="36.7670246399939060211181640625" lon="-118.4697066061198711395263671875">
        <ele>2265.39990234375</ele>
        <time>2021-06-24T21:17:51.000Z</time>
        <extensions>
          <ns3:TrackPointExtension>
            <ns3:atemp>30.0</ns3:atemp>
            <ns3:hr>118</ns3:hr>
          </ns3:TrackPointExtension>
        </extensions>
      </trkpt>
      <trkpt lat="36.7670025117695331573486328125" lon="-118.4696786105632781982421875">
        <ele>2265.60009765625</ele>
        <time>2021-06-24T21:17:53.000Z</time>
        <extensions>
          <ns3:TrackPointExtension>
            <ns3:atemp>30.0</ns3:atemp>
            <ns3:hr>117</ns3:hr>
          </ns3:TrackPointExtension>
        </extensions>
      </trkpt>
      <trkpt lat="36.766963787376880645751953125" lon="-118.46963678486645221710205078125">
        <ele>2266</ele>
        <time>2021-06-24T21:17:57.000Z</time>
        <extensions>
          <ns3:TrackPointExtension>
            <ns3:atemp>30.0</ns3:atemp>
            <ns3:hr>117</ns3:hr>
          </ns3:TrackPointExtension>
        </extensions>
      </trkpt>
      <trkpt lat="36.76693034358322620391845703125" lon="-118.469600491225719451904296875">
        <ele>2266.39990234375</ele>
        <time>2021-06-24T21:18:02.000Z</time>
        <extensions>
          <ns3:TrackPointExtension>
            <ns3:atemp>30.0</ns3:atemp>
            <ns3:hr>120</ns3:hr>
          </ns3:TrackPointExtension>
        </extensions>
      </trkpt>
      <trkpt lat="36.76693067885935306549072265625" lon="-118.4695983119308948516845703125">
        <ele>2266.60009765625</ele>
        <time>2021-06-24T21:18:03.000Z</time>
        <extensions>
          <ns3:TrackPointExtension>
            <ns3:atemp>30.0</ns3:atemp>
            <ns3:hr>120</ns3:hr>
          </ns3:TrackPointExtension>
        </extensions>
      </trkpt>
      <trkpt lat="36.76692866720259189605712890625" lon="-118.46959604881703853607177734375">
        <ele>2266.800048828125</ele>
        <time>2021-06-24T21:18:04.000Z</time>
        <extensions>
          <ns3:TrackPointExtension>
            <ns3:atemp>30.0</ns3:atemp>
            <ns3:hr>118</ns3:hr>
          </ns3:TrackPointExtension>
        </extensions>
      </trkpt>
      <trkpt lat="36.7669178545475006103515625" lon="-118.46956755034625530242919921875">
        <ele>2267.39990234375</ele>
        <time>2021-06-24T21:18:08.000Z</time>
        <extensions>
          <ns3:TrackPointExtension>
            <ns3:atemp>30.0</ns3:atemp>
            <ns3:hr>117</ns3:hr>
          </ns3:TrackPointExtension>
        </extensions>
      </trkpt>
      <trkpt lat="36.76690377295017242431640625" lon="-118.469548188149929046630859375">
        <ele>2267.60009765625</ele>
        <time>2021-06-24T21:18:10.000Z</time>
        <extensions>
          <ns3:TrackPointExtension>
            <ns3:atemp>30.0</ns3:atemp>
            <ns3:hr>116</ns3:hr>
          </ns3:TrackPointExtension>
        </extensions>
      </trkpt>
      <trkpt lat="36.76689044572412967681884765625" lon="-118.4695325978100299835205078125">
        <ele>2267.60009765625</ele>
        <time>2021-06-24T21:18:12.000Z</time>
        <extensions>
          <ns3:TrackPointExtension>
            <ns3:atemp>30.0</ns3:atemp>
            <ns3:hr>116</ns3:hr>
          </ns3:TrackPointExtension>
        </extensions>
      </trkpt>
      <trkpt lat="36.76688365638256072998046875" lon="-118.46951390616595745086669921875">
        <ele>2267.800048828125</ele>
        <time>2021-06-24T21:18:14.000Z</time>
        <extensions>
          <ns3:TrackPointExtension>
            <ns3:atemp>30.0</ns3:atemp>
            <ns3:hr>115</ns3:hr>
          </ns3:TrackPointExtension>
        </extensions>
      </trkpt>
      <trkpt lat="36.76686798222362995147705078125" lon="-118.46948876045644283294677734375">
        <ele>2267.800048828125</ele>
        <time>2021-06-24T21:18:16.000Z</time>
        <extensions>
          <ns3:TrackPointExtension>
            <ns3:atemp>30.0</ns3:atemp>
            <ns3:hr>114</ns3:hr>
          </ns3:TrackPointExtension>
        </extensions>
      </trkpt>
      <trkpt lat="36.7668320238590240478515625" lon="-118.46945070661604404449462890625">
        <ele>2268.199951171875</ele>
        <time>2021-06-24T21:18:20.000Z</time>
        <extensions>
          <ns3:TrackPointExtension>
            <ns3:atemp>30.0</ns3:atemp>
            <ns3:hr>117</ns3:hr>
          </ns3:TrackPointExtension>
        </extensions>
      </trkpt>
      <trkpt lat="36.76680612377822399139404296875" lon="-118.4694263152778148651123046875">
        <ele>2268.800048828125</ele>
        <time>2021-06-24T21:18:23.000Z</time>
        <extensions>
          <ns3:TrackPointExtension>
            <ns3:atemp>30.0</ns3:atemp>
            <ns3:hr>116</ns3:hr>
          </ns3:TrackPointExtension>
        </extensions>
      </trkpt>
      <trkpt lat="36.76678500138223171234130859375" lon="-118.469397313892841339111328125">
        <ele>2269.39990234375</ele>
        <time>2021-06-24T21:18:29.000Z</time>
        <extensions>
          <ns3:TrackPointExtension>
            <ns3:atemp>30.0</ns3:atemp>
            <ns3:hr>120</ns3:hr>
          </ns3:TrackPointExtension>
        </extensions>
      </trkpt>
      <trkpt lat="36.76679422147572040557861328125" lon="-118.46940192393958568572998046875">
        <ele>2269.60009765625</ele>
        <time>2021-06-24T21:18:30.000Z</time>
        <extensions>
          <ns3:TrackPointExtension>
            <ns3:atemp>30.0</ns3:atemp>
            <ns3:hr>119</ns3:hr>
          </ns3:TrackPointExtension>
        </extensions>
      </trkpt>
      <trkpt lat="36.76680587232112884521484375" lon="-118.4693981520831584930419921875">
        <ele>2269.800048828125</ele>
        <time>2021-06-24T21:18:31.000Z</time>
        <extensions>
          <ns3:TrackPointExtension>
            <ns3:atemp>30.0</ns3:atemp>
            <ns3:hr>119</ns3:hr>
          </ns3:TrackPointExtension>
        </extensions>
      </trkpt>
      <trkpt lat="36.76680578850209712982177734375" lon="-118.46939320676028728485107421875">
        <ele>2270.199951171875</ele>
        <time>2021-06-24T21:18:33.000Z</time>
        <extensions>
          <ns3:TrackPointExtension>
            <ns3:atemp>30.0</ns3:atemp>
            <ns3:hr>119</ns3:hr>
          </ns3:TrackPointExtension>
        </extensions>
      </trkpt>
      <trkpt lat="36.76677770912647247314453125" lon="-118.46936219371855258941650390625">
        <ele>2270.800048828125</ele>
        <time>2021-06-24T21:18:36.000Z</time>
        <extensions>
          <ns3:TrackPointExtension>
            <ns3:atemp>30.0</ns3:atemp>
            <ns3:hr>119</ns3:hr>
          </ns3:TrackPointExtension>
        </extensions>
      </trkpt>
      <trkpt lat="36.7667567543685436248779296875" lon="-118.4693299233913421630859375">
        <ele>2271.39990234375</ele>
        <time>2021-06-24T21:18:40.000Z</time>
        <extensions>
          <ns3:TrackPointExtension>
            <ns3:atemp>30.0</ns3:atemp>
            <ns3:hr>120</ns3:hr>
          </ns3:TrackPointExtension>
        </extensions>
      </trkpt>
      <trkpt lat="36.76674074493348598480224609375" lon="-118.469304107129573822021484375">
        <ele>2271.800048828125</ele>
        <time>2021-06-24T21:18:43.000Z</time>
        <extensions>
          <ns3:TrackPointExtension>
            <ns3:atemp>30.0</ns3:atemp>
            <ns3:hr>120</ns3:hr>
          </ns3:TrackPointExtension>
        </extensions>
      </trkpt>
      <trkpt lat="36.76669665612280368804931640625" lon="-118.469259850680828094482421875">
        <ele>2272.60009765625</ele>
        <time>2021-06-24T21:18:48.000Z</time>
        <extensions>
          <ns3:TrackPointExtension>
            <ns3:atemp>30.0</ns3:atemp>
            <ns3:hr>121</ns3:hr>
          </ns3:TrackPointExtension>
        </extensions>
      </trkpt>
      <trkpt lat="36.766687519848346710205078125" lon="-118.46924836747348308563232421875">
        <ele>2273</ele>
        <time>2021-06-24T21:18:49.000Z</time>
        <extensions>
          <ns3:TrackPointExtension>
            <ns3:atemp>30.0</ns3:atemp>
            <ns3:hr>122</ns3:hr>
          </ns3:TrackPointExtension>
        </extensions>
      </trkpt>
      <trkpt lat="36.76667737774550914764404296875" lon="-118.46923227421939373016357421875">
        <ele>2273</ele>
        <time>2021-06-24T21:18:51.000Z</time>
        <extensions>
          <ns3:TrackPointExtension>
            <ns3:atemp>30.0</ns3:atemp>
            <ns3:hr>124</ns3:hr>
          </ns3:TrackPointExtension>
        </extensions>
      </trkpt>
      <trkpt lat="36.76666631363332271575927734375" lon="-118.46921416930854320526123046875">
        <ele>2273.60009765625</ele>
        <time>2021-06-24T21:18:53.000Z</time>
        <extensions>
          <ns3:TrackPointExtension>
            <ns3:atemp>30.0</ns3:atemp>
            <ns3:hr>124</ns3:hr>
          </ns3:TrackPointExtension>
        </extensions>
      </trkpt>
      <trkpt lat="36.76666379906237125396728515625" lon="-118.46920981071889400482177734375">
        <ele>2273.60009765625</ele>
        <time>2021-06-24T21:18:54.000Z</time>
        <extensions>
          <ns3:TrackPointExtension>
            <ns3:atemp>30.0</ns3:atemp>
            <ns3:hr>124</ns3:hr>
          </ns3:TrackPointExtension>
        </extensions>
      </trkpt>
      <trkpt lat="36.76666438579559326171875" lon="-118.46920930780470371246337890625">
        <ele>2273.800048828125</ele>
        <time>2021-06-24T21:18:56.000Z</time>
        <extensions>
          <ns3:TrackPointExtension>
            <ns3:atemp>30.0</ns3:atemp>
            <ns3:hr>124</ns3:hr>
          </ns3:TrackPointExtension>
        </extensions>
      </trkpt>
      <trkpt lat="36.7666737735271453857421875" lon="-118.46921400167047977447509765625">
        <ele>2274</ele>
        <time>2021-06-24T21:18:57.000Z</time>
        <extensions>
          <ns3:TrackPointExtension>
            <ns3:atemp>30.0</ns3:atemp>
            <ns3:hr>124</ns3:hr>
          </ns3:TrackPointExtension>
        </extensions>
      </trkpt>
      <trkpt lat="36.76669330336153507232666015625" lon="-118.4691755287349224090576171875">
        <ele>2274.60009765625</ele>
        <time>2021-06-24T21:19:04.000Z</time>
        <extensions>
          <ns3:TrackPointExtension>
            <ns3:atemp>30.0</ns3:atemp>
            <ns3:hr>125</ns3:hr>
          </ns3:TrackPointExtension>
        </extensions>
      </trkpt>
      <trkpt lat="36.76669397391378879547119140625" lon="-118.46917309798300266265869140625">
        <ele>2275</ele>
        <time>2021-06-24T21:19:05.000Z</time>
        <extensions>
          <ns3:TrackPointExtension>
            <ns3:atemp>30.0</ns3:atemp>
            <ns3:hr>125</ns3:hr>
          </ns3:TrackPointExtension>
        </extensions>
      </trkpt>
      <trkpt lat="36.766704283654689788818359375" lon="-118.46917661838233470916748046875">
        <ele>2275.39990234375</ele>
        <time>2021-06-24T21:19:07.000Z</time>
        <extensions>
          <ns3:TrackPointExtension>
            <ns3:atemp>30.0</ns3:atemp>
            <ns3:hr>128</ns3:hr>
          </ns3:TrackPointExtension>
        </extensions>
      </trkpt>
      <trkpt lat="36.7667259089648723602294921875" lon="-118.46917645074427127838134765625">
        <ele>2275.60009765625</ele>
        <time>2021-06-24T21:19:09.000Z</time>
        <extensions>
          <ns3:TrackPointExtension>
            <ns3:atemp>30.0</ns3:atemp>
            <ns3:hr>131</ns3:hr>
          </ns3:TrackPointExtension>
        </extensions>
      </trkpt>
      <trkpt lat="36.76677594892680644989013671875" lon="-118.46914258785545825958251953125">
        <ele>2276</ele>
        <time>2021-06-24T21:19:14.000Z</time>
        <extensions>
          <ns3:TrackPointExtension>
            <ns3:atemp>30.0</ns3:atemp>
            <ns3:hr>132</ns3:hr>
          </ns3:TrackPointExtension>
        </extensions>
      </trkpt>
      <trkpt lat="36.76677041687071323394775390625" lon="-118.4691071324050426483154296875">
        <ele>2276</ele>
        <time>2021-06-24T21:19:16.000Z</time>
        <extensions>
          <ns3:TrackPointExtension>
            <ns3:atemp>30.0</ns3:atemp>
            <ns3:hr>131</ns3:hr>
          </ns3:TrackPointExtension>
        </extensions>
      </trkpt>
      <trkpt lat="36.76674342714250087738037109375" lon="-118.46904837526381015777587890625">
        <ele>2276.199951171875</ele>
        <time>2021-06-24T21:19:19.000Z</time>
        <extensions>
          <ns3:TrackPointExtension>
            <ns3:atemp>30.0</ns3:atemp>
            <ns3:hr>132</ns3:hr>
          </ns3:TrackPointExtension>
        </extensions>
      </trkpt>
      <trkpt lat="36.76673135720193386077880859375" lon="-118.469010405242443084716796875">
        <ele>2276.60009765625</ele>
        <time>2021-06-24T21:19:22.000Z</time>
        <extensions>
          <ns3:TrackPointExtension>
            <ns3:atemp>30.0</ns3:atemp>
            <ns3:hr>133</ns3:hr>
          </ns3:TrackPointExtension>
        </extensions>
      </trkpt>
      <trkpt lat="36.7667193710803985595703125" lon="-118.468985259532928466796875">
        <ele>2276.800048828125</ele>
        <time>2021-06-24T21:19:25.000Z</time>
        <extensions>
          <ns3:TrackPointExtension>
            <ns3:atemp>30.0</ns3:atemp>
            <ns3:hr>133</ns3:hr>
          </ns3:TrackPointExtension>
        </extensions>
      </trkpt>
      <trkpt lat="36.76670118235051631927490234375" lon="-118.46896313130855560302734375">
        <ele>2277.199951171875</ele>
        <time>2021-06-24T21:19:28.000Z</time>
        <extensions>
          <ns3:TrackPointExtension>
            <ns3:atemp>30.0</ns3:atemp>
            <ns3:hr>134</ns3:hr>
          </ns3:TrackPointExtension>
        </extensions>
      </trkpt>
      <trkpt lat="36.76664628088474273681640625" lon="-118.46889766864478588104248046875">
        <ele>2277.60009765625</ele>
        <time>2021-06-24T21:19:34.000Z</time>
        <extensions>
          <ns3:TrackPointExtension>
            <ns3:atemp>30.0</ns3:atemp>
            <ns3:hr>136</ns3:hr>
          </ns3:TrackPointExtension>
        </extensions>
      </trkpt>
      <trkpt lat="36.76660277880728244781494140625" lon="-118.4688479639589786529541015625">
        <ele>2277.800048828125</ele>
        <time>2021-06-24T21:19:40.000Z</time>
        <extensions>
          <ns3:TrackPointExtension>
            <ns3:atemp>30.0</ns3:atemp>
            <ns3:hr>135</ns3:hr>
          </ns3:TrackPointExtension>
        </extensions>
      </trkpt>
      <trkpt lat="36.76659925840795040130615234375" lon="-118.46881737001240253448486328125">
        <ele>2278.199951171875</ele>
        <time>2021-06-24T21:19:46.000Z</time>
        <extensions>
          <ns3:TrackPointExtension>
            <ns3:atemp>30.0</ns3:atemp>
            <ns3:hr>134</ns3:hr>
          </ns3:TrackPointExtension>
        </extensions>
      </trkpt>
      <trkpt lat="36.76658148877322673797607421875" lon="-118.4687701798975467681884765625">
        <ele>2278.60009765625</ele>
        <time>2021-06-24T21:19:49.000Z</time>
        <extensions>
          <ns3:TrackPointExtension>
            <ns3:atemp>30.0</ns3:atemp>
            <ns3:hr>134</ns3:hr>
          </ns3:TrackPointExtension>
        </extensions>
      </trkpt>
      <trkpt lat="36.76658098585903644561767578125" lon="-118.4687343053519725799560546875">
        <ele>2278.800048828125</ele>
        <time>2021-06-24T21:19:53.000Z</time>
        <extensions>
          <ns3:TrackPointExtension>
            <ns3:atemp>30.0</ns3:atemp>
            <ns3:hr>135</ns3:hr>
          </ns3:TrackPointExtension>
        </extensions>
      </trkpt>
      <trkpt lat="36.766581237316131591796875" lon="-118.4687245823442935943603515625">
        <ele>2279.199951171875</ele>
        <time>2021-06-24T21:19:54.000Z</time>
        <extensions>
          <ns3:TrackPointExtension>
            <ns3:atemp>30.0</ns3:atemp>
            <ns3:hr>134</ns3:hr>
          </ns3:TrackPointExtension>
        </extensions>
      </trkpt>
      <trkpt lat="36.76660194061696529388427734375" lon="-118.46866800449788570404052734375">
        <ele>2280</ele>
        <time>2021-06-24T21:19:59.000Z</time>
        <extensions>
          <ns3:TrackPointExtension>
            <ns3:atemp>30.0</ns3:atemp>
            <ns3:hr>134</ns3:hr>
          </ns3:TrackPointExtension>
        </extensions>
      </trkpt>
      <trkpt lat="36.7666296847164630889892578125" lon="-118.4686364047229290008544921875">
        <ele>2280.800048828125</ele>
        <time>2021-06-24T21:20:04.000Z</time>
        <extensions>
          <ns3:TrackPointExtension>
            <ns3:atemp>31.0</ns3:atemp>
            <ns3:hr>133</ns3:hr>
          </ns3:TrackPointExtension>
        </extensions>
      </trkpt>
      <trkpt lat="36.7666360549628734588623046875" lon="-118.4686191380023956298828125">
        <ele>2281</ele>
        <time>2021-06-24T21:20:07.000Z</time>
        <extensions>
          <ns3:TrackPointExtension>
            <ns3:atemp>31.0</ns3:atemp>
            <ns3:hr>132</ns3:hr>
          </ns3:TrackPointExtension>
        </extensions>
      </trkpt>
      <trkpt lat="36.76663949154317378997802734375" lon="-118.46859223209321498870849609375">
        <ele>2281.199951171875</ele>
        <time>2021-06-24T21:20:10.000Z</time>
        <extensions>
          <ns3:TrackPointExtension>
            <ns3:atemp>31.0</ns3:atemp>
            <ns3:hr>132</ns3:hr>
          </ns3:TrackPointExtension>
        </extensions>
      </trkpt>
      <trkpt lat="36.7666541598737239837646484375" lon="-118.4685579501092433929443359375">
        <ele>2281.60009765625</ele>
        <time>2021-06-24T21:20:13.000Z</time>
        <extensions>
          <ns3:TrackPointExtension>
            <ns3:atemp>31.0</ns3:atemp>
            <ns3:hr>129</ns3:hr>
          </ns3:TrackPointExtension>
        </extensions>
      </trkpt>
      <trkpt lat="36.7666551657021045684814453125" lon="-118.4685418568551540374755859375">
        <ele>2281.60009765625</ele>
        <time>2021-06-24T21:20:15.000Z</time>
        <extensions>
          <ns3:TrackPointExtension>
            <ns3:atemp>31.0</ns3:atemp>
            <ns3:hr>128</ns3:hr>
          </ns3:TrackPointExtension>
        </extensions>
      </trkpt>
      <trkpt lat="36.7666588537395000457763671875" lon="-118.46853221766650676727294921875">
        <ele>2281.800048828125</ele>
        <time>2021-06-24T21:20:16.000Z</time>
        <extensions>
          <ns3:TrackPointExtension>
            <ns3:atemp>31.0</ns3:atemp>
            <ns3:hr>132</ns3:hr>
          </ns3:TrackPointExtension>
        </extensions>
      </trkpt>
      <trkpt lat="36.76669682376086711883544921875" lon="-118.46849240362644195556640625">
        <ele>2282.800048828125</ele>
        <time>2021-06-24T21:20:23.000Z</time>
        <extensions>
          <ns3:TrackPointExtension>
            <ns3:atemp>31.0</ns3:atemp>
            <ns3:hr>131</ns3:hr>
          </ns3:TrackPointExtension>
        </extensions>
      </trkpt>
      <trkpt lat="36.7667007632553577423095703125" lon="-118.46848678775131702423095703125">
        <ele>2282.800048828125</ele>
        <time>2021-06-24T21:20:24.000Z</time>
        <extensions>
          <ns3:TrackPointExtension>
            <ns3:atemp>31.0</ns3:atemp>
            <ns3:hr>131</ns3:hr>
          </ns3:TrackPointExtension>
        </extensions>
      </trkpt>
      <trkpt lat="36.76670520566403865814208984375" lon="-118.4684506617486476898193359375">
        <ele>2283.39990234375</ele>
        <time>2021-06-24T21:20:29.000Z</time>
        <extensions>
          <ns3:TrackPointExtension>
            <ns3:atemp>31.0</ns3:atemp>
            <ns3:hr>129</ns3:hr>
          </ns3:TrackPointExtension>
        </extensions>
      </trkpt>
      <trkpt lat="36.76670805551111698150634765625" lon="-118.46841068007051944732666015625">
        <ele>2284</ele>
        <time>2021-06-24T21:20:32.000Z</time>
        <extensions>
          <ns3:TrackPointExtension>
            <ns3:atemp>31.0</ns3:atemp>
            <ns3:hr>128</ns3:hr>
          </ns3:TrackPointExtension>
        </extensions>
      </trkpt>
      <trkpt lat="36.7666930519044399261474609375" lon="-118.46834379248321056365966796875">
        <ele>2284.39990234375</ele>
        <time>2021-06-24T21:20:37.000Z</time>
        <extensions>
          <ns3:TrackPointExtension>
            <ns3:atemp>31.0</ns3:atemp>
            <ns3:hr>130</ns3:hr>
          </ns3:TrackPointExtension>
        </extensions>
      </trkpt>
      <trkpt lat="36.76669095642864704132080078125" lon="-118.4683017991483211517333984375">
        <ele>2285</ele>
        <time>2021-06-24T21:20:43.000Z</time>
        <extensions>
          <ns3:TrackPointExtension>
            <ns3:atemp>31.0</ns3:atemp>
            <ns3:hr>128</ns3:hr>
          </ns3:TrackPointExtension>
        </extensions>
      </trkpt>
      <trkpt lat="36.76667704246938228607177734375" lon="-118.46828562207520008087158203125">
        <ele>2285.800048828125</ele>
        <time>2021-06-24T21:20:47.000Z</time>
        <extensions>
          <ns3:TrackPointExtension>
            <ns3:atemp>31.0</ns3:atemp>
            <ns3:hr>128</ns3:hr>
          </ns3:TrackPointExtension>
        </extensions>
      </trkpt>
      <trkpt lat="36.76669145934283733367919921875" lon="-118.4682731330394744873046875">
        <ele>2286.199951171875</ele>
        <time>2021-06-24T21:20:50.000Z</time>
        <extensions>
          <ns3:TrackPointExtension>
            <ns3:atemp>31.0</ns3:atemp>
            <ns3:hr>128</ns3:hr>
          </ns3:TrackPointExtension>
        </extensions>
      </trkpt>
      <trkpt lat="36.766696237027645111083984375" lon="-118.46826952882111072540283203125">
        <ele>2286.199951171875</ele>
        <time>2021-06-24T21:20:51.000Z</time>
        <extensions>
          <ns3:TrackPointExtension>
            <ns3:atemp>31.0</ns3:atemp>
            <ns3:hr>128</ns3:hr>
          </ns3:TrackPointExtension>
        </extensions>
      </trkpt>
      <trkpt lat="36.7667005956172943115234375" lon="-118.46826684661209583282470703125">
        <ele>2286.39990234375</ele>
        <time>2021-06-24T21:20:52.000Z</time>
        <extensions>
          <ns3:TrackPointExtension>
            <ns3:atemp>31.0</ns3:atemp>
            <ns3:hr>128</ns3:hr>
          </ns3:TrackPointExtension>
        </extensions>
      </trkpt>
      <trkpt lat="36.76671576686203479766845703125" lon="-118.46826248802244663238525390625">
        <ele>2286.800048828125</ele>
        <time>2021-06-24T21:20:55.000Z</time>
        <extensions>
          <ns3:TrackPointExtension>
            <ns3:atemp>31.0</ns3:atemp>
            <ns3:hr>128</ns3:hr>
          </ns3:TrackPointExtension>
        </extensions>
      </trkpt>
      <trkpt lat="36.76673135720193386077880859375" lon="-118.468250334262847900390625">
        <ele>2287.199951171875</ele>
        <time>2021-06-24T21:20:58.000Z</time>
        <extensions>
          <ns3:TrackPointExtension>
            <ns3:atemp>31.0</ns3:atemp>
            <ns3:hr>130</ns3:hr>
          </ns3:TrackPointExtension>
        </extensions>
      </trkpt>
      <trkpt lat="36.76673554815351963043212890625" lon="-118.46824253909289836883544921875">
        <ele>2287.39990234375</ele>
        <time>2021-06-24T21:20:59.000Z</time>
        <extensions>
          <ns3:TrackPointExtension>
            <ns3:atemp>31.0</ns3:atemp>
            <ns3:hr>131</ns3:hr>
          </ns3:TrackPointExtension>
        </extensions>
      </trkpt>
      <trkpt lat="36.766741834580898284912109375" lon="-118.4682313911616802215576171875">
        <ele>2287.39990234375</ele>
        <time>2021-06-24T21:21:00.000Z</time>
        <extensions>
          <ns3:TrackPointExtension>
            <ns3:atemp>31.0</ns3:atemp>
            <ns3:hr>131</ns3:hr>
          </ns3:TrackPointExtension>
        </extensions>
      </trkpt>
      <trkpt lat="36.76674761809408664703369140625" lon="-118.46821974031627178192138671875">
        <ele>2287.60009765625</ele>
        <time>2021-06-24T21:21:01.000Z</time>
        <extensions>
          <ns3:TrackPointExtension>
            <ns3:atemp>31.0</ns3:atemp>
            <ns3:hr>132</ns3:hr>
          </ns3:TrackPointExtension>
        </extensions>
      </trkpt>
      <trkpt lat="36.76676563918590545654296875" lon="-118.46814514137804508209228515625">
        <ele>2288.39990234375</ele>
        <time>2021-06-24T21:21:09.000Z</time>
        <extensions>
          <ns3:TrackPointExtension>
            <ns3:atemp>31.0</ns3:atemp>
            <ns3:hr>132</ns3:hr>
          </ns3:TrackPointExtension>
        </extensions>
      </trkpt>
      <trkpt lat="36.7668080516159534454345703125" lon="-118.46811915747821331024169921875">
        <ele>2289</ele>
        <time>2021-06-24T21:21:15.000Z</time>
        <extensions>
          <ns3:TrackPointExtension>
            <ns3:atemp>31.0</ns3:atemp>
            <ns3:hr>129</ns3:hr>
          </ns3:TrackPointExtension>
        </extensions>
      </trkpt>
      <trkpt lat="36.7668060399591922760009765625" lon="-118.46811152994632720947265625">
        <ele>2289</ele>
        <time>2021-06-24T21:21:16.000Z</time>
        <extensions>
          <ns3:TrackPointExtension>
            <ns3:atemp>31.0</ns3:atemp>
            <ns3:hr>129</ns3:hr>
          </ns3:TrackPointExtension>
        </extensions>
      </trkpt>
      <trkpt lat="36.7668127454817295074462890625" lon="-118.46812762320041656494140625">
        <ele>2289.39990234375</ele>
        <time>2021-06-24T21:21:20.000Z</time>
        <extensions>
          <ns3:TrackPointExtension>
            <ns3:atemp>31.0</ns3:atemp>
            <ns3:hr>128</ns3:hr>
          </ns3:TrackPointExtension>
        </extensions>
      </trkpt>
      <trkpt lat="36.766824983060359954833984375" lon="-118.4681237675249576568603515625">
        <ele>2289.800048828125</ele>
        <time>2021-06-24T21:21:22.000Z</time>
        <extensions>
          <ns3:TrackPointExtension>
            <ns3:atemp>31.0</ns3:atemp>
            <ns3:hr>128</ns3:hr>
          </ns3:TrackPointExtension>
        </extensions>
      </trkpt>
      <trkpt lat="36.7668301798403263092041015625" lon="-118.46812200732529163360595703125">
        <ele>2290</ele>
        <time>2021-06-24T21:21:23.000Z</time>
        <extensions>
          <ns3:TrackPointExtension>
            <ns3:atemp>31.0</ns3:atemp>
            <ns3:hr>129</ns3:hr>
          </ns3:TrackPointExtension>
        </extensions>
      </trkpt>
      <trkpt lat="36.7668747715651988983154296875" lon="-118.4680952690541744232177734375">
        <ele>2290.800048828125</ele>
        <time>2021-06-24T21:21:29.000Z</time>
        <extensions>
          <ns3:TrackPointExtension>
            <ns3:atemp>31.0</ns3:atemp>
            <ns3:hr>129</ns3:hr>
          </ns3:TrackPointExtension>
        </extensions>
      </trkpt>
      <trkpt lat="36.76687435247004032135009765625" lon="-118.46807791851460933685302734375">
        <ele>2291</ele>
        <time>2021-06-24T21:21:31.000Z</time>
        <extensions>
          <ns3:TrackPointExtension>
            <ns3:atemp>31.0</ns3:atemp>
            <ns3:hr>129</ns3:hr>
          </ns3:TrackPointExtension>
        </extensions>
      </trkpt>
      <trkpt lat="36.7668771184980869293212890625" lon="-118.46807003952562808990478515625">
        <ele>2291.39990234375</ele>
        <time>2021-06-24T21:21:34.000Z</time>
        <extensions>
          <ns3:TrackPointExtension>
            <ns3:atemp>31.0</ns3:atemp>
            <ns3:hr>127</ns3:hr>
          </ns3:TrackPointExtension>
        </extensions>
      </trkpt>
      <trkpt lat="36.766887009143829345703125" lon="-118.4680677764117717742919921875">
        <ele>2291.39990234375</ele>
        <time>2021-06-24T21:21:37.000Z</time>
        <extensions>
          <ns3:TrackPointExtension>
            <ns3:atemp>31.0</ns3:atemp>
            <ns3:hr>131</ns3:hr>
          </ns3:TrackPointExtension>
        </extensions>
      </trkpt>
      <trkpt lat="36.76689027808606624603271484375" lon="-118.46805998124182224273681640625">
        <ele>2291.60009765625</ele>
        <time>2021-06-24T21:21:38.000Z</time>
        <extensions>
          <ns3:TrackPointExtension>
            <ns3:atemp>31.0</ns3:atemp>
            <ns3:hr>127</ns3:hr>
          </ns3:TrackPointExtension>
        </extensions>
      </trkpt>
      <trkpt lat="36.76689145155251026153564453125" lon="-118.46804623492062091827392578125">
        <ele>2291.800048828125</ele>
        <time>2021-06-24T21:21:40.000Z</time>
        <extensions>
          <ns3:TrackPointExtension>
            <ns3:atemp>31.0</ns3:atemp>
            <ns3:hr>129</ns3:hr>
          </ns3:TrackPointExtension>
        </extensions>
      </trkpt>
      <trkpt lat="36.766893379390239715576171875" lon="-118.4680355899035930633544921875">
        <ele>2292</ele>
        <time>2021-06-24T21:21:43.000Z</time>
        <extensions>
          <ns3:TrackPointExtension>
            <ns3:atemp>31.0</ns3:atemp>
            <ns3:hr>127</ns3:hr>
          </ns3:TrackPointExtension>
        </extensions>
      </trkpt>
      <trkpt lat="36.76689832471311092376708984375" lon="-118.468026034533977508544921875">
        <ele>2292</ele>
        <time>2021-06-24T21:21:44.000Z</time>
        <extensions>
          <ns3:TrackPointExtension>
            <ns3:atemp>31.0</ns3:atemp>
            <ns3:hr>127</ns3:hr>
          </ns3:TrackPointExtension>
        </extensions>
      </trkpt>
      <trkpt lat="36.76690251566469669342041015625" lon="-118.4680156409740447998046875">
        <ele>2293</ele>
        <time>2021-06-24T21:21:46.000Z</time>
        <extensions>
          <ns3:TrackPointExtension>
            <ns3:atemp>31.0</ns3:atemp>
            <ns3:hr>127</ns3:hr>
          </ns3:TrackPointExtension>
        </extensions>
      </trkpt>
      <trkpt lat="36.76690670661628246307373046875" lon="-118.4679990448057651519775390625">
        <ele>2293.199951171875</ele>
        <time>2021-06-24T21:21:49.000Z</time>
        <extensions>
          <ns3:TrackPointExtension>
            <ns3:atemp>31.0</ns3:atemp>
            <ns3:hr>126</ns3:hr>
          </ns3:TrackPointExtension>
        </extensions>
      </trkpt>
      <trkpt lat="36.766911484301090240478515625" lon="-118.4679477475583553314208984375">
        <ele>2293.60009765625</ele>
        <time>2021-06-24T21:21:56.000Z</time>
        <extensions>
          <ns3:TrackPointExtension>
            <ns3:atemp>31.0</ns3:atemp>
            <ns3:hr>126</ns3:hr>
          </ns3:TrackPointExtension>
        </extensions>
      </trkpt>
      <trkpt lat="36.7669042758643627166748046875" lon="-118.46792503260076045989990234375">
        <ele>2294.199951171875</ele>
        <time>2021-06-24T21:21:58.000Z</time>
        <extensions>
          <ns3:TrackPointExtension>
            <ns3:atemp>31.0</ns3:atemp>
            <ns3:hr>126</ns3:hr>
          </ns3:TrackPointExtension>
        </extensions>
      </trkpt>
      <trkpt lat="36.7668647132813930511474609375" lon="-118.4679122082889080047607421875">
        <ele>2294.800048828125</ele>
        <time>2021-06-24T21:22:02.000Z</time>
        <extensions>
          <ns3:TrackPointExtension>
            <ns3:atemp>31.0</ns3:atemp>
            <ns3:hr>129</ns3:hr>
          </ns3:TrackPointExtension>
        </extensions>
      </trkpt>
      <trkpt lat="36.76685607992112636566162109375" lon="-118.467903994023799896240234375">
        <ele>2295.199951171875</ele>
        <time>2021-06-24T21:22:07.000Z</time>
        <extensions>
          <ns3:TrackPointExtension>
            <ns3:atemp>31.0</ns3:atemp>
            <ns3:hr>132</ns3:hr>
          </ns3:TrackPointExtension>
        </extensions>
      </trkpt>
      <trkpt lat="36.76685155369341373443603515625" lon="-118.467875830829143524169921875">
        <ele>2295.199951171875</ele>
        <time>2021-06-24T21:22:09.000Z</time>
        <extensions>
          <ns3:TrackPointExtension>
            <ns3:atemp>31.0</ns3:atemp>
            <ns3:hr>134</ns3:hr>
          </ns3:TrackPointExtension>
        </extensions>
      </trkpt>
      <trkpt lat="36.76686680875718593597412109375" lon="-118.4678645990788936614990234375">
        <ele>2295.60009765625</ele>
        <time>2021-06-24T21:22:12.000Z</time>
        <extensions>
          <ns3:TrackPointExtension>
            <ns3:atemp>32.0</ns3:atemp>
            <ns3:hr>137</ns3:hr>
          </ns3:TrackPointExtension>
        </extensions>
      </trkpt>
      <trkpt lat="36.766871251165866851806640625" lon="-118.46786032430827617645263671875">
        <ele>2296</ele>
        <time>2021-06-24T21:22:14.000Z</time>
        <extensions>
          <ns3:TrackPointExtension>
            <ns3:atemp>31.0</ns3:atemp>
            <ns3:hr>139</ns3:hr>
          </ns3:TrackPointExtension>
        </extensions>
      </trkpt>
      <trkpt lat="36.76687133498489856719970703125" lon="-118.46785160712897777557373046875">
        <ele>2296.39990234375</ele>
        <time>2021-06-24T21:22:16.000Z</time>
        <extensions>
          <ns3:TrackPointExtension>
            <ns3:atemp>31.0</ns3:atemp>
            <ns3:hr>141</ns3:hr>
          </ns3:TrackPointExtension>
        </extensions>
      </trkpt>
      <trkpt lat="36.7668623663485050201416015625" lon="-118.46783258020877838134765625">
        <ele>2297.199951171875</ele>
        <time>2021-06-24T21:22:20.000Z</time>
        <extensions>
          <ns3:TrackPointExtension>
            <ns3:atemp>31.0</ns3:atemp>
            <ns3:hr>142</ns3:hr>
          </ns3:TrackPointExtension>
        </extensions>
      </trkpt>
      <trkpt lat="36.76682942546904087066650390625" lon="-118.4678297303617000579833984375">
        <ele>2298</ele>
        <time>2021-06-24T21:22:25.000Z</time>
        <extensions>
          <ns3:TrackPointExtension>
            <ns3:atemp>31.0</ns3:atemp>
            <ns3:hr>142</ns3:hr>
          </ns3:TrackPointExtension>
        </extensions>
      </trkpt>
      <trkpt lat="36.7668241448700428009033203125" lon="-118.46782646141946315765380859375">
        <ele>2298</ele>
        <time>2021-06-24T21:22:26.000Z</time>
        <extensions>
          <ns3:TrackPointExtension>
            <ns3:atemp>31.0</ns3:atemp>
            <ns3:hr>143</ns3:hr>
          </ns3:TrackPointExtension>
        </extensions>
      </trkpt>
      <trkpt lat="36.7667944729328155517578125" lon="-118.467818833887577056884765625">
        <ele>2298.800048828125</ele>
        <time>2021-06-24T21:22:31.000Z</time>
        <extensions>
          <ns3:TrackPointExtension>
            <ns3:atemp>31.0</ns3:atemp>
            <ns3:hr>140</ns3:hr>
          </ns3:TrackPointExtension>
        </extensions>
      </trkpt>
      <trkpt lat="36.7667946405708789825439453125" lon="-118.4678015671670436859130859375">
        <ele>2299</ele>
        <time>2021-06-24T21:22:33.000Z</time>
        <extensions>
          <ns3:TrackPointExtension>
            <ns3:atemp>31.0</ns3:atemp>
            <ns3:hr>139</ns3:hr>
          </ns3:TrackPointExtension>
        </extensions>
      </trkpt>
      <trkpt lat="36.7668087221682071685791015625" lon="-118.467697799205780029296875">
        <ele>2300</ele>
        <time>2021-06-24T21:22:41.000Z</time>
        <extensions>
          <ns3:TrackPointExtension>
            <ns3:atemp>31.0</ns3:atemp>
            <ns3:hr>138</ns3:hr>
          </ns3:TrackPointExtension>
        </extensions>
      </trkpt>
      <trkpt lat="36.76678701303899288177490234375" lon="-118.4676647745072841644287109375">
        <ele>2300.199951171875</ele>
        <time>2021-06-24T21:22:45.000Z</time>
        <extensions>
          <ns3:TrackPointExtension>
            <ns3:atemp>31.0</ns3:atemp>
            <ns3:hr>135</ns3:hr>
          </ns3:TrackPointExtension>
        </extensions>
      </trkpt>
      <trkpt lat="36.76678567193448543548583984375" lon="-118.46764205954968929290771484375">
        <ele>2300.39990234375</ele>
        <time>2021-06-24T21:22:47.000Z</time>
        <extensions>
          <ns3:TrackPointExtension>
            <ns3:atemp>31.0</ns3:atemp>
            <ns3:hr>133</ns3:hr>
          </ns3:TrackPointExtension>
        </extensions>
      </trkpt>
      <trkpt lat="36.7667745240032672882080078125" lon="-118.467582799494266510009765625">
        <ele>2301.199951171875</ele>
        <time>2021-06-24T21:22:52.000Z</time>
        <extensions>
          <ns3:TrackPointExtension>
            <ns3:atemp>31.0</ns3:atemp>
            <ns3:hr>130</ns3:hr>
          </ns3:TrackPointExtension>
        </extensions>
      </trkpt>
      <trkpt lat="36.7667902819812297821044921875" lon="-118.4675799496471881866455078125">
        <ele>2301.39990234375</ele>
        <time>2021-06-24T21:22:54.000Z</time>
        <extensions>
          <ns3:TrackPointExtension>
            <ns3:atemp>31.0</ns3:atemp>
            <ns3:hr>130</ns3:hr>
          </ns3:TrackPointExtension>
        </extensions>
      </trkpt>
      <trkpt lat="36.766776703298091888427734375" lon="-118.4675259701907634735107421875">
        <ele>2301.800048828125</ele>
        <time>2021-06-24T21:22:59.000Z</time>
        <extensions>
          <ns3:TrackPointExtension>
            <ns3:atemp>31.0</ns3:atemp>
            <ns3:hr>127</ns3:hr>
          </ns3:TrackPointExtension>
        </extensions>
      </trkpt>
      <trkpt lat="36.76676069386303424835205078125" lon="-118.46748498268425464630126953125">
        <ele>2302.39990234375</ele>
        <time>2021-06-24T21:23:03.000Z</time>
        <extensions>
          <ns3:TrackPointExtension>
            <ns3:atemp>31.0</ns3:atemp>
            <ns3:hr>126</ns3:hr>
          </ns3:TrackPointExtension>
        </extensions>
      </trkpt>
      <trkpt lat="36.7667383141815662384033203125" lon="-118.46744575537741184234619140625">
        <ele>2303.199951171875</ele>
        <time>2021-06-24T21:23:08.000Z</time>
        <extensions>
          <ns3:TrackPointExtension>
            <ns3:atemp>31.0</ns3:atemp>
            <ns3:hr>126</ns3:hr>
          </ns3:TrackPointExtension>
        </extensions>
      </trkpt>
      <trkpt lat="36.76671006716787815093994140625" lon="-118.46743016503751277923583984375">
        <ele>2303.39990234375</ele>
        <time>2021-06-24T21:23:11.000Z</time>
        <extensions>
          <ns3:TrackPointExtension>
            <ns3:atemp>31.0</ns3:atemp>
            <ns3:hr>129</ns3:hr>
          </ns3:TrackPointExtension>
        </extensions>
      </trkpt>
      <trkpt lat="36.76670587621629238128662109375" lon="-118.4674255549907684326171875">
        <ele>2303.39990234375</ele>
        <time>2021-06-24T21:23:12.000Z</time>
        <extensions>
          <ns3:TrackPointExtension>
            <ns3:atemp>31.0</ns3:atemp>
            <ns3:hr>129</ns3:hr>
          </ns3:TrackPointExtension>
        </extensions>
      </trkpt>
      <trkpt lat="36.7666967399418354034423828125" lon="-118.467402420938014984130859375">
        <ele>2303.60009765625</ele>
        <time>2021-06-24T21:23:14.000Z</time>
        <extensions>
          <ns3:TrackPointExtension>
            <ns3:atemp>31.0</ns3:atemp>
            <ns3:hr>132</ns3:hr>
          </ns3:TrackPointExtension>
        </extensions>
      </trkpt>
      <trkpt lat="36.76669053733348846435546875" lon="-118.4673915244638919830322265625">
        <ele>2303.60009765625</ele>
        <time>2021-06-24T21:23:15.000Z</time>
        <extensions>
          <ns3:TrackPointExtension>
            <ns3:atemp>31.0</ns3:atemp>
            <ns3:hr>133</ns3:hr>
          </ns3:TrackPointExtension>
        </extensions>
      </trkpt>
      <trkpt lat="36.76665625534951686859130859375" lon="-118.46736830659210681915283203125">
        <ele>2304</ele>
        <time>2021-06-24T21:23:19.000Z</time>
        <extensions>
          <ns3:TrackPointExtension>
            <ns3:atemp>31.0</ns3:atemp>
            <ns3:hr>132</ns3:hr>
          </ns3:TrackPointExtension>
        </extensions>
      </trkpt>
      <trkpt lat="36.7666461132466793060302734375" lon="-118.46736042760312557220458984375">
        <ele>2304.39990234375</ele>
        <time>2021-06-24T21:23:22.000Z</time>
        <extensions>
          <ns3:TrackPointExtension>
            <ns3:atemp>31.0</ns3:atemp>
            <ns3:hr>132</ns3:hr>
          </ns3:TrackPointExtension>
        </extensions>
      </trkpt>
      <trkpt lat="36.7666447721421718597412109375" lon="-118.4673563204705715179443359375">
        <ele>2304.60009765625</ele>
        <time>2021-06-24T21:23:23.000Z</time>
        <extensions>
          <ns3:TrackPointExtension>
            <ns3:atemp>31.0</ns3:atemp>
            <ns3:hr>133</ns3:hr>
          </ns3:TrackPointExtension>
        </extensions>
      </trkpt>
      <trkpt lat="36.766640581190586090087890625" lon="-118.4673529677093029022216796875">
        <ele>2304.800048828125</ele>
        <time>2021-06-24T21:23:24.000Z</time>
        <extensions>
          <ns3:TrackPointExtension>
            <ns3:atemp>31.0</ns3:atemp>
            <ns3:hr>133</ns3:hr>
          </ns3:TrackPointExtension>
        </extensions>
      </trkpt>
      <trkpt lat="36.766653321683406829833984375" lon="-118.4673450887203216552734375">
        <ele>2305.199951171875</ele>
        <time>2021-06-24T21:23:28.000Z</time>
        <extensions>
          <ns3:TrackPointExtension>
            <ns3:atemp>31.0</ns3:atemp>
            <ns3:hr>136</ns3:hr>
          </ns3:TrackPointExtension>
        </extensions>
      </trkpt>
      <trkpt lat="36.7666558362543582916259765625" lon="-118.46733771264553070068359375">
        <ele>2305.60009765625</ele>
        <time>2021-06-24T21:23:30.000Z</time>
        <extensions>
          <ns3:TrackPointExtension>
            <ns3:atemp>31.0</ns3:atemp>
            <ns3:hr>137</ns3:hr>
          </ns3:TrackPointExtension>
        </extensions>
      </trkpt>
      <trkpt lat="36.76665675826370716094970703125" lon="-118.467329330742359161376953125">
        <ele>2305.60009765625</ele>
        <time>2021-06-24T21:23:31.000Z</time>
        <extensions>
          <ns3:TrackPointExtension>
            <ns3:atemp>31.0</ns3:atemp>
            <ns3:hr>138</ns3:hr>
          </ns3:TrackPointExtension>
        </extensions>
      </trkpt>
      <trkpt lat="36.76663479767739772796630859375" lon="-118.467268981039524078369140625">
        <ele>2306.199951171875</ele>
        <time>2021-06-24T21:23:37.000Z</time>
        <extensions>
          <ns3:TrackPointExtension>
            <ns3:atemp>31.0</ns3:atemp>
            <ns3:hr>139</ns3:hr>
          </ns3:TrackPointExtension>
        </extensions>
      </trkpt>
      <trkpt lat="36.7666166089475154876708984375" lon="-118.4672356210649013519287109375">
        <ele>2307</ele>
        <time>2021-06-24T21:23:40.000Z</time>
        <extensions>
          <ns3:TrackPointExtension>
            <ns3:atemp>31.0</ns3:atemp>
            <ns3:hr>139</ns3:hr>
          </ns3:TrackPointExtension>
        </extensions>
      </trkpt>
      <trkpt lat="36.76661384291946887969970703125" lon="-118.46724006347358226776123046875">
        <ele>2307.199951171875</ele>
        <time>2021-06-24T21:23:41.000Z</time>
        <extensions>
          <ns3:TrackPointExtension>
            <ns3:atemp>31.0</ns3:atemp>
            <ns3:hr>139</ns3:hr>
          </ns3:TrackPointExtension>
        </extensions>
      </trkpt>
      <trkpt lat="36.76661166362464427947998046875" lon="-118.46723402850329875946044921875">
        <ele>2307.39990234375</ele>
        <time>2021-06-24T21:23:42.000Z</time>
        <extensions>
          <ns3:TrackPointExtension>
            <ns3:atemp>31.0</ns3:atemp>
            <ns3:hr>139</ns3:hr>
          </ns3:TrackPointExtension>
        </extensions>
      </trkpt>
      <trkpt lat="36.7666062153875827789306640625" lon="-118.46722128801047801971435546875">
        <ele>2307.800048828125</ele>
        <time>2021-06-24T21:23:44.000Z</time>
        <extensions>
          <ns3:TrackPointExtension>
            <ns3:atemp>31.0</ns3:atemp>
            <ns3:hr>139</ns3:hr>
          </ns3:TrackPointExtension>
        </extensions>
      </trkpt>
      <trkpt lat="36.766604371368885040283203125" lon="-118.467208631336688995361328125">
        <ele>2307.800048828125</ele>
        <time>2021-06-24T21:23:46.000Z</time>
        <extensions>
          <ns3:TrackPointExtension>
            <ns3:atemp>31.0</ns3:atemp>
            <ns3:hr>137</ns3:hr>
          </ns3:TrackPointExtension>
        </extensions>
      </trkpt>
      <trkpt lat="36.76661199890077114105224609375" lon="-118.4671896882355213165283203125">
        <ele>2308.199951171875</ele>
        <time>2021-06-24T21:23:49.000Z</time>
        <extensions>
          <ns3:TrackPointExtension>
            <ns3:atemp>31.0</ns3:atemp>
            <ns3:hr>137</ns3:hr>
          </ns3:TrackPointExtension>
        </extensions>
      </trkpt>
      <trkpt lat="36.76661216653883457183837890625" lon="-118.46718105487525463104248046875">
        <ele>2308.199951171875</ele>
        <time>2021-06-24T21:23:50.000Z</time>
        <extensions>
          <ns3:TrackPointExtension>
            <ns3:atemp>31.0</ns3:atemp>
            <ns3:hr>137</ns3:hr>
          </ns3:TrackPointExtension>
        </extensions>
      </trkpt>
      <trkpt lat="36.76660738885402679443359375" lon="-118.46716747619211673736572265625">
        <ele>2308.199951171875</ele>
        <time>2021-06-24T21:23:51.000Z</time>
        <extensions>
          <ns3:TrackPointExtension>
            <ns3:atemp>31.0</ns3:atemp>
            <ns3:hr>137</ns3:hr>
          </ns3:TrackPointExtension>
        </extensions>
      </trkpt>
      <trkpt lat="36.76656925119459629058837890625" lon="-118.467139899730682373046875">
        <ele>2309</ele>
        <time>2021-06-24T21:23:57.000Z</time>
        <extensions>
          <ns3:TrackPointExtension>
            <ns3:atemp>31.0</ns3:atemp>
            <ns3:hr>136</ns3:hr>
          </ns3:TrackPointExtension>
        </extensions>
      </trkpt>
      <trkpt lat="36.76655910909175872802734375" lon="-118.4671331942081451416015625">
        <ele>2309.60009765625</ele>
        <time>2021-06-24T21:23:58.000Z</time>
        <extensions>
          <ns3:TrackPointExtension>
            <ns3:atemp>31.0</ns3:atemp>
            <ns3:hr>137</ns3:hr>
          </ns3:TrackPointExtension>
        </extensions>
      </trkpt>
      <trkpt lat="36.766548715531826019287109375" lon="-118.46712187863886356353759765625">
        <ele>2309.800048828125</ele>
        <time>2021-06-24T21:24:00.000Z</time>
        <extensions>
          <ns3:TrackPointExtension>
            <ns3:atemp>31.0</ns3:atemp>
            <ns3:hr>137</ns3:hr>
          </ns3:TrackPointExtension>
        </extensions>
      </trkpt>
      <trkpt lat="36.766550727188587188720703125" lon="-118.46711148507893085479736328125">
        <ele>2310</ele>
        <time>2021-06-24T21:24:02.000Z</time>
        <extensions>
          <ns3:TrackPointExtension>
            <ns3:atemp>31.0</ns3:atemp>
            <ns3:hr>137</ns3:hr>
          </ns3:TrackPointExtension>
        </extensions>
      </trkpt>
      <trkpt lat="36.76655449904501438140869140625" lon="-118.46711374819278717041015625">
        <ele>2309.800048828125</ele>
        <time>2021-06-24T21:24:04.000Z</time>
        <extensions>
          <ns3:TrackPointExtension>
            <ns3:atemp>31.0</ns3:atemp>
            <ns3:hr>138</ns3:hr>
          </ns3:TrackPointExtension>
        </extensions>
      </trkpt>
      <trkpt lat="36.7665663175284862518310546875" lon="-118.4671145863831043243408203125">
        <ele>2309.800048828125</ele>
        <time>2021-06-24T21:24:06.000Z</time>
        <extensions>
          <ns3:TrackPointExtension>
            <ns3:atemp>31.0</ns3:atemp>
            <ns3:hr>138</ns3:hr>
          </ns3:TrackPointExtension>
        </extensions>
      </trkpt>
      <trkpt lat="36.76658450625836849212646484375" lon="-118.46709187142550945281982421875">
        <ele>2311</ele>
        <time>2021-06-24T21:24:09.000Z</time>
        <extensions>
          <ns3:TrackPointExtension>
            <ns3:atemp>31.0</ns3:atemp>
            <ns3:hr>137</ns3:hr>
          </ns3:TrackPointExtension>
        </extensions>
      </trkpt>
      <trkpt lat="36.76656623370945453643798828125" lon="-118.4670847468078136444091796875">
        <ele>2311</ele>
        <time>2021-06-24T21:24:11.000Z</time>
        <extensions>
          <ns3:TrackPointExtension>
            <ns3:atemp>31.0</ns3:atemp>
            <ns3:hr>137</ns3:hr>
          </ns3:TrackPointExtension>
        </extensions>
      </trkpt>
      <trkpt lat="36.76656791009008884429931640625" lon="-118.4670800529420375823974609375">
        <ele>2311.60009765625</ele>
        <time>2021-06-24T21:24:14.000Z</time>
        <extensions>
          <ns3:TrackPointExtension>
            <ns3:atemp>31.0</ns3:atemp>
            <ns3:hr>137</ns3:hr>
          </ns3:TrackPointExtension>
        </extensions>
      </trkpt>
      <trkpt lat="36.76656807772815227508544921875" lon="-118.4670666418969631195068359375">
        <ele>2312</ele>
        <time>2021-06-24T21:24:16.000Z</time>
        <extensions>
          <ns3:TrackPointExtension>
            <ns3:atemp>31.0</ns3:atemp>
            <ns3:hr>136</ns3:hr>
          </ns3:TrackPointExtension>
        </extensions>
      </trkpt>
      <trkpt lat="36.76656656898558139801025390625" lon="-118.467050381004810333251953125">
        <ele>2312</ele>
        <time>2021-06-24T21:24:18.000Z</time>
        <extensions>
          <ns3:TrackPointExtension>
            <ns3:atemp>31.0</ns3:atemp>
            <ns3:hr>136</ns3:hr>
          </ns3:TrackPointExtension>
        </extensions>
      </trkpt>
      <trkpt lat="36.766558773815631866455078125" lon="-118.4670297615230083465576171875">
        <ele>2312.39990234375</ele>
        <time>2021-06-24T21:24:21.000Z</time>
        <extensions>
          <ns3:TrackPointExtension>
            <ns3:atemp>31.0</ns3:atemp>
            <ns3:hr>136</ns3:hr>
          </ns3:TrackPointExtension>
        </extensions>
      </trkpt>
      <trkpt lat="36.7665378190577030181884765625" lon="-118.46699262969195842742919921875">
        <ele>2313.199951171875</ele>
        <time>2021-06-24T21:24:27.000Z</time>
        <extensions>
          <ns3:TrackPointExtension>
            <ns3:atemp>31.0</ns3:atemp>
            <ns3:hr>135</ns3:hr>
          </ns3:TrackPointExtension>
        </extensions>
      </trkpt>
      <trkpt lat="36.76653371192514896392822265625" lon="-118.466954492032527923583984375">
        <ele>2313.800048828125</ele>
        <time>2021-06-24T21:24:31.000Z</time>
        <extensions>
          <ns3:TrackPointExtension>
            <ns3:atemp>31.0</ns3:atemp>
            <ns3:hr>136</ns3:hr>
          </ns3:TrackPointExtension>
        </extensions>
      </trkpt>
      <trkpt lat="36.76653371192514896392822265625" lon="-118.46693948842585086822509765625">
        <ele>2314</ele>
        <time>2021-06-24T21:24:33.000Z</time>
        <extensions>
          <ns3:TrackPointExtension>
            <ns3:atemp>31.0</ns3:atemp>
            <ns3:hr>136</ns3:hr>
          </ns3:TrackPointExtension>
        </extensions>
      </trkpt>
      <trkpt lat="36.7665301077067852020263671875" lon="-118.46691987477242946624755859375">
        <ele>2314.199951171875</ele>
        <time>2021-06-24T21:24:35.000Z</time>
        <extensions>
          <ns3:TrackPointExtension>
            <ns3:atemp>31.0</ns3:atemp>
            <ns3:hr>137</ns3:hr>
          </ns3:TrackPointExtension>
        </extensions>
      </trkpt>
      <trkpt lat="36.76652130670845508575439453125" lon="-118.46687478013336658477783203125">
        <ele>2314.199951171875</ele>
        <time>2021-06-24T21:24:39.000Z</time>
        <extensions>
          <ns3:TrackPointExtension>
            <ns3:atemp>31.0</ns3:atemp>
            <ns3:hr>137</ns3:hr>
          </ns3:TrackPointExtension>
        </extensions>
      </trkpt>
      <trkpt lat="36.7665059678256511688232421875" lon="-118.46686103381216526031494140625">
        <ele>2314.199951171875</ele>
        <time>2021-06-24T21:24:41.000Z</time>
        <extensions>
          <ns3:TrackPointExtension>
            <ns3:atemp>31.0</ns3:atemp>
            <ns3:hr>137</ns3:hr>
          </ns3:TrackPointExtension>
        </extensions>
      </trkpt>
      <trkpt lat="36.76641988568007946014404296875" lon="-118.466829769313335418701171875">
        <ele>2314</ele>
        <time>2021-06-24T21:24:47.000Z</time>
        <extensions>
          <ns3:TrackPointExtension>
            <ns3:atemp>31.0</ns3:atemp>
            <ns3:hr>134</ns3:hr>
          </ns3:TrackPointExtension>
        </extensions>
      </trkpt>
      <trkpt lat="36.766403205692768096923828125" lon="-118.4668319486081600189208984375">
        <ele>2313.800048828125</ele>
        <time>2021-06-24T21:24:49.000Z</time>
        <extensions>
          <ns3:TrackPointExtension>
            <ns3:atemp>31.0</ns3:atemp>
            <ns3:hr>133</ns3:hr>
          </ns3:TrackPointExtension>
        </extensions>
      </trkpt>
      <trkpt lat="36.76635568030178546905517578125" lon="-118.4668235667049884796142578125">
        <ele>2313</ele>
        <time>2021-06-24T21:24:53.000Z</time>
        <extensions>
          <ns3:TrackPointExtension>
            <ns3:atemp>31.0</ns3:atemp>
            <ns3:hr>133</ns3:hr>
          </ns3:TrackPointExtension>
        </extensions>
      </trkpt>
      <trkpt lat="36.7663359828293323516845703125" lon="-118.46682230941951274871826171875">
        <ele>2313</ele>
        <time>2021-06-24T21:24:56.000Z</time>
        <extensions>
          <ns3:TrackPointExtension>
            <ns3:atemp>32.0</ns3:atemp>
            <ns3:hr>132</ns3:hr>
          </ns3:TrackPointExtension>
        </extensions>
      </trkpt>
      <trkpt lat="36.76629960536956787109375" lon="-118.466800935566425323486328125">
        <ele>2313</ele>
        <time>2021-06-24T21:25:00.000Z</time>
        <extensions>
          <ns3:TrackPointExtension>
            <ns3:atemp>32.0</ns3:atemp>
            <ns3:hr>131</ns3:hr>
          </ns3:TrackPointExtension>
        </extensions>
      </trkpt>
      <trkpt lat="36.76628326065838336944580078125" lon="-118.46678291447460651397705078125">
        <ele>2313</ele>
        <time>2021-06-24T21:25:03.000Z</time>
        <extensions>
          <ns3:TrackPointExtension>
            <ns3:atemp>32.0</ns3:atemp>
            <ns3:hr>131</ns3:hr>
          </ns3:TrackPointExtension>
        </extensions>
      </trkpt>
      <trkpt lat="36.7662789858877658843994140625" lon="-118.466776795685291290283203125">
        <ele>2313</ele>
        <time>2021-06-24T21:25:04.000Z</time>
        <extensions>
          <ns3:TrackPointExtension>
            <ns3:atemp>32.0</ns3:atemp>
            <ns3:hr>133</ns3:hr>
          </ns3:TrackPointExtension>
        </extensions>
      </trkpt>
      <trkpt lat="36.7662726156413555145263671875" lon="-118.46676128916442394256591796875">
        <ele>2313.39990234375</ele>
        <time>2021-06-24T21:25:06.000Z</time>
        <extensions>
          <ns3:TrackPointExtension>
            <ns3:atemp>32.0</ns3:atemp>
            <ns3:hr>130</ns3:hr>
          </ns3:TrackPointExtension>
        </extensions>
      </trkpt>
      <trkpt lat="36.76624956540763378143310546875" lon="-118.46675097942352294921875">
        <ele>2313.60009765625</ele>
        <time>2021-06-24T21:25:09.000Z</time>
        <extensions>
          <ns3:TrackPointExtension>
            <ns3:atemp>32.0</ns3:atemp>
            <ns3:hr>130</ns3:hr>
          </ns3:TrackPointExtension>
        </extensions>
      </trkpt>
      <trkpt lat="36.766238920390605926513671875" lon="-118.4667394123971462249755859375">
        <ele>2314.39990234375</ele>
        <time>2021-06-24T21:25:11.000Z</time>
        <extensions>
          <ns3:TrackPointExtension>
            <ns3:atemp>32.0</ns3:atemp>
            <ns3:hr>128</ns3:hr>
          </ns3:TrackPointExtension>
        </extensions>
      </trkpt>
      <trkpt lat="36.7662338912487030029296875" lon="-118.46672792918980121612548828125">
        <ele>2314.60009765625</ele>
        <time>2021-06-24T21:25:13.000Z</time>
        <extensions>
          <ns3:TrackPointExtension>
            <ns3:atemp>32.0</ns3:atemp>
            <ns3:hr>123</ns3:hr>
          </ns3:TrackPointExtension>
        </extensions>
      </trkpt>
      <trkpt lat="36.76622659899294376373291015625" lon="-118.4666745364665985107421875">
        <ele>2315.39990234375</ele>
        <time>2021-06-24T21:25:21.000Z</time>
        <extensions>
          <ns3:TrackPointExtension>
            <ns3:atemp>32.0</ns3:atemp>
            <ns3:hr>123</ns3:hr>
          </ns3:TrackPointExtension>
        </extensions>
      </trkpt>
      <trkpt lat="36.7662377469241619110107421875" lon="-118.4666338004171848297119140625">
        <ele>2316.39990234375</ele>
        <time>2021-06-24T21:25:27.000Z</time>
        <extensions>
          <ns3:TrackPointExtension>
            <ns3:atemp>32.0</ns3:atemp>
            <ns3:hr>124</ns3:hr>
          </ns3:TrackPointExtension>
        </extensions>
      </trkpt>
      <trkpt lat="36.766246967017650604248046875" lon="-118.4666267596185207366943359375">
        <ele>2316.39990234375</ele>
        <time>2021-06-24T21:25:29.000Z</time>
        <extensions>
          <ns3:TrackPointExtension>
            <ns3:atemp>32.0</ns3:atemp>
            <ns3:hr>123</ns3:hr>
          </ns3:TrackPointExtension>
        </extensions>
      </trkpt>
      <trkpt lat="36.7662514932453632354736328125" lon="-118.466624915599822998046875">
        <ele>2316.39990234375</ele>
        <time>2021-06-24T21:25:30.000Z</time>
        <extensions>
          <ns3:TrackPointExtension>
            <ns3:atemp>32.0</ns3:atemp>
            <ns3:hr>123</ns3:hr>
          </ns3:TrackPointExtension>
        </extensions>
      </trkpt>
      <trkpt lat="36.7662776447832584381103515625" lon="-118.46661175601184368133544921875">
        <ele>2317.60009765625</ele>
        <time>2021-06-24T21:25:36.000Z</time>
        <extensions>
          <ns3:TrackPointExtension>
            <ns3:atemp>32.0</ns3:atemp>
            <ns3:hr>124</ns3:hr>
          </ns3:TrackPointExtension>
        </extensions>
      </trkpt>
      <trkpt lat="36.76627169363200664520263671875" lon="-118.4666006080806255340576171875">
        <ele>2318.199951171875</ele>
        <time>2021-06-24T21:25:39.000Z</time>
        <extensions>
          <ns3:TrackPointExtension>
            <ns3:atemp>32.0</ns3:atemp>
            <ns3:hr>124</ns3:hr>
          </ns3:TrackPointExtension>
        </extensions>
      </trkpt>
      <trkpt lat="36.76625442691147327423095703125" lon="-118.4665295295417308807373046875">
        <ele>2318.60009765625</ele>
        <time>2021-06-24T21:25:48.000Z</time>
        <extensions>
          <ns3:TrackPointExtension>
            <ns3:atemp>32.0</ns3:atemp>
            <ns3:hr>124</ns3:hr>
          </ns3:TrackPointExtension>
        </extensions>
      </trkpt>
      <trkpt lat="36.7662575282156467437744140625" lon="-118.466519303619861602783203125">
        <ele>2318.800048828125</ele>
        <time>2021-06-24T21:25:50.000Z</time>
        <extensions>
          <ns3:TrackPointExtension>
            <ns3:atemp>32.0</ns3:atemp>
            <ns3:hr>121</ns3:hr>
          </ns3:TrackPointExtension>
        </extensions>
      </trkpt>
      <trkpt lat="36.76625861786305904388427734375" lon="-118.46652022562921047210693359375">
        <ele>2318.800048828125</ele>
        <time>2021-06-24T21:25:51.000Z</time>
        <extensions>
          <ns3:TrackPointExtension>
            <ns3:atemp>32.0</ns3:atemp>
            <ns3:hr>124</ns3:hr>
          </ns3:TrackPointExtension>
        </extensions>
      </trkpt>
      <trkpt lat="36.76626180298626422882080078125" lon="-118.466506898403167724609375">
        <ele>2319.199951171875</ele>
        <time>2021-06-24T21:25:55.000Z</time>
        <extensions>
          <ns3:TrackPointExtension>
            <ns3:atemp>32.0</ns3:atemp>
            <ns3:hr>123</ns3:hr>
          </ns3:TrackPointExtension>
        </extensions>
      </trkpt>
      <trkpt lat="36.76628124900162220001220703125" lon="-118.4664886258542537689208984375">
        <ele>2319.800048828125</ele>
        <time>2021-06-24T21:26:00.000Z</time>
        <extensions>
          <ns3:TrackPointExtension>
            <ns3:atemp>32.0</ns3:atemp>
            <ns3:hr>125</ns3:hr>
          </ns3:TrackPointExtension>
        </extensions>
      </trkpt>
      <trkpt lat="36.76629482768476009368896484375" lon="-118.46645057201385498046875">
        <ele>2320.60009765625</ele>
        <time>2021-06-24T21:26:04.000Z</time>
        <extensions>
          <ns3:TrackPointExtension>
            <ns3:atemp>32.0</ns3:atemp>
            <ns3:hr>125</ns3:hr>
          </ns3:TrackPointExtension>
        </extensions>
      </trkpt>
      <trkpt lat="36.7662997730076313018798828125" lon="-118.4664383344352245330810546875">
        <ele>2321.60009765625</ele>
        <time>2021-06-24T21:26:07.000Z</time>
        <extensions>
          <ns3:TrackPointExtension>
            <ns3:atemp>32.0</ns3:atemp>
            <ns3:hr>128</ns3:hr>
          </ns3:TrackPointExtension>
        </extensions>
      </trkpt>
      <trkpt lat="36.7663064785301685333251953125" lon="-118.46642266027629375457763671875">
        <ele>2322.199951171875</ele>
        <time>2021-06-24T21:26:12.000Z</time>
        <extensions>
          <ns3:TrackPointExtension>
            <ns3:atemp>32.0</ns3:atemp>
            <ns3:hr>130</ns3:hr>
          </ns3:TrackPointExtension>
        </extensions>
      </trkpt>
      <trkpt lat="36.76630220375955104827880859375" lon="-118.46641913987696170806884765625">
        <ele>2322.60009765625</ele>
        <time>2021-06-24T21:26:13.000Z</time>
        <extensions>
          <ns3:TrackPointExtension>
            <ns3:atemp>32.0</ns3:atemp>
            <ns3:hr>130</ns3:hr>
          </ns3:TrackPointExtension>
        </extensions>
      </trkpt>
      <trkpt lat="36.76631025038659572601318359375" lon="-118.4664004482328891754150390625">
        <ele>2323.60009765625</ele>
        <time>2021-06-24T21:26:18.000Z</time>
        <extensions>
          <ns3:TrackPointExtension>
            <ns3:atemp>32.0</ns3:atemp>
            <ns3:hr>129</ns3:hr>
          </ns3:TrackPointExtension>
        </extensions>
      </trkpt>
      <trkpt lat="36.766311340034008026123046875" lon="-118.46639080904424190521240234375">
        <ele>2323.800048828125</ele>
        <time>2021-06-24T21:26:20.000Z</time>
        <extensions>
          <ns3:TrackPointExtension>
            <ns3:atemp>32.0</ns3:atemp>
            <ns3:hr>129</ns3:hr>
          </ns3:TrackPointExtension>
        </extensions>
      </trkpt>
      <trkpt lat="36.766293235123157501220703125" lon="-118.46634370274841785430908203125">
        <ele>2324.199951171875</ele>
        <time>2021-06-24T21:26:26.000Z</time>
        <extensions>
          <ns3:TrackPointExtension>
            <ns3:atemp>32.0</ns3:atemp>
            <ns3:hr>130</ns3:hr>
          </ns3:TrackPointExtension>
        </extensions>
      </trkpt>
      <trkpt lat="36.76626733504235744476318359375" lon="-118.466324172914028167724609375">
        <ele>2324.800048828125</ele>
        <time>2021-06-24T21:26:29.000Z</time>
        <extensions>
          <ns3:TrackPointExtension>
            <ns3:atemp>32.0</ns3:atemp>
            <ns3:hr>130</ns3:hr>
          </ns3:TrackPointExtension>
        </extensions>
      </trkpt>
      <trkpt lat="36.76624118350446224212646484375" lon="-118.46629659645259380340576171875">
        <ele>2325.199951171875</ele>
        <time>2021-06-24T21:26:33.000Z</time>
        <extensions>
          <ns3:TrackPointExtension>
            <ns3:atemp>32.0</ns3:atemp>
            <ns3:hr>130</ns3:hr>
          </ns3:TrackPointExtension>
        </extensions>
      </trkpt>
      <trkpt lat="36.7662075720727443695068359375" lon="-118.46624177880585193634033203125">
        <ele>2324.60009765625</ele>
        <time>2021-06-24T21:26:41.000Z</time>
        <extensions>
          <ns3:TrackPointExtension>
            <ns3:atemp>31.0</ns3:atemp>
            <ns3:hr>129</ns3:hr>
          </ns3:TrackPointExtension>
        </extensions>
      </trkpt>
      <trkpt lat="36.76617362536489963531494140625" lon="-118.46617162227630615234375">
        <ele>2324</ele>
        <time>2021-06-24T21:26:47.000Z</time>
        <extensions>
          <ns3:TrackPointExtension>
            <ns3:atemp>31.0</ns3:atemp>
            <ns3:hr>131</ns3:hr>
          </ns3:TrackPointExtension>
        </extensions>
      </trkpt>
      <trkpt lat="36.76618284545838832855224609375" lon="-118.4660986997187137603759765625">
        <ele>2324.199951171875</ele>
        <time>2021-06-24T21:26:54.000Z</time>
        <extensions>
          <ns3:TrackPointExtension>
            <ns3:atemp>31.0</ns3:atemp>
            <ns3:hr>130</ns3:hr>
          </ns3:TrackPointExtension>
        </extensions>
      </trkpt>
      <trkpt lat="36.7661773972213268280029296875" lon="-118.466002307832241058349609375">
        <ele>2324.199951171875</ele>
        <time>2021-06-24T21:27:00.000Z</time>
        <extensions>
          <ns3:TrackPointExtension>
            <ns3:atemp>31.0</ns3:atemp>
            <ns3:hr>129</ns3:hr>
          </ns3:TrackPointExtension>
        </extensions>
      </trkpt>
      <trkpt lat="36.766185276210308074951171875" lon="-118.46598453819751739501953125">
        <ele>2324.39990234375</ele>
        <time>2021-06-24T21:27:03.000Z</time>
        <extensions>
          <ns3:TrackPointExtension>
            <ns3:atemp>31.0</ns3:atemp>
            <ns3:hr>125</ns3:hr>
          </ns3:TrackPointExtension>
        </extensions>
      </trkpt>
      <trkpt lat="36.76616809330880641937255859375" lon="-118.4659516811370849609375">
        <ele>2325.39990234375</ele>
        <time>2021-06-24T21:27:07.000Z</time>
        <extensions>
          <ns3:TrackPointExtension>
            <ns3:atemp>31.0</ns3:atemp>
            <ns3:hr>126</ns3:hr>
          </ns3:TrackPointExtension>
        </extensions>
      </trkpt>
      <trkpt lat="36.7661710269749164581298828125" lon="-118.4659317322075366973876953125">
        <ele>2326</ele>
        <time>2021-06-24T21:27:10.000Z</time>
        <extensions>
          <ns3:TrackPointExtension>
            <ns3:atemp>31.0</ns3:atemp>
            <ns3:hr>123</ns3:hr>
          </ns3:TrackPointExtension>
        </extensions>
      </trkpt>
      <trkpt lat="36.76616691984236240386962890625" lon="-118.4659101068973541259765625">
        <ele>2326.199951171875</ele>
        <time>2021-06-24T21:27:13.000Z</time>
        <extensions>
          <ns3:TrackPointExtension>
            <ns3:atemp>31.0</ns3:atemp>
            <ns3:hr>119</ns3:hr>
          </ns3:TrackPointExtension>
        </extensions>
      </trkpt>
      <trkpt lat="36.76616976968944072723388671875" lon="-118.46590004861354827880859375">
        <ele>2326.199951171875</ele>
        <time>2021-06-24T21:27:15.000Z</time>
        <extensions>
          <ns3:TrackPointExtension>
            <ns3:atemp>31.0</ns3:atemp>
            <ns3:hr>118</ns3:hr>
          </ns3:TrackPointExtension>
        </extensions>
      </trkpt>
      <trkpt lat="36.76617127843201160430908203125" lon="-118.46589191816747188568115234375">
        <ele>2327.199951171875</ele>
        <time>2021-06-24T21:27:16.000Z</time>
        <extensions>
          <ns3:TrackPointExtension>
            <ns3:atemp>31.0</ns3:atemp>
            <ns3:hr>118</ns3:hr>
          </ns3:TrackPointExtension>
        </extensions>
      </trkpt>
      <trkpt lat="36.7661981843411922454833984375" lon="-118.4658891521394252777099609375">
        <ele>2327.60009765625</ele>
        <time>2021-06-24T21:27:20.000Z</time>
        <extensions>
          <ns3:TrackPointExtension>
            <ns3:atemp>31.0</ns3:atemp>
            <ns3:hr>119</ns3:hr>
          </ns3:TrackPointExtension>
        </extensions>
      </trkpt>
      <trkpt lat="36.76616591401398181915283203125" lon="-118.465848751366138458251953125">
        <ele>2328.199951171875</ele>
        <time>2021-06-24T21:27:26.000Z</time>
        <extensions>
          <ns3:TrackPointExtension>
            <ns3:atemp>31.0</ns3:atemp>
            <ns3:hr>122</ns3:hr>
          </ns3:TrackPointExtension>
        </extensions>
      </trkpt>
      <trkpt lat="36.76614898256957530975341796875" lon="-118.46584347076714038848876953125">
        <ele>2328.199951171875</ele>
        <time>2021-06-24T21:27:27.000Z</time>
        <extensions>
          <ns3:TrackPointExtension>
            <ns3:atemp>31.0</ns3:atemp>
            <ns3:hr>122</ns3:hr>
          </ns3:TrackPointExtension>
        </extensions>
      </trkpt>
      <trkpt lat="36.76613691262900829315185546875" lon="-118.4658385254442691802978515625">
        <ele>2328.39990234375</ele>
        <time>2021-06-24T21:27:28.000Z</time>
        <extensions>
          <ns3:TrackPointExtension>
            <ns3:atemp>31.0</ns3:atemp>
            <ns3:hr>122</ns3:hr>
          </ns3:TrackPointExtension>
        </extensions>
      </trkpt>
      <trkpt lat="36.76611059345304965972900390625" lon="-118.46574841998517513275146484375">
        <ele>2329.199951171875</ele>
        <time>2021-06-24T21:27:35.000Z</time>
        <extensions>
          <ns3:TrackPointExtension>
            <ns3:atemp>31.0</ns3:atemp>
            <ns3:hr>122</ns3:hr>
          </ns3:TrackPointExtension>
        </extensions>
      </trkpt>
      <trkpt lat="36.76610606722533702850341796875" lon="-118.4657366015017032623291015625">
        <ele>2329.39990234375</ele>
        <time>2021-06-24T21:27:36.000Z</time>
        <extensions>
          <ns3:TrackPointExtension>
            <ns3:atemp>31.0</ns3:atemp>
            <ns3:hr>122</ns3:hr>
          </ns3:TrackPointExtension>
        </extensions>
      </trkpt>
      <trkpt lat="36.76605544053018093109130859375" lon="-118.46566728316247463226318359375">
        <ele>2329.800048828125</ele>
        <time>2021-06-24T21:27:43.000Z</time>
        <extensions>
          <ns3:TrackPointExtension>
            <ns3:atemp>31.0</ns3:atemp>
            <ns3:hr>122</ns3:hr>
          </ns3:TrackPointExtension>
        </extensions>
      </trkpt>
      <trkpt lat="36.7660432867705821990966796875" lon="-118.46564926207065582275390625">
        <ele>2329.60009765625</ele>
        <time>2021-06-24T21:27:45.000Z</time>
        <extensions>
          <ns3:TrackPointExtension>
            <ns3:atemp>31.0</ns3:atemp>
            <ns3:hr>119</ns3:hr>
          </ns3:TrackPointExtension>
        </extensions>
      </trkpt>
      <trkpt lat="36.76601353101432323455810546875" lon="-118.465597964823246002197265625">
        <ele>2329.60009765625</ele>
        <time>2021-06-24T21:27:49.000Z</time>
        <extensions>
          <ns3:TrackPointExtension>
            <ns3:atemp>31.0</ns3:atemp>
            <ns3:hr>121</ns3:hr>
          </ns3:TrackPointExtension>
        </extensions>
      </trkpt>
      <trkpt lat="36.7659839428961277008056640625" lon="-118.46555538475513458251953125">
        <ele>2329.800048828125</ele>
        <time>2021-06-24T21:27:55.000Z</time>
        <extensions>
          <ns3:TrackPointExtension>
            <ns3:atemp>31.0</ns3:atemp>
            <ns3:hr>122</ns3:hr>
          </ns3:TrackPointExtension>
        </extensions>
      </trkpt>
      <trkpt lat="36.765964664518833160400390625" lon="-118.465518839657306671142578125">
        <ele>2330.39990234375</ele>
        <time>2021-06-24T21:28:01.000Z</time>
        <extensions>
          <ns3:TrackPointExtension>
            <ns3:atemp>31.0</ns3:atemp>
            <ns3:hr>121</ns3:hr>
          </ns3:TrackPointExtension>
        </extensions>
      </trkpt>
      <trkpt lat="36.765953935682773590087890625" lon="-118.4654992260038852691650390625">
        <ele>2330.39990234375</ele>
        <time>2021-06-24T21:28:03.000Z</time>
        <extensions>
          <ns3:TrackPointExtension>
            <ns3:atemp>31.0</ns3:atemp>
            <ns3:hr>121</ns3:hr>
          </ns3:TrackPointExtension>
        </extensions>
      </trkpt>
      <trkpt lat="36.765963993966579437255859375" lon="-118.46547667868435382843017578125">
        <ele>2330.60009765625</ele>
        <time>2021-06-24T21:28:09.000Z</time>
        <extensions>
          <ns3:TrackPointExtension>
            <ns3:atemp>31.0</ns3:atemp>
            <ns3:hr>121</ns3:hr>
          </ns3:TrackPointExtension>
        </extensions>
      </trkpt>
      <trkpt lat="36.7659799195826053619384765625" lon="-118.46547181718051433563232421875">
        <ele>2330.39990234375</ele>
        <time>2021-06-24T21:28:16.000Z</time>
        <extensions>
          <ns3:TrackPointExtension>
            <ns3:atemp>31.0</ns3:atemp>
            <ns3:hr>121</ns3:hr>
          </ns3:TrackPointExtension>
        </extensions>
      </trkpt>
      <trkpt lat="36.7659836076200008392333984375" lon="-118.465458489954471588134765625">
        <ele>2330.60009765625</ele>
        <time>2021-06-24T21:28:21.000Z</time>
        <extensions>
          <ns3:TrackPointExtension>
            <ns3:atemp>31.0</ns3:atemp>
            <ns3:hr>118</ns3:hr>
          </ns3:TrackPointExtension>
        </extensions>
      </trkpt>
      <trkpt lat="36.76598645746707916259765625" lon="-118.465437702834606170654296875">
        <ele>2330.39990234375</ele>
        <time>2021-06-24T21:28:30.000Z</time>
        <extensions>
          <ns3:TrackPointExtension>
            <ns3:atemp>31.0</ns3:atemp>
            <ns3:hr>118</ns3:hr>
          </ns3:TrackPointExtension>
        </extensions>
      </trkpt>
      <trkpt lat="36.76598645746707916259765625" lon="-118.465437702834606170654296875">
        <ele>2330.199951171875</ele>
        <time>2021-06-24T21:28:32.000Z</time>
        <extensions>
          <ns3:TrackPointExtension>
            <ns3:atemp>31.0</ns3:atemp>
            <ns3:hr>115</ns3:hr>
          </ns3:TrackPointExtension>
        </extensions>
      </trkpt>
      <trkpt lat="36.765984781086444854736328125" lon="-118.465437702834606170654296875">
        <ele>2330.199951171875</ele>
        <time>2021-06-24T21:28:36.000Z</time>
        <extensions>
          <ns3:TrackPointExtension>
            <ns3:atemp>31.0</ns3:atemp>
            <ns3:hr>112</ns3:hr>
          </ns3:TrackPointExtension>
        </extensions>
      </trkpt>
      <trkpt lat="36.76597514189779758453369140625" lon="-118.46541951410472393035888671875">
        <ele>2330.39990234375</ele>
        <time>2021-06-24T21:28:45.000Z</time>
        <extensions>
          <ns3:TrackPointExtension>
            <ns3:atemp>31.0</ns3:atemp>
            <ns3:hr>109</ns3:hr>
          </ns3:TrackPointExtension>
        </extensions>
      </trkpt>
      <trkpt lat="36.7659715376794338226318359375" lon="-118.4654023312032222747802734375">
        <ele>2330.800048828125</ele>
        <time>2021-06-24T21:28:54.000Z</time>
        <extensions>
          <ns3:TrackPointExtension>
            <ns3:atemp>31.0</ns3:atemp>
            <ns3:hr>106</ns3:hr>
          </ns3:TrackPointExtension>
        </extensions>
      </trkpt>
      <trkpt lat="36.76597262732684612274169921875" lon="-118.4653978049755096435546875">
        <ele>2331</ele>
        <time>2021-06-24T21:29:02.000Z</time>
        <extensions>
          <ns3:TrackPointExtension>
            <ns3:atemp>31.0</ns3:atemp>
            <ns3:hr>103</ns3:hr>
          </ns3:TrackPointExtension>
        </extensions>
      </trkpt>
      <trkpt lat="36.76597346551716327667236328125" lon="-118.4653978049755096435546875">
        <ele>2331</ele>
        <time>2021-06-24T21:29:05.000Z</time>
        <extensions>
          <ns3:TrackPointExtension>
            <ns3:atemp>31.0</ns3:atemp>
            <ns3:hr>102</ns3:hr>
          </ns3:TrackPointExtension>
        </extensions>
      </trkpt>
      <trkpt lat="36.76597438752651214599609375" lon="-118.4653993137180805206298828125">
        <ele>2331</ele>
        <time>2021-06-24T21:29:10.000Z</time>
        <extensions>
          <ns3:TrackPointExtension>
            <ns3:atemp>31.0</ns3:atemp>
            <ns3:hr>98</ns3:hr>
          </ns3:TrackPointExtension>
        </extensions>
      </trkpt>
      <trkpt lat="36.76597463898360729217529296875" lon="-118.46540241502225399017333984375">
        <ele>2331</ele>
        <time>2021-06-24T21:29:13.000Z</time>
        <extensions>
          <ns3:TrackPointExtension>
            <ns3:atemp>31.0</ns3:atemp>
            <ns3:hr>95</ns3:hr>
          </ns3:TrackPointExtension>
        </extensions>
      </trkpt>
      <trkpt lat="36.7659755609929561614990234375" lon="-118.46540761180222034454345703125">
        <ele>2330.800048828125</ele>
        <time>2021-06-24T21:29:16.000Z</time>
        <extensions>
          <ns3:TrackPointExtension>
            <ns3:atemp>31.0</ns3:atemp>
            <ns3:hr>92</ns3:hr>
          </ns3:TrackPointExtension>
        </extensions>
      </trkpt>
      <trkpt lat="36.76597296260297298431396484375" lon="-118.4654304943978786468505859375">
        <ele>2330.60009765625</ele>
        <time>2021-06-24T21:29:29.000Z</time>
        <extensions>
          <ns3:TrackPointExtension>
            <ns3:atemp>31.0</ns3:atemp>
            <ns3:hr>94</ns3:hr>
          </ns3:TrackPointExtension>
        </extensions>
      </trkpt>
      <trkpt lat="36.76597296260297298431396484375" lon="-118.46544700674712657928466796875">
        <ele>2330.60009765625</ele>
        <time>2021-06-24T21:29:37.000Z</time>
        <extensions>
          <ns3:TrackPointExtension>
            <ns3:atemp>30.0</ns3:atemp>
            <ns3:hr>97</ns3:hr>
          </ns3:TrackPointExtension>
        </extensions>
      </trkpt>
      <trkpt lat="36.7659245990216732025146484375" lon="-118.4654479287564754486083984375">
        <ele>2330.60009765625</ele>
        <time>2021-06-24T21:30:00.000Z</time>
        <extensions>
          <ns3:TrackPointExtension>
            <ns3:atemp>31.0</ns3:atemp>
            <ns3:hr>94</ns3:hr>
          </ns3:TrackPointExtension>
        </extensions>
      </trkpt>
      <trkpt lat="36.76592451520264148712158203125" lon="-118.46544784493744373321533203125">
        <ele>2330.60009765625</ele>
        <time>2021-06-24T21:30:06.000Z</time>
        <extensions>
          <ns3:TrackPointExtension>
            <ns3:atemp>31.0</ns3:atemp>
            <ns3:hr>91</ns3:hr>
          </ns3:TrackPointExtension>
        </extensions>
      </trkpt>
      <trkpt lat="36.7659249342978000640869140625" lon="-118.4654487669467926025390625">
        <ele>2330.60009765625</ele>
        <time>2021-06-24T21:30:12.000Z</time>
        <extensions>
          <ns3:TrackPointExtension>
            <ns3:atemp>31.0</ns3:atemp>
            <ns3:hr>88</ns3:hr>
          </ns3:TrackPointExtension>
        </extensions>
      </trkpt>
      <trkpt lat="36.7659839428961277008056640625" lon="-118.46537861041724681854248046875">
        <ele>2330.60009765625</ele>
        <time>2021-06-24T21:31:21.000Z</time>
        <extensions>
          <ns3:TrackPointExtension>
            <ns3:atemp>31.0</ns3:atemp>
            <ns3:hr>86</ns3:hr>
          </ns3:TrackPointExtension>
        </extensions>
      </trkpt>
      <trkpt lat="36.76603197120130062103271484375" lon="-118.46537542529404163360595703125">
        <ele>2330.60009765625</ele>
        <time>2021-06-24T21:31:23.000Z</time>
        <extensions>
          <ns3:TrackPointExtension>
            <ns3:atemp>31.0</ns3:atemp>
            <ns3:hr>86</ns3:hr>
          </ns3:TrackPointExtension>
        </extensions>
      </trkpt>
      <trkpt lat="36.7660275287926197052001953125" lon="-118.46540459431707859039306640625">
        <ele>2330.60009765625</ele>
        <time>2021-06-24T21:31:32.000Z</time>
        <extensions>
          <ns3:TrackPointExtension>
            <ns3:atemp>31.0</ns3:atemp>
            <ns3:hr>90</ns3:hr>
          </ns3:TrackPointExtension>
        </extensions>
      </trkpt>
      <trkpt lat="36.76601051352918148040771484375" lon="-118.46540794707834720611572265625">
        <ele>2330.60009765625</ele>
        <time>2021-06-24T21:31:34.000Z</time>
        <extensions>
          <ns3:TrackPointExtension>
            <ns3:atemp>31.0</ns3:atemp>
            <ns3:hr>90</ns3:hr>
          </ns3:TrackPointExtension>
        </extensions>
      </trkpt>
      <trkpt lat="36.765961311757564544677734375" lon="-118.46540224738419055938720703125">
        <ele>2330.60009765625</ele>
        <time>2021-06-24T21:31:36.000Z</time>
        <extensions>
          <ns3:TrackPointExtension>
            <ns3:atemp>31.0</ns3:atemp>
            <ns3:hr>89</ns3:hr>
          </ns3:TrackPointExtension>
        </extensions>
      </trkpt>
      <trkpt lat="36.765963993966579437255859375" lon="-118.4653932787477970123291015625">
        <ele>2330.60009765625</ele>
        <time>2021-06-24T21:31:38.000Z</time>
        <extensions>
          <ns3:TrackPointExtension>
            <ns3:atemp>31.0</ns3:atemp>
            <ns3:hr>89</ns3:hr>
          </ns3:TrackPointExtension>
        </extensions>
      </trkpt>
      <trkpt lat="36.7659822665154933929443359375" lon="-118.46538506448268890380859375">
        <ele>2330.60009765625</ele>
        <time>2021-06-24T21:31:41.000Z</time>
        <extensions>
          <ns3:TrackPointExtension>
            <ns3:atemp>31.0</ns3:atemp>
            <ns3:hr>88</ns3:hr>
          </ns3:TrackPointExtension>
        </extensions>
      </trkpt>
      <trkpt lat="36.76598109304904937744140625" lon="-118.4654434025287628173828125">
        <ele>2330.60009765625</ele>
        <time>2021-06-24T21:31:47.000Z</time>
        <extensions>
          <ns3:TrackPointExtension>
            <ns3:atemp>31.0</ns3:atemp>
            <ns3:hr>87</ns3:hr>
          </ns3:TrackPointExtension>
        </extensions>
      </trkpt>
      <trkpt lat="36.765977405011653900146484375" lon="-118.4654407203197479248046875">
        <ele>2330.60009765625</ele>
        <time>2021-06-24T21:31:51.000Z</time>
        <extensions>
          <ns3:TrackPointExtension>
            <ns3:atemp>31.0</ns3:atemp>
            <ns3:hr>84</ns3:hr>
          </ns3:TrackPointExtension>
        </extensions>
      </trkpt>
      <trkpt lat="36.76595033146440982818603515625" lon="-118.46543577499687671661376953125">
        <ele>2330.60009765625</ele>
        <time>2021-06-24T21:31:56.000Z</time>
        <extensions>
          <ns3:TrackPointExtension>
            <ns3:atemp>31.0</ns3:atemp>
            <ns3:hr>84</ns3:hr>
          </ns3:TrackPointExtension>
        </extensions>
      </trkpt>
      <trkpt lat="36.766017973423004150390625" lon="-118.4654120542109012603759765625">
        <ele>2330.60009765625</ele>
        <time>2021-06-24T21:32:06.000Z</time>
        <extensions>
          <ns3:TrackPointExtension>
            <ns3:atemp>31.0</ns3:atemp>
            <ns3:hr>84</ns3:hr>
          </ns3:TrackPointExtension>
        </extensions>
      </trkpt>
      <trkpt lat="36.76596189849078655242919921875" lon="-118.46541398204863071441650390625">
        <ele>2330.60009765625</ele>
        <time>2021-06-24T21:32:11.000Z</time>
        <extensions>
          <ns3:TrackPointExtension>
            <ns3:atemp>31.0</ns3:atemp>
            <ns3:hr>84</ns3:hr>
          </ns3:TrackPointExtension>
        </extensions>
      </trkpt>
      <trkpt lat="36.765997521579265594482421875" lon="-118.46541113220155239105224609375">
        <ele>2330.60009765625</ele>
        <time>2021-06-24T21:32:14.000Z</time>
        <extensions>
          <ns3:TrackPointExtension>
            <ns3:atemp>31.0</ns3:atemp>
            <ns3:hr>84</ns3:hr>
          </ns3:TrackPointExtension>
        </extensions>
      </trkpt>
      <trkpt lat="36.76597296260297298431396484375" lon="-118.46544197760522365570068359375">
        <ele>2330.60009765625</ele>
        <time>2021-06-24T21:32:18.000Z</time>
        <extensions>
          <ns3:TrackPointExtension>
            <ns3:atemp>31.0</ns3:atemp>
            <ns3:hr>87</ns3:hr>
          </ns3:TrackPointExtension>
        </extensions>
      </trkpt>
      <trkpt lat="36.76593172363936901092529296875" lon="-118.46544407308101654052734375">
        <ele>2330.60009765625</ele>
        <time>2021-06-24T21:32:23.000Z</time>
        <extensions>
          <ns3:TrackPointExtension>
            <ns3:atemp>31.0</ns3:atemp>
            <ns3:hr>87</ns3:hr>
          </ns3:TrackPointExtension>
        </extensions>
      </trkpt>
      <trkpt lat="36.7659457214176654815673828125" lon="-118.46544700674712657928466796875">
        <ele>2330.60009765625</ele>
        <time>2021-06-24T21:32:42.000Z</time>
        <extensions>
          <ns3:TrackPointExtension>
            <ns3:atemp>31.0</ns3:atemp>
            <ns3:hr>90</ns3:hr>
          </ns3:TrackPointExtension>
        </extensions>
      </trkpt>
      <trkpt lat="36.76595686934888362884521484375" lon="-118.46545136533677577972412109375">
        <ele>2330.60009765625</ele>
        <time>2021-06-24T21:33:05.000Z</time>
        <extensions>
          <ns3:TrackPointExtension>
            <ns3:atemp>31.0</ns3:atemp>
            <ns3:hr>87</ns3:hr>
          </ns3:TrackPointExtension>
        </extensions>
      </trkpt>
      <trkpt lat="36.7659631557762622833251953125" lon="-118.46544097177684307098388671875">
        <ele>2330.60009765625</ele>
        <time>2021-06-24T21:33:08.000Z</time>
        <extensions>
          <ns3:TrackPointExtension>
            <ns3:atemp>31.0</ns3:atemp>
            <ns3:hr>84</ns3:hr>
          </ns3:TrackPointExtension>
        </extensions>
      </trkpt>
      <trkpt lat="36.76597128622233867645263671875" lon="-118.4654311649501323699951171875">
        <ele>2330.60009765625</ele>
        <time>2021-06-24T21:33:12.000Z</time>
        <extensions>
          <ns3:TrackPointExtension>
            <ns3:atemp>31.0</ns3:atemp>
            <ns3:hr>81</ns3:hr>
          </ns3:TrackPointExtension>
        </extensions>
      </trkpt>
      <trkpt lat="36.76594848744571208953857421875" lon="-118.4654157422482967376708984375">
        <ele>2330.60009765625</ele>
        <time>2021-06-24T21:33:56.000Z</time>
        <extensions>
          <ns3:TrackPointExtension>
            <ns3:atemp>32.0</ns3:atemp>
            <ns3:hr>84</ns3:hr>
          </ns3:TrackPointExtension>
        </extensions>
      </trkpt>
      <trkpt lat="36.76594848744571208953857421875" lon="-118.4654177539050579071044921875">
        <ele>2330.60009765625</ele>
        <time>2021-06-24T21:34:00.000Z</time>
        <extensions>
          <ns3:TrackPointExtension>
            <ns3:atemp>32.0</ns3:atemp>
            <ns3:hr>84</ns3:hr>
          </ns3:TrackPointExtension>
        </extensions>
      </trkpt>
      <trkpt lat="36.76593826152384281158447265625" lon="-118.4654180891811847686767578125">
        <ele>2330.60009765625</ele>
        <time>2021-06-24T21:34:05.000Z</time>
        <extensions>
          <ns3:TrackPointExtension>
            <ns3:atemp>32.0</ns3:atemp>
            <ns3:hr>81</ns3:hr>
          </ns3:TrackPointExtension>
        </extensions>
      </trkpt>
      <trkpt lat="36.76593692041933536529541015625" lon="-118.46542035229504108428955078125">
        <ele>2330.60009765625</ele>
        <time>2021-06-24T21:34:11.000Z</time>
        <extensions>
          <ns3:TrackPointExtension>
            <ns3:atemp>32.0</ns3:atemp>
            <ns3:hr>78</ns3:hr>
          </ns3:TrackPointExtension>
        </extensions>
      </trkpt>
      <trkpt lat="36.765990816056728363037109375" lon="-118.46543996594846248626708984375">
        <ele>2330.60009765625</ele>
        <time>2021-06-24T21:34:32.000Z</time>
        <extensions>
          <ns3:TrackPointExtension>
            <ns3:atemp>32.0</ns3:atemp>
            <ns3:hr>75</ns3:hr>
          </ns3:TrackPointExtension>
        </extensions>
      </trkpt>
      <trkpt lat="36.76603230647742748260498046875" lon="-118.46547634340822696685791015625">
        <ele>2330.60009765625</ele>
        <time>2021-06-24T21:34:49.000Z</time>
        <extensions>
          <ns3:TrackPointExtension>
            <ns3:atemp>31.0</ns3:atemp>
            <ns3:hr>74</ns3:hr>
          </ns3:TrackPointExtension>
        </extensions>
      </trkpt>
      <trkpt lat="36.76598134450614452362060546875" lon="-118.4655173309147357940673828125">
        <ele>2330.60009765625</ele>
        <time>2021-06-24T21:34:55.000Z</time>
        <extensions>
          <ns3:TrackPointExtension>
            <ns3:atemp>31.0</ns3:atemp>
            <ns3:hr>72</ns3:hr>
          </ns3:TrackPointExtension>
        </extensions>
      </trkpt>
      <trkpt lat="36.7659826017916202545166015625" lon="-118.4655086137354373931884765625">
        <ele>2330.60009765625</ele>
        <time>2021-06-24T21:35:01.000Z</time>
        <extensions>
          <ns3:TrackPointExtension>
            <ns3:atemp>31.0</ns3:atemp>
            <ns3:hr>73</ns3:hr>
          </ns3:TrackPointExtension>
        </extensions>
      </trkpt>
      <trkpt lat="36.76599307917058467864990234375" lon="-118.4654891677200794219970703125">
        <ele>2330.60009765625</ele>
        <time>2021-06-24T21:35:09.000Z</time>
        <extensions>
          <ns3:TrackPointExtension>
            <ns3:atemp>31.0</ns3:atemp>
            <ns3:hr>73</ns3:hr>
          </ns3:TrackPointExtension>
        </extensions>
      </trkpt>
      <trkpt lat="36.76598603837192058563232421875" lon="-118.465479947626590728759765625">
        <ele>2330.60009765625</ele>
        <time>2021-06-24T21:35:18.000Z</time>
        <extensions>
          <ns3:TrackPointExtension>
            <ns3:atemp>31.0</ns3:atemp>
            <ns3:hr>74</ns3:hr>
          </ns3:TrackPointExtension>
        </extensions>
      </trkpt>
      <trkpt lat="36.765976734459400177001953125" lon="-118.46547097899019718170166015625">
        <ele>2330.60009765625</ele>
        <time>2021-06-24T21:35:20.000Z</time>
        <extensions>
          <ns3:TrackPointExtension>
            <ns3:atemp>31.0</ns3:atemp>
            <ns3:hr>78</ns3:hr>
          </ns3:TrackPointExtension>
        </extensions>
      </trkpt>
      <trkpt lat="36.76597614772617816925048828125" lon="-118.46546611748635768890380859375">
        <ele>2330.60009765625</ele>
        <time>2021-06-24T21:35:21.000Z</time>
        <extensions>
          <ns3:TrackPointExtension>
            <ns3:atemp>31.0</ns3:atemp>
            <ns3:hr>80</ns3:hr>
          </ns3:TrackPointExtension>
        </extensions>
      </trkpt>
      <trkpt lat="36.76597614772617816925048828125" lon="-118.46546611748635768890380859375">
        <ele>2330.60009765625</ele>
        <time>2021-06-24T21:35:23.000Z</time>
        <extensions>
          <ns3:TrackPointExtension>
            <ns3:atemp>31.0</ns3:atemp>
            <ns3:hr>83</ns3:hr>
          </ns3:TrackPointExtension>
        </extensions>
      </trkpt>
      <trkpt lat="36.76597614772617816925048828125" lon="-118.46546611748635768890380859375">
        <ele>2330.60009765625</ele>
        <time>2021-06-24T21:35:27.000Z</time>
        <extensions>
          <ns3:TrackPointExtension>
            <ns3:atemp>31.0</ns3:atemp>
            <ns3:hr>86</ns3:hr>
          </ns3:TrackPointExtension>
        </extensions>
      </trkpt>
      <trkpt lat="36.76597614772617816925048828125" lon="-118.46546611748635768890380859375">
        <ele>2330.60009765625</ele>
        <time>2021-06-24T21:35:29.000Z</time>
        <extensions>
          <ns3:TrackPointExtension>
            <ns3:atemp>31.0</ns3:atemp>
            <ns3:hr>83</ns3:hr>
          </ns3:TrackPointExtension>
        </extensions>
      </trkpt>
      <trkpt lat="36.76597614772617816925048828125" lon="-118.46546611748635768890380859375">
        <ele>2330.60009765625</ele>
        <time>2021-06-24T21:35:31.000Z</time>
        <extensions>
          <ns3:TrackPointExtension>
            <ns3:atemp>31.0</ns3:atemp>
            <ns3:hr>83</ns3:hr>
          </ns3:TrackPointExtension>
        </extensions>
      </trkpt>
      <trkpt lat="36.76598109304904937744140625" lon="-118.46546611748635768890380859375">
        <ele>2330.60009765625</ele>
        <time>2021-06-24T21:35:36.000Z</time>
        <extensions>
          <ns3:TrackPointExtension>
            <ns3:atemp>31.0</ns3:atemp>
            <ns3:hr>89</ns3:hr>
          </ns3:TrackPointExtension>
        </extensions>
      </trkpt>
      <trkpt lat="36.7659822665154933929443359375" lon="-118.4654621779918670654296875">
        <ele>2330.60009765625</ele>
        <time>2021-06-24T21:35:37.000Z</time>
        <extensions>
          <ns3:TrackPointExtension>
            <ns3:atemp>31.0</ns3:atemp>
            <ns3:hr>89</ns3:hr>
          </ns3:TrackPointExtension>
        </extensions>
      </trkpt>
      <trkpt lat="36.76598704420030117034912109375" lon="-118.46545907668769359588623046875">
        <ele>2330.60009765625</ele>
        <time>2021-06-24T21:35:43.000Z</time>
        <extensions>
          <ns3:TrackPointExtension>
            <ns3:atemp>31.0</ns3:atemp>
            <ns3:hr>84</ns3:hr>
          </ns3:TrackPointExtension>
        </extensions>
      </trkpt>
      <trkpt lat="36.76598704420030117034912109375" lon="-118.46545882523059844970703125">
        <ele>2330.60009765625</ele>
        <time>2021-06-24T21:35:44.000Z</time>
        <extensions>
          <ns3:TrackPointExtension>
            <ns3:atemp>31.0</ns3:atemp>
            <ns3:hr>87</ns3:hr>
          </ns3:TrackPointExtension>
        </extensions>
      </trkpt>
      <trkpt lat="36.766017973423004150390625" lon="-118.46547382883727550506591796875">
        <ele>2330.60009765625</ele>
        <time>2021-06-24T21:36:17.000Z</time>
        <extensions>
          <ns3:TrackPointExtension>
            <ns3:atemp>31.0</ns3:atemp>
            <ns3:hr>88</ns3:hr>
          </ns3:TrackPointExtension>
        </extensions>
      </trkpt>
      <trkpt lat="36.76602275110781192779541015625" lon="-118.465479947626590728759765625">
        <ele>2330.60009765625</ele>
        <time>2021-06-24T21:36:21.000Z</time>
        <extensions>
          <ns3:TrackPointExtension>
            <ns3:atemp>31.0</ns3:atemp>
            <ns3:hr>89</ns3:hr>
          </ns3:TrackPointExtension>
        </extensions>
      </trkpt>
      <trkpt lat="36.766017638146877288818359375" lon="-118.46548832952976226806640625">
        <ele>2330.60009765625</ele>
        <time>2021-06-24T21:36:27.000Z</time>
        <extensions>
          <ns3:TrackPointExtension>
            <ns3:atemp>31.0</ns3:atemp>
            <ns3:hr>90</ns3:hr>
          </ns3:TrackPointExtension>
        </extensions>
      </trkpt>
      <trkpt lat="36.76599006168544292449951171875" lon="-118.46549696289002895355224609375">
        <ele>2330.60009765625</ele>
        <time>2021-06-24T21:36:30.000Z</time>
        <extensions>
          <ns3:TrackPointExtension>
            <ns3:atemp>31.0</ns3:atemp>
            <ns3:hr>90</ns3:hr>
          </ns3:TrackPointExtension>
        </extensions>
      </trkpt>
      <trkpt lat="36.7659819312393665313720703125" lon="-118.46546745859086513519287109375">
        <ele>2330.60009765625</ele>
        <time>2021-06-24T21:36:36.000Z</time>
        <extensions>
          <ns3:TrackPointExtension>
            <ns3:atemp>31.0</ns3:atemp>
            <ns3:hr>89</ns3:hr>
          </ns3:TrackPointExtension>
        </extensions>
      </trkpt>
      <trkpt lat="36.76597329787909984588623046875" lon="-118.465450443327426910400390625">
        <ele>2330.60009765625</ele>
        <time>2021-06-24T21:36:42.000Z</time>
        <extensions>
          <ns3:TrackPointExtension>
            <ns3:atemp>31.0</ns3:atemp>
            <ns3:hr>89</ns3:hr>
          </ns3:TrackPointExtension>
        </extensions>
      </trkpt>
      <trkpt lat="36.7659993655979633331298828125" lon="-118.46543334424495697021484375">
        <ele>2330.60009765625</ele>
        <time>2021-06-24T21:36:47.000Z</time>
        <extensions>
          <ns3:TrackPointExtension>
            <ns3:atemp>31.0</ns3:atemp>
            <ns3:hr>92</ns3:hr>
          </ns3:TrackPointExtension>
        </extensions>
      </trkpt>
      <trkpt lat="36.7659735493361949920654296875" lon="-118.46542320214211940765380859375">
        <ele>2330.60009765625</ele>
        <time>2021-06-24T21:36:54.000Z</time>
        <extensions>
          <ns3:TrackPointExtension>
            <ns3:atemp>31.0</ns3:atemp>
            <ns3:hr>94</ns3:hr>
          </ns3:TrackPointExtension>
        </extensions>
      </trkpt>
      <trkpt lat="36.76593239419162273406982421875" lon="-118.46539914608001708984375">
        <ele>2330.60009765625</ele>
        <time>2021-06-24T21:36:57.000Z</time>
        <extensions>
          <ns3:TrackPointExtension>
            <ns3:atemp>31.0</ns3:atemp>
            <ns3:hr>97</ns3:hr>
          </ns3:TrackPointExtension>
        </extensions>
      </trkpt>
      <trkpt lat="36.76590573973953723907470703125" lon="-118.465375006198883056640625">
        <ele>2330.60009765625</ele>
        <time>2021-06-24T21:37:00.000Z</time>
        <extensions>
          <ns3:TrackPointExtension>
            <ns3:atemp>31.0</ns3:atemp>
            <ns3:hr>98</ns3:hr>
          </ns3:TrackPointExtension>
        </extensions>
      </trkpt>
      <trkpt lat="36.7658843658864498138427734375" lon="-118.46535983495414257049560546875">
        <ele>2330.60009765625</ele>
        <time>2021-06-24T21:37:03.000Z</time>
        <extensions>
          <ns3:TrackPointExtension>
            <ns3:atemp>31.0</ns3:atemp>
            <ns3:hr>96</ns3:hr>
          </ns3:TrackPointExtension>
        </extensions>
      </trkpt>
      <trkpt lat="36.76588210277259349822998046875" lon="-118.46534860320389270782470703125">
        <ele>2330.800048828125</ele>
        <time>2021-06-24T21:37:04.000Z</time>
        <extensions>
          <ns3:TrackPointExtension>
            <ns3:atemp>31.0</ns3:atemp>
            <ns3:hr>97</ns3:hr>
          </ns3:TrackPointExtension>
        </extensions>
      </trkpt>
      <trkpt lat="36.7658588849008083343505859375" lon="-118.4652983956038951873779296875">
        <ele>2331</ele>
        <time>2021-06-24T21:37:08.000Z</time>
        <extensions>
          <ns3:TrackPointExtension>
            <ns3:atemp>31.0</ns3:atemp>
            <ns3:hr>96</ns3:hr>
          </ns3:TrackPointExtension>
        </extensions>
      </trkpt>
      <trkpt lat="36.76584161818027496337890625" lon="-118.4652937017381191253662109375">
        <ele>2331.39990234375</ele>
        <time>2021-06-24T21:37:10.000Z</time>
        <extensions>
          <ns3:TrackPointExtension>
            <ns3:atemp>31.0</ns3:atemp>
            <ns3:hr>95</ns3:hr>
          </ns3:TrackPointExtension>
        </extensions>
      </trkpt>
      <trkpt lat="36.76583164371550083160400390625" lon="-118.4652983956038951873779296875">
        <ele>2331.39990234375</ele>
        <time>2021-06-24T21:37:11.000Z</time>
        <extensions>
          <ns3:TrackPointExtension>
            <ns3:atemp>31.0</ns3:atemp>
            <ns3:hr>95</ns3:hr>
          </ns3:TrackPointExtension>
        </extensions>
      </trkpt>
      <trkpt lat="36.76581856794655323028564453125" lon="-118.46529043279588222503662109375">
        <ele>2332.39990234375</ele>
        <time>2021-06-24T21:37:14.000Z</time>
        <extensions>
          <ns3:TrackPointExtension>
            <ns3:atemp>31.0</ns3:atemp>
            <ns3:hr>93</ns3:hr>
          </ns3:TrackPointExtension>
        </extensions>
      </trkpt>
      <trkpt lat="36.7658018879592418670654296875" lon="-118.4652739204466342926025390625">
        <ele>2332.60009765625</ele>
        <time>2021-06-24T21:37:16.000Z</time>
        <extensions>
          <ns3:TrackPointExtension>
            <ns3:atemp>31.0</ns3:atemp>
            <ns3:hr>96</ns3:hr>
          </ns3:TrackPointExtension>
        </extensions>
      </trkpt>
      <trkpt lat="36.76578797399997711181640625" lon="-118.46525154076516628265380859375">
        <ele>2332.800048828125</ele>
        <time>2021-06-24T21:37:18.000Z</time>
        <extensions>
          <ns3:TrackPointExtension>
            <ns3:atemp>31.0</ns3:atemp>
            <ns3:hr>96</ns3:hr>
          </ns3:TrackPointExtension>
        </extensions>
      </trkpt>
      <trkpt lat="36.76576425321400165557861328125" lon="-118.4652216173708438873291015625">
        <ele>2333</ele>
        <time>2021-06-24T21:37:21.000Z</time>
        <extensions>
          <ns3:TrackPointExtension>
            <ns3:atemp>31.0</ns3:atemp>
            <ns3:hr>99</ns3:hr>
          </ns3:TrackPointExtension>
        </extensions>
      </trkpt>
      <trkpt lat="36.765771545469760894775390625" lon="-118.46519605256617069244384765625">
        <ele>2333</ele>
        <time>2021-06-24T21:37:23.000Z</time>
        <extensions>
          <ns3:TrackPointExtension>
            <ns3:atemp>31.0</ns3:atemp>
            <ns3:hr>102</ns3:hr>
          </ns3:TrackPointExtension>
        </extensions>
      </trkpt>
      <trkpt lat="36.76577858626842498779296875" lon="-118.4651709906756877899169921875">
        <ele>2333.199951171875</ele>
        <time>2021-06-24T21:37:25.000Z</time>
        <extensions>
          <ns3:TrackPointExtension>
            <ns3:atemp>31.0</ns3:atemp>
            <ns3:hr>104</ns3:hr>
          </ns3:TrackPointExtension>
        </extensions>
      </trkpt>
      <trkpt lat="36.76577867008745670318603515625" lon="-118.4651384688913822174072265625">
        <ele>2333.199951171875</ele>
        <time>2021-06-24T21:37:27.000Z</time>
        <extensions>
          <ns3:TrackPointExtension>
            <ns3:atemp>31.0</ns3:atemp>
            <ns3:hr>106</ns3:hr>
          </ns3:TrackPointExtension>
        </extensions>
      </trkpt>
      <trkpt lat="36.76577431149780750274658203125" lon="-118.46512815915048122406005859375">
        <ele>2333.199951171875</ele>
        <time>2021-06-24T21:37:28.000Z</time>
        <extensions>
          <ns3:TrackPointExtension>
            <ns3:atemp>31.0</ns3:atemp>
            <ns3:hr>106</ns3:hr>
          </ns3:TrackPointExtension>
        </extensions>
      </trkpt>
      <trkpt lat="36.76577079109847545623779296875" lon="-118.465117178857326507568359375">
        <ele>2333.199951171875</ele>
        <time>2021-06-24T21:37:29.000Z</time>
        <extensions>
          <ns3:TrackPointExtension>
            <ns3:atemp>31.0</ns3:atemp>
            <ns3:hr>106</ns3:hr>
          </ns3:TrackPointExtension>
        </extensions>
      </trkpt>
      <trkpt lat="36.76577062346041202545166015625" lon="-118.4650965593755245208740234375">
        <ele>2333.199951171875</ele>
        <time>2021-06-24T21:37:31.000Z</time>
        <extensions>
          <ns3:TrackPointExtension>
            <ns3:atemp>31.0</ns3:atemp>
            <ns3:hr>108</ns3:hr>
          </ns3:TrackPointExtension>
        </extensions>
      </trkpt>
      <trkpt lat="36.765783615410327911376953125" lon="-118.4650556556880474090576171875">
        <ele>2333.39990234375</ele>
        <time>2021-06-24T21:37:34.000Z</time>
        <extensions>
          <ns3:TrackPointExtension>
            <ns3:atemp>31.0</ns3:atemp>
            <ns3:hr>109</ns3:hr>
          </ns3:TrackPointExtension>
        </extensions>
      </trkpt>
      <trkpt lat="36.76580465398728847503662109375" lon="-118.46500678919255733489990234375">
        <ele>2333.800048828125</ele>
        <time>2021-06-24T21:37:39.000Z</time>
        <extensions>
          <ns3:TrackPointExtension>
            <ns3:atemp>31.0</ns3:atemp>
            <ns3:hr>106</ns3:hr>
          </ns3:TrackPointExtension>
        </extensions>
      </trkpt>
      <trkpt lat="36.76581772975623607635498046875" lon="-118.464988768100738525390625">
        <ele>2333.800048828125</ele>
        <time>2021-06-24T21:37:40.000Z</time>
        <extensions>
          <ns3:TrackPointExtension>
            <ns3:atemp>31.0</ns3:atemp>
            <ns3:hr>105</ns3:hr>
          </ns3:TrackPointExtension>
        </extensions>
      </trkpt>
      <trkpt lat="36.76584555767476558685302734375" lon="-118.4649466909468173980712890625">
        <ele>2334.39990234375</ele>
        <time>2021-06-24T21:37:43.000Z</time>
        <extensions>
          <ns3:TrackPointExtension>
            <ns3:atemp>31.0</ns3:atemp>
            <ns3:hr>105</ns3:hr>
          </ns3:TrackPointExtension>
        </extensions>
      </trkpt>
      <trkpt lat="36.76586064510047435760498046875" lon="-118.4649181924760341644287109375">
        <ele>2334.39990234375</ele>
        <time>2021-06-24T21:37:45.000Z</time>
        <extensions>
          <ns3:TrackPointExtension>
            <ns3:atemp>31.0</ns3:atemp>
            <ns3:hr>105</ns3:hr>
          </ns3:TrackPointExtension>
        </extensions>
      </trkpt>
      <trkpt lat="36.76586047746241092681884765625" lon="-118.46488709561526775360107421875">
        <ele>2334.800048828125</ele>
        <time>2021-06-24T21:37:48.000Z</time>
        <extensions>
          <ns3:TrackPointExtension>
            <ns3:atemp>31.0</ns3:atemp>
            <ns3:hr>107</ns3:hr>
          </ns3:TrackPointExtension>
        </extensions>
      </trkpt>
      <trkpt lat="36.76585427485406398773193359375" lon="-118.46485935151576995849609375">
        <ele>2335</ele>
        <time>2021-06-24T21:37:51.000Z</time>
        <extensions>
          <ns3:TrackPointExtension>
            <ns3:atemp>31.0</ns3:atemp>
            <ns3:hr>109</ns3:hr>
          </ns3:TrackPointExtension>
        </extensions>
      </trkpt>
      <trkpt lat="36.76585796289145946502685546875" lon="-118.464850969612598419189453125">
        <ele>2335.199951171875</ele>
        <time>2021-06-24T21:37:53.000Z</time>
        <extensions>
          <ns3:TrackPointExtension>
            <ns3:atemp>31.0</ns3:atemp>
            <ns3:hr>111</ns3:hr>
          </ns3:TrackPointExtension>
        </extensions>
      </trkpt>
      <trkpt lat="36.76585444249212741851806640625" lon="-118.46482875756919384002685546875">
        <ele>2335.60009765625</ele>
        <time>2021-06-24T21:37:56.000Z</time>
        <extensions>
          <ns3:TrackPointExtension>
            <ns3:atemp>31.0</ns3:atemp>
            <ns3:hr>111</ns3:hr>
          </ns3:TrackPointExtension>
        </extensions>
      </trkpt>
      <trkpt lat="36.76584270782768726348876953125" lon="-118.464808724820613861083984375">
        <ele>2335.60009765625</ele>
        <time>2021-06-24T21:37:58.000Z</time>
        <extensions>
          <ns3:TrackPointExtension>
            <ns3:atemp>31.0</ns3:atemp>
            <ns3:hr>111</ns3:hr>
          </ns3:TrackPointExtension>
        </extensions>
      </trkpt>
      <trkpt lat="36.76582418382167816162109375" lon="-118.46471895463764667510986328125">
        <ele>2335.800048828125</ele>
        <time>2021-06-24T21:38:04.000Z</time>
        <extensions>
          <ns3:TrackPointExtension>
            <ns3:atemp>31.0</ns3:atemp>
            <ns3:hr>109</ns3:hr>
          </ns3:TrackPointExtension>
        </extensions>
      </trkpt>
      <trkpt lat="36.765805073082447052001953125" lon="-118.4646918810904026031494140625">
        <ele>2336</ele>
        <time>2021-06-24T21:38:06.000Z</time>
        <extensions>
          <ns3:TrackPointExtension>
            <ns3:atemp>31.0</ns3:atemp>
            <ns3:hr>112</ns3:hr>
          </ns3:TrackPointExtension>
        </extensions>
      </trkpt>
      <trkpt lat="36.7657458968460559844970703125" lon="-118.46463966183364391326904296875">
        <ele>2336.39990234375</ele>
        <time>2021-06-24T21:38:11.000Z</time>
        <extensions>
          <ns3:TrackPointExtension>
            <ns3:atemp>31.0</ns3:atemp>
            <ns3:hr>108</ns3:hr>
          </ns3:TrackPointExtension>
        </extensions>
      </trkpt>
      <trkpt lat="36.76573567092418670654296875" lon="-118.46463245339691638946533203125">
        <ele>2336.800048828125</ele>
        <time>2021-06-24T21:38:12.000Z</time>
        <extensions>
          <ns3:TrackPointExtension>
            <ns3:atemp>31.0</ns3:atemp>
            <ns3:hr>108</ns3:hr>
          </ns3:TrackPointExtension>
        </extensions>
      </trkpt>
      <trkpt lat="36.76571882329881191253662109375" lon="-118.464611582458019256591796875">
        <ele>2337</ele>
        <time>2021-06-24T21:38:14.000Z</time>
        <extensions>
          <ns3:TrackPointExtension>
            <ns3:atemp>31.0</ns3:atemp>
            <ns3:hr>107</ns3:hr>
          </ns3:TrackPointExtension>
        </extensions>
      </trkpt>
      <trkpt lat="36.76571127958595752716064453125" lon="-118.464598171412944793701171875">
        <ele>2337</ele>
        <time>2021-06-24T21:38:15.000Z</time>
        <extensions>
          <ns3:TrackPointExtension>
            <ns3:atemp>31.0</ns3:atemp>
            <ns3:hr>105</ns3:hr>
          </ns3:TrackPointExtension>
        </extensions>
      </trkpt>
      <trkpt lat="36.765702478587627410888671875" lon="-118.4645788930356502532958984375">
        <ele>2337.199951171875</ele>
        <time>2021-06-24T21:38:17.000Z</time>
        <extensions>
          <ns3:TrackPointExtension>
            <ns3:atemp>31.0</ns3:atemp>
            <ns3:hr>107</ns3:hr>
          </ns3:TrackPointExtension>
        </extensions>
      </trkpt>
      <trkpt lat="36.76567523740231990814208984375" lon="-118.4645416773855686187744140625">
        <ele>2337.39990234375</ele>
        <time>2021-06-24T21:38:21.000Z</time>
        <extensions>
          <ns3:TrackPointExtension>
            <ns3:atemp>31.0</ns3:atemp>
            <ns3:hr>109</ns3:hr>
          </ns3:TrackPointExtension>
        </extensions>
      </trkpt>
      <trkpt lat="36.76568579860031604766845703125" lon="-118.46444151364266872406005859375">
        <ele>2337.60009765625</ele>
        <time>2021-06-24T21:38:28.000Z</time>
        <extensions>
          <ns3:TrackPointExtension>
            <ns3:atemp>31.0</ns3:atemp>
            <ns3:hr>107</ns3:hr>
          </ns3:TrackPointExtension>
        </extensions>
      </trkpt>
      <trkpt lat="36.76568697206676006317138671875" lon="-118.46442206762731075286865234375">
        <ele>2337.800048828125</ele>
        <time>2021-06-24T21:38:30.000Z</time>
        <extensions>
          <ns3:TrackPointExtension>
            <ns3:atemp>31.0</ns3:atemp>
            <ns3:hr>106</ns3:hr>
          </ns3:TrackPointExtension>
        </extensions>
      </trkpt>
      <trkpt lat="36.76568948663771152496337890625" lon="-118.46438569016754627227783203125">
        <ele>2337.800048828125</ele>
        <time>2021-06-24T21:38:34.000Z</time>
        <extensions>
          <ns3:TrackPointExtension>
            <ns3:atemp>31.0</ns3:atemp>
            <ns3:hr>104</ns3:hr>
          </ns3:TrackPointExtension>
        </extensions>
      </trkpt>
      <trkpt lat="36.7656718008220195770263671875" lon="-118.464269936084747314453125">
        <ele>2339</ele>
        <time>2021-06-24T21:38:44.000Z</time>
        <extensions>
          <ns3:TrackPointExtension>
            <ns3:atemp>31.0</ns3:atemp>
            <ns3:hr>104</ns3:hr>
          </ns3:TrackPointExtension>
        </extensions>
      </trkpt>
      <trkpt lat="36.7656706273555755615234375" lon="-118.46424646675586700439453125">
        <ele>2339.199951171875</ele>
        <time>2021-06-24T21:38:47.000Z</time>
        <extensions>
          <ns3:TrackPointExtension>
            <ns3:atemp>31.0</ns3:atemp>
            <ns3:hr>105</ns3:hr>
          </ns3:TrackPointExtension>
        </extensions>
      </trkpt>
      <trkpt lat="36.7657207511365413665771484375" lon="-118.46420782618224620819091796875">
        <ele>2340</ele>
        <time>2021-06-24T21:38:51.000Z</time>
        <extensions>
          <ns3:TrackPointExtension>
            <ns3:atemp>31.0</ns3:atemp>
            <ns3:hr>106</ns3:hr>
          </ns3:TrackPointExtension>
        </extensions>
      </trkpt>
      <trkpt lat="36.7657281272113323211669921875" lon="-118.46420346759259700775146484375">
        <ele>2340</ele>
        <time>2021-06-24T21:38:52.000Z</time>
        <extensions>
          <ns3:TrackPointExtension>
            <ns3:atemp>31.0</ns3:atemp>
            <ns3:hr>106</ns3:hr>
          </ns3:TrackPointExtension>
        </extensions>
      </trkpt>
      <trkpt lat="36.76572418771684169769287109375" lon="-118.46417245455086231231689453125">
        <ele>2340.39990234375</ele>
        <time>2021-06-24T21:38:56.000Z</time>
        <extensions>
          <ns3:TrackPointExtension>
            <ns3:atemp>31.0</ns3:atemp>
            <ns3:hr>105</ns3:hr>
          </ns3:TrackPointExtension>
        </extensions>
      </trkpt>
      <trkpt lat="36.7657162249088287353515625" lon="-118.46416859887540340423583984375">
        <ele>2340.60009765625</ele>
        <time>2021-06-24T21:38:57.000Z</time>
        <extensions>
          <ns3:TrackPointExtension>
            <ns3:atemp>31.0</ns3:atemp>
            <ns3:hr>106</ns3:hr>
          </ns3:TrackPointExtension>
        </extensions>
      </trkpt>
      <trkpt lat="36.7657081782817840576171875" lon="-118.46415066160261631011962890625">
        <ele>2341.199951171875</ele>
        <time>2021-06-24T21:39:00.000Z</time>
        <extensions>
          <ns3:TrackPointExtension>
            <ns3:atemp>31.0</ns3:atemp>
            <ns3:hr>106</ns3:hr>
          </ns3:TrackPointExtension>
        </extensions>
      </trkpt>
      <trkpt lat="36.76570423878729343414306640625" lon="-118.4641457162797451019287109375">
        <ele>2341.199951171875</ele>
        <time>2021-06-24T21:39:01.000Z</time>
        <extensions>
          <ns3:TrackPointExtension>
            <ns3:atemp>31.0</ns3:atemp>
            <ns3:hr>106</ns3:hr>
          </ns3:TrackPointExtension>
        </extensions>
      </trkpt>
      <trkpt lat="36.76570490933954715728759765625" lon="-118.46413574181497097015380859375">
        <ele>2341.60009765625</ele>
        <time>2021-06-24T21:39:04.000Z</time>
        <extensions>
          <ns3:TrackPointExtension>
            <ns3:atemp>31.0</ns3:atemp>
            <ns3:hr>108</ns3:hr>
          </ns3:TrackPointExtension>
        </extensions>
      </trkpt>
      <trkpt lat="36.7657108604907989501953125" lon="-118.46412668935954570770263671875">
        <ele>2341.800048828125</ele>
        <time>2021-06-24T21:39:06.000Z</time>
        <extensions>
          <ns3:TrackPointExtension>
            <ns3:atemp>31.0</ns3:atemp>
            <ns3:hr>111</ns3:hr>
          </ns3:TrackPointExtension>
        </extensions>
      </trkpt>
      <trkpt lat="36.76571245305240154266357421875" lon="-118.4641188941895961761474609375">
        <ele>2341.800048828125</ele>
        <time>2021-06-24T21:39:07.000Z</time>
        <extensions>
          <ns3:TrackPointExtension>
            <ns3:atemp>31.0</ns3:atemp>
            <ns3:hr>112</ns3:hr>
          </ns3:TrackPointExtension>
        </extensions>
      </trkpt>
      <trkpt lat="36.7657086811959743499755859375" lon="-118.46411026082932949066162109375">
        <ele>2342</ele>
        <time>2021-06-24T21:39:08.000Z</time>
        <extensions>
          <ns3:TrackPointExtension>
            <ns3:atemp>31.0</ns3:atemp>
            <ns3:hr>112</ns3:hr>
          </ns3:TrackPointExtension>
        </extensions>
      </trkpt>
      <trkpt lat="36.7657002992928028106689453125" lon="-118.4640743024647235870361328125">
        <ele>2342.39990234375</ele>
        <time>2021-06-24T21:39:11.000Z</time>
        <extensions>
          <ns3:TrackPointExtension>
            <ns3:atemp>31.0</ns3:atemp>
            <ns3:hr>113</ns3:hr>
          </ns3:TrackPointExtension>
        </extensions>
      </trkpt>
      <trkpt lat="36.765690743923187255859375" lon="-118.46407405100762844085693359375">
        <ele>2342.39990234375</ele>
        <time>2021-06-24T21:39:12.000Z</time>
        <extensions>
          <ns3:TrackPointExtension>
            <ns3:atemp>31.0</ns3:atemp>
            <ns3:hr>114</ns3:hr>
          </ns3:TrackPointExtension>
        </extensions>
      </trkpt>
      <trkpt lat="36.7656805180013179779052734375" lon="-118.4640739671885967254638671875">
        <ele>2342.39990234375</ele>
        <time>2021-06-24T21:39:13.000Z</time>
        <extensions>
          <ns3:TrackPointExtension>
            <ns3:atemp>31.0</ns3:atemp>
            <ns3:hr>114</ns3:hr>
          </ns3:TrackPointExtension>
        </extensions>
      </trkpt>
      <trkpt lat="36.7656550370156764984130859375" lon="-118.4640701115131378173828125">
        <ele>2342.60009765625</ele>
        <time>2021-06-24T21:39:15.000Z</time>
        <extensions>
          <ns3:TrackPointExtension>
            <ns3:atemp>31.0</ns3:atemp>
            <ns3:hr>115</ns3:hr>
          </ns3:TrackPointExtension>
        </extensions>
      </trkpt>
      <trkpt lat="36.7656285502016544342041015625" lon="-118.464055024087429046630859375">
        <ele>2342.60009765625</ele>
        <time>2021-06-24T21:39:17.000Z</time>
        <extensions>
          <ns3:TrackPointExtension>
            <ns3:atemp>31.0</ns3:atemp>
            <ns3:hr>114</ns3:hr>
          </ns3:TrackPointExtension>
        </extensions>
      </trkpt>
      <trkpt lat="36.7656050808727741241455078125" lon="-118.46402241848409175872802734375">
        <ele>2342.60009765625</ele>
        <time>2021-06-24T21:39:22.000Z</time>
        <extensions>
          <ns3:TrackPointExtension>
            <ns3:atemp>31.0</ns3:atemp>
            <ns3:hr>111</ns3:hr>
          </ns3:TrackPointExtension>
        </extensions>
      </trkpt>
      <trkpt lat="36.76562444306910037994384765625" lon="-118.46395620144903659820556640625">
        <ele>2342.800048828125</ele>
        <time>2021-06-24T21:39:28.000Z</time>
        <extensions>
          <ns3:TrackPointExtension>
            <ns3:atemp>31.0</ns3:atemp>
            <ns3:hr>109</ns3:hr>
          </ns3:TrackPointExtension>
        </extensions>
      </trkpt>
      <trkpt lat="36.765673644840717315673828125" lon="-118.4638984501361846923828125">
        <ele>2343.39990234375</ele>
        <time>2021-06-24T21:39:32.000Z</time>
        <extensions>
          <ns3:TrackPointExtension>
            <ns3:atemp>31.0</ns3:atemp>
            <ns3:hr>110</ns3:hr>
          </ns3:TrackPointExtension>
        </extensions>
      </trkpt>
      <trkpt lat="36.7656644247472286224365234375" lon="-118.46386022865772247314453125">
        <ele>2343.800048828125</ele>
        <time>2021-06-24T21:39:35.000Z</time>
        <extensions>
          <ns3:TrackPointExtension>
            <ns3:atemp>31.0</ns3:atemp>
            <ns3:hr>109</ns3:hr>
          </ns3:TrackPointExtension>
        </extensions>
      </trkpt>
      <trkpt lat="36.7656540311872959136962890625" lon="-118.463852517306804656982421875">
        <ele>2344</ele>
        <time>2021-06-24T21:39:36.000Z</time>
        <extensions>
          <ns3:TrackPointExtension>
            <ns3:atemp>31.0</ns3:atemp>
            <ns3:hr>108</ns3:hr>
          </ns3:TrackPointExtension>
        </extensions>
      </trkpt>
      <trkpt lat="36.76564875058829784393310546875" lon="-118.46382108516991138458251953125">
        <ele>2344.39990234375</ele>
        <time>2021-06-24T21:39:39.000Z</time>
        <extensions>
          <ns3:TrackPointExtension>
            <ns3:atemp>31.0</ns3:atemp>
            <ns3:hr>110</ns3:hr>
          </ns3:TrackPointExtension>
        </extensions>
      </trkpt>
      <trkpt lat="36.76564673893153667449951171875" lon="-118.4638104401528835296630859375">
        <ele>2344.60009765625</ele>
        <time>2021-06-24T21:39:40.000Z</time>
        <extensions>
          <ns3:TrackPointExtension>
            <ns3:atemp>31.0</ns3:atemp>
            <ns3:hr>110</ns3:hr>
          </ns3:TrackPointExtension>
        </extensions>
      </trkpt>
      <trkpt lat="36.7656433023512363433837890625" lon="-118.4637993760406970977783203125">
        <ele>2344.800048828125</ele>
        <time>2021-06-24T21:39:41.000Z</time>
        <extensions>
          <ns3:TrackPointExtension>
            <ns3:atemp>31.0</ns3:atemp>
            <ns3:hr>111</ns3:hr>
          </ns3:TrackPointExtension>
        </extensions>
      </trkpt>
      <trkpt lat="36.76563751883804798126220703125" lon="-118.46377314068377017974853515625">
        <ele>2345.39990234375</ele>
        <time>2021-06-24T21:39:44.000Z</time>
        <extensions>
          <ns3:TrackPointExtension>
            <ns3:atemp>31.0</ns3:atemp>
            <ns3:hr>111</ns3:hr>
          </ns3:TrackPointExtension>
        </extensions>
      </trkpt>
      <trkpt lat="36.76563777029514312744140625" lon="-118.4637671895325183868408203125">
        <ele>2345.39990234375</ele>
        <time>2021-06-24T21:39:45.000Z</time>
        <extensions>
          <ns3:TrackPointExtension>
            <ns3:atemp>31.0</ns3:atemp>
            <ns3:hr>112</ns3:hr>
          </ns3:TrackPointExtension>
        </extensions>
      </trkpt>
      <trkpt lat="36.76563777029514312744140625" lon="-118.4637574665248394012451171875">
        <ele>2346</ele>
        <time>2021-06-24T21:39:47.000Z</time>
        <extensions>
          <ns3:TrackPointExtension>
            <ns3:atemp>31.0</ns3:atemp>
            <ns3:hr>112</ns3:hr>
          </ns3:TrackPointExtension>
        </extensions>
      </trkpt>
      <trkpt lat="36.76564045250415802001953125" lon="-118.46374615095555782318115234375">
        <ele>2346.199951171875</ele>
        <time>2021-06-24T21:39:48.000Z</time>
        <extensions>
          <ns3:TrackPointExtension>
            <ns3:atemp>31.0</ns3:atemp>
            <ns3:hr>112</ns3:hr>
          </ns3:TrackPointExtension>
        </extensions>
      </trkpt>
      <trkpt lat="36.765643469989299774169921875" lon="-118.46373022533953189849853515625">
        <ele>2346.39990234375</ele>
        <time>2021-06-24T21:39:49.000Z</time>
        <extensions>
          <ns3:TrackPointExtension>
            <ns3:atemp>31.0</ns3:atemp>
            <ns3:hr>112</ns3:hr>
          </ns3:TrackPointExtension>
        </extensions>
      </trkpt>
      <trkpt lat="36.765639781951904296875" lon="-118.4636860527098178863525390625">
        <ele>2346.800048828125</ele>
        <time>2021-06-24T21:39:52.000Z</time>
        <extensions>
          <ns3:TrackPointExtension>
            <ns3:atemp>31.0</ns3:atemp>
            <ns3:hr>109</ns3:hr>
          </ns3:TrackPointExtension>
        </extensions>
      </trkpt>
      <trkpt lat="36.76562611944973468780517578125" lon="-118.46367247402667999267578125">
        <ele>2346.800048828125</ele>
        <time>2021-06-24T21:39:53.000Z</time>
        <extensions>
          <ns3:TrackPointExtension>
            <ns3:atemp>31.0</ns3:atemp>
            <ns3:hr>107</ns3:hr>
          </ns3:TrackPointExtension>
        </extensions>
      </trkpt>
      <trkpt lat="36.7656075954437255859375" lon="-118.46363894641399383544921875">
        <ele>2347</ele>
        <time>2021-06-24T21:39:55.000Z</time>
        <extensions>
          <ns3:TrackPointExtension>
            <ns3:atemp>31.0</ns3:atemp>
            <ns3:hr>104</ns3:hr>
          </ns3:TrackPointExtension>
        </extensions>
      </trkpt>
      <trkpt lat="36.7655970342457294464111328125" lon="-118.46362327225506305694580078125">
        <ele>2347.800048828125</ele>
        <time>2021-06-24T21:39:57.000Z</time>
        <extensions>
          <ns3:TrackPointExtension>
            <ns3:atemp>31.0</ns3:atemp>
            <ns3:hr>105</ns3:hr>
          </ns3:TrackPointExtension>
        </extensions>
      </trkpt>
      <trkpt lat="36.765605919063091278076171875" lon="-118.4636069275438785552978515625">
        <ele>2348.199951171875</ele>
        <time>2021-06-24T21:40:00.000Z</time>
        <extensions>
          <ns3:TrackPointExtension>
            <ns3:atemp>31.0</ns3:atemp>
            <ns3:hr>108</ns3:hr>
          </ns3:TrackPointExtension>
        </extensions>
      </trkpt>
      <trkpt lat="36.76561052910983562469482421875" lon="-118.46360273659229278564453125">
        <ele>2348.39990234375</ele>
        <time>2021-06-24T21:40:01.000Z</time>
        <extensions>
          <ns3:TrackPointExtension>
            <ns3:atemp>31.0</ns3:atemp>
            <ns3:hr>108</ns3:hr>
          </ns3:TrackPointExtension>
        </extensions>
      </trkpt>
      <trkpt lat="36.7656148038804531097412109375" lon="-118.46359309740364551544189453125">
        <ele>2348.39990234375</ele>
        <time>2021-06-24T21:40:02.000Z</time>
        <extensions>
          <ns3:TrackPointExtension>
            <ns3:atemp>31.0</ns3:atemp>
            <ns3:hr>107</ns3:hr>
          </ns3:TrackPointExtension>
        </extensions>
      </trkpt>
      <trkpt lat="36.765595860779285430908203125" lon="-118.46356778405606746673583984375">
        <ele>2348.800048828125</ele>
        <time>2021-06-24T21:40:05.000Z</time>
        <extensions>
          <ns3:TrackPointExtension>
            <ns3:atemp>31.0</ns3:atemp>
            <ns3:hr>109</ns3:hr>
          </ns3:TrackPointExtension>
        </extensions>
      </trkpt>
      <trkpt lat="36.76558655686676502227783203125" lon="-118.4635626710951328277587890625">
        <ele>2348.800048828125</ele>
        <time>2021-06-24T21:40:06.000Z</time>
        <extensions>
          <ns3:TrackPointExtension>
            <ns3:atemp>31.0</ns3:atemp>
            <ns3:hr>110</ns3:hr>
          </ns3:TrackPointExtension>
        </extensions>
      </trkpt>
      <trkpt lat="36.7655708827078342437744140625" lon="-118.4635469131171703338623046875">
        <ele>2349</ele>
        <time>2021-06-24T21:40:08.000Z</time>
        <extensions>
          <ns3:TrackPointExtension>
            <ns3:atemp>31.0</ns3:atemp>
            <ns3:hr>111</ns3:hr>
          </ns3:TrackPointExtension>
        </extensions>
      </trkpt>
      <trkpt lat="36.76556694321334362030029296875" lon="-118.4635331667959690093994140625">
        <ele>2349.199951171875</ele>
        <time>2021-06-24T21:40:10.000Z</time>
        <extensions>
          <ns3:TrackPointExtension>
            <ns3:atemp>31.0</ns3:atemp>
            <ns3:hr>112</ns3:hr>
          </ns3:TrackPointExtension>
        </extensions>
      </trkpt>
      <trkpt lat="36.76555638201534748077392578125" lon="-118.4635321609675884246826171875">
        <ele>2349.800048828125</ele>
        <time>2021-06-24T21:40:12.000Z</time>
        <extensions>
          <ns3:TrackPointExtension>
            <ns3:atemp>31.0</ns3:atemp>
            <ns3:hr>112</ns3:hr>
          </ns3:TrackPointExtension>
        </extensions>
      </trkpt>
      <trkpt lat="36.76555084995925426483154296875" lon="-118.46352939493954181671142578125">
        <ele>2350</ele>
        <time>2021-06-24T21:40:13.000Z</time>
        <extensions>
          <ns3:TrackPointExtension>
            <ns3:atemp>31.0</ns3:atemp>
            <ns3:hr>113</ns3:hr>
          </ns3:TrackPointExtension>
        </extensions>
      </trkpt>
      <trkpt lat="36.76551799289882183074951171875" lon="-118.46353207714855670928955078125">
        <ele>2350.199951171875</ele>
        <time>2021-06-24T21:40:16.000Z</time>
        <extensions>
          <ns3:TrackPointExtension>
            <ns3:atemp>31.0</ns3:atemp>
            <ns3:hr>114</ns3:hr>
          </ns3:TrackPointExtension>
        </extensions>
      </trkpt>
      <trkpt lat="36.76551480777561664581298828125" lon="-118.4635264612734317779541015625">
        <ele>2350.39990234375</ele>
        <time>2021-06-24T21:40:18.000Z</time>
        <extensions>
          <ns3:TrackPointExtension>
            <ns3:atemp>31.0</ns3:atemp>
            <ns3:hr>114</ns3:hr>
          </ns3:TrackPointExtension>
        </extensions>
      </trkpt>
      <trkpt lat="36.765513382852077484130859375" lon="-118.463511876761913299560546875">
        <ele>2351</ele>
        <time>2021-06-24T21:40:22.000Z</time>
        <extensions>
          <ns3:TrackPointExtension>
            <ns3:atemp>31.0</ns3:atemp>
            <ns3:hr>114</ns3:hr>
          </ns3:TrackPointExtension>
        </extensions>
      </trkpt>
      <trkpt lat="36.7655165679752826690673828125" lon="-118.4634537063539028167724609375">
        <ele>2351.39990234375</ele>
        <time>2021-06-24T21:40:27.000Z</time>
        <extensions>
          <ns3:TrackPointExtension>
            <ns3:atemp>31.0</ns3:atemp>
            <ns3:hr>113</ns3:hr>
          </ns3:TrackPointExtension>
        </extensions>
      </trkpt>
      <trkpt lat="36.76551648415625095367431640625" lon="-118.4634397923946380615234375">
        <ele>2351.39990234375</ele>
        <time>2021-06-24T21:40:28.000Z</time>
        <extensions>
          <ns3:TrackPointExtension>
            <ns3:atemp>31.0</ns3:atemp>
            <ns3:hr>115</ns3:hr>
          </ns3:TrackPointExtension>
        </extensions>
      </trkpt>
      <trkpt lat="36.76550357602536678314208984375" lon="-118.4633879922330379486083984375">
        <ele>2351.60009765625</ele>
        <time>2021-06-24T21:40:31.000Z</time>
        <extensions>
          <ns3:TrackPointExtension>
            <ns3:atemp>31.0</ns3:atemp>
            <ns3:hr>114</ns3:hr>
          </ns3:TrackPointExtension>
        </extensions>
      </trkpt>
      <trkpt lat="36.76550365984439849853515625" lon="-118.46335924230515956878662109375">
        <ele>2352</ele>
        <time>2021-06-24T21:40:33.000Z</time>
        <extensions>
          <ns3:TrackPointExtension>
            <ns3:atemp>31.0</ns3:atemp>
            <ns3:hr>114</ns3:hr>
          </ns3:TrackPointExtension>
        </extensions>
      </trkpt>
      <trkpt lat="36.76549737341701984405517578125" lon="-118.4633256308734416961669921875">
        <ele>2352.800048828125</ele>
        <time>2021-06-24T21:40:37.000Z</time>
        <extensions>
          <ns3:TrackPointExtension>
            <ns3:atemp>31.0</ns3:atemp>
            <ns3:hr>113</ns3:hr>
          </ns3:TrackPointExtension>
        </extensions>
      </trkpt>
      <trkpt lat="36.7654989659786224365234375" lon="-118.46331213600933551788330078125">
        <ele>2353</ele>
        <time>2021-06-24T21:40:38.000Z</time>
        <extensions>
          <ns3:TrackPointExtension>
            <ns3:atemp>31.0</ns3:atemp>
            <ns3:hr>111</ns3:hr>
          </ns3:TrackPointExtension>
        </extensions>
      </trkpt>
      <trkpt lat="36.765500642359256744384765625" lon="-118.46327760256826877593994140625">
        <ele>2353.199951171875</ele>
        <time>2021-06-24T21:40:40.000Z</time>
        <extensions>
          <ns3:TrackPointExtension>
            <ns3:atemp>31.0</ns3:atemp>
            <ns3:hr>113</ns3:hr>
          </ns3:TrackPointExtension>
        </extensions>
      </trkpt>
      <trkpt lat="36.76550139673054218292236328125" lon="-118.46326184459030628204345703125">
        <ele>2353.60009765625</ele>
        <time>2021-06-24T21:40:42.000Z</time>
        <extensions>
          <ns3:TrackPointExtension>
            <ns3:atemp>31.0</ns3:atemp>
            <ns3:hr>114</ns3:hr>
          </ns3:TrackPointExtension>
        </extensions>
      </trkpt>
      <trkpt lat="36.7655051685869693756103515625" lon="-118.46324575133621692657470703125">
        <ele>2354.199951171875</ele>
        <time>2021-06-24T21:40:44.000Z</time>
        <extensions>
          <ns3:TrackPointExtension>
            <ns3:atemp>31.0</ns3:atemp>
            <ns3:hr>116</ns3:hr>
          </ns3:TrackPointExtension>
        </extensions>
      </trkpt>
      <trkpt lat="36.76550894044339656829833984375" lon="-118.46323234029114246368408203125">
        <ele>2354.39990234375</ele>
        <time>2021-06-24T21:40:45.000Z</time>
        <extensions>
          <ns3:TrackPointExtension>
            <ns3:atemp>31.0</ns3:atemp>
            <ns3:hr>117</ns3:hr>
          </ns3:TrackPointExtension>
        </extensions>
      </trkpt>
      <trkpt lat="36.765510700643062591552734375" lon="-118.46320769749581813812255859375">
        <ele>2354.39990234375</ele>
        <time>2021-06-24T21:40:47.000Z</time>
        <extensions>
          <ns3:TrackPointExtension>
            <ns3:atemp>31.0</ns3:atemp>
            <ns3:hr>119</ns3:hr>
          </ns3:TrackPointExtension>
        </extensions>
      </trkpt>
      <trkpt lat="36.76549687050282955169677734375" lon="-118.46320040524005889892578125">
        <ele>2354.39990234375</ele>
        <time>2021-06-24T21:40:49.000Z</time>
        <extensions>
          <ns3:TrackPointExtension>
            <ns3:atemp>31.0</ns3:atemp>
            <ns3:hr>120</ns3:hr>
          </ns3:TrackPointExtension>
        </extensions>
      </trkpt>
      <trkpt lat="36.76546283997595310211181640625" lon="-118.463185317814350128173828125">
        <ele>2353.800048828125</ele>
        <time>2021-06-24T21:40:53.000Z</time>
        <extensions>
          <ns3:TrackPointExtension>
            <ns3:atemp>31.0</ns3:atemp>
            <ns3:hr>120</ns3:hr>
          </ns3:TrackPointExtension>
        </extensions>
      </trkpt>
      <trkpt lat="36.765392683446407318115234375" lon="-118.46314466558396816253662109375">
        <ele>2353.60009765625</ele>
        <time>2021-06-24T21:41:00.000Z</time>
        <extensions>
          <ns3:TrackPointExtension>
            <ns3:atemp>31.0</ns3:atemp>
            <ns3:hr>119</ns3:hr>
          </ns3:TrackPointExtension>
        </extensions>
      </trkpt>
      <trkpt lat="36.765400730073451995849609375" lon="-118.46312304027378559112548828125">
        <ele>2354</ele>
        <time>2021-06-24T21:41:06.000Z</time>
        <extensions>
          <ns3:TrackPointExtension>
            <ns3:atemp>31.0</ns3:atemp>
            <ns3:hr>119</ns3:hr>
          </ns3:TrackPointExtension>
        </extensions>
      </trkpt>
      <trkpt lat="36.76539863459765911102294921875" lon="-118.46311985515058040618896484375">
        <ele>2354</ele>
        <time>2021-06-24T21:41:07.000Z</time>
        <extensions>
          <ns3:TrackPointExtension>
            <ns3:atemp>31.0</ns3:atemp>
            <ns3:hr>119</ns3:hr>
          </ns3:TrackPointExtension>
        </extensions>
      </trkpt>
      <trkpt lat="36.765374578535556793212890625" lon="-118.4630991518497467041015625">
        <ele>2355</ele>
        <time>2021-06-24T21:41:15.000Z</time>
        <extensions>
          <ns3:TrackPointExtension>
            <ns3:atemp>31.0</ns3:atemp>
            <ns3:hr>116</ns3:hr>
          </ns3:TrackPointExtension>
        </extensions>
      </trkpt>
      <trkpt lat="36.76537265069782733917236328125" lon="-118.46305011771619319915771484375">
        <ele>2355.39990234375</ele>
        <time>2021-06-24T21:41:20.000Z</time>
        <extensions>
          <ns3:TrackPointExtension>
            <ns3:atemp>31.0</ns3:atemp>
            <ns3:hr>115</ns3:hr>
          </ns3:TrackPointExtension>
        </extensions>
      </trkpt>
      <trkpt lat="36.765357814729213714599609375" lon="-118.4630074538290500640869140625">
        <ele>2356</ele>
        <time>2021-06-24T21:41:25.000Z</time>
        <extensions>
          <ns3:TrackPointExtension>
            <ns3:atemp>31.0</ns3:atemp>
            <ns3:hr>114</ns3:hr>
          </ns3:TrackPointExtension>
        </extensions>
      </trkpt>
      <trkpt lat="36.76535840146243572235107421875" lon="-118.46299479715526103973388671875">
        <ele>2356.39990234375</ele>
        <time>2021-06-24T21:41:27.000Z</time>
        <extensions>
          <ns3:TrackPointExtension>
            <ns3:atemp>31.0</ns3:atemp>
            <ns3:hr>115</ns3:hr>
          </ns3:TrackPointExtension>
        </extensions>
      </trkpt>
      <trkpt lat="36.76535152830183506011962890625" lon="-118.46296093426644802093505859375">
        <ele>2357.199951171875</ele>
        <time>2021-06-24T21:41:33.000Z</time>
        <extensions>
          <ns3:TrackPointExtension>
            <ns3:atemp>31.0</ns3:atemp>
            <ns3:hr>115</ns3:hr>
          </ns3:TrackPointExtension>
        </extensions>
      </trkpt>
      <trkpt lat="36.7653489299118518829345703125" lon="-118.46294936724007129669189453125">
        <ele>2357.60009765625</ele>
        <time>2021-06-24T21:41:36.000Z</time>
        <extensions>
          <ns3:TrackPointExtension>
            <ns3:atemp>31.0</ns3:atemp>
            <ns3:hr>115</ns3:hr>
          </ns3:TrackPointExtension>
        </extensions>
      </trkpt>
      <trkpt lat="36.765339039266109466552734375" lon="-118.46294048242270946502685546875">
        <ele>2357.800048828125</ele>
        <time>2021-06-24T21:41:38.000Z</time>
        <extensions>
          <ns3:TrackPointExtension>
            <ns3:atemp>31.0</ns3:atemp>
            <ns3:hr>115</ns3:hr>
          </ns3:TrackPointExtension>
        </extensions>
      </trkpt>
      <trkpt lat="36.7653165757656097412109375" lon="-118.46292187459766864776611328125">
        <ele>2358.39990234375</ele>
        <time>2021-06-24T21:41:44.000Z</time>
        <extensions>
          <ns3:TrackPointExtension>
            <ns3:atemp>31.0</ns3:atemp>
            <ns3:hr>116</ns3:hr>
          </ns3:TrackPointExtension>
        </extensions>
      </trkpt>
      <trkpt lat="36.76529771648347377777099609375" lon="-118.46291902475059032440185546875">
        <ele>2358.60009765625</ele>
        <time>2021-06-24T21:41:46.000Z</time>
        <extensions>
          <ns3:TrackPointExtension>
            <ns3:atemp>31.0</ns3:atemp>
            <ns3:hr>116</ns3:hr>
          </ns3:TrackPointExtension>
        </extensions>
      </trkpt>
      <trkpt lat="36.76520652137696743011474609375" lon="-118.46288717351853847503662109375">
        <ele>2359</ele>
        <time>2021-06-24T21:41:52.000Z</time>
        <extensions>
          <ns3:TrackPointExtension>
            <ns3:atemp>31.0</ns3:atemp>
            <ns3:hr>116</ns3:hr>
          </ns3:TrackPointExtension>
        </extensions>
      </trkpt>
      <trkpt lat="36.765173412859439849853515625" lon="-118.46287309192121028900146484375">
        <ele>2359</ele>
        <time>2021-06-24T21:41:55.000Z</time>
        <extensions>
          <ns3:TrackPointExtension>
            <ns3:atemp>31.0</ns3:atemp>
            <ns3:hr>113</ns3:hr>
          </ns3:TrackPointExtension>
        </extensions>
      </trkpt>
      <trkpt lat="36.76512437872588634490966796875" lon="-118.4628575854003429412841796875">
        <ele>2359.800048828125</ele>
        <time>2021-06-24T21:41:59.000Z</time>
        <extensions>
          <ns3:TrackPointExtension>
            <ns3:atemp>31.0</ns3:atemp>
            <ns3:hr>111</ns3:hr>
          </ns3:TrackPointExtension>
        </extensions>
      </trkpt>
      <trkpt lat="36.7651011608541011810302734375" lon="-118.4628549031913280487060546875">
        <ele>2359.800048828125</ele>
        <time>2021-06-24T21:42:00.000Z</time>
        <extensions>
          <ns3:TrackPointExtension>
            <ns3:atemp>31.0</ns3:atemp>
            <ns3:hr>112</ns3:hr>
          </ns3:TrackPointExtension>
        </extensions>
      </trkpt>
      <trkpt lat="36.76506889052689075469970703125" lon="-118.46285381354391574859619140625">
        <ele>2360</ele>
        <time>2021-06-24T21:42:03.000Z</time>
        <extensions>
          <ns3:TrackPointExtension>
            <ns3:atemp>31.0</ns3:atemp>
            <ns3:hr>113</ns3:hr>
          </ns3:TrackPointExtension>
        </extensions>
      </trkpt>
      <trkpt lat="36.7650605924427509307861328125" lon="-118.46285230480134487152099609375">
        <ele>2360</ele>
        <time>2021-06-24T21:42:04.000Z</time>
        <extensions>
          <ns3:TrackPointExtension>
            <ns3:atemp>31.0</ns3:atemp>
            <ns3:hr>112</ns3:hr>
          </ns3:TrackPointExtension>
        </extensions>
      </trkpt>
      <trkpt lat="36.76505497656762599945068359375" lon="-118.462825901806354522705078125">
        <ele>2360.39990234375</ele>
        <time>2021-06-24T21:42:09.000Z</time>
        <extensions>
          <ns3:TrackPointExtension>
            <ns3:atemp>31.0</ns3:atemp>
            <ns3:hr>112</ns3:hr>
          </ns3:TrackPointExtension>
        </extensions>
      </trkpt>
      <trkpt lat="36.76505304872989654541015625" lon="-118.4628156758844852447509765625">
        <ele>2360.800048828125</ele>
        <time>2021-06-24T21:42:12.000Z</time>
        <extensions>
          <ns3:TrackPointExtension>
            <ns3:atemp>31.0</ns3:atemp>
            <ns3:hr>111</ns3:hr>
          </ns3:TrackPointExtension>
        </extensions>
      </trkpt>
      <trkpt lat="36.765007115900516510009765625" lon="-118.46279128454625606536865234375">
        <ele>2361.39990234375</ele>
        <time>2021-06-24T21:42:18.000Z</time>
        <extensions>
          <ns3:TrackPointExtension>
            <ns3:atemp>31.0</ns3:atemp>
            <ns3:hr>108</ns3:hr>
          </ns3:TrackPointExtension>
        </extensions>
      </trkpt>
      <trkpt lat="36.7649995721876621246337890625" lon="-118.46276463009417057037353515625">
        <ele>2361.60009765625</ele>
        <time>2021-06-24T21:42:21.000Z</time>
        <extensions>
          <ns3:TrackPointExtension>
            <ns3:atemp>31.0</ns3:atemp>
            <ns3:hr>108</ns3:hr>
          </ns3:TrackPointExtension>
        </extensions>
      </trkpt>
      <trkpt lat="36.76498507149517536163330078125" lon="-118.46276320517063140869140625">
        <ele>2361.800048828125</ele>
        <time>2021-06-24T21:42:23.000Z</time>
        <extensions>
          <ns3:TrackPointExtension>
            <ns3:atemp>31.0</ns3:atemp>
            <ns3:hr>111</ns3:hr>
          </ns3:TrackPointExtension>
        </extensions>
      </trkpt>
      <trkpt lat="36.764980293810367584228515625" lon="-118.46276513300836086273193359375">
        <ele>2362.199951171875</ele>
        <time>2021-06-24T21:42:24.000Z</time>
        <extensions>
          <ns3:TrackPointExtension>
            <ns3:atemp>31.0</ns3:atemp>
            <ns3:hr>113</ns3:hr>
          </ns3:TrackPointExtension>
        </extensions>
      </trkpt>
      <trkpt lat="36.7649734206497669219970703125" lon="-118.4627553261816501617431640625">
        <ele>2362.60009765625</ele>
        <time>2021-06-24T21:42:27.000Z</time>
        <extensions>
          <ns3:TrackPointExtension>
            <ns3:atemp>31.0</ns3:atemp>
            <ns3:hr>114</ns3:hr>
          </ns3:TrackPointExtension>
        </extensions>
      </trkpt>
      <trkpt lat="36.765027903020381927490234375" lon="-118.46267544664442539215087890625">
        <ele>2363.199951171875</ele>
        <time>2021-06-24T21:42:31.000Z</time>
        <extensions>
          <ns3:TrackPointExtension>
            <ns3:atemp>31.0</ns3:atemp>
            <ns3:hr>113</ns3:hr>
          </ns3:TrackPointExtension>
        </extensions>
      </trkpt>
      <trkpt lat="36.765035279095172882080078125" lon="-118.4626686573028564453125">
        <ele>2363.60009765625</ele>
        <time>2021-06-24T21:42:32.000Z</time>
        <extensions>
          <ns3:TrackPointExtension>
            <ns3:atemp>31.0</ns3:atemp>
            <ns3:hr>112</ns3:hr>
          </ns3:TrackPointExtension>
        </extensions>
      </trkpt>
      <trkpt lat="36.765037961304187774658203125" lon="-118.4626477025449275970458984375">
        <ele>2364.199951171875</ele>
        <time>2021-06-24T21:42:35.000Z</time>
        <extensions>
          <ns3:TrackPointExtension>
            <ns3:atemp>31.0</ns3:atemp>
            <ns3:hr>112</ns3:hr>
          </ns3:TrackPointExtension>
        </extensions>
      </trkpt>
      <trkpt lat="36.76504106260836124420166015625" lon="-118.46264175139367580413818359375">
        <ele>2364.199951171875</ele>
        <time>2021-06-24T21:42:36.000Z</time>
        <extensions>
          <ns3:TrackPointExtension>
            <ns3:atemp>31.0</ns3:atemp>
            <ns3:hr>112</ns3:hr>
          </ns3:TrackPointExtension>
        </extensions>
      </trkpt>
      <trkpt lat="36.765044666826725006103515625" lon="-118.46262783743441104888916015625">
        <ele>2364.800048828125</ele>
        <time>2021-06-24T21:42:39.000Z</time>
        <extensions>
          <ns3:TrackPointExtension>
            <ns3:atemp>31.0</ns3:atemp>
            <ns3:hr>113</ns3:hr>
          </ns3:TrackPointExtension>
        </extensions>
      </trkpt>
      <trkpt lat="36.7650532163679599761962890625" lon="-118.4626265801489353179931640625">
        <ele>2364.800048828125</ele>
        <time>2021-06-24T21:42:40.000Z</time>
        <extensions>
          <ns3:TrackPointExtension>
            <ns3:atemp>31.0</ns3:atemp>
            <ns3:hr>111</ns3:hr>
          </ns3:TrackPointExtension>
        </extensions>
      </trkpt>
      <trkpt lat="36.7650724947452545166015625" lon="-118.46262834034860134124755859375">
        <ele>2365.199951171875</ele>
        <time>2021-06-24T21:42:42.000Z</time>
        <extensions>
          <ns3:TrackPointExtension>
            <ns3:atemp>31.0</ns3:atemp>
            <ns3:hr>113</ns3:hr>
          </ns3:TrackPointExtension>
        </extensions>
      </trkpt>
      <trkpt lat="36.765082888305187225341796875" lon="-118.4626269154250621795654296875">
        <ele>2365.39990234375</ele>
        <time>2021-06-24T21:42:43.000Z</time>
        <extensions>
          <ns3:TrackPointExtension>
            <ns3:atemp>31.0</ns3:atemp>
            <ns3:hr>114</ns3:hr>
          </ns3:TrackPointExtension>
        </extensions>
      </trkpt>
      <trkpt lat="36.765119768679141998291015625" lon="-118.46259833313524723052978515625">
        <ele>2366</ele>
        <time>2021-06-24T21:42:47.000Z</time>
        <extensions>
          <ns3:TrackPointExtension>
            <ns3:atemp>31.0</ns3:atemp>
            <ns3:hr>116</ns3:hr>
          </ns3:TrackPointExtension>
        </extensions>
      </trkpt>
      <trkpt lat="36.76512789912521839141845703125" lon="-118.4625920467078685760498046875">
        <ele>2366.60009765625</ele>
        <time>2021-06-24T21:42:49.000Z</time>
        <extensions>
          <ns3:TrackPointExtension>
            <ns3:atemp>31.0</ns3:atemp>
            <ns3:hr>118</ns3:hr>
          </ns3:TrackPointExtension>
        </extensions>
      </trkpt>
      <trkpt lat="36.76512588746845722198486328125" lon="-118.4625880233943462371826171875">
        <ele>2366.800048828125</ele>
        <time>2021-06-24T21:42:51.000Z</time>
        <extensions>
          <ns3:TrackPointExtension>
            <ns3:atemp>31.0</ns3:atemp>
            <ns3:hr>118</ns3:hr>
          </ns3:TrackPointExtension>
        </extensions>
      </trkpt>
      <trkpt lat="36.76513343118131160736083984375" lon="-118.46257452853024005889892578125">
        <ele>2367</ele>
        <time>2021-06-24T21:42:53.000Z</time>
        <extensions>
          <ns3:TrackPointExtension>
            <ns3:atemp>31.0</ns3:atemp>
            <ns3:hr>118</ns3:hr>
          </ns3:TrackPointExtension>
        </extensions>
      </trkpt>
      <trkpt lat="36.76514097489416599273681640625" lon="-118.462565727531909942626953125">
        <ele>2367</ele>
        <time>2021-06-24T21:42:54.000Z</time>
        <extensions>
          <ns3:TrackPointExtension>
            <ns3:atemp>31.0</ns3:atemp>
            <ns3:hr>118</ns3:hr>
          </ns3:TrackPointExtension>
        </extensions>
      </trkpt>
      <trkpt lat="36.76514784805476665496826171875" lon="-118.46255742944777011871337890625">
        <ele>2367.199951171875</ele>
        <time>2021-06-24T21:42:55.000Z</time>
        <extensions>
          <ns3:TrackPointExtension>
            <ns3:atemp>31.0</ns3:atemp>
            <ns3:hr>118</ns3:hr>
          </ns3:TrackPointExtension>
        </extensions>
      </trkpt>
      <trkpt lat="36.76516226492822170257568359375" lon="-118.46254603005945682525634765625">
        <ele>2367.60009765625</ele>
        <time>2021-06-24T21:42:59.000Z</time>
        <extensions>
          <ns3:TrackPointExtension>
            <ns3:atemp>31.0</ns3:atemp>
            <ns3:hr>116</ns3:hr>
          </ns3:TrackPointExtension>
        </extensions>
      </trkpt>
      <trkpt lat="36.76516511477530002593994140625" lon="-118.46253798343241214752197265625">
        <ele>2368</ele>
        <time>2021-06-24T21:43:01.000Z</time>
        <extensions>
          <ns3:TrackPointExtension>
            <ns3:atemp>31.0</ns3:atemp>
            <ns3:hr>116</ns3:hr>
          </ns3:TrackPointExtension>
        </extensions>
      </trkpt>
      <trkpt lat="36.76516209729015827178955078125" lon="-118.46252909861505031585693359375">
        <ele>2368.199951171875</ele>
        <time>2021-06-24T21:43:02.000Z</time>
        <extensions>
          <ns3:TrackPointExtension>
            <ns3:atemp>31.0</ns3:atemp>
            <ns3:hr>116</ns3:hr>
          </ns3:TrackPointExtension>
        </extensions>
      </trkpt>
      <trkpt lat="36.7651571519672870635986328125" lon="-118.4625117480754852294921875">
        <ele>2368.39990234375</ele>
        <time>2021-06-24T21:43:03.000Z</time>
        <extensions>
          <ns3:TrackPointExtension>
            <ns3:atemp>31.0</ns3:atemp>
            <ns3:hr>117</ns3:hr>
          </ns3:TrackPointExtension>
        </extensions>
      </trkpt>
      <trkpt lat="36.76515371538698673248291015625" lon="-118.46249406225979328155517578125">
        <ele>2368.60009765625</ele>
        <time>2021-06-24T21:43:04.000Z</time>
        <extensions>
          <ns3:TrackPointExtension>
            <ns3:atemp>31.0</ns3:atemp>
            <ns3:hr>117</ns3:hr>
          </ns3:TrackPointExtension>
        </extensions>
      </trkpt>
      <trkpt lat="36.76513510756194591522216796875" lon="-118.4624803997576236724853515625">
        <ele>2368.800048828125</ele>
        <time>2021-06-24T21:43:05.000Z</time>
        <extensions>
          <ns3:TrackPointExtension>
            <ns3:atemp>31.0</ns3:atemp>
            <ns3:hr>117</ns3:hr>
          </ns3:TrackPointExtension>
        </extensions>
      </trkpt>
      <trkpt lat="36.7651014961302280426025390625" lon="-118.46244930289685726165771484375">
        <ele>2368.800048828125</ele>
        <time>2021-06-24T21:43:07.000Z</time>
        <extensions>
          <ns3:TrackPointExtension>
            <ns3:atemp>31.0</ns3:atemp>
            <ns3:hr>118</ns3:hr>
          </ns3:TrackPointExtension>
        </extensions>
      </trkpt>
      <trkpt lat="36.7650833912193775177001953125" lon="-118.4624393284320831298828125">
        <ele>2369</ele>
        <time>2021-06-24T21:43:08.000Z</time>
        <extensions>
          <ns3:TrackPointExtension>
            <ns3:atemp>31.0</ns3:atemp>
            <ns3:hr>118</ns3:hr>
          </ns3:TrackPointExtension>
        </extensions>
      </trkpt>
      <trkpt lat="36.7650478519499301910400390625" lon="-118.46240839920938014984130859375">
        <ele>2369.800048828125</ele>
        <time>2021-06-24T21:43:12.000Z</time>
        <extensions>
          <ns3:TrackPointExtension>
            <ns3:atemp>31.0</ns3:atemp>
            <ns3:hr>120</ns3:hr>
          </ns3:TrackPointExtension>
        </extensions>
      </trkpt>
      <trkpt lat="36.76505799405276775360107421875" lon="-118.4624004364013671875">
        <ele>2370</ele>
        <time>2021-06-24T21:43:14.000Z</time>
        <extensions>
          <ns3:TrackPointExtension>
            <ns3:atemp>31.0</ns3:atemp>
            <ns3:hr>121</ns3:hr>
          </ns3:TrackPointExtension>
        </extensions>
      </trkpt>
      <trkpt lat="36.7650605924427509307861328125" lon="-118.462394066154956817626953125">
        <ele>2370.199951171875</ele>
        <time>2021-06-24T21:43:15.000Z</time>
        <extensions>
          <ns3:TrackPointExtension>
            <ns3:atemp>31.0</ns3:atemp>
            <ns3:hr>121</ns3:hr>
          </ns3:TrackPointExtension>
        </extensions>
      </trkpt>
      <trkpt lat="36.76507157273590564727783203125" lon="-118.4623727761209011077880859375">
        <ele>2370.800048828125</ele>
        <time>2021-06-24T21:43:18.000Z</time>
        <extensions>
          <ns3:TrackPointExtension>
            <ns3:atemp>31.0</ns3:atemp>
            <ns3:hr>120</ns3:hr>
          </ns3:TrackPointExtension>
        </extensions>
      </trkpt>
      <trkpt lat="36.76506771706044673919677734375" lon="-118.46236355602741241455078125">
        <ele>2371</ele>
        <time>2021-06-24T21:43:19.000Z</time>
        <extensions>
          <ns3:TrackPointExtension>
            <ns3:atemp>31.0</ns3:atemp>
            <ns3:hr>119</ns3:hr>
          </ns3:TrackPointExtension>
        </extensions>
      </trkpt>
      <trkpt lat="36.76505330018699169158935546875" lon="-118.46235995180904865264892578125">
        <ele>2371.199951171875</ele>
        <time>2021-06-24T21:43:21.000Z</time>
        <extensions>
          <ns3:TrackPointExtension>
            <ns3:atemp>31.0</ns3:atemp>
            <ns3:hr>118</ns3:hr>
          </ns3:TrackPointExtension>
        </extensions>
      </trkpt>
      <trkpt lat="36.76504810340702533721923828125" lon="-118.46234670840203762054443359375">
        <ele>2371.60009765625</ele>
        <time>2021-06-24T21:43:24.000Z</time>
        <extensions>
          <ns3:TrackPointExtension>
            <ns3:atemp>31.0</ns3:atemp>
            <ns3:hr>117</ns3:hr>
          </ns3:TrackPointExtension>
        </extensions>
      </trkpt>
      <trkpt lat="36.7650488577783107757568359375" lon="-118.46233631484210491180419921875">
        <ele>2371.800048828125</ele>
        <time>2021-06-24T21:43:27.000Z</time>
        <extensions>
          <ns3:TrackPointExtension>
            <ns3:atemp>31.0</ns3:atemp>
            <ns3:hr>115</ns3:hr>
          </ns3:TrackPointExtension>
        </extensions>
      </trkpt>
      <trkpt lat="36.76505045033991336822509765625" lon="-118.46233271062374114990234375">
        <ele>2372</ele>
        <time>2021-06-24T21:43:28.000Z</time>
        <extensions>
          <ns3:TrackPointExtension>
            <ns3:atemp>31.0</ns3:atemp>
            <ns3:hr>115</ns3:hr>
          </ns3:TrackPointExtension>
        </extensions>
      </trkpt>
      <trkpt lat="36.7650548927485942840576171875" lon="-118.4623298607766628265380859375">
        <ele>2372.199951171875</ele>
        <time>2021-06-24T21:43:29.000Z</time>
        <extensions>
          <ns3:TrackPointExtension>
            <ns3:atemp>30.0</ns3:atemp>
            <ns3:hr>114</ns3:hr>
          </ns3:TrackPointExtension>
        </extensions>
      </trkpt>
      <trkpt lat="36.76506235264241695404052734375" lon="-118.46229440532624721527099609375">
        <ele>2372.800048828125</ele>
        <time>2021-06-24T21:43:34.000Z</time>
        <extensions>
          <ns3:TrackPointExtension>
            <ns3:atemp>31.0</ns3:atemp>
            <ns3:hr>116</ns3:hr>
          </ns3:TrackPointExtension>
        </extensions>
      </trkpt>
      <trkpt lat="36.7650478519499301910400390625" lon="-118.4622715227305889129638671875">
        <ele>2373</ele>
        <time>2021-06-24T21:43:36.000Z</time>
        <extensions>
          <ns3:TrackPointExtension>
            <ns3:atemp>31.0</ns3:atemp>
            <ns3:hr>117</ns3:hr>
          </ns3:TrackPointExtension>
        </extensions>
      </trkpt>
      <trkpt lat="36.7650310881435871124267578125" lon="-118.4622436948120594024658203125">
        <ele>2373.39990234375</ele>
        <time>2021-06-24T21:43:39.000Z</time>
        <extensions>
          <ns3:TrackPointExtension>
            <ns3:atemp>30.0</ns3:atemp>
            <ns3:hr>117</ns3:hr>
          </ns3:TrackPointExtension>
        </extensions>
      </trkpt>
      <trkpt lat="36.7650320939719676971435546875" lon="-118.4622140228748321533203125">
        <ele>2374</ele>
        <time>2021-06-24T21:43:43.000Z</time>
        <extensions>
          <ns3:TrackPointExtension>
            <ns3:atemp>30.0</ns3:atemp>
            <ns3:hr>119</ns3:hr>
          </ns3:TrackPointExtension>
        </extensions>
      </trkpt>
      <trkpt lat="36.76505715586245059967041015625" lon="-118.46218024380505084991455078125">
        <ele>2375</ele>
        <time>2021-06-24T21:43:49.000Z</time>
        <extensions>
          <ns3:TrackPointExtension>
            <ns3:atemp>30.0</ns3:atemp>
            <ns3:hr>120</ns3:hr>
          </ns3:TrackPointExtension>
        </extensions>
      </trkpt>
      <trkpt lat="36.76506436429917812347412109375" lon="-118.46217085607349872589111328125">
        <ele>2375.199951171875</ele>
        <time>2021-06-24T21:43:51.000Z</time>
        <extensions>
          <ns3:TrackPointExtension>
            <ns3:atemp>30.0</ns3:atemp>
            <ns3:hr>119</ns3:hr>
          </ns3:TrackPointExtension>
        </extensions>
      </trkpt>
      <trkpt lat="36.76506654359400272369384765625" lon="-118.4621501527726650238037109375">
        <ele>2376.199951171875</ele>
        <time>2021-06-24T21:43:55.000Z</time>
        <extensions>
          <ns3:TrackPointExtension>
            <ns3:atemp>30.0</ns3:atemp>
            <ns3:hr>117</ns3:hr>
          </ns3:TrackPointExtension>
        </extensions>
      </trkpt>
      <trkpt lat="36.76506738178431987762451171875" lon="-118.4621206484735012054443359375">
        <ele>2376.60009765625</ele>
        <time>2021-06-24T21:43:58.000Z</time>
        <extensions>
          <ns3:TrackPointExtension>
            <ns3:atemp>30.0</ns3:atemp>
            <ns3:hr>116</ns3:hr>
          </ns3:TrackPointExtension>
        </extensions>
      </trkpt>
      <trkpt lat="36.765043996274471282958984375" lon="-118.46206205897033214569091796875">
        <ele>2377.199951171875</ele>
        <time>2021-06-24T21:44:03.000Z</time>
        <extensions>
          <ns3:TrackPointExtension>
            <ns3:atemp>30.0</ns3:atemp>
            <ns3:hr>117</ns3:hr>
          </ns3:TrackPointExtension>
        </extensions>
      </trkpt>
      <trkpt lat="36.76503486000001430511474609375" lon="-118.46204177476465702056884765625">
        <ele>2377.39990234375</ele>
        <time>2021-06-24T21:44:05.000Z</time>
        <extensions>
          <ns3:TrackPointExtension>
            <ns3:atemp>30.0</ns3:atemp>
            <ns3:hr>117</ns3:hr>
          </ns3:TrackPointExtension>
        </extensions>
      </trkpt>
      <trkpt lat="36.76501742564141750335693359375" lon="-118.4620291180908679962158203125">
        <ele>2378</ele>
        <time>2021-06-24T21:44:08.000Z</time>
        <extensions>
          <ns3:TrackPointExtension>
            <ns3:atemp>30.0</ns3:atemp>
            <ns3:hr>118</ns3:hr>
          </ns3:TrackPointExtension>
        </extensions>
      </trkpt>
      <trkpt lat="36.76501683890819549560546875" lon="-118.46202719025313854217529296875">
        <ele>2378.39990234375</ele>
        <time>2021-06-24T21:44:09.000Z</time>
        <extensions>
          <ns3:TrackPointExtension>
            <ns3:atemp>30.0</ns3:atemp>
            <ns3:hr>118</ns3:hr>
          </ns3:TrackPointExtension>
        </extensions>
      </trkpt>
      <trkpt lat="36.765013821423053741455078125" lon="-118.4620101749897003173828125">
        <ele>2378.60009765625</ele>
        <time>2021-06-24T21:44:11.000Z</time>
        <extensions>
          <ns3:TrackPointExtension>
            <ns3:atemp>30.0</ns3:atemp>
            <ns3:hr>118</ns3:hr>
          </ns3:TrackPointExtension>
        </extensions>
      </trkpt>
      <trkpt lat="36.76501281559467315673828125" lon="-118.4619962610304355621337890625">
        <ele>2378.800048828125</ele>
        <time>2021-06-24T21:44:12.000Z</time>
        <extensions>
          <ns3:TrackPointExtension>
            <ns3:atemp>30.0</ns3:atemp>
            <ns3:hr>118</ns3:hr>
          </ns3:TrackPointExtension>
        </extensions>
      </trkpt>
      <trkpt lat="36.76500284112989902496337890625" lon="-118.461980335414409637451171875">
        <ele>2378.800048828125</ele>
        <time>2021-06-24T21:44:14.000Z</time>
        <extensions>
          <ns3:TrackPointExtension>
            <ns3:atemp>30.0</ns3:atemp>
            <ns3:hr>117</ns3:hr>
          </ns3:TrackPointExtension>
        </extensions>
      </trkpt>
      <trkpt lat="36.76496847532689571380615234375" lon="-118.46193976700305938720703125">
        <ele>2378.800048828125</ele>
        <time>2021-06-24T21:44:17.000Z</time>
        <extensions>
          <ns3:TrackPointExtension>
            <ns3:atemp>30.0</ns3:atemp>
            <ns3:hr>116</ns3:hr>
          </ns3:TrackPointExtension>
        </extensions>
      </trkpt>
      <trkpt lat="36.7649499513208866119384765625" lon="-118.4618986956775188446044921875">
        <ele>2379.199951171875</ele>
        <time>2021-06-24T21:44:21.000Z</time>
        <extensions>
          <ns3:TrackPointExtension>
            <ns3:atemp>30.0</ns3:atemp>
            <ns3:hr>115</ns3:hr>
          </ns3:TrackPointExtension>
        </extensions>
      </trkpt>
      <trkpt lat="36.7649536393582820892333984375" lon="-118.46187665127217769622802734375">
        <ele>2379.199951171875</ele>
        <time>2021-06-24T21:44:23.000Z</time>
        <extensions>
          <ns3:TrackPointExtension>
            <ns3:atemp>30.0</ns3:atemp>
            <ns3:hr>117</ns3:hr>
          </ns3:TrackPointExtension>
        </extensions>
      </trkpt>
      <trkpt lat="36.7649491131305694580078125" lon="-118.46186692826449871063232421875">
        <ele>2379.199951171875</ele>
        <time>2021-06-24T21:44:24.000Z</time>
        <extensions>
          <ns3:TrackPointExtension>
            <ns3:atemp>30.0</ns3:atemp>
            <ns3:hr>117</ns3:hr>
          </ns3:TrackPointExtension>
        </extensions>
      </trkpt>
      <trkpt lat="36.76494601182639598846435546875" lon="-118.46184790134429931640625">
        <ele>2379.60009765625</ele>
        <time>2021-06-24T21:44:26.000Z</time>
        <extensions>
          <ns3:TrackPointExtension>
            <ns3:atemp>30.0</ns3:atemp>
            <ns3:hr>119</ns3:hr>
          </ns3:TrackPointExtension>
        </extensions>
      </trkpt>
      <trkpt lat="36.7649244703352451324462890625" lon="-118.461809344589710235595703125">
        <ele>2380.199951171875</ele>
        <time>2021-06-24T21:44:31.000Z</time>
        <extensions>
          <ns3:TrackPointExtension>
            <ns3:atemp>30.0</ns3:atemp>
            <ns3:hr>122</ns3:hr>
          </ns3:TrackPointExtension>
        </extensions>
      </trkpt>
      <trkpt lat="36.76488482393324375152587890625" lon="-118.4617629088461399078369140625">
        <ele>2380.800048828125</ele>
        <time>2021-06-24T21:44:36.000Z</time>
        <extensions>
          <ns3:TrackPointExtension>
            <ns3:atemp>30.0</ns3:atemp>
            <ns3:hr>121</ns3:hr>
          </ns3:TrackPointExtension>
        </extensions>
      </trkpt>
      <trkpt lat="36.7648554034531116485595703125" lon="-118.46173751167953014373779296875">
        <ele>2380.800048828125</ele>
        <time>2021-06-24T21:44:39.000Z</time>
        <extensions>
          <ns3:TrackPointExtension>
            <ns3:atemp>30.0</ns3:atemp>
            <ns3:hr>121</ns3:hr>
          </ns3:TrackPointExtension>
        </extensions>
      </trkpt>
      <trkpt lat="36.76478709094226360321044921875" lon="-118.46171320416033267974853515625">
        <ele>2381.199951171875</ele>
        <time>2021-06-24T21:44:45.000Z</time>
        <extensions>
          <ns3:TrackPointExtension>
            <ns3:atemp>30.0</ns3:atemp>
            <ns3:hr>118</ns3:hr>
          </ns3:TrackPointExtension>
        </extensions>
      </trkpt>
      <trkpt lat="36.76476948894560337066650390625" lon="-118.461703397333621978759765625">
        <ele>2381.39990234375</ele>
        <time>2021-06-24T21:44:47.000Z</time>
        <extensions>
          <ns3:TrackPointExtension>
            <ns3:atemp>30.0</ns3:atemp>
            <ns3:hr>117</ns3:hr>
          </ns3:TrackPointExtension>
        </extensions>
      </trkpt>
      <trkpt lat="36.76475037820637226104736328125" lon="-118.46170163713395595550537109375">
        <ele>2382</ele>
        <time>2021-06-24T21:44:52.000Z</time>
        <extensions>
          <ns3:TrackPointExtension>
            <ns3:atemp>30.0</ns3:atemp>
            <ns3:hr>114</ns3:hr>
          </ns3:TrackPointExtension>
        </extensions>
      </trkpt>
      <trkpt lat="36.76473931409418582916259765625" lon="-118.46170641481876373291015625">
        <ele>2382.199951171875</ele>
        <time>2021-06-24T21:44:53.000Z</time>
        <extensions>
          <ns3:TrackPointExtension>
            <ns3:atemp>30.0</ns3:atemp>
            <ns3:hr>114</ns3:hr>
          </ns3:TrackPointExtension>
        </extensions>
      </trkpt>
      <trkpt lat="36.76472288556396961212158203125" lon="-118.46168495714664459228515625">
        <ele>2383</ele>
        <time>2021-06-24T21:44:58.000Z</time>
        <extensions>
          <ns3:TrackPointExtension>
            <ns3:atemp>30.0</ns3:atemp>
            <ns3:hr>114</ns3:hr>
          </ns3:TrackPointExtension>
        </extensions>
      </trkpt>
      <trkpt lat="36.76470863632857799530029296875" lon="-118.46167179755866527557373046875">
        <ele>2383.199951171875</ele>
        <time>2021-06-24T21:45:01.000Z</time>
        <extensions>
          <ns3:TrackPointExtension>
            <ns3:atemp>30.0</ns3:atemp>
            <ns3:hr>116</ns3:hr>
          </ns3:TrackPointExtension>
        </extensions>
      </trkpt>
      <trkpt lat="36.76467862911522388458251953125" lon="-118.461654447019100189208984375">
        <ele>2383.60009765625</ele>
        <time>2021-06-24T21:45:04.000Z</time>
        <extensions>
          <ns3:TrackPointExtension>
            <ns3:atemp>30.0</ns3:atemp>
            <ns3:hr>119</ns3:hr>
          </ns3:TrackPointExtension>
        </extensions>
      </trkpt>
      <trkpt lat="36.7646170221269130706787109375" lon="-118.4616319835186004638671875">
        <ele>2383.60009765625</ele>
        <time>2021-06-24T21:45:09.000Z</time>
        <extensions>
          <ns3:TrackPointExtension>
            <ns3:atemp>30.0</ns3:atemp>
            <ns3:hr>117</ns3:hr>
          </ns3:TrackPointExtension>
        </extensions>
      </trkpt>
      <trkpt lat="36.76455658860504627227783203125" lon="-118.46159870736300945281982421875">
        <ele>2383.39990234375</ele>
        <time>2021-06-24T21:45:14.000Z</time>
        <extensions>
          <ns3:TrackPointExtension>
            <ns3:atemp>30.0</ns3:atemp>
            <ns3:hr>118</ns3:hr>
          </ns3:TrackPointExtension>
        </extensions>
      </trkpt>
      <trkpt lat="36.76453982479870319366455078125" lon="-118.4615855477750301361083984375">
        <ele>2383.60009765625</ele>
        <time>2021-06-24T21:45:16.000Z</time>
        <extensions>
          <ns3:TrackPointExtension>
            <ns3:atemp>30.0</ns3:atemp>
            <ns3:hr>116</ns3:hr>
          </ns3:TrackPointExtension>
        </extensions>
      </trkpt>
      <trkpt lat="36.764518283307552337646484375" lon="-118.46158060245215892791748046875">
        <ele>2383.60009765625</ele>
        <time>2021-06-24T21:45:18.000Z</time>
        <extensions>
          <ns3:TrackPointExtension>
            <ns3:atemp>30.0</ns3:atemp>
            <ns3:hr>114</ns3:hr>
          </ns3:TrackPointExtension>
        </extensions>
      </trkpt>
      <trkpt lat="36.76449556834995746612548828125" lon="-118.4615701250731945037841796875">
        <ele>2383.60009765625</ele>
        <time>2021-06-24T21:45:20.000Z</time>
        <extensions>
          <ns3:TrackPointExtension>
            <ns3:atemp>30.0</ns3:atemp>
            <ns3:hr>111</ns3:hr>
          </ns3:TrackPointExtension>
        </extensions>
      </trkpt>
      <trkpt lat="36.76448299549520015716552734375" lon="-118.46155813895165920257568359375">
        <ele>2383.800048828125</ele>
        <time>2021-06-24T21:45:22.000Z</time>
        <extensions>
          <ns3:TrackPointExtension>
            <ns3:atemp>30.0</ns3:atemp>
            <ns3:hr>108</ns3:hr>
          </ns3:TrackPointExtension>
        </extensions>
      </trkpt>
      <trkpt lat="36.76446874625980854034423828125" lon="-118.46154707483947277069091796875">
        <ele>2383.800048828125</ele>
        <time>2021-06-24T21:45:24.000Z</time>
        <extensions>
          <ns3:TrackPointExtension>
            <ns3:atemp>30.0</ns3:atemp>
            <ns3:hr>106</ns3:hr>
          </ns3:TrackPointExtension>
        </extensions>
      </trkpt>
      <trkpt lat="36.76442147232592105865478515625" lon="-118.4615335799753665924072265625">
        <ele>2384</ele>
        <time>2021-06-24T21:45:30.000Z</time>
        <extensions>
          <ns3:TrackPointExtension>
            <ns3:atemp>30.0</ns3:atemp>
            <ns3:hr>107</ns3:hr>
          </ns3:TrackPointExtension>
        </extensions>
      </trkpt>
      <trkpt lat="36.76440621726214885711669921875" lon="-118.46153668127954006195068359375">
        <ele>2384.199951171875</ele>
        <time>2021-06-24T21:45:32.000Z</time>
        <extensions>
          <ns3:TrackPointExtension>
            <ns3:atemp>30.0</ns3:atemp>
            <ns3:hr>109</ns3:hr>
          </ns3:TrackPointExtension>
        </extensions>
      </trkpt>
      <trkpt lat="36.764365397393703460693359375" lon="-118.46151388250291347503662109375">
        <ele>2385.199951171875</ele>
        <time>2021-06-24T21:45:39.000Z</time>
        <extensions>
          <ns3:TrackPointExtension>
            <ns3:atemp>30.0</ns3:atemp>
            <ns3:hr>110</ns3:hr>
          </ns3:TrackPointExtension>
        </extensions>
      </trkpt>
      <trkpt lat="36.76435835659503936767578125" lon="-118.461508937180042266845703125">
        <ele>2385.199951171875</ele>
        <time>2021-06-24T21:45:40.000Z</time>
        <extensions>
          <ns3:TrackPointExtension>
            <ns3:atemp>30.0</ns3:atemp>
            <ns3:hr>109</ns3:hr>
          </ns3:TrackPointExtension>
        </extensions>
      </trkpt>
      <trkpt lat="36.764261461794376373291015625" lon="-118.46145671792328357696533203125">
        <ele>2384.60009765625</ele>
        <time>2021-06-24T21:45:50.000Z</time>
        <extensions>
          <ns3:TrackPointExtension>
            <ns3:atemp>31.0</ns3:atemp>
            <ns3:hr>109</ns3:hr>
          </ns3:TrackPointExtension>
        </extensions>
      </trkpt>
      <trkpt lat="36.76424981094896793365478515625" lon="-118.4614440612494945526123046875">
        <ele>2384.800048828125</ele>
        <time>2021-06-24T21:45:52.000Z</time>
        <extensions>
          <ns3:TrackPointExtension>
            <ns3:atemp>31.0</ns3:atemp>
            <ns3:hr>108</ns3:hr>
          </ns3:TrackPointExtension>
        </extensions>
      </trkpt>
      <trkpt lat="36.76423204131424427032470703125" lon="-118.4614254534244537353515625">
        <ele>2385</ele>
        <time>2021-06-24T21:45:56.000Z</time>
        <extensions>
          <ns3:TrackPointExtension>
            <ns3:atemp>31.0</ns3:atemp>
            <ns3:hr>105</ns3:hr>
          </ns3:TrackPointExtension>
        </extensions>
      </trkpt>
      <trkpt lat="36.7642099969089031219482421875" lon="-118.461417742073535919189453125">
        <ele>2385.39990234375</ele>
        <time>2021-06-24T21:45:59.000Z</time>
        <extensions>
          <ns3:TrackPointExtension>
            <ns3:atemp>31.0</ns3:atemp>
            <ns3:hr>104</ns3:hr>
          </ns3:TrackPointExtension>
        </extensions>
      </trkpt>
      <trkpt lat="36.7641704343259334564208984375" lon="-118.461380191147327423095703125">
        <ele>2386.199951171875</ele>
        <time>2021-06-24T21:46:05.000Z</time>
        <extensions>
          <ns3:TrackPointExtension>
            <ns3:atemp>31.0</ns3:atemp>
            <ns3:hr>107</ns3:hr>
          </ns3:TrackPointExtension>
        </extensions>
      </trkpt>
      <trkpt lat="36.76415274851024150848388671875" lon="-118.46136300824582576751708984375">
        <ele>2386.199951171875</ele>
        <time>2021-06-24T21:46:07.000Z</time>
        <extensions>
          <ns3:TrackPointExtension>
            <ns3:atemp>31.0</ns3:atemp>
            <ns3:hr>108</ns3:hr>
          </ns3:TrackPointExtension>
        </extensions>
      </trkpt>
      <trkpt lat="36.764117293059825897216796875" lon="-118.4613515250384807586669921875">
        <ele>2386.39990234375</ele>
        <time>2021-06-24T21:46:12.000Z</time>
        <extensions>
          <ns3:TrackPointExtension>
            <ns3:atemp>31.0</ns3:atemp>
            <ns3:hr>111</ns3:hr>
          </ns3:TrackPointExtension>
        </extensions>
      </trkpt>
      <trkpt lat="36.76410296000540256500244140625" lon="-118.46132688224315643310546875">
        <ele>2386.60009765625</ele>
        <time>2021-06-24T21:46:15.000Z</time>
        <extensions>
          <ns3:TrackPointExtension>
            <ns3:atemp>31.0</ns3:atemp>
            <ns3:hr>112</ns3:hr>
          </ns3:TrackPointExtension>
        </extensions>
      </trkpt>
      <trkpt lat="36.76406691782176494598388671875" lon="-118.46128530800342559814453125">
        <ele>2386</ele>
        <time>2021-06-24T21:46:22.000Z</time>
        <extensions>
          <ns3:TrackPointExtension>
            <ns3:atemp>31.0</ns3:atemp>
            <ns3:hr>115</ns3:hr>
          </ns3:TrackPointExtension>
        </extensions>
      </trkpt>
      <trkpt lat="36.76406088285148143768310546875" lon="-118.461284637451171875">
        <ele>2386.199951171875</ele>
        <time>2021-06-24T21:46:23.000Z</time>
        <extensions>
          <ns3:TrackPointExtension>
            <ns3:atemp>31.0</ns3:atemp>
            <ns3:hr>114</ns3:hr>
          </ns3:TrackPointExtension>
        </extensions>
      </trkpt>
      <trkpt lat="36.7640586197376251220703125" lon="-118.46128304488956928253173828125">
        <ele>2386</ele>
        <time>2021-06-24T21:46:24.000Z</time>
        <extensions>
          <ns3:TrackPointExtension>
            <ns3:atemp>31.0</ns3:atemp>
            <ns3:hr>113</ns3:hr>
          </ns3:TrackPointExtension>
        </extensions>
      </trkpt>
      <trkpt lat="36.764028780162334442138671875" lon="-118.46128153614699840545654296875">
        <ele>2385.39990234375</ele>
        <time>2021-06-24T21:46:30.000Z</time>
        <extensions>
          <ns3:TrackPointExtension>
            <ns3:atemp>31.0</ns3:atemp>
            <ns3:hr>115</ns3:hr>
          </ns3:TrackPointExtension>
        </extensions>
      </trkpt>
      <trkpt lat="36.76399902440607547760009765625" lon="-118.4612841345369815826416015625">
        <ele>2385.199951171875</ele>
        <time>2021-06-24T21:46:33.000Z</time>
        <extensions>
          <ns3:TrackPointExtension>
            <ns3:atemp>31.0</ns3:atemp>
            <ns3:hr>115</ns3:hr>
          </ns3:TrackPointExtension>
        </extensions>
      </trkpt>
      <trkpt lat="36.7639786563813686370849609375" lon="-118.46126443706452846527099609375">
        <ele>2385</ele>
        <time>2021-06-24T21:46:36.000Z</time>
        <extensions>
          <ns3:TrackPointExtension>
            <ns3:atemp>31.0</ns3:atemp>
            <ns3:hr>115</ns3:hr>
          </ns3:TrackPointExtension>
        </extensions>
      </trkpt>
      <trkpt lat="36.763971112668514251708984375" lon="-118.46122923307120800018310546875">
        <ele>2384.800048828125</ele>
        <time>2021-06-24T21:46:40.000Z</time>
        <extensions>
          <ns3:TrackPointExtension>
            <ns3:atemp>31.0</ns3:atemp>
            <ns3:hr>112</ns3:hr>
          </ns3:TrackPointExtension>
        </extensions>
      </trkpt>
      <trkpt lat="36.76395057700574398040771484375" lon="-118.46121557056903839111328125">
        <ele>2384.60009765625</ele>
        <time>2021-06-24T21:46:43.000Z</time>
        <extensions>
          <ns3:TrackPointExtension>
            <ns3:atemp>31.0</ns3:atemp>
            <ns3:hr>112</ns3:hr>
          </ns3:TrackPointExtension>
        </extensions>
      </trkpt>
      <trkpt lat="36.76393984816968441009521484375" lon="-118.46119302324950695037841796875">
        <ele>2384.39990234375</ele>
        <time>2021-06-24T21:46:46.000Z</time>
        <extensions>
          <ns3:TrackPointExtension>
            <ns3:atemp>31.0</ns3:atemp>
            <ns3:hr>109</ns3:hr>
          </ns3:TrackPointExtension>
        </extensions>
      </trkpt>
      <trkpt lat="36.76391956396400928497314453125" lon="-118.461157567799091339111328125">
        <ele>2384.39990234375</ele>
        <time>2021-06-24T21:46:50.000Z</time>
        <extensions>
          <ns3:TrackPointExtension>
            <ns3:atemp>31.0</ns3:atemp>
            <ns3:hr>107</ns3:hr>
          </ns3:TrackPointExtension>
        </extensions>
      </trkpt>
      <trkpt lat="36.76388871856033802032470703125" lon="-118.4610993973910808563232421875">
        <ele>2385.39990234375</ele>
        <time>2021-06-24T21:46:57.000Z</time>
        <extensions>
          <ns3:TrackPointExtension>
            <ns3:atemp>31.0</ns3:atemp>
            <ns3:hr>107</ns3:hr>
          </ns3:TrackPointExtension>
        </extensions>
      </trkpt>
      <trkpt lat="36.76388285122811794281005859375" lon="-118.46104483120143413543701171875">
        <ele>2385.60009765625</ele>
        <time>2021-06-24T21:47:03.000Z</time>
        <extensions>
          <ns3:TrackPointExtension>
            <ns3:atemp>31.0</ns3:atemp>
            <ns3:hr>107</ns3:hr>
          </ns3:TrackPointExtension>
        </extensions>
      </trkpt>
      <trkpt lat="36.763869188725948333740234375" lon="-118.4609817154705524444580078125">
        <ele>2386.199951171875</ele>
        <time>2021-06-24T21:47:10.000Z</time>
        <extensions>
          <ns3:TrackPointExtension>
            <ns3:atemp>31.0</ns3:atemp>
            <ns3:hr>108</ns3:hr>
          </ns3:TrackPointExtension>
        </extensions>
      </trkpt>
      <trkpt lat="36.7638676799833774566650390625" lon="-118.46096436493098735809326171875">
        <ele>2386.60009765625</ele>
        <time>2021-06-24T21:47:12.000Z</time>
        <extensions>
          <ns3:TrackPointExtension>
            <ns3:atemp>31.0</ns3:atemp>
            <ns3:hr>110</ns3:hr>
          </ns3:TrackPointExtension>
        </extensions>
      </trkpt>
      <trkpt lat="36.76383524201810359954833984375" lon="-118.460908792912960052490234375">
        <ele>2386.800048828125</ele>
        <time>2021-06-24T21:47:19.000Z</time>
        <extensions>
          <ns3:TrackPointExtension>
            <ns3:atemp>31.0</ns3:atemp>
            <ns3:hr>113</ns3:hr>
          </ns3:TrackPointExtension>
        </extensions>
      </trkpt>
      <trkpt lat="36.763819567859172821044921875" lon="-118.460875265300273895263671875">
        <ele>2387</ele>
        <time>2021-06-24T21:47:23.000Z</time>
        <extensions>
          <ns3:TrackPointExtension>
            <ns3:atemp>31.0</ns3:atemp>
            <ns3:hr>116</ns3:hr>
          </ns3:TrackPointExtension>
        </extensions>
      </trkpt>
      <trkpt lat="36.7638150416314601898193359375" lon="-118.46082874573767185211181640625">
        <ele>2387</ele>
        <time>2021-06-24T21:47:27.000Z</time>
        <extensions>
          <ns3:TrackPointExtension>
            <ns3:atemp>31.0</ns3:atemp>
            <ns3:hr>116</ns3:hr>
          </ns3:TrackPointExtension>
        </extensions>
      </trkpt>
      <trkpt lat="36.76380557008087635040283203125" lon="-118.4607852436602115631103515625">
        <ele>2387</ele>
        <time>2021-06-24T21:47:32.000Z</time>
        <extensions>
          <ns3:TrackPointExtension>
            <ns3:atemp>31.0</ns3:atemp>
            <ns3:hr>115</ns3:hr>
          </ns3:TrackPointExtension>
        </extensions>
      </trkpt>
      <trkpt lat="36.7638267762959003448486328125" lon="-118.46075959503650665283203125">
        <ele>2387.39990234375</ele>
        <time>2021-06-24T21:47:34.000Z</time>
        <extensions>
          <ns3:TrackPointExtension>
            <ns3:atemp>31.0</ns3:atemp>
            <ns3:hr>115</ns3:hr>
          </ns3:TrackPointExtension>
        </extensions>
      </trkpt>
      <trkpt lat="36.76382468082010746002197265625" lon="-118.46075288951396942138671875">
        <ele>2387.60009765625</ele>
        <time>2021-06-24T21:47:35.000Z</time>
        <extensions>
          <ns3:TrackPointExtension>
            <ns3:atemp>31.0</ns3:atemp>
            <ns3:hr>114</ns3:hr>
          </ns3:TrackPointExtension>
        </extensions>
      </trkpt>
      <trkpt lat="36.763797439634799957275390625" lon="-118.46074526198208332061767578125">
        <ele>2387.60009765625</ele>
        <time>2021-06-24T21:47:37.000Z</time>
        <extensions>
          <ns3:TrackPointExtension>
            <ns3:atemp>31.0</ns3:atemp>
            <ns3:hr>114</ns3:hr>
          </ns3:TrackPointExtension>
        </extensions>
      </trkpt>
      <trkpt lat="36.76379400305449962615966796875" lon="-118.46071936190128326416015625">
        <ele>2388.199951171875</ele>
        <time>2021-06-24T21:47:40.000Z</time>
        <extensions>
          <ns3:TrackPointExtension>
            <ns3:atemp>31.0</ns3:atemp>
            <ns3:hr>112</ns3:hr>
          </ns3:TrackPointExtension>
        </extensions>
      </trkpt>
      <trkpt lat="36.76379366777837276458740234375" lon="-118.46068424172699451446533203125">
        <ele>2388.39990234375</ele>
        <time>2021-06-24T21:47:42.000Z</time>
        <extensions>
          <ns3:TrackPointExtension>
            <ns3:atemp>31.0</ns3:atemp>
            <ns3:hr>112</ns3:hr>
          </ns3:TrackPointExtension>
        </extensions>
      </trkpt>
      <trkpt lat="36.76379249431192874908447265625" lon="-118.46066974103450775146484375">
        <ele>2388.39990234375</ele>
        <time>2021-06-24T21:47:43.000Z</time>
        <extensions>
          <ns3:TrackPointExtension>
            <ns3:atemp>31.0</ns3:atemp>
            <ns3:hr>111</ns3:hr>
          </ns3:TrackPointExtension>
        </extensions>
      </trkpt>
      <trkpt lat="36.76377019844949245452880859375" lon="-118.46060142852365970611572265625">
        <ele>2388.800048828125</ele>
        <time>2021-06-24T21:47:49.000Z</time>
        <extensions>
          <ns3:TrackPointExtension>
            <ns3:atemp>31.0</ns3:atemp>
            <ns3:hr>112</ns3:hr>
          </ns3:TrackPointExtension>
        </extensions>
      </trkpt>
      <trkpt lat="36.76375477574765682220458984375" lon="-118.46058265306055545806884765625">
        <ele>2389</ele>
        <time>2021-06-24T21:47:51.000Z</time>
        <extensions>
          <ns3:TrackPointExtension>
            <ns3:atemp>31.0</ns3:atemp>
            <ns3:hr>110</ns3:hr>
          </ns3:TrackPointExtension>
        </extensions>
      </trkpt>
      <trkpt lat="36.7637600563466548919677734375" lon="-118.46053697168827056884765625">
        <ele>2389.199951171875</ele>
        <time>2021-06-24T21:47:57.000Z</time>
        <extensions>
          <ns3:TrackPointExtension>
            <ns3:atemp>31.0</ns3:atemp>
            <ns3:hr>111</ns3:hr>
          </ns3:TrackPointExtension>
        </extensions>
      </trkpt>
      <trkpt lat="36.76375779323279857635498046875" lon="-118.4604982472956180572509765625">
        <ele>2389.199951171875</ele>
        <time>2021-06-24T21:48:00.000Z</time>
        <extensions>
          <ns3:TrackPointExtension>
            <ns3:atemp>31.0</ns3:atemp>
            <ns3:hr>109</ns3:hr>
          </ns3:TrackPointExtension>
        </extensions>
      </trkpt>
      <trkpt lat="36.7637510038912296295166015625" lon="-118.46047787927091121673583984375">
        <ele>2389.199951171875</ele>
        <time>2021-06-24T21:48:02.000Z</time>
        <extensions>
          <ns3:TrackPointExtension>
            <ns3:atemp>31.0</ns3:atemp>
            <ns3:hr>106</ns3:hr>
          </ns3:TrackPointExtension>
        </extensions>
      </trkpt>
      <trkpt lat="36.76373147405683994293212890625" lon="-118.4604606963694095611572265625">
        <ele>2389</ele>
        <time>2021-06-24T21:48:04.000Z</time>
        <extensions>
          <ns3:TrackPointExtension>
            <ns3:atemp>31.0</ns3:atemp>
            <ns3:hr>103</ns3:hr>
          </ns3:TrackPointExtension>
        </extensions>
      </trkpt>
      <trkpt lat="36.763731054961681365966796875" lon="-118.4604348801076412200927734375">
        <ele>2388.800048828125</ele>
        <time>2021-06-24T21:48:07.000Z</time>
        <extensions>
          <ns3:TrackPointExtension>
            <ns3:atemp>31.0</ns3:atemp>
            <ns3:hr>99</ns3:hr>
          </ns3:TrackPointExtension>
        </extensions>
      </trkpt>
      <trkpt lat="36.7637305520474910736083984375" lon="-118.46041627228260040283203125">
        <ele>2388.800048828125</ele>
        <time>2021-06-24T21:48:09.000Z</time>
        <extensions>
          <ns3:TrackPointExtension>
            <ns3:atemp>31.0</ns3:atemp>
            <ns3:hr>96</ns3:hr>
          </ns3:TrackPointExtension>
        </extensions>
      </trkpt>
      <trkpt lat="36.76372409798204898834228515625" lon="-118.460373692214488983154296875">
        <ele>2389.60009765625</ele>
        <time>2021-06-24T21:48:14.000Z</time>
        <extensions>
          <ns3:TrackPointExtension>
            <ns3:atemp>31.0</ns3:atemp>
            <ns3:hr>94</ns3:hr>
          </ns3:TrackPointExtension>
        </extensions>
      </trkpt>
      <trkpt lat="36.76373164169490337371826171875" lon="-118.46036153845489025115966796875">
        <ele>2389.60009765625</ele>
        <time>2021-06-24T21:48:15.000Z</time>
        <extensions>
          <ns3:TrackPointExtension>
            <ns3:atemp>31.0</ns3:atemp>
            <ns3:hr>94</ns3:hr>
          </ns3:TrackPointExtension>
        </extensions>
      </trkpt>
      <trkpt lat="36.76374605856835842132568359375" lon="-118.46034108661115169525146484375">
        <ele>2389.60009765625</ele>
        <time>2021-06-24T21:48:18.000Z</time>
        <extensions>
          <ns3:TrackPointExtension>
            <ns3:atemp>31.0</ns3:atemp>
            <ns3:hr>91</ns3:hr>
          </ns3:TrackPointExtension>
        </extensions>
      </trkpt>
      <trkpt lat="36.76375460810959339141845703125" lon="-118.46033446490764617919921875">
        <ele>2389.800048828125</ele>
        <time>2021-06-24T21:48:20.000Z</time>
        <extensions>
          <ns3:TrackPointExtension>
            <ns3:atemp>31.0</ns3:atemp>
            <ns3:hr>93</ns3:hr>
          </ns3:TrackPointExtension>
        </extensions>
      </trkpt>
      <trkpt lat="36.76375092007219791412353515625" lon="-118.46030940301716327667236328125">
        <ele>2390</ele>
        <time>2021-06-24T21:48:23.000Z</time>
        <extensions>
          <ns3:TrackPointExtension>
            <ns3:atemp>31.0</ns3:atemp>
            <ns3:hr>93</ns3:hr>
          </ns3:TrackPointExtension>
        </extensions>
      </trkpt>
      <trkpt lat="36.76375083625316619873046875" lon="-118.46026078797876834869384765625">
        <ele>2390.199951171875</ele>
        <time>2021-06-24T21:48:27.000Z</time>
        <extensions>
          <ns3:TrackPointExtension>
            <ns3:atemp>31.0</ns3:atemp>
            <ns3:hr>93</ns3:hr>
          </ns3:TrackPointExtension>
        </extensions>
      </trkpt>
      <trkpt lat="36.76374840550124645233154296875" lon="-118.46025668084621429443359375">
        <ele>2390.199951171875</ele>
        <time>2021-06-24T21:48:28.000Z</time>
        <extensions>
          <ns3:TrackPointExtension>
            <ns3:atemp>31.0</ns3:atemp>
            <ns3:hr>94</ns3:hr>
          </ns3:TrackPointExtension>
        </extensions>
      </trkpt>
      <trkpt lat="36.76374069415032863616943359375" lon="-118.460250981152057647705078125">
        <ele>2390.199951171875</ele>
        <time>2021-06-24T21:48:29.000Z</time>
        <extensions>
          <ns3:TrackPointExtension>
            <ns3:atemp>31.0</ns3:atemp>
            <ns3:hr>94</ns3:hr>
          </ns3:TrackPointExtension>
        </extensions>
      </trkpt>
      <trkpt lat="36.763735748827457427978515625" lon="-118.4602360613644123077392578125">
        <ele>2390.199951171875</ele>
        <time>2021-06-24T21:48:30.000Z</time>
        <extensions>
          <ns3:TrackPointExtension>
            <ns3:atemp>31.0</ns3:atemp>
            <ns3:hr>98</ns3:hr>
          </ns3:TrackPointExtension>
        </extensions>
      </trkpt>
      <trkpt lat="36.763733737170696258544921875" lon="-118.460214436054229736328125">
        <ele>2390.199951171875</ele>
        <time>2021-06-24T21:48:31.000Z</time>
        <extensions>
          <ns3:TrackPointExtension>
            <ns3:atemp>31.0</ns3:atemp>
            <ns3:hr>95</ns3:hr>
          </ns3:TrackPointExtension>
        </extensions>
      </trkpt>
      <trkpt lat="36.763716973364353179931640625" lon="-118.4601656533777713775634765625">
        <ele>2390.199951171875</ele>
        <time>2021-06-24T21:48:33.000Z</time>
        <extensions>
          <ns3:TrackPointExtension>
            <ns3:atemp>31.0</ns3:atemp>
            <ns3:hr>96</ns3:hr>
          </ns3:TrackPointExtension>
        </extensions>
      </trkpt>
      <trkpt lat="36.76368151791393756866455078125" lon="-118.460124917328357696533203125">
        <ele>2390.60009765625</ele>
        <time>2021-06-24T21:48:38.000Z</time>
        <extensions>
          <ns3:TrackPointExtension>
            <ns3:atemp>31.0</ns3:atemp>
            <ns3:hr>97</ns3:hr>
          </ns3:TrackPointExtension>
        </extensions>
      </trkpt>
      <trkpt lat="36.7636826075613498687744140625" lon="-118.46011863090097904205322265625">
        <ele>2390.800048828125</ele>
        <time>2021-06-24T21:48:39.000Z</time>
        <extensions>
          <ns3:TrackPointExtension>
            <ns3:atemp>31.0</ns3:atemp>
            <ns3:hr>96</ns3:hr>
          </ns3:TrackPointExtension>
        </extensions>
      </trkpt>
      <trkpt lat="36.76368512213230133056640625" lon="-118.46008493565022945404052734375">
        <ele>2391</ele>
        <time>2021-06-24T21:48:41.000Z</time>
        <extensions>
          <ns3:TrackPointExtension>
            <ns3:atemp>31.0</ns3:atemp>
            <ns3:hr>97</ns3:hr>
          </ns3:TrackPointExtension>
        </extensions>
      </trkpt>
      <trkpt lat="36.76367615349590778350830078125" lon="-118.460047803819179534912109375">
        <ele>2391.199951171875</ele>
        <time>2021-06-24T21:48:44.000Z</time>
        <extensions>
          <ns3:TrackPointExtension>
            <ns3:atemp>31.0</ns3:atemp>
            <ns3:hr>97</ns3:hr>
          </ns3:TrackPointExtension>
        </extensions>
      </trkpt>
      <trkpt lat="36.7636685259640216827392578125" lon="-118.46003581769764423370361328125">
        <ele>2391.39990234375</ele>
        <time>2021-06-24T21:48:46.000Z</time>
        <extensions>
          <ns3:TrackPointExtension>
            <ns3:atemp>31.0</ns3:atemp>
            <ns3:hr>101</ns3:hr>
          </ns3:TrackPointExtension>
        </extensions>
      </trkpt>
      <trkpt lat="36.76366073079407215118408203125" lon="-118.46002207137644290924072265625">
        <ele>2391.60009765625</ele>
        <time>2021-06-24T21:48:48.000Z</time>
        <extensions>
          <ns3:TrackPointExtension>
            <ns3:atemp>31.0</ns3:atemp>
            <ns3:hr>99</ns3:hr>
          </ns3:TrackPointExtension>
        </extensions>
      </trkpt>
      <trkpt lat="36.7636447213590145111083984375" lon="-118.45998653210699558258056640625">
        <ele>2391.60009765625</ele>
        <time>2021-06-24T21:48:50.000Z</time>
        <extensions>
          <ns3:TrackPointExtension>
            <ns3:atemp>31.0</ns3:atemp>
            <ns3:hr>101</ns3:hr>
          </ns3:TrackPointExtension>
        </extensions>
      </trkpt>
      <trkpt lat="36.76364229060709476470947265625" lon="-118.4599675051867961883544921875">
        <ele>2391.60009765625</ele>
        <time>2021-06-24T21:48:51.000Z</time>
        <extensions>
          <ns3:TrackPointExtension>
            <ns3:atemp>31.0</ns3:atemp>
            <ns3:hr>101</ns3:hr>
          </ns3:TrackPointExtension>
        </extensions>
      </trkpt>
      <trkpt lat="36.763628460466861724853515625" lon="-118.459905646741390228271484375">
        <ele>2392</ele>
        <time>2021-06-24T21:48:54.000Z</time>
        <extensions>
          <ns3:TrackPointExtension>
            <ns3:atemp>31.0</ns3:atemp>
            <ns3:hr>104</ns3:hr>
          </ns3:TrackPointExtension>
        </extensions>
      </trkpt>
      <trkpt lat="36.76362703554332256317138671875" lon="-118.459855355322360992431640625">
        <ele>2392.39990234375</ele>
        <time>2021-06-24T21:48:58.000Z</time>
        <extensions>
          <ns3:TrackPointExtension>
            <ns3:atemp>31.0</ns3:atemp>
            <ns3:hr>105</ns3:hr>
          </ns3:TrackPointExtension>
        </extensions>
      </trkpt>
      <trkpt lat="36.76361362449824810028076171875" lon="-118.459829203784465789794921875">
        <ele>2392.60009765625</ele>
        <time>2021-06-24T21:49:01.000Z</time>
        <extensions>
          <ns3:TrackPointExtension>
            <ns3:atemp>31.0</ns3:atemp>
            <ns3:hr>104</ns3:hr>
          </ns3:TrackPointExtension>
        </extensions>
      </trkpt>
      <trkpt lat="36.7636088468134403228759765625" lon="-118.4598179720342159271240234375">
        <ele>2392.800048828125</ele>
        <time>2021-06-24T21:49:02.000Z</time>
        <extensions>
          <ns3:TrackPointExtension>
            <ns3:atemp>31.0</ns3:atemp>
            <ns3:hr>104</ns3:hr>
          </ns3:TrackPointExtension>
        </extensions>
      </trkpt>
      <trkpt lat="36.7635907419025897979736328125" lon="-118.4597656689584255218505859375">
        <ele>2393</ele>
        <time>2021-06-24T21:49:05.000Z</time>
        <extensions>
          <ns3:TrackPointExtension>
            <ns3:atemp>31.0</ns3:atemp>
            <ns3:hr>104</ns3:hr>
          </ns3:TrackPointExtension>
        </extensions>
      </trkpt>
      <trkpt lat="36.76357976160943508148193359375" lon="-118.4597462229430675506591796875">
        <ele>2393.39990234375</ele>
        <time>2021-06-24T21:49:07.000Z</time>
        <extensions>
          <ns3:TrackPointExtension>
            <ns3:atemp>31.0</ns3:atemp>
            <ns3:hr>104</ns3:hr>
          </ns3:TrackPointExtension>
        </extensions>
      </trkpt>
      <trkpt lat="36.76357657648622989654541015625" lon="-118.45974077470600605010986328125">
        <ele>2393.39990234375</ele>
        <time>2021-06-24T21:49:08.000Z</time>
        <extensions>
          <ns3:TrackPointExtension>
            <ns3:atemp>31.0</ns3:atemp>
            <ns3:hr>104</ns3:hr>
          </ns3:TrackPointExtension>
        </extensions>
      </trkpt>
      <trkpt lat="36.763568110764026641845703125" lon="-118.459735326468944549560546875">
        <ele>2394.199951171875</ele>
        <time>2021-06-24T21:49:10.000Z</time>
        <extensions>
          <ns3:TrackPointExtension>
            <ns3:atemp>31.0</ns3:atemp>
            <ns3:hr>103</ns3:hr>
          </ns3:TrackPointExtension>
        </extensions>
      </trkpt>
      <trkpt lat="36.76356014795601367950439453125" lon="-118.45971764065325260162353515625">
        <ele>2394.199951171875</ele>
        <time>2021-06-24T21:49:13.000Z</time>
        <extensions>
          <ns3:TrackPointExtension>
            <ns3:atemp>31.0</ns3:atemp>
            <ns3:hr>104</ns3:hr>
          </ns3:TrackPointExtension>
        </extensions>
      </trkpt>
      <trkpt lat="36.763552017509937286376953125" lon="-118.45970892347395420074462890625">
        <ele>2394.199951171875</ele>
        <time>2021-06-24T21:49:14.000Z</time>
        <extensions>
          <ns3:TrackPointExtension>
            <ns3:atemp>31.0</ns3:atemp>
            <ns3:hr>104</ns3:hr>
          </ns3:TrackPointExtension>
        </extensions>
      </trkpt>
      <trkpt lat="36.763510443270206451416015625" lon="-118.45965511165559291839599609375">
        <ele>2395.199951171875</ele>
        <time>2021-06-24T21:49:20.000Z</time>
        <extensions>
          <ns3:TrackPointExtension>
            <ns3:atemp>31.0</ns3:atemp>
            <ns3:hr>103</ns3:hr>
          </ns3:TrackPointExtension>
        </extensions>
      </trkpt>
      <trkpt lat="36.7635114490985870361328125" lon="-118.4596469812095165252685546875">
        <ele>2395.60009765625</ele>
        <time>2021-06-24T21:49:21.000Z</time>
        <extensions>
          <ns3:TrackPointExtension>
            <ns3:atemp>31.0</ns3:atemp>
            <ns3:hr>104</ns3:hr>
          </ns3:TrackPointExtension>
        </extensions>
      </trkpt>
      <trkpt lat="36.763528548181056976318359375" lon="-118.45956793986260890960693359375">
        <ele>2396.39990234375</ele>
        <time>2021-06-24T21:49:27.000Z</time>
        <extensions>
          <ns3:TrackPointExtension>
            <ns3:atemp>31.0</ns3:atemp>
            <ns3:hr>106</ns3:hr>
          </ns3:TrackPointExtension>
        </extensions>
      </trkpt>
      <trkpt lat="36.763512790203094482421875" lon="-118.45954564400017261505126953125">
        <ele>2396.60009765625</ele>
        <time>2021-06-24T21:49:29.000Z</time>
        <extensions>
          <ns3:TrackPointExtension>
            <ns3:atemp>31.0</ns3:atemp>
            <ns3:hr>106</ns3:hr>
          </ns3:TrackPointExtension>
        </extensions>
      </trkpt>
      <trkpt lat="36.7635146342217922210693359375" lon="-118.45951429568231105804443359375">
        <ele>2397.199951171875</ele>
        <time>2021-06-24T21:49:32.000Z</time>
        <extensions>
          <ns3:TrackPointExtension>
            <ns3:atemp>31.0</ns3:atemp>
            <ns3:hr>109</ns3:hr>
          </ns3:TrackPointExtension>
        </extensions>
      </trkpt>
      <trkpt lat="36.76351589150726795196533203125" lon="-118.45949552021920680999755859375">
        <ele>2397.199951171875</ele>
        <time>2021-06-24T21:49:34.000Z</time>
        <extensions>
          <ns3:TrackPointExtension>
            <ns3:atemp>31.0</ns3:atemp>
            <ns3:hr>109</ns3:hr>
          </ns3:TrackPointExtension>
        </extensions>
      </trkpt>
      <trkpt lat="36.7635196633636951446533203125" lon="-118.4594786725938320159912109375">
        <ele>2397.39990234375</ele>
        <time>2021-06-24T21:49:36.000Z</time>
        <extensions>
          <ns3:TrackPointExtension>
            <ns3:atemp>31.0</ns3:atemp>
            <ns3:hr>110</ns3:hr>
          </ns3:TrackPointExtension>
        </extensions>
      </trkpt>
      <trkpt lat="36.7635253630578517913818359375" lon="-118.45946811139583587646484375">
        <ele>2397.800048828125</ele>
        <time>2021-06-24T21:49:37.000Z</time>
        <extensions>
          <ns3:TrackPointExtension>
            <ns3:atemp>31.0</ns3:atemp>
            <ns3:hr>111</ns3:hr>
          </ns3:TrackPointExtension>
        </extensions>
      </trkpt>
      <trkpt lat="36.76353483460843563079833984375" lon="-118.45944019965827465057373046875">
        <ele>2397.800048828125</ele>
        <time>2021-06-24T21:49:40.000Z</time>
        <extensions>
          <ns3:TrackPointExtension>
            <ns3:atemp>31.0</ns3:atemp>
            <ns3:hr>111</ns3:hr>
          </ns3:TrackPointExtension>
        </extensions>
      </trkpt>
      <trkpt lat="36.7635409533977508544921875" lon="-118.45943047665059566497802734375">
        <ele>2398</ele>
        <time>2021-06-24T21:49:41.000Z</time>
        <extensions>
          <ns3:TrackPointExtension>
            <ns3:atemp>31.0</ns3:atemp>
            <ns3:hr>111</ns3:hr>
          </ns3:TrackPointExtension>
        </extensions>
      </trkpt>
      <trkpt lat="36.76355101168155670166015625" lon="-118.45941723324358463287353515625">
        <ele>2398.39990234375</ele>
        <time>2021-06-24T21:49:42.000Z</time>
        <extensions>
          <ns3:TrackPointExtension>
            <ns3:atemp>31.0</ns3:atemp>
            <ns3:hr>112</ns3:hr>
          </ns3:TrackPointExtension>
        </extensions>
      </trkpt>
      <trkpt lat="36.7635570466518402099609375" lon="-118.45940968953073024749755859375">
        <ele>2398.39990234375</ele>
        <time>2021-06-24T21:49:43.000Z</time>
        <extensions>
          <ns3:TrackPointExtension>
            <ns3:atemp>31.0</ns3:atemp>
            <ns3:hr>113</ns3:hr>
          </ns3:TrackPointExtension>
        </extensions>
      </trkpt>
      <trkpt lat="36.76356375217437744140625" lon="-118.45939435064792633056640625">
        <ele>2398.800048828125</ele>
        <time>2021-06-24T21:49:45.000Z</time>
        <extensions>
          <ns3:TrackPointExtension>
            <ns3:atemp>31.0</ns3:atemp>
            <ns3:hr>114</ns3:hr>
          </ns3:TrackPointExtension>
        </extensions>
      </trkpt>
      <trkpt lat="36.7635535262525081634521484375" lon="-118.45939091406762599945068359375">
        <ele>2399</ele>
        <time>2021-06-24T21:49:47.000Z</time>
        <extensions>
          <ns3:TrackPointExtension>
            <ns3:atemp>31.0</ns3:atemp>
            <ns3:hr>112</ns3:hr>
          </ns3:TrackPointExtension>
        </extensions>
      </trkpt>
      <trkpt lat="36.7635404504835605621337890625" lon="-118.459388650953769683837890625">
        <ele>2399.199951171875</ele>
        <time>2021-06-24T21:49:48.000Z</time>
        <extensions>
          <ns3:TrackPointExtension>
            <ns3:atemp>31.0</ns3:atemp>
            <ns3:hr>113</ns3:hr>
          </ns3:TrackPointExtension>
        </extensions>
      </trkpt>
      <trkpt lat="36.7635468207299709320068359375" lon="-118.459371216595172882080078125">
        <ele>2399.60009765625</ele>
        <time>2021-06-24T21:49:50.000Z</time>
        <extensions>
          <ns3:TrackPointExtension>
            <ns3:atemp>31.0</ns3:atemp>
            <ns3:hr>114</ns3:hr>
          </ns3:TrackPointExtension>
        </extensions>
      </trkpt>
      <trkpt lat="36.76355025731027126312255859375" lon="-118.45936073921620845794677734375">
        <ele>2400.199951171875</ele>
        <time>2021-06-24T21:49:51.000Z</time>
        <extensions>
          <ns3:TrackPointExtension>
            <ns3:atemp>31.0</ns3:atemp>
            <ns3:hr>112</ns3:hr>
          </ns3:TrackPointExtension>
        </extensions>
      </trkpt>
      <trkpt lat="36.763551346957683563232421875" lon="-118.45934850163757801055908203125">
        <ele>2400.199951171875</ele>
        <time>2021-06-24T21:49:52.000Z</time>
        <extensions>
          <ns3:TrackPointExtension>
            <ns3:atemp>31.0</ns3:atemp>
            <ns3:hr>114</ns3:hr>
          </ns3:TrackPointExtension>
        </extensions>
      </trkpt>
      <trkpt lat="36.7635463178157806396484375" lon="-118.45933944918215274810791015625">
        <ele>2400.60009765625</ele>
        <time>2021-06-24T21:49:53.000Z</time>
        <extensions>
          <ns3:TrackPointExtension>
            <ns3:atemp>31.0</ns3:atemp>
            <ns3:hr>114</ns3:hr>
          </ns3:TrackPointExtension>
        </extensions>
      </trkpt>
      <trkpt lat="36.76353986375033855438232421875" lon="-118.4593324922025203704833984375">
        <ele>2400.800048828125</ele>
        <time>2021-06-24T21:49:54.000Z</time>
        <extensions>
          <ns3:TrackPointExtension>
            <ns3:atemp>31.0</ns3:atemp>
            <ns3:hr>113</ns3:hr>
          </ns3:TrackPointExtension>
        </extensions>
      </trkpt>
      <trkpt lat="36.7635327391326427459716796875" lon="-118.4593241102993488311767578125">
        <ele>2400.800048828125</ele>
        <time>2021-06-24T21:49:55.000Z</time>
        <extensions>
          <ns3:TrackPointExtension>
            <ns3:atemp>31.0</ns3:atemp>
            <ns3:hr>116</ns3:hr>
          </ns3:TrackPointExtension>
        </extensions>
      </trkpt>
      <trkpt lat="36.7635270394384860992431640625" lon="-118.45931589603424072265625">
        <ele>2400.800048828125</ele>
        <time>2021-06-24T21:49:56.000Z</time>
        <extensions>
          <ns3:TrackPointExtension>
            <ns3:atemp>31.0</ns3:atemp>
            <ns3:hr>114</ns3:hr>
          </ns3:TrackPointExtension>
        </extensions>
      </trkpt>
      <trkpt lat="36.7635156400501728057861328125" lon="-118.45929871313273906707763671875">
        <ele>2401.199951171875</ele>
        <time>2021-06-24T21:49:58.000Z</time>
        <extensions>
          <ns3:TrackPointExtension>
            <ns3:atemp>31.0</ns3:atemp>
            <ns3:hr>114</ns3:hr>
          </ns3:TrackPointExtension>
        </extensions>
      </trkpt>
      <trkpt lat="36.7635102756321430206298828125" lon="-118.459274657070636749267578125">
        <ele>2401.60009765625</ele>
        <time>2021-06-24T21:50:00.000Z</time>
        <extensions>
          <ns3:TrackPointExtension>
            <ns3:atemp>31.0</ns3:atemp>
            <ns3:hr>116</ns3:hr>
          </ns3:TrackPointExtension>
        </extensions>
      </trkpt>
      <trkpt lat="36.76350449211895465850830078125" lon="-118.459260575473308563232421875">
        <ele>2401.60009765625</ele>
        <time>2021-06-24T21:50:01.000Z</time>
        <extensions>
          <ns3:TrackPointExtension>
            <ns3:atemp>31.0</ns3:atemp>
            <ns3:hr>117</ns3:hr>
          </ns3:TrackPointExtension>
        </extensions>
      </trkpt>
      <trkpt lat="36.76349694840610027313232421875" lon="-118.45924708060920238494873046875">
        <ele>2401.800048828125</ele>
        <time>2021-06-24T21:50:03.000Z</time>
        <extensions>
          <ns3:TrackPointExtension>
            <ns3:atemp>31.0</ns3:atemp>
            <ns3:hr>118</ns3:hr>
          </ns3:TrackPointExtension>
        </extensions>
      </trkpt>
      <trkpt lat="36.76347951404750347137451171875" lon="-118.45923618413507938385009765625">
        <ele>2401.800048828125</ele>
        <time>2021-06-24T21:50:05.000Z</time>
        <extensions>
          <ns3:TrackPointExtension>
            <ns3:atemp>31.0</ns3:atemp>
            <ns3:hr>119</ns3:hr>
          </ns3:TrackPointExtension>
        </extensions>
      </trkpt>
      <trkpt lat="36.76343324594199657440185546875" lon="-118.459179103374481201171875">
        <ele>2402.199951171875</ele>
        <time>2021-06-24T21:50:09.000Z</time>
        <extensions>
          <ns3:TrackPointExtension>
            <ns3:atemp>30.0</ns3:atemp>
            <ns3:hr>120</ns3:hr>
          </ns3:TrackPointExtension>
        </extensions>
      </trkpt>
      <trkpt lat="36.7634174041450023651123046875" lon="-118.45913375727832317352294921875">
        <ele>2402.199951171875</ele>
        <time>2021-06-24T21:50:12.000Z</time>
        <extensions>
          <ns3:TrackPointExtension>
            <ns3:atemp>30.0</ns3:atemp>
            <ns3:hr>121</ns3:hr>
          </ns3:TrackPointExtension>
        </extensions>
      </trkpt>
      <trkpt lat="36.76339133642613887786865234375" lon="-118.45910006202757358551025390625">
        <ele>2402</ele>
        <time>2021-06-24T21:50:16.000Z</time>
        <extensions>
          <ns3:TrackPointExtension>
            <ns3:atemp>30.0</ns3:atemp>
            <ns3:hr>120</ns3:hr>
          </ns3:TrackPointExtension>
        </extensions>
      </trkpt>
      <trkpt lat="36.76336384378373622894287109375" lon="-118.4590689651668071746826171875">
        <ele>2402.199951171875</ele>
        <time>2021-06-24T21:50:19.000Z</time>
        <extensions>
          <ns3:TrackPointExtension>
            <ns3:atemp>30.0</ns3:atemp>
            <ns3:hr>119</ns3:hr>
          </ns3:TrackPointExtension>
        </extensions>
      </trkpt>
      <trkpt lat="36.76334573887288570404052734375" lon="-118.45902445726096630096435546875">
        <ele>2402.60009765625</ele>
        <time>2021-06-24T21:50:24.000Z</time>
        <extensions>
          <ns3:TrackPointExtension>
            <ns3:atemp>30.0</ns3:atemp>
            <ns3:hr>116</ns3:hr>
          </ns3:TrackPointExtension>
        </extensions>
      </trkpt>
      <trkpt lat="36.76333450712263584136962890625" lon="-118.45900475978851318359375">
        <ele>2402.800048828125</ele>
        <time>2021-06-24T21:50:26.000Z</time>
        <extensions>
          <ns3:TrackPointExtension>
            <ns3:atemp>30.0</ns3:atemp>
            <ns3:hr>115</ns3:hr>
          </ns3:TrackPointExtension>
        </extensions>
      </trkpt>
      <trkpt lat="36.763330064713954925537109375" lon="-118.4589838050305843353271484375">
        <ele>2403.199951171875</ele>
        <time>2021-06-24T21:50:29.000Z</time>
        <extensions>
          <ns3:TrackPointExtension>
            <ns3:atemp>30.0</ns3:atemp>
            <ns3:hr>112</ns3:hr>
          </ns3:TrackPointExtension>
        </extensions>
      </trkpt>
      <trkpt lat="36.7633325792849063873291015625" lon="-118.45897332765161991119384765625">
        <ele>2403.39990234375</ele>
        <time>2021-06-24T21:50:31.000Z</time>
        <extensions>
          <ns3:TrackPointExtension>
            <ns3:atemp>30.0</ns3:atemp>
            <ns3:hr>109</ns3:hr>
          </ns3:TrackPointExtension>
        </extensions>
      </trkpt>
      <trkpt lat="36.7633156478404998779296875" lon="-118.45894776284694671630859375">
        <ele>2404</ele>
        <time>2021-06-24T21:50:35.000Z</time>
        <extensions>
          <ns3:TrackPointExtension>
            <ns3:atemp>30.0</ns3:atemp>
            <ns3:hr>109</ns3:hr>
          </ns3:TrackPointExtension>
        </extensions>
      </trkpt>
      <trkpt lat="36.7632960341870784759521484375" lon="-118.4589304961264133453369140625">
        <ele>2404.60009765625</ele>
        <time>2021-06-24T21:50:38.000Z</time>
        <extensions>
          <ns3:TrackPointExtension>
            <ns3:atemp>30.0</ns3:atemp>
            <ns3:hr>111</ns3:hr>
          </ns3:TrackPointExtension>
        </extensions>
      </trkpt>
      <trkpt lat="36.76328371278941631317138671875" lon="-118.45890845172107219696044921875">
        <ele>2405</ele>
        <time>2021-06-24T21:50:41.000Z</time>
        <extensions>
          <ns3:TrackPointExtension>
            <ns3:atemp>30.0</ns3:atemp>
            <ns3:hr>111</ns3:hr>
          </ns3:TrackPointExtension>
        </extensions>
      </trkpt>
      <trkpt lat="36.76326711662113666534423828125" lon="-118.45889152027666568756103515625">
        <ele>2405.39990234375</ele>
        <time>2021-06-24T21:50:44.000Z</time>
        <extensions>
          <ns3:TrackPointExtension>
            <ns3:atemp>30.0</ns3:atemp>
            <ns3:hr>110</ns3:hr>
          </ns3:TrackPointExtension>
        </extensions>
      </trkpt>
      <trkpt lat="36.76323358900845050811767578125" lon="-118.4588674642145633697509765625">
        <ele>2405.60009765625</ele>
        <time>2021-06-24T21:50:49.000Z</time>
        <extensions>
          <ns3:TrackPointExtension>
            <ns3:atemp>30.0</ns3:atemp>
            <ns3:hr>111</ns3:hr>
          </ns3:TrackPointExtension>
        </extensions>
      </trkpt>
      <trkpt lat="36.7632014863193035125732421875" lon="-118.45884986221790313720703125">
        <ele>2405.199951171875</ele>
        <time>2021-06-24T21:50:53.000Z</time>
        <extensions>
          <ns3:TrackPointExtension>
            <ns3:atemp>30.0</ns3:atemp>
            <ns3:hr>109</ns3:hr>
          </ns3:TrackPointExtension>
        </extensions>
      </trkpt>
      <trkpt lat="36.76319293677806854248046875" lon="-118.45883871428668498992919921875">
        <ele>2405.199951171875</ele>
        <time>2021-06-24T21:50:54.000Z</time>
        <extensions>
          <ns3:TrackPointExtension>
            <ns3:atemp>30.0</ns3:atemp>
            <ns3:hr>109</ns3:hr>
          </ns3:TrackPointExtension>
        </extensions>
      </trkpt>
      <trkpt lat="36.7631501890718936920166015625" lon="-118.4588121436536312103271484375">
        <ele>2405</ele>
        <time>2021-06-24T21:50:57.000Z</time>
        <extensions>
          <ns3:TrackPointExtension>
            <ns3:atemp>30.0</ns3:atemp>
            <ns3:hr>108</ns3:hr>
          </ns3:TrackPointExtension>
        </extensions>
      </trkpt>
      <trkpt lat="36.7631458304822444915771484375" lon="-118.45879864878952503204345703125">
        <ele>2405</ele>
        <time>2021-06-24T21:50:58.000Z</time>
        <extensions>
          <ns3:TrackPointExtension>
            <ns3:atemp>30.0</ns3:atemp>
            <ns3:hr>108</ns3:hr>
          </ns3:TrackPointExtension>
        </extensions>
      </trkpt>
      <trkpt lat="36.7631230317056179046630859375" lon="-118.458752296864986419677734375">
        <ele>2405.39990234375</ele>
        <time>2021-06-24T21:51:03.000Z</time>
        <extensions>
          <ns3:TrackPointExtension>
            <ns3:atemp>30.0</ns3:atemp>
            <ns3:hr>108</ns3:hr>
          </ns3:TrackPointExtension>
        </extensions>
      </trkpt>
      <trkpt lat="36.76313216798007488250732421875" lon="-118.4587289951741695404052734375">
        <ele>2405.39990234375</ele>
        <time>2021-06-24T21:51:06.000Z</time>
        <extensions>
          <ns3:TrackPointExtension>
            <ns3:atemp>30.0</ns3:atemp>
            <ns3:hr>108</ns3:hr>
          </ns3:TrackPointExtension>
        </extensions>
      </trkpt>
      <trkpt lat="36.763140968978404998779296875" lon="-118.45872153528034687042236328125">
        <ele>2405.60009765625</ele>
        <time>2021-06-24T21:51:08.000Z</time>
        <extensions>
          <ns3:TrackPointExtension>
            <ns3:atemp>30.0</ns3:atemp>
            <ns3:hr>107</ns3:hr>
          </ns3:TrackPointExtension>
        </extensions>
      </trkpt>
      <trkpt lat="36.7631558887660503387451171875" lon="-118.458704687654972076416015625">
        <ele>2405.60009765625</ele>
        <time>2021-06-24T21:51:10.000Z</time>
        <extensions>
          <ns3:TrackPointExtension>
            <ns3:atemp>30.0</ns3:atemp>
            <ns3:hr>106</ns3:hr>
          </ns3:TrackPointExtension>
        </extensions>
      </trkpt>
      <trkpt lat="36.76316150464117527008056640625" lon="-118.4586971439421176910400390625">
        <ele>2405.800048828125</ele>
        <time>2021-06-24T21:51:11.000Z</time>
        <extensions>
          <ns3:TrackPointExtension>
            <ns3:atemp>30.0</ns3:atemp>
            <ns3:hr>105</ns3:hr>
          </ns3:TrackPointExtension>
        </extensions>
      </trkpt>
      <trkpt lat="36.76316016353666782379150390625" lon="-118.4586708247661590576171875">
        <ele>2406</ele>
        <time>2021-06-24T21:51:14.000Z</time>
        <extensions>
          <ns3:TrackPointExtension>
            <ns3:atemp>30.0</ns3:atemp>
            <ns3:hr>104</ns3:hr>
          </ns3:TrackPointExtension>
        </extensions>
      </trkpt>
      <trkpt lat="36.76314306445419788360595703125" lon="-118.45864810980856418609619140625">
        <ele>2406.199951171875</ele>
        <time>2021-06-24T21:51:16.000Z</time>
        <extensions>
          <ns3:TrackPointExtension>
            <ns3:atemp>30.0</ns3:atemp>
            <ns3:hr>104</ns3:hr>
          </ns3:TrackPointExtension>
        </extensions>
      </trkpt>
      <trkpt lat="36.763135604560375213623046875" lon="-118.45863930881023406982421875">
        <ele>2406.199951171875</ele>
        <time>2021-06-24T21:51:17.000Z</time>
        <extensions>
          <ns3:TrackPointExtension>
            <ns3:atemp>30.0</ns3:atemp>
            <ns3:hr>104</ns3:hr>
          </ns3:TrackPointExtension>
        </extensions>
      </trkpt>
      <trkpt lat="36.76312588155269622802734375" lon="-118.45861977897584438323974609375">
        <ele>2406.800048828125</ele>
        <time>2021-06-24T21:51:19.000Z</time>
        <extensions>
          <ns3:TrackPointExtension>
            <ns3:atemp>30.0</ns3:atemp>
            <ns3:hr>105</ns3:hr>
          </ns3:TrackPointExtension>
        </extensions>
      </trkpt>
      <trkpt lat="36.76312990486621856689453125" lon="-118.45860435627400875091552734375">
        <ele>2407.39990234375</ele>
        <time>2021-06-24T21:51:21.000Z</time>
        <extensions>
          <ns3:TrackPointExtension>
            <ns3:atemp>30.0</ns3:atemp>
            <ns3:hr>107</ns3:hr>
          </ns3:TrackPointExtension>
        </extensions>
      </trkpt>
      <trkpt lat="36.76313417963683605194091796875" lon="-118.4585875086486339569091796875">
        <ele>2407.800048828125</ele>
        <time>2021-06-24T21:51:23.000Z</time>
        <extensions>
          <ns3:TrackPointExtension>
            <ns3:atemp>30.0</ns3:atemp>
            <ns3:hr>109</ns3:hr>
          </ns3:TrackPointExtension>
        </extensions>
      </trkpt>
      <trkpt lat="36.7631357721984386444091796875" lon="-118.45858306623995304107666015625">
        <ele>2408</ele>
        <time>2021-06-24T21:51:24.000Z</time>
        <extensions>
          <ns3:TrackPointExtension>
            <ns3:atemp>30.0</ns3:atemp>
            <ns3:hr>109</ns3:hr>
          </ns3:TrackPointExtension>
        </extensions>
      </trkpt>
      <trkpt lat="36.7631444893777370452880859375" lon="-118.45857384614646434783935546875">
        <ele>2408.199951171875</ele>
        <time>2021-06-24T21:51:27.000Z</time>
        <extensions>
          <ns3:TrackPointExtension>
            <ns3:atemp>30.0</ns3:atemp>
            <ns3:hr>110</ns3:hr>
          </ns3:TrackPointExtension>
        </extensions>
      </trkpt>
      <trkpt lat="36.763149015605449676513671875" lon="-118.4585704095661640167236328125">
        <ele>2408.800048828125</ele>
        <time>2021-06-24T21:51:28.000Z</time>
        <extensions>
          <ns3:TrackPointExtension>
            <ns3:atemp>30.0</ns3:atemp>
            <ns3:hr>110</ns3:hr>
          </ns3:TrackPointExtension>
        </extensions>
      </trkpt>
      <trkpt lat="36.76315144635736942291259765625" lon="-118.45856462605297565460205078125">
        <ele>2409</ele>
        <time>2021-06-24T21:51:30.000Z</time>
        <extensions>
          <ns3:TrackPointExtension>
            <ns3:atemp>30.0</ns3:atemp>
            <ns3:hr>110</ns3:hr>
          </ns3:TrackPointExtension>
        </extensions>
      </trkpt>
      <trkpt lat="36.7631592415273189544677734375" lon="-118.45851584337651729583740234375">
        <ele>2410.39990234375</ele>
        <time>2021-06-24T21:51:36.000Z</time>
        <extensions>
          <ns3:TrackPointExtension>
            <ns3:atemp>30.0</ns3:atemp>
            <ns3:hr>111</ns3:hr>
          </ns3:TrackPointExtension>
        </extensions>
      </trkpt>
      <trkpt lat="36.76316049881279468536376953125" lon="-118.4584936313331127166748046875">
        <ele>2410.800048828125</ele>
        <time>2021-06-24T21:51:39.000Z</time>
        <extensions>
          <ns3:TrackPointExtension>
            <ns3:atemp>30.0</ns3:atemp>
            <ns3:hr>113</ns3:hr>
          </ns3:TrackPointExtension>
        </extensions>
      </trkpt>
      <trkpt lat="36.763165779411792755126953125" lon="-118.45845733769237995147705078125">
        <ele>2411.39990234375</ele>
        <time>2021-06-24T21:51:42.000Z</time>
        <extensions>
          <ns3:TrackPointExtension>
            <ns3:atemp>30.0</ns3:atemp>
            <ns3:hr>116</ns3:hr>
          </ns3:TrackPointExtension>
        </extensions>
      </trkpt>
      <trkpt lat="36.763174831867218017578125" lon="-118.45844510011374950408935546875">
        <ele>2411.39990234375</ele>
        <time>2021-06-24T21:51:43.000Z</time>
        <extensions>
          <ns3:TrackPointExtension>
            <ns3:atemp>30.0</ns3:atemp>
            <ns3:hr>117</ns3:hr>
          </ns3:TrackPointExtension>
        </extensions>
      </trkpt>
      <trkpt lat="36.76317659206688404083251953125" lon="-118.45843101851642131805419921875">
        <ele>2411.39990234375</ele>
        <time>2021-06-24T21:51:44.000Z</time>
        <extensions>
          <ns3:TrackPointExtension>
            <ns3:atemp>30.0</ns3:atemp>
            <ns3:hr>117</ns3:hr>
          </ns3:TrackPointExtension>
        </extensions>
      </trkpt>
      <trkpt lat="36.76317751407623291015625" lon="-118.45841132104396820068359375">
        <ele>2412</ele>
        <time>2021-06-24T21:51:46.000Z</time>
        <extensions>
          <ns3:TrackPointExtension>
            <ns3:atemp>30.0</ns3:atemp>
            <ns3:hr>117</ns3:hr>
          </ns3:TrackPointExtension>
        </extensions>
      </trkpt>
      <trkpt lat="36.7631595768034458160400390625" lon="-118.45838156528770923614501953125">
        <ele>2412.60009765625</ele>
        <time>2021-06-24T21:51:49.000Z</time>
        <extensions>
          <ns3:TrackPointExtension>
            <ns3:atemp>30.0</ns3:atemp>
            <ns3:hr>117</ns3:hr>
          </ns3:TrackPointExtension>
        </extensions>
      </trkpt>
      <trkpt lat="36.76314532756805419921875" lon="-118.45836161635816097259521484375">
        <ele>2412.60009765625</ele>
        <time>2021-06-24T21:51:50.000Z</time>
        <extensions>
          <ns3:TrackPointExtension>
            <ns3:atemp>30.0</ns3:atemp>
            <ns3:hr>117</ns3:hr>
          </ns3:TrackPointExtension>
        </extensions>
      </trkpt>
      <trkpt lat="36.76312797702848911285400390625" lon="-118.458336889743804931640625">
        <ele>2412.60009765625</ele>
        <time>2021-06-24T21:51:52.000Z</time>
        <extensions>
          <ns3:TrackPointExtension>
            <ns3:atemp>30.0</ns3:atemp>
            <ns3:hr>115</ns3:hr>
          </ns3:TrackPointExtension>
        </extensions>
      </trkpt>
      <trkpt lat="36.76312210969626903533935546875" lon="-118.4583275020122528076171875">
        <ele>2412.60009765625</ele>
        <time>2021-06-24T21:51:53.000Z</time>
        <extensions>
          <ns3:TrackPointExtension>
            <ns3:atemp>30.0</ns3:atemp>
            <ns3:hr>118</ns3:hr>
          </ns3:TrackPointExtension>
        </extensions>
      </trkpt>
      <trkpt lat="36.76311439834535121917724609375" lon="-118.45831132493913173675537109375">
        <ele>2412.60009765625</ele>
        <time>2021-06-24T21:51:55.000Z</time>
        <extensions>
          <ns3:TrackPointExtension>
            <ns3:atemp>30.0</ns3:atemp>
            <ns3:hr>118</ns3:hr>
          </ns3:TrackPointExtension>
        </extensions>
      </trkpt>
      <trkpt lat="36.763112135231494903564453125" lon="-118.45827444456517696380615234375">
        <ele>2412.60009765625</ele>
        <time>2021-06-24T21:51:59.000Z</time>
        <extensions>
          <ns3:TrackPointExtension>
            <ns3:atemp>30.0</ns3:atemp>
            <ns3:hr>117</ns3:hr>
          </ns3:TrackPointExtension>
        </extensions>
      </trkpt>
      <trkpt lat="36.7630972154438495635986328125" lon="-118.45822733826935291290283203125">
        <ele>2413.199951171875</ele>
        <time>2021-06-24T21:52:05.000Z</time>
        <extensions>
          <ns3:TrackPointExtension>
            <ns3:atemp>30.0</ns3:atemp>
            <ns3:hr>117</ns3:hr>
          </ns3:TrackPointExtension>
        </extensions>
      </trkpt>
      <trkpt lat="36.76309059374034404754638671875" lon="-118.45822247676551342010498046875">
        <ele>2413.199951171875</ele>
        <time>2021-06-24T21:52:06.000Z</time>
        <extensions>
          <ns3:TrackPointExtension>
            <ns3:atemp>30.0</ns3:atemp>
            <ns3:hr>117</ns3:hr>
          </ns3:TrackPointExtension>
        </extensions>
      </trkpt>
      <trkpt lat="36.7630901746451854705810546875" lon="-118.4582099877297878265380859375">
        <ele>2413.39990234375</ele>
        <time>2021-06-24T21:52:08.000Z</time>
        <extensions>
          <ns3:TrackPointExtension>
            <ns3:atemp>30.0</ns3:atemp>
            <ns3:hr>113</ns3:hr>
          </ns3:TrackPointExtension>
        </extensions>
      </trkpt>
      <trkpt lat="36.7630822956562042236328125" lon="-118.4581875242292881011962890625">
        <ele>2413.60009765625</ele>
        <time>2021-06-24T21:52:12.000Z</time>
        <extensions>
          <ns3:TrackPointExtension>
            <ns3:atemp>30.0</ns3:atemp>
            <ns3:hr>111</ns3:hr>
          </ns3:TrackPointExtension>
        </extensions>
      </trkpt>
      <trkpt lat="36.76309059374034404754638671875" lon="-118.4581560082733631134033203125">
        <ele>2413.800048828125</ele>
        <time>2021-06-24T21:52:15.000Z</time>
        <extensions>
          <ns3:TrackPointExtension>
            <ns3:atemp>31.0</ns3:atemp>
            <ns3:hr>110</ns3:hr>
          </ns3:TrackPointExtension>
        </extensions>
      </trkpt>
      <trkpt lat="36.763074584305286407470703125" lon="-118.45812566578388214111328125">
        <ele>2414.199951171875</ele>
        <time>2021-06-24T21:52:19.000Z</time>
        <extensions>
          <ns3:TrackPointExtension>
            <ns3:atemp>31.0</ns3:atemp>
            <ns3:hr>111</ns3:hr>
          </ns3:TrackPointExtension>
        </extensions>
      </trkpt>
      <trkpt lat="36.76305790431797504425048828125" lon="-118.4581184573471546173095703125">
        <ele>2414.39990234375</ele>
        <time>2021-06-24T21:52:21.000Z</time>
        <extensions>
          <ns3:TrackPointExtension>
            <ns3:atemp>31.0</ns3:atemp>
            <ns3:hr>112</ns3:hr>
          </ns3:TrackPointExtension>
        </extensions>
      </trkpt>
      <trkpt lat="36.76303946413099765777587890625" lon="-118.4580983407795429229736328125">
        <ele>2414.800048828125</ele>
        <time>2021-06-24T21:52:24.000Z</time>
        <extensions>
          <ns3:TrackPointExtension>
            <ns3:atemp>31.0</ns3:atemp>
            <ns3:hr>112</ns3:hr>
          </ns3:TrackPointExtension>
        </extensions>
      </trkpt>
      <trkpt lat="36.76303074695169925689697265625" lon="-118.45808786340057849884033203125">
        <ele>2415</ele>
        <time>2021-06-24T21:52:25.000Z</time>
        <extensions>
          <ns3:TrackPointExtension>
            <ns3:atemp>31.0</ns3:atemp>
            <ns3:hr>112</ns3:hr>
          </ns3:TrackPointExtension>
        </extensions>
      </trkpt>
      <trkpt lat="36.76301582716405391693115234375" lon="-118.4580780565738677978515625">
        <ele>2415.199951171875</ele>
        <time>2021-06-24T21:52:26.000Z</time>
        <extensions>
          <ns3:TrackPointExtension>
            <ns3:atemp>31.0</ns3:atemp>
            <ns3:hr>111</ns3:hr>
          </ns3:TrackPointExtension>
        </extensions>
      </trkpt>
      <trkpt lat="36.76300249993801116943359375" lon="-118.45807260833680629730224609375">
        <ele>2415.39990234375</ele>
        <time>2021-06-24T21:52:28.000Z</time>
        <extensions>
          <ns3:TrackPointExtension>
            <ns3:atemp>31.0</ns3:atemp>
            <ns3:hr>110</ns3:hr>
          </ns3:TrackPointExtension>
        </extensions>
      </trkpt>
      <trkpt lat="36.7630009911954402923583984375" lon="-118.45806623809039592742919921875">
        <ele>2415.800048828125</ele>
        <time>2021-06-24T21:52:30.000Z</time>
        <extensions>
          <ns3:TrackPointExtension>
            <ns3:atemp>31.0</ns3:atemp>
            <ns3:hr>110</ns3:hr>
          </ns3:TrackPointExtension>
        </extensions>
      </trkpt>
      <trkpt lat="36.76300241611897945404052734375" lon="-118.4580591134727001190185546875">
        <ele>2416</ele>
        <time>2021-06-24T21:52:31.000Z</time>
        <extensions>
          <ns3:TrackPointExtension>
            <ns3:atemp>31.0</ns3:atemp>
            <ns3:hr>111</ns3:hr>
          </ns3:TrackPointExtension>
        </extensions>
      </trkpt>
      <trkpt lat="36.76299990154802799224853515625" lon="-118.4580389969050884246826171875">
        <ele>2416.60009765625</ele>
        <time>2021-06-24T21:52:34.000Z</time>
        <extensions>
          <ns3:TrackPointExtension>
            <ns3:atemp>31.0</ns3:atemp>
            <ns3:hr>112</ns3:hr>
          </ns3:TrackPointExtension>
        </extensions>
      </trkpt>
      <trkpt lat="36.76298297010362148284912109375" lon="-118.45802349038422107696533203125">
        <ele>2417</ele>
        <time>2021-06-24T21:52:36.000Z</time>
        <extensions>
          <ns3:TrackPointExtension>
            <ns3:atemp>31.0</ns3:atemp>
            <ns3:hr>113</ns3:hr>
          </ns3:TrackPointExtension>
        </extensions>
      </trkpt>
      <trkpt lat="36.76297299563884735107421875" lon="-118.45801770687103271484375">
        <ele>2417</ele>
        <time>2021-06-24T21:52:37.000Z</time>
        <extensions>
          <ns3:TrackPointExtension>
            <ns3:atemp>31.0</ns3:atemp>
            <ns3:hr>113</ns3:hr>
          </ns3:TrackPointExtension>
        </extensions>
      </trkpt>
      <trkpt lat="36.76296268589794635772705078125" lon="-118.45801695249974727630615234375">
        <ele>2417</ele>
        <time>2021-06-24T21:52:38.000Z</time>
        <extensions>
          <ns3:TrackPointExtension>
            <ns3:atemp>31.0</ns3:atemp>
            <ns3:hr>113</ns3:hr>
          </ns3:TrackPointExtension>
        </extensions>
      </trkpt>
      <trkpt lat="36.76294089294970035552978515625" lon="-118.4579796530306339263916015625">
        <ele>2418.199951171875</ele>
        <time>2021-06-24T21:52:43.000Z</time>
        <extensions>
          <ns3:TrackPointExtension>
            <ns3:atemp>31.0</ns3:atemp>
            <ns3:hr>112</ns3:hr>
          </ns3:TrackPointExtension>
        </extensions>
      </trkpt>
      <trkpt lat="36.7628977261483669281005859375" lon="-118.4579493105411529541015625">
        <ele>2418.60009765625</ele>
        <time>2021-06-24T21:52:47.000Z</time>
        <extensions>
          <ns3:TrackPointExtension>
            <ns3:atemp>31.0</ns3:atemp>
            <ns3:hr>110</ns3:hr>
          </ns3:TrackPointExtension>
        </extensions>
      </trkpt>
      <trkpt lat="36.7628698982298374176025390625" lon="-118.45793497748672962188720703125">
        <ele>2418.60009765625</ele>
        <time>2021-06-24T21:52:49.000Z</time>
        <extensions>
          <ns3:TrackPointExtension>
            <ns3:atemp>31.0</ns3:atemp>
            <ns3:hr>110</ns3:hr>
          </ns3:TrackPointExtension>
        </extensions>
      </trkpt>
      <trkpt lat="36.76286160014569759368896484375" lon="-118.4579251706600189208984375">
        <ele>2418.60009765625</ele>
        <time>2021-06-24T21:52:50.000Z</time>
        <extensions>
          <ns3:TrackPointExtension>
            <ns3:atemp>31.0</ns3:atemp>
            <ns3:hr>110</ns3:hr>
          </ns3:TrackPointExtension>
        </extensions>
      </trkpt>
      <trkpt lat="36.7628407292068004608154296875" lon="-118.4579206444323062896728515625">
        <ele>2418.60009765625</ele>
        <time>2021-06-24T21:52:52.000Z</time>
        <extensions>
          <ns3:TrackPointExtension>
            <ns3:atemp>31.0</ns3:atemp>
            <ns3:hr>110</ns3:hr>
          </ns3:TrackPointExtension>
        </extensions>
      </trkpt>
      <trkpt lat="36.76279672421514987945556640625" lon="-118.457898013293743133544921875">
        <ele>2418.800048828125</ele>
        <time>2021-06-24T21:52:57.000Z</time>
        <extensions>
          <ns3:TrackPointExtension>
            <ns3:atemp>31.0</ns3:atemp>
            <ns3:hr>113</ns3:hr>
          </ns3:TrackPointExtension>
        </extensions>
      </trkpt>
      <trkpt lat="36.7627787031233310699462890625" lon="-118.4578835964202880859375">
        <ele>2419.39990234375</ele>
        <time>2021-06-24T21:52:59.000Z</time>
        <extensions>
          <ns3:TrackPointExtension>
            <ns3:atemp>31.0</ns3:atemp>
            <ns3:hr>114</ns3:hr>
          </ns3:TrackPointExtension>
        </extensions>
      </trkpt>
      <trkpt lat="36.76277124322950839996337890625" lon="-118.45787462778389453887939453125">
        <ele>2419.60009765625</ele>
        <time>2021-06-24T21:53:00.000Z</time>
        <extensions>
          <ns3:TrackPointExtension>
            <ns3:atemp>31.0</ns3:atemp>
            <ns3:hr>115</ns3:hr>
          </ns3:TrackPointExtension>
        </extensions>
      </trkpt>
      <trkpt lat="36.76275967620313167572021484375" lon="-118.45786339603364467620849609375">
        <ele>2419.60009765625</ele>
        <time>2021-06-24T21:53:02.000Z</time>
        <extensions>
          <ns3:TrackPointExtension>
            <ns3:atemp>31.0</ns3:atemp>
            <ns3:hr>114</ns3:hr>
          </ns3:TrackPointExtension>
        </extensions>
      </trkpt>
      <trkpt lat="36.76275313831865787506103515625" lon="-118.4578458778560161590576171875">
        <ele>2420.199951171875</ele>
        <time>2021-06-24T21:53:04.000Z</time>
        <extensions>
          <ns3:TrackPointExtension>
            <ns3:atemp>31.0</ns3:atemp>
            <ns3:hr>115</ns3:hr>
          </ns3:TrackPointExtension>
        </extensions>
      </trkpt>
      <trkpt lat="36.76274743862450122833251953125" lon="-118.45783908851444721221923828125">
        <ele>2420.39990234375</ele>
        <time>2021-06-24T21:53:05.000Z</time>
        <extensions>
          <ns3:TrackPointExtension>
            <ns3:atemp>31.0</ns3:atemp>
            <ns3:hr>115</ns3:hr>
          </ns3:TrackPointExtension>
        </extensions>
      </trkpt>
      <trkpt lat="36.76274308003485202789306640625" lon="-118.457833640277385711669921875">
        <ele>2420.39990234375</ele>
        <time>2021-06-24T21:53:06.000Z</time>
        <extensions>
          <ns3:TrackPointExtension>
            <ns3:atemp>31.0</ns3:atemp>
            <ns3:hr>115</ns3:hr>
          </ns3:TrackPointExtension>
        </extensions>
      </trkpt>
      <trkpt lat="36.76271240226924419403076171875" lon="-118.45782383345067501068115234375">
        <ele>2420.800048828125</ele>
        <time>2021-06-24T21:53:12.000Z</time>
        <extensions>
          <ns3:TrackPointExtension>
            <ns3:atemp>30.0</ns3:atemp>
            <ns3:hr>115</ns3:hr>
          </ns3:TrackPointExtension>
        </extensions>
      </trkpt>
      <trkpt lat="36.76270334981381893157958984375" lon="-118.45780556090176105499267578125">
        <ele>2421</ele>
        <time>2021-06-24T21:53:15.000Z</time>
        <extensions>
          <ns3:TrackPointExtension>
            <ns3:atemp>30.0</ns3:atemp>
            <ns3:hr>112</ns3:hr>
          </ns3:TrackPointExtension>
        </extensions>
      </trkpt>
      <trkpt lat="36.76269781775772571563720703125" lon="-118.457785360515117645263671875">
        <ele>2421.800048828125</ele>
        <time>2021-06-24T21:53:17.000Z</time>
        <extensions>
          <ns3:TrackPointExtension>
            <ns3:atemp>30.0</ns3:atemp>
            <ns3:hr>112</ns3:hr>
          </ns3:TrackPointExtension>
        </extensions>
      </trkpt>
      <trkpt lat="36.76269496791064739227294921875" lon="-118.4577711112797260284423828125">
        <ele>2421.800048828125</ele>
        <time>2021-06-24T21:53:18.000Z</time>
        <extensions>
          <ns3:TrackPointExtension>
            <ns3:atemp>30.0</ns3:atemp>
            <ns3:hr>115</ns3:hr>
          </ns3:TrackPointExtension>
        </extensions>
      </trkpt>
      <trkpt lat="36.76268323324620723724365234375" lon="-118.45775443129241466522216796875">
        <ele>2421.800048828125</ele>
        <time>2021-06-24T21:53:20.000Z</time>
        <extensions>
          <ns3:TrackPointExtension>
            <ns3:atemp>30.0</ns3:atemp>
            <ns3:hr>115</ns3:hr>
          </ns3:TrackPointExtension>
        </extensions>
      </trkpt>
      <trkpt lat="36.76266311667859554290771484375" lon="-118.4577159583568572998046875">
        <ele>2422.800048828125</ele>
        <time>2021-06-24T21:53:25.000Z</time>
        <extensions>
          <ns3:TrackPointExtension>
            <ns3:atemp>30.0</ns3:atemp>
            <ns3:hr>115</ns3:hr>
          </ns3:TrackPointExtension>
        </extensions>
      </trkpt>
      <trkpt lat="36.76266211085021495819091796875" lon="-118.457687459886074066162109375">
        <ele>2423.199951171875</ele>
        <time>2021-06-24T21:53:28.000Z</time>
        <extensions>
          <ns3:TrackPointExtension>
            <ns3:atemp>30.0</ns3:atemp>
            <ns3:hr>113</ns3:hr>
          </ns3:TrackPointExtension>
        </extensions>
      </trkpt>
      <trkpt lat="36.7626543156802654266357421875" lon="-118.4576381742954254150390625">
        <ele>2423.199951171875</ele>
        <time>2021-06-24T21:53:33.000Z</time>
        <extensions>
          <ns3:TrackPointExtension>
            <ns3:atemp>30.0</ns3:atemp>
            <ns3:hr>116</ns3:hr>
          </ns3:TrackPointExtension>
        </extensions>
      </trkpt>
      <trkpt lat="36.7626556567847728729248046875" lon="-118.45762920565903186798095703125">
        <ele>2423.199951171875</ele>
        <time>2021-06-24T21:53:34.000Z</time>
        <extensions>
          <ns3:TrackPointExtension>
            <ns3:atemp>30.0</ns3:atemp>
            <ns3:hr>113</ns3:hr>
          </ns3:TrackPointExtension>
        </extensions>
      </trkpt>
      <trkpt lat="36.76265322603285312652587890625" lon="-118.45761428587138652801513671875">
        <ele>2423.800048828125</ele>
        <time>2021-06-24T21:53:36.000Z</time>
        <extensions>
          <ns3:TrackPointExtension>
            <ns3:atemp>30.0</ns3:atemp>
            <ns3:hr>114</ns3:hr>
          </ns3:TrackPointExtension>
        </extensions>
      </trkpt>
      <trkpt lat="36.76267149858176708221435546875" lon="-118.4575925767421722412109375">
        <ele>2424.800048828125</ele>
        <time>2021-06-24T21:53:41.000Z</time>
        <extensions>
          <ns3:TrackPointExtension>
            <ns3:atemp>30.0</ns3:atemp>
            <ns3:hr>114</ns3:hr>
          </ns3:TrackPointExtension>
        </extensions>
      </trkpt>
      <trkpt lat="36.76268356852233409881591796875" lon="-118.45755661837756633758544921875">
        <ele>2425.39990234375</ele>
        <time>2021-06-24T21:53:44.000Z</time>
        <extensions>
          <ns3:TrackPointExtension>
            <ns3:atemp>30.0</ns3:atemp>
            <ns3:hr>114</ns3:hr>
          </ns3:TrackPointExtension>
        </extensions>
      </trkpt>
      <trkpt lat="36.76267803646624088287353515625" lon="-118.45752862282097339630126953125">
        <ele>2425.60009765625</ele>
        <time>2021-06-24T21:53:47.000Z</time>
        <extensions>
          <ns3:TrackPointExtension>
            <ns3:atemp>30.0</ns3:atemp>
            <ns3:hr>111</ns3:hr>
          </ns3:TrackPointExtension>
        </extensions>
      </trkpt>
      <trkpt lat="36.762644760310649871826171875" lon="-118.45752216875553131103515625">
        <ele>2426</ele>
        <time>2021-06-24T21:53:49.000Z</time>
        <extensions>
          <ns3:TrackPointExtension>
            <ns3:atemp>30.0</ns3:atemp>
            <ns3:hr>108</ns3:hr>
          </ns3:TrackPointExtension>
        </extensions>
      </trkpt>
      <trkpt lat="36.76262020133435726165771484375" lon="-118.45751571469008922576904296875">
        <ele>2426.199951171875</ele>
        <time>2021-06-24T21:53:50.000Z</time>
        <extensions>
          <ns3:TrackPointExtension>
            <ns3:atemp>30.0</ns3:atemp>
            <ns3:hr>107</ns3:hr>
          </ns3:TrackPointExtension>
        </extensions>
      </trkpt>
      <trkpt lat="36.76256437785923480987548828125" lon="-118.457471542060375213623046875">
        <ele>2426.39990234375</ele>
        <time>2021-06-24T21:53:54.000Z</time>
        <extensions>
          <ns3:TrackPointExtension>
            <ns3:atemp>30.0</ns3:atemp>
            <ns3:hr>105</ns3:hr>
          </ns3:TrackPointExtension>
        </extensions>
      </trkpt>
      <trkpt lat="36.76255993545055389404296875" lon="-118.45745285041630268096923828125">
        <ele>2426.800048828125</ele>
        <time>2021-06-24T21:53:56.000Z</time>
        <extensions>
          <ns3:TrackPointExtension>
            <ns3:atemp>30.0</ns3:atemp>
            <ns3:hr>106</ns3:hr>
          </ns3:TrackPointExtension>
        </extensions>
      </trkpt>
      <trkpt lat="36.7625497095286846160888671875" lon="-118.4574338234961032867431640625">
        <ele>2426.800048828125</ele>
        <time>2021-06-24T21:53:59.000Z</time>
        <extensions>
          <ns3:TrackPointExtension>
            <ns3:atemp>30.0</ns3:atemp>
            <ns3:hr>109</ns3:hr>
          </ns3:TrackPointExtension>
        </extensions>
      </trkpt>
      <trkpt lat="36.7625383101403713226318359375" lon="-118.45742116682231426239013671875">
        <ele>2427</ele>
        <time>2021-06-24T21:54:01.000Z</time>
        <extensions>
          <ns3:TrackPointExtension>
            <ns3:atemp>30.0</ns3:atemp>
            <ns3:hr>110</ns3:hr>
          </ns3:TrackPointExtension>
        </extensions>
      </trkpt>
      <trkpt lat="36.7625332809984683990478515625" lon="-118.45739183016121387481689453125">
        <ele>2427.800048828125</ele>
        <time>2021-06-24T21:54:04.000Z</time>
        <extensions>
          <ns3:TrackPointExtension>
            <ns3:atemp>30.0</ns3:atemp>
            <ns3:hr>110</ns3:hr>
          </ns3:TrackPointExtension>
        </extensions>
      </trkpt>
      <trkpt lat="36.76252909004688262939453125" lon="-118.45736467279493808746337890625">
        <ele>2428</ele>
        <time>2021-06-24T21:54:07.000Z</time>
        <extensions>
          <ns3:TrackPointExtension>
            <ns3:atemp>30.0</ns3:atemp>
            <ns3:hr>110</ns3:hr>
          </ns3:TrackPointExtension>
        </extensions>
      </trkpt>
      <trkpt lat="36.76251836121082305908203125" lon="-118.45729015767574310302734375">
        <ele>2428.199951171875</ele>
        <time>2021-06-24T21:54:13.000Z</time>
        <extensions>
          <ns3:TrackPointExtension>
            <ns3:atemp>30.0</ns3:atemp>
            <ns3:hr>113</ns3:hr>
          </ns3:TrackPointExtension>
        </extensions>
      </trkpt>
      <trkpt lat="36.7625151760876178741455078125" lon="-118.45727029256522655487060546875">
        <ele>2428.39990234375</ele>
        <time>2021-06-24T21:54:15.000Z</time>
        <extensions>
          <ns3:TrackPointExtension>
            <ns3:atemp>30.0</ns3:atemp>
            <ns3:hr>112</ns3:hr>
          </ns3:TrackPointExtension>
        </extensions>
      </trkpt>
      <trkpt lat="36.762519367039203643798828125" lon="-118.45722637139260768890380859375">
        <ele>2429</ele>
        <time>2021-06-24T21:54:21.000Z</time>
        <extensions>
          <ns3:TrackPointExtension>
            <ns3:atemp>30.0</ns3:atemp>
            <ns3:hr>113</ns3:hr>
          </ns3:TrackPointExtension>
        </extensions>
      </trkpt>
      <trkpt lat="36.76251961849629878997802734375" lon="-118.457186222076416015625">
        <ele>2429.39990234375</ele>
        <time>2021-06-24T21:54:25.000Z</time>
        <extensions>
          <ns3:TrackPointExtension>
            <ns3:atemp>31.0</ns3:atemp>
            <ns3:hr>114</ns3:hr>
          </ns3:TrackPointExtension>
        </extensions>
      </trkpt>
      <trkpt lat="36.76246630959212779998779296875" lon="-118.4571206755936145782470703125">
        <ele>2429.199951171875</ele>
        <time>2021-06-24T21:54:32.000Z</time>
        <extensions>
          <ns3:TrackPointExtension>
            <ns3:atemp>30.0</ns3:atemp>
            <ns3:hr>115</ns3:hr>
          </ns3:TrackPointExtension>
        </extensions>
      </trkpt>
      <trkpt lat="36.76241853274405002593994140625" lon="-118.45705253072082996368408203125">
        <ele>2428.199951171875</ele>
        <time>2021-06-24T21:54:39.000Z</time>
        <extensions>
          <ns3:TrackPointExtension>
            <ns3:atemp>30.0</ns3:atemp>
            <ns3:hr>115</ns3:hr>
          </ns3:TrackPointExtension>
        </extensions>
      </trkpt>
      <trkpt lat="36.76240260712802410125732421875" lon="-118.45703601837158203125">
        <ele>2428</ele>
        <time>2021-06-24T21:54:41.000Z</time>
        <extensions>
          <ns3:TrackPointExtension>
            <ns3:atemp>30.0</ns3:atemp>
            <ns3:hr>114</ns3:hr>
          </ns3:TrackPointExtension>
        </extensions>
      </trkpt>
      <trkpt lat="36.7623768746852874755859375" lon="-118.45702839083969593048095703125">
        <ele>2427.39990234375</ele>
        <time>2021-06-24T21:54:44.000Z</time>
        <extensions>
          <ns3:TrackPointExtension>
            <ns3:atemp>30.0</ns3:atemp>
            <ns3:hr>113</ns3:hr>
          </ns3:TrackPointExtension>
        </extensions>
      </trkpt>
      <trkpt lat="36.76237075589597225189208984375" lon="-118.4570033289492130279541015625">
        <ele>2427.39990234375</ele>
        <time>2021-06-24T21:54:48.000Z</time>
        <extensions>
          <ns3:TrackPointExtension>
            <ns3:atemp>30.0</ns3:atemp>
            <ns3:hr>111</ns3:hr>
          </ns3:TrackPointExtension>
        </extensions>
      </trkpt>
      <trkpt lat="36.76231727935373783111572265625" lon="-118.45693484880030155181884765625">
        <ele>2428</ele>
        <time>2021-06-24T21:54:56.000Z</time>
        <extensions>
          <ns3:TrackPointExtension>
            <ns3:atemp>30.0</ns3:atemp>
            <ns3:hr>109</ns3:hr>
          </ns3:TrackPointExtension>
        </extensions>
      </trkpt>
      <trkpt lat="36.76230889745056629180908203125" lon="-118.4569359384477138519287109375">
        <ele>2428.199951171875</ele>
        <time>2021-06-24T21:54:57.000Z</time>
        <extensions>
          <ns3:TrackPointExtension>
            <ns3:atemp>30.0</ns3:atemp>
            <ns3:hr>109</ns3:hr>
          </ns3:TrackPointExtension>
        </extensions>
      </trkpt>
      <trkpt lat="36.762302778661251068115234375" lon="-118.4569278918206691741943359375">
        <ele>2428.199951171875</ele>
        <time>2021-06-24T21:54:58.000Z</time>
        <extensions>
          <ns3:TrackPointExtension>
            <ns3:atemp>30.0</ns3:atemp>
            <ns3:hr>109</ns3:hr>
          </ns3:TrackPointExtension>
        </extensions>
      </trkpt>
      <trkpt lat="36.7623032815754413604736328125" lon="-118.4569139778614044189453125">
        <ele>2428.39990234375</ele>
        <time>2021-06-24T21:55:00.000Z</time>
        <extensions>
          <ns3:TrackPointExtension>
            <ns3:atemp>30.0</ns3:atemp>
            <ns3:hr>110</ns3:hr>
          </ns3:TrackPointExtension>
        </extensions>
      </trkpt>
      <trkpt lat="36.76231258548796176910400390625" lon="-118.45687516964972019195556640625">
        <ele>2428.800048828125</ele>
        <time>2021-06-24T21:55:03.000Z</time>
        <extensions>
          <ns3:TrackPointExtension>
            <ns3:atemp>30.0</ns3:atemp>
            <ns3:hr>111</ns3:hr>
          </ns3:TrackPointExtension>
        </extensions>
      </trkpt>
      <trkpt lat="36.762297414243221282958984375" lon="-118.4568330086767673492431640625">
        <ele>2429</ele>
        <time>2021-06-24T21:55:06.000Z</time>
        <extensions>
          <ns3:TrackPointExtension>
            <ns3:atemp>30.0</ns3:atemp>
            <ns3:hr>112</ns3:hr>
          </ns3:TrackPointExtension>
        </extensions>
      </trkpt>
      <trkpt lat="36.7622848413884639739990234375" lon="-118.4567756764590740203857421875">
        <ele>2429.199951171875</ele>
        <time>2021-06-24T21:55:11.000Z</time>
        <extensions>
          <ns3:TrackPointExtension>
            <ns3:atemp>30.0</ns3:atemp>
            <ns3:hr>112</ns3:hr>
          </ns3:TrackPointExtension>
        </extensions>
      </trkpt>
      <trkpt lat="36.7622561752796173095703125" lon="-118.45674692653119564056396484375">
        <ele>2429.39990234375</ele>
        <time>2021-06-24T21:55:14.000Z</time>
        <extensions>
          <ns3:TrackPointExtension>
            <ns3:atemp>30.0</ns3:atemp>
            <ns3:hr>112</ns3:hr>
          </ns3:TrackPointExtension>
        </extensions>
      </trkpt>
      <trkpt lat="36.76222105510532855987548828125" lon="-118.45670585520565509796142578125">
        <ele>2429.800048828125</ele>
        <time>2021-06-24T21:55:18.000Z</time>
        <extensions>
          <ns3:TrackPointExtension>
            <ns3:atemp>30.0</ns3:atemp>
            <ns3:hr>111</ns3:hr>
          </ns3:TrackPointExtension>
        </extensions>
      </trkpt>
      <trkpt lat="36.7622025310993194580078125" lon="-118.45669328235089778900146484375">
        <ele>2430.199951171875</ele>
        <time>2021-06-24T21:55:20.000Z</time>
        <extensions>
          <ns3:TrackPointExtension>
            <ns3:atemp>30.0</ns3:atemp>
            <ns3:hr>111</ns3:hr>
          </ns3:TrackPointExtension>
        </extensions>
      </trkpt>
      <trkpt lat="36.762158609926700592041015625" lon="-118.45663879998028278350830078125">
        <ele>2430.39990234375</ele>
        <time>2021-06-24T21:55:26.000Z</time>
        <extensions>
          <ns3:TrackPointExtension>
            <ns3:atemp>30.0</ns3:atemp>
            <ns3:hr>111</ns3:hr>
          </ns3:TrackPointExtension>
        </extensions>
      </trkpt>
      <trkpt lat="36.76214729435741901397705078125" lon="-118.4566117264330387115478515625">
        <ele>2431.199951171875</ele>
        <time>2021-06-24T21:55:32.000Z</time>
        <extensions>
          <ns3:TrackPointExtension>
            <ns3:atemp>30.0</ns3:atemp>
            <ns3:hr>114</ns3:hr>
          </ns3:TrackPointExtension>
        </extensions>
      </trkpt>
      <trkpt lat="36.76214528270065784454345703125" lon="-118.4566040150821208953857421875">
        <ele>2431.199951171875</ele>
        <time>2021-06-24T21:55:33.000Z</time>
        <extensions>
          <ns3:TrackPointExtension>
            <ns3:atemp>30.0</ns3:atemp>
            <ns3:hr>113</ns3:hr>
          </ns3:TrackPointExtension>
        </extensions>
      </trkpt>
      <trkpt lat="36.76214612089097499847412109375" lon="-118.45651407726109027862548828125">
        <ele>2432</ele>
        <time>2021-06-24T21:55:41.000Z</time>
        <extensions>
          <ns3:TrackPointExtension>
            <ns3:atemp>30.0</ns3:atemp>
            <ns3:hr>114</ns3:hr>
          </ns3:TrackPointExtension>
        </extensions>
      </trkpt>
      <trkpt lat="36.76214260049164295196533203125" lon="-118.45650251023471355438232421875">
        <ele>2432.199951171875</ele>
        <time>2021-06-24T21:55:42.000Z</time>
        <extensions>
          <ns3:TrackPointExtension>
            <ns3:atemp>30.0</ns3:atemp>
            <ns3:hr>115</ns3:hr>
          </ns3:TrackPointExtension>
        </extensions>
      </trkpt>
      <trkpt lat="36.76211728714406490325927734375" lon="-118.456451632082462310791015625">
        <ele>2433</ele>
        <time>2021-06-24T21:55:48.000Z</time>
        <extensions>
          <ns3:TrackPointExtension>
            <ns3:atemp>30.0</ns3:atemp>
            <ns3:hr>116</ns3:hr>
          </ns3:TrackPointExtension>
        </extensions>
      </trkpt>
      <trkpt lat="36.7621165327727794647216796875" lon="-118.45644635148346424102783203125">
        <ele>2433.39990234375</ele>
        <time>2021-06-24T21:55:49.000Z</time>
        <extensions>
          <ns3:TrackPointExtension>
            <ns3:atemp>30.0</ns3:atemp>
            <ns3:hr>116</ns3:hr>
          </ns3:TrackPointExtension>
        </extensions>
      </trkpt>
      <trkpt lat="36.762114353477954864501953125" lon="-118.45644333399832248687744140625">
        <ele>2433.39990234375</ele>
        <time>2021-06-24T21:55:50.000Z</time>
        <extensions>
          <ns3:TrackPointExtension>
            <ns3:atemp>30.0</ns3:atemp>
            <ns3:hr>116</ns3:hr>
          </ns3:TrackPointExtension>
        </extensions>
      </trkpt>
      <trkpt lat="36.762115024030208587646484375" lon="-118.45642506144940853118896484375">
        <ele>2433.800048828125</ele>
        <time>2021-06-24T21:55:52.000Z</time>
        <extensions>
          <ns3:TrackPointExtension>
            <ns3:atemp>30.0</ns3:atemp>
            <ns3:hr>116</ns3:hr>
          </ns3:TrackPointExtension>
        </extensions>
      </trkpt>
      <trkpt lat="36.7621094919741153717041015625" lon="-118.45641709864139556884765625">
        <ele>2434</ele>
        <time>2021-06-24T21:55:54.000Z</time>
        <extensions>
          <ns3:TrackPointExtension>
            <ns3:atemp>30.0</ns3:atemp>
            <ns3:hr>116</ns3:hr>
          </ns3:TrackPointExtension>
        </extensions>
      </trkpt>
      <trkpt lat="36.7621155269443988800048828125" lon="-118.456367813050746917724609375">
        <ele>2434.39990234375</ele>
        <time>2021-06-24T21:55:58.000Z</time>
        <extensions>
          <ns3:TrackPointExtension>
            <ns3:atemp>31.0</ns3:atemp>
            <ns3:hr>114</ns3:hr>
          </ns3:TrackPointExtension>
        </extensions>
      </trkpt>
      <trkpt lat="36.762113012373447418212890625" lon="-118.4563565813004970550537109375">
        <ele>2434.39990234375</ele>
        <time>2021-06-24T21:55:59.000Z</time>
        <extensions>
          <ns3:TrackPointExtension>
            <ns3:atemp>30.0</ns3:atemp>
            <ns3:hr>114</ns3:hr>
          </ns3:TrackPointExtension>
        </extensions>
      </trkpt>
      <trkpt lat="36.762110330164432525634765625" lon="-118.456345684826374053955078125">
        <ele>2434</ele>
        <time>2021-06-24T21:56:00.000Z</time>
        <extensions>
          <ns3:TrackPointExtension>
            <ns3:atemp>30.0</ns3:atemp>
            <ns3:hr>114</ns3:hr>
          </ns3:TrackPointExtension>
        </extensions>
      </trkpt>
      <trkpt lat="36.76206548698246479034423828125" lon="-118.45630687661468982696533203125">
        <ele>2434.199951171875</ele>
        <time>2021-06-24T21:56:04.000Z</time>
        <extensions>
          <ns3:TrackPointExtension>
            <ns3:atemp>31.0</ns3:atemp>
            <ns3:hr>114</ns3:hr>
          </ns3:TrackPointExtension>
        </extensions>
      </trkpt>
      <trkpt lat="36.76203967072069644927978515625" lon="-118.4562945552170276641845703125">
        <ele>2434.60009765625</ele>
        <time>2021-06-24T21:56:06.000Z</time>
        <extensions>
          <ns3:TrackPointExtension>
            <ns3:atemp>31.0</ns3:atemp>
            <ns3:hr>114</ns3:hr>
          </ns3:TrackPointExtension>
        </extensions>
      </trkpt>
      <trkpt lat="36.762005724012851715087890625" lon="-118.4562613628804683685302734375">
        <ele>2435</ele>
        <time>2021-06-24T21:56:09.000Z</time>
        <extensions>
          <ns3:TrackPointExtension>
            <ns3:atemp>31.0</ns3:atemp>
            <ns3:hr>115</ns3:hr>
          </ns3:TrackPointExtension>
        </extensions>
      </trkpt>
      <trkpt lat="36.761985607445240020751953125" lon="-118.456249125301837921142578125">
        <ele>2435.199951171875</ele>
        <time>2021-06-24T21:56:11.000Z</time>
        <extensions>
          <ns3:TrackPointExtension>
            <ns3:atemp>30.0</ns3:atemp>
            <ns3:hr>115</ns3:hr>
          </ns3:TrackPointExtension>
        </extensions>
      </trkpt>
      <trkpt lat="36.7619582824409008026123046875" lon="-118.456213586032390594482421875">
        <ele>2435.60009765625</ele>
        <time>2021-06-24T21:56:15.000Z</time>
        <extensions>
          <ns3:TrackPointExtension>
            <ns3:atemp>30.0</ns3:atemp>
            <ns3:hr>113</ns3:hr>
          </ns3:TrackPointExtension>
        </extensions>
      </trkpt>
      <trkpt lat="36.76193925552070140838623046875" lon="-118.456190787255764007568359375">
        <ele>2436</ele>
        <time>2021-06-24T21:56:18.000Z</time>
        <extensions>
          <ns3:TrackPointExtension>
            <ns3:atemp>30.0</ns3:atemp>
            <ns3:hr>113</ns3:hr>
          </ns3:TrackPointExtension>
        </extensions>
      </trkpt>
      <trkpt lat="36.76191176287829875946044921875" lon="-118.4561661444604396820068359375">
        <ele>2436.199951171875</ele>
        <time>2021-06-24T21:56:21.000Z</time>
        <extensions>
          <ns3:TrackPointExtension>
            <ns3:atemp>30.0</ns3:atemp>
            <ns3:hr>110</ns3:hr>
          </ns3:TrackPointExtension>
        </extensions>
      </trkpt>
      <trkpt lat="36.76188292913138866424560546875" lon="-118.45615197904407978057861328125">
        <ele>2436.39990234375</ele>
        <time>2021-06-24T21:56:23.000Z</time>
        <extensions>
          <ns3:TrackPointExtension>
            <ns3:atemp>30.0</ns3:atemp>
            <ns3:hr>109</ns3:hr>
          </ns3:TrackPointExtension>
        </extensions>
      </trkpt>
      <trkpt lat="36.7618670873343944549560546875" lon="-118.45614753663539886474609375">
        <ele>2436.800048828125</ele>
        <time>2021-06-24T21:56:24.000Z</time>
        <extensions>
          <ns3:TrackPointExtension>
            <ns3:atemp>30.0</ns3:atemp>
            <ns3:hr>108</ns3:hr>
          </ns3:TrackPointExtension>
        </extensions>
      </trkpt>
      <trkpt lat="36.7618412710726261138916015625" lon="-118.4561249054968357086181640625">
        <ele>2437.199951171875</ele>
        <time>2021-06-24T21:56:27.000Z</time>
        <extensions>
          <ns3:TrackPointExtension>
            <ns3:atemp>30.0</ns3:atemp>
            <ns3:hr>105</ns3:hr>
          </ns3:TrackPointExtension>
        </extensions>
      </trkpt>
      <trkpt lat="36.76181755028665065765380859375" lon="-118.4560920484364032745361328125">
        <ele>2437.199951171875</ele>
        <time>2021-06-24T21:56:30.000Z</time>
        <extensions>
          <ns3:TrackPointExtension>
            <ns3:atemp>30.0</ns3:atemp>
            <ns3:hr>103</ns3:hr>
          </ns3:TrackPointExtension>
        </extensions>
      </trkpt>
      <trkpt lat="36.7617631517350673675537109375" lon="-118.45600076951086521148681640625">
        <ele>2437.39990234375</ele>
        <time>2021-06-24T21:56:37.000Z</time>
        <extensions>
          <ns3:TrackPointExtension>
            <ns3:atemp>30.0</ns3:atemp>
            <ns3:hr>101</ns3:hr>
          </ns3:TrackPointExtension>
        </extensions>
      </trkpt>
      <trkpt lat="36.76174714230000972747802734375" lon="-118.4559805691242218017578125">
        <ele>2437.800048828125</ele>
        <time>2021-06-24T21:56:42.000Z</time>
        <extensions>
          <ns3:TrackPointExtension>
            <ns3:atemp>30.0</ns3:atemp>
            <ns3:hr>101</ns3:hr>
          </ns3:TrackPointExtension>
        </extensions>
      </trkpt>
      <trkpt lat="36.76174546591937541961669921875" lon="-118.455968834459781646728515625">
        <ele>2437.800048828125</ele>
        <time>2021-06-24T21:56:43.000Z</time>
        <extensions>
          <ns3:TrackPointExtension>
            <ns3:atemp>30.0</ns3:atemp>
            <ns3:hr>101</ns3:hr>
          </ns3:TrackPointExtension>
        </extensions>
      </trkpt>
      <trkpt lat="36.76174278371036052703857421875" lon="-118.45596204511821269989013671875">
        <ele>2438.199951171875</ele>
        <time>2021-06-24T21:56:44.000Z</time>
        <extensions>
          <ns3:TrackPointExtension>
            <ns3:atemp>30.0</ns3:atemp>
            <ns3:hr>101</ns3:hr>
          </ns3:TrackPointExtension>
        </extensions>
      </trkpt>
      <trkpt lat="36.761710681021213531494140625" lon="-118.4558985941112041473388671875">
        <ele>2438.60009765625</ele>
        <time>2021-06-24T21:56:51.000Z</time>
        <extensions>
          <ns3:TrackPointExtension>
            <ns3:atemp>30.0</ns3:atemp>
            <ns3:hr>99</ns3:hr>
          </ns3:TrackPointExtension>
        </extensions>
      </trkpt>
      <trkpt lat="36.761710010468959808349609375" lon="-118.455890379846096038818359375">
        <ele>2438.800048828125</ele>
        <time>2021-06-24T21:56:52.000Z</time>
        <extensions>
          <ns3:TrackPointExtension>
            <ns3:atemp>30.0</ns3:atemp>
            <ns3:hr>98</ns3:hr>
          </ns3:TrackPointExtension>
        </extensions>
      </trkpt>
      <trkpt lat="36.761679835617542266845703125" lon="-118.45585249364376068115234375">
        <ele>2439.199951171875</ele>
        <time>2021-06-24T21:56:56.000Z</time>
        <extensions>
          <ns3:TrackPointExtension>
            <ns3:atemp>30.0</ns3:atemp>
            <ns3:hr>94</ns3:hr>
          </ns3:TrackPointExtension>
        </extensions>
      </trkpt>
      <trkpt lat="36.7616380937397480010986328125" lon="-118.45580396242439746856689453125">
        <ele>2439.60009765625</ele>
        <time>2021-06-24T21:57:02.000Z</time>
        <extensions>
          <ns3:TrackPointExtension>
            <ns3:atemp>30.0</ns3:atemp>
            <ns3:hr>91</ns3:hr>
          </ns3:TrackPointExtension>
        </extensions>
      </trkpt>
      <trkpt lat="36.761624179780483245849609375" lon="-118.4557815827429294586181640625">
        <ele>2440</ele>
        <time>2021-06-24T21:57:05.000Z</time>
        <extensions>
          <ns3:TrackPointExtension>
            <ns3:atemp>30.0</ns3:atemp>
            <ns3:hr>89</ns3:hr>
          </ns3:TrackPointExtension>
        </extensions>
      </trkpt>
      <trkpt lat="36.76157967187464237213134765625" lon="-118.4557430259883403778076171875">
        <ele>2440.800048828125</ele>
        <time>2021-06-24T21:57:12.000Z</time>
        <extensions>
          <ns3:TrackPointExtension>
            <ns3:atemp>30.0</ns3:atemp>
            <ns3:hr>90</ns3:hr>
          </ns3:TrackPointExtension>
        </extensions>
      </trkpt>
      <trkpt lat="36.7615735530853271484375" lon="-118.45573036931455135345458984375">
        <ele>2441</ele>
        <time>2021-06-24T21:57:14.000Z</time>
        <extensions>
          <ns3:TrackPointExtension>
            <ns3:atemp>30.0</ns3:atemp>
            <ns3:hr>91</ns3:hr>
          </ns3:TrackPointExtension>
        </extensions>
      </trkpt>
      <trkpt lat="36.76157698966562747955322265625" lon="-118.45571461133658885955810546875">
        <ele>2441.60009765625</ele>
        <time>2021-06-24T21:57:16.000Z</time>
        <extensions>
          <ns3:TrackPointExtension>
            <ns3:atemp>30.0</ns3:atemp>
            <ns3:hr>92</ns3:hr>
          </ns3:TrackPointExtension>
        </extensions>
      </trkpt>
      <trkpt lat="36.76156156696379184722900390625" lon="-118.4556934051215648651123046875">
        <ele>2441.800048828125</ele>
        <time>2021-06-24T21:57:19.000Z</time>
        <extensions>
          <ns3:TrackPointExtension>
            <ns3:atemp>30.0</ns3:atemp>
            <ns3:hr>96</ns3:hr>
          </ns3:TrackPointExtension>
        </extensions>
      </trkpt>
      <trkpt lat="36.7615479044616222381591796875" lon="-118.45567689277231693267822265625">
        <ele>2442</ele>
        <time>2021-06-24T21:57:21.000Z</time>
        <extensions>
          <ns3:TrackPointExtension>
            <ns3:atemp>30.0</ns3:atemp>
            <ns3:hr>98</ns3:hr>
          </ns3:TrackPointExtension>
        </extensions>
      </trkpt>
      <trkpt lat="36.76152862608432769775390625" lon="-118.45565912313759326934814453125">
        <ele>2442.199951171875</ele>
        <time>2021-06-24T21:57:24.000Z</time>
        <extensions>
          <ns3:TrackPointExtension>
            <ns3:atemp>31.0</ns3:atemp>
            <ns3:hr>99</ns3:hr>
          </ns3:TrackPointExtension>
        </extensions>
      </trkpt>
      <trkpt lat="36.7615177296102046966552734375" lon="-118.45564504154026508331298828125">
        <ele>2442.199951171875</ele>
        <time>2021-06-24T21:57:26.000Z</time>
        <extensions>
          <ns3:TrackPointExtension>
            <ns3:atemp>31.0</ns3:atemp>
            <ns3:hr>99</ns3:hr>
          </ns3:TrackPointExtension>
        </extensions>
      </trkpt>
      <trkpt lat="36.761502809822559356689453125" lon="-118.4556340612471103668212890625">
        <ele>2442.39990234375</ele>
        <time>2021-06-24T21:57:28.000Z</time>
        <extensions>
          <ns3:TrackPointExtension>
            <ns3:atemp>31.0</ns3:atemp>
            <ns3:hr>102</ns3:hr>
          </ns3:TrackPointExtension>
        </extensions>
      </trkpt>
      <trkpt lat="36.76149467937648296356201171875" lon="-118.45562894828617572784423828125">
        <ele>2442.60009765625</ele>
        <time>2021-06-24T21:57:29.000Z</time>
        <extensions>
          <ns3:TrackPointExtension>
            <ns3:atemp>31.0</ns3:atemp>
            <ns3:hr>99</ns3:hr>
          </ns3:TrackPointExtension>
        </extensions>
      </trkpt>
      <trkpt lat="36.76148730330169200897216796875" lon="-118.455621488392353057861328125">
        <ele>2442.800048828125</ele>
        <time>2021-06-24T21:57:30.000Z</time>
        <extensions>
          <ns3:TrackPointExtension>
            <ns3:atemp>31.0</ns3:atemp>
            <ns3:hr>99</ns3:hr>
          </ns3:TrackPointExtension>
        </extensions>
      </trkpt>
      <trkpt lat="36.76147121004760265350341796875" lon="-118.45559793524444103240966796875">
        <ele>2442.800048828125</ele>
        <time>2021-06-24T21:57:33.000Z</time>
        <extensions>
          <ns3:TrackPointExtension>
            <ns3:atemp>31.0</ns3:atemp>
            <ns3:hr>99</ns3:hr>
          </ns3:TrackPointExtension>
        </extensions>
      </trkpt>
      <trkpt lat="36.76145260222256183624267578125" lon="-118.4555770643055438995361328125">
        <ele>2442.800048828125</ele>
        <time>2021-06-24T21:57:35.000Z</time>
        <extensions>
          <ns3:TrackPointExtension>
            <ns3:atemp>31.0</ns3:atemp>
            <ns3:hr>100</ns3:hr>
          </ns3:TrackPointExtension>
        </extensions>
      </trkpt>
      <trkpt lat="36.76142930053174495697021484375" lon="-118.45555451698601245880126953125">
        <ele>2443.199951171875</ele>
        <time>2021-06-24T21:57:38.000Z</time>
        <extensions>
          <ns3:TrackPointExtension>
            <ns3:atemp>31.0</ns3:atemp>
            <ns3:hr>102</ns3:hr>
          </ns3:TrackPointExtension>
        </extensions>
      </trkpt>
      <trkpt lat="36.76141924224793910980224609375" lon="-118.45551495440304279327392578125">
        <ele>2443.39990234375</ele>
        <time>2021-06-24T21:57:41.000Z</time>
        <extensions>
          <ns3:TrackPointExtension>
            <ns3:atemp>31.0</ns3:atemp>
            <ns3:hr>104</ns3:hr>
          </ns3:TrackPointExtension>
        </extensions>
      </trkpt>
      <trkpt lat="36.761424355208873748779296875" lon="-118.45546835102140903472900390625">
        <ele>2444.199951171875</ele>
        <time>2021-06-24T21:57:46.000Z</time>
        <extensions>
          <ns3:TrackPointExtension>
            <ns3:atemp>31.0</ns3:atemp>
            <ns3:hr>104</ns3:hr>
          </ns3:TrackPointExtension>
        </extensions>
      </trkpt>
      <trkpt lat="36.76141270436346530914306640625" lon="-118.45542962662875652313232421875">
        <ele>2444.800048828125</ele>
        <time>2021-06-24T21:57:49.000Z</time>
        <extensions>
          <ns3:TrackPointExtension>
            <ns3:atemp>31.0</ns3:atemp>
            <ns3:hr>105</ns3:hr>
          </ns3:TrackPointExtension>
        </extensions>
      </trkpt>
      <trkpt lat="36.76137917675077915191650390625" lon="-118.4553551115095615386962890625">
        <ele>2445.39990234375</ele>
        <time>2021-06-24T21:57:55.000Z</time>
        <extensions>
          <ns3:TrackPointExtension>
            <ns3:atemp>31.0</ns3:atemp>
            <ns3:hr>106</ns3:hr>
          </ns3:TrackPointExtension>
        </extensions>
      </trkpt>
      <trkpt lat="36.76136903464794158935546875" lon="-118.455354273319244384765625">
        <ele>2445.39990234375</ele>
        <time>2021-06-24T21:57:56.000Z</time>
        <extensions>
          <ns3:TrackPointExtension>
            <ns3:atemp>31.0</ns3:atemp>
            <ns3:hr>106</ns3:hr>
          </ns3:TrackPointExtension>
        </extensions>
      </trkpt>
      <trkpt lat="36.7613510973751544952392578125" lon="-118.4553541056811809539794921875">
        <ele>2445.60009765625</ele>
        <time>2021-06-24T21:57:58.000Z</time>
        <extensions>
          <ns3:TrackPointExtension>
            <ns3:atemp>31.0</ns3:atemp>
            <ns3:hr>107</ns3:hr>
          </ns3:TrackPointExtension>
        </extensions>
      </trkpt>
      <trkpt lat="36.76133760251104831695556640625" lon="-118.45536835491657257080078125">
        <ele>2445.39990234375</ele>
        <time>2021-06-24T21:58:02.000Z</time>
        <extensions>
          <ns3:TrackPointExtension>
            <ns3:atemp>31.0</ns3:atemp>
            <ns3:hr>106</ns3:hr>
          </ns3:TrackPointExtension>
        </extensions>
      </trkpt>
      <trkpt lat="36.76132871769368648529052734375" lon="-118.455356620252132415771484375">
        <ele>2445.199951171875</ele>
        <time>2021-06-24T21:58:07.000Z</time>
        <extensions>
          <ns3:TrackPointExtension>
            <ns3:atemp>31.0</ns3:atemp>
            <ns3:hr>103</ns3:hr>
          </ns3:TrackPointExtension>
        </extensions>
      </trkpt>
      <trkpt lat="36.76132385618984699249267578125" lon="-118.45537908375263214111328125">
        <ele>2445.39990234375</ele>
        <time>2021-06-24T21:58:11.000Z</time>
        <extensions>
          <ns3:TrackPointExtension>
            <ns3:atemp>30.0</ns3:atemp>
            <ns3:hr>101</ns3:hr>
          </ns3:TrackPointExtension>
        </extensions>
      </trkpt>
      <trkpt lat="36.76132385618984699249267578125" lon="-118.45537908375263214111328125">
        <ele>2445.39990234375</ele>
        <time>2021-06-24T21:58:15.000Z</time>
        <extensions>
          <ns3:TrackPointExtension>
            <ns3:atemp>30.0</ns3:atemp>
            <ns3:hr>98</ns3:hr>
          </ns3:TrackPointExtension>
        </extensions>
      </trkpt>
      <trkpt lat="36.76132385618984699249267578125" lon="-118.45537908375263214111328125">
        <ele>2445.39990234375</ele>
        <time>2021-06-24T21:58:16.000Z</time>
        <extensions>
          <ns3:TrackPointExtension>
            <ns3:atemp>30.0</ns3:atemp>
            <ns3:hr>95</ns3:hr>
          </ns3:TrackPointExtension>
        </extensions>
      </trkpt>
      <trkpt lat="36.76132385618984699249267578125" lon="-118.45537908375263214111328125">
        <ele>2445.39990234375</ele>
        <time>2021-06-24T21:58:17.000Z</time>
        <extensions>
          <ns3:TrackPointExtension>
            <ns3:atemp>30.0</ns3:atemp>
            <ns3:hr>92</ns3:hr>
          </ns3:TrackPointExtension>
        </extensions>
      </trkpt>
      <trkpt lat="36.761326454579830169677734375" lon="-118.45537908375263214111328125">
        <ele>2446.199951171875</ele>
        <time>2021-06-24T21:58:25.000Z</time>
        <extensions>
          <ns3:TrackPointExtension>
            <ns3:atemp>30.0</ns3:atemp>
            <ns3:hr>96</ns3:hr>
          </ns3:TrackPointExtension>
        </extensions>
      </trkpt>
      <trkpt lat="36.7613266222178936004638671875" lon="-118.4553872980177402496337890625">
        <ele>2446.199951171875</ele>
        <time>2021-06-24T21:58:28.000Z</time>
        <extensions>
          <ns3:TrackPointExtension>
            <ns3:atemp>30.0</ns3:atemp>
            <ns3:hr>93</ns3:hr>
          </ns3:TrackPointExtension>
        </extensions>
      </trkpt>
      <trkpt lat="36.7613266222178936004638671875" lon="-118.455387465655803680419921875">
        <ele>2446.199951171875</ele>
        <time>2021-06-24T21:58:30.000Z</time>
        <extensions>
          <ns3:TrackPointExtension>
            <ns3:atemp>30.0</ns3:atemp>
            <ns3:hr>98</ns3:hr>
          </ns3:TrackPointExtension>
        </extensions>
      </trkpt>
      <trkpt lat="36.7613266222178936004638671875" lon="-118.455387465655803680419921875">
        <ele>2446.39990234375</ele>
        <time>2021-06-24T21:58:37.000Z</time>
        <extensions>
          <ns3:TrackPointExtension>
            <ns3:atemp>30.0</ns3:atemp>
            <ns3:hr>101</ns3:hr>
          </ns3:TrackPointExtension>
        </extensions>
      </trkpt>
      <trkpt lat="36.76132678985595703125" lon="-118.455387465655803680419921875">
        <ele>2446.199951171875</ele>
        <time>2021-06-24T21:58:41.000Z</time>
        <extensions>
          <ns3:TrackPointExtension>
            <ns3:atemp>30.0</ns3:atemp>
            <ns3:hr>104</ns3:hr>
          </ns3:TrackPointExtension>
        </extensions>
      </trkpt>
      <trkpt lat="36.7613078467547893524169921875" lon="-118.45539224334061145782470703125">
        <ele>2446.60009765625</ele>
        <time>2021-06-24T21:59:01.000Z</time>
        <extensions>
          <ns3:TrackPointExtension>
            <ns3:atemp>30.0</ns3:atemp>
            <ns3:hr>101</ns3:hr>
          </ns3:TrackPointExtension>
        </extensions>
      </trkpt>
      <trkpt lat="36.76130239851772785186767578125" lon="-118.45541370101273059844970703125">
        <ele>2447.199951171875</ele>
        <time>2021-06-24T21:59:08.000Z</time>
        <extensions>
          <ns3:TrackPointExtension>
            <ns3:atemp>30.0</ns3:atemp>
            <ns3:hr>98</ns3:hr>
          </ns3:TrackPointExtension>
        </extensions>
      </trkpt>
      <trkpt lat="36.76126149483025074005126953125" lon="-118.4553507529199123382568359375">
        <ele>2447.39990234375</ele>
        <time>2021-06-24T21:59:16.000Z</time>
        <extensions>
          <ns3:TrackPointExtension>
            <ns3:atemp>30.0</ns3:atemp>
            <ns3:hr>97</ns3:hr>
          </ns3:TrackPointExtension>
        </extensions>
      </trkpt>
      <trkpt lat="36.7612498439848423004150390625" lon="-118.45533222891390323638916015625">
        <ele>2447.60009765625</ele>
        <time>2021-06-24T21:59:17.000Z</time>
        <extensions>
          <ns3:TrackPointExtension>
            <ns3:atemp>30.0</ns3:atemp>
            <ns3:hr>97</ns3:hr>
          </ns3:TrackPointExtension>
        </extensions>
      </trkpt>
      <trkpt lat="36.76119477488100528717041015625" lon="-118.45526534132659435272216796875">
        <ele>2447.60009765625</ele>
        <time>2021-06-24T21:59:22.000Z</time>
        <extensions>
          <ns3:TrackPointExtension>
            <ns3:atemp>30.0</ns3:atemp>
            <ns3:hr>97</ns3:hr>
          </ns3:TrackPointExtension>
        </extensions>
      </trkpt>
      <trkpt lat="36.7611522786319255828857421875" lon="-118.45524488948285579681396484375">
        <ele>2448</ele>
        <time>2021-06-24T21:59:29.000Z</time>
        <extensions>
          <ns3:TrackPointExtension>
            <ns3:atemp>30.0</ns3:atemp>
            <ns3:hr>98</ns3:hr>
          </ns3:TrackPointExtension>
        </extensions>
      </trkpt>
      <trkpt lat="36.7611519433557987213134765625" lon="-118.45523868687450885772705078125">
        <ele>2448</ele>
        <time>2021-06-24T21:59:30.000Z</time>
        <extensions>
          <ns3:TrackPointExtension>
            <ns3:atemp>30.0</ns3:atemp>
            <ns3:hr>98</ns3:hr>
          </ns3:TrackPointExtension>
        </extensions>
      </trkpt>
      <trkpt lat="36.76115219481289386749267578125" lon="-118.45522058196365833282470703125">
        <ele>2448.199951171875</ele>
        <time>2021-06-24T21:59:32.000Z</time>
        <extensions>
          <ns3:TrackPointExtension>
            <ns3:atemp>30.0</ns3:atemp>
            <ns3:hr>98</ns3:hr>
          </ns3:TrackPointExtension>
        </extensions>
      </trkpt>
      <trkpt lat="36.76114968024194240570068359375" lon="-118.45520230941474437713623046875">
        <ele>2448.39990234375</ele>
        <time>2021-06-24T21:59:34.000Z</time>
        <extensions>
          <ns3:TrackPointExtension>
            <ns3:atemp>30.0</ns3:atemp>
            <ns3:hr>99</ns3:hr>
          </ns3:TrackPointExtension>
        </extensions>
      </trkpt>
      <trkpt lat="36.7611459083855152130126953125" lon="-118.45518956892192363739013671875">
        <ele>2448.39990234375</ele>
        <time>2021-06-24T21:59:35.000Z</time>
        <extensions>
          <ns3:TrackPointExtension>
            <ns3:atemp>30.0</ns3:atemp>
            <ns3:hr>100</ns3:hr>
          </ns3:TrackPointExtension>
        </extensions>
      </trkpt>
      <trkpt lat="36.76111548207700252532958984375" lon="-118.4551626630127429962158203125">
        <ele>2448.60009765625</ele>
        <time>2021-06-24T21:59:38.000Z</time>
        <extensions>
          <ns3:TrackPointExtension>
            <ns3:atemp>30.0</ns3:atemp>
            <ns3:hr>100</ns3:hr>
          </ns3:TrackPointExtension>
        </extensions>
      </trkpt>
      <trkpt lat="36.76110123284161090850830078125" lon="-118.4551435522735118865966796875">
        <ele>2448.800048828125</ele>
        <time>2021-06-24T21:59:40.000Z</time>
        <extensions>
          <ns3:TrackPointExtension>
            <ns3:atemp>30.0</ns3:atemp>
            <ns3:hr>99</ns3:hr>
          </ns3:TrackPointExtension>
        </extensions>
      </trkpt>
      <trkpt lat="36.7610929347574710845947265625" lon="-118.45511748455464839935302734375">
        <ele>2449.199951171875</ele>
        <time>2021-06-24T21:59:43.000Z</time>
        <extensions>
          <ns3:TrackPointExtension>
            <ns3:atemp>30.0</ns3:atemp>
            <ns3:hr>99</ns3:hr>
          </ns3:TrackPointExtension>
        </extensions>
      </trkpt>
      <trkpt lat="36.76109855063259601593017578125" lon="-118.45510038547217845916748046875">
        <ele>2449.39990234375</ele>
        <time>2021-06-24T21:59:47.000Z</time>
        <extensions>
          <ns3:TrackPointExtension>
            <ns3:atemp>30.0</ns3:atemp>
            <ns3:hr>98</ns3:hr>
          </ns3:TrackPointExtension>
        </extensions>
      </trkpt>
      <trkpt lat="36.76109142601490020751953125" lon="-118.45504380762577056884765625">
        <ele>2449.800048828125</ele>
        <time>2021-06-24T21:59:51.000Z</time>
        <extensions>
          <ns3:TrackPointExtension>
            <ns3:atemp>30.0</ns3:atemp>
            <ns3:hr>101</ns3:hr>
          </ns3:TrackPointExtension>
        </extensions>
      </trkpt>
      <trkpt lat="36.76108329556882381439208984375" lon="-118.45500617288053035736083984375">
        <ele>2450</ele>
        <time>2021-06-24T21:59:54.000Z</time>
        <extensions>
          <ns3:TrackPointExtension>
            <ns3:atemp>30.0</ns3:atemp>
            <ns3:hr>101</ns3:hr>
          </ns3:TrackPointExtension>
        </extensions>
      </trkpt>
      <trkpt lat="36.76106200553476810455322265625" lon="-118.45496878959238529205322265625">
        <ele>2450</ele>
        <time>2021-06-24T21:59:57.000Z</time>
        <extensions>
          <ns3:TrackPointExtension>
            <ns3:atemp>30.0</ns3:atemp>
            <ns3:hr>101</ns3:hr>
          </ns3:TrackPointExtension>
        </extensions>
      </trkpt>
      <trkpt lat="36.7610530368983745574951171875" lon="-118.4549383632838726043701171875">
        <ele>2450.199951171875</ele>
        <time>2021-06-24T22:00:00.000Z</time>
        <extensions>
          <ns3:TrackPointExtension>
            <ns3:atemp>30.0</ns3:atemp>
            <ns3:hr>101</ns3:hr>
          </ns3:TrackPointExtension>
        </extensions>
      </trkpt>
      <trkpt lat="36.761039793491363525390625" lon="-118.454917408525943756103515625">
        <ele>2450.39990234375</ele>
        <time>2021-06-24T22:00:02.000Z</time>
        <extensions>
          <ns3:TrackPointExtension>
            <ns3:atemp>30.0</ns3:atemp>
            <ns3:hr>99</ns3:hr>
          </ns3:TrackPointExtension>
        </extensions>
      </trkpt>
      <trkpt lat="36.76101121120154857635498046875" lon="-118.4549237787723541259765625">
        <ele>2450.39990234375</ele>
        <time>2021-06-24T22:00:06.000Z</time>
        <extensions>
          <ns3:TrackPointExtension>
            <ns3:atemp>30.0</ns3:atemp>
            <ns3:hr>99</ns3:hr>
          </ns3:TrackPointExtension>
        </extensions>
      </trkpt>
      <trkpt lat="36.76098883152008056640625" lon="-118.454920090734958648681640625">
        <ele>2450.39990234375</ele>
        <time>2021-06-24T22:00:09.000Z</time>
        <extensions>
          <ns3:TrackPointExtension>
            <ns3:atemp>30.0</ns3:atemp>
            <ns3:hr>102</ns3:hr>
          </ns3:TrackPointExtension>
        </extensions>
      </trkpt>
      <trkpt lat="36.76098816096782684326171875" lon="-118.4549085237085819244384765625">
        <ele>2450.199951171875</ele>
        <time>2021-06-24T22:00:13.000Z</time>
        <extensions>
          <ns3:TrackPointExtension>
            <ns3:atemp>30.0</ns3:atemp>
            <ns3:hr>101</ns3:hr>
          </ns3:TrackPointExtension>
        </extensions>
      </trkpt>
      <trkpt lat="36.7609843052923679351806640625" lon="-118.45490307547152042388916015625">
        <ele>2450</ele>
        <time>2021-06-24T22:00:17.000Z</time>
        <extensions>
          <ns3:TrackPointExtension>
            <ns3:atemp>30.0</ns3:atemp>
            <ns3:hr>98</ns3:hr>
          </ns3:TrackPointExtension>
        </extensions>
      </trkpt>
      <trkpt lat="36.76097969524562358856201171875" lon="-118.45488346181809902191162109375">
        <ele>2450</ele>
        <time>2021-06-24T22:00:21.000Z</time>
        <extensions>
          <ns3:TrackPointExtension>
            <ns3:atemp>30.0</ns3:atemp>
            <ns3:hr>98</ns3:hr>
          </ns3:TrackPointExtension>
        </extensions>
      </trkpt>
      <trkpt lat="36.76099377684295177459716796875" lon="-118.4548817016184329986572265625">
        <ele>2450.60009765625</ele>
        <time>2021-06-24T22:00:25.000Z</time>
        <extensions>
          <ns3:TrackPointExtension>
            <ns3:atemp>30.0</ns3:atemp>
            <ns3:hr>95</ns3:hr>
          </ns3:TrackPointExtension>
        </extensions>
      </trkpt>
      <trkpt lat="36.76099142991006374359130859375" lon="-118.454876504838466644287109375">
        <ele>2450.60009765625</ele>
        <time>2021-06-24T22:00:27.000Z</time>
        <extensions>
          <ns3:TrackPointExtension>
            <ns3:atemp>30.0</ns3:atemp>
            <ns3:hr>95</ns3:hr>
          </ns3:TrackPointExtension>
        </extensions>
      </trkpt>
      <trkpt lat="36.7609889991581439971923828125" lon="-118.45487675629556179046630859375">
        <ele>2450.60009765625</ele>
        <time>2021-06-24T22:00:34.000Z</time>
        <extensions>
          <ns3:TrackPointExtension>
            <ns3:atemp>30.0</ns3:atemp>
            <ns3:hr>98</ns3:hr>
          </ns3:TrackPointExtension>
        </extensions>
      </trkpt>
      <trkpt lat="36.7609889991581439971923828125" lon="-118.45487675629556179046630859375">
        <ele>2450.60009765625</ele>
        <time>2021-06-24T22:00:39.000Z</time>
        <extensions>
          <ns3:TrackPointExtension>
            <ns3:atemp>30.0</ns3:atemp>
            <ns3:hr>98</ns3:hr>
          </ns3:TrackPointExtension>
        </extensions>
      </trkpt>
      <trkpt lat="36.760982461273670196533203125" lon="-118.45487575046718120574951171875">
        <ele>2450.60009765625</ele>
        <time>2021-06-24T22:00:50.000Z</time>
        <extensions>
          <ns3:TrackPointExtension>
            <ns3:atemp>30.0</ns3:atemp>
            <ns3:hr>101</ns3:hr>
          </ns3:TrackPointExtension>
        </extensions>
      </trkpt>
      <trkpt lat="36.76097718067467212677001953125" lon="-118.45487206242978572845458984375">
        <ele>2450.800048828125</ele>
        <time>2021-06-24T22:00:54.000Z</time>
        <extensions>
          <ns3:TrackPointExtension>
            <ns3:atemp>30.0</ns3:atemp>
            <ns3:hr>103</ns3:hr>
          </ns3:TrackPointExtension>
        </extensions>
      </trkpt>
      <trkpt lat="36.7609648592770099639892578125" lon="-118.45487080514430999755859375">
        <ele>2450.800048828125</ele>
        <time>2021-06-24T22:00:57.000Z</time>
        <extensions>
          <ns3:TrackPointExtension>
            <ns3:atemp>30.0</ns3:atemp>
            <ns3:hr>106</ns3:hr>
          </ns3:TrackPointExtension>
        </extensions>
      </trkpt>
      <trkpt lat="36.76094750873744487762451171875" lon="-118.4548062644898891448974609375">
        <ele>2451.39990234375</ele>
        <time>2021-06-24T22:01:07.000Z</time>
        <extensions>
          <ns3:TrackPointExtension>
            <ns3:atemp>30.0</ns3:atemp>
            <ns3:hr>104</ns3:hr>
          </ns3:TrackPointExtension>
        </extensions>
      </trkpt>
      <trkpt lat="36.760935522615909576416015625" lon="-118.4547507762908935546875">
        <ele>2451.199951171875</ele>
        <time>2021-06-24T22:01:10.000Z</time>
        <extensions>
          <ns3:TrackPointExtension>
            <ns3:atemp>30.0</ns3:atemp>
            <ns3:hr>101</ns3:hr>
          </ns3:TrackPointExtension>
        </extensions>
      </trkpt>
      <trkpt lat="36.76093426533043384552001953125" lon="-118.45473225228488445281982421875">
        <ele>2451.39990234375</ele>
        <time>2021-06-24T22:01:11.000Z</time>
        <extensions>
          <ns3:TrackPointExtension>
            <ns3:atemp>30.0</ns3:atemp>
            <ns3:hr>105</ns3:hr>
          </ns3:TrackPointExtension>
        </extensions>
      </trkpt>
      <trkpt lat="36.7609232850372791290283203125" lon="-118.45469285733997821807861328125">
        <ele>2451.800048828125</ele>
        <time>2021-06-24T22:01:13.000Z</time>
        <extensions>
          <ns3:TrackPointExtension>
            <ns3:atemp>30.0</ns3:atemp>
            <ns3:hr>103</ns3:hr>
          </ns3:TrackPointExtension>
        </extensions>
      </trkpt>
      <trkpt lat="36.7609132267534732818603515625" lon="-118.454686067998409271240234375">
        <ele>2451.800048828125</ele>
        <time>2021-06-24T22:01:14.000Z</time>
        <extensions>
          <ns3:TrackPointExtension>
            <ns3:atemp>30.0</ns3:atemp>
            <ns3:hr>102</ns3:hr>
          </ns3:TrackPointExtension>
        </extensions>
      </trkpt>
      <trkpt lat="36.76090526394546031951904296875" lon="-118.4546765126287937164306640625">
        <ele>2452</ele>
        <time>2021-06-24T22:01:15.000Z</time>
        <extensions>
          <ns3:TrackPointExtension>
            <ns3:atemp>30.0</ns3:atemp>
            <ns3:hr>102</ns3:hr>
          </ns3:TrackPointExtension>
        </extensions>
      </trkpt>
      <trkpt lat="36.76088028587400913238525390625" lon="-118.4546335972845554351806640625">
        <ele>2452</ele>
        <time>2021-06-24T22:01:18.000Z</time>
        <extensions>
          <ns3:TrackPointExtension>
            <ns3:atemp>30.0</ns3:atemp>
            <ns3:hr>104</ns3:hr>
          </ns3:TrackPointExtension>
        </extensions>
      </trkpt>
      <trkpt lat="36.76087475381791591644287109375" lon="-118.45462345518171787261962890625">
        <ele>2452</ele>
        <time>2021-06-24T22:01:19.000Z</time>
        <extensions>
          <ns3:TrackPointExtension>
            <ns3:atemp>30.0</ns3:atemp>
            <ns3:hr>102</ns3:hr>
          </ns3:TrackPointExtension>
        </extensions>
      </trkpt>
      <trkpt lat="36.76086218096315860748291015625" lon="-118.45460928976535797119140625">
        <ele>2452</ele>
        <time>2021-06-24T22:01:21.000Z</time>
        <extensions>
          <ns3:TrackPointExtension>
            <ns3:atemp>30.0</ns3:atemp>
            <ns3:hr>101</ns3:hr>
          </ns3:TrackPointExtension>
        </extensions>
      </trkpt>
      <trkpt lat="36.760851703584194183349609375" lon="-118.45457064919173717498779296875">
        <ele>2452.39990234375</ele>
        <time>2021-06-24T22:01:25.000Z</time>
        <extensions>
          <ns3:TrackPointExtension>
            <ns3:atemp>30.0</ns3:atemp>
            <ns3:hr>100</ns3:hr>
          </ns3:TrackPointExtension>
        </extensions>
      </trkpt>
      <trkpt lat="36.76084944047033786773681640625" lon="-118.4545618481934070587158203125">
        <ele>2452.800048828125</ele>
        <time>2021-06-24T22:01:27.000Z</time>
        <extensions>
          <ns3:TrackPointExtension>
            <ns3:atemp>30.0</ns3:atemp>
            <ns3:hr>100</ns3:hr>
          </ns3:TrackPointExtension>
        </extensions>
      </trkpt>
      <trkpt lat="36.7608545534312725067138671875" lon="-118.45455656759440898895263671875">
        <ele>2453</ele>
        <time>2021-06-24T22:01:28.000Z</time>
        <extensions>
          <ns3:TrackPointExtension>
            <ns3:atemp>30.0</ns3:atemp>
            <ns3:hr>101</ns3:hr>
          </ns3:TrackPointExtension>
        </extensions>
      </trkpt>
      <trkpt lat="36.76085027866065502166748046875" lon="-118.4545402228832244873046875">
        <ele>2453.39990234375</ele>
        <time>2021-06-24T22:01:30.000Z</time>
        <extensions>
          <ns3:TrackPointExtension>
            <ns3:atemp>30.0</ns3:atemp>
            <ns3:hr>101</ns3:hr>
          </ns3:TrackPointExtension>
        </extensions>
      </trkpt>
      <trkpt lat="36.76083066500723361968994140625" lon="-118.4545061923563480377197265625">
        <ele>2453.60009765625</ele>
        <time>2021-06-24T22:01:34.000Z</time>
        <extensions>
          <ns3:TrackPointExtension>
            <ns3:atemp>30.0</ns3:atemp>
            <ns3:hr>106</ns3:hr>
          </ns3:TrackPointExtension>
        </extensions>
      </trkpt>
      <trkpt lat="36.76082446239888668060302734375" lon="-118.45449529588222503662109375">
        <ele>2453.60009765625</ele>
        <time>2021-06-24T22:01:35.000Z</time>
        <extensions>
          <ns3:TrackPointExtension>
            <ns3:atemp>30.0</ns3:atemp>
            <ns3:hr>103</ns3:hr>
          </ns3:TrackPointExtension>
        </extensions>
      </trkpt>
      <trkpt lat="36.760812141001224517822265625" lon="-118.454452715814113616943359375">
        <ele>2453.800048828125</ele>
        <time>2021-06-24T22:01:37.000Z</time>
        <extensions>
          <ns3:TrackPointExtension>
            <ns3:atemp>30.0</ns3:atemp>
            <ns3:hr>105</ns3:hr>
          </ns3:TrackPointExtension>
        </extensions>
      </trkpt>
      <trkpt lat="36.76078288815915584564208984375" lon="-118.4544434957206249237060546875">
        <ele>2453.800048828125</ele>
        <time>2021-06-24T22:01:40.000Z</time>
        <extensions>
          <ns3:TrackPointExtension>
            <ns3:atemp>30.0</ns3:atemp>
            <ns3:hr>106</ns3:hr>
          </ns3:TrackPointExtension>
        </extensions>
      </trkpt>
      <trkpt lat="36.7607734166085720062255859375" lon="-118.45444299280643463134765625">
        <ele>2454</ele>
        <time>2021-06-24T22:01:42.000Z</time>
        <extensions>
          <ns3:TrackPointExtension>
            <ns3:atemp>30.0</ns3:atemp>
            <ns3:hr>105</ns3:hr>
          </ns3:TrackPointExtension>
        </extensions>
      </trkpt>
      <trkpt lat="36.76076713018119335174560546875" lon="-118.45442312769591808319091796875">
        <ele>2454.199951171875</ele>
        <time>2021-06-24T22:01:45.000Z</time>
        <extensions>
          <ns3:TrackPointExtension>
            <ns3:atemp>30.0</ns3:atemp>
            <ns3:hr>107</ns3:hr>
          </ns3:TrackPointExtension>
        </extensions>
      </trkpt>
      <trkpt lat="36.7607281543314456939697265625" lon="-118.454368226230144500732421875">
        <ele>2455</ele>
        <time>2021-06-24T22:01:52.000Z</time>
        <extensions>
          <ns3:TrackPointExtension>
            <ns3:atemp>30.0</ns3:atemp>
            <ns3:hr>108</ns3:hr>
          </ns3:TrackPointExtension>
        </extensions>
      </trkpt>
      <trkpt lat="36.76071583293378353118896484375" lon="-118.45436252653598785400390625">
        <ele>2455.199951171875</ele>
        <time>2021-06-24T22:01:53.000Z</time>
        <extensions>
          <ns3:TrackPointExtension>
            <ns3:atemp>30.0</ns3:atemp>
            <ns3:hr>108</ns3:hr>
          </ns3:TrackPointExtension>
        </extensions>
      </trkpt>
      <trkpt lat="36.76068448461592197418212890625" lon="-118.45434643328189849853515625">
        <ele>2455.39990234375</ele>
        <time>2021-06-24T22:01:57.000Z</time>
        <extensions>
          <ns3:TrackPointExtension>
            <ns3:atemp>30.0</ns3:atemp>
            <ns3:hr>108</ns3:hr>
          </ns3:TrackPointExtension>
        </extensions>
      </trkpt>
      <trkpt lat="36.760658919811248779296875" lon="-118.45428499393165111541748046875">
        <ele>2455.800048828125</ele>
        <time>2021-06-24T22:02:02.000Z</time>
        <extensions>
          <ns3:TrackPointExtension>
            <ns3:atemp>30.0</ns3:atemp>
            <ns3:hr>108</ns3:hr>
          </ns3:TrackPointExtension>
        </extensions>
      </trkpt>
      <trkpt lat="36.7606473527848720550537109375" lon="-118.45426705665886402130126953125">
        <ele>2456</ele>
        <time>2021-06-24T22:02:04.000Z</time>
        <extensions>
          <ns3:TrackPointExtension>
            <ns3:atemp>30.0</ns3:atemp>
            <ns3:hr>108</ns3:hr>
          </ns3:TrackPointExtension>
        </extensions>
      </trkpt>
      <trkpt lat="36.76060284487903118133544921875" lon="-118.45426588319242000579833984375">
        <ele>2455.60009765625</ele>
        <time>2021-06-24T22:02:08.000Z</time>
        <extensions>
          <ns3:TrackPointExtension>
            <ns3:atemp>30.0</ns3:atemp>
            <ns3:hr>108</ns3:hr>
          </ns3:TrackPointExtension>
        </extensions>
      </trkpt>
      <trkpt lat="36.7605598457157611846923828125" lon="-118.45425196923315525054931640625">
        <ele>2455.39990234375</ele>
        <time>2021-06-24T22:02:12.000Z</time>
        <extensions>
          <ns3:TrackPointExtension>
            <ns3:atemp>30.0</ns3:atemp>
            <ns3:hr>110</ns3:hr>
          </ns3:TrackPointExtension>
        </extensions>
      </trkpt>
      <trkpt lat="36.760532520711421966552734375" lon="-118.45423034392297267913818359375">
        <ele>2455.39990234375</ele>
        <time>2021-06-24T22:02:15.000Z</time>
        <extensions>
          <ns3:TrackPointExtension>
            <ns3:atemp>30.0</ns3:atemp>
            <ns3:hr>108</ns3:hr>
          </ns3:TrackPointExtension>
        </extensions>
      </trkpt>
      <trkpt lat="36.760503351688385009765625" lon="-118.4542007558047771453857421875">
        <ele>2455.39990234375</ele>
        <time>2021-06-24T22:02:18.000Z</time>
        <extensions>
          <ns3:TrackPointExtension>
            <ns3:atemp>30.0</ns3:atemp>
            <ns3:hr>108</ns3:hr>
          </ns3:TrackPointExtension>
        </extensions>
      </trkpt>
      <trkpt lat="36.7604830674827098846435546875" lon="-118.45418089069426059722900390625">
        <ele>2455.39990234375</ele>
        <time>2021-06-24T22:02:20.000Z</time>
        <extensions>
          <ns3:TrackPointExtension>
            <ns3:atemp>30.0</ns3:atemp>
            <ns3:hr>108</ns3:hr>
          </ns3:TrackPointExtension>
        </extensions>
      </trkpt>
      <trkpt lat="36.7604161798954010009765625" lon="-118.4541217982769012451171875">
        <ele>2455</ele>
        <time>2021-06-24T22:02:27.000Z</time>
        <extensions>
          <ns3:TrackPointExtension>
            <ns3:atemp>30.0</ns3:atemp>
            <ns3:hr>107</ns3:hr>
          </ns3:TrackPointExtension>
        </extensions>
      </trkpt>
      <trkpt lat="36.76040972582995891571044921875" lon="-118.4541145898401737213134765625">
        <ele>2455.199951171875</ele>
        <time>2021-06-24T22:02:28.000Z</time>
        <extensions>
          <ns3:TrackPointExtension>
            <ns3:atemp>30.0</ns3:atemp>
            <ns3:hr>107</ns3:hr>
          </ns3:TrackPointExtension>
        </extensions>
      </trkpt>
      <trkpt lat="36.76039413549005985260009765625" lon="-118.4540921263396739959716796875">
        <ele>2455.39990234375</ele>
        <time>2021-06-24T22:02:30.000Z</time>
        <extensions>
          <ns3:TrackPointExtension>
            <ns3:atemp>30.0</ns3:atemp>
            <ns3:hr>108</ns3:hr>
          </ns3:TrackPointExtension>
        </extensions>
      </trkpt>
      <trkpt lat="36.7603754438459873199462890625" lon="-118.45406840555369853973388671875">
        <ele>2455.39990234375</ele>
        <time>2021-06-24T22:02:33.000Z</time>
        <extensions>
          <ns3:TrackPointExtension>
            <ns3:atemp>30.0</ns3:atemp>
            <ns3:hr>107</ns3:hr>
          </ns3:TrackPointExtension>
        </extensions>
      </trkpt>
      <trkpt lat="36.76033965311944484710693359375" lon="-118.45402079634368419647216796875">
        <ele>2455.39990234375</ele>
        <time>2021-06-24T22:02:39.000Z</time>
        <extensions>
          <ns3:TrackPointExtension>
            <ns3:atemp>30.0</ns3:atemp>
            <ns3:hr>106</ns3:hr>
          </ns3:TrackPointExtension>
        </extensions>
      </trkpt>
      <trkpt lat="36.76033194176852703094482421875" lon="-118.4540119953453540802001953125">
        <ele>2455.39990234375</ele>
        <time>2021-06-24T22:02:40.000Z</time>
        <extensions>
          <ns3:TrackPointExtension>
            <ns3:atemp>30.0</ns3:atemp>
            <ns3:hr>105</ns3:hr>
          </ns3:TrackPointExtension>
        </extensions>
      </trkpt>
      <trkpt lat="36.7603274993598461151123046875" lon="-118.4540026076138019561767578125">
        <ele>2455.39990234375</ele>
        <time>2021-06-24T22:02:41.000Z</time>
        <extensions>
          <ns3:TrackPointExtension>
            <ns3:atemp>30.0</ns3:atemp>
            <ns3:hr>106</ns3:hr>
          </ns3:TrackPointExtension>
        </extensions>
      </trkpt>
      <trkpt lat="36.76026321016252040863037109375" lon="-118.4539211355149745941162109375">
        <ele>2455.39990234375</ele>
        <time>2021-06-24T22:02:47.000Z</time>
        <extensions>
          <ns3:TrackPointExtension>
            <ns3:atemp>30.0</ns3:atemp>
            <ns3:hr>102</ns3:hr>
          </ns3:TrackPointExtension>
        </extensions>
      </trkpt>
      <trkpt lat="36.76024678163230419158935546875" lon="-118.4538986720144748687744140625">
        <ele>2455.39990234375</ele>
        <time>2021-06-24T22:02:48.000Z</time>
        <extensions>
          <ns3:TrackPointExtension>
            <ns3:atemp>30.0</ns3:atemp>
            <ns3:hr>102</ns3:hr>
          </ns3:TrackPointExtension>
        </extensions>
      </trkpt>
      <trkpt lat="36.760227419435977935791015625" lon="-118.45388098619878292083740234375">
        <ele>2455.39990234375</ele>
        <time>2021-06-24T22:02:49.000Z</time>
        <extensions>
          <ns3:TrackPointExtension>
            <ns3:atemp>30.0</ns3:atemp>
            <ns3:hr>104</ns3:hr>
          </ns3:TrackPointExtension>
        </extensions>
      </trkpt>
      <trkpt lat="36.760172434151172637939453125" lon="-118.45384217798709869384765625">
        <ele>2455.800048828125</ele>
        <time>2021-06-24T22:02:55.000Z</time>
        <extensions>
          <ns3:TrackPointExtension>
            <ns3:atemp>30.0</ns3:atemp>
            <ns3:hr>104</ns3:hr>
          </ns3:TrackPointExtension>
        </extensions>
      </trkpt>
      <trkpt lat="36.76014997065067291259765625" lon="-118.4537984244525432586669921875">
        <ele>2456.199951171875</ele>
        <time>2021-06-24T22:03:01.000Z</time>
        <extensions>
          <ns3:TrackPointExtension>
            <ns3:atemp>30.0</ns3:atemp>
            <ns3:hr>104</ns3:hr>
          </ns3:TrackPointExtension>
        </extensions>
      </trkpt>
      <trkpt lat="36.760107390582561492919921875" lon="-118.45378945581614971160888671875">
        <ele>2456.39990234375</ele>
        <time>2021-06-24T22:03:06.000Z</time>
        <extensions>
          <ns3:TrackPointExtension>
            <ns3:atemp>30.0</ns3:atemp>
            <ns3:hr>101</ns3:hr>
          </ns3:TrackPointExtension>
        </extensions>
      </trkpt>
      <trkpt lat="36.7601095698773860931396484375" lon="-118.4537783078849315643310546875">
        <ele>2456.60009765625</ele>
        <time>2021-06-24T22:03:07.000Z</time>
        <extensions>
          <ns3:TrackPointExtension>
            <ns3:atemp>30.0</ns3:atemp>
            <ns3:hr>102</ns3:hr>
          </ns3:TrackPointExtension>
        </extensions>
      </trkpt>
      <trkpt lat="36.7601058818399906158447265625" lon="-118.45377218909561634063720703125">
        <ele>2456.800048828125</ele>
        <time>2021-06-24T22:03:08.000Z</time>
        <extensions>
          <ns3:TrackPointExtension>
            <ns3:atemp>30.0</ns3:atemp>
            <ns3:hr>103</ns3:hr>
          </ns3:TrackPointExtension>
        </extensions>
      </trkpt>
      <trkpt lat="36.76006757654249668121337890625" lon="-118.453715108335018157958984375">
        <ele>2457.39990234375</ele>
        <time>2021-06-24T22:03:16.000Z</time>
        <extensions>
          <ns3:TrackPointExtension>
            <ns3:atemp>30.0</ns3:atemp>
            <ns3:hr>103</ns3:hr>
          </ns3:TrackPointExtension>
        </extensions>
      </trkpt>
      <trkpt lat="36.76004494540393352508544921875" lon="-118.45368552021682262420654296875">
        <ele>2457.800048828125</ele>
        <time>2021-06-24T22:03:22.000Z</time>
        <extensions>
          <ns3:TrackPointExtension>
            <ns3:atemp>30.0</ns3:atemp>
            <ns3:hr>104</ns3:hr>
          </ns3:TrackPointExtension>
        </extensions>
      </trkpt>
      <trkpt lat="36.76003421656787395477294921875" lon="-118.45366423018276691436767578125">
        <ele>2458</ele>
        <time>2021-06-24T22:03:25.000Z</time>
        <extensions>
          <ns3:TrackPointExtension>
            <ns3:atemp>30.0</ns3:atemp>
            <ns3:hr>107</ns3:hr>
          </ns3:TrackPointExtension>
        </extensions>
      </trkpt>
      <trkpt lat="36.76002399064600467681884765625" lon="-118.453661464154720306396484375">
        <ele>2458.39990234375</ele>
        <time>2021-06-24T22:03:26.000Z</time>
        <extensions>
          <ns3:TrackPointExtension>
            <ns3:atemp>30.0</ns3:atemp>
            <ns3:hr>105</ns3:hr>
          </ns3:TrackPointExtension>
        </extensions>
      </trkpt>
      <trkpt lat="36.76001259125769138336181640625" lon="-118.4536599554121494293212890625">
        <ele>2458.39990234375</ele>
        <time>2021-06-24T22:03:27.000Z</time>
        <extensions>
          <ns3:TrackPointExtension>
            <ns3:atemp>30.0</ns3:atemp>
            <ns3:hr>108</ns3:hr>
          </ns3:TrackPointExtension>
        </extensions>
      </trkpt>
      <trkpt lat="36.76000379025936126708984375" lon="-118.453657440841197967529296875">
        <ele>2458.60009765625</ele>
        <time>2021-06-24T22:03:28.000Z</time>
        <extensions>
          <ns3:TrackPointExtension>
            <ns3:atemp>30.0</ns3:atemp>
            <ns3:hr>108</ns3:hr>
          </ns3:TrackPointExtension>
        </extensions>
      </trkpt>
      <trkpt lat="36.75999314524233341217041015625" lon="-118.45364914275705814361572265625">
        <ele>2458.60009765625</ele>
        <time>2021-06-24T22:03:29.000Z</time>
        <extensions>
          <ns3:TrackPointExtension>
            <ns3:atemp>30.0</ns3:atemp>
            <ns3:hr>109</ns3:hr>
          </ns3:TrackPointExtension>
        </extensions>
      </trkpt>
      <trkpt lat="36.75997856073081493377685546875" lon="-118.453611843287944793701171875">
        <ele>2458.800048828125</ele>
        <time>2021-06-24T22:03:32.000Z</time>
        <extensions>
          <ns3:TrackPointExtension>
            <ns3:atemp>30.0</ns3:atemp>
            <ns3:hr>108</ns3:hr>
          </ns3:TrackPointExtension>
        </extensions>
      </trkpt>
      <trkpt lat="36.75995794124901294708251953125" lon="-118.45357672311365604400634765625">
        <ele>2458.800048828125</ele>
        <time>2021-06-24T22:03:35.000Z</time>
        <extensions>
          <ns3:TrackPointExtension>
            <ns3:atemp>30.0</ns3:atemp>
            <ns3:hr>110</ns3:hr>
          </ns3:TrackPointExtension>
        </extensions>
      </trkpt>
      <trkpt lat="36.75995609723031520843505859375" lon="-118.45356515608727931976318359375">
        <ele>2459</ele>
        <time>2021-06-24T22:03:36.000Z</time>
        <extensions>
          <ns3:TrackPointExtension>
            <ns3:atemp>30.0</ns3:atemp>
            <ns3:hr>109</ns3:hr>
          </ns3:TrackPointExtension>
        </extensions>
      </trkpt>
      <trkpt lat="36.75991737283766269683837890625" lon="-118.4535177983343601226806640625">
        <ele>2459.199951171875</ele>
        <time>2021-06-24T22:03:41.000Z</time>
        <extensions>
          <ns3:TrackPointExtension>
            <ns3:atemp>30.0</ns3:atemp>
            <ns3:hr>112</ns3:hr>
          </ns3:TrackPointExtension>
        </extensions>
      </trkpt>
      <trkpt lat="36.75990329124033451080322265625" lon="-118.45350279472768306732177734375">
        <ele>2459.39990234375</ele>
        <time>2021-06-24T22:03:42.000Z</time>
        <extensions>
          <ns3:TrackPointExtension>
            <ns3:atemp>30.0</ns3:atemp>
            <ns3:hr>110</ns3:hr>
          </ns3:TrackPointExtension>
        </extensions>
      </trkpt>
      <trkpt lat="36.759863309562206268310546875" lon="-118.453460969030857086181640625">
        <ele>2459.39990234375</ele>
        <time>2021-06-24T22:03:45.000Z</time>
        <extensions>
          <ns3:TrackPointExtension>
            <ns3:atemp>30.0</ns3:atemp>
            <ns3:hr>111</ns3:hr>
          </ns3:TrackPointExtension>
        </extensions>
      </trkpt>
      <trkpt lat="36.75984377972781658172607421875" lon="-118.453451581299304962158203125">
        <ele>2459.60009765625</ele>
        <time>2021-06-24T22:03:46.000Z</time>
        <extensions>
          <ns3:TrackPointExtension>
            <ns3:atemp>30.0</ns3:atemp>
            <ns3:hr>111</ns3:hr>
          </ns3:TrackPointExtension>
        </extensions>
      </trkpt>
      <trkpt lat="36.75980555824935436248779296875" lon="-118.4534252621233463287353515625">
        <ele>2460.199951171875</ele>
        <time>2021-06-24T22:03:50.000Z</time>
        <extensions>
          <ns3:TrackPointExtension>
            <ns3:atemp>30.0</ns3:atemp>
            <ns3:hr>110</ns3:hr>
          </ns3:TrackPointExtension>
        </extensions>
      </trkpt>
      <trkpt lat="36.7597804963588714599609375" lon="-118.45340874977409839630126953125">
        <ele>2460.39990234375</ele>
        <time>2021-06-24T22:03:52.000Z</time>
        <extensions>
          <ns3:TrackPointExtension>
            <ns3:atemp>30.0</ns3:atemp>
            <ns3:hr>110</ns3:hr>
          </ns3:TrackPointExtension>
        </extensions>
      </trkpt>
      <trkpt lat="36.75972643308341503143310546875" lon="-118.45337279140949249267578125">
        <ele>2460.60009765625</ele>
        <time>2021-06-24T22:03:56.000Z</time>
        <extensions>
          <ns3:TrackPointExtension>
            <ns3:atemp>30.0</ns3:atemp>
            <ns3:hr>109</ns3:hr>
          </ns3:TrackPointExtension>
        </extensions>
      </trkpt>
      <trkpt lat="36.75970832817256450653076171875" lon="-118.4533538483083248138427734375">
        <ele>2460.60009765625</ele>
        <time>2021-06-24T22:03:58.000Z</time>
        <extensions>
          <ns3:TrackPointExtension>
            <ns3:atemp>30.0</ns3:atemp>
            <ns3:hr>108</ns3:hr>
          </ns3:TrackPointExtension>
        </extensions>
      </trkpt>
      <trkpt lat="36.75968997180461883544921875" lon="-118.4533136151731014251708984375">
        <ele>2461</ele>
        <time>2021-06-24T22:04:02.000Z</time>
        <extensions>
          <ns3:TrackPointExtension>
            <ns3:atemp>30.0</ns3:atemp>
            <ns3:hr>106</ns3:hr>
          </ns3:TrackPointExtension>
        </extensions>
      </trkpt>
      <trkpt lat="36.759677566587924957275390625" lon="-118.45327430404722690582275390625">
        <ele>2461.60009765625</ele>
        <time>2021-06-24T22:04:07.000Z</time>
        <extensions>
          <ns3:TrackPointExtension>
            <ns3:atemp>30.0</ns3:atemp>
            <ns3:hr>107</ns3:hr>
          </ns3:TrackPointExtension>
        </extensions>
      </trkpt>
      <trkpt lat="36.75965434871613979339599609375" lon="-118.453187048435211181640625">
        <ele>2462.60009765625</ele>
        <time>2021-06-24T22:04:16.000Z</time>
        <extensions>
          <ns3:TrackPointExtension>
            <ns3:atemp>30.0</ns3:atemp>
            <ns3:hr>107</ns3:hr>
          </ns3:TrackPointExtension>
        </extensions>
      </trkpt>
      <trkpt lat="36.759664155542850494384765625" lon="-118.4531365893781185150146484375">
        <ele>2463.60009765625</ele>
        <time>2021-06-24T22:04:24.000Z</time>
        <extensions>
          <ns3:TrackPointExtension>
            <ns3:atemp>30.0</ns3:atemp>
            <ns3:hr>108</ns3:hr>
          </ns3:TrackPointExtension>
        </extensions>
      </trkpt>
      <trkpt lat="36.75966046750545501708984375" lon="-118.453119657933712005615234375">
        <ele>2463.800048828125</ele>
        <time>2021-06-24T22:04:26.000Z</time>
        <extensions>
          <ns3:TrackPointExtension>
            <ns3:atemp>30.0</ns3:atemp>
            <ns3:hr>108</ns3:hr>
          </ns3:TrackPointExtension>
        </extensions>
      </trkpt>
      <trkpt lat="36.759654767811298370361328125" lon="-118.45310163684189319610595703125">
        <ele>2464</ele>
        <time>2021-06-24T22:04:28.000Z</time>
        <extensions>
          <ns3:TrackPointExtension>
            <ns3:atemp>30.0</ns3:atemp>
            <ns3:hr>108</ns3:hr>
          </ns3:TrackPointExtension>
        </extensions>
      </trkpt>
      <trkpt lat="36.7596559412777423858642578125" lon="-118.4530805982649326324462890625">
        <ele>2464.60009765625</ele>
        <time>2021-06-24T22:04:30.000Z</time>
        <extensions>
          <ns3:TrackPointExtension>
            <ns3:atemp>30.0</ns3:atemp>
            <ns3:hr>110</ns3:hr>
          </ns3:TrackPointExtension>
        </extensions>
      </trkpt>
      <trkpt lat="36.759619899094104766845703125" lon="-118.45304111950099468231201171875">
        <ele>2465.60009765625</ele>
        <time>2021-06-24T22:04:35.000Z</time>
        <extensions>
          <ns3:TrackPointExtension>
            <ns3:atemp>30.0</ns3:atemp>
            <ns3:hr>111</ns3:hr>
          </ns3:TrackPointExtension>
        </extensions>
      </trkpt>
      <trkpt lat="36.7595892213284969329833984375" lon="-118.453009687364101409912109375">
        <ele>2465.800048828125</ele>
        <time>2021-06-24T22:04:39.000Z</time>
        <extensions>
          <ns3:TrackPointExtension>
            <ns3:atemp>30.0</ns3:atemp>
            <ns3:hr>109</ns3:hr>
          </ns3:TrackPointExtension>
        </extensions>
      </trkpt>
      <trkpt lat="36.7595654167234897613525390625" lon="-118.4529729746282100677490234375">
        <ele>2465.800048828125</ele>
        <time>2021-06-24T22:04:42.000Z</time>
        <extensions>
          <ns3:TrackPointExtension>
            <ns3:atemp>30.0</ns3:atemp>
            <ns3:hr>109</ns3:hr>
          </ns3:TrackPointExtension>
        </extensions>
      </trkpt>
      <trkpt lat="36.75954940728843212127685546875" lon="-118.452888987958431243896484375">
        <ele>2466.39990234375</ele>
        <time>2021-06-24T22:04:51.000Z</time>
        <extensions>
          <ns3:TrackPointExtension>
            <ns3:atemp>30.0</ns3:atemp>
            <ns3:hr>110</ns3:hr>
          </ns3:TrackPointExtension>
        </extensions>
      </trkpt>
      <trkpt lat="36.75952426157891750335693359375" lon="-118.45285378396511077880859375">
        <ele>2466.60009765625</ele>
        <time>2021-06-24T22:04:56.000Z</time>
        <extensions>
          <ns3:TrackPointExtension>
            <ns3:atemp>30.0</ns3:atemp>
            <ns3:hr>113</ns3:hr>
          </ns3:TrackPointExtension>
        </extensions>
      </trkpt>
      <trkpt lat="36.75951504148542881011962890625" lon="-118.45285168848931789398193359375">
        <ele>2467</ele>
        <time>2021-06-24T22:04:57.000Z</time>
        <extensions>
          <ns3:TrackPointExtension>
            <ns3:atemp>30.0</ns3:atemp>
            <ns3:hr>113</ns3:hr>
          </ns3:TrackPointExtension>
        </extensions>
      </trkpt>
      <trkpt lat="36.75949643366038799285888671875" lon="-118.45284841954708099365234375">
        <ele>2467.199951171875</ele>
        <time>2021-06-24T22:04:59.000Z</time>
        <extensions>
          <ns3:TrackPointExtension>
            <ns3:atemp>30.0</ns3:atemp>
            <ns3:hr>114</ns3:hr>
          </ns3:TrackPointExtension>
        </extensions>
      </trkpt>
      <trkpt lat="36.75944614224135875701904296875" lon="-118.4528033249080181121826171875">
        <ele>2468.199951171875</ele>
        <time>2021-06-24T22:05:07.000Z</time>
        <extensions>
          <ns3:TrackPointExtension>
            <ns3:atemp>30.0</ns3:atemp>
            <ns3:hr>115</ns3:hr>
          </ns3:TrackPointExtension>
        </extensions>
      </trkpt>
      <trkpt lat="36.75943625159561634063720703125" lon="-118.45277599990367889404296875">
        <ele>2468.39990234375</ele>
        <time>2021-06-24T22:05:10.000Z</time>
        <extensions>
          <ns3:TrackPointExtension>
            <ns3:atemp>31.0</ns3:atemp>
            <ns3:hr>112</ns3:hr>
          </ns3:TrackPointExtension>
        </extensions>
      </trkpt>
      <trkpt lat="36.759430132806301116943359375" lon="-118.45276837237179279327392578125">
        <ele>2468.39990234375</ele>
        <time>2021-06-24T22:05:11.000Z</time>
        <extensions>
          <ns3:TrackPointExtension>
            <ns3:atemp>31.0</ns3:atemp>
            <ns3:hr>115</ns3:hr>
          </ns3:TrackPointExtension>
        </extensions>
      </trkpt>
      <trkpt lat="36.75937439315021038055419921875" lon="-118.4527188353240489959716796875">
        <ele>2468.60009765625</ele>
        <time>2021-06-24T22:05:17.000Z</time>
        <extensions>
          <ns3:TrackPointExtension>
            <ns3:atemp>31.0</ns3:atemp>
            <ns3:hr>116</ns3:hr>
          </ns3:TrackPointExtension>
        </extensions>
      </trkpt>
      <trkpt lat="36.75935293547809123992919921875" lon="-118.45270433463156223297119140625">
        <ele>2468.60009765625</ele>
        <time>2021-06-24T22:05:19.000Z</time>
        <extensions>
          <ns3:TrackPointExtension>
            <ns3:atemp>31.0</ns3:atemp>
            <ns3:hr>118</ns3:hr>
          </ns3:TrackPointExtension>
        </extensions>
      </trkpt>
      <trkpt lat="36.75931588746607303619384765625" lon="-118.4526889957487583160400390625">
        <ele>2468.800048828125</ele>
        <time>2021-06-24T22:05:23.000Z</time>
        <extensions>
          <ns3:TrackPointExtension>
            <ns3:atemp>31.0</ns3:atemp>
            <ns3:hr>115</ns3:hr>
          </ns3:TrackPointExtension>
        </extensions>
      </trkpt>
      <trkpt lat="36.75930851139128208160400390625" lon="-118.4526846371591091156005859375">
        <ele>2469.199951171875</ele>
        <time>2021-06-24T22:05:24.000Z</time>
        <extensions>
          <ns3:TrackPointExtension>
            <ns3:atemp>31.0</ns3:atemp>
            <ns3:hr>115</ns3:hr>
          </ns3:TrackPointExtension>
        </extensions>
      </trkpt>
      <trkpt lat="36.7592837847769260406494140625" lon="-118.45266477204859256744384765625">
        <ele>2469.39990234375</ele>
        <time>2021-06-24T22:05:27.000Z</time>
        <extensions>
          <ns3:TrackPointExtension>
            <ns3:atemp>31.0</ns3:atemp>
            <ns3:hr>117</ns3:hr>
          </ns3:TrackPointExtension>
        </extensions>
      </trkpt>
      <trkpt lat="36.759261824190616607666015625" lon="-118.45265169627964496612548828125">
        <ele>2469.60009765625</ele>
        <time>2021-06-24T22:05:29.000Z</time>
        <extensions>
          <ns3:TrackPointExtension>
            <ns3:atemp>31.0</ns3:atemp>
            <ns3:hr>114</ns3:hr>
          </ns3:TrackPointExtension>
        </extensions>
      </trkpt>
      <trkpt lat="36.75923424772918224334716796875" lon="-118.4526410512626171112060546875">
        <ele>2469.60009765625</ele>
        <time>2021-06-24T22:05:32.000Z</time>
        <extensions>
          <ns3:TrackPointExtension>
            <ns3:atemp>31.0</ns3:atemp>
            <ns3:hr>114</ns3:hr>
          </ns3:TrackPointExtension>
        </extensions>
      </trkpt>
      <trkpt lat="36.75922268070280551910400390625" lon="-118.45262940041720867156982421875">
        <ele>2469.60009765625</ele>
        <time>2021-06-24T22:05:34.000Z</time>
        <extensions>
          <ns3:TrackPointExtension>
            <ns3:atemp>31.0</ns3:atemp>
            <ns3:hr>114</ns3:hr>
          </ns3:TrackPointExtension>
        </extensions>
      </trkpt>
      <trkpt lat="36.75921924412250518798828125" lon="-118.452620767056941986083984375">
        <ele>2469.800048828125</ele>
        <time>2021-06-24T22:05:35.000Z</time>
        <extensions>
          <ns3:TrackPointExtension>
            <ns3:atemp>31.0</ns3:atemp>
            <ns3:hr>115</ns3:hr>
          </ns3:TrackPointExtension>
        </extensions>
      </trkpt>
      <trkpt lat="36.75918747670948505401611328125" lon="-118.45257977955043315887451171875">
        <ele>2469.800048828125</ele>
        <time>2021-06-24T22:05:40.000Z</time>
        <extensions>
          <ns3:TrackPointExtension>
            <ns3:atemp>31.0</ns3:atemp>
            <ns3:hr>114</ns3:hr>
          </ns3:TrackPointExtension>
        </extensions>
      </trkpt>
      <trkpt lat="36.75913366489112377166748046875" lon="-118.4525404684245586395263671875">
        <ele>2469.39990234375</ele>
        <time>2021-06-24T22:05:45.000Z</time>
        <extensions>
          <ns3:TrackPointExtension>
            <ns3:atemp>31.0</ns3:atemp>
            <ns3:hr>117</ns3:hr>
          </ns3:TrackPointExtension>
        </extensions>
      </trkpt>
      <trkpt lat="36.759092174470424652099609375" lon="-118.4525097906589508056640625">
        <ele>2469.60009765625</ele>
        <time>2021-06-24T22:05:50.000Z</time>
        <extensions>
          <ns3:TrackPointExtension>
            <ns3:atemp>31.0</ns3:atemp>
            <ns3:hr>116</ns3:hr>
          </ns3:TrackPointExtension>
        </extensions>
      </trkpt>
      <trkpt lat="36.75906426273286342620849609375" lon="-118.45248037017881870269775390625">
        <ele>2470</ele>
        <time>2021-06-24T22:05:54.000Z</time>
        <extensions>
          <ns3:TrackPointExtension>
            <ns3:atemp>31.0</ns3:atemp>
            <ns3:hr>116</ns3:hr>
          </ns3:TrackPointExtension>
        </extensions>
      </trkpt>
      <trkpt lat="36.75903777591884136199951171875" lon="-118.45243938267230987548828125">
        <ele>2470</ele>
        <time>2021-06-24T22:05:58.000Z</time>
        <extensions>
          <ns3:TrackPointExtension>
            <ns3:atemp>31.0</ns3:atemp>
            <ns3:hr>114</ns3:hr>
          </ns3:TrackPointExtension>
        </extensions>
      </trkpt>
      <trkpt lat="36.75900357775390148162841796875" lon="-118.45241214148700237274169921875">
        <ele>2470.199951171875</ele>
        <time>2021-06-24T22:06:01.000Z</time>
        <extensions>
          <ns3:TrackPointExtension>
            <ns3:atemp>31.0</ns3:atemp>
            <ns3:hr>115</ns3:hr>
          </ns3:TrackPointExtension>
        </extensions>
      </trkpt>
      <trkpt lat="36.75899125635623931884765625" lon="-118.45240744762122631072998046875">
        <ele>2470.39990234375</ele>
        <time>2021-06-24T22:06:02.000Z</time>
        <extensions>
          <ns3:TrackPointExtension>
            <ns3:atemp>31.0</ns3:atemp>
            <ns3:hr>115</ns3:hr>
          </ns3:TrackPointExtension>
        </extensions>
      </trkpt>
      <trkpt lat="36.7589543759822845458984375" lon="-118.452392108738422393798828125">
        <ele>2470.800048828125</ele>
        <time>2021-06-24T22:06:07.000Z</time>
        <extensions>
          <ns3:TrackPointExtension>
            <ns3:atemp>31.0</ns3:atemp>
            <ns3:hr>116</ns3:hr>
          </ns3:TrackPointExtension>
        </extensions>
      </trkpt>
      <trkpt lat="36.758952699601650238037109375" lon="-118.4523718245327472686767578125">
        <ele>2471.199951171875</ele>
        <time>2021-06-24T22:06:09.000Z</time>
        <extensions>
          <ns3:TrackPointExtension>
            <ns3:atemp>31.0</ns3:atemp>
            <ns3:hr>118</ns3:hr>
          </ns3:TrackPointExtension>
        </extensions>
      </trkpt>
      <trkpt lat="36.758945323526859283447265625" lon="-118.45235514454543590545654296875">
        <ele>2471.800048828125</ele>
        <time>2021-06-24T22:06:11.000Z</time>
        <extensions>
          <ns3:TrackPointExtension>
            <ns3:atemp>31.0</ns3:atemp>
            <ns3:hr>118</ns3:hr>
          </ns3:TrackPointExtension>
        </extensions>
      </trkpt>
      <trkpt lat="36.75891472958028316497802734375" lon="-118.45232530497014522552490234375">
        <ele>2471.800048828125</ele>
        <time>2021-06-24T22:06:15.000Z</time>
        <extensions>
          <ns3:TrackPointExtension>
            <ns3:atemp>31.0</ns3:atemp>
            <ns3:hr>116</ns3:hr>
          </ns3:TrackPointExtension>
        </extensions>
      </trkpt>
      <trkpt lat="36.75887994468212127685546875" lon="-118.452329747378826141357421875">
        <ele>2471.39990234375</ele>
        <time>2021-06-24T22:06:19.000Z</time>
        <extensions>
          <ns3:TrackPointExtension>
            <ns3:atemp>31.0</ns3:atemp>
            <ns3:hr>112</ns3:hr>
          </ns3:TrackPointExtension>
        </extensions>
      </trkpt>
      <trkpt lat="36.7588482610881328582763671875" lon="-118.4523265622556209564208984375">
        <ele>2471.199951171875</ele>
        <time>2021-06-24T22:06:22.000Z</time>
        <extensions>
          <ns3:TrackPointExtension>
            <ns3:atemp>31.0</ns3:atemp>
            <ns3:hr>109</ns3:hr>
          </ns3:TrackPointExtension>
        </extensions>
      </trkpt>
      <trkpt lat="36.75883837044239044189453125" lon="-118.4523232094943523406982421875">
        <ele>2471.199951171875</ele>
        <time>2021-06-24T22:06:23.000Z</time>
        <extensions>
          <ns3:TrackPointExtension>
            <ns3:atemp>31.0</ns3:atemp>
            <ns3:hr>108</ns3:hr>
          </ns3:TrackPointExtension>
        </extensions>
      </trkpt>
      <trkpt lat="36.758815906941890716552734375" lon="-118.45231474377214908599853515625">
        <ele>2471</ele>
        <time>2021-06-24T22:06:25.000Z</time>
        <extensions>
          <ns3:TrackPointExtension>
            <ns3:atemp>31.0</ns3:atemp>
            <ns3:hr>104</ns3:hr>
          </ns3:TrackPointExtension>
        </extensions>
      </trkpt>
      <trkpt lat="36.75880157388746738433837890625" lon="-118.45231759361922740936279296875">
        <ele>2471</ele>
        <time>2021-06-24T22:06:26.000Z</time>
        <extensions>
          <ns3:TrackPointExtension>
            <ns3:atemp>31.0</ns3:atemp>
            <ns3:hr>102</ns3:hr>
          </ns3:TrackPointExtension>
        </extensions>
      </trkpt>
      <trkpt lat="36.758790425956249237060546875" lon="-118.452315665781497955322265625">
        <ele>2471.199951171875</ele>
        <time>2021-06-24T22:06:27.000Z</time>
        <extensions>
          <ns3:TrackPointExtension>
            <ns3:atemp>31.0</ns3:atemp>
            <ns3:hr>101</ns3:hr>
          </ns3:TrackPointExtension>
        </extensions>
      </trkpt>
      <trkpt lat="36.75874809734523296356201171875" lon="-118.45227040350437164306640625">
        <ele>2471.199951171875</ele>
        <time>2021-06-24T22:06:33.000Z</time>
        <extensions>
          <ns3:TrackPointExtension>
            <ns3:atemp>31.0</ns3:atemp>
            <ns3:hr>98</ns3:hr>
          </ns3:TrackPointExtension>
        </extensions>
      </trkpt>
      <trkpt lat="36.7587144859135150909423828125" lon="-118.45225506462156772613525390625">
        <ele>2471</ele>
        <time>2021-06-24T22:06:36.000Z</time>
        <extensions>
          <ns3:TrackPointExtension>
            <ns3:atemp>31.0</ns3:atemp>
            <ns3:hr>97</ns3:hr>
          </ns3:TrackPointExtension>
        </extensions>
      </trkpt>
      <trkpt lat="36.7586982250213623046875" lon="-118.45224198885262012481689453125">
        <ele>2470.199951171875</ele>
        <time>2021-06-24T22:06:38.000Z</time>
        <extensions>
          <ns3:TrackPointExtension>
            <ns3:atemp>31.0</ns3:atemp>
            <ns3:hr>97</ns3:hr>
          </ns3:TrackPointExtension>
        </extensions>
      </trkpt>
      <trkpt lat="36.75863318145275115966796875" lon="-118.45220846123993396759033203125">
        <ele>2470</ele>
        <time>2021-06-24T22:06:44.000Z</time>
        <extensions>
          <ns3:TrackPointExtension>
            <ns3:atemp>31.0</ns3:atemp>
            <ns3:hr>97</ns3:hr>
          </ns3:TrackPointExtension>
        </extensions>
      </trkpt>
      <trkpt lat="36.75860770046710968017578125" lon="-118.45219035632908344268798828125">
        <ele>2470</ele>
        <time>2021-06-24T22:06:47.000Z</time>
        <extensions>
          <ns3:TrackPointExtension>
            <ns3:atemp>31.0</ns3:atemp>
            <ns3:hr>94</ns3:hr>
          </ns3:TrackPointExtension>
        </extensions>
      </trkpt>
      <trkpt lat="36.75859822891652584075927734375" lon="-118.45218122005462646484375">
        <ele>2470</ele>
        <time>2021-06-24T22:06:48.000Z</time>
        <extensions>
          <ns3:TrackPointExtension>
            <ns3:atemp>31.0</ns3:atemp>
            <ns3:hr>96</ns3:hr>
          </ns3:TrackPointExtension>
        </extensions>
      </trkpt>
      <trkpt lat="36.75857358612120151519775390625" lon="-118.45214559696614742279052734375">
        <ele>2469.60009765625</ele>
        <time>2021-06-24T22:06:52.000Z</time>
        <extensions>
          <ns3:TrackPointExtension>
            <ns3:atemp>31.0</ns3:atemp>
            <ns3:hr>96</ns3:hr>
          </ns3:TrackPointExtension>
        </extensions>
      </trkpt>
      <trkpt lat="36.75856051035225391387939453125" lon="-118.45213587395846843719482421875">
        <ele>2469.39990234375</ele>
        <time>2021-06-24T22:06:53.000Z</time>
        <extensions>
          <ns3:TrackPointExtension>
            <ns3:atemp>31.0</ns3:atemp>
            <ns3:hr>95</ns3:hr>
          </ns3:TrackPointExtension>
        </extensions>
      </trkpt>
      <trkpt lat="36.758530251681804656982421875" lon="-118.45212330110371112823486328125">
        <ele>2469</ele>
        <time>2021-06-24T22:06:56.000Z</time>
        <extensions>
          <ns3:TrackPointExtension>
            <ns3:atemp>31.0</ns3:atemp>
            <ns3:hr>95</ns3:hr>
          </ns3:TrackPointExtension>
        </extensions>
      </trkpt>
      <trkpt lat="36.75851524807512760162353515625" lon="-118.45212363637983798980712890625">
        <ele>2469</ele>
        <time>2021-06-24T22:06:57.000Z</time>
        <extensions>
          <ns3:TrackPointExtension>
            <ns3:atemp>31.0</ns3:atemp>
            <ns3:hr>94</ns3:hr>
          </ns3:TrackPointExtension>
        </extensions>
      </trkpt>
      <trkpt lat="36.75845087505877017974853515625" lon="-118.45210854895412921905517578125">
        <ele>2468.39990234375</ele>
        <time>2021-06-24T22:07:03.000Z</time>
        <extensions>
          <ns3:TrackPointExtension>
            <ns3:atemp>30.0</ns3:atemp>
            <ns3:hr>93</ns3:hr>
          </ns3:TrackPointExtension>
        </extensions>
      </trkpt>
      <trkpt lat="36.7584425769746303558349609375" lon="-118.45210083760321140289306640625">
        <ele>2468.199951171875</ele>
        <time>2021-06-24T22:07:04.000Z</time>
        <extensions>
          <ns3:TrackPointExtension>
            <ns3:atemp>30.0</ns3:atemp>
            <ns3:hr>92</ns3:hr>
          </ns3:TrackPointExtension>
        </extensions>
      </trkpt>
      <trkpt lat="36.7584023438394069671630859375" lon="-118.4520777873694896697998046875">
        <ele>2468.199951171875</ele>
        <time>2021-06-24T22:07:08.000Z</time>
        <extensions>
          <ns3:TrackPointExtension>
            <ns3:atemp>30.0</ns3:atemp>
            <ns3:hr>93</ns3:hr>
          </ns3:TrackPointExtension>
        </extensions>
      </trkpt>
      <trkpt lat="36.758357919752597808837890625" lon="-118.4520570002496242523193359375">
        <ele>2468.199951171875</ele>
        <time>2021-06-24T22:07:12.000Z</time>
        <extensions>
          <ns3:TrackPointExtension>
            <ns3:atemp>30.0</ns3:atemp>
            <ns3:hr>93</ns3:hr>
          </ns3:TrackPointExtension>
        </extensions>
      </trkpt>
      <trkpt lat="36.75833570770919322967529296875" lon="-118.4520456008613109588623046875">
        <ele>2468.199951171875</ele>
        <time>2021-06-24T22:07:14.000Z</time>
        <extensions>
          <ns3:TrackPointExtension>
            <ns3:atemp>30.0</ns3:atemp>
            <ns3:hr>96</ns3:hr>
          </ns3:TrackPointExtension>
        </extensions>
      </trkpt>
      <trkpt lat="36.75827871076762676239013671875" lon="-118.45203059725463390350341796875">
        <ele>2468.199951171875</ele>
        <time>2021-06-24T22:07:18.000Z</time>
        <extensions>
          <ns3:TrackPointExtension>
            <ns3:atemp>30.0</ns3:atemp>
            <ns3:hr>94</ns3:hr>
          </ns3:TrackPointExtension>
        </extensions>
      </trkpt>
      <trkpt lat="36.75826571881771087646484375" lon="-118.45201718620955944061279296875">
        <ele>2468.39990234375</ele>
        <time>2021-06-24T22:07:19.000Z</time>
        <extensions>
          <ns3:TrackPointExtension>
            <ns3:atemp>30.0</ns3:atemp>
            <ns3:hr>97</ns3:hr>
          </ns3:TrackPointExtension>
        </extensions>
      </trkpt>
      <trkpt lat="36.7582471109926700592041015625" lon="-118.45199857838451862335205078125">
        <ele>2468.800048828125</ele>
        <time>2021-06-24T22:07:21.000Z</time>
        <extensions>
          <ns3:TrackPointExtension>
            <ns3:atemp>30.0</ns3:atemp>
            <ns3:hr>93</ns3:hr>
          </ns3:TrackPointExtension>
        </extensions>
      </trkpt>
      <trkpt lat="36.75823152065277099609375" lon="-118.4519787132740020751953125">
        <ele>2469.39990234375</ele>
        <time>2021-06-24T22:07:25.000Z</time>
        <extensions>
          <ns3:TrackPointExtension>
            <ns3:atemp>30.0</ns3:atemp>
            <ns3:hr>95</ns3:hr>
          </ns3:TrackPointExtension>
        </extensions>
      </trkpt>
      <trkpt lat="36.75821903161704540252685546875" lon="-118.4519684873521327972412109375">
        <ele>2469.60009765625</ele>
        <time>2021-06-24T22:07:27.000Z</time>
        <extensions>
          <ns3:TrackPointExtension>
            <ns3:atemp>30.0</ns3:atemp>
            <ns3:hr>96</ns3:hr>
          </ns3:TrackPointExtension>
        </extensions>
      </trkpt>
      <trkpt lat="36.75821148790419101715087890625" lon="-118.45194845460355281829833984375">
        <ele>2470</ele>
        <time>2021-06-24T22:07:29.000Z</time>
        <extensions>
          <ns3:TrackPointExtension>
            <ns3:atemp>30.0</ns3:atemp>
            <ns3:hr>96</ns3:hr>
          </ns3:TrackPointExtension>
        </extensions>
      </trkpt>
      <trkpt lat="36.75819866359233856201171875" lon="-118.4519292600452899932861328125">
        <ele>2470.60009765625</ele>
        <time>2021-06-24T22:07:31.000Z</time>
        <extensions>
          <ns3:TrackPointExtension>
            <ns3:atemp>30.0</ns3:atemp>
            <ns3:hr>97</ns3:hr>
          </ns3:TrackPointExtension>
        </extensions>
      </trkpt>
      <trkpt lat="36.75818952731788158416748046875" lon="-118.451924733817577362060546875">
        <ele>2470.800048828125</ele>
        <time>2021-06-24T22:07:32.000Z</time>
        <extensions>
          <ns3:TrackPointExtension>
            <ns3:atemp>30.0</ns3:atemp>
            <ns3:hr>98</ns3:hr>
          </ns3:TrackPointExtension>
        </extensions>
      </trkpt>
      <trkpt lat="36.758182235062122344970703125" lon="-118.45191442407667636871337890625">
        <ele>2470.800048828125</ele>
        <time>2021-06-24T22:07:33.000Z</time>
        <extensions>
          <ns3:TrackPointExtension>
            <ns3:atemp>30.0</ns3:atemp>
            <ns3:hr>99</ns3:hr>
          </ns3:TrackPointExtension>
        </extensions>
      </trkpt>
      <trkpt lat="36.758168153464794158935546875" lon="-118.4518742747604846954345703125">
        <ele>2470.800048828125</ele>
        <time>2021-06-24T22:07:37.000Z</time>
        <extensions>
          <ns3:TrackPointExtension>
            <ns3:atemp>30.0</ns3:atemp>
            <ns3:hr>99</ns3:hr>
          </ns3:TrackPointExtension>
        </extensions>
      </trkpt>
      <trkpt lat="36.758163459599018096923828125" lon="-118.4518672339618206024169921875">
        <ele>2470.800048828125</ele>
        <time>2021-06-24T22:07:38.000Z</time>
        <extensions>
          <ns3:TrackPointExtension>
            <ns3:atemp>30.0</ns3:atemp>
            <ns3:hr>100</ns3:hr>
          </ns3:TrackPointExtension>
        </extensions>
      </trkpt>
      <trkpt lat="36.7581498809158802032470703125" lon="-118.45182959921658039093017578125">
        <ele>2471.199951171875</ele>
        <time>2021-06-24T22:07:43.000Z</time>
        <extensions>
          <ns3:TrackPointExtension>
            <ns3:atemp>30.0</ns3:atemp>
            <ns3:hr>102</ns3:hr>
          </ns3:TrackPointExtension>
        </extensions>
      </trkpt>
      <trkpt lat="36.758137978613376617431640625" lon="-118.451802022755146026611328125">
        <ele>2471.39990234375</ele>
        <time>2021-06-24T22:07:46.000Z</time>
        <extensions>
          <ns3:TrackPointExtension>
            <ns3:atemp>30.0</ns3:atemp>
            <ns3:hr>102</ns3:hr>
          </ns3:TrackPointExtension>
        </extensions>
      </trkpt>
      <trkpt lat="36.75811375491321086883544921875" lon="-118.45178986899554729461669921875">
        <ele>2471.800048828125</ele>
        <time>2021-06-24T22:07:48.000Z</time>
        <extensions>
          <ns3:TrackPointExtension>
            <ns3:atemp>30.0</ns3:atemp>
            <ns3:hr>103</ns3:hr>
          </ns3:TrackPointExtension>
        </extensions>
      </trkpt>
      <trkpt lat="36.7580596916377544403076171875" lon="-118.45173186622560024261474609375">
        <ele>2472</ele>
        <time>2021-06-24T22:07:53.000Z</time>
        <extensions>
          <ns3:TrackPointExtension>
            <ns3:atemp>30.0</ns3:atemp>
            <ns3:hr>105</ns3:hr>
          </ns3:TrackPointExtension>
        </extensions>
      </trkpt>
      <trkpt lat="36.758044101297855377197265625" lon="-118.451709486544132232666015625">
        <ele>2471.800048828125</ele>
        <time>2021-06-24T22:07:55.000Z</time>
        <extensions>
          <ns3:TrackPointExtension>
            <ns3:atemp>30.0</ns3:atemp>
            <ns3:hr>106</ns3:hr>
          </ns3:TrackPointExtension>
        </extensions>
      </trkpt>
      <trkpt lat="36.7580161057412624359130859375" lon="-118.45168945379555225372314453125">
        <ele>2471.60009765625</ele>
        <time>2021-06-24T22:07:59.000Z</time>
        <extensions>
          <ns3:TrackPointExtension>
            <ns3:atemp>30.0</ns3:atemp>
            <ns3:hr>108</ns3:hr>
          </ns3:TrackPointExtension>
        </extensions>
      </trkpt>
      <trkpt lat="36.75799841992557048797607421875" lon="-118.45161049626767635345458984375">
        <ele>2471.199951171875</ele>
        <time>2021-06-24T22:08:05.000Z</time>
        <extensions>
          <ns3:TrackPointExtension>
            <ns3:atemp>30.0</ns3:atemp>
            <ns3:hr>105</ns3:hr>
          </ns3:TrackPointExtension>
        </extensions>
      </trkpt>
      <trkpt lat="36.75799171440303325653076171875" lon="-118.45159976743161678314208984375">
        <ele>2470.800048828125</ele>
        <time>2021-06-24T22:08:06.000Z</time>
        <extensions>
          <ns3:TrackPointExtension>
            <ns3:atemp>30.0</ns3:atemp>
            <ns3:hr>104</ns3:hr>
          </ns3:TrackPointExtension>
        </extensions>
      </trkpt>
      <trkpt lat="36.75798785872757434844970703125" lon="-118.4515946544706821441650390625">
        <ele>2470.800048828125</ele>
        <time>2021-06-24T22:08:07.000Z</time>
        <extensions>
          <ns3:TrackPointExtension>
            <ns3:atemp>30.0</ns3:atemp>
            <ns3:hr>103</ns3:hr>
          </ns3:TrackPointExtension>
        </extensions>
      </trkpt>
      <trkpt lat="36.75795885734260082244873046875" lon="-118.4515282697975635528564453125">
        <ele>2470.60009765625</ele>
        <time>2021-06-24T22:08:12.000Z</time>
        <extensions>
          <ns3:TrackPointExtension>
            <ns3:atemp>30.0</ns3:atemp>
            <ns3:hr>105</ns3:hr>
          </ns3:TrackPointExtension>
        </extensions>
      </trkpt>
      <trkpt lat="36.75795114599168300628662109375" lon="-118.45150840468704700469970703125">
        <ele>2470.60009765625</ele>
        <time>2021-06-24T22:08:15.000Z</time>
        <extensions>
          <ns3:TrackPointExtension>
            <ns3:atemp>30.0</ns3:atemp>
            <ns3:hr>108</ns3:hr>
          </ns3:TrackPointExtension>
        </extensions>
      </trkpt>
      <trkpt lat="36.7579353041946887969970703125" lon="-118.4514853544533252716064453125">
        <ele>2470.39990234375</ele>
        <time>2021-06-24T22:08:17.000Z</time>
        <extensions>
          <ns3:TrackPointExtension>
            <ns3:atemp>30.0</ns3:atemp>
            <ns3:hr>109</ns3:hr>
          </ns3:TrackPointExtension>
        </extensions>
      </trkpt>
      <trkpt lat="36.7578699253499507904052734375" lon="-118.45142458565533161163330078125">
        <ele>2470</ele>
        <time>2021-06-24T22:08:24.000Z</time>
        <extensions>
          <ns3:TrackPointExtension>
            <ns3:atemp>30.0</ns3:atemp>
            <ns3:hr>109</ns3:hr>
          </ns3:TrackPointExtension>
        </extensions>
      </trkpt>
      <trkpt lat="36.757847629487514495849609375" lon="-118.451380245387554168701171875">
        <ele>2469.60009765625</ele>
        <time>2021-06-24T22:08:28.000Z</time>
        <extensions>
          <ns3:TrackPointExtension>
            <ns3:atemp>30.0</ns3:atemp>
            <ns3:hr>111</ns3:hr>
          </ns3:TrackPointExtension>
        </extensions>
      </trkpt>
      <trkpt lat="36.757822819054126739501953125" lon="-118.4513267688453197479248046875">
        <ele>2469.800048828125</ele>
        <time>2021-06-24T22:08:32.000Z</time>
        <extensions>
          <ns3:TrackPointExtension>
            <ns3:atemp>30.0</ns3:atemp>
            <ns3:hr>110</ns3:hr>
          </ns3:TrackPointExtension>
        </extensions>
      </trkpt>
      <trkpt lat="36.75778283737599849700927734375" lon="-118.4512768127024173736572265625">
        <ele>2470.39990234375</ele>
        <time>2021-06-24T22:08:37.000Z</time>
        <extensions>
          <ns3:TrackPointExtension>
            <ns3:atemp>30.0</ns3:atemp>
            <ns3:hr>107</ns3:hr>
          </ns3:TrackPointExtension>
        </extensions>
      </trkpt>
      <trkpt lat="36.75775417126715183258056640625" lon="-118.45127907581627368927001953125">
        <ele>2470.60009765625</ele>
        <time>2021-06-24T22:08:39.000Z</time>
        <extensions>
          <ns3:TrackPointExtension>
            <ns3:atemp>30.0</ns3:atemp>
            <ns3:hr>107</ns3:hr>
          </ns3:TrackPointExtension>
        </extensions>
      </trkpt>
      <trkpt lat="36.7577418498694896697998046875" lon="-118.45126968808472156524658203125">
        <ele>2470.60009765625</ele>
        <time>2021-06-24T22:08:40.000Z</time>
        <extensions>
          <ns3:TrackPointExtension>
            <ns3:atemp>30.0</ns3:atemp>
            <ns3:hr>106</ns3:hr>
          </ns3:TrackPointExtension>
        </extensions>
      </trkpt>
      <trkpt lat="36.7577358148992061614990234375" lon="-118.45126993954181671142578125">
        <ele>2470.60009765625</ele>
        <time>2021-06-24T22:08:41.000Z</time>
        <extensions>
          <ns3:TrackPointExtension>
            <ns3:atemp>30.0</ns3:atemp>
            <ns3:hr>103</ns3:hr>
          </ns3:TrackPointExtension>
        </extensions>
      </trkpt>
      <trkpt lat="36.7577240802347660064697265625" lon="-118.451242782175540924072265625">
        <ele>2470.60009765625</ele>
        <time>2021-06-24T22:08:45.000Z</time>
        <extensions>
          <ns3:TrackPointExtension>
            <ns3:atemp>30.0</ns3:atemp>
            <ns3:hr>108</ns3:hr>
          </ns3:TrackPointExtension>
        </extensions>
      </trkpt>
      <trkpt lat="36.75771796144545078277587890625" lon="-118.4512330591678619384765625">
        <ele>2470.60009765625</ele>
        <time>2021-06-24T22:08:46.000Z</time>
        <extensions>
          <ns3:TrackPointExtension>
            <ns3:atemp>30.0</ns3:atemp>
            <ns3:hr>107</ns3:hr>
          </ns3:TrackPointExtension>
        </extensions>
      </trkpt>
      <trkpt lat="36.75770245492458343505859375" lon="-118.45121202059090137481689453125">
        <ele>2470.60009765625</ele>
        <time>2021-06-24T22:08:48.000Z</time>
        <extensions>
          <ns3:TrackPointExtension>
            <ns3:atemp>30.0</ns3:atemp>
            <ns3:hr>104</ns3:hr>
          </ns3:TrackPointExtension>
        </extensions>
      </trkpt>
      <trkpt lat="36.7576908878982067108154296875" lon="-118.45120749436318874359130859375">
        <ele>2471</ele>
        <time>2021-06-24T22:08:49.000Z</time>
        <extensions>
          <ns3:TrackPointExtension>
            <ns3:atemp>30.0</ns3:atemp>
            <ns3:hr>101</ns3:hr>
          </ns3:TrackPointExtension>
        </extensions>
      </trkpt>
      <trkpt lat="36.7576650716364383697509765625" lon="-118.45119928009808063507080078125">
        <ele>2471.39990234375</ele>
        <time>2021-06-24T22:08:51.000Z</time>
        <extensions>
          <ns3:TrackPointExtension>
            <ns3:atemp>30.0</ns3:atemp>
            <ns3:hr>104</ns3:hr>
          </ns3:TrackPointExtension>
        </extensions>
      </trkpt>
      <trkpt lat="36.75764403305947780609130859375" lon="-118.4511668421328067779541015625">
        <ele>2471.800048828125</ele>
        <time>2021-06-24T22:08:55.000Z</time>
        <extensions>
          <ns3:TrackPointExtension>
            <ns3:atemp>29.0</ns3:atemp>
            <ns3:hr>102</ns3:hr>
          </ns3:TrackPointExtension>
        </extensions>
      </trkpt>
      <trkpt lat="36.75763598643243312835693359375" lon="-118.45113842748105525970458984375">
        <ele>2471.800048828125</ele>
        <time>2021-06-24T22:08:57.000Z</time>
        <extensions>
          <ns3:TrackPointExtension>
            <ns3:atemp>29.0</ns3:atemp>
            <ns3:hr>102</ns3:hr>
          </ns3:TrackPointExtension>
        </extensions>
      </trkpt>
      <trkpt lat="36.7576241679489612579345703125" lon="-118.451122082769870758056640625">
        <ele>2472</ele>
        <time>2021-06-24T22:08:58.000Z</time>
        <extensions>
          <ns3:TrackPointExtension>
            <ns3:atemp>29.0</ns3:atemp>
            <ns3:hr>104</ns3:hr>
          </ns3:TrackPointExtension>
        </extensions>
      </trkpt>
      <trkpt lat="36.7576201446354389190673828125" lon="-118.45109048299491405487060546875">
        <ele>2472</ele>
        <time>2021-06-24T22:09:01.000Z</time>
        <extensions>
          <ns3:TrackPointExtension>
            <ns3:atemp>29.0</ns3:atemp>
            <ns3:hr>104</ns3:hr>
          </ns3:TrackPointExtension>
        </extensions>
      </trkpt>
      <trkpt lat="36.757601201534271240234375" lon="-118.45104421488940715789794921875">
        <ele>2472.60009765625</ele>
        <time>2021-06-24T22:09:04.000Z</time>
        <extensions>
          <ns3:TrackPointExtension>
            <ns3:atemp>30.0</ns3:atemp>
            <ns3:hr>105</ns3:hr>
          </ns3:TrackPointExtension>
        </extensions>
      </trkpt>
      <trkpt lat="36.75758083350956439971923828125" lon="-118.45102585852146148681640625">
        <ele>2472.800048828125</ele>
        <time>2021-06-24T22:09:06.000Z</time>
        <extensions>
          <ns3:TrackPointExtension>
            <ns3:atemp>30.0</ns3:atemp>
            <ns3:hr>105</ns3:hr>
          </ns3:TrackPointExtension>
        </extensions>
      </trkpt>
      <trkpt lat="36.757577396929264068603515625" lon="-118.45101957209408283233642578125">
        <ele>2473</ele>
        <time>2021-06-24T22:09:08.000Z</time>
        <extensions>
          <ns3:TrackPointExtension>
            <ns3:atemp>30.0</ns3:atemp>
            <ns3:hr>106</ns3:hr>
          </ns3:TrackPointExtension>
        </extensions>
      </trkpt>
      <trkpt lat="36.7575752176344394683837890625" lon="-118.45101169310510158538818359375">
        <ele>2473</ele>
        <time>2021-06-24T22:09:09.000Z</time>
        <extensions>
          <ns3:TrackPointExtension>
            <ns3:atemp>29.0</ns3:atemp>
            <ns3:hr>106</ns3:hr>
          </ns3:TrackPointExtension>
        </extensions>
      </trkpt>
      <trkpt lat="36.75756298005580902099609375" lon="-118.450999371707439422607421875">
        <ele>2473.39990234375</ele>
        <time>2021-06-24T22:09:11.000Z</time>
        <extensions>
          <ns3:TrackPointExtension>
            <ns3:atemp>30.0</ns3:atemp>
            <ns3:hr>105</ns3:hr>
          </ns3:TrackPointExtension>
        </extensions>
      </trkpt>
      <trkpt lat="36.75755803473293781280517578125" lon="-118.45099425874650478363037109375">
        <ele>2473.39990234375</ele>
        <time>2021-06-24T22:09:12.000Z</time>
        <extensions>
          <ns3:TrackPointExtension>
            <ns3:atemp>30.0</ns3:atemp>
            <ns3:hr>106</ns3:hr>
          </ns3:TrackPointExtension>
        </extensions>
      </trkpt>
      <trkpt lat="36.7575530894100666046142578125" lon="-118.45097464509308338165283203125">
        <ele>2473.199951171875</ele>
        <time>2021-06-24T22:09:15.000Z</time>
        <extensions>
          <ns3:TrackPointExtension>
            <ns3:atemp>30.0</ns3:atemp>
            <ns3:hr>107</ns3:hr>
          </ns3:TrackPointExtension>
        </extensions>
      </trkpt>
      <trkpt lat="36.7575649917125701904296875" lon="-118.45097464509308338165283203125">
        <ele>2473.199951171875</ele>
        <time>2021-06-24T22:09:18.000Z</time>
        <extensions>
          <ns3:TrackPointExtension>
            <ns3:atemp>30.0</ns3:atemp>
            <ns3:hr>105</ns3:hr>
          </ns3:TrackPointExtension>
        </extensions>
      </trkpt>
      <trkpt lat="36.75757345743477344512939453125" lon="-118.45097833313047885894775390625">
        <ele>2473.199951171875</ele>
        <time>2021-06-24T22:09:23.000Z</time>
        <extensions>
          <ns3:TrackPointExtension>
            <ns3:atemp>30.0</ns3:atemp>
            <ns3:hr>102</ns3:hr>
          </ns3:TrackPointExtension>
        </extensions>
      </trkpt>
      <trkpt lat="36.7575728707015514373779296875" lon="-118.45098889432847499847412109375">
        <ele>2473</ele>
        <time>2021-06-24T22:09:24.000Z</time>
        <extensions>
          <ns3:TrackPointExtension>
            <ns3:atemp>30.0</ns3:atemp>
            <ns3:hr>101</ns3:hr>
          </ns3:TrackPointExtension>
        </extensions>
      </trkpt>
      <trkpt lat="36.7576010338962078094482421875" lon="-118.4509814344346523284912109375">
        <ele>2473.199951171875</ele>
        <time>2021-06-24T22:09:32.000Z</time>
        <extensions>
          <ns3:TrackPointExtension>
            <ns3:atemp>30.0</ns3:atemp>
            <ns3:hr>102</ns3:hr>
          </ns3:TrackPointExtension>
        </extensions>
      </trkpt>
      <trkpt lat="36.7576010338962078094482421875" lon="-118.4509814344346523284912109375">
        <ele>2473.39990234375</ele>
        <time>2021-06-24T22:09:35.000Z</time>
        <extensions>
          <ns3:TrackPointExtension>
            <ns3:atemp>30.0</ns3:atemp>
            <ns3:hr>105</ns3:hr>
          </ns3:TrackPointExtension>
        </extensions>
      </trkpt>
      <trkpt lat="36.7576040513813495635986328125" lon="-118.4509782493114471435546875">
        <ele>2473.39990234375</ele>
        <time>2021-06-24T22:09:37.000Z</time>
        <extensions>
          <ns3:TrackPointExtension>
            <ns3:atemp>30.0</ns3:atemp>
            <ns3:hr>108</ns3:hr>
          </ns3:TrackPointExtension>
        </extensions>
      </trkpt>
      <trkpt lat="36.757606901228427886962890625" lon="-118.45097221434116363525390625">
        <ele>2473.39990234375</ele>
        <time>2021-06-24T22:09:39.000Z</time>
        <extensions>
          <ns3:TrackPointExtension>
            <ns3:atemp>30.0</ns3:atemp>
            <ns3:hr>111</ns3:hr>
          </ns3:TrackPointExtension>
        </extensions>
      </trkpt>
      <trkpt lat="36.75761117599904537200927734375" lon="-118.45096006058156490325927734375">
        <ele>2473.800048828125</ele>
        <time>2021-06-24T22:09:42.000Z</time>
        <extensions>
          <ns3:TrackPointExtension>
            <ns3:atemp>30.0</ns3:atemp>
            <ns3:hr>114</ns3:hr>
          </ns3:TrackPointExtension>
        </extensions>
      </trkpt>
      <trkpt lat="36.75759307108819484710693359375" lon="-118.45091932453215122222900390625">
        <ele>2473.800048828125</ele>
        <time>2021-06-24T22:09:46.000Z</time>
        <extensions>
          <ns3:TrackPointExtension>
            <ns3:atemp>30.0</ns3:atemp>
            <ns3:hr>116</ns3:hr>
          </ns3:TrackPointExtension>
        </extensions>
      </trkpt>
      <trkpt lat="36.7575514130294322967529296875" lon="-118.45086350105702877044677734375">
        <ele>2473.800048828125</ele>
        <time>2021-06-24T22:09:53.000Z</time>
        <extensions>
          <ns3:TrackPointExtension>
            <ns3:atemp>30.0</ns3:atemp>
            <ns3:hr>115</ns3:hr>
          </ns3:TrackPointExtension>
        </extensions>
      </trkpt>
      <trkpt lat="36.75754328258335590362548828125" lon="-118.45084724016487598419189453125">
        <ele>2474</ele>
        <time>2021-06-24T22:09:55.000Z</time>
        <extensions>
          <ns3:TrackPointExtension>
            <ns3:atemp>30.0</ns3:atemp>
            <ns3:hr>115</ns3:hr>
          </ns3:TrackPointExtension>
        </extensions>
      </trkpt>
      <trkpt lat="36.75751470029354095458984375" lon="-118.45077850855886936187744140625">
        <ele>2474.800048828125</ele>
        <time>2021-06-24T22:10:02.000Z</time>
        <extensions>
          <ns3:TrackPointExtension>
            <ns3:atemp>30.0</ns3:atemp>
            <ns3:hr>114</ns3:hr>
          </ns3:TrackPointExtension>
        </extensions>
      </trkpt>
      <trkpt lat="36.75748896785080432891845703125" lon="-118.4507397003471851348876953125">
        <ele>2475</ele>
        <time>2021-06-24T22:10:05.000Z</time>
        <extensions>
          <ns3:TrackPointExtension>
            <ns3:atemp>30.0</ns3:atemp>
            <ns3:hr>114</ns3:hr>
          </ns3:TrackPointExtension>
        </extensions>
      </trkpt>
      <trkpt lat="36.7574742995202541351318359375" lon="-118.45071882940828800201416015625">
        <ele>2475</ele>
        <time>2021-06-24T22:10:07.000Z</time>
        <extensions>
          <ns3:TrackPointExtension>
            <ns3:atemp>30.0</ns3:atemp>
            <ns3:hr>113</ns3:hr>
          </ns3:TrackPointExtension>
        </extensions>
      </trkpt>
      <trkpt lat="36.75747119821608066558837890625" lon="-118.45070994459092617034912109375">
        <ele>2475</ele>
        <time>2021-06-24T22:10:08.000Z</time>
        <extensions>
          <ns3:TrackPointExtension>
            <ns3:atemp>30.0</ns3:atemp>
            <ns3:hr>113</ns3:hr>
          </ns3:TrackPointExtension>
        </extensions>
      </trkpt>
      <trkpt lat="36.757460050284862518310546875" lon="-118.450688906013965606689453125">
        <ele>2475.39990234375</ele>
        <time>2021-06-24T22:10:10.000Z</time>
        <extensions>
          <ns3:TrackPointExtension>
            <ns3:atemp>30.0</ns3:atemp>
            <ns3:hr>114</ns3:hr>
          </ns3:TrackPointExtension>
        </extensions>
      </trkpt>
      <trkpt lat="36.75743968226015567779541015625" lon="-118.4506682865321636199951171875">
        <ele>2475.60009765625</ele>
        <time>2021-06-24T22:10:12.000Z</time>
        <extensions>
          <ns3:TrackPointExtension>
            <ns3:atemp>30.0</ns3:atemp>
            <ns3:hr>116</ns3:hr>
          </ns3:TrackPointExtension>
        </extensions>
      </trkpt>
      <trkpt lat="36.75742576830089092254638671875" lon="-118.450650013983249664306640625">
        <ele>2475.60009765625</ele>
        <time>2021-06-24T22:10:14.000Z</time>
        <extensions>
          <ns3:TrackPointExtension>
            <ns3:atemp>30.0</ns3:atemp>
            <ns3:hr>117</ns3:hr>
          </ns3:TrackPointExtension>
        </extensions>
      </trkpt>
      <trkpt lat="36.757375560700893402099609375" lon="-118.45060366205871105194091796875">
        <ele>2475.39990234375</ele>
        <time>2021-06-24T22:10:18.000Z</time>
        <extensions>
          <ns3:TrackPointExtension>
            <ns3:atemp>30.0</ns3:atemp>
            <ns3:hr>115</ns3:hr>
          </ns3:TrackPointExtension>
        </extensions>
      </trkpt>
      <trkpt lat="36.75736592151224613189697265625" lon="-118.4505935199558734893798828125">
        <ele>2475.39990234375</ele>
        <time>2021-06-24T22:10:20.000Z</time>
        <extensions>
          <ns3:TrackPointExtension>
            <ns3:atemp>30.0</ns3:atemp>
            <ns3:hr>114</ns3:hr>
          </ns3:TrackPointExtension>
        </extensions>
      </trkpt>
      <trkpt lat="36.7573592998087406158447265625" lon="-118.45056761987507343292236328125">
        <ele>2475.199951171875</ele>
        <time>2021-06-24T22:10:21.000Z</time>
        <extensions>
          <ns3:TrackPointExtension>
            <ns3:atemp>30.0</ns3:atemp>
            <ns3:hr>113</ns3:hr>
          </ns3:TrackPointExtension>
        </extensions>
      </trkpt>
      <trkpt lat="36.75734798423945903778076171875" lon="-118.4505395404994487762451171875">
        <ele>2475.199951171875</ele>
        <time>2021-06-24T22:10:23.000Z</time>
        <extensions>
          <ns3:TrackPointExtension>
            <ns3:atemp>30.0</ns3:atemp>
            <ns3:hr>112</ns3:hr>
          </ns3:TrackPointExtension>
        </extensions>
      </trkpt>
      <trkpt lat="36.75733054988086223602294921875" lon="-118.4504949487745761871337890625">
        <ele>2475</ele>
        <time>2021-06-24T22:10:27.000Z</time>
        <extensions>
          <ns3:TrackPointExtension>
            <ns3:atemp>30.0</ns3:atemp>
            <ns3:hr>115</ns3:hr>
          </ns3:TrackPointExtension>
        </extensions>
      </trkpt>
      <trkpt lat="36.75732317380607128143310546875" lon="-118.45047466456890106201171875">
        <ele>2474.800048828125</ele>
        <time>2021-06-24T22:10:29.000Z</time>
        <extensions>
          <ns3:TrackPointExtension>
            <ns3:atemp>29.0</ns3:atemp>
            <ns3:hr>117</ns3:hr>
          </ns3:TrackPointExtension>
        </extensions>
      </trkpt>
      <trkpt lat="36.75731814466416835784912109375" lon="-118.4504641033709049224853515625">
        <ele>2474.800048828125</ele>
        <time>2021-06-24T22:10:30.000Z</time>
        <extensions>
          <ns3:TrackPointExtension>
            <ns3:atemp>30.0</ns3:atemp>
            <ns3:hr>117</ns3:hr>
          </ns3:TrackPointExtension>
        </extensions>
      </trkpt>
      <trkpt lat="36.75729568116366863250732421875" lon="-118.45041967928409576416015625">
        <ele>2474.39990234375</ele>
        <time>2021-06-24T22:10:34.000Z</time>
        <extensions>
          <ns3:TrackPointExtension>
            <ns3:atemp>29.0</ns3:atemp>
            <ns3:hr>119</ns3:hr>
          </ns3:TrackPointExtension>
        </extensions>
      </trkpt>
      <trkpt lat="36.75729249604046344757080078125" lon="-118.45039310865104198455810546875">
        <ele>2474.39990234375</ele>
        <time>2021-06-24T22:10:36.000Z</time>
        <extensions>
          <ns3:TrackPointExtension>
            <ns3:atemp>29.0</ns3:atemp>
            <ns3:hr>118</ns3:hr>
          </ns3:TrackPointExtension>
        </extensions>
      </trkpt>
      <trkpt lat="36.75729316659271717071533203125" lon="-118.4503719024360179901123046875">
        <ele>2474.39990234375</ele>
        <time>2021-06-24T22:10:38.000Z</time>
        <extensions>
          <ns3:TrackPointExtension>
            <ns3:atemp>29.0</ns3:atemp>
            <ns3:hr>118</ns3:hr>
          </ns3:TrackPointExtension>
        </extensions>
      </trkpt>
      <trkpt lat="36.7573026381433010101318359375" lon="-118.45033141784369945526123046875">
        <ele>2474.60009765625</ele>
        <time>2021-06-24T22:10:41.000Z</time>
        <extensions>
          <ns3:TrackPointExtension>
            <ns3:atemp>29.0</ns3:atemp>
            <ns3:hr>115</ns3:hr>
          </ns3:TrackPointExtension>
        </extensions>
      </trkpt>
      <trkpt lat="36.75730557180941104888916015625" lon="-118.45028129406273365020751953125">
        <ele>2474.199951171875</ele>
        <time>2021-06-24T22:10:44.000Z</time>
        <extensions>
          <ns3:TrackPointExtension>
            <ns3:atemp>29.0</ns3:atemp>
            <ns3:hr>114</ns3:hr>
          </ns3:TrackPointExtension>
        </extensions>
      </trkpt>
      <trkpt lat="36.7573066614568233489990234375" lon="-118.4502418152987957000732421875">
        <ele>2474.199951171875</ele>
        <time>2021-06-24T22:10:48.000Z</time>
        <extensions>
          <ns3:TrackPointExtension>
            <ns3:atemp>29.0</ns3:atemp>
            <ns3:hr>114</ns3:hr>
          </ns3:TrackPointExtension>
        </extensions>
      </trkpt>
      <trkpt lat="36.75730724819004535675048828125" lon="-118.450233936309814453125">
        <ele>2474.199951171875</ele>
        <time>2021-06-24T22:10:49.000Z</time>
        <extensions>
          <ns3:TrackPointExtension>
            <ns3:atemp>29.0</ns3:atemp>
            <ns3:hr>114</ns3:hr>
          </ns3:TrackPointExtension>
        </extensions>
      </trkpt>
      <trkpt lat="36.7573036439716815948486328125" lon="-118.45021155662834644317626953125">
        <ele>2474</ele>
        <time>2021-06-24T22:10:51.000Z</time>
        <extensions>
          <ns3:TrackPointExtension>
            <ns3:atemp>29.0</ns3:atemp>
            <ns3:hr>114</ns3:hr>
          </ns3:TrackPointExtension>
        </extensions>
      </trkpt>
      <trkpt lat="36.7573311366140842437744140625" lon="-118.4501479379832744598388671875">
        <ele>2474.39990234375</ele>
        <time>2021-06-24T22:10:58.000Z</time>
        <extensions>
          <ns3:TrackPointExtension>
            <ns3:atemp>29.0</ns3:atemp>
            <ns3:hr>111</ns3:hr>
          </ns3:TrackPointExtension>
        </extensions>
      </trkpt>
      <trkpt lat="36.7573504149913787841796875" lon="-118.4501120634377002716064453125">
        <ele>2474.39990234375</ele>
        <time>2021-06-24T22:11:01.000Z</time>
        <extensions>
          <ns3:TrackPointExtension>
            <ns3:atemp>29.0</ns3:atemp>
            <ns3:hr>111</ns3:hr>
          </ns3:TrackPointExtension>
        </extensions>
      </trkpt>
      <trkpt lat="36.7573482356965541839599609375" lon="-118.45010845921933650970458984375">
        <ele>2474.60009765625</ele>
        <time>2021-06-24T22:11:03.000Z</time>
        <extensions>
          <ns3:TrackPointExtension>
            <ns3:atemp>29.0</ns3:atemp>
            <ns3:hr>110</ns3:hr>
          </ns3:TrackPointExtension>
        </extensions>
      </trkpt>
      <trkpt lat="36.75734664313495159149169921875" lon="-118.4501013346016407012939453125">
        <ele>2474.60009765625</ele>
        <time>2021-06-24T22:11:04.000Z</time>
        <extensions>
          <ns3:TrackPointExtension>
            <ns3:atemp>29.0</ns3:atemp>
            <ns3:hr>110</ns3:hr>
          </ns3:TrackPointExtension>
        </extensions>
      </trkpt>
      <trkpt lat="36.75734303891658782958984375" lon="-118.4500952996313571929931640625">
        <ele>2474.60009765625</ele>
        <time>2021-06-24T22:11:05.000Z</time>
        <extensions>
          <ns3:TrackPointExtension>
            <ns3:atemp>29.0</ns3:atemp>
            <ns3:hr>111</ns3:hr>
          </ns3:TrackPointExtension>
        </extensions>
      </trkpt>
      <trkpt lat="36.75731931813061237335205078125" lon="-118.4500741772353649139404296875">
        <ele>2474.800048828125</ele>
        <time>2021-06-24T22:11:09.000Z</time>
        <extensions>
          <ns3:TrackPointExtension>
            <ns3:atemp>29.0</ns3:atemp>
            <ns3:hr>108</ns3:hr>
          </ns3:TrackPointExtension>
        </extensions>
      </trkpt>
      <trkpt lat="36.75731630064547061920166015625" lon="-118.4500587545335292816162109375">
        <ele>2474.800048828125</ele>
        <time>2021-06-24T22:11:11.000Z</time>
        <extensions>
          <ns3:TrackPointExtension>
            <ns3:atemp>29.0</ns3:atemp>
            <ns3:hr>105</ns3:hr>
          </ns3:TrackPointExtension>
        </extensions>
      </trkpt>
      <trkpt lat="36.75732317380607128143310546875" lon="-118.45004609785974025726318359375">
        <ele>2474.800048828125</ele>
        <time>2021-06-24T22:11:12.000Z</time>
        <extensions>
          <ns3:TrackPointExtension>
            <ns3:atemp>29.0</ns3:atemp>
            <ns3:hr>104</ns3:hr>
          </ns3:TrackPointExtension>
        </extensions>
      </trkpt>
      <trkpt lat="36.7573249340057373046875" lon="-118.45004090107977390289306640625">
        <ele>2475</ele>
        <time>2021-06-24T22:11:13.000Z</time>
        <extensions>
          <ns3:TrackPointExtension>
            <ns3:atemp>29.0</ns3:atemp>
            <ns3:hr>103</ns3:hr>
          </ns3:TrackPointExtension>
        </extensions>
      </trkpt>
      <trkpt lat="36.7573370039463043212890625" lon="-118.45004023052752017974853515625">
        <ele>2475.199951171875</ele>
        <time>2021-06-24T22:11:16.000Z</time>
        <extensions>
          <ns3:TrackPointExtension>
            <ns3:atemp>30.0</ns3:atemp>
            <ns3:hr>101</ns3:hr>
          </ns3:TrackPointExtension>
        </extensions>
      </trkpt>
      <trkpt lat="36.7573599703609943389892578125" lon="-118.4500104747712612152099609375">
        <ele>2475.199951171875</ele>
        <time>2021-06-24T22:11:18.000Z</time>
        <extensions>
          <ns3:TrackPointExtension>
            <ns3:atemp>30.0</ns3:atemp>
            <ns3:hr>100</ns3:hr>
          </ns3:TrackPointExtension>
        </extensions>
      </trkpt>
      <trkpt lat="36.75738922320306301116943359375" lon="-118.44996177591383457183837890625">
        <ele>2475.39990234375</ele>
        <time>2021-06-24T22:11:23.000Z</time>
        <extensions>
          <ns3:TrackPointExtension>
            <ns3:atemp>30.0</ns3:atemp>
            <ns3:hr>101</ns3:hr>
          </ns3:TrackPointExtension>
        </extensions>
      </trkpt>
      <trkpt lat="36.7573961801826953887939453125" lon="-118.4499402344226837158203125">
        <ele>2475.39990234375</ele>
        <time>2021-06-24T22:11:25.000Z</time>
        <extensions>
          <ns3:TrackPointExtension>
            <ns3:atemp>30.0</ns3:atemp>
            <ns3:hr>102</ns3:hr>
          </ns3:TrackPointExtension>
        </extensions>
      </trkpt>
      <trkpt lat="36.75739936530590057373046875" lon="-118.44992615282535552978515625">
        <ele>2475.39990234375</ele>
        <time>2021-06-24T22:11:27.000Z</time>
        <extensions>
          <ns3:TrackPointExtension>
            <ns3:atemp>30.0</ns3:atemp>
            <ns3:hr>102</ns3:hr>
          </ns3:TrackPointExtension>
        </extensions>
      </trkpt>
      <trkpt lat="36.7573826014995574951171875" lon="-118.44989706762135028839111328125">
        <ele>2475.199951171875</ele>
        <time>2021-06-24T22:11:33.000Z</time>
        <extensions>
          <ns3:TrackPointExtension>
            <ns3:atemp>30.0</ns3:atemp>
            <ns3:hr>104</ns3:hr>
          </ns3:TrackPointExtension>
        </extensions>
      </trkpt>
      <trkpt lat="36.757385618984699249267578125" lon="-118.44987728632986545562744140625">
        <ele>2475</ele>
        <time>2021-06-24T22:11:36.000Z</time>
        <extensions>
          <ns3:TrackPointExtension>
            <ns3:atemp>30.0</ns3:atemp>
            <ns3:hr>107</ns3:hr>
          </ns3:TrackPointExtension>
        </extensions>
      </trkpt>
      <trkpt lat="36.75740414299070835113525390625" lon="-118.44986085779964923858642578125">
        <ele>2474.800048828125</ele>
        <time>2021-06-24T22:11:40.000Z</time>
        <extensions>
          <ns3:TrackPointExtension>
            <ns3:atemp>30.0</ns3:atemp>
            <ns3:hr>110</ns3:hr>
          </ns3:TrackPointExtension>
        </extensions>
      </trkpt>
      <trkpt lat="36.7573986947536468505859375" lon="-118.44980277121067047119140625">
        <ele>2474.60009765625</ele>
        <time>2021-06-24T22:11:47.000Z</time>
        <extensions>
          <ns3:TrackPointExtension>
            <ns3:atemp>30.0</ns3:atemp>
            <ns3:hr>111</ns3:hr>
          </ns3:TrackPointExtension>
        </extensions>
      </trkpt>
      <trkpt lat="36.75732753239572048187255859375" lon="-118.4497650526463985443115234375">
        <ele>2474.60009765625</ele>
        <time>2021-06-24T22:11:53.000Z</time>
        <extensions>
          <ns3:TrackPointExtension>
            <ns3:atemp>30.0</ns3:atemp>
            <ns3:hr>108</ns3:hr>
          </ns3:TrackPointExtension>
        </extensions>
      </trkpt>
      <trkpt lat="36.7573173902928829193115234375" lon="-118.44976128078997135162353515625">
        <ele>2474.60009765625</ele>
        <time>2021-06-24T22:11:54.000Z</time>
        <extensions>
          <ns3:TrackPointExtension>
            <ns3:atemp>30.0</ns3:atemp>
            <ns3:hr>108</ns3:hr>
          </ns3:TrackPointExtension>
        </extensions>
      </trkpt>
      <trkpt lat="36.7572660930454730987548828125" lon="-118.44972825609147548675537109375">
        <ele>2474.60009765625</ele>
        <time>2021-06-24T22:12:00.000Z</time>
        <extensions>
          <ns3:TrackPointExtension>
            <ns3:atemp>30.0</ns3:atemp>
            <ns3:hr>107</ns3:hr>
          </ns3:TrackPointExtension>
        </extensions>
      </trkpt>
      <trkpt lat="36.757258884608745574951171875" lon="-118.4497207961976528167724609375">
        <ele>2474.60009765625</ele>
        <time>2021-06-24T22:12:01.000Z</time>
        <extensions>
          <ns3:TrackPointExtension>
            <ns3:atemp>30.0</ns3:atemp>
            <ns3:hr>106</ns3:hr>
          </ns3:TrackPointExtension>
        </extensions>
      </trkpt>
      <trkpt lat="36.75724647939205169677734375" lon="-118.449685759842395782470703125">
        <ele>2474</ele>
        <time>2021-06-24T22:12:03.000Z</time>
        <extensions>
          <ns3:TrackPointExtension>
            <ns3:atemp>30.0</ns3:atemp>
            <ns3:hr>106</ns3:hr>
          </ns3:TrackPointExtension>
        </extensions>
      </trkpt>
      <trkpt lat="36.7572466470301151275634765625" lon="-118.44963722862303256988525390625">
        <ele>2474</ele>
        <time>2021-06-24T22:12:05.000Z</time>
        <extensions>
          <ns3:TrackPointExtension>
            <ns3:atemp>30.0</ns3:atemp>
            <ns3:hr>106</ns3:hr>
          </ns3:TrackPointExtension>
        </extensions>
      </trkpt>
      <trkpt lat="36.7572412826120853424072265625" lon="-118.4496218897402286529541015625">
        <ele>2473.800048828125</ele>
        <time>2021-06-24T22:12:06.000Z</time>
        <extensions>
          <ns3:TrackPointExtension>
            <ns3:atemp>30.0</ns3:atemp>
            <ns3:hr>104</ns3:hr>
          </ns3:TrackPointExtension>
        </extensions>
      </trkpt>
      <trkpt lat="36.7572352476418018341064453125" lon="-118.449606634676456451416015625">
        <ele>2474</ele>
        <time>2021-06-24T22:12:07.000Z</time>
        <extensions>
          <ns3:TrackPointExtension>
            <ns3:atemp>30.0</ns3:atemp>
            <ns3:hr>105</ns3:hr>
          </ns3:TrackPointExtension>
        </extensions>
      </trkpt>
      <trkpt lat="36.7572184838354587554931640625" lon="-118.44957822002470493316650390625">
        <ele>2473.800048828125</ele>
        <time>2021-06-24T22:12:09.000Z</time>
        <extensions>
          <ns3:TrackPointExtension>
            <ns3:atemp>30.0</ns3:atemp>
            <ns3:hr>105</ns3:hr>
          </ns3:TrackPointExtension>
        </extensions>
      </trkpt>
      <trkpt lat="36.75719694234430789947509765625" lon="-118.44956464134156703948974609375">
        <ele>2473.800048828125</ele>
        <time>2021-06-24T22:12:12.000Z</time>
        <extensions>
          <ns3:TrackPointExtension>
            <ns3:atemp>30.0</ns3:atemp>
            <ns3:hr>106</ns3:hr>
          </ns3:TrackPointExtension>
        </extensions>
      </trkpt>
      <trkpt lat="36.7571651749312877655029296875" lon="-118.44956480897963047027587890625">
        <ele>2474.199951171875</ele>
        <time>2021-06-24T22:12:20.000Z</time>
        <extensions>
          <ns3:TrackPointExtension>
            <ns3:atemp>30.0</ns3:atemp>
            <ns3:hr>106</ns3:hr>
          </ns3:TrackPointExtension>
        </extensions>
      </trkpt>
      <trkpt lat="36.75715863704681396484375" lon="-118.4495581872761249542236328125">
        <ele>2474.199951171875</ele>
        <time>2021-06-24T22:12:23.000Z</time>
        <extensions>
          <ns3:TrackPointExtension>
            <ns3:atemp>29.0</ns3:atemp>
            <ns3:hr>102</ns3:hr>
          </ns3:TrackPointExtension>
        </extensions>
      </trkpt>
      <trkpt lat="36.7571574635803699493408203125" lon="-118.44955458305776119232177734375">
        <ele>2474.199951171875</ele>
        <time>2021-06-24T22:12:25.000Z</time>
        <extensions>
          <ns3:TrackPointExtension>
            <ns3:atemp>29.0</ns3:atemp>
            <ns3:hr>99</ns3:hr>
          </ns3:TrackPointExtension>
        </extensions>
      </trkpt>
      <trkpt lat="36.75713407807052135467529296875" lon="-118.44955055974423885345458984375">
        <ele>2474</ele>
        <time>2021-06-24T22:12:32.000Z</time>
        <extensions>
          <ns3:TrackPointExtension>
            <ns3:atemp>29.0</ns3:atemp>
            <ns3:hr>96</ns3:hr>
          </ns3:TrackPointExtension>
        </extensions>
      </trkpt>
      <trkpt lat="36.75714212469756603240966796875" lon="-118.4495454467833042144775390625">
        <ele>2473.800048828125</ele>
        <time>2021-06-24T22:12:46.000Z</time>
        <extensions>
          <ns3:TrackPointExtension>
            <ns3:atemp>29.0</ns3:atemp>
            <ns3:hr>99</ns3:hr>
          </ns3:TrackPointExtension>
        </extensions>
      </trkpt>
      <trkpt lat="36.7571440525352954864501953125" lon="-118.44953077845275402069091796875">
        <ele>2474</ele>
        <time>2021-06-24T22:12:50.000Z</time>
        <extensions>
          <ns3:TrackPointExtension>
            <ns3:atemp>29.0</ns3:atemp>
            <ns3:hr>99</ns3:hr>
          </ns3:TrackPointExtension>
        </extensions>
      </trkpt>
      <trkpt lat="36.757143549621105194091796875" lon="-118.4495045430958271026611328125">
        <ele>2474</ele>
        <time>2021-06-24T22:13:02.000Z</time>
        <extensions>
          <ns3:TrackPointExtension>
            <ns3:atemp>29.0</ns3:atemp>
            <ns3:hr>95</ns3:hr>
          </ns3:TrackPointExtension>
        </extensions>
      </trkpt>
      <trkpt lat="36.757142208516597747802734375" lon="-118.4494896233081817626953125">
        <ele>2473.60009765625</ele>
        <time>2021-06-24T22:13:06.000Z</time>
        <extensions>
          <ns3:TrackPointExtension>
            <ns3:atemp>29.0</ns3:atemp>
            <ns3:hr>98</ns3:hr>
          </ns3:TrackPointExtension>
        </extensions>
      </trkpt>
      <trkpt lat="36.75714111886918544769287109375" lon="-118.44953731633722782135009765625">
        <ele>2474.199951171875</ele>
        <time>2021-06-24T22:13:35.000Z</time>
        <extensions>
          <ns3:TrackPointExtension>
            <ns3:atemp>30.0</ns3:atemp>
            <ns3:hr>101</ns3:hr>
          </ns3:TrackPointExtension>
        </extensions>
      </trkpt>
      <trkpt lat="36.75716341473162174224853515625" lon="-118.44955064356327056884765625">
        <ele>2475</ele>
        <time>2021-06-24T22:13:40.000Z</time>
        <extensions>
          <ns3:TrackPointExtension>
            <ns3:atemp>29.0</ns3:atemp>
            <ns3:hr>102</ns3:hr>
          </ns3:TrackPointExtension>
        </extensions>
      </trkpt>
      <trkpt lat="36.75720297731459140777587890625" lon="-118.44955734908580780029296875">
        <ele>2475.39990234375</ele>
        <time>2021-06-24T22:13:45.000Z</time>
        <extensions>
          <ns3:TrackPointExtension>
            <ns3:atemp>29.0</ns3:atemp>
            <ns3:hr>103</ns3:hr>
          </ns3:TrackPointExtension>
        </extensions>
      </trkpt>
      <trkpt lat="36.7572158016264438629150390625" lon="-118.4495578519999980926513671875">
        <ele>2475.39990234375</ele>
        <time>2021-06-24T22:13:46.000Z</time>
        <extensions>
          <ns3:TrackPointExtension>
            <ns3:atemp>29.0</ns3:atemp>
            <ns3:hr>103</ns3:hr>
          </ns3:TrackPointExtension>
        </extensions>
      </trkpt>
      <trkpt lat="36.75723667256534099578857421875" lon="-118.4495732747018337249755859375">
        <ele>2475.39990234375</ele>
        <time>2021-06-24T22:13:49.000Z</time>
        <extensions>
          <ns3:TrackPointExtension>
            <ns3:atemp>29.0</ns3:atemp>
            <ns3:hr>103</ns3:hr>
          </ns3:TrackPointExtension>
        </extensions>
      </trkpt>
      <trkpt lat="36.757258214056491851806640625" lon="-118.44960269518196582794189453125">
        <ele>2475.199951171875</ele>
        <time>2021-06-24T22:13:51.000Z</time>
        <extensions>
          <ns3:TrackPointExtension>
            <ns3:atemp>29.0</ns3:atemp>
            <ns3:hr>101</ns3:hr>
          </ns3:TrackPointExtension>
        </extensions>
      </trkpt>
      <trkpt lat="36.75728444941341876983642578125" lon="-118.4496168605983257293701171875">
        <ele>2475.39990234375</ele>
        <time>2021-06-24T22:13:53.000Z</time>
        <extensions>
          <ns3:TrackPointExtension>
            <ns3:atemp>29.0</ns3:atemp>
            <ns3:hr>99</ns3:hr>
          </ns3:TrackPointExtension>
        </extensions>
      </trkpt>
      <trkpt lat="36.75731244497001171112060546875" lon="-118.44962599687278270721435546875">
        <ele>2475.60009765625</ele>
        <time>2021-06-24T22:13:55.000Z</time>
        <extensions>
          <ns3:TrackPointExtension>
            <ns3:atemp>29.0</ns3:atemp>
            <ns3:hr>98</ns3:hr>
          </ns3:TrackPointExtension>
        </extensions>
      </trkpt>
      <trkpt lat="36.75732602365314960479736328125" lon="-118.44965524971485137939453125">
        <ele>2475.60009765625</ele>
        <time>2021-06-24T22:13:57.000Z</time>
        <extensions>
          <ns3:TrackPointExtension>
            <ns3:atemp>29.0</ns3:atemp>
            <ns3:hr>95</ns3:hr>
          </ns3:TrackPointExtension>
        </extensions>
      </trkpt>
      <trkpt lat="36.75733708776533603668212890625" lon="-118.44966866075992584228515625">
        <ele>2475.39990234375</ele>
        <time>2021-06-24T22:13:58.000Z</time>
        <extensions>
          <ns3:TrackPointExtension>
            <ns3:atemp>29.0</ns3:atemp>
            <ns3:hr>95</ns3:hr>
          </ns3:TrackPointExtension>
        </extensions>
      </trkpt>
      <trkpt lat="36.75737044773995876312255859375" lon="-118.44969405792653560638427734375">
        <ele>2475.39990234375</ele>
        <time>2021-06-24T22:14:01.000Z</time>
        <extensions>
          <ns3:TrackPointExtension>
            <ns3:atemp>29.0</ns3:atemp>
            <ns3:hr>95</ns3:hr>
          </ns3:TrackPointExtension>
        </extensions>
      </trkpt>
      <trkpt lat="36.7574028857052326202392578125" lon="-118.44968249090015888214111328125">
        <ele>2475.39990234375</ele>
        <time>2021-06-24T22:14:03.000Z</time>
        <extensions>
          <ns3:TrackPointExtension>
            <ns3:atemp>29.0</ns3:atemp>
            <ns3:hr>95</ns3:hr>
          </ns3:TrackPointExtension>
        </extensions>
      </trkpt>
      <trkpt lat="36.75741721875965595245361328125" lon="-118.44967042095959186553955078125">
        <ele>2475.39990234375</ele>
        <time>2021-06-24T22:14:04.000Z</time>
        <extensions>
          <ns3:TrackPointExtension>
            <ns3:atemp>29.0</ns3:atemp>
            <ns3:hr>95</ns3:hr>
          </ns3:TrackPointExtension>
        </extensions>
      </trkpt>
      <trkpt lat="36.75742140971124172210693359375" lon="-118.44966061413288116455078125">
        <ele>2475.60009765625</ele>
        <time>2021-06-24T22:14:05.000Z</time>
        <extensions>
          <ns3:TrackPointExtension>
            <ns3:atemp>29.0</ns3:atemp>
            <ns3:hr>95</ns3:hr>
          </ns3:TrackPointExtension>
        </extensions>
      </trkpt>
      <trkpt lat="36.75743498839437961578369140625" lon="-118.44960470683872699737548828125">
        <ele>2475.800048828125</ele>
        <time>2021-06-24T22:14:09.000Z</time>
        <extensions>
          <ns3:TrackPointExtension>
            <ns3:atemp>29.0</ns3:atemp>
            <ns3:hr>96</ns3:hr>
          </ns3:TrackPointExtension>
        </extensions>
      </trkpt>
      <trkpt lat="36.7574347369372844696044921875" lon="-118.4495984204113483428955078125">
        <ele>2475.800048828125</ele>
        <time>2021-06-24T22:14:10.000Z</time>
        <extensions>
          <ns3:TrackPointExtension>
            <ns3:atemp>29.0</ns3:atemp>
            <ns3:hr>96</ns3:hr>
          </ns3:TrackPointExtension>
        </extensions>
      </trkpt>
      <trkpt lat="36.75743917934596538543701171875" lon="-118.4495903737843036651611328125">
        <ele>2476</ele>
        <time>2021-06-24T22:14:11.000Z</time>
        <extensions>
          <ns3:TrackPointExtension>
            <ns3:atemp>29.0</ns3:atemp>
            <ns3:hr>96</ns3:hr>
          </ns3:TrackPointExtension>
        </extensions>
      </trkpt>
      <trkpt lat="36.757444627583026885986328125" lon="-118.44958207570016384124755859375">
        <ele>2476.39990234375</ele>
        <time>2021-06-24T22:14:12.000Z</time>
        <extensions>
          <ns3:TrackPointExtension>
            <ns3:atemp>29.0</ns3:atemp>
            <ns3:hr>96</ns3:hr>
          </ns3:TrackPointExtension>
        </extensions>
      </trkpt>
      <trkpt lat="36.7574518360197544097900390625" lon="-118.44957436434924602508544921875">
        <ele>2476.39990234375</ele>
        <time>2021-06-24T22:14:14.000Z</time>
        <extensions>
          <ns3:TrackPointExtension>
            <ns3:atemp>29.0</ns3:atemp>
            <ns3:hr>99</ns3:hr>
          </ns3:TrackPointExtension>
        </extensions>
      </trkpt>
      <trkpt lat="36.75745166838169097900390625" lon="-118.4495722688734531402587890625">
        <ele>2476.60009765625</ele>
        <time>2021-06-24T22:14:15.000Z</time>
        <extensions>
          <ns3:TrackPointExtension>
            <ns3:atemp>29.0</ns3:atemp>
            <ns3:hr>99</ns3:hr>
          </ns3:TrackPointExtension>
        </extensions>
      </trkpt>
      <trkpt lat="36.75748544745147228240966796875" lon="-118.44951979815959930419921875">
        <ele>2476.60009765625</ele>
        <time>2021-06-24T22:14:19.000Z</time>
        <extensions>
          <ns3:TrackPointExtension>
            <ns3:atemp>29.0</ns3:atemp>
            <ns3:hr>100</ns3:hr>
          </ns3:TrackPointExtension>
        </extensions>
      </trkpt>
      <trkpt lat="36.75749567337334156036376953125" lon="-118.4494975022971630096435546875">
        <ele>2476.39990234375</ele>
        <time>2021-06-24T22:14:20.000Z</time>
        <extensions>
          <ns3:TrackPointExtension>
            <ns3:atemp>30.0</ns3:atemp>
            <ns3:hr>100</ns3:hr>
          </ns3:TrackPointExtension>
        </extensions>
      </trkpt>
      <trkpt lat="36.75754076801240444183349609375" lon="-118.44942667521536350250244140625">
        <ele>2475.800048828125</ele>
        <time>2021-06-24T22:14:24.000Z</time>
        <extensions>
          <ns3:TrackPointExtension>
            <ns3:atemp>30.0</ns3:atemp>
            <ns3:hr>97</ns3:hr>
          </ns3:TrackPointExtension>
        </extensions>
      </trkpt>
      <trkpt lat="36.75755132921040058135986328125" lon="-118.44940857030451297760009765625">
        <ele>2475.199951171875</ele>
        <time>2021-06-24T22:14:26.000Z</time>
        <extensions>
          <ns3:TrackPointExtension>
            <ns3:atemp>30.0</ns3:atemp>
            <ns3:hr>96</ns3:hr>
          </ns3:TrackPointExtension>
        </extensions>
      </trkpt>
      <trkpt lat="36.75756298005580902099609375" lon="-118.44938158057630062103271484375">
        <ele>2475.199951171875</ele>
        <time>2021-06-24T22:14:28.000Z</time>
        <extensions>
          <ns3:TrackPointExtension>
            <ns3:atemp>30.0</ns3:atemp>
            <ns3:hr>95</ns3:hr>
          </ns3:TrackPointExtension>
        </extensions>
      </trkpt>
      <trkpt lat="36.75755971111357212066650390625" lon="-118.4493394196033477783203125">
        <ele>2475.199951171875</ele>
        <time>2021-06-24T22:14:32.000Z</time>
        <extensions>
          <ns3:TrackPointExtension>
            <ns3:atemp>30.0</ns3:atemp>
            <ns3:hr>98</ns3:hr>
          </ns3:TrackPointExtension>
        </extensions>
      </trkpt>
      <trkpt lat="36.757557950913906097412109375" lon="-118.44933028332889080047607421875">
        <ele>2475.39990234375</ele>
        <time>2021-06-24T22:14:33.000Z</time>
        <extensions>
          <ns3:TrackPointExtension>
            <ns3:atemp>30.0</ns3:atemp>
            <ns3:hr>99</ns3:hr>
          </ns3:TrackPointExtension>
        </extensions>
      </trkpt>
      <trkpt lat="36.75756239332258701324462890625" lon="-118.4493167884647846221923828125">
        <ele>2475.800048828125</ele>
        <time>2021-06-24T22:14:35.000Z</time>
        <extensions>
          <ns3:TrackPointExtension>
            <ns3:atemp>29.0</ns3:atemp>
            <ns3:hr>97</ns3:hr>
          </ns3:TrackPointExtension>
        </extensions>
      </trkpt>
      <trkpt lat="36.75758033059537410736083984375" lon="-118.44930589199066162109375">
        <ele>2476</ele>
        <time>2021-06-24T22:14:38.000Z</time>
        <extensions>
          <ns3:TrackPointExtension>
            <ns3:atemp>30.0</ns3:atemp>
            <ns3:hr>99</ns3:hr>
          </ns3:TrackPointExtension>
        </extensions>
      </trkpt>
      <trkpt lat="36.75759055651724338531494140625" lon="-118.44926901161670684814453125">
        <ele>2476</ele>
        <time>2021-06-24T22:14:42.000Z</time>
        <extensions>
          <ns3:TrackPointExtension>
            <ns3:atemp>30.0</ns3:atemp>
            <ns3:hr>101</ns3:hr>
          </ns3:TrackPointExtension>
        </extensions>
      </trkpt>
      <trkpt lat="36.7575906403362751007080078125" lon="-118.4492664970457553863525390625">
        <ele>2476</ele>
        <time>2021-06-24T22:14:43.000Z</time>
        <extensions>
          <ns3:TrackPointExtension>
            <ns3:atemp>30.0</ns3:atemp>
            <ns3:hr>101</ns3:hr>
          </ns3:TrackPointExtension>
        </extensions>
      </trkpt>
      <trkpt lat="36.7576171271502971649169921875" lon="-118.44924495555460453033447265625">
        <ele>2476.199951171875</ele>
        <time>2021-06-24T22:14:46.000Z</time>
        <extensions>
          <ns3:TrackPointExtension>
            <ns3:atemp>30.0</ns3:atemp>
            <ns3:hr>102</ns3:hr>
          </ns3:TrackPointExtension>
        </extensions>
      </trkpt>
      <trkpt lat="36.75762332975864410400390625" lon="-118.44924529083073139190673828125">
        <ele>2476.199951171875</ele>
        <time>2021-06-24T22:14:47.000Z</time>
        <extensions>
          <ns3:TrackPointExtension>
            <ns3:atemp>30.0</ns3:atemp>
            <ns3:hr>103</ns3:hr>
          </ns3:TrackPointExtension>
        </extensions>
      </trkpt>
      <trkpt lat="36.7576328851282596588134765625" lon="-118.44923825003206729888916015625">
        <ele>2476.199951171875</ele>
        <time>2021-06-24T22:14:48.000Z</time>
        <extensions>
          <ns3:TrackPointExtension>
            <ns3:atemp>30.0</ns3:atemp>
            <ns3:hr>104</ns3:hr>
          </ns3:TrackPointExtension>
        </extensions>
      </trkpt>
      <trkpt lat="36.75764068029820919036865234375" lon="-118.449233137071132659912109375">
        <ele>2475.800048828125</ele>
        <time>2021-06-24T22:14:49.000Z</time>
        <extensions>
          <ns3:TrackPointExtension>
            <ns3:atemp>30.0</ns3:atemp>
            <ns3:hr>104</ns3:hr>
          </ns3:TrackPointExtension>
        </extensions>
      </trkpt>
      <trkpt lat="36.7576476372778415679931640625" lon="-118.44922685064375400543212890625">
        <ele>2476</ele>
        <time>2021-06-24T22:14:50.000Z</time>
        <extensions>
          <ns3:TrackPointExtension>
            <ns3:atemp>30.0</ns3:atemp>
            <ns3:hr>105</ns3:hr>
          </ns3:TrackPointExtension>
        </extensions>
      </trkpt>
      <trkpt lat="36.75766582600772380828857421875" lon="-118.449192233383655548095703125">
        <ele>2476</ele>
        <time>2021-06-24T22:14:53.000Z</time>
        <extensions>
          <ns3:TrackPointExtension>
            <ns3:atemp>30.0</ns3:atemp>
            <ns3:hr>107</ns3:hr>
          </ns3:TrackPointExtension>
        </extensions>
      </trkpt>
      <trkpt lat="36.757673956453800201416015625" lon="-118.44917689450085163116455078125">
        <ele>2475.800048828125</ele>
        <time>2021-06-24T22:14:55.000Z</time>
        <extensions>
          <ns3:TrackPointExtension>
            <ns3:atemp>30.0</ns3:atemp>
            <ns3:hr>108</ns3:hr>
          </ns3:TrackPointExtension>
        </extensions>
      </trkpt>
      <trkpt lat="36.757680661976337432861328125" lon="-118.449171446263790130615234375">
        <ele>2475.800048828125</ele>
        <time>2021-06-24T22:14:56.000Z</time>
        <extensions>
          <ns3:TrackPointExtension>
            <ns3:atemp>30.0</ns3:atemp>
            <ns3:hr>108</ns3:hr>
          </ns3:TrackPointExtension>
        </extensions>
      </trkpt>
      <trkpt lat="36.75768912769854068756103515625" lon="-118.44916532747447490692138671875">
        <ele>2475.800048828125</ele>
        <time>2021-06-24T22:14:57.000Z</time>
        <extensions>
          <ns3:TrackPointExtension>
            <ns3:atemp>30.0</ns3:atemp>
            <ns3:hr>108</ns3:hr>
          </ns3:TrackPointExtension>
        </extensions>
      </trkpt>
      <trkpt lat="36.7577200569212436676025390625" lon="-118.44910405576229095458984375">
        <ele>2475.800048828125</ele>
        <time>2021-06-24T22:15:01.000Z</time>
        <extensions>
          <ns3:TrackPointExtension>
            <ns3:atemp>30.0</ns3:atemp>
            <ns3:hr>109</ns3:hr>
          </ns3:TrackPointExtension>
        </extensions>
      </trkpt>
      <trkpt lat="36.7577317915856838226318359375" lon="-118.4490899741649627685546875">
        <ele>2476</ele>
        <time>2021-06-24T22:15:05.000Z</time>
        <extensions>
          <ns3:TrackPointExtension>
            <ns3:atemp>30.0</ns3:atemp>
            <ns3:hr>109</ns3:hr>
          </ns3:TrackPointExtension>
        </extensions>
      </trkpt>
      <trkpt lat="36.75775081850588321685791015625" lon="-118.449080921709537506103515625">
        <ele>2476.199951171875</ele>
        <time>2021-06-24T22:15:08.000Z</time>
        <extensions>
          <ns3:TrackPointExtension>
            <ns3:atemp>30.0</ns3:atemp>
            <ns3:hr>110</ns3:hr>
          </ns3:TrackPointExtension>
        </extensions>
      </trkpt>
      <trkpt lat="36.75777663476765155792236328125" lon="-118.44906038604676723480224609375">
        <ele>2476</ele>
        <time>2021-06-24T22:15:11.000Z</time>
        <extensions>
          <ns3:TrackPointExtension>
            <ns3:atemp>30.0</ns3:atemp>
            <ns3:hr>110</ns3:hr>
          </ns3:TrackPointExtension>
        </extensions>
      </trkpt>
      <trkpt lat="36.75777965225279331207275390625" lon="-118.44905016012489795684814453125">
        <ele>2476</ele>
        <time>2021-06-24T22:15:13.000Z</time>
        <extensions>
          <ns3:TrackPointExtension>
            <ns3:atemp>30.0</ns3:atemp>
            <ns3:hr>111</ns3:hr>
          </ns3:TrackPointExtension>
        </extensions>
      </trkpt>
      <trkpt lat="36.75779205746948719024658203125" lon="-118.4490408562123775482177734375">
        <ele>2475.800048828125</ele>
        <time>2021-06-24T22:15:16.000Z</time>
        <extensions>
          <ns3:TrackPointExtension>
            <ns3:atemp>30.0</ns3:atemp>
            <ns3:hr>110</ns3:hr>
          </ns3:TrackPointExtension>
        </extensions>
      </trkpt>
      <trkpt lat="36.75781116820871829986572265625" lon="-118.4490244276821613311767578125">
        <ele>2475.60009765625</ele>
        <time>2021-06-24T22:15:19.000Z</time>
        <extensions>
          <ns3:TrackPointExtension>
            <ns3:atemp>30.0</ns3:atemp>
            <ns3:hr>111</ns3:hr>
          </ns3:TrackPointExtension>
        </extensions>
      </trkpt>
      <trkpt lat="36.7578350566327571868896484375" lon="-118.449001796543598175048828125">
        <ele>2475.199951171875</ele>
        <time>2021-06-24T22:15:22.000Z</time>
        <extensions>
          <ns3:TrackPointExtension>
            <ns3:atemp>30.0</ns3:atemp>
            <ns3:hr>110</ns3:hr>
          </ns3:TrackPointExtension>
        </extensions>
      </trkpt>
      <trkpt lat="36.75784402526915073394775390625" lon="-118.44899433664977550506591796875">
        <ele>2474.39990234375</ele>
        <time>2021-06-24T22:15:24.000Z</time>
        <extensions>
          <ns3:TrackPointExtension>
            <ns3:atemp>30.0</ns3:atemp>
            <ns3:hr>111</ns3:hr>
          </ns3:TrackPointExtension>
        </extensions>
      </trkpt>
      <trkpt lat="36.7578508146107196807861328125" lon="-118.44898595474660396575927734375">
        <ele>2474.39990234375</ele>
        <time>2021-06-24T22:15:26.000Z</time>
        <extensions>
          <ns3:TrackPointExtension>
            <ns3:atemp>30.0</ns3:atemp>
            <ns3:hr>111</ns3:hr>
          </ns3:TrackPointExtension>
        </extensions>
      </trkpt>
      <trkpt lat="36.75785710103809833526611328125" lon="-118.44897874630987644195556640625">
        <ele>2474</ele>
        <time>2021-06-24T22:15:28.000Z</time>
        <extensions>
          <ns3:TrackPointExtension>
            <ns3:atemp>30.0</ns3:atemp>
            <ns3:hr>110</ns3:hr>
          </ns3:TrackPointExtension>
        </extensions>
      </trkpt>
      <trkpt lat="36.7578840069472789764404296875" lon="-118.4489637427031993865966796875">
        <ele>2474</ele>
        <time>2021-06-24T22:15:34.000Z</time>
        <extensions>
          <ns3:TrackPointExtension>
            <ns3:atemp>30.0</ns3:atemp>
            <ns3:hr>107</ns3:hr>
          </ns3:TrackPointExtension>
        </extensions>
      </trkpt>
      <trkpt lat="36.757901944220066070556640625" lon="-118.44894052483141422271728515625">
        <ele>2474.60009765625</ele>
        <time>2021-06-24T22:15:38.000Z</time>
        <extensions>
          <ns3:TrackPointExtension>
            <ns3:atemp>30.0</ns3:atemp>
            <ns3:hr>106</ns3:hr>
          </ns3:TrackPointExtension>
        </extensions>
      </trkpt>
      <trkpt lat="36.75794142298400402069091796875" lon="-118.44892895780503749847412109375">
        <ele>2475</ele>
        <time>2021-06-24T22:15:42.000Z</time>
        <extensions>
          <ns3:TrackPointExtension>
            <ns3:atemp>30.0</ns3:atemp>
            <ns3:hr>103</ns3:hr>
          </ns3:TrackPointExtension>
        </extensions>
      </trkpt>
      <trkpt lat="36.75794980488717555999755859375" lon="-118.44892795197665691375732421875">
        <ele>2475.39990234375</ele>
        <time>2021-06-24T22:15:43.000Z</time>
        <extensions>
          <ns3:TrackPointExtension>
            <ns3:atemp>30.0</ns3:atemp>
            <ns3:hr>102</ns3:hr>
          </ns3:TrackPointExtension>
        </extensions>
      </trkpt>
      <trkpt lat="36.75795852206647396087646484375" lon="-118.448920659720897674560546875">
        <ele>2475.60009765625</ele>
        <time>2021-06-24T22:15:45.000Z</time>
        <extensions>
          <ns3:TrackPointExtension>
            <ns3:atemp>30.0</ns3:atemp>
            <ns3:hr>101</ns3:hr>
          </ns3:TrackPointExtension>
        </extensions>
      </trkpt>
      <trkpt lat="36.7579748667776584625244140625" lon="-118.44890280626714229583740234375">
        <ele>2475.60009765625</ele>
        <time>2021-06-24T22:15:50.000Z</time>
        <extensions>
          <ns3:TrackPointExtension>
            <ns3:atemp>30.0</ns3:atemp>
            <ns3:hr>100</ns3:hr>
          </ns3:TrackPointExtension>
        </extensions>
      </trkpt>
      <trkpt lat="36.7579688318073749542236328125" lon="-118.4488826058804988861083984375">
        <ele>2475</ele>
        <time>2021-06-24T22:15:56.000Z</time>
        <extensions>
          <ns3:TrackPointExtension>
            <ns3:atemp>30.0</ns3:atemp>
            <ns3:hr>102</ns3:hr>
          </ns3:TrackPointExtension>
        </extensions>
      </trkpt>
      <trkpt lat="36.75797126255929470062255859375" lon="-118.4488956816494464874267578125">
        <ele>2474.800048828125</ele>
        <time>2021-06-24T22:15:58.000Z</time>
        <extensions>
          <ns3:TrackPointExtension>
            <ns3:atemp>30.0</ns3:atemp>
            <ns3:hr>103</ns3:hr>
          </ns3:TrackPointExtension>
        </extensions>
      </trkpt>
      <trkpt lat="36.7579805664718151092529296875" lon="-118.44888704828917980194091796875">
        <ele>2474.39990234375</ele>
        <time>2021-06-24T22:16:03.000Z</time>
        <extensions>
          <ns3:TrackPointExtension>
            <ns3:atemp>30.0</ns3:atemp>
            <ns3:hr>100</ns3:hr>
          </ns3:TrackPointExtension>
        </extensions>
      </trkpt>
      <trkpt lat="36.757992468774318695068359375" lon="-118.44888210296630859375">
        <ele>2474.60009765625</ele>
        <time>2021-06-24T22:16:05.000Z</time>
        <extensions>
          <ns3:TrackPointExtension>
            <ns3:atemp>30.0</ns3:atemp>
            <ns3:hr>99</ns3:hr>
          </ns3:TrackPointExtension>
        </extensions>
      </trkpt>
      <trkpt lat="36.7579886130988597869873046875" lon="-118.44886399805545806884765625">
        <ele>2474.39990234375</ele>
        <time>2021-06-24T22:16:08.000Z</time>
        <extensions>
          <ns3:TrackPointExtension>
            <ns3:atemp>30.0</ns3:atemp>
            <ns3:hr>95</ns3:hr>
          </ns3:TrackPointExtension>
        </extensions>
      </trkpt>
      <trkpt lat="36.75798366777598857879638671875" lon="-118.4488470666110515594482421875">
        <ele>2474.199951171875</ele>
        <time>2021-06-24T22:16:10.000Z</time>
        <extensions>
          <ns3:TrackPointExtension>
            <ns3:atemp>30.0</ns3:atemp>
            <ns3:hr>94</ns3:hr>
          </ns3:TrackPointExtension>
        </extensions>
      </trkpt>
      <trkpt lat="36.7579812370240688323974609375" lon="-118.448836170136928558349609375">
        <ele>2474.199951171875</ele>
        <time>2021-06-24T22:16:11.000Z</time>
        <extensions>
          <ns3:TrackPointExtension>
            <ns3:atemp>30.0</ns3:atemp>
            <ns3:hr>93</ns3:hr>
          </ns3:TrackPointExtension>
        </extensions>
      </trkpt>
      <trkpt lat="36.75797738134860992431640625" lon="-118.44882166944444179534912109375">
        <ele>2474.199951171875</ele>
        <time>2021-06-24T22:16:13.000Z</time>
        <extensions>
          <ns3:TrackPointExtension>
            <ns3:atemp>30.0</ns3:atemp>
            <ns3:hr>90</ns3:hr>
          </ns3:TrackPointExtension>
        </extensions>
      </trkpt>
      <trkpt lat="36.7579646408557891845703125" lon="-118.44882736913859844207763671875">
        <ele>2474.39990234375</ele>
        <time>2021-06-24T22:16:16.000Z</time>
        <extensions>
          <ns3:TrackPointExtension>
            <ns3:atemp>30.0</ns3:atemp>
            <ns3:hr>87</ns3:hr>
          </ns3:TrackPointExtension>
        </extensions>
      </trkpt>
      <trkpt lat="36.7579480446875095367431640625" lon="-118.44883181154727935791015625">
        <ele>2474.39990234375</ele>
        <time>2021-06-24T22:16:18.000Z</time>
        <extensions>
          <ns3:TrackPointExtension>
            <ns3:atemp>30.0</ns3:atemp>
            <ns3:hr>88</ns3:hr>
          </ns3:TrackPointExtension>
        </extensions>
      </trkpt>
      <trkpt lat="36.757949553430080413818359375" lon="-118.44882099889218807220458984375">
        <ele>2474.60009765625</ele>
        <time>2021-06-24T22:16:22.000Z</time>
        <extensions>
          <ns3:TrackPointExtension>
            <ns3:atemp>30.0</ns3:atemp>
            <ns3:hr>91</ns3:hr>
          </ns3:TrackPointExtension>
        </extensions>
      </trkpt>
      <trkpt lat="36.75794762559235095977783203125" lon="-118.4488202445209026336669921875">
        <ele>2474.800048828125</ele>
        <time>2021-06-24T22:16:25.000Z</time>
        <extensions>
          <ns3:TrackPointExtension>
            <ns3:atemp>30.0</ns3:atemp>
            <ns3:hr>91</ns3:hr>
          </ns3:TrackPointExtension>
        </extensions>
      </trkpt>
      <trkpt lat="36.75794594921171665191650390625" lon="-118.44881848432123661041259765625">
        <ele>2474.60009765625</ele>
        <time>2021-06-24T22:16:34.000Z</time>
        <extensions>
          <ns3:TrackPointExtension>
            <ns3:atemp>30.0</ns3:atemp>
            <ns3:hr>94</ns3:hr>
          </ns3:TrackPointExtension>
        </extensions>
      </trkpt>
      <trkpt lat="36.75794594921171665191650390625" lon="-118.4488168917596340179443359375">
        <ele>2474.60009765625</ele>
        <time>2021-06-24T22:16:42.000Z</time>
        <extensions>
          <ns3:TrackPointExtension>
            <ns3:atemp>30.0</ns3:atemp>
            <ns3:hr>97</ns3:hr>
          </ns3:TrackPointExtension>
        </extensions>
      </trkpt>
      <trkpt lat="36.75794376991689205169677734375" lon="-118.44881110824644565582275390625">
        <ele>2474.60009765625</ele>
        <time>2021-06-24T22:16:47.000Z</time>
        <extensions>
          <ns3:TrackPointExtension>
            <ns3:atemp>30.0</ns3:atemp>
            <ns3:hr>98</ns3:hr>
          </ns3:TrackPointExtension>
        </extensions>
      </trkpt>
      <trkpt lat="36.75794360227882862091064453125" lon="-118.44880423508584499359130859375">
        <ele>2474.60009765625</ele>
        <time>2021-06-24T22:16:57.000Z</time>
        <extensions>
          <ns3:TrackPointExtension>
            <ns3:atemp>30.0</ns3:atemp>
            <ns3:hr>95</ns3:hr>
          </ns3:TrackPointExtension>
        </extensions>
      </trkpt>
      <trkpt lat="36.75794544629752635955810546875" lon="-118.448798954486846923828125">
        <ele>2474.60009765625</ele>
        <time>2021-06-24T22:17:01.000Z</time>
        <extensions>
          <ns3:TrackPointExtension>
            <ns3:atemp>30.0</ns3:atemp>
            <ns3:hr>92</ns3:hr>
          </ns3:TrackPointExtension>
        </extensions>
      </trkpt>
      <trkpt lat="36.75795148126780986785888671875" lon="-118.448785878717899322509765625">
        <ele>2474.60009765625</ele>
        <time>2021-06-24T22:17:03.000Z</time>
        <extensions>
          <ns3:TrackPointExtension>
            <ns3:atemp>30.0</ns3:atemp>
            <ns3:hr>88</ns3:hr>
          </ns3:TrackPointExtension>
        </extensions>
      </trkpt>
      <trkpt lat="36.75795801915228366851806640625" lon="-118.44877523370087146759033203125">
        <ele>2474.60009765625</ele>
        <time>2021-06-24T22:17:05.000Z</time>
        <extensions>
          <ns3:TrackPointExtension>
            <ns3:atemp>30.0</ns3:atemp>
            <ns3:hr>85</ns3:hr>
          </ns3:TrackPointExtension>
        </extensions>
      </trkpt>
      <trkpt lat="36.75798065029084682464599609375" lon="-118.44875461421906948089599609375">
        <ele>2474.60009765625</ele>
        <time>2021-06-24T22:17:08.000Z</time>
        <extensions>
          <ns3:TrackPointExtension>
            <ns3:atemp>30.0</ns3:atemp>
            <ns3:hr>82</ns3:hr>
          </ns3:TrackPointExtension>
        </extensions>
      </trkpt>
      <trkpt lat="36.75799079239368438720703125" lon="-118.44875377602875232696533203125">
        <ele>2474.60009765625</ele>
        <time>2021-06-24T22:17:22.000Z</time>
        <extensions>
          <ns3:TrackPointExtension>
            <ns3:atemp>30.0</ns3:atemp>
            <ns3:hr>79</ns3:hr>
          </ns3:TrackPointExtension>
        </extensions>
      </trkpt>
      <trkpt lat="36.75799255259335041046142578125" lon="-118.44876282848417758941650390625">
        <ele>2474.60009765625</ele>
        <time>2021-06-24T22:17:27.000Z</time>
        <extensions>
          <ns3:TrackPointExtension>
            <ns3:atemp>30.0</ns3:atemp>
            <ns3:hr>84</ns3:hr>
          </ns3:TrackPointExtension>
        </extensions>
      </trkpt>
      <trkpt lat="36.75799255259335041046142578125" lon="-118.4487662650644779205322265625">
        <ele>2474.60009765625</ele>
        <time>2021-06-24T22:17:28.000Z</time>
        <extensions>
          <ns3:TrackPointExtension>
            <ns3:atemp>30.0</ns3:atemp>
            <ns3:hr>84</ns3:hr>
          </ns3:TrackPointExtension>
        </extensions>
      </trkpt>
      <trkpt lat="36.75799255259335041046142578125" lon="-118.448775149881839752197265625">
        <ele>2474.60009765625</ele>
        <time>2021-06-24T22:17:31.000Z</time>
        <extensions>
          <ns3:TrackPointExtension>
            <ns3:atemp>30.0</ns3:atemp>
            <ns3:hr>81</ns3:hr>
          </ns3:TrackPointExtension>
        </extensions>
      </trkpt>
      <trkpt lat="36.75799255259335041046142578125" lon="-118.44877540133893489837646484375">
        <ele>2474.60009765625</ele>
        <time>2021-06-24T22:17:34.000Z</time>
        <extensions>
          <ns3:TrackPointExtension>
            <ns3:atemp>30.0</ns3:atemp>
            <ns3:hr>84</ns3:hr>
          </ns3:TrackPointExtension>
        </extensions>
      </trkpt>
      <trkpt lat="36.7579755373299121856689453125" lon="-118.44867599196732044219970703125">
        <ele>2474.60009765625</ele>
        <time>2021-06-24T22:17:40.000Z</time>
        <extensions>
          <ns3:TrackPointExtension>
            <ns3:atemp>30.0</ns3:atemp>
            <ns3:hr>83</ns3:hr>
          </ns3:TrackPointExtension>
        </extensions>
      </trkpt>
      <trkpt lat="36.75798006355762481689453125" lon="-118.44862385652959346771240234375">
        <ele>2474.60009765625</ele>
        <time>2021-06-24T22:17:43.000Z</time>
        <extensions>
          <ns3:TrackPointExtension>
            <ns3:atemp>30.0</ns3:atemp>
            <ns3:hr>84</ns3:hr>
          </ns3:TrackPointExtension>
        </extensions>
      </trkpt>
      <trkpt lat="36.7579658143222332000732421875" lon="-118.4485818631947040557861328125">
        <ele>2474.199951171875</ele>
        <time>2021-06-24T22:17:46.000Z</time>
        <extensions>
          <ns3:TrackPointExtension>
            <ns3:atemp>30.0</ns3:atemp>
            <ns3:hr>85</ns3:hr>
          </ns3:TrackPointExtension>
        </extensions>
      </trkpt>
      <trkpt lat="36.75794863142073154449462890625" lon="-118.448556549847126007080078125">
        <ele>2474</ele>
        <time>2021-06-24T22:17:49.000Z</time>
        <extensions>
          <ns3:TrackPointExtension>
            <ns3:atemp>30.0</ns3:atemp>
            <ns3:hr>88</ns3:hr>
          </ns3:TrackPointExtension>
        </extensions>
      </trkpt>
      <trkpt lat="36.7579329572618007659912109375" lon="-118.44853014685213565826416015625">
        <ele>2473.800048828125</ele>
        <time>2021-06-24T22:17:52.000Z</time>
        <extensions>
          <ns3:TrackPointExtension>
            <ns3:atemp>30.0</ns3:atemp>
            <ns3:hr>91</ns3:hr>
          </ns3:TrackPointExtension>
        </extensions>
      </trkpt>
      <trkpt lat="36.757932789623737335205078125" lon="-118.4485003910958766937255859375">
        <ele>2473.800048828125</ele>
        <time>2021-06-24T22:17:54.000Z</time>
        <extensions>
          <ns3:TrackPointExtension>
            <ns3:atemp>30.0</ns3:atemp>
            <ns3:hr>90</ns3:hr>
          </ns3:TrackPointExtension>
        </extensions>
      </trkpt>
      <trkpt lat="36.75795114599168300628662109375" lon="-118.4484175778925418853759765625">
        <ele>2474.199951171875</ele>
        <time>2021-06-24T22:18:02.000Z</time>
        <extensions>
          <ns3:TrackPointExtension>
            <ns3:atemp>30.0</ns3:atemp>
            <ns3:hr>90</ns3:hr>
          </ns3:TrackPointExtension>
        </extensions>
      </trkpt>
      <trkpt lat="36.757952906191349029541015625" lon="-118.44840626232326030731201171875">
        <ele>2474.199951171875</ele>
        <time>2021-06-24T22:18:03.000Z</time>
        <extensions>
          <ns3:TrackPointExtension>
            <ns3:atemp>30.0</ns3:atemp>
            <ns3:hr>93</ns3:hr>
          </ns3:TrackPointExtension>
        </extensions>
      </trkpt>
      <trkpt lat="36.757954917848110198974609375" lon="-118.44838949851691722869873046875">
        <ele>2474.60009765625</ele>
        <time>2021-06-24T22:18:05.000Z</time>
        <extensions>
          <ns3:TrackPointExtension>
            <ns3:atemp>30.0</ns3:atemp>
            <ns3:hr>92</ns3:hr>
          </ns3:TrackPointExtension>
        </extensions>
      </trkpt>
      <trkpt lat="36.7579520680010318756103515625" lon="-118.44838715158402919769287109375">
        <ele>2474.800048828125</ele>
        <time>2021-06-24T22:18:06.000Z</time>
        <extensions>
          <ns3:TrackPointExtension>
            <ns3:atemp>30.0</ns3:atemp>
            <ns3:hr>89</ns3:hr>
          </ns3:TrackPointExtension>
        </extensions>
      </trkpt>
      <trkpt lat="36.75794787704944610595703125" lon="-118.4483847208321094512939453125">
        <ele>2474.800048828125</ele>
        <time>2021-06-24T22:18:07.000Z</time>
        <extensions>
          <ns3:TrackPointExtension>
            <ns3:atemp>30.0</ns3:atemp>
            <ns3:hr>89</ns3:hr>
          </ns3:TrackPointExtension>
        </extensions>
      </trkpt>
      <trkpt lat="36.7579282633960247039794921875" lon="-118.448375165462493896484375">
        <ele>2475</ele>
        <time>2021-06-24T22:18:09.000Z</time>
        <extensions>
          <ns3:TrackPointExtension>
            <ns3:atemp>30.0</ns3:atemp>
            <ns3:hr>88</ns3:hr>
          </ns3:TrackPointExtension>
        </extensions>
      </trkpt>
      <trkpt lat="36.7579111643135547637939453125" lon="-118.4483619220554828643798828125">
        <ele>2475.39990234375</ele>
        <time>2021-06-24T22:18:11.000Z</time>
        <extensions>
          <ns3:TrackPointExtension>
            <ns3:atemp>30.0</ns3:atemp>
            <ns3:hr>88</ns3:hr>
          </ns3:TrackPointExtension>
        </extensions>
      </trkpt>
      <trkpt lat="36.757895238697528839111328125" lon="-118.448337614536285400390625">
        <ele>2475.39990234375</ele>
        <time>2021-06-24T22:18:13.000Z</time>
        <extensions>
          <ns3:TrackPointExtension>
            <ns3:atemp>30.0</ns3:atemp>
            <ns3:hr>86</ns3:hr>
          </ns3:TrackPointExtension>
        </extensions>
      </trkpt>
      <trkpt lat="36.7578796483576297760009765625" lon="-118.44831070862710475921630859375">
        <ele>2475.39990234375</ele>
        <time>2021-06-24T22:18:15.000Z</time>
        <extensions>
          <ns3:TrackPointExtension>
            <ns3:atemp>30.0</ns3:atemp>
            <ns3:hr>84</ns3:hr>
          </ns3:TrackPointExtension>
        </extensions>
      </trkpt>
      <trkpt lat="36.7578555084764957427978515625" lon="-118.44828355126082897186279296875">
        <ele>2475</ele>
        <time>2021-06-24T22:18:17.000Z</time>
        <extensions>
          <ns3:TrackPointExtension>
            <ns3:atemp>30.0</ns3:atemp>
            <ns3:hr>89</ns3:hr>
          </ns3:TrackPointExtension>
        </extensions>
      </trkpt>
      <trkpt lat="36.757814101874828338623046875" lon="-118.44823979772627353668212890625">
        <ele>2475</ele>
        <time>2021-06-24T22:18:20.000Z</time>
        <extensions>
          <ns3:TrackPointExtension>
            <ns3:atemp>30.0</ns3:atemp>
            <ns3:hr>89</ns3:hr>
          </ns3:TrackPointExtension>
        </extensions>
      </trkpt>
      <trkpt lat="36.75780513323843479156494140625" lon="-118.44822789542376995086669921875">
        <ele>2475</ele>
        <time>2021-06-24T22:18:21.000Z</time>
        <extensions>
          <ns3:TrackPointExtension>
            <ns3:atemp>30.0</ns3:atemp>
            <ns3:hr>91</ns3:hr>
          </ns3:TrackPointExtension>
        </extensions>
      </trkpt>
      <trkpt lat="36.75779390148818492889404296875" lon="-118.4482190944254398345947265625">
        <ele>2475.199951171875</ele>
        <time>2021-06-24T22:18:22.000Z</time>
        <extensions>
          <ns3:TrackPointExtension>
            <ns3:atemp>30.0</ns3:atemp>
            <ns3:hr>92</ns3:hr>
          </ns3:TrackPointExtension>
        </extensions>
      </trkpt>
      <trkpt lat="36.757750399410724639892578125" lon="-118.44819285906851291656494140625">
        <ele>2475</ele>
        <time>2021-06-24T22:18:27.000Z</time>
        <extensions>
          <ns3:TrackPointExtension>
            <ns3:atemp>30.0</ns3:atemp>
            <ns3:hr>91</ns3:hr>
          </ns3:TrackPointExtension>
        </extensions>
      </trkpt>
      <trkpt lat="36.75774796865880489349365234375" lon="-118.44818565063178539276123046875">
        <ele>2475</ele>
        <time>2021-06-24T22:18:28.000Z</time>
        <extensions>
          <ns3:TrackPointExtension>
            <ns3:atemp>30.0</ns3:atemp>
            <ns3:hr>93</ns3:hr>
          </ns3:TrackPointExtension>
        </extensions>
      </trkpt>
      <trkpt lat="36.75771242938935756683349609375" lon="-118.448145501315593719482421875">
        <ele>2474.39990234375</ele>
        <time>2021-06-24T22:18:33.000Z</time>
        <extensions>
          <ns3:TrackPointExtension>
            <ns3:atemp>30.0</ns3:atemp>
            <ns3:hr>94</ns3:hr>
          </ns3:TrackPointExtension>
        </extensions>
      </trkpt>
      <trkpt lat="36.75770823843777179718017578125" lon="-118.448134772479534149169921875">
        <ele>2474.199951171875</ele>
        <time>2021-06-24T22:18:34.000Z</time>
        <extensions>
          <ns3:TrackPointExtension>
            <ns3:atemp>30.0</ns3:atemp>
            <ns3:hr>94</ns3:hr>
          </ns3:TrackPointExtension>
        </extensions>
      </trkpt>
      <trkpt lat="36.757670603692531585693359375" lon="-118.448102585971355438232421875">
        <ele>2474</ele>
        <time>2021-06-24T22:18:40.000Z</time>
        <extensions>
          <ns3:TrackPointExtension>
            <ns3:atemp>30.0</ns3:atemp>
            <ns3:hr>93</ns3:hr>
          </ns3:TrackPointExtension>
        </extensions>
      </trkpt>
      <trkpt lat="36.75762928090989589691162109375" lon="-118.44802848994731903076171875">
        <ele>2474.39990234375</ele>
        <time>2021-06-24T22:18:46.000Z</time>
        <extensions>
          <ns3:TrackPointExtension>
            <ns3:atemp>30.0</ns3:atemp>
            <ns3:hr>92</ns3:hr>
          </ns3:TrackPointExtension>
        </extensions>
      </trkpt>
      <trkpt lat="36.75761930644512176513671875" lon="-118.4480199404060840606689453125">
        <ele>2474.39990234375</ele>
        <time>2021-06-24T22:18:47.000Z</time>
        <extensions>
          <ns3:TrackPointExtension>
            <ns3:atemp>30.0</ns3:atemp>
            <ns3:hr>91</ns3:hr>
          </ns3:TrackPointExtension>
        </extensions>
      </trkpt>
      <trkpt lat="36.7575983516871929168701171875" lon="-118.4479706548154354095458984375">
        <ele>2474.800048828125</ele>
        <time>2021-06-24T22:18:52.000Z</time>
        <extensions>
          <ns3:TrackPointExtension>
            <ns3:atemp>30.0</ns3:atemp>
            <ns3:hr>89</ns3:hr>
          </ns3:TrackPointExtension>
        </extensions>
      </trkpt>
      <trkpt lat="36.7575757205486297607421875" lon="-118.44795749522745609283447265625">
        <ele>2474.800048828125</ele>
        <time>2021-06-24T22:18:55.000Z</time>
        <extensions>
          <ns3:TrackPointExtension>
            <ns3:atemp>30.0</ns3:atemp>
            <ns3:hr>86</ns3:hr>
          </ns3:TrackPointExtension>
        </extensions>
      </trkpt>
      <trkpt lat="36.75753741525113582611083984375" lon="-118.44794274307787418365478515625">
        <ele>2474.60009765625</ele>
        <time>2021-06-24T22:18:58.000Z</time>
        <extensions>
          <ns3:TrackPointExtension>
            <ns3:atemp>30.0</ns3:atemp>
            <ns3:hr>83</ns3:hr>
          </ns3:TrackPointExtension>
        </extensions>
      </trkpt>
      <trkpt lat="36.75752501003444194793701171875" lon="-118.44793302007019519805908203125">
        <ele>2474.39990234375</ele>
        <time>2021-06-24T22:18:59.000Z</time>
        <extensions>
          <ns3:TrackPointExtension>
            <ns3:atemp>30.0</ns3:atemp>
            <ns3:hr>83</ns3:hr>
          </ns3:TrackPointExtension>
        </extensions>
      </trkpt>
      <trkpt lat="36.7575111798942089080810546875" lon="-118.4479257278144359588623046875">
        <ele>2474.39990234375</ele>
        <time>2021-06-24T22:19:00.000Z</time>
        <extensions>
          <ns3:TrackPointExtension>
            <ns3:atemp>30.0</ns3:atemp>
            <ns3:hr>81</ns3:hr>
          </ns3:TrackPointExtension>
        </extensions>
      </trkpt>
      <trkpt lat="36.7574960924685001373291015625" lon="-118.44791156239807605743408203125">
        <ele>2474.199951171875</ele>
        <time>2021-06-24T22:19:02.000Z</time>
        <extensions>
          <ns3:TrackPointExtension>
            <ns3:atemp>30.0</ns3:atemp>
            <ns3:hr>83</ns3:hr>
          </ns3:TrackPointExtension>
        </extensions>
      </trkpt>
      <trkpt lat="36.7574796639382839202880859375" lon="-118.44789697788655757904052734375">
        <ele>2474.199951171875</ele>
        <time>2021-06-24T22:19:04.000Z</time>
        <extensions>
          <ns3:TrackPointExtension>
            <ns3:atemp>30.0</ns3:atemp>
            <ns3:hr>84</ns3:hr>
          </ns3:TrackPointExtension>
        </extensions>
      </trkpt>
      <trkpt lat="36.75744186155498027801513671875" lon="-118.4478968940675258636474609375">
        <ele>2474</ele>
        <time>2021-06-24T22:19:08.000Z</time>
        <extensions>
          <ns3:TrackPointExtension>
            <ns3:atemp>30.0</ns3:atemp>
            <ns3:hr>86</ns3:hr>
          </ns3:TrackPointExtension>
        </extensions>
      </trkpt>
      <trkpt lat="36.75742040388286113739013671875" lon="-118.44789974391460418701171875">
        <ele>2474</ele>
        <time>2021-06-24T22:19:10.000Z</time>
        <extensions>
          <ns3:TrackPointExtension>
            <ns3:atemp>30.0</ns3:atemp>
            <ns3:hr>87</ns3:hr>
          </ns3:TrackPointExtension>
        </extensions>
      </trkpt>
      <trkpt lat="36.75739802420139312744140625" lon="-118.44789111055433750152587890625">
        <ele>2474</ele>
        <time>2021-06-24T22:19:12.000Z</time>
        <extensions>
          <ns3:TrackPointExtension>
            <ns3:atemp>30.0</ns3:atemp>
            <ns3:hr>86</ns3:hr>
          </ns3:TrackPointExtension>
        </extensions>
      </trkpt>
      <trkpt lat="36.75736893899738788604736328125" lon="-118.44786680303514003753662109375">
        <ele>2474</ele>
        <time>2021-06-24T22:19:16.000Z</time>
        <extensions>
          <ns3:TrackPointExtension>
            <ns3:atemp>30.0</ns3:atemp>
            <ns3:hr>87</ns3:hr>
          </ns3:TrackPointExtension>
        </extensions>
      </trkpt>
      <trkpt lat="36.75734010525047779083251953125" lon="-118.44782304950058460235595703125">
        <ele>2473.800048828125</ele>
        <time>2021-06-24T22:19:20.000Z</time>
        <extensions>
          <ns3:TrackPointExtension>
            <ns3:atemp>30.0</ns3:atemp>
            <ns3:hr>90</ns3:hr>
          </ns3:TrackPointExtension>
        </extensions>
      </trkpt>
      <trkpt lat="36.7573378421366214752197265625" lon="-118.44781215302646160125732421875">
        <ele>2474</ele>
        <time>2021-06-24T22:19:21.000Z</time>
        <extensions>
          <ns3:TrackPointExtension>
            <ns3:atemp>30.0</ns3:atemp>
            <ns3:hr>88</ns3:hr>
          </ns3:TrackPointExtension>
        </extensions>
      </trkpt>
      <trkpt lat="36.75730523653328418731689453125" lon="-118.4478077106177806854248046875">
        <ele>2474</ele>
        <time>2021-06-24T22:19:24.000Z</time>
        <extensions>
          <ns3:TrackPointExtension>
            <ns3:atemp>30.0</ns3:atemp>
            <ns3:hr>86</ns3:hr>
          </ns3:TrackPointExtension>
        </extensions>
      </trkpt>
      <trkpt lat="36.757299788296222686767578125" lon="-118.447801172733306884765625">
        <ele>2474</ele>
        <time>2021-06-24T22:19:25.000Z</time>
        <extensions>
          <ns3:TrackPointExtension>
            <ns3:atemp>30.0</ns3:atemp>
            <ns3:hr>85</ns3:hr>
          </ns3:TrackPointExtension>
        </extensions>
      </trkpt>
      <trkpt lat="36.7572808451950550079345703125" lon="-118.4477785415947437286376953125">
        <ele>2474</ele>
        <time>2021-06-24T22:19:28.000Z</time>
        <extensions>
          <ns3:TrackPointExtension>
            <ns3:atemp>30.0</ns3:atemp>
            <ns3:hr>82</ns3:hr>
          </ns3:TrackPointExtension>
        </extensions>
      </trkpt>
      <trkpt lat="36.7572925798594951629638671875" lon="-118.447753228247165679931640625">
        <ele>2474</ele>
        <time>2021-06-24T22:19:30.000Z</time>
        <extensions>
          <ns3:TrackPointExtension>
            <ns3:atemp>30.0</ns3:atemp>
            <ns3:hr>82</ns3:hr>
          </ns3:TrackPointExtension>
        </extensions>
      </trkpt>
      <trkpt lat="36.7573012970387935638427734375" lon="-118.4477319382131099700927734375">
        <ele>2473.800048828125</ele>
        <time>2021-06-24T22:19:32.000Z</time>
        <extensions>
          <ns3:TrackPointExtension>
            <ns3:atemp>30.0</ns3:atemp>
            <ns3:hr>81</ns3:hr>
          </ns3:TrackPointExtension>
        </extensions>
      </trkpt>
      <trkpt lat="36.757295094430446624755859375" lon="-118.44770268537104129791259765625">
        <ele>2473.800048828125</ele>
        <time>2021-06-24T22:19:35.000Z</time>
        <extensions>
          <ns3:TrackPointExtension>
            <ns3:atemp>30.0</ns3:atemp>
            <ns3:hr>82</ns3:hr>
          </ns3:TrackPointExtension>
        </extensions>
      </trkpt>
      <trkpt lat="36.757278330624103546142578125" lon="-118.447659350931644439697265625">
        <ele>2474.39990234375</ele>
        <time>2021-06-24T22:19:40.000Z</time>
        <extensions>
          <ns3:TrackPointExtension>
            <ns3:atemp>30.0</ns3:atemp>
            <ns3:hr>84</ns3:hr>
          </ns3:TrackPointExtension>
        </extensions>
      </trkpt>
      <trkpt lat="36.75728143192827701568603515625" lon="-118.44763982109725475311279296875">
        <ele>2474.60009765625</ele>
        <time>2021-06-24T22:19:42.000Z</time>
        <extensions>
          <ns3:TrackPointExtension>
            <ns3:atemp>30.0</ns3:atemp>
            <ns3:hr>85</ns3:hr>
          </ns3:TrackPointExtension>
        </extensions>
      </trkpt>
      <trkpt lat="36.7572657577693462371826171875" lon="-118.44759036786854267120361328125">
        <ele>2475</ele>
        <time>2021-06-24T22:19:46.000Z</time>
        <extensions>
          <ns3:TrackPointExtension>
            <ns3:atemp>30.0</ns3:atemp>
            <ns3:hr>85</ns3:hr>
          </ns3:TrackPointExtension>
        </extensions>
      </trkpt>
      <trkpt lat="36.75726567395031452178955078125" lon="-118.44754963181912899017333984375">
        <ele>2475.39990234375</ele>
        <time>2021-06-24T22:19:50.000Z</time>
        <extensions>
          <ns3:TrackPointExtension>
            <ns3:atemp>30.0</ns3:atemp>
            <ns3:hr>85</ns3:hr>
          </ns3:TrackPointExtension>
        </extensions>
      </trkpt>
      <trkpt lat="36.75725997425615787506103515625" lon="-118.44755248166620731353759765625">
        <ele>2475.39990234375</ele>
        <time>2021-06-24T22:19:51.000Z</time>
        <extensions>
          <ns3:TrackPointExtension>
            <ns3:atemp>30.0</ns3:atemp>
            <ns3:hr>85</ns3:hr>
          </ns3:TrackPointExtension>
        </extensions>
      </trkpt>
      <trkpt lat="36.75724337808787822723388671875" lon="-118.44755298458039760589599609375">
        <ele>2475.60009765625</ele>
        <time>2021-06-24T22:19:53.000Z</time>
        <extensions>
          <ns3:TrackPointExtension>
            <ns3:atemp>30.0</ns3:atemp>
            <ns3:hr>84</ns3:hr>
          </ns3:TrackPointExtension>
        </extensions>
      </trkpt>
      <trkpt lat="36.75724220462143421173095703125" lon="-118.44754929654300212860107421875">
        <ele>2475.60009765625</ele>
        <time>2021-06-24T22:19:54.000Z</time>
        <extensions>
          <ns3:TrackPointExtension>
            <ns3:atemp>30.0</ns3:atemp>
            <ns3:hr>85</ns3:hr>
          </ns3:TrackPointExtension>
        </extensions>
      </trkpt>
      <trkpt lat="36.7572426237165927886962890625" lon="-118.4475334547460079193115234375">
        <ele>2476</ele>
        <time>2021-06-24T22:19:56.000Z</time>
        <extensions>
          <ns3:TrackPointExtension>
            <ns3:atemp>30.0</ns3:atemp>
            <ns3:hr>87</ns3:hr>
          </ns3:TrackPointExtension>
        </extensions>
      </trkpt>
      <trkpt lat="36.75723935477435588836669921875" lon="-118.447501771152019500732421875">
        <ele>2476.199951171875</ele>
        <time>2021-06-24T22:19:59.000Z</time>
        <extensions>
          <ns3:TrackPointExtension>
            <ns3:atemp>30.0</ns3:atemp>
            <ns3:hr>91</ns3:hr>
          </ns3:TrackPointExtension>
        </extensions>
      </trkpt>
      <trkpt lat="36.757236421108245849609375" lon="-118.44749129377305507659912109375">
        <ele>2476.39990234375</ele>
        <time>2021-06-24T22:20:00.000Z</time>
        <extensions>
          <ns3:TrackPointExtension>
            <ns3:atemp>30.0</ns3:atemp>
            <ns3:hr>92</ns3:hr>
          </ns3:TrackPointExtension>
        </extensions>
      </trkpt>
      <trkpt lat="36.75722594372928142547607421875" lon="-118.44747201539576053619384765625">
        <ele>2476.60009765625</ele>
        <time>2021-06-24T22:20:02.000Z</time>
        <extensions>
          <ns3:TrackPointExtension>
            <ns3:atemp>30.0</ns3:atemp>
            <ns3:hr>94</ns3:hr>
          </ns3:TrackPointExtension>
        </extensions>
      </trkpt>
      <trkpt lat="36.7572176456451416015625" lon="-118.44746195711195468902587890625">
        <ele>2476.60009765625</ele>
        <time>2021-06-24T22:20:03.000Z</time>
        <extensions>
          <ns3:TrackPointExtension>
            <ns3:atemp>30.0</ns3:atemp>
            <ns3:hr>95</ns3:hr>
          </ns3:TrackPointExtension>
        </extensions>
      </trkpt>
      <trkpt lat="36.75720951519906520843505859375" lon="-118.44742256216704845428466796875">
        <ele>2476.800048828125</ele>
        <time>2021-06-24T22:20:06.000Z</time>
        <extensions>
          <ns3:TrackPointExtension>
            <ns3:atemp>30.0</ns3:atemp>
            <ns3:hr>98</ns3:hr>
          </ns3:TrackPointExtension>
        </extensions>
      </trkpt>
      <trkpt lat="36.757204234600067138671875" lon="-118.44740965403616428375244140625">
        <ele>2476.800048828125</ele>
        <time>2021-06-24T22:20:07.000Z</time>
        <extensions>
          <ns3:TrackPointExtension>
            <ns3:atemp>30.0</ns3:atemp>
            <ns3:hr>98</ns3:hr>
          </ns3:TrackPointExtension>
        </extensions>
      </trkpt>
      <trkpt lat="36.75716760568320751190185546875" lon="-118.44733782112598419189453125">
        <ele>2477.800048828125</ele>
        <time>2021-06-24T22:20:13.000Z</time>
        <extensions>
          <ns3:TrackPointExtension>
            <ns3:atemp>30.0</ns3:atemp>
            <ns3:hr>98</ns3:hr>
          </ns3:TrackPointExtension>
        </extensions>
      </trkpt>
      <trkpt lat="36.75713323988020420074462890625" lon="-118.44725660048425197601318359375">
        <ele>2478.39990234375</ele>
        <time>2021-06-24T22:20:21.000Z</time>
        <extensions>
          <ns3:TrackPointExtension>
            <ns3:atemp>30.0</ns3:atemp>
            <ns3:hr>97</ns3:hr>
          </ns3:TrackPointExtension>
        </extensions>
      </trkpt>
      <trkpt lat="36.75713424570858478546142578125" lon="-118.4472280181944370269775390625">
        <ele>2478.39990234375</ele>
        <time>2021-06-24T22:20:24.000Z</time>
        <extensions>
          <ns3:TrackPointExtension>
            <ns3:atemp>30.0</ns3:atemp>
            <ns3:hr>98</ns3:hr>
          </ns3:TrackPointExtension>
        </extensions>
      </trkpt>
      <trkpt lat="36.75713248550891876220703125" lon="-118.44721955247223377227783203125">
        <ele>2479</ele>
        <time>2021-06-24T22:20:25.000Z</time>
        <extensions>
          <ns3:TrackPointExtension>
            <ns3:atemp>30.0</ns3:atemp>
            <ns3:hr>98</ns3:hr>
          </ns3:TrackPointExtension>
        </extensions>
      </trkpt>
      <trkpt lat="36.7571309767663478851318359375" lon="-118.44720915891230106353759765625">
        <ele>2479</ele>
        <time>2021-06-24T22:20:26.000Z</time>
        <extensions>
          <ns3:TrackPointExtension>
            <ns3:atemp>30.0</ns3:atemp>
            <ns3:hr>98</ns3:hr>
          </ns3:TrackPointExtension>
        </extensions>
      </trkpt>
      <trkpt lat="36.75712217576801776885986328125" lon="-118.44719004817306995391845703125">
        <ele>2479.199951171875</ele>
        <time>2021-06-24T22:20:28.000Z</time>
        <extensions>
          <ns3:TrackPointExtension>
            <ns3:atemp>30.0</ns3:atemp>
            <ns3:hr>96</ns3:hr>
          </ns3:TrackPointExtension>
        </extensions>
      </trkpt>
      <trkpt lat="36.7571142129600048065185546875" lon="-118.4471653215587139129638671875">
        <ele>2478.800048828125</ele>
        <time>2021-06-24T22:20:30.000Z</time>
        <extensions>
          <ns3:TrackPointExtension>
            <ns3:atemp>30.0</ns3:atemp>
            <ns3:hr>99</ns3:hr>
          </ns3:TrackPointExtension>
        </extensions>
      </trkpt>
      <trkpt lat="36.7571054957807064056396484375" lon="-118.44711787998676300048828125">
        <ele>2478.800048828125</ele>
        <time>2021-06-24T22:20:32.000Z</time>
        <extensions>
          <ns3:TrackPointExtension>
            <ns3:atemp>30.0</ns3:atemp>
            <ns3:hr>99</ns3:hr>
          </ns3:TrackPointExtension>
        </extensions>
      </trkpt>
      <trkpt lat="36.7570749856531620025634765625" lon="-118.44709265045821666717529296875">
        <ele>2478</ele>
        <time>2021-06-24T22:20:34.000Z</time>
        <extensions>
          <ns3:TrackPointExtension>
            <ns3:atemp>30.0</ns3:atemp>
            <ns3:hr>99</ns3:hr>
          </ns3:TrackPointExtension>
        </extensions>
      </trkpt>
      <trkpt lat="36.75703969784080982208251953125" lon="-118.447025008499622344970703125">
        <ele>2477.800048828125</ele>
        <time>2021-06-24T22:20:37.000Z</time>
        <extensions>
          <ns3:TrackPointExtension>
            <ns3:atemp>30.0</ns3:atemp>
            <ns3:hr>98</ns3:hr>
          </ns3:TrackPointExtension>
        </extensions>
      </trkpt>
      <trkpt lat="36.7570424638688564300537109375" lon="-118.4470114298164844512939453125">
        <ele>2477.800048828125</ele>
        <time>2021-06-24T22:20:38.000Z</time>
        <extensions>
          <ns3:TrackPointExtension>
            <ns3:atemp>30.0</ns3:atemp>
            <ns3:hr>97</ns3:hr>
          </ns3:TrackPointExtension>
        </extensions>
      </trkpt>
      <trkpt lat="36.75702393986284732818603515625" lon="-118.44700262881815433502197265625">
        <ele>2477.60009765625</ele>
        <time>2021-06-24T22:20:42.000Z</time>
        <extensions>
          <ns3:TrackPointExtension>
            <ns3:atemp>30.0</ns3:atemp>
            <ns3:hr>96</ns3:hr>
          </ns3:TrackPointExtension>
        </extensions>
      </trkpt>
      <trkpt lat="36.75701840780675411224365234375" lon="-118.44698837958276271820068359375">
        <ele>2477.60009765625</ele>
        <time>2021-06-24T22:20:44.000Z</time>
        <extensions>
          <ns3:TrackPointExtension>
            <ns3:atemp>30.0</ns3:atemp>
            <ns3:hr>96</ns3:hr>
          </ns3:TrackPointExtension>
        </extensions>
      </trkpt>
      <trkpt lat="36.75699544139206409454345703125" lon="-118.4469648264348506927490234375">
        <ele>2477.60009765625</ele>
        <time>2021-06-24T22:20:48.000Z</time>
        <extensions>
          <ns3:TrackPointExtension>
            <ns3:atemp>30.0</ns3:atemp>
            <ns3:hr>95</ns3:hr>
          </ns3:TrackPointExtension>
        </extensions>
      </trkpt>
      <trkpt lat="36.75698672421276569366455078125" lon="-118.44695854000747203826904296875">
        <ele>2477.60009765625</ele>
        <time>2021-06-24T22:20:49.000Z</time>
        <extensions>
          <ns3:TrackPointExtension>
            <ns3:atemp>30.0</ns3:atemp>
            <ns3:hr>95</ns3:hr>
          </ns3:TrackPointExtension>
        </extensions>
      </trkpt>
      <trkpt lat="36.7569277994334697723388671875" lon="-118.4469339810311794281005859375">
        <ele>2478</ele>
        <time>2021-06-24T22:20:55.000Z</time>
        <extensions>
          <ns3:TrackPointExtension>
            <ns3:atemp>30.0</ns3:atemp>
            <ns3:hr>95</ns3:hr>
          </ns3:TrackPointExtension>
        </extensions>
      </trkpt>
      <trkpt lat="36.75690877251327037811279296875" lon="-118.4469081647694110870361328125">
        <ele>2478.39990234375</ele>
        <time>2021-06-24T22:20:59.000Z</time>
        <extensions>
          <ns3:TrackPointExtension>
            <ns3:atemp>30.0</ns3:atemp>
            <ns3:hr>93</ns3:hr>
          </ns3:TrackPointExtension>
        </extensions>
      </trkpt>
      <trkpt lat="36.75688815303146839141845703125" lon="-118.44685636460781097412109375">
        <ele>2479.199951171875</ele>
        <time>2021-06-24T22:21:05.000Z</time>
        <extensions>
          <ns3:TrackPointExtension>
            <ns3:atemp>30.0</ns3:atemp>
            <ns3:hr>97</ns3:hr>
          </ns3:TrackPointExtension>
        </extensions>
      </trkpt>
      <trkpt lat="36.756890080869197845458984375" lon="-118.44684018753468990325927734375">
        <ele>2479.39990234375</ele>
        <time>2021-06-24T22:21:07.000Z</time>
        <extensions>
          <ns3:TrackPointExtension>
            <ns3:atemp>30.0</ns3:atemp>
            <ns3:hr>102</ns3:hr>
          </ns3:TrackPointExtension>
        </extensions>
      </trkpt>
      <trkpt lat="36.75688530318439006805419921875" lon="-118.44678184948861598968505859375">
        <ele>2479.800048828125</ele>
        <time>2021-06-24T22:21:11.000Z</time>
        <extensions>
          <ns3:TrackPointExtension>
            <ns3:atemp>30.0</ns3:atemp>
            <ns3:hr>104</ns3:hr>
          </ns3:TrackPointExtension>
        </extensions>
      </trkpt>
      <trkpt lat="36.75688111223280429840087890625" lon="-118.44676516950130462646484375">
        <ele>2479.800048828125</ele>
        <time>2021-06-24T22:21:12.000Z</time>
        <extensions>
          <ns3:TrackPointExtension>
            <ns3:atemp>30.0</ns3:atemp>
            <ns3:hr>105</ns3:hr>
          </ns3:TrackPointExtension>
        </extensions>
      </trkpt>
      <trkpt lat="36.756872646510601043701171875" lon="-118.44675351865589618682861328125">
        <ele>2479.800048828125</ele>
        <time>2021-06-24T22:21:13.000Z</time>
        <extensions>
          <ns3:TrackPointExtension>
            <ns3:atemp>30.0</ns3:atemp>
            <ns3:hr>106</ns3:hr>
          </ns3:TrackPointExtension>
        </extensions>
      </trkpt>
      <trkpt lat="36.756859906017780303955078125" lon="-118.44670674763619899749755859375">
        <ele>2480.199951171875</ele>
        <time>2021-06-24T22:21:17.000Z</time>
        <extensions>
          <ns3:TrackPointExtension>
            <ns3:atemp>30.0</ns3:atemp>
            <ns3:hr>105</ns3:hr>
          </ns3:TrackPointExtension>
        </extensions>
      </trkpt>
      <trkpt lat="36.75685009919106960296630859375" lon="-118.44669199548661708831787109375">
        <ele>2480.199951171875</ele>
        <time>2021-06-24T22:21:18.000Z</time>
        <extensions>
          <ns3:TrackPointExtension>
            <ns3:atemp>30.0</ns3:atemp>
            <ns3:hr>105</ns3:hr>
          </ns3:TrackPointExtension>
        </extensions>
      </trkpt>
      <trkpt lat="36.7568285576999187469482421875" lon="-118.446661569178104400634765625">
        <ele>2480.199951171875</ele>
        <time>2021-06-24T22:21:22.000Z</time>
        <extensions>
          <ns3:TrackPointExtension>
            <ns3:atemp>30.0</ns3:atemp>
            <ns3:hr>105</ns3:hr>
          </ns3:TrackPointExtension>
        </extensions>
      </trkpt>
      <trkpt lat="36.75682109780609607696533203125" lon="-118.4466486610472202301025390625">
        <ele>2480.39990234375</ele>
        <time>2021-06-24T22:21:24.000Z</time>
        <extensions>
          <ns3:TrackPointExtension>
            <ns3:atemp>30.0</ns3:atemp>
            <ns3:hr>106</ns3:hr>
          </ns3:TrackPointExtension>
        </extensions>
      </trkpt>
      <trkpt lat="36.7568086087703704833984375" lon="-118.44664505682885646820068359375">
        <ele>2480.39990234375</ele>
        <time>2021-06-24T22:21:26.000Z</time>
        <extensions>
          <ns3:TrackPointExtension>
            <ns3:atemp>30.0</ns3:atemp>
            <ns3:hr>107</ns3:hr>
          </ns3:TrackPointExtension>
        </extensions>
      </trkpt>
      <trkpt lat="36.756786145269870758056640625" lon="-118.44662024639546871185302734375">
        <ele>2480.39990234375</ele>
        <time>2021-06-24T22:21:29.000Z</time>
        <extensions>
          <ns3:TrackPointExtension>
            <ns3:atemp>30.0</ns3:atemp>
            <ns3:hr>106</ns3:hr>
          </ns3:TrackPointExtension>
        </extensions>
      </trkpt>
      <trkpt lat="36.7567661963403224945068359375" lon="-118.44660515896975994110107421875">
        <ele>2480.39990234375</ele>
        <time>2021-06-24T22:21:30.000Z</time>
        <extensions>
          <ns3:TrackPointExtension>
            <ns3:atemp>30.0</ns3:atemp>
            <ns3:hr>106</ns3:hr>
          </ns3:TrackPointExtension>
        </extensions>
      </trkpt>
      <trkpt lat="36.75674649886786937713623046875" lon="-118.44658705405890941619873046875">
        <ele>2480.39990234375</ele>
        <time>2021-06-24T22:21:31.000Z</time>
        <extensions>
          <ns3:TrackPointExtension>
            <ns3:atemp>30.0</ns3:atemp>
            <ns3:hr>106</ns3:hr>
          </ns3:TrackPointExtension>
        </extensions>
      </trkpt>
      <trkpt lat="36.75673359073698520660400390625" lon="-118.446549586951732635498046875">
        <ele>2480.199951171875</ele>
        <time>2021-06-24T22:21:33.000Z</time>
        <extensions>
          <ns3:TrackPointExtension>
            <ns3:atemp>30.0</ns3:atemp>
            <ns3:hr>105</ns3:hr>
          </ns3:TrackPointExtension>
        </extensions>
      </trkpt>
      <trkpt lat="36.756742559373378753662109375" lon="-118.44648311845958232879638671875">
        <ele>2480.39990234375</ele>
        <time>2021-06-24T22:21:37.000Z</time>
        <extensions>
          <ns3:TrackPointExtension>
            <ns3:atemp>30.0</ns3:atemp>
            <ns3:hr>106</ns3:hr>
          </ns3:TrackPointExtension>
        </extensions>
      </trkpt>
      <trkpt lat="36.7567273043096065521240234375" lon="-118.4464464895427227020263671875">
        <ele>2480.39990234375</ele>
        <time>2021-06-24T22:21:41.000Z</time>
        <extensions>
          <ns3:TrackPointExtension>
            <ns3:atemp>30.0</ns3:atemp>
            <ns3:hr>108</ns3:hr>
          </ns3:TrackPointExtension>
        </extensions>
      </trkpt>
      <trkpt lat="36.7566766776144504547119140625" lon="-118.44637432135641574859619140625">
        <ele>2481.39990234375</ele>
        <time>2021-06-24T22:21:48.000Z</time>
        <extensions>
          <ns3:TrackPointExtension>
            <ns3:atemp>30.0</ns3:atemp>
            <ns3:hr>109</ns3:hr>
          </ns3:TrackPointExtension>
        </extensions>
      </trkpt>
      <trkpt lat="36.75667474977672100067138671875" lon="-118.44630651175975799560546875">
        <ele>2482.39990234375</ele>
        <time>2021-06-24T22:21:54.000Z</time>
        <extensions>
          <ns3:TrackPointExtension>
            <ns3:atemp>30.0</ns3:atemp>
            <ns3:hr>107</ns3:hr>
          </ns3:TrackPointExtension>
        </extensions>
      </trkpt>
      <trkpt lat="36.75668179057538509368896484375" lon="-118.446281366050243377685546875">
        <ele>2482.60009765625</ele>
        <time>2021-06-24T22:21:56.000Z</time>
        <extensions>
          <ns3:TrackPointExtension>
            <ns3:atemp>30.0</ns3:atemp>
            <ns3:hr>106</ns3:hr>
          </ns3:TrackPointExtension>
        </extensions>
      </trkpt>
      <trkpt lat="36.756689585745334625244140625" lon="-118.44623015262186527252197265625">
        <ele>2483</ele>
        <time>2021-06-24T22:22:00.000Z</time>
        <extensions>
          <ns3:TrackPointExtension>
            <ns3:atemp>30.0</ns3:atemp>
            <ns3:hr>107</ns3:hr>
          </ns3:TrackPointExtension>
        </extensions>
      </trkpt>
      <trkpt lat="36.75665765069425106048583984375" lon="-118.44619997777044773101806640625">
        <ele>2483.800048828125</ele>
        <time>2021-06-24T22:22:06.000Z</time>
        <extensions>
          <ns3:TrackPointExtension>
            <ns3:atemp>30.0</ns3:atemp>
            <ns3:hr>108</ns3:hr>
          </ns3:TrackPointExtension>
        </extensions>
      </trkpt>
      <trkpt lat="36.75665781833231449127197265625" lon="-118.44620148651301860809326171875">
        <ele>2483.800048828125</ele>
        <time>2021-06-24T22:22:07.000Z</time>
        <extensions>
          <ns3:TrackPointExtension>
            <ns3:atemp>30.0</ns3:atemp>
            <ns3:hr>108</ns3:hr>
          </ns3:TrackPointExtension>
        </extensions>
      </trkpt>
      <trkpt lat="36.7566441558301448822021484375" lon="-118.44618623144924640655517578125">
        <ele>2484</ele>
        <time>2021-06-24T22:22:10.000Z</time>
        <extensions>
          <ns3:TrackPointExtension>
            <ns3:atemp>30.0</ns3:atemp>
            <ns3:hr>109</ns3:hr>
          </ns3:TrackPointExtension>
        </extensions>
      </trkpt>
      <trkpt lat="36.7566401325166225433349609375" lon="-118.446181453764438629150390625">
        <ele>2484.199951171875</ele>
        <time>2021-06-24T22:22:11.000Z</time>
        <extensions>
          <ns3:TrackPointExtension>
            <ns3:atemp>30.0</ns3:atemp>
            <ns3:hr>109</ns3:hr>
          </ns3:TrackPointExtension>
        </extensions>
      </trkpt>
      <trkpt lat="36.7566235363483428955078125" lon="-118.4461765922605991363525390625">
        <ele>2484.199951171875</ele>
        <time>2021-06-24T22:22:14.000Z</time>
        <extensions>
          <ns3:TrackPointExtension>
            <ns3:atemp>30.0</ns3:atemp>
            <ns3:hr>106</ns3:hr>
          </ns3:TrackPointExtension>
        </extensions>
      </trkpt>
      <trkpt lat="36.7566129751503467559814453125" lon="-118.44616963528096675872802734375">
        <ele>2484.39990234375</ele>
        <time>2021-06-24T22:22:15.000Z</time>
        <extensions>
          <ns3:TrackPointExtension>
            <ns3:atemp>30.0</ns3:atemp>
            <ns3:hr>106</ns3:hr>
          </ns3:TrackPointExtension>
        </extensions>
      </trkpt>
      <trkpt lat="36.75660199485719203948974609375" lon="-118.44612873159348964691162109375">
        <ele>2484.60009765625</ele>
        <time>2021-06-24T22:22:18.000Z</time>
        <extensions>
          <ns3:TrackPointExtension>
            <ns3:atemp>30.0</ns3:atemp>
            <ns3:hr>109</ns3:hr>
          </ns3:TrackPointExtension>
        </extensions>
      </trkpt>
      <trkpt lat="36.756594367325305938720703125" lon="-118.44610442407429218292236328125">
        <ele>2484.800048828125</ele>
        <time>2021-06-24T22:22:20.000Z</time>
        <extensions>
          <ns3:TrackPointExtension>
            <ns3:atemp>30.0</ns3:atemp>
            <ns3:hr>108</ns3:hr>
          </ns3:TrackPointExtension>
        </extensions>
      </trkpt>
      <trkpt lat="36.756593026220798492431640625" lon="-118.44606486149132251739501953125">
        <ele>2485.39990234375</ele>
        <time>2021-06-24T22:22:26.000Z</time>
        <extensions>
          <ns3:TrackPointExtension>
            <ns3:atemp>30.0</ns3:atemp>
            <ns3:hr>109</ns3:hr>
          </ns3:TrackPointExtension>
        </extensions>
      </trkpt>
      <trkpt lat="36.75654231570661067962646484375" lon="-118.4459925256669521331787109375">
        <ele>2486</ele>
        <time>2021-06-24T22:22:31.000Z</time>
        <extensions>
          <ns3:TrackPointExtension>
            <ns3:atemp>30.0</ns3:atemp>
            <ns3:hr>109</ns3:hr>
          </ns3:TrackPointExtension>
        </extensions>
      </trkpt>
      <trkpt lat="36.75653745420277118682861328125" lon="-118.44598171301186084747314453125">
        <ele>2486</ele>
        <time>2021-06-24T22:22:32.000Z</time>
        <extensions>
          <ns3:TrackPointExtension>
            <ns3:atemp>30.0</ns3:atemp>
            <ns3:hr>109</ns3:hr>
          </ns3:TrackPointExtension>
        </extensions>
      </trkpt>
      <trkpt lat="36.75652907229959964752197265625" lon="-118.44596696086227893829345703125">
        <ele>2486</ele>
        <time>2021-06-24T22:22:33.000Z</time>
        <extensions>
          <ns3:TrackPointExtension>
            <ns3:atemp>30.0</ns3:atemp>
            <ns3:hr>109</ns3:hr>
          </ns3:TrackPointExtension>
        </extensions>
      </trkpt>
      <trkpt lat="36.75651214085519313812255859375" lon="-118.4459442459046840667724609375">
        <ele>2486</ele>
        <time>2021-06-24T22:22:37.000Z</time>
        <extensions>
          <ns3:TrackPointExtension>
            <ns3:atemp>30.0</ns3:atemp>
            <ns3:hr>108</ns3:hr>
          </ns3:TrackPointExtension>
        </extensions>
      </trkpt>
      <trkpt lat="36.75650887191295623779296875" lon="-118.44593745656311511993408203125">
        <ele>2485.800048828125</ele>
        <time>2021-06-24T22:22:38.000Z</time>
        <extensions>
          <ns3:TrackPointExtension>
            <ns3:atemp>30.0</ns3:atemp>
            <ns3:hr>108</ns3:hr>
          </ns3:TrackPointExtension>
        </extensions>
      </trkpt>
      <trkpt lat="36.75650325603783130645751953125" lon="-118.44591968692839145660400390625">
        <ele>2486</ele>
        <time>2021-06-24T22:22:40.000Z</time>
        <extensions>
          <ns3:TrackPointExtension>
            <ns3:atemp>30.0</ns3:atemp>
            <ns3:hr>109</ns3:hr>
          </ns3:TrackPointExtension>
        </extensions>
      </trkpt>
      <trkpt lat="36.7564855702221393585205078125" lon="-118.445883728563785552978515625">
        <ele>2486</ele>
        <time>2021-06-24T22:22:44.000Z</time>
        <extensions>
          <ns3:TrackPointExtension>
            <ns3:atemp>30.0</ns3:atemp>
            <ns3:hr>110</ns3:hr>
          </ns3:TrackPointExtension>
        </extensions>
      </trkpt>
      <trkpt lat="36.7564701475203037261962890625" lon="-118.4458610974252223968505859375">
        <ele>2487</ele>
        <time>2021-06-24T22:22:47.000Z</time>
        <extensions>
          <ns3:TrackPointExtension>
            <ns3:atemp>30.0</ns3:atemp>
            <ns3:hr>111</ns3:hr>
          </ns3:TrackPointExtension>
        </extensions>
      </trkpt>
      <trkpt lat="36.75645925104618072509765625" lon="-118.445841483771800994873046875">
        <ele>2487</ele>
        <time>2021-06-24T22:22:49.000Z</time>
        <extensions>
          <ns3:TrackPointExtension>
            <ns3:atemp>30.0</ns3:atemp>
            <ns3:hr>113</ns3:hr>
          </ns3:TrackPointExtension>
        </extensions>
      </trkpt>
      <trkpt lat="36.75644391216337680816650390625" lon="-118.4458299167454242706298828125">
        <ele>2487.199951171875</ele>
        <time>2021-06-24T22:22:51.000Z</time>
        <extensions>
          <ns3:TrackPointExtension>
            <ns3:atemp>30.0</ns3:atemp>
            <ns3:hr>111</ns3:hr>
          </ns3:TrackPointExtension>
        </extensions>
      </trkpt>
      <trkpt lat="36.7564322613179683685302734375" lon="-118.4458262287080287933349609375">
        <ele>2487.39990234375</ele>
        <time>2021-06-24T22:22:52.000Z</time>
        <extensions>
          <ns3:TrackPointExtension>
            <ns3:atemp>30.0</ns3:atemp>
            <ns3:hr>110</ns3:hr>
          </ns3:TrackPointExtension>
        </extensions>
      </trkpt>
      <trkpt lat="36.75642170011997222900390625" lon="-118.44582145102322101593017578125">
        <ele>2487.39990234375</ele>
        <time>2021-06-24T22:22:53.000Z</time>
        <extensions>
          <ns3:TrackPointExtension>
            <ns3:atemp>30.0</ns3:atemp>
            <ns3:hr>109</ns3:hr>
          </ns3:TrackPointExtension>
        </extensions>
      </trkpt>
      <trkpt lat="36.7563994042575359344482421875" lon="-118.44580653123557567596435546875">
        <ele>2487.60009765625</ele>
        <time>2021-06-24T22:22:55.000Z</time>
        <extensions>
          <ns3:TrackPointExtension>
            <ns3:atemp>30.0</ns3:atemp>
            <ns3:hr>110</ns3:hr>
          </ns3:TrackPointExtension>
        </extensions>
      </trkpt>
      <trkpt lat="36.7563648708164691925048828125" lon="-118.44578457064926624298095703125">
        <ele>2487.800048828125</ele>
        <time>2021-06-24T22:22:58.000Z</time>
        <extensions>
          <ns3:TrackPointExtension>
            <ns3:atemp>30.0</ns3:atemp>
            <ns3:hr>109</ns3:hr>
          </ns3:TrackPointExtension>
        </extensions>
      </trkpt>
      <trkpt lat="36.756356321275234222412109375" lon="-118.445778451859951019287109375">
        <ele>2488</ele>
        <time>2021-06-24T22:22:59.000Z</time>
        <extensions>
          <ns3:TrackPointExtension>
            <ns3:atemp>30.0</ns3:atemp>
            <ns3:hr>109</ns3:hr>
          </ns3:TrackPointExtension>
        </extensions>
      </trkpt>
      <trkpt lat="36.7563273198902606964111328125" lon="-118.44575397670269012451171875">
        <ele>2488.199951171875</ele>
        <time>2021-06-24T22:23:03.000Z</time>
        <extensions>
          <ns3:TrackPointExtension>
            <ns3:atemp>30.0</ns3:atemp>
            <ns3:hr>106</ns3:hr>
          </ns3:TrackPointExtension>
        </extensions>
      </trkpt>
      <trkpt lat="36.7563125677406787872314453125" lon="-118.4457460977137088775634765625">
        <ele>2488.39990234375</ele>
        <time>2021-06-24T22:23:04.000Z</time>
        <extensions>
          <ns3:TrackPointExtension>
            <ns3:atemp>30.0</ns3:atemp>
            <ns3:hr>106</ns3:hr>
          </ns3:TrackPointExtension>
        </extensions>
      </trkpt>
      <trkpt lat="36.75629823468625545501708984375" lon="-118.4456780366599559783935546875">
        <ele>2488.800048828125</ele>
        <time>2021-06-24T22:23:07.000Z</time>
        <extensions>
          <ns3:TrackPointExtension>
            <ns3:atemp>30.0</ns3:atemp>
            <ns3:hr>103</ns3:hr>
          </ns3:TrackPointExtension>
        </extensions>
      </trkpt>
      <trkpt lat="36.75630033016204833984375" lon="-118.44565414823591709136962890625">
        <ele>2488.800048828125</ele>
        <time>2021-06-24T22:23:08.000Z</time>
        <extensions>
          <ns3:TrackPointExtension>
            <ns3:atemp>30.0</ns3:atemp>
            <ns3:hr>103</ns3:hr>
          </ns3:TrackPointExtension>
        </extensions>
      </trkpt>
      <trkpt lat="36.7562974803149700164794921875" lon="-118.44564375467598438262939453125">
        <ele>2488.800048828125</ele>
        <time>2021-06-24T22:23:09.000Z</time>
        <extensions>
          <ns3:TrackPointExtension>
            <ns3:atemp>30.0</ns3:atemp>
            <ns3:hr>103</ns3:hr>
          </ns3:TrackPointExtension>
        </extensions>
      </trkpt>
      <trkpt lat="36.756287254393100738525390625" lon="-118.4456039406359195709228515625">
        <ele>2489.199951171875</ele>
        <time>2021-06-24T22:23:14.000Z</time>
        <extensions>
          <ns3:TrackPointExtension>
            <ns3:atemp>30.0</ns3:atemp>
            <ns3:hr>106</ns3:hr>
          </ns3:TrackPointExtension>
        </extensions>
      </trkpt>
      <trkpt lat="36.7562830634415149688720703125" lon="-118.44559866003692150115966796875">
        <ele>2489.39990234375</ele>
        <time>2021-06-24T22:23:15.000Z</time>
        <extensions>
          <ns3:TrackPointExtension>
            <ns3:atemp>30.0</ns3:atemp>
            <ns3:hr>106</ns3:hr>
          </ns3:TrackPointExtension>
        </extensions>
      </trkpt>
      <trkpt lat="36.7562901042401790618896484375" lon="-118.445591032505035400390625">
        <ele>2489.60009765625</ele>
        <time>2021-06-24T22:23:16.000Z</time>
        <extensions>
          <ns3:TrackPointExtension>
            <ns3:atemp>30.0</ns3:atemp>
            <ns3:hr>106</ns3:hr>
          </ns3:TrackPointExtension>
        </extensions>
      </trkpt>
      <trkpt lat="36.75630033016204833984375" lon="-118.44555951654911041259765625">
        <ele>2490.199951171875</ele>
        <time>2021-06-24T22:23:19.000Z</time>
        <extensions>
          <ns3:TrackPointExtension>
            <ns3:atemp>30.0</ns3:atemp>
            <ns3:hr>106</ns3:hr>
          </ns3:TrackPointExtension>
        </extensions>
      </trkpt>
      <trkpt lat="36.756285913288593292236328125" lon="-118.44553914852440357208251953125">
        <ele>2490.39990234375</ele>
        <time>2021-06-24T22:23:21.000Z</time>
        <extensions>
          <ns3:TrackPointExtension>
            <ns3:atemp>30.0</ns3:atemp>
            <ns3:hr>107</ns3:hr>
          </ns3:TrackPointExtension>
        </extensions>
      </trkpt>
      <trkpt lat="36.75626018084585666656494140625" lon="-118.44550662674009799957275390625">
        <ele>2490.60009765625</ele>
        <time>2021-06-24T22:23:24.000Z</time>
        <extensions>
          <ns3:TrackPointExtension>
            <ns3:atemp>30.0</ns3:atemp>
            <ns3:hr>108</ns3:hr>
          </ns3:TrackPointExtension>
        </extensions>
      </trkpt>
      <trkpt lat="36.75624643452465534210205078125" lon="-118.44548977911472320556640625">
        <ele>2490.60009765625</ele>
        <time>2021-06-24T22:23:26.000Z</time>
        <extensions>
          <ns3:TrackPointExtension>
            <ns3:atemp>30.0</ns3:atemp>
            <ns3:hr>108</ns3:hr>
          </ns3:TrackPointExtension>
        </extensions>
      </trkpt>
      <trkpt lat="36.75621785223484039306640625" lon="-118.44546253792941570281982421875">
        <ele>2490.60009765625</ele>
        <time>2021-06-24T22:23:29.000Z</time>
        <extensions>
          <ns3:TrackPointExtension>
            <ns3:atemp>30.0</ns3:atemp>
            <ns3:hr>108</ns3:hr>
          </ns3:TrackPointExtension>
        </extensions>
      </trkpt>
      <trkpt lat="36.75619966350495815277099609375" lon="-118.44545147381722927093505859375">
        <ele>2490.800048828125</ele>
        <time>2021-06-24T22:23:31.000Z</time>
        <extensions>
          <ns3:TrackPointExtension>
            <ns3:atemp>30.0</ns3:atemp>
            <ns3:hr>108</ns3:hr>
          </ns3:TrackPointExtension>
        </extensions>
      </trkpt>
      <trkpt lat="36.75614702515304088592529296875" lon="-118.44539950601756572723388671875">
        <ele>2491.199951171875</ele>
        <time>2021-06-24T22:23:37.000Z</time>
        <extensions>
          <ns3:TrackPointExtension>
            <ns3:atemp>30.0</ns3:atemp>
            <ns3:hr>106</ns3:hr>
          </ns3:TrackPointExtension>
        </extensions>
      </trkpt>
      <trkpt lat="36.75613461993634700775146484375" lon="-118.4453912079334259033203125">
        <ele>2491.60009765625</ele>
        <time>2021-06-24T22:23:38.000Z</time>
        <extensions>
          <ns3:TrackPointExtension>
            <ns3:atemp>30.0</ns3:atemp>
            <ns3:hr>105</ns3:hr>
          </ns3:TrackPointExtension>
        </extensions>
      </trkpt>
      <trkpt lat="36.75609053112566471099853515625" lon="-118.44532943330705165863037109375">
        <ele>2492.199951171875</ele>
        <time>2021-06-24T22:23:43.000Z</time>
        <extensions>
          <ns3:TrackPointExtension>
            <ns3:atemp>29.0</ns3:atemp>
            <ns3:hr>105</ns3:hr>
          </ns3:TrackPointExtension>
        </extensions>
      </trkpt>
      <trkpt lat="36.756063289940357208251953125" lon="-118.44528836198151111602783203125">
        <ele>2492.60009765625</ele>
        <time>2021-06-24T22:23:46.000Z</time>
        <extensions>
          <ns3:TrackPointExtension>
            <ns3:atemp>30.0</ns3:atemp>
            <ns3:hr>106</ns3:hr>
          </ns3:TrackPointExtension>
        </extensions>
      </trkpt>
      <trkpt lat="36.7560414969921112060546875" lon="-118.445264138281345367431640625">
        <ele>2493</ele>
        <time>2021-06-24T22:23:48.000Z</time>
        <extensions>
          <ns3:TrackPointExtension>
            <ns3:atemp>30.0</ns3:atemp>
            <ns3:hr>106</ns3:hr>
          </ns3:TrackPointExtension>
        </extensions>
      </trkpt>
      <trkpt lat="36.75603277981281280517578125" lon="-118.44524527899920940399169921875">
        <ele>2493</ele>
        <time>2021-06-24T22:23:50.000Z</time>
        <extensions>
          <ns3:TrackPointExtension>
            <ns3:atemp>30.0</ns3:atemp>
            <ns3:hr>106</ns3:hr>
          </ns3:TrackPointExtension>
        </extensions>
      </trkpt>
      <trkpt lat="36.75602280534803867340087890625" lon="-118.445242345333099365234375">
        <ele>2493</ele>
        <time>2021-06-24T22:23:51.000Z</time>
        <extensions>
          <ns3:TrackPointExtension>
            <ns3:atemp>29.0</ns3:atemp>
            <ns3:hr>106</ns3:hr>
          </ns3:TrackPointExtension>
        </extensions>
      </trkpt>
      <trkpt lat="36.75600528717041015625" lon="-118.44521795399487018585205078125">
        <ele>2492.39990234375</ele>
        <time>2021-06-24T22:23:54.000Z</time>
        <extensions>
          <ns3:TrackPointExtension>
            <ns3:atemp>30.0</ns3:atemp>
            <ns3:hr>105</ns3:hr>
          </ns3:TrackPointExtension>
        </extensions>
      </trkpt>
      <trkpt lat="36.75598944537341594696044921875" lon="-118.4452173672616481781005859375">
        <ele>2492.39990234375</ele>
        <time>2021-06-24T22:23:55.000Z</time>
        <extensions>
          <ns3:TrackPointExtension>
            <ns3:atemp>30.0</ns3:atemp>
            <ns3:hr>105</ns3:hr>
          </ns3:TrackPointExtension>
        </extensions>
      </trkpt>
      <trkpt lat="36.7559591867029666900634765625" lon="-118.44523756764829158782958984375">
        <ele>2492.199951171875</ele>
        <time>2021-06-24T22:23:57.000Z</time>
        <extensions>
          <ns3:TrackPointExtension>
            <ns3:atemp>30.0</ns3:atemp>
            <ns3:hr>103</ns3:hr>
          </ns3:TrackPointExtension>
        </extensions>
      </trkpt>
      <trkpt lat="36.75594569183886051177978515625" lon="-118.44524393789470195770263671875">
        <ele>2491.800048828125</ele>
        <time>2021-06-24T22:24:00.000Z</time>
        <extensions>
          <ns3:TrackPointExtension>
            <ns3:atemp>30.0</ns3:atemp>
            <ns3:hr>99</ns3:hr>
          </ns3:TrackPointExtension>
        </extensions>
      </trkpt>
      <trkpt lat="36.75594552420079708099365234375" lon="-118.445242345333099365234375">
        <ele>2491.800048828125</ele>
        <time>2021-06-24T22:24:01.000Z</time>
        <extensions>
          <ns3:TrackPointExtension>
            <ns3:atemp>30.0</ns3:atemp>
            <ns3:hr>100</ns3:hr>
          </ns3:TrackPointExtension>
        </extensions>
      </trkpt>
      <trkpt lat="36.75593345426023006439208984375" lon="-118.44523622654378414154052734375">
        <ele>2492.60009765625</ele>
        <time>2021-06-24T22:24:06.000Z</time>
        <extensions>
          <ns3:TrackPointExtension>
            <ns3:atemp>30.0</ns3:atemp>
            <ns3:hr>101</ns3:hr>
          </ns3:TrackPointExtension>
        </extensions>
      </trkpt>
      <trkpt lat="36.75591719336807727813720703125" lon="-118.44523991458117961883544921875">
        <ele>2492.60009765625</ele>
        <time>2021-06-24T22:24:09.000Z</time>
        <extensions>
          <ns3:TrackPointExtension>
            <ns3:atemp>30.0</ns3:atemp>
            <ns3:hr>101</ns3:hr>
          </ns3:TrackPointExtension>
        </extensions>
      </trkpt>
      <trkpt lat="36.7558877728879451751708984375" lon="-118.44524125568568706512451171875">
        <ele>2492.39990234375</ele>
        <time>2021-06-24T22:24:12.000Z</time>
        <extensions>
          <ns3:TrackPointExtension>
            <ns3:atemp>30.0</ns3:atemp>
            <ns3:hr>98</ns3:hr>
          </ns3:TrackPointExtension>
        </extensions>
      </trkpt>
      <trkpt lat="36.75587176345288753509521484375" lon="-118.4452364780008792877197265625">
        <ele>2491.60009765625</ele>
        <time>2021-06-24T22:24:14.000Z</time>
        <extensions>
          <ns3:TrackPointExtension>
            <ns3:atemp>30.0</ns3:atemp>
            <ns3:hr>96</ns3:hr>
          </ns3:TrackPointExtension>
        </extensions>
      </trkpt>
      <trkpt lat="36.7558304406702518463134765625" lon="-118.4452535770833492279052734375">
        <ele>2491.39990234375</ele>
        <time>2021-06-24T22:24:17.000Z</time>
        <extensions>
          <ns3:TrackPointExtension>
            <ns3:atemp>30.0</ns3:atemp>
            <ns3:hr>93</ns3:hr>
          </ns3:TrackPointExtension>
        </extensions>
      </trkpt>
      <trkpt lat="36.7558042891323566436767578125" lon="-118.44526153989136219024658203125">
        <ele>2491.199951171875</ele>
        <time>2021-06-24T22:24:18.000Z</time>
        <extensions>
          <ns3:TrackPointExtension>
            <ns3:atemp>30.0</ns3:atemp>
            <ns3:hr>92</ns3:hr>
          </ns3:TrackPointExtension>
        </extensions>
      </trkpt>
      <trkpt lat="36.75575374625623226165771484375" lon="-118.44527109526097774505615234375">
        <ele>2490.60009765625</ele>
        <time>2021-06-24T22:24:20.000Z</time>
        <extensions>
          <ns3:TrackPointExtension>
            <ns3:atemp>30.0</ns3:atemp>
            <ns3:hr>91</ns3:hr>
          </ns3:TrackPointExtension>
        </extensions>
      </trkpt>
      <trkpt lat="36.75567529164254665374755859375" lon="-118.44525952823460102081298828125">
        <ele>2490.800048828125</ele>
        <time>2021-06-24T22:24:26.000Z</time>
        <extensions>
          <ns3:TrackPointExtension>
            <ns3:atemp>30.0</ns3:atemp>
            <ns3:hr>93</ns3:hr>
          </ns3:TrackPointExtension>
        </extensions>
      </trkpt>
      <trkpt lat="36.75566640682518482208251953125" lon="-118.4452678263187408447265625">
        <ele>2490.800048828125</ele>
        <time>2021-06-24T22:24:27.000Z</time>
        <extensions>
          <ns3:TrackPointExtension>
            <ns3:atemp>29.0</ns3:atemp>
            <ns3:hr>94</ns3:hr>
          </ns3:TrackPointExtension>
        </extensions>
      </trkpt>
      <trkpt lat="36.75563120283186435699462890625" lon="-118.4452705085277557373046875">
        <ele>2491</ele>
        <time>2021-06-24T22:24:30.000Z</time>
        <extensions>
          <ns3:TrackPointExtension>
            <ns3:atemp>30.0</ns3:atemp>
            <ns3:hr>93</ns3:hr>
          </ns3:TrackPointExtension>
        </extensions>
      </trkpt>
      <trkpt lat="36.7556131817400455474853515625" lon="-118.4452649764716625213623046875">
        <ele>2491</ele>
        <time>2021-06-24T22:24:32.000Z</time>
        <extensions>
          <ns3:TrackPointExtension>
            <ns3:atemp>30.0</ns3:atemp>
            <ns3:hr>93</ns3:hr>
          </ns3:TrackPointExtension>
        </extensions>
      </trkpt>
      <trkpt lat="36.75559365190565586090087890625" lon="-118.44526204280555248260498046875">
        <ele>2491.199951171875</ele>
        <time>2021-06-24T22:24:34.000Z</time>
        <extensions>
          <ns3:TrackPointExtension>
            <ns3:atemp>30.0</ns3:atemp>
            <ns3:hr>93</ns3:hr>
          </ns3:TrackPointExtension>
        </extensions>
      </trkpt>
      <trkpt lat="36.75556800328195095062255859375" lon="-118.445276878774166107177734375">
        <ele>2491.39990234375</ele>
        <time>2021-06-24T22:24:37.000Z</time>
        <extensions>
          <ns3:TrackPointExtension>
            <ns3:atemp>30.0</ns3:atemp>
            <ns3:hr>93</ns3:hr>
          </ns3:TrackPointExtension>
        </extensions>
      </trkpt>
      <trkpt lat="36.75555400550365447998046875" lon="-118.4452850930392742156982421875">
        <ele>2491.199951171875</ele>
        <time>2021-06-24T22:24:38.000Z</time>
        <extensions>
          <ns3:TrackPointExtension>
            <ns3:atemp>30.0</ns3:atemp>
            <ns3:hr>93</ns3:hr>
          </ns3:TrackPointExtension>
        </extensions>
      </trkpt>
      <trkpt lat="36.7555293627083301544189453125" lon="-118.44529523514211177825927734375">
        <ele>2491.199951171875</ele>
        <time>2021-06-24T22:24:41.000Z</time>
        <extensions>
          <ns3:TrackPointExtension>
            <ns3:atemp>30.0</ns3:atemp>
            <ns3:hr>92</ns3:hr>
          </ns3:TrackPointExtension>
        </extensions>
      </trkpt>
      <trkpt lat="36.75549407489597797393798828125" lon="-118.44531367532908916473388671875">
        <ele>2490.800048828125</ele>
        <time>2021-06-24T22:24:44.000Z</time>
        <extensions>
          <ns3:TrackPointExtension>
            <ns3:atemp>30.0</ns3:atemp>
            <ns3:hr>93</ns3:hr>
          </ns3:TrackPointExtension>
        </extensions>
      </trkpt>
      <trkpt lat="36.7554435320198535919189453125" lon="-118.445353992283344268798828125">
        <ele>2490.60009765625</ele>
        <time>2021-06-24T22:24:48.000Z</time>
        <extensions>
          <ns3:TrackPointExtension>
            <ns3:atemp>30.0</ns3:atemp>
            <ns3:hr>92</ns3:hr>
          </ns3:TrackPointExtension>
        </extensions>
      </trkpt>
      <trkpt lat="36.75541914068162441253662109375" lon="-118.4454004280269145965576171875">
        <ele>2490.39990234375</ele>
        <time>2021-06-24T22:24:52.000Z</time>
        <extensions>
          <ns3:TrackPointExtension>
            <ns3:atemp>30.0</ns3:atemp>
            <ns3:hr>91</ns3:hr>
          </ns3:TrackPointExtension>
        </extensions>
      </trkpt>
      <trkpt lat="36.7554153688251972198486328125" lon="-118.44541073776781558990478515625">
        <ele>2490.39990234375</ele>
        <time>2021-06-24T22:24:53.000Z</time>
        <extensions>
          <ns3:TrackPointExtension>
            <ns3:atemp>30.0</ns3:atemp>
            <ns3:hr>92</ns3:hr>
          </ns3:TrackPointExtension>
        </extensions>
      </trkpt>
      <trkpt lat="36.755383014678955078125" lon="-118.445444516837596893310546875">
        <ele>2490.39990234375</ele>
        <time>2021-06-24T22:24:57.000Z</time>
        <extensions>
          <ns3:TrackPointExtension>
            <ns3:atemp>30.0</ns3:atemp>
            <ns3:hr>94</ns3:hr>
          </ns3:TrackPointExtension>
        </extensions>
      </trkpt>
      <trkpt lat="36.75536583177745342254638671875" lon="-118.44547293148934841156005859375">
        <ele>2490</ele>
        <time>2021-06-24T22:25:00.000Z</time>
        <extensions>
          <ns3:TrackPointExtension>
            <ns3:atemp>30.0</ns3:atemp>
            <ns3:hr>95</ns3:hr>
          </ns3:TrackPointExtension>
        </extensions>
      </trkpt>
      <trkpt lat="36.7553456313908100128173828125" lon="-118.44551919959485530853271484375">
        <ele>2489.60009765625</ele>
        <time>2021-06-24T22:25:06.000Z</time>
        <extensions>
          <ns3:TrackPointExtension>
            <ns3:atemp>30.0</ns3:atemp>
            <ns3:hr>97</ns3:hr>
          </ns3:TrackPointExtension>
        </extensions>
      </trkpt>
      <trkpt lat="36.75533900968730449676513671875" lon="-118.4455239772796630859375">
        <ele>2489.60009765625</ele>
        <time>2021-06-24T22:25:07.000Z</time>
        <extensions>
          <ns3:TrackPointExtension>
            <ns3:atemp>30.0</ns3:atemp>
            <ns3:hr>97</ns3:hr>
          </ns3:TrackPointExtension>
        </extensions>
      </trkpt>
      <trkpt lat="36.75532593391835689544677734375" lon="-118.4455301798880100250244140625">
        <ele>2489.60009765625</ele>
        <time>2021-06-24T22:25:09.000Z</time>
        <extensions>
          <ns3:TrackPointExtension>
            <ns3:atemp>30.0</ns3:atemp>
            <ns3:hr>98</ns3:hr>
          </ns3:TrackPointExtension>
        </extensions>
      </trkpt>
      <trkpt lat="36.7553151212632656097412109375" lon="-118.44555272720754146575927734375">
        <ele>2489.60009765625</ele>
        <time>2021-06-24T22:25:11.000Z</time>
        <extensions>
          <ns3:TrackPointExtension>
            <ns3:atemp>30.0</ns3:atemp>
            <ns3:hr>99</ns3:hr>
          </ns3:TrackPointExtension>
        </extensions>
      </trkpt>
      <trkpt lat="36.755313612520694732666015625" lon="-118.44558793120086193084716796875">
        <ele>2489.199951171875</ele>
        <time>2021-06-24T22:25:15.000Z</time>
        <extensions>
          <ns3:TrackPointExtension>
            <ns3:atemp>30.0</ns3:atemp>
            <ns3:hr>99</ns3:hr>
          </ns3:TrackPointExtension>
        </extensions>
      </trkpt>
      <trkpt lat="36.75531771965324878692626953125" lon="-118.44559245742857456207275390625">
        <ele>2489.199951171875</ele>
        <time>2021-06-24T22:25:16.000Z</time>
        <extensions>
          <ns3:TrackPointExtension>
            <ns3:atemp>30.0</ns3:atemp>
            <ns3:hr>99</ns3:hr>
          </ns3:TrackPointExtension>
        </extensions>
      </trkpt>
      <trkpt lat="36.75530598498880863189697265625" lon="-118.4456290863454341888427734375">
        <ele>2490</ele>
        <time>2021-06-24T22:25:21.000Z</time>
        <extensions>
          <ns3:TrackPointExtension>
            <ns3:atemp>29.0</ns3:atemp>
            <ns3:hr>97</ns3:hr>
          </ns3:TrackPointExtension>
        </extensions>
      </trkpt>
      <trkpt lat="36.75528855063021183013916015625" lon="-118.4456549026072025299072265625">
        <ele>2490</ele>
        <time>2021-06-24T22:25:24.000Z</time>
        <extensions>
          <ns3:TrackPointExtension>
            <ns3:atemp>29.0</ns3:atemp>
            <ns3:hr>95</ns3:hr>
          </ns3:TrackPointExtension>
        </extensions>
      </trkpt>
      <trkpt lat="36.755273379385471343994140625" lon="-118.44566772691905498504638671875">
        <ele>2490</ele>
        <time>2021-06-24T22:25:25.000Z</time>
        <extensions>
          <ns3:TrackPointExtension>
            <ns3:atemp>29.0</ns3:atemp>
            <ns3:hr>94</ns3:hr>
          </ns3:TrackPointExtension>
        </extensions>
      </trkpt>
      <trkpt lat="36.7552551068365573883056640625" lon="-118.4456916153430938720703125">
        <ele>2490</ele>
        <time>2021-06-24T22:25:27.000Z</time>
        <extensions>
          <ns3:TrackPointExtension>
            <ns3:atemp>29.0</ns3:atemp>
            <ns3:hr>93</ns3:hr>
          </ns3:TrackPointExtension>
        </extensions>
      </trkpt>
      <trkpt lat="36.7552453838288784027099609375" lon="-118.44571768306195735931396484375">
        <ele>2489.800048828125</ele>
        <time>2021-06-24T22:25:31.000Z</time>
        <extensions>
          <ns3:TrackPointExtension>
            <ns3:atemp>29.0</ns3:atemp>
            <ns3:hr>90</ns3:hr>
          </ns3:TrackPointExtension>
        </extensions>
      </trkpt>
      <trkpt lat="36.7552423663437366485595703125" lon="-118.44571600668132305145263671875">
        <ele>2489.60009765625</ele>
        <time>2021-06-24T22:25:32.000Z</time>
        <extensions>
          <ns3:TrackPointExtension>
            <ns3:atemp>29.0</ns3:atemp>
            <ns3:hr>90</ns3:hr>
          </ns3:TrackPointExtension>
        </extensions>
      </trkpt>
      <trkpt lat="36.7552390135824680328369140625" lon="-118.44571399502456188201904296875">
        <ele>2489.60009765625</ele>
        <time>2021-06-24T22:25:33.000Z</time>
        <extensions>
          <ns3:TrackPointExtension>
            <ns3:atemp>29.0</ns3:atemp>
            <ns3:hr>90</ns3:hr>
          </ns3:TrackPointExtension>
        </extensions>
      </trkpt>
      <trkpt lat="36.75523574464023113250732421875" lon="-118.44570913352072238922119140625">
        <ele>2489.60009765625</ele>
        <time>2021-06-24T22:25:35.000Z</time>
        <extensions>
          <ns3:TrackPointExtension>
            <ns3:atemp>29.0</ns3:atemp>
            <ns3:hr>91</ns3:hr>
          </ns3:TrackPointExtension>
        </extensions>
      </trkpt>
      <trkpt lat="36.75521093420684337615966796875" lon="-118.4457264840602874755859375">
        <ele>2489.800048828125</ele>
        <time>2021-06-24T22:25:40.000Z</time>
        <extensions>
          <ns3:TrackPointExtension>
            <ns3:atemp>29.0</ns3:atemp>
            <ns3:hr>92</ns3:hr>
          </ns3:TrackPointExtension>
        </extensions>
      </trkpt>
      <trkpt lat="36.75520422868430614471435546875" lon="-118.44572246074676513671875">
        <ele>2489.800048828125</ele>
        <time>2021-06-24T22:25:45.000Z</time>
        <extensions>
          <ns3:TrackPointExtension>
            <ns3:atemp>29.0</ns3:atemp>
            <ns3:hr>89</ns3:hr>
          </ns3:TrackPointExtension>
        </extensions>
      </trkpt>
      <trkpt lat="36.755204312503337860107421875" lon="-118.44572355039417743682861328125">
        <ele>2489.800048828125</ele>
        <time>2021-06-24T22:25:46.000Z</time>
        <extensions>
          <ns3:TrackPointExtension>
            <ns3:atemp>29.0</ns3:atemp>
            <ns3:hr>92</ns3:hr>
          </ns3:TrackPointExtension>
        </extensions>
      </trkpt>
      <trkpt lat="36.755204312503337860107421875" lon="-118.44572355039417743682861328125">
        <ele>2490</ele>
        <time>2021-06-24T22:25:48.000Z</time>
        <extensions>
          <ns3:TrackPointExtension>
            <ns3:atemp>29.0</ns3:atemp>
            <ns3:hr>92</ns3:hr>
          </ns3:TrackPointExtension>
        </extensions>
      </trkpt>
      <trkpt lat="36.755204312503337860107421875" lon="-118.44572355039417743682861328125">
        <ele>2490</ele>
        <time>2021-06-24T22:25:50.000Z</time>
        <extensions>
          <ns3:TrackPointExtension>
            <ns3:atemp>29.0</ns3:atemp>
            <ns3:hr>95</ns3:hr>
          </ns3:TrackPointExtension>
        </extensions>
      </trkpt>
      <trkpt lat="36.75520439632236957550048828125" lon="-118.44572455622255802154541015625">
        <ele>2490</ele>
        <time>2021-06-24T22:25:52.000Z</time>
        <extensions>
          <ns3:TrackPointExtension>
            <ns3:atemp>29.0</ns3:atemp>
            <ns3:hr>98</ns3:hr>
          </ns3:TrackPointExtension>
        </extensions>
      </trkpt>
      <trkpt lat="36.75518360920250415802001953125" lon="-118.4457152523100376129150390625">
        <ele>2489.800048828125</ele>
        <time>2021-06-24T22:25:56.000Z</time>
        <extensions>
          <ns3:TrackPointExtension>
            <ns3:atemp>29.0</ns3:atemp>
            <ns3:hr>101</ns3:hr>
          </ns3:TrackPointExtension>
        </extensions>
      </trkpt>
      <trkpt lat="36.755191572010517120361328125" lon="-118.4457303397357463836669921875">
        <ele>2489.800048828125</ele>
        <time>2021-06-24T22:25:59.000Z</time>
        <extensions>
          <ns3:TrackPointExtension>
            <ns3:atemp>29.0</ns3:atemp>
            <ns3:hr>101</ns3:hr>
          </ns3:TrackPointExtension>
        </extensions>
      </trkpt>
      <trkpt lat="36.7552282847464084625244140625" lon="-118.4457605145871639251708984375">
        <ele>2490.199951171875</ele>
        <time>2021-06-24T22:26:06.000Z</time>
        <extensions>
          <ns3:TrackPointExtension>
            <ns3:atemp>29.0</ns3:atemp>
            <ns3:hr>101</ns3:hr>
          </ns3:TrackPointExtension>
        </extensions>
      </trkpt>
      <trkpt lat="36.755256950855255126953125" lon="-118.44573243521153926849365234375">
        <ele>2490.39990234375</ele>
        <time>2021-06-24T22:26:13.000Z</time>
        <extensions>
          <ns3:TrackPointExtension>
            <ns3:atemp>29.0</ns3:atemp>
            <ns3:hr>102</ns3:hr>
          </ns3:TrackPointExtension>
        </extensions>
      </trkpt>
      <trkpt lat="36.75526055507361888885498046875" lon="-118.445723466575145721435546875">
        <ele>2490.60009765625</ele>
        <time>2021-06-24T22:26:14.000Z</time>
        <extensions>
          <ns3:TrackPointExtension>
            <ns3:atemp>29.0</ns3:atemp>
            <ns3:hr>101</ns3:hr>
          </ns3:TrackPointExtension>
        </extensions>
      </trkpt>
      <trkpt lat="36.7553141154348850250244140625" lon="-118.44570628367364406585693359375">
        <ele>2490.60009765625</ele>
        <time>2021-06-24T22:26:20.000Z</time>
        <extensions>
          <ns3:TrackPointExtension>
            <ns3:atemp>29.0</ns3:atemp>
            <ns3:hr>100</ns3:hr>
          </ns3:TrackPointExtension>
        </extensions>
      </trkpt>
      <trkpt lat="36.75537186674773693084716796875" lon="-118.4456720016896724700927734375">
        <ele>2490.60009765625</ele>
        <time>2021-06-24T22:26:26.000Z</time>
        <extensions>
          <ns3:TrackPointExtension>
            <ns3:atemp>29.0</ns3:atemp>
            <ns3:hr>100</ns3:hr>
          </ns3:TrackPointExtension>
        </extensions>
      </trkpt>
      <trkpt lat="36.7553680948913097381591796875" lon="-118.4456220455467700958251953125">
        <ele>2491</ele>
        <time>2021-06-24T22:26:30.000Z</time>
        <extensions>
          <ns3:TrackPointExtension>
            <ns3:atemp>29.0</ns3:atemp>
            <ns3:hr>101</ns3:hr>
          </ns3:TrackPointExtension>
        </extensions>
      </trkpt>
      <trkpt lat="36.75536750815808773040771484375" lon="-118.44561961479485034942626953125">
        <ele>2491</ele>
        <time>2021-06-24T22:26:32.000Z</time>
        <extensions>
          <ns3:TrackPointExtension>
            <ns3:atemp>29.0</ns3:atemp>
            <ns3:hr>103</ns3:hr>
          </ns3:TrackPointExtension>
        </extensions>
      </trkpt>
      <trkpt lat="36.755383014678955078125" lon="-118.44561274163424968719482421875">
        <ele>2490.800048828125</ele>
        <time>2021-06-24T22:26:35.000Z</time>
        <extensions>
          <ns3:TrackPointExtension>
            <ns3:atemp>29.0</ns3:atemp>
            <ns3:hr>106</ns3:hr>
          </ns3:TrackPointExtension>
        </extensions>
      </trkpt>
      <trkpt lat="36.75541310571134090423583984375" lon="-118.44558097422122955322265625">
        <ele>2490.800048828125</ele>
        <time>2021-06-24T22:26:38.000Z</time>
        <extensions>
          <ns3:TrackPointExtension>
            <ns3:atemp>29.0</ns3:atemp>
            <ns3:hr>107</ns3:hr>
          </ns3:TrackPointExtension>
        </extensions>
      </trkpt>
      <trkpt lat="36.75548854283988475799560546875" lon="-118.445485420525074005126953125">
        <ele>2490.60009765625</ele>
        <time>2021-06-24T22:26:46.000Z</time>
        <extensions>
          <ns3:TrackPointExtension>
            <ns3:atemp>29.0</ns3:atemp>
            <ns3:hr>105</ns3:hr>
          </ns3:TrackPointExtension>
        </extensions>
      </trkpt>
      <trkpt lat="36.75549675710499286651611328125" lon="-118.44547963701188564300537109375">
        <ele>2490.800048828125</ele>
        <time>2021-06-24T22:26:47.000Z</time>
        <extensions>
          <ns3:TrackPointExtension>
            <ns3:atemp>29.0</ns3:atemp>
            <ns3:hr>104</ns3:hr>
          </ns3:TrackPointExtension>
        </extensions>
      </trkpt>
      <trkpt lat="36.755525507032871246337890625" lon="-118.44545834697782993316650390625">
        <ele>2491.60009765625</ele>
        <time>2021-06-24T22:26:51.000Z</time>
        <extensions>
          <ns3:TrackPointExtension>
            <ns3:atemp>29.0</ns3:atemp>
            <ns3:hr>105</ns3:hr>
          </ns3:TrackPointExtension>
        </extensions>
      </trkpt>
      <trkpt lat="36.7555404268205165863037109375" lon="-118.44544309191405773162841796875">
        <ele>2491.800048828125</ele>
        <time>2021-06-24T22:26:53.000Z</time>
        <extensions>
          <ns3:TrackPointExtension>
            <ns3:atemp>29.0</ns3:atemp>
            <ns3:hr>105</ns3:hr>
          </ns3:TrackPointExtension>
        </extensions>
      </trkpt>
      <trkpt lat="36.75556750036776065826416015625" lon="-118.44535156153142452239990234375">
        <ele>2492.60009765625</ele>
        <time>2021-06-24T22:27:00.000Z</time>
        <extensions>
          <ns3:TrackPointExtension>
            <ns3:atemp>29.0</ns3:atemp>
            <ns3:hr>105</ns3:hr>
          </ns3:TrackPointExtension>
        </extensions>
      </trkpt>
      <trkpt lat="36.75555978901684284210205078125" lon="-118.44533697701990604400634765625">
        <ele>2492.800048828125</ele>
        <time>2021-06-24T22:27:01.000Z</time>
        <extensions>
          <ns3:TrackPointExtension>
            <ns3:atemp>29.0</ns3:atemp>
            <ns3:hr>105</ns3:hr>
          </ns3:TrackPointExtension>
        </extensions>
      </trkpt>
      <trkpt lat="36.7555533349514007568359375" lon="-118.44532339833676815032958984375">
        <ele>2492.800048828125</ele>
        <time>2021-06-24T22:27:02.000Z</time>
        <extensions>
          <ns3:TrackPointExtension>
            <ns3:atemp>29.0</ns3:atemp>
            <ns3:hr>106</ns3:hr>
          </ns3:TrackPointExtension>
        </extensions>
      </trkpt>
      <trkpt lat="36.75552056171000003814697265625" lon="-118.44529238529503345489501953125">
        <ele>2493.199951171875</ele>
        <time>2021-06-24T22:27:05.000Z</time>
        <extensions>
          <ns3:TrackPointExtension>
            <ns3:atemp>29.0</ns3:atemp>
            <ns3:hr>107</ns3:hr>
          </ns3:TrackPointExtension>
        </extensions>
      </trkpt>
      <trkpt lat="36.755503378808498382568359375" lon="-118.445257432758808135986328125">
        <ele>2493.800048828125</ele>
        <time>2021-06-24T22:27:08.000Z</time>
        <extensions>
          <ns3:TrackPointExtension>
            <ns3:atemp>29.0</ns3:atemp>
            <ns3:hr>110</ns3:hr>
          </ns3:TrackPointExtension>
        </extensions>
      </trkpt>
      <trkpt lat="36.7554988525807857513427734375" lon="-118.4452408365905284881591796875">
        <ele>2493.800048828125</ele>
        <time>2021-06-24T22:27:09.000Z</time>
        <extensions>
          <ns3:TrackPointExtension>
            <ns3:atemp>29.0</ns3:atemp>
            <ns3:hr>111</ns3:hr>
          </ns3:TrackPointExtension>
        </extensions>
      </trkpt>
      <trkpt lat="36.7554589547216892242431640625" lon="-118.4451781399548053741455078125">
        <ele>2494</ele>
        <time>2021-06-24T22:27:13.000Z</time>
        <extensions>
          <ns3:TrackPointExtension>
            <ns3:atemp>29.0</ns3:atemp>
            <ns3:hr>113</ns3:hr>
          </ns3:TrackPointExtension>
        </extensions>
      </trkpt>
      <trkpt lat="36.755439676344394683837890625" lon="-118.4451714344322681427001953125">
        <ele>2494</ele>
        <time>2021-06-24T22:27:14.000Z</time>
        <extensions>
          <ns3:TrackPointExtension>
            <ns3:atemp>29.0</ns3:atemp>
            <ns3:hr>113</ns3:hr>
          </ns3:TrackPointExtension>
        </extensions>
      </trkpt>
      <trkpt lat="36.7553593777120113372802734375" lon="-118.4451003558933734893798828125">
        <ele>2493.800048828125</ele>
        <time>2021-06-24T22:27:21.000Z</time>
        <extensions>
          <ns3:TrackPointExtension>
            <ns3:atemp>29.0</ns3:atemp>
            <ns3:hr>112</ns3:hr>
          </ns3:TrackPointExtension>
        </extensions>
      </trkpt>
      <trkpt lat="36.75535418093204498291015625" lon="-118.445086441934108734130859375">
        <ele>2494.39990234375</ele>
        <time>2021-06-24T22:27:24.000Z</time>
        <extensions>
          <ns3:TrackPointExtension>
            <ns3:atemp>29.0</ns3:atemp>
            <ns3:hr>112</ns3:hr>
          </ns3:TrackPointExtension>
        </extensions>
      </trkpt>
      <trkpt lat="36.75534621812403202056884765625" lon="-118.44505316577851772308349609375">
        <ele>2494.39990234375</ele>
        <time>2021-06-24T22:27:26.000Z</time>
        <extensions>
          <ns3:TrackPointExtension>
            <ns3:atemp>29.0</ns3:atemp>
            <ns3:hr>109</ns3:hr>
          </ns3:TrackPointExtension>
        </extensions>
      </trkpt>
      <trkpt lat="36.75532174296677112579345703125" lon="-118.44503489322960376739501953125">
        <ele>2494.60009765625</ele>
        <time>2021-06-24T22:27:28.000Z</time>
        <extensions>
          <ns3:TrackPointExtension>
            <ns3:atemp>29.0</ns3:atemp>
            <ns3:hr>112</ns3:hr>
          </ns3:TrackPointExtension>
        </extensions>
      </trkpt>
      <trkpt lat="36.7553121037781238555908203125" lon="-118.445025421679019927978515625">
        <ele>2494.800048828125</ele>
        <time>2021-06-24T22:27:29.000Z</time>
        <extensions>
          <ns3:TrackPointExtension>
            <ns3:atemp>29.0</ns3:atemp>
            <ns3:hr>111</ns3:hr>
          </ns3:TrackPointExtension>
        </extensions>
      </trkpt>
      <trkpt lat="36.75529181957244873046875" lon="-118.4450130164623260498046875">
        <ele>2494.60009765625</ele>
        <time>2021-06-24T22:27:31.000Z</time>
        <extensions>
          <ns3:TrackPointExtension>
            <ns3:atemp>29.0</ns3:atemp>
            <ns3:hr>110</ns3:hr>
          </ns3:TrackPointExtension>
        </extensions>
      </trkpt>
      <trkpt lat="36.75524077378213405609130859375" lon="-118.4449907205998897552490234375">
        <ele>2494.39990234375</ele>
        <time>2021-06-24T22:27:35.000Z</time>
        <extensions>
          <ns3:TrackPointExtension>
            <ns3:atemp>29.0</ns3:atemp>
            <ns3:hr>111</ns3:hr>
          </ns3:TrackPointExtension>
        </extensions>
      </trkpt>
      <trkpt lat="36.75521160475909709930419921875" lon="-118.444976471364498138427734375">
        <ele>2494.39990234375</ele>
        <time>2021-06-24T22:27:37.000Z</time>
        <extensions>
          <ns3:TrackPointExtension>
            <ns3:atemp>29.0</ns3:atemp>
            <ns3:hr>112</ns3:hr>
          </ns3:TrackPointExtension>
        </extensions>
      </trkpt>
      <trkpt lat="36.75519601441919803619384765625" lon="-118.4449702687561511993408203125">
        <ele>2494.199951171875</ele>
        <time>2021-06-24T22:27:38.000Z</time>
        <extensions>
          <ns3:TrackPointExtension>
            <ns3:atemp>29.0</ns3:atemp>
            <ns3:hr>112</ns3:hr>
          </ns3:TrackPointExtension>
        </extensions>
      </trkpt>
      <trkpt lat="36.7551873810589313507080078125" lon="-118.44493783079087734222412109375">
        <ele>2494.199951171875</ele>
        <time>2021-06-24T22:27:42.000Z</time>
        <extensions>
          <ns3:TrackPointExtension>
            <ns3:atemp>29.0</ns3:atemp>
            <ns3:hr>112</ns3:hr>
          </ns3:TrackPointExtension>
        </extensions>
      </trkpt>
      <trkpt lat="36.7552131973206996917724609375" lon="-118.4448914788663387298583984375">
        <ele>2494.199951171875</ele>
        <time>2021-06-24T22:27:48.000Z</time>
        <extensions>
          <ns3:TrackPointExtension>
            <ns3:atemp>30.0</ns3:atemp>
            <ns3:hr>111</ns3:hr>
          </ns3:TrackPointExtension>
        </extensions>
      </trkpt>
      <trkpt lat="36.7552121914923191070556640625" lon="-118.4448743797838687896728515625">
        <ele>2494</ele>
        <time>2021-06-24T22:27:50.000Z</time>
        <extensions>
          <ns3:TrackPointExtension>
            <ns3:atemp>30.0</ns3:atemp>
            <ns3:hr>110</ns3:hr>
          </ns3:TrackPointExtension>
        </extensions>
      </trkpt>
      <trkpt lat="36.75518981181085109710693359375" lon="-118.44482718966901302337646484375">
        <ele>2493.800048828125</ele>
        <time>2021-06-24T22:27:57.000Z</time>
        <extensions>
          <ns3:TrackPointExtension>
            <ns3:atemp>30.0</ns3:atemp>
            <ns3:hr>109</ns3:hr>
          </ns3:TrackPointExtension>
        </extensions>
      </trkpt>
      <trkpt lat="36.755154691636562347412109375" lon="-118.44475929625332355499267578125">
        <ele>2493.800048828125</ele>
        <time>2021-06-24T22:28:03.000Z</time>
        <extensions>
          <ns3:TrackPointExtension>
            <ns3:atemp>30.0</ns3:atemp>
            <ns3:hr>106</ns3:hr>
          </ns3:TrackPointExtension>
        </extensions>
      </trkpt>
      <trkpt lat="36.75514739938080310821533203125" lon="-118.44474286772310733795166015625">
        <ele>2494.199951171875</ele>
        <time>2021-06-24T22:28:05.000Z</time>
        <extensions>
          <ns3:TrackPointExtension>
            <ns3:atemp>30.0</ns3:atemp>
            <ns3:hr>104</ns3:hr>
          </ns3:TrackPointExtension>
        </extensions>
      </trkpt>
      <trkpt lat="36.75512745045125484466552734375" lon="-118.4447287023067474365234375">
        <ele>2494.199951171875</ele>
        <time>2021-06-24T22:28:07.000Z</time>
        <extensions>
          <ns3:TrackPointExtension>
            <ns3:atemp>30.0</ns3:atemp>
            <ns3:hr>104</ns3:hr>
          </ns3:TrackPointExtension>
        </extensions>
      </trkpt>
      <trkpt lat="36.75510448403656482696533203125" lon="-118.444703556597232818603515625">
        <ele>2494</ele>
        <time>2021-06-24T22:28:12.000Z</time>
        <extensions>
          <ns3:TrackPointExtension>
            <ns3:atemp>30.0</ns3:atemp>
            <ns3:hr>101</ns3:hr>
          </ns3:TrackPointExtension>
        </extensions>
      </trkpt>
      <trkpt lat="36.7550787515938282012939453125" lon="-118.44467564485967159271240234375">
        <ele>2494</ele>
        <time>2021-06-24T22:28:15.000Z</time>
        <extensions>
          <ns3:TrackPointExtension>
            <ns3:atemp>30.0</ns3:atemp>
            <ns3:hr>105</ns3:hr>
          </ns3:TrackPointExtension>
        </extensions>
      </trkpt>
      <trkpt lat="36.75506307743489742279052734375" lon="-118.44466558657586574554443359375">
        <ele>2494</ele>
        <time>2021-06-24T22:28:16.000Z</time>
        <extensions>
          <ns3:TrackPointExtension>
            <ns3:atemp>30.0</ns3:atemp>
            <ns3:hr>104</ns3:hr>
          </ns3:TrackPointExtension>
        </extensions>
      </trkpt>
      <trkpt lat="36.75503072328865528106689453125" lon="-118.4446428716182708740234375">
        <ele>2494</ele>
        <time>2021-06-24T22:28:18.000Z</time>
        <extensions>
          <ns3:TrackPointExtension>
            <ns3:atemp>30.0</ns3:atemp>
            <ns3:hr>104</ns3:hr>
          </ns3:TrackPointExtension>
        </extensions>
      </trkpt>
      <trkpt lat="36.75497942604124546051025390625" lon="-118.44457539729773998260498046875">
        <ele>2494.60009765625</ele>
        <time>2021-06-24T22:28:23.000Z</time>
        <extensions>
          <ns3:TrackPointExtension>
            <ns3:atemp>30.0</ns3:atemp>
            <ns3:hr>103</ns3:hr>
          </ns3:TrackPointExtension>
        </extensions>
      </trkpt>
      <trkpt lat="36.75497272051870822906494140625" lon="-118.444569446146488189697265625">
        <ele>2494.800048828125</ele>
        <time>2021-06-24T22:28:24.000Z</time>
        <extensions>
          <ns3:TrackPointExtension>
            <ns3:atemp>30.0</ns3:atemp>
            <ns3:hr>102</ns3:hr>
          </ns3:TrackPointExtension>
        </extensions>
      </trkpt>
      <trkpt lat="36.7549476586282253265380859375" lon="-118.44453197903931140899658203125">
        <ele>2495</ele>
        <time>2021-06-24T22:28:26.000Z</time>
        <extensions>
          <ns3:TrackPointExtension>
            <ns3:atemp>30.0</ns3:atemp>
            <ns3:hr>100</ns3:hr>
          </ns3:TrackPointExtension>
        </extensions>
      </trkpt>
      <trkpt lat="36.75489812158048152923583984375" lon="-118.44447724521160125732421875">
        <ele>2495</ele>
        <time>2021-06-24T22:28:32.000Z</time>
        <extensions>
          <ns3:TrackPointExtension>
            <ns3:atemp>30.0</ns3:atemp>
            <ns3:hr>98</ns3:hr>
          </ns3:TrackPointExtension>
        </extensions>
      </trkpt>
      <trkpt lat="36.75483911298215389251708984375" lon="-118.4444559551775455474853515625">
        <ele>2494.199951171875</ele>
        <time>2021-06-24T22:28:37.000Z</time>
        <extensions>
          <ns3:TrackPointExtension>
            <ns3:atemp>30.0</ns3:atemp>
            <ns3:hr>97</ns3:hr>
          </ns3:TrackPointExtension>
        </extensions>
      </trkpt>
      <trkpt lat="36.75481799058616161346435546875" lon="-118.4444241039454936981201171875">
        <ele>2494.199951171875</ele>
        <time>2021-06-24T22:28:40.000Z</time>
        <extensions>
          <ns3:TrackPointExtension>
            <ns3:atemp>30.0</ns3:atemp>
            <ns3:hr>98</ns3:hr>
          </ns3:TrackPointExtension>
        </extensions>
      </trkpt>
      <trkpt lat="36.754801310598850250244140625" lon="-118.444405496120452880859375">
        <ele>2493.800048828125</ele>
        <time>2021-06-24T22:28:42.000Z</time>
        <extensions>
          <ns3:TrackPointExtension>
            <ns3:atemp>30.0</ns3:atemp>
            <ns3:hr>98</ns3:hr>
          </ns3:TrackPointExtension>
        </extensions>
      </trkpt>
      <trkpt lat="36.75478178076446056365966796875" lon="-118.44438135623931884765625">
        <ele>2494.199951171875</ele>
        <time>2021-06-24T22:28:46.000Z</time>
        <extensions>
          <ns3:TrackPointExtension>
            <ns3:atemp>30.0</ns3:atemp>
            <ns3:hr>97</ns3:hr>
          </ns3:TrackPointExtension>
        </extensions>
      </trkpt>
      <trkpt lat="36.7547652684152126312255859375" lon="-118.444354534149169921875">
        <ele>2494.60009765625</ele>
        <time>2021-06-24T22:28:49.000Z</time>
        <extensions>
          <ns3:TrackPointExtension>
            <ns3:atemp>30.0</ns3:atemp>
            <ns3:hr>97</ns3:hr>
          </ns3:TrackPointExtension>
        </extensions>
      </trkpt>
      <trkpt lat="36.7547602392733097076416015625" lon="-118.44429745338857173919677734375">
        <ele>2494.800048828125</ele>
        <time>2021-06-24T22:28:53.000Z</time>
        <extensions>
          <ns3:TrackPointExtension>
            <ns3:atemp>30.0</ns3:atemp>
            <ns3:hr>96</ns3:hr>
          </ns3:TrackPointExtension>
        </extensions>
      </trkpt>
      <trkpt lat="36.75474858842790126800537109375" lon="-118.44426778145134449005126953125">
        <ele>2494.800048828125</ele>
        <time>2021-06-24T22:28:55.000Z</time>
        <extensions>
          <ns3:TrackPointExtension>
            <ns3:atemp>30.0</ns3:atemp>
            <ns3:hr>96</ns3:hr>
          </ns3:TrackPointExtension>
        </extensions>
      </trkpt>
      <trkpt lat="36.75474531948566436767578125" lon="-118.4442460723221302032470703125">
        <ele>2494.800048828125</ele>
        <time>2021-06-24T22:28:57.000Z</time>
        <extensions>
          <ns3:TrackPointExtension>
            <ns3:atemp>30.0</ns3:atemp>
            <ns3:hr>93</ns3:hr>
          </ns3:TrackPointExtension>
        </extensions>
      </trkpt>
      <trkpt lat="36.75475127063691616058349609375" lon="-118.44423509202897548675537109375">
        <ele>2495</ele>
        <time>2021-06-24T22:28:58.000Z</time>
        <extensions>
          <ns3:TrackPointExtension>
            <ns3:atemp>30.0</ns3:atemp>
            <ns3:hr>96</ns3:hr>
          </ns3:TrackPointExtension>
        </extensions>
      </trkpt>
      <trkpt lat="36.75476518459618091583251953125" lon="-118.44422872178256511688232421875">
        <ele>2495.39990234375</ele>
        <time>2021-06-24T22:28:59.000Z</time>
        <extensions>
          <ns3:TrackPointExtension>
            <ns3:atemp>30.0</ns3:atemp>
            <ns3:hr>95</ns3:hr>
          </ns3:TrackPointExtension>
        </extensions>
      </trkpt>
      <trkpt lat="36.75478077493607997894287109375" lon="-118.4442222677171230316162109375">
        <ele>2495.800048828125</ele>
        <time>2021-06-24T22:29:01.000Z</time>
        <extensions>
          <ns3:TrackPointExtension>
            <ns3:atemp>30.0</ns3:atemp>
            <ns3:hr>95</ns3:hr>
          </ns3:TrackPointExtension>
        </extensions>
      </trkpt>
      <trkpt lat="36.7547884024679660797119140625" lon="-118.44421531073749065399169921875">
        <ele>2495.800048828125</ele>
        <time>2021-06-24T22:29:02.000Z</time>
        <extensions>
          <ns3:TrackPointExtension>
            <ns3:atemp>30.0</ns3:atemp>
            <ns3:hr>95</ns3:hr>
          </ns3:TrackPointExtension>
        </extensions>
      </trkpt>
      <trkpt lat="36.75479167141020298004150390625" lon="-118.44421229325234889984130859375">
        <ele>2495.800048828125</ele>
        <time>2021-06-24T22:29:03.000Z</time>
        <extensions>
          <ns3:TrackPointExtension>
            <ns3:atemp>30.0</ns3:atemp>
            <ns3:hr>96</ns3:hr>
          </ns3:TrackPointExtension>
        </extensions>
      </trkpt>
      <trkpt lat="36.754821427166461944580078125" lon="-118.44417122192680835723876953125">
        <ele>2496.39990234375</ele>
        <time>2021-06-24T22:29:08.000Z</time>
        <extensions>
          <ns3:TrackPointExtension>
            <ns3:atemp>30.0</ns3:atemp>
            <ns3:hr>99</ns3:hr>
          </ns3:TrackPointExtension>
        </extensions>
      </trkpt>
      <trkpt lat="36.75482519902288913726806640625" lon="-118.44412310980260372161865234375">
        <ele>2496.60009765625</ele>
        <time>2021-06-24T22:29:11.000Z</time>
        <extensions>
          <ns3:TrackPointExtension>
            <ns3:atemp>30.0</ns3:atemp>
            <ns3:hr>102</ns3:hr>
          </ns3:TrackPointExtension>
        </extensions>
      </trkpt>
      <trkpt lat="36.754842214286327362060546875" lon="-118.44404063187539577484130859375">
        <ele>2496.39990234375</ele>
        <time>2021-06-24T22:29:17.000Z</time>
        <extensions>
          <ns3:TrackPointExtension>
            <ns3:atemp>30.0</ns3:atemp>
            <ns3:hr>105</ns3:hr>
          </ns3:TrackPointExtension>
        </extensions>
      </trkpt>
      <trkpt lat="36.754836849868297576904296875" lon="-118.44402822665870189666748046875">
        <ele>2496.199951171875</ele>
        <time>2021-06-24T22:29:18.000Z</time>
        <extensions>
          <ns3:TrackPointExtension>
            <ns3:atemp>30.0</ns3:atemp>
            <ns3:hr>106</ns3:hr>
          </ns3:TrackPointExtension>
        </extensions>
      </trkpt>
      <trkpt lat="36.75481128506362438201904296875" lon="-118.443937785923480987548828125">
        <ele>2496.199951171875</ele>
        <time>2021-06-24T22:29:24.000Z</time>
        <extensions>
          <ns3:TrackPointExtension>
            <ns3:atemp>30.0</ns3:atemp>
            <ns3:hr>108</ns3:hr>
          </ns3:TrackPointExtension>
        </extensions>
      </trkpt>
      <trkpt lat="36.7548071779310703277587890625" lon="-118.44391792081296443939208984375">
        <ele>2496.199951171875</ele>
        <time>2021-06-24T22:29:25.000Z</time>
        <extensions>
          <ns3:TrackPointExtension>
            <ns3:atemp>30.0</ns3:atemp>
            <ns3:hr>110</ns3:hr>
          </ns3:TrackPointExtension>
        </extensions>
      </trkpt>
      <trkpt lat="36.7547862231731414794921875" lon="-118.4438608400523662567138671875">
        <ele>2496.199951171875</ele>
        <time>2021-06-24T22:29:28.000Z</time>
        <extensions>
          <ns3:TrackPointExtension>
            <ns3:atemp>30.0</ns3:atemp>
            <ns3:hr>108</ns3:hr>
          </ns3:TrackPointExtension>
        </extensions>
      </trkpt>
      <trkpt lat="36.75477239303290843963623046875" lon="-118.44382035546004772186279296875">
        <ele>2496.199951171875</ele>
        <time>2021-06-24T22:29:30.000Z</time>
        <extensions>
          <ns3:TrackPointExtension>
            <ns3:atemp>30.0</ns3:atemp>
            <ns3:hr>108</ns3:hr>
          </ns3:TrackPointExtension>
        </extensions>
      </trkpt>
      <trkpt lat="36.7547672800719738006591796875" lon="-118.4438113868236541748046875">
        <ele>2496.199951171875</ele>
        <time>2021-06-24T22:29:31.000Z</time>
        <extensions>
          <ns3:TrackPointExtension>
            <ns3:atemp>30.0</ns3:atemp>
            <ns3:hr>109</ns3:hr>
          </ns3:TrackPointExtension>
        </extensions>
      </trkpt>
      <trkpt lat="36.7547723092138767242431640625" lon="-118.44380191527307033538818359375">
        <ele>2496.199951171875</ele>
        <time>2021-06-24T22:29:33.000Z</time>
        <extensions>
          <ns3:TrackPointExtension>
            <ns3:atemp>30.0</ns3:atemp>
            <ns3:hr>107</ns3:hr>
          </ns3:TrackPointExtension>
        </extensions>
      </trkpt>
      <trkpt lat="36.7547862231731414794921875" lon="-118.4437887556850910186767578125">
        <ele>2496.39990234375</ele>
        <time>2021-06-24T22:29:37.000Z</time>
        <extensions>
          <ns3:TrackPointExtension>
            <ns3:atemp>30.0</ns3:atemp>
            <ns3:hr>105</ns3:hr>
          </ns3:TrackPointExtension>
        </extensions>
      </trkpt>
      <trkpt lat="36.75475428812205791473388671875" lon="-118.4438068605959415435791015625">
        <ele>2496.39990234375</ele>
        <time>2021-06-24T22:29:43.000Z</time>
        <extensions>
          <ns3:TrackPointExtension>
            <ns3:atemp>30.0</ns3:atemp>
            <ns3:hr>104</ns3:hr>
          </ns3:TrackPointExtension>
        </extensions>
      </trkpt>
      <trkpt lat="36.7547947727143764495849609375" lon="-118.44376386143267154693603515625">
        <ele>2497</ele>
        <time>2021-06-24T22:29:49.000Z</time>
        <extensions>
          <ns3:TrackPointExtension>
            <ns3:atemp>30.0</ns3:atemp>
            <ns3:hr>107</ns3:hr>
          </ns3:TrackPointExtension>
        </extensions>
      </trkpt>
      <trkpt lat="36.75479837693274021148681640625" lon="-118.44375648535788059234619140625">
        <ele>2496.60009765625</ele>
        <time>2021-06-24T22:29:50.000Z</time>
        <extensions>
          <ns3:TrackPointExtension>
            <ns3:atemp>30.0</ns3:atemp>
            <ns3:hr>108</ns3:hr>
          </ns3:TrackPointExtension>
        </extensions>
      </trkpt>
      <trkpt lat="36.75481564365327358245849609375" lon="-118.443650789558887481689453125">
        <ele>2497</ele>
        <time>2021-06-24T22:29:57.000Z</time>
        <extensions>
          <ns3:TrackPointExtension>
            <ns3:atemp>30.0</ns3:atemp>
            <ns3:hr>108</ns3:hr>
          </ns3:TrackPointExtension>
        </extensions>
      </trkpt>
      <trkpt lat="36.75480793230235576629638671875" lon="-118.443636707961559295654296875">
        <ele>2497.39990234375</ele>
        <time>2021-06-24T22:29:58.000Z</time>
        <extensions>
          <ns3:TrackPointExtension>
            <ns3:atemp>30.0</ns3:atemp>
            <ns3:hr>107</ns3:hr>
          </ns3:TrackPointExtension>
        </extensions>
      </trkpt>
      <trkpt lat="36.7547743208706378936767578125" lon="-118.443568311631679534912109375">
        <ele>2497.60009765625</ele>
        <time>2021-06-24T22:30:03.000Z</time>
        <extensions>
          <ns3:TrackPointExtension>
            <ns3:atemp>29.0</ns3:atemp>
            <ns3:hr>108</ns3:hr>
          </ns3:TrackPointExtension>
        </extensions>
      </trkpt>
      <trkpt lat="36.75475680269300937652587890625" lon="-118.4435366280376911163330078125">
        <ele>2497.60009765625</ele>
        <time>2021-06-24T22:30:06.000Z</time>
        <extensions>
          <ns3:TrackPointExtension>
            <ns3:atemp>29.0</ns3:atemp>
            <ns3:hr>109</ns3:hr>
          </ns3:TrackPointExtension>
        </extensions>
      </trkpt>
      <trkpt lat="36.7547433078289031982421875" lon="-118.44349958002567291259765625">
        <ele>2497.60009765625</ele>
        <time>2021-06-24T22:30:09.000Z</time>
        <extensions>
          <ns3:TrackPointExtension>
            <ns3:atemp>29.0</ns3:atemp>
            <ns3:hr>111</ns3:hr>
          </ns3:TrackPointExtension>
        </extensions>
      </trkpt>
      <trkpt lat="36.75474238581955432891845703125" lon="-118.44348206184804439544677734375">
        <ele>2497.60009765625</ele>
        <time>2021-06-24T22:30:10.000Z</time>
        <extensions>
          <ns3:TrackPointExtension>
            <ns3:atemp>29.0</ns3:atemp>
            <ns3:hr>111</ns3:hr>
          </ns3:TrackPointExtension>
        </extensions>
      </trkpt>
      <trkpt lat="36.754690669476985931396484375" lon="-118.4433820657432079315185546875">
        <ele>2497.199951171875</ele>
        <time>2021-06-24T22:30:16.000Z</time>
        <extensions>
          <ns3:TrackPointExtension>
            <ns3:atemp>29.0</ns3:atemp>
            <ns3:hr>111</ns3:hr>
          </ns3:TrackPointExtension>
        </extensions>
      </trkpt>
      <trkpt lat="36.75468555651605129241943359375" lon="-118.4433629550039768218994140625">
        <ele>2497.199951171875</ele>
        <time>2021-06-24T22:30:18.000Z</time>
        <extensions>
          <ns3:TrackPointExtension>
            <ns3:atemp>29.0</ns3:atemp>
            <ns3:hr>112</ns3:hr>
          </ns3:TrackPointExtension>
        </extensions>
      </trkpt>
      <trkpt lat="36.75466619431972503662109375" lon="-118.4432771243155002593994140625">
        <ele>2496.60009765625</ele>
        <time>2021-06-24T22:30:25.000Z</time>
        <extensions>
          <ns3:TrackPointExtension>
            <ns3:atemp>29.0</ns3:atemp>
            <ns3:hr>113</ns3:hr>
          </ns3:TrackPointExtension>
        </extensions>
      </trkpt>
      <trkpt lat="36.75461531616747379302978515625" lon="-118.44319607131183147430419921875">
        <ele>2496.39990234375</ele>
        <time>2021-06-24T22:30:32.000Z</time>
        <extensions>
          <ns3:TrackPointExtension>
            <ns3:atemp>29.0</ns3:atemp>
            <ns3:hr>115</ns3:hr>
          </ns3:TrackPointExtension>
        </extensions>
      </trkpt>
      <trkpt lat="36.75454574637115001678466796875" lon="-118.443133793771266937255859375">
        <ele>2495.800048828125</ele>
        <time>2021-06-24T22:30:40.000Z</time>
        <extensions>
          <ns3:TrackPointExtension>
            <ns3:atemp>29.0</ns3:atemp>
            <ns3:hr>113</ns3:hr>
          </ns3:TrackPointExtension>
        </extensions>
      </trkpt>
      <trkpt lat="36.754536442458629608154296875" lon="-118.44312784262001514434814453125">
        <ele>2495.800048828125</ele>
        <time>2021-06-24T22:30:41.000Z</time>
        <extensions>
          <ns3:TrackPointExtension>
            <ns3:atemp>29.0</ns3:atemp>
            <ns3:hr>113</ns3:hr>
          </ns3:TrackPointExtension>
        </extensions>
      </trkpt>
      <trkpt lat="36.754419095814228057861328125" lon="-118.44308526255190372467041015625">
        <ele>2495.60009765625</ele>
        <time>2021-06-24T22:30:51.000Z</time>
        <extensions>
          <ns3:TrackPointExtension>
            <ns3:atemp>29.0</ns3:atemp>
            <ns3:hr>111</ns3:hr>
          </ns3:TrackPointExtension>
        </extensions>
      </trkpt>
      <trkpt lat="36.7543786950409412384033203125" lon="-118.4430317021906375885009765625">
        <ele>2496.199951171875</ele>
        <time>2021-06-24T22:30:57.000Z</time>
        <extensions>
          <ns3:TrackPointExtension>
            <ns3:atemp>29.0</ns3:atemp>
            <ns3:hr>114</ns3:hr>
          </ns3:TrackPointExtension>
        </extensions>
      </trkpt>
      <trkpt lat="36.754362098872661590576171875" lon="-118.4430166147649288177490234375">
        <ele>2495.800048828125</ele>
        <time>2021-06-24T22:30:59.000Z</time>
        <extensions>
          <ns3:TrackPointExtension>
            <ns3:atemp>29.0</ns3:atemp>
            <ns3:hr>116</ns3:hr>
          </ns3:TrackPointExtension>
        </extensions>
      </trkpt>
      <trkpt lat="36.75434743054211139678955078125" lon="-118.44300873577594757080078125">
        <ele>2495.800048828125</ele>
        <time>2021-06-24T22:31:01.000Z</time>
        <extensions>
          <ns3:TrackPointExtension>
            <ns3:atemp>29.0</ns3:atemp>
            <ns3:hr>116</ns3:hr>
          </ns3:TrackPointExtension>
        </extensions>
      </trkpt>
      <trkpt lat="36.75433703698217868804931640625" lon="-118.44301720149815082550048828125">
        <ele>2495.39990234375</ele>
        <time>2021-06-24T22:31:04.000Z</time>
        <extensions>
          <ns3:TrackPointExtension>
            <ns3:atemp>30.0</ns3:atemp>
            <ns3:hr>116</ns3:hr>
          </ns3:TrackPointExtension>
        </extensions>
      </trkpt>
      <trkpt lat="36.75431884825229644775390625" lon="-118.44302541576325893402099609375">
        <ele>2495.199951171875</ele>
        <time>2021-06-24T22:31:07.000Z</time>
        <extensions>
          <ns3:TrackPointExtension>
            <ns3:atemp>29.0</ns3:atemp>
            <ns3:hr>116</ns3:hr>
          </ns3:TrackPointExtension>
        </extensions>
      </trkpt>
      <trkpt lat="36.75430803559720516204833984375" lon="-118.44303027726709842681884765625">
        <ele>2496.39990234375</ele>
        <time>2021-06-24T22:31:11.000Z</time>
        <extensions>
          <ns3:TrackPointExtension>
            <ns3:atemp>29.0</ns3:atemp>
            <ns3:hr>113</ns3:hr>
          </ns3:TrackPointExtension>
        </extensions>
      </trkpt>
      <trkpt lat="36.75430677831172943115234375" lon="-118.4430310316383838653564453125">
        <ele>2496.39990234375</ele>
        <time>2021-06-24T22:31:13.000Z</time>
        <extensions>
          <ns3:TrackPointExtension>
            <ns3:atemp>29.0</ns3:atemp>
            <ns3:hr>110</ns3:hr>
          </ns3:TrackPointExtension>
        </extensions>
      </trkpt>
      <trkpt lat="36.754300408065319061279296875" lon="-118.44303262419998645782470703125">
        <ele>2496.39990234375</ele>
        <time>2021-06-24T22:31:15.000Z</time>
        <extensions>
          <ns3:TrackPointExtension>
            <ns3:atemp>29.0</ns3:atemp>
            <ns3:hr>106</ns3:hr>
          </ns3:TrackPointExtension>
        </extensions>
      </trkpt>
      <trkpt lat="36.75430015660822391510009765625" lon="-118.4430333785712718963623046875">
        <ele>2496.39990234375</ele>
        <time>2021-06-24T22:31:18.000Z</time>
        <extensions>
          <ns3:TrackPointExtension>
            <ns3:atemp>29.0</ns3:atemp>
            <ns3:hr>103</ns3:hr>
          </ns3:TrackPointExtension>
        </extensions>
      </trkpt>
      <trkpt lat="36.7542972229421138763427734375" lon="-118.44297395087778568267822265625">
        <ele>2496.39990234375</ele>
        <time>2021-06-24T22:31:26.000Z</time>
        <extensions>
          <ns3:TrackPointExtension>
            <ns3:atemp>29.0</ns3:atemp>
            <ns3:hr>103</ns3:hr>
          </ns3:TrackPointExtension>
        </extensions>
      </trkpt>
      <trkpt lat="36.75426210276782512664794921875" lon="-118.4429217316210269927978515625">
        <ele>2496.39990234375</ele>
        <time>2021-06-24T22:31:31.000Z</time>
        <extensions>
          <ns3:TrackPointExtension>
            <ns3:atemp>29.0</ns3:atemp>
            <ns3:hr>103</ns3:hr>
          </ns3:TrackPointExtension>
        </extensions>
      </trkpt>
      <trkpt lat="36.75425070337951183319091796875" lon="-118.44291024841368198394775390625">
        <ele>2496.39990234375</ele>
        <time>2021-06-24T22:31:33.000Z</time>
        <extensions>
          <ns3:TrackPointExtension>
            <ns3:atemp>29.0</ns3:atemp>
            <ns3:hr>101</ns3:hr>
          </ns3:TrackPointExtension>
        </extensions>
      </trkpt>
      <trkpt lat="36.75425422377884387969970703125" lon="-118.44290387816727161407470703125">
        <ele>2495.60009765625</ele>
        <time>2021-06-24T22:31:40.000Z</time>
        <extensions>
          <ns3:TrackPointExtension>
            <ns3:atemp>29.0</ns3:atemp>
            <ns3:hr>101</ns3:hr>
          </ns3:TrackPointExtension>
        </extensions>
      </trkpt>
      <trkpt lat="36.75426042638719081878662109375" lon="-118.44290588982403278350830078125">
        <ele>2495.60009765625</ele>
        <time>2021-06-24T22:31:41.000Z</time>
        <extensions>
          <ns3:TrackPointExtension>
            <ns3:atemp>29.0</ns3:atemp>
            <ns3:hr>101</ns3:hr>
          </ns3:TrackPointExtension>
        </extensions>
      </trkpt>
      <trkpt lat="36.75424936227500438690185546875" lon="-118.44285316765308380126953125">
        <ele>2496.199951171875</ele>
        <time>2021-06-24T22:31:47.000Z</time>
        <extensions>
          <ns3:TrackPointExtension>
            <ns3:atemp>29.0</ns3:atemp>
            <ns3:hr>98</ns3:hr>
          </ns3:TrackPointExtension>
        </extensions>
      </trkpt>
      <trkpt lat="36.7542288266122341156005859375" lon="-118.44280086457729339599609375">
        <ele>2496.199951171875</ele>
        <time>2021-06-24T22:31:54.000Z</time>
        <extensions>
          <ns3:TrackPointExtension>
            <ns3:atemp>29.0</ns3:atemp>
            <ns3:hr>96</ns3:hr>
          </ns3:TrackPointExtension>
        </extensions>
      </trkpt>
      <trkpt lat="36.75423461012542247772216796875" lon="-118.4427876211702823638916015625">
        <ele>2495.800048828125</ele>
        <time>2021-06-24T22:32:03.000Z</time>
        <extensions>
          <ns3:TrackPointExtension>
            <ns3:atemp>29.0</ns3:atemp>
            <ns3:hr>94</ns3:hr>
          </ns3:TrackPointExtension>
        </extensions>
      </trkpt>
      <trkpt lat="36.7542033456265926361083984375" lon="-118.44274780713021755218505859375">
        <ele>2496.199951171875</ele>
        <time>2021-06-24T22:32:10.000Z</time>
        <extensions>
          <ns3:TrackPointExtension>
            <ns3:atemp>29.0</ns3:atemp>
            <ns3:hr>95</ns3:hr>
          </ns3:TrackPointExtension>
        </extensions>
      </trkpt>
      <trkpt lat="36.75418063066899776458740234375" lon="-118.44265309162437915802001953125">
        <ele>2496.60009765625</ele>
        <time>2021-06-24T22:32:20.000Z</time>
        <extensions>
          <ns3:TrackPointExtension>
            <ns3:atemp>29.0</ns3:atemp>
            <ns3:hr>96</ns3:hr>
          </ns3:TrackPointExtension>
        </extensions>
      </trkpt>
      <trkpt lat="36.75416554324328899383544921875" lon="-118.442638926208019256591796875">
        <ele>2496.60009765625</ele>
        <time>2021-06-24T22:32:22.000Z</time>
        <extensions>
          <ns3:TrackPointExtension>
            <ns3:atemp>29.0</ns3:atemp>
            <ns3:hr>97</ns3:hr>
          </ns3:TrackPointExtension>
        </extensions>
      </trkpt>
      <trkpt lat="36.754143498837947845458984375" lon="-118.44262182712554931640625">
        <ele>2496.60009765625</ele>
        <time>2021-06-24T22:32:24.000Z</time>
        <extensions>
          <ns3:TrackPointExtension>
            <ns3:atemp>29.0</ns3:atemp>
            <ns3:hr>99</ns3:hr>
          </ns3:TrackPointExtension>
        </extensions>
      </trkpt>
      <trkpt lat="36.75412983633577823638916015625" lon="-118.4426072426140308380126953125">
        <ele>2496.60009765625</ele>
        <time>2021-06-24T22:32:26.000Z</time>
        <extensions>
          <ns3:TrackPointExtension>
            <ns3:atemp>29.0</ns3:atemp>
            <ns3:hr>99</ns3:hr>
          </ns3:TrackPointExtension>
        </extensions>
      </trkpt>
      <trkpt lat="36.75413587130606174468994140625" lon="-118.44257430173456668853759765625">
        <ele>2496.800048828125</ele>
        <time>2021-06-24T22:32:31.000Z</time>
        <extensions>
          <ns3:TrackPointExtension>
            <ns3:atemp>29.0</ns3:atemp>
            <ns3:hr>100</ns3:hr>
          </ns3:TrackPointExtension>
        </extensions>
      </trkpt>
      <trkpt lat="36.7541478574275970458984375" lon="-118.4425834380090236663818359375">
        <ele>2497.39990234375</ele>
        <time>2021-06-24T22:32:34.000Z</time>
        <extensions>
          <ns3:TrackPointExtension>
            <ns3:atemp>29.0</ns3:atemp>
            <ns3:hr>100</ns3:hr>
          </ns3:TrackPointExtension>
        </extensions>
      </trkpt>
      <trkpt lat="36.75416889600455760955810546875" lon="-118.44253893010318279266357421875">
        <ele>2498</ele>
        <time>2021-06-24T22:32:39.000Z</time>
        <extensions>
          <ns3:TrackPointExtension>
            <ns3:atemp>29.0</ns3:atemp>
            <ns3:hr>100</ns3:hr>
          </ns3:TrackPointExtension>
        </extensions>
      </trkpt>
      <trkpt lat="36.75416604615747928619384765625" lon="-118.44250238500535488128662109375">
        <ele>2498.39990234375</ele>
        <time>2021-06-24T22:32:42.000Z</time>
        <extensions>
          <ns3:TrackPointExtension>
            <ns3:atemp>29.0</ns3:atemp>
            <ns3:hr>98</ns3:hr>
          </ns3:TrackPointExtension>
        </extensions>
      </trkpt>
      <trkpt lat="36.7541503719985485076904296875" lon="-118.44245058484375476837158203125">
        <ele>2498.39990234375</ele>
        <time>2021-06-24T22:32:47.000Z</time>
        <extensions>
          <ns3:TrackPointExtension>
            <ns3:atemp>29.0</ns3:atemp>
            <ns3:hr>99</ns3:hr>
          </ns3:TrackPointExtension>
        </extensions>
      </trkpt>
      <trkpt lat="36.754133440554141998291015625" lon="-118.44242242164909839630126953125">
        <ele>2498.199951171875</ele>
        <time>2021-06-24T22:32:49.000Z</time>
        <extensions>
          <ns3:TrackPointExtension>
            <ns3:atemp>29.0</ns3:atemp>
            <ns3:hr>101</ns3:hr>
          </ns3:TrackPointExtension>
        </extensions>
      </trkpt>
      <trkpt lat="36.7541456781327724456787109375" lon="-118.44236207194626331329345703125">
        <ele>2498.60009765625</ele>
        <time>2021-06-24T22:32:55.000Z</time>
        <extensions>
          <ns3:TrackPointExtension>
            <ns3:atemp>29.0</ns3:atemp>
            <ns3:hr>104</ns3:hr>
          </ns3:TrackPointExtension>
        </extensions>
      </trkpt>
      <trkpt lat="36.75415263511240482330322265625" lon="-118.4423507563769817352294921875">
        <ele>2498.60009765625</ele>
        <time>2021-06-24T22:32:56.000Z</time>
        <extensions>
          <ns3:TrackPointExtension>
            <ns3:atemp>29.0</ns3:atemp>
            <ns3:hr>104</ns3:hr>
          </ns3:TrackPointExtension>
        </extensions>
      </trkpt>
      <trkpt lat="36.7541714943945407867431640625" lon="-118.44227255322039127349853515625">
        <ele>2498.60009765625</ele>
        <time>2021-06-24T22:33:00.000Z</time>
        <extensions>
          <ns3:TrackPointExtension>
            <ns3:atemp>29.0</ns3:atemp>
            <ns3:hr>106</ns3:hr>
          </ns3:TrackPointExtension>
        </extensions>
      </trkpt>
      <trkpt lat="36.75415867008268833160400390625" lon="-118.44222242943942546844482421875">
        <ele>2498.39990234375</ele>
        <time>2021-06-24T22:33:03.000Z</time>
        <extensions>
          <ns3:TrackPointExtension>
            <ns3:atemp>29.0</ns3:atemp>
            <ns3:hr>106</ns3:hr>
          </ns3:TrackPointExtension>
        </extensions>
      </trkpt>
      <trkpt lat="36.7541520483791828155517578125" lon="-118.44218085519969463348388671875">
        <ele>2498</ele>
        <time>2021-06-24T22:33:06.000Z</time>
        <extensions>
          <ns3:TrackPointExtension>
            <ns3:atemp>29.0</ns3:atemp>
            <ns3:hr>103</ns3:hr>
          </ns3:TrackPointExtension>
        </extensions>
      </trkpt>
      <trkpt lat="36.75415146164596080780029296875" lon="-118.442162834107875823974609375">
        <ele>2498</ele>
        <time>2021-06-24T22:33:07.000Z</time>
        <extensions>
          <ns3:TrackPointExtension>
            <ns3:atemp>29.0</ns3:atemp>
            <ns3:hr>106</ns3:hr>
          </ns3:TrackPointExtension>
        </extensions>
      </trkpt>
      <trkpt lat="36.754136122763156890869140625" lon="-118.44207490794360637664794921875">
        <ele>2498.199951171875</ele>
        <time>2021-06-24T22:33:12.000Z</time>
        <extensions>
          <ns3:TrackPointExtension>
            <ns3:atemp>29.0</ns3:atemp>
            <ns3:hr>108</ns3:hr>
          </ns3:TrackPointExtension>
        </extensions>
      </trkpt>
      <trkpt lat="36.7541309259831905364990234375" lon="-118.4420409612357616424560546875">
        <ele>2498.199951171875</ele>
        <time>2021-06-24T22:33:16.000Z</time>
        <extensions>
          <ns3:TrackPointExtension>
            <ns3:atemp>29.0</ns3:atemp>
            <ns3:hr>105</ns3:hr>
          </ns3:TrackPointExtension>
        </extensions>
      </trkpt>
      <trkpt lat="36.75413905642926692962646484375" lon="-118.44201606698334217071533203125">
        <ele>2498.199951171875</ele>
        <time>2021-06-24T22:33:18.000Z</time>
        <extensions>
          <ns3:TrackPointExtension>
            <ns3:atemp>29.0</ns3:atemp>
            <ns3:hr>104</ns3:hr>
          </ns3:TrackPointExtension>
        </extensions>
      </trkpt>
      <trkpt lat="36.75414693541824817657470703125" lon="-118.44194700010120868682861328125">
        <ele>2498.39990234375</ele>
        <time>2021-06-24T22:33:22.000Z</time>
        <extensions>
          <ns3:TrackPointExtension>
            <ns3:atemp>29.0</ns3:atemp>
            <ns3:hr>106</ns3:hr>
          </ns3:TrackPointExtension>
        </extensions>
      </trkpt>
      <trkpt lat="36.7541456781327724456787109375" lon="-118.4419097006320953369140625">
        <ele>2498.39990234375</ele>
        <time>2021-06-24T22:33:26.000Z</time>
        <extensions>
          <ns3:TrackPointExtension>
            <ns3:atemp>29.0</ns3:atemp>
            <ns3:hr>106</ns3:hr>
          </ns3:TrackPointExtension>
        </extensions>
      </trkpt>
      <trkpt lat="36.75414852797985076904296875" lon="-118.44190634787082672119140625">
        <ele>2498.39990234375</ele>
        <time>2021-06-24T22:33:27.000Z</time>
        <extensions>
          <ns3:TrackPointExtension>
            <ns3:atemp>29.0</ns3:atemp>
            <ns3:hr>105</ns3:hr>
          </ns3:TrackPointExtension>
        </extensions>
      </trkpt>
      <trkpt lat="36.754162274301052093505859375" lon="-118.44188145361840724945068359375">
        <ele>2499.199951171875</ele>
        <time>2021-06-24T22:33:30.000Z</time>
        <extensions>
          <ns3:TrackPointExtension>
            <ns3:atemp>29.0</ns3:atemp>
            <ns3:hr>107</ns3:hr>
          </ns3:TrackPointExtension>
        </extensions>
      </trkpt>
      <trkpt lat="36.7541446723043918609619140625" lon="-118.4418488480150699615478515625">
        <ele>2499.199951171875</ele>
        <time>2021-06-24T22:33:32.000Z</time>
        <extensions>
          <ns3:TrackPointExtension>
            <ns3:atemp>29.0</ns3:atemp>
            <ns3:hr>107</ns3:hr>
          </ns3:TrackPointExtension>
        </extensions>
      </trkpt>
      <trkpt lat="36.75414844416081905364990234375" lon="-118.44184591434895992279052734375">
        <ele>2499</ele>
        <time>2021-06-24T22:33:33.000Z</time>
        <extensions>
          <ns3:TrackPointExtension>
            <ns3:atemp>29.0</ns3:atemp>
            <ns3:hr>107</ns3:hr>
          </ns3:TrackPointExtension>
        </extensions>
      </trkpt>
      <trkpt lat="36.75414777360856533050537109375" lon="-118.44184398651123046875">
        <ele>2498.39990234375</ele>
        <time>2021-06-24T22:33:42.000Z</time>
        <extensions>
          <ns3:TrackPointExtension>
            <ns3:atemp>29.0</ns3:atemp>
            <ns3:hr>108</ns3:hr>
          </ns3:TrackPointExtension>
        </extensions>
      </trkpt>
      <trkpt lat="36.75414861179888248443603515625" lon="-118.441846333444118499755859375">
        <ele>2498.39990234375</ele>
        <time>2021-06-24T22:33:48.000Z</time>
        <extensions>
          <ns3:TrackPointExtension>
            <ns3:atemp>29.0</ns3:atemp>
            <ns3:hr>104</ns3:hr>
          </ns3:TrackPointExtension>
        </extensions>
      </trkpt>
      <trkpt lat="36.7541319318115711212158203125" lon="-118.4418324194848537445068359375">
        <ele>2498.199951171875</ele>
        <time>2021-06-24T22:33:52.000Z</time>
        <extensions>
          <ns3:TrackPointExtension>
            <ns3:atemp>29.0</ns3:atemp>
            <ns3:hr>103</ns3:hr>
          </ns3:TrackPointExtension>
        </extensions>
      </trkpt>
      <trkpt lat="36.75412933342158794403076171875" lon="-118.44182697124779224395751953125">
        <ele>2498.199951171875</ele>
        <time>2021-06-24T22:33:54.000Z</time>
        <extensions>
          <ns3:TrackPointExtension>
            <ns3:atemp>29.0</ns3:atemp>
            <ns3:hr>100</ns3:hr>
          </ns3:TrackPointExtension>
        </extensions>
      </trkpt>
      <trkpt lat="36.75412933342158794403076171875" lon="-118.44182697124779224395751953125">
        <ele>2498.199951171875</ele>
        <time>2021-06-24T22:33:59.000Z</time>
        <extensions>
          <ns3:TrackPointExtension>
            <ns3:atemp>29.0</ns3:atemp>
            <ns3:hr>98</ns3:hr>
          </ns3:TrackPointExtension>
        </extensions>
      </trkpt>
      <trkpt lat="36.75408356823027133941650390625" lon="-118.44178824685513973236083984375">
        <ele>2498.199951171875</ele>
        <time>2021-06-24T22:34:06.000Z</time>
        <extensions>
          <ns3:TrackPointExtension>
            <ns3:atemp>29.0</ns3:atemp>
            <ns3:hr>101</ns3:hr>
          </ns3:TrackPointExtension>
        </extensions>
      </trkpt>
      <trkpt lat="36.75402992404997348785400390625" lon="-118.4417546354234218597412109375">
        <ele>2498.199951171875</ele>
        <time>2021-06-24T22:34:11.000Z</time>
        <extensions>
          <ns3:TrackPointExtension>
            <ns3:atemp>29.0</ns3:atemp>
            <ns3:hr>101</ns3:hr>
          </ns3:TrackPointExtension>
        </extensions>
      </trkpt>
      <trkpt lat="36.754001677036285400390625" lon="-118.44174214638769626617431640625">
        <ele>2498.60009765625</ele>
        <time>2021-06-24T22:34:14.000Z</time>
        <extensions>
          <ns3:TrackPointExtension>
            <ns3:atemp>29.0</ns3:atemp>
            <ns3:hr>99</ns3:hr>
          </ns3:TrackPointExtension>
        </extensions>
      </trkpt>
      <trkpt lat="36.753969825804233551025390625" lon="-118.44172772951424121856689453125">
        <ele>2498.60009765625</ele>
        <time>2021-06-24T22:34:17.000Z</time>
        <extensions>
          <ns3:TrackPointExtension>
            <ns3:atemp>29.0</ns3:atemp>
            <ns3:hr>102</ns3:hr>
          </ns3:TrackPointExtension>
        </extensions>
      </trkpt>
      <trkpt lat="36.75396747887134552001953125" lon="-118.44171498902142047882080078125">
        <ele>2498.60009765625</ele>
        <time>2021-06-24T22:34:19.000Z</time>
        <extensions>
          <ns3:TrackPointExtension>
            <ns3:atemp>29.0</ns3:atemp>
            <ns3:hr>99</ns3:hr>
          </ns3:TrackPointExtension>
        </extensions>
      </trkpt>
      <trkpt lat="36.753961108624935150146484375" lon="-118.44169688411056995391845703125">
        <ele>2498.60009765625</ele>
        <time>2021-06-24T22:34:21.000Z</time>
        <extensions>
          <ns3:TrackPointExtension>
            <ns3:atemp>29.0</ns3:atemp>
            <ns3:hr>100</ns3:hr>
          </ns3:TrackPointExtension>
        </extensions>
      </trkpt>
      <trkpt lat="36.7539391480386257171630859375" lon="-118.44166503287851810455322265625">
        <ele>2498.39990234375</ele>
        <time>2021-06-24T22:34:24.000Z</time>
        <extensions>
          <ns3:TrackPointExtension>
            <ns3:atemp>29.0</ns3:atemp>
            <ns3:hr>99</ns3:hr>
          </ns3:TrackPointExtension>
        </extensions>
      </trkpt>
      <trkpt lat="36.75386848859488964080810546875" lon="-118.44163351692259311676025390625">
        <ele>2498.60009765625</ele>
        <time>2021-06-24T22:34:30.000Z</time>
        <extensions>
          <ns3:TrackPointExtension>
            <ns3:atemp>29.0</ns3:atemp>
            <ns3:hr>101</ns3:hr>
          </ns3:TrackPointExtension>
        </extensions>
      </trkpt>
      <trkpt lat="36.753838397562503814697265625" lon="-118.44162404537200927734375">
        <ele>2498.60009765625</ele>
        <time>2021-06-24T22:34:32.000Z</time>
        <extensions>
          <ns3:TrackPointExtension>
            <ns3:atemp>29.0</ns3:atemp>
            <ns3:hr>98</ns3:hr>
          </ns3:TrackPointExtension>
        </extensions>
      </trkpt>
      <trkpt lat="36.75377980805933475494384765625" lon="-118.44162731431424617767333984375">
        <ele>2498.39990234375</ele>
        <time>2021-06-24T22:34:37.000Z</time>
        <extensions>
          <ns3:TrackPointExtension>
            <ns3:atemp>29.0</ns3:atemp>
            <ns3:hr>101</ns3:hr>
          </ns3:TrackPointExtension>
        </extensions>
      </trkpt>
      <trkpt lat="36.753761284053325653076171875" lon="-118.44162999652326107025146484375">
        <ele>2498.39990234375</ele>
        <time>2021-06-24T22:34:38.000Z</time>
        <extensions>
          <ns3:TrackPointExtension>
            <ns3:atemp>29.0</ns3:atemp>
            <ns3:hr>102</ns3:hr>
          </ns3:TrackPointExtension>
        </extensions>
      </trkpt>
      <trkpt lat="36.75370604731142520904541015625" lon="-118.4416441619396209716796875">
        <ele>2498.60009765625</ele>
        <time>2021-06-24T22:34:42.000Z</time>
        <extensions>
          <ns3:TrackPointExtension>
            <ns3:atemp>29.0</ns3:atemp>
            <ns3:hr>105</ns3:hr>
          </ns3:TrackPointExtension>
        </extensions>
      </trkpt>
      <trkpt lat="36.75368911586701869964599609375" lon="-118.44164290465414524078369140625">
        <ele>2498.60009765625</ele>
        <time>2021-06-24T22:34:44.000Z</time>
        <extensions>
          <ns3:TrackPointExtension>
            <ns3:atemp>29.0</ns3:atemp>
            <ns3:hr>104</ns3:hr>
          </ns3:TrackPointExtension>
        </extensions>
      </trkpt>
      <trkpt lat="36.75368308089673519134521484375" lon="-118.44163410365581512451171875">
        <ele>2498.60009765625</ele>
        <time>2021-06-24T22:34:45.000Z</time>
        <extensions>
          <ns3:TrackPointExtension>
            <ns3:atemp>29.0</ns3:atemp>
            <ns3:hr>105</ns3:hr>
          </ns3:TrackPointExtension>
        </extensions>
      </trkpt>
      <trkpt lat="36.7536541633307933807373046875" lon="-118.44161876477301120758056640625">
        <ele>2498.800048828125</ele>
        <time>2021-06-24T22:34:48.000Z</time>
        <extensions>
          <ns3:TrackPointExtension>
            <ns3:atemp>29.0</ns3:atemp>
            <ns3:hr>103</ns3:hr>
          </ns3:TrackPointExtension>
        </extensions>
      </trkpt>
      <trkpt lat="36.753617115318775177001953125" lon="-118.44162404537200927734375">
        <ele>2499</ele>
        <time>2021-06-24T22:34:50.000Z</time>
        <extensions>
          <ns3:TrackPointExtension>
            <ns3:atemp>29.0</ns3:atemp>
            <ns3:hr>102</ns3:hr>
          </ns3:TrackPointExtension>
        </extensions>
      </trkpt>
      <trkpt lat="36.7535381577908992767333984375" lon="-118.44158791936933994293212890625">
        <ele>2499.199951171875</ele>
        <time>2021-06-24T22:34:58.000Z</time>
        <extensions>
          <ns3:TrackPointExtension>
            <ns3:atemp>29.0</ns3:atemp>
            <ns3:hr>102</ns3:hr>
          </ns3:TrackPointExtension>
        </extensions>
      </trkpt>
      <trkpt lat="36.75350504927337169647216796875" lon="-118.4415846504271030426025390625">
        <ele>2499.199951171875</ele>
        <time>2021-06-24T22:35:01.000Z</time>
        <extensions>
          <ns3:TrackPointExtension>
            <ns3:atemp>29.0</ns3:atemp>
            <ns3:hr>102</ns3:hr>
          </ns3:TrackPointExtension>
        </extensions>
      </trkpt>
      <trkpt lat="36.7534727789461612701416015625" lon="-118.44159387052059173583984375">
        <ele>2499.199951171875</ele>
        <time>2021-06-24T22:35:04.000Z</time>
        <extensions>
          <ns3:TrackPointExtension>
            <ns3:atemp>29.0</ns3:atemp>
            <ns3:hr>103</ns3:hr>
          </ns3:TrackPointExtension>
        </extensions>
      </trkpt>
      <trkpt lat="36.75347034819424152374267578125" lon="-118.4415926970541477203369140625">
        <ele>2499.199951171875</ele>
        <time>2021-06-24T22:35:05.000Z</time>
        <extensions>
          <ns3:TrackPointExtension>
            <ns3:atemp>29.0</ns3:atemp>
            <ns3:hr>103</ns3:hr>
          </ns3:TrackPointExtension>
        </extensions>
      </trkpt>
      <trkpt lat="36.75340413115918636322021484375" lon="-118.44158389605581760406494140625">
        <ele>2499.199951171875</ele>
        <time>2021-06-24T22:35:11.000Z</time>
        <extensions>
          <ns3:TrackPointExtension>
            <ns3:atemp>29.0</ns3:atemp>
            <ns3:hr>105</ns3:hr>
          </ns3:TrackPointExtension>
        </extensions>
      </trkpt>
      <trkpt lat="36.75339558161795139312744140625" lon="-118.4415876679122447967529296875">
        <ele>2499.199951171875</ele>
        <time>2021-06-24T22:35:12.000Z</time>
        <extensions>
          <ns3:TrackPointExtension>
            <ns3:atemp>29.0</ns3:atemp>
            <ns3:hr>104</ns3:hr>
          </ns3:TrackPointExtension>
        </extensions>
      </trkpt>
      <trkpt lat="36.75338049419224262237548828125" lon="-118.44158188439905643463134765625">
        <ele>2498.800048828125</ele>
        <time>2021-06-24T22:35:15.000Z</time>
        <extensions>
          <ns3:TrackPointExtension>
            <ns3:atemp>29.0</ns3:atemp>
            <ns3:hr>105</ns3:hr>
          </ns3:TrackPointExtension>
        </extensions>
      </trkpt>
      <trkpt lat="36.75337328575551509857177734375" lon="-118.44158238731324672698974609375">
        <ele>2498.800048828125</ele>
        <time>2021-06-24T22:35:16.000Z</time>
        <extensions>
          <ns3:TrackPointExtension>
            <ns3:atemp>29.0</ns3:atemp>
            <ns3:hr>105</ns3:hr>
          </ns3:TrackPointExtension>
        </extensions>
      </trkpt>
      <trkpt lat="36.75334931351244449615478515625" lon="-118.4415913559496402740478515625">
        <ele>2499</ele>
        <time>2021-06-24T22:35:18.000Z</time>
        <extensions>
          <ns3:TrackPointExtension>
            <ns3:atemp>29.0</ns3:atemp>
            <ns3:hr>105</ns3:hr>
          </ns3:TrackPointExtension>
        </extensions>
      </trkpt>
      <trkpt lat="36.75333590246737003326416015625" lon="-118.44158942811191082000732421875">
        <ele>2499</ele>
        <time>2021-06-24T22:35:20.000Z</time>
        <extensions>
          <ns3:TrackPointExtension>
            <ns3:atemp>29.0</ns3:atemp>
            <ns3:hr>105</ns3:hr>
          </ns3:TrackPointExtension>
        </extensions>
      </trkpt>
      <trkpt lat="36.75330824218690395355224609375" lon="-118.4415762685239315032958984375">
        <ele>2499</ele>
        <time>2021-06-24T22:35:23.000Z</time>
        <extensions>
          <ns3:TrackPointExtension>
            <ns3:atemp>29.0</ns3:atemp>
            <ns3:hr>105</ns3:hr>
          </ns3:TrackPointExtension>
        </extensions>
      </trkpt>
      <trkpt lat="36.75328980199992656707763671875" lon="-118.44155455939471721649169921875">
        <ele>2499</ele>
        <time>2021-06-24T22:35:25.000Z</time>
        <extensions>
          <ns3:TrackPointExtension>
            <ns3:atemp>29.0</ns3:atemp>
            <ns3:hr>105</ns3:hr>
          </ns3:TrackPointExtension>
        </extensions>
      </trkpt>
      <trkpt lat="36.75325225107371807098388671875" lon="-118.441550619900226593017578125">
        <ele>2499.199951171875</ele>
        <time>2021-06-24T22:35:28.000Z</time>
        <extensions>
          <ns3:TrackPointExtension>
            <ns3:atemp>29.0</ns3:atemp>
            <ns3:hr>105</ns3:hr>
          </ns3:TrackPointExtension>
        </extensions>
      </trkpt>
      <trkpt lat="36.75320480950176715850830078125" lon="-118.44153662212193012237548828125">
        <ele>2499.199951171875</ele>
        <time>2021-06-24T22:35:32.000Z</time>
        <extensions>
          <ns3:TrackPointExtension>
            <ns3:atemp>29.0</ns3:atemp>
            <ns3:hr>104</ns3:hr>
          </ns3:TrackPointExtension>
        </extensions>
      </trkpt>
      <trkpt lat="36.7531750537455081939697265625" lon="-118.44151399098336696624755859375">
        <ele>2499.60009765625</ele>
        <time>2021-06-24T22:35:36.000Z</time>
        <extensions>
          <ns3:TrackPointExtension>
            <ns3:atemp>29.0</ns3:atemp>
            <ns3:hr>104</ns3:hr>
          </ns3:TrackPointExtension>
        </extensions>
      </trkpt>
      <trkpt lat="36.75311026163399219512939453125" lon="-118.44148213975131511688232421875">
        <ele>2500</ele>
        <time>2021-06-24T22:35:43.000Z</time>
        <extensions>
          <ns3:TrackPointExtension>
            <ns3:atemp>29.0</ns3:atemp>
            <ns3:hr>104</ns3:hr>
          </ns3:TrackPointExtension>
        </extensions>
      </trkpt>
      <trkpt lat="36.753003895282745361328125" lon="-118.4414730034768581390380859375">
        <ele>2499.800048828125</ele>
        <time>2021-06-24T22:35:51.000Z</time>
        <extensions>
          <ns3:TrackPointExtension>
            <ns3:atemp>29.0</ns3:atemp>
            <ns3:hr>106</ns3:hr>
          </ns3:TrackPointExtension>
        </extensions>
      </trkpt>
      <trkpt lat="36.75296743400394916534423828125" lon="-118.441476188600063323974609375">
        <ele>2499.800048828125</ele>
        <time>2021-06-24T22:35:55.000Z</time>
        <extensions>
          <ns3:TrackPointExtension>
            <ns3:atemp>29.0</ns3:atemp>
            <ns3:hr>106</ns3:hr>
          </ns3:TrackPointExtension>
        </extensions>
      </trkpt>
      <trkpt lat="36.7529678530991077423095703125" lon="-118.44178053550422191619873046875">
        <ele>2497.199951171875</ele>
        <time>2021-06-24T22:58:17.000Z</time>
        <extensions>
          <ns3:TrackPointExtension>
            <ns3:atemp>28.0</ns3:atemp>
            <ns3:hr>93</ns3:hr>
          </ns3:TrackPointExtension>
        </extensions>
      </trkpt>
      <trkpt lat="36.7529678530991077423095703125" lon="-118.4417814575135707855224609375">
        <ele>2497.199951171875</ele>
        <time>2021-06-24T22:58:18.000Z</time>
        <extensions>
          <ns3:TrackPointExtension>
            <ns3:atemp>28.0</ns3:atemp>
            <ns3:hr>95</ns3:hr>
          </ns3:TrackPointExtension>
        </extensions>
      </trkpt>
      <trkpt lat="36.7529658414423465728759765625" lon="-118.44178154133260250091552734375">
        <ele>2497.199951171875</ele>
        <time>2021-06-24T22:58:21.000Z</time>
        <extensions>
          <ns3:TrackPointExtension>
            <ns3:atemp>28.0</ns3:atemp>
            <ns3:hr>98</ns3:hr>
          </ns3:TrackPointExtension>
        </extensions>
      </trkpt>
      <trkpt lat="36.7529601417481899261474609375" lon="-118.4416978061199188232421875">
        <ele>2497</ele>
        <time>2021-06-24T22:58:30.000Z</time>
        <extensions>
          <ns3:TrackPointExtension>
            <ns3:atemp>28.0</ns3:atemp>
            <ns3:hr>97</ns3:hr>
          </ns3:TrackPointExtension>
        </extensions>
      </trkpt>
      <trkpt lat="36.752971708774566650390625" lon="-118.44166067428886890411376953125">
        <ele>2496.800048828125</ele>
        <time>2021-06-24T22:58:32.000Z</time>
        <extensions>
          <ns3:TrackPointExtension>
            <ns3:atemp>28.0</ns3:atemp>
            <ns3:hr>94</ns3:hr>
          </ns3:TrackPointExtension>
        </extensions>
      </trkpt>
      <trkpt lat="36.75298713147640228271484375" lon="-118.441632091999053955078125">
        <ele>2496.60009765625</ele>
        <time>2021-06-24T22:58:34.000Z</time>
        <extensions>
          <ns3:TrackPointExtension>
            <ns3:atemp>28.0</ns3:atemp>
            <ns3:hr>91</ns3:hr>
          </ns3:TrackPointExtension>
        </extensions>
      </trkpt>
      <trkpt lat="36.752996854484081268310546875" lon="-118.44162044115364551544189453125">
        <ele>2496.39990234375</ele>
        <time>2021-06-24T22:58:35.000Z</time>
        <extensions>
          <ns3:TrackPointExtension>
            <ns3:atemp>28.0</ns3:atemp>
            <ns3:hr>91</ns3:hr>
          </ns3:TrackPointExtension>
        </extensions>
      </trkpt>
      <trkpt lat="36.7530084215104579925537109375" lon="-118.44161390326917171478271484375">
        <ele>2496.60009765625</ele>
        <time>2021-06-24T22:58:37.000Z</time>
        <extensions>
          <ns3:TrackPointExtension>
            <ns3:atemp>28.0</ns3:atemp>
            <ns3:hr>89</ns3:hr>
          </ns3:TrackPointExtension>
        </extensions>
      </trkpt>
      <trkpt lat="36.7530255205929279327392578125" lon="-118.4416171722114086151123046875">
        <ele>2496.60009765625</ele>
        <time>2021-06-24T22:58:39.000Z</time>
        <extensions>
          <ns3:TrackPointExtension>
            <ns3:atemp>28.0</ns3:atemp>
            <ns3:hr>89</ns3:hr>
          </ns3:TrackPointExtension>
        </extensions>
      </trkpt>
      <trkpt lat="36.75305242650210857391357421875" lon="-118.4416285715997219085693359375">
        <ele>2497</ele>
        <time>2021-06-24T22:58:42.000Z</time>
        <extensions>
          <ns3:TrackPointExtension>
            <ns3:atemp>28.0</ns3:atemp>
            <ns3:hr>87</ns3:hr>
          </ns3:TrackPointExtension>
        </extensions>
      </trkpt>
      <trkpt lat="36.75311428494751453399658203125" lon="-118.4416694752871990203857421875">
        <ele>2496.800048828125</ele>
        <time>2021-06-24T22:58:49.000Z</time>
        <extensions>
          <ns3:TrackPointExtension>
            <ns3:atemp>28.0</ns3:atemp>
            <ns3:hr>86</ns3:hr>
          </ns3:TrackPointExtension>
        </extensions>
      </trkpt>
      <trkpt lat="36.75312367267906665802001953125" lon="-118.44167525880038738250732421875">
        <ele>2496.60009765625</ele>
        <time>2021-06-24T22:58:51.000Z</time>
        <extensions>
          <ns3:TrackPointExtension>
            <ns3:atemp>28.0</ns3:atemp>
            <ns3:hr>85</ns3:hr>
          </ns3:TrackPointExtension>
        </extensions>
      </trkpt>
      <trkpt lat="36.75316725857555866241455078125" lon="-118.44170241616666316986083984375">
        <ele>2496.199951171875</ele>
        <time>2021-06-24T22:58:56.000Z</time>
        <extensions>
          <ns3:TrackPointExtension>
            <ns3:atemp>28.0</ns3:atemp>
            <ns3:hr>86</ns3:hr>
          </ns3:TrackPointExtension>
        </extensions>
      </trkpt>
      <trkpt lat="36.75322475843131542205810546875" lon="-118.44171381555497646331787109375">
        <ele>2496.199951171875</ele>
        <time>2021-06-24T22:58:59.000Z</time>
        <extensions>
          <ns3:TrackPointExtension>
            <ns3:atemp>28.0</ns3:atemp>
            <ns3:hr>84</ns3:hr>
          </ns3:TrackPointExtension>
        </extensions>
      </trkpt>
      <trkpt lat="36.7532439529895782470703125" lon="-118.441711552441120147705078125">
        <ele>2496.199951171875</ele>
        <time>2021-06-24T22:59:00.000Z</time>
        <extensions>
          <ns3:TrackPointExtension>
            <ns3:atemp>28.0</ns3:atemp>
            <ns3:hr>84</ns3:hr>
          </ns3:TrackPointExtension>
        </extensions>
      </trkpt>
      <trkpt lat="36.7532722838222980499267578125" lon="-118.441712222993373870849609375">
        <ele>2496</ele>
        <time>2021-06-24T22:59:02.000Z</time>
        <extensions>
          <ns3:TrackPointExtension>
            <ns3:atemp>28.0</ns3:atemp>
            <ns3:hr>84</ns3:hr>
          </ns3:TrackPointExtension>
        </extensions>
      </trkpt>
      <trkpt lat="36.75330338068306446075439453125" lon="-118.4417080320417881011962890625">
        <ele>2496</ele>
        <time>2021-06-24T22:59:06.000Z</time>
        <extensions>
          <ns3:TrackPointExtension>
            <ns3:atemp>28.0</ns3:atemp>
            <ns3:hr>82</ns3:hr>
          </ns3:TrackPointExtension>
        </extensions>
      </trkpt>
      <trkpt lat="36.7533172108232975006103515625" lon="-118.44171934761106967926025390625">
        <ele>2496</ele>
        <time>2021-06-24T22:59:08.000Z</time>
        <extensions>
          <ns3:TrackPointExtension>
            <ns3:atemp>28.0</ns3:atemp>
            <ns3:hr>82</ns3:hr>
          </ns3:TrackPointExtension>
        </extensions>
      </trkpt>
      <trkpt lat="36.7533587850630283355712890625" lon="-118.441733010113239288330078125">
        <ele>2496</ele>
        <time>2021-06-24T22:59:12.000Z</time>
        <extensions>
          <ns3:TrackPointExtension>
            <ns3:atemp>28.0</ns3:atemp>
            <ns3:hr>80</ns3:hr>
          </ns3:TrackPointExtension>
        </extensions>
      </trkpt>
      <trkpt lat="36.75336926244199275970458984375" lon="-118.4417375363409519195556640625">
        <ele>2496</ele>
        <time>2021-06-24T22:59:13.000Z</time>
        <extensions>
          <ns3:TrackPointExtension>
            <ns3:atemp>28.0</ns3:atemp>
            <ns3:hr>80</ns3:hr>
          </ns3:TrackPointExtension>
        </extensions>
      </trkpt>
      <trkpt lat="36.7533981800079345703125" lon="-118.4417308308184146881103515625">
        <ele>2496</ele>
        <time>2021-06-24T22:59:16.000Z</time>
        <extensions>
          <ns3:TrackPointExtension>
            <ns3:atemp>28.0</ns3:atemp>
            <ns3:hr>81</ns3:hr>
          </ns3:TrackPointExtension>
        </extensions>
      </trkpt>
      <trkpt lat="36.7534137703478336334228515625" lon="-118.4417271427810192108154296875">
        <ele>2496</ele>
        <time>2021-06-24T22:59:18.000Z</time>
        <extensions>
          <ns3:TrackPointExtension>
            <ns3:atemp>28.0</ns3:atemp>
            <ns3:hr>82</ns3:hr>
          </ns3:TrackPointExtension>
        </extensions>
      </trkpt>
      <trkpt lat="36.75343212671577930450439453125" lon="-118.44173066318035125732421875">
        <ele>2496.39990234375</ele>
        <time>2021-06-24T22:59:20.000Z</time>
        <extensions>
          <ns3:TrackPointExtension>
            <ns3:atemp>28.0</ns3:atemp>
            <ns3:hr>82</ns3:hr>
          </ns3:TrackPointExtension>
        </extensions>
      </trkpt>
      <trkpt lat="36.75347453914582729339599609375" lon="-118.44175388105213642120361328125">
        <ele>2496.199951171875</ele>
        <time>2021-06-24T22:59:23.000Z</time>
        <extensions>
          <ns3:TrackPointExtension>
            <ns3:atemp>28.0</ns3:atemp>
            <ns3:hr>83</ns3:hr>
          </ns3:TrackPointExtension>
        </extensions>
      </trkpt>
      <trkpt lat="36.75352583639323711395263671875" lon="-118.44176075421273708343505859375">
        <ele>2495.800048828125</ele>
        <time>2021-06-24T22:59:27.000Z</time>
        <extensions>
          <ns3:TrackPointExtension>
            <ns3:atemp>28.0</ns3:atemp>
            <ns3:hr>84</ns3:hr>
          </ns3:TrackPointExtension>
        </extensions>
      </trkpt>
      <trkpt lat="36.7535592801868915557861328125" lon="-118.441760838031768798828125">
        <ele>2495.60009765625</ele>
        <time>2021-06-24T22:59:31.000Z</time>
        <extensions>
          <ns3:TrackPointExtension>
            <ns3:atemp>28.0</ns3:atemp>
            <ns3:hr>83</ns3:hr>
          </ns3:TrackPointExtension>
        </extensions>
      </trkpt>
      <trkpt lat="36.75357445143163204193115234375" lon="-118.441769219934940338134765625">
        <ele>2495.60009765625</ele>
        <time>2021-06-24T22:59:33.000Z</time>
        <extensions>
          <ns3:TrackPointExtension>
            <ns3:atemp>28.0</ns3:atemp>
            <ns3:hr>82</ns3:hr>
          </ns3:TrackPointExtension>
        </extensions>
      </trkpt>
      <trkpt lat="36.753584258258342742919921875" lon="-118.4417770989239215850830078125">
        <ele>2495.60009765625</ele>
        <time>2021-06-24T22:59:34.000Z</time>
        <extensions>
          <ns3:TrackPointExtension>
            <ns3:atemp>28.0</ns3:atemp>
            <ns3:hr>82</ns3:hr>
          </ns3:TrackPointExtension>
        </extensions>
      </trkpt>
      <trkpt lat="36.75359255634248256683349609375" lon="-118.44178170897066593170166015625">
        <ele>2495.800048828125</ele>
        <time>2021-06-24T22:59:35.000Z</time>
        <extensions>
          <ns3:TrackPointExtension>
            <ns3:atemp>28.0</ns3:atemp>
            <ns3:hr>81</ns3:hr>
          </ns3:TrackPointExtension>
        </extensions>
      </trkpt>
      <trkpt lat="36.753629185259342193603515625" lon="-118.4418077766895294189453125">
        <ele>2495.39990234375</ele>
        <time>2021-06-24T22:59:41.000Z</time>
        <extensions>
          <ns3:TrackPointExtension>
            <ns3:atemp>28.0</ns3:atemp>
            <ns3:hr>82</ns3:hr>
          </ns3:TrackPointExtension>
        </extensions>
      </trkpt>
      <trkpt lat="36.75366983748972415924072265625" lon="-118.441803418099880218505859375">
        <ele>2495.39990234375</ele>
        <time>2021-06-24T22:59:46.000Z</time>
        <extensions>
          <ns3:TrackPointExtension>
            <ns3:atemp>28.0</ns3:atemp>
            <ns3:hr>81</ns3:hr>
          </ns3:TrackPointExtension>
        </extensions>
      </trkpt>
      <trkpt lat="36.7537279240787029266357421875" lon="-118.441798388957977294921875">
        <ele>2496</ele>
        <time>2021-06-24T22:59:50.000Z</time>
        <extensions>
          <ns3:TrackPointExtension>
            <ns3:atemp>28.0</ns3:atemp>
            <ns3:hr>81</ns3:hr>
          </ns3:TrackPointExtension>
        </extensions>
      </trkpt>
      <trkpt lat="36.753770001232624053955078125" lon="-118.441788665950298309326171875">
        <ele>2495.800048828125</ele>
        <time>2021-06-24T22:59:53.000Z</time>
        <extensions>
          <ns3:TrackPointExtension>
            <ns3:atemp>28.0</ns3:atemp>
            <ns3:hr>81</ns3:hr>
          </ns3:TrackPointExtension>
        </extensions>
      </trkpt>
      <trkpt lat="36.7538881860673427581787109375" lon="-118.44182931818068027496337890625">
        <ele>2495.800048828125</ele>
        <time>2021-06-24T23:00:02.000Z</time>
        <extensions>
          <ns3:TrackPointExtension>
            <ns3:atemp>28.0</ns3:atemp>
            <ns3:hr>81</ns3:hr>
          </ns3:TrackPointExtension>
        </extensions>
      </trkpt>
      <trkpt lat="36.753952391445636749267578125" lon="-118.44186435453593730926513671875">
        <ele>2496</ele>
        <time>2021-06-24T23:00:09.000Z</time>
        <extensions>
          <ns3:TrackPointExtension>
            <ns3:atemp>28.0</ns3:atemp>
            <ns3:hr>81</ns3:hr>
          </ns3:TrackPointExtension>
        </extensions>
      </trkpt>
      <trkpt lat="36.75399966537952423095703125" lon="-118.44186435453593730926513671875">
        <ele>2495.60009765625</ele>
        <time>2021-06-24T23:00:13.000Z</time>
        <extensions>
          <ns3:TrackPointExtension>
            <ns3:atemp>28.0</ns3:atemp>
            <ns3:hr>80</ns3:hr>
          </ns3:TrackPointExtension>
        </extensions>
      </trkpt>
      <trkpt lat="36.75400930456817150115966796875" lon="-118.441891260445117950439453125">
        <ele>2495.60009765625</ele>
        <time>2021-06-24T23:00:16.000Z</time>
        <extensions>
          <ns3:TrackPointExtension>
            <ns3:atemp>28.0</ns3:atemp>
            <ns3:hr>79</ns3:hr>
          </ns3:TrackPointExtension>
        </extensions>
      </trkpt>
      <trkpt lat="36.75405674614012241363525390625" lon="-118.4419772587716579437255859375">
        <ele>2495.39990234375</ele>
        <time>2021-06-24T23:00:25.000Z</time>
        <extensions>
          <ns3:TrackPointExtension>
            <ns3:atemp>29.0</ns3:atemp>
            <ns3:hr>80</ns3:hr>
          </ns3:TrackPointExtension>
        </extensions>
      </trkpt>
      <trkpt lat="36.75406806170940399169921875" lon="-118.4419816173613071441650390625">
        <ele>2495.60009765625</ele>
        <time>2021-06-24T23:00:26.000Z</time>
        <extensions>
          <ns3:TrackPointExtension>
            <ns3:atemp>29.0</ns3:atemp>
            <ns3:hr>79</ns3:hr>
          </ns3:TrackPointExtension>
        </extensions>
      </trkpt>
      <trkpt lat="36.75410024821758270263671875" lon="-118.44197935424745082855224609375">
        <ele>2495.60009765625</ele>
        <time>2021-06-24T23:00:28.000Z</time>
        <extensions>
          <ns3:TrackPointExtension>
            <ns3:atemp>29.0</ns3:atemp>
            <ns3:hr>78</ns3:hr>
          </ns3:TrackPointExtension>
        </extensions>
      </trkpt>
      <trkpt lat="36.7541245557367801666259765625" lon="-118.44195655547082424163818359375">
        <ele>2495.60009765625</ele>
        <time>2021-06-24T23:00:30.000Z</time>
        <extensions>
          <ns3:TrackPointExtension>
            <ns3:atemp>29.0</ns3:atemp>
            <ns3:hr>78</ns3:hr>
          </ns3:TrackPointExtension>
        </extensions>
      </trkpt>
      <trkpt lat="36.75416654907166957855224609375" lon="-118.4418629296123981475830078125">
        <ele>2495.800048828125</ele>
        <time>2021-06-24T23:00:37.000Z</time>
        <extensions>
          <ns3:TrackPointExtension>
            <ns3:atemp>29.0</ns3:atemp>
            <ns3:hr>76</ns3:hr>
          </ns3:TrackPointExtension>
        </extensions>
      </trkpt>
      <trkpt lat="36.75418834201991558074951171875" lon="-118.4418475069105625152587890625">
        <ele>2495.800048828125</ele>
        <time>2021-06-24T23:00:39.000Z</time>
        <extensions>
          <ns3:TrackPointExtension>
            <ns3:atemp>29.0</ns3:atemp>
            <ns3:hr>76</ns3:hr>
          </ns3:TrackPointExtension>
        </extensions>
      </trkpt>
      <trkpt lat="36.75419856794178485870361328125" lon="-118.441841639578342437744140625">
        <ele>2495.800048828125</ele>
        <time>2021-06-24T23:00:40.000Z</time>
        <extensions>
          <ns3:TrackPointExtension>
            <ns3:atemp>29.0</ns3:atemp>
            <ns3:hr>76</ns3:hr>
          </ns3:TrackPointExtension>
        </extensions>
      </trkpt>
      <trkpt lat="36.754240728914737701416015625" lon="-118.44179612584412097930908203125">
        <ele>2496</ele>
        <time>2021-06-24T23:00:45.000Z</time>
        <extensions>
          <ns3:TrackPointExtension>
            <ns3:atemp>29.0</ns3:atemp>
            <ns3:hr>76</ns3:hr>
          </ns3:TrackPointExtension>
        </extensions>
      </trkpt>
      <trkpt lat="36.75425003282725811004638671875" lon="-118.4417650289833545684814453125">
        <ele>2496.199951171875</ele>
        <time>2021-06-24T23:00:47.000Z</time>
        <extensions>
          <ns3:TrackPointExtension>
            <ns3:atemp>29.0</ns3:atemp>
            <ns3:hr>77</ns3:hr>
          </ns3:TrackPointExtension>
        </extensions>
      </trkpt>
      <trkpt lat="36.754268221557140350341796875" lon="-118.44170995987951755523681640625">
        <ele>2496.800048828125</ele>
        <time>2021-06-24T23:00:51.000Z</time>
        <extensions>
          <ns3:TrackPointExtension>
            <ns3:atemp>29.0</ns3:atemp>
            <ns3:hr>78</ns3:hr>
          </ns3:TrackPointExtension>
        </extensions>
      </trkpt>
      <trkpt lat="36.75427014939486980438232421875" lon="-118.44169906340539455413818359375">
        <ele>2496.800048828125</ele>
        <time>2021-06-24T23:00:52.000Z</time>
        <extensions>
          <ns3:TrackPointExtension>
            <ns3:atemp>29.0</ns3:atemp>
            <ns3:hr>75</ns3:hr>
          </ns3:TrackPointExtension>
        </extensions>
      </trkpt>
      <trkpt lat="36.7542747594416141510009765625" lon="-118.44167844392359256744384765625">
        <ele>2496.800048828125</ele>
        <time>2021-06-24T23:00:53.000Z</time>
        <extensions>
          <ns3:TrackPointExtension>
            <ns3:atemp>29.0</ns3:atemp>
            <ns3:hr>79</ns3:hr>
          </ns3:TrackPointExtension>
        </extensions>
      </trkpt>
      <trkpt lat="36.7542861588299274444580078125" lon="-118.44161507673561573028564453125">
        <ele>2497.199951171875</ele>
        <time>2021-06-24T23:00:56.000Z</time>
        <extensions>
          <ns3:TrackPointExtension>
            <ns3:atemp>29.0</ns3:atemp>
            <ns3:hr>81</ns3:hr>
          </ns3:TrackPointExtension>
        </extensions>
      </trkpt>
      <trkpt lat="36.754292361438274383544921875" lon="-118.441553302109241485595703125">
        <ele>2497.39990234375</ele>
        <time>2021-06-24T23:00:59.000Z</time>
        <extensions>
          <ns3:TrackPointExtension>
            <ns3:atemp>29.0</ns3:atemp>
            <ns3:hr>85</ns3:hr>
          </ns3:TrackPointExtension>
        </extensions>
      </trkpt>
      <trkpt lat="36.75428439863026142120361328125" lon="-118.4414585866034030914306640625">
        <ele>2497.800048828125</ele>
        <time>2021-06-24T23:01:05.000Z</time>
        <extensions>
          <ns3:TrackPointExtension>
            <ns3:atemp>29.0</ns3:atemp>
            <ns3:hr>87</ns3:hr>
          </ns3:TrackPointExtension>
        </extensions>
      </trkpt>
      <trkpt lat="36.75427258014678955078125" lon="-118.4414287470281124114990234375">
        <ele>2497.800048828125</ele>
        <time>2021-06-24T23:01:07.000Z</time>
        <extensions>
          <ns3:TrackPointExtension>
            <ns3:atemp>29.0</ns3:atemp>
            <ns3:hr>89</ns3:hr>
          </ns3:TrackPointExtension>
        </extensions>
      </trkpt>
      <trkpt lat="36.7542871646583080291748046875" lon="-118.44140519388020038604736328125">
        <ele>2498.199951171875</ele>
        <time>2021-06-24T23:01:09.000Z</time>
        <extensions>
          <ns3:TrackPointExtension>
            <ns3:atemp>29.0</ns3:atemp>
            <ns3:hr>90</ns3:hr>
          </ns3:TrackPointExtension>
        </extensions>
      </trkpt>
      <trkpt lat="36.754295043647289276123046875" lon="-118.441393375396728515625">
        <ele>2498.199951171875</ele>
        <time>2021-06-24T23:01:10.000Z</time>
        <extensions>
          <ns3:TrackPointExtension>
            <ns3:atemp>29.0</ns3:atemp>
            <ns3:hr>90</ns3:hr>
          </ns3:TrackPointExtension>
        </extensions>
      </trkpt>
      <trkpt lat="36.7543086223304271697998046875" lon="-118.44129857607185840606689453125">
        <ele>2498.60009765625</ele>
        <time>2021-06-24T23:01:16.000Z</time>
        <extensions>
          <ns3:TrackPointExtension>
            <ns3:atemp>29.0</ns3:atemp>
            <ns3:hr>93</ns3:hr>
          </ns3:TrackPointExtension>
        </extensions>
      </trkpt>
      <trkpt lat="36.75431440584361553192138671875" lon="-118.4412874281406402587890625">
        <ele>2498.800048828125</ele>
        <time>2021-06-24T23:01:17.000Z</time>
        <extensions>
          <ns3:TrackPointExtension>
            <ns3:atemp>29.0</ns3:atemp>
            <ns3:hr>94</ns3:hr>
          </ns3:TrackPointExtension>
        </extensions>
      </trkpt>
      <trkpt lat="36.75431842915713787078857421875" lon="-118.4412748552858829498291015625">
        <ele>2499</ele>
        <time>2021-06-24T23:01:18.000Z</time>
        <extensions>
          <ns3:TrackPointExtension>
            <ns3:atemp>29.0</ns3:atemp>
            <ns3:hr>95</ns3:hr>
          </ns3:TrackPointExtension>
        </extensions>
      </trkpt>
      <trkpt lat="36.75432396121323108673095703125" lon="-118.4412326104938983917236328125">
        <ele>2499.199951171875</ele>
        <time>2021-06-24T23:01:21.000Z</time>
        <extensions>
          <ns3:TrackPointExtension>
            <ns3:atemp>29.0</ns3:atemp>
            <ns3:hr>98</ns3:hr>
          </ns3:TrackPointExtension>
        </extensions>
      </trkpt>
      <trkpt lat="36.75432957708835601806640625" lon="-118.441201262176036834716796875">
        <ele>2499.39990234375</ele>
        <time>2021-06-24T23:01:24.000Z</time>
        <extensions>
          <ns3:TrackPointExtension>
            <ns3:atemp>29.0</ns3:atemp>
            <ns3:hr>101</ns3:hr>
          </ns3:TrackPointExtension>
        </extensions>
      </trkpt>
      <trkpt lat="36.75433200784027576446533203125" lon="-118.4411575086414813995361328125">
        <ele>2499.800048828125</ele>
        <time>2021-06-24T23:01:27.000Z</time>
        <extensions>
          <ns3:TrackPointExtension>
            <ns3:atemp>29.0</ns3:atemp>
            <ns3:hr>101</ns3:hr>
          </ns3:TrackPointExtension>
        </extensions>
      </trkpt>
      <trkpt lat="36.75434273667633533477783203125" lon="-118.44113730825483798980712890625">
        <ele>2500</ele>
        <time>2021-06-24T23:01:31.000Z</time>
        <extensions>
          <ns3:TrackPointExtension>
            <ns3:atemp>29.0</ns3:atemp>
            <ns3:hr>102</ns3:hr>
          </ns3:TrackPointExtension>
        </extensions>
      </trkpt>
      <trkpt lat="36.754349358379840850830078125" lon="-118.44114116393029689788818359375">
        <ele>2500.199951171875</ele>
        <time>2021-06-24T23:01:33.000Z</time>
        <extensions>
          <ns3:TrackPointExtension>
            <ns3:atemp>29.0</ns3:atemp>
            <ns3:hr>102</ns3:hr>
          </ns3:TrackPointExtension>
        </extensions>
      </trkpt>
      <trkpt lat="36.75436503253877162933349609375" lon="-118.4411326982080936431884765625">
        <ele>2500.199951171875</ele>
        <time>2021-06-24T23:01:36.000Z</time>
        <extensions>
          <ns3:TrackPointExtension>
            <ns3:atemp>29.0</ns3:atemp>
            <ns3:hr>103</ns3:hr>
          </ns3:TrackPointExtension>
        </extensions>
      </trkpt>
      <trkpt lat="36.75436033867299556732177734375" lon="-118.44108399935066699981689453125">
        <ele>2500.60009765625</ele>
        <time>2021-06-24T23:01:39.000Z</time>
        <extensions>
          <ns3:TrackPointExtension>
            <ns3:atemp>29.0</ns3:atemp>
            <ns3:hr>103</ns3:hr>
          </ns3:TrackPointExtension>
        </extensions>
      </trkpt>
      <trkpt lat="36.7543624341487884521484375" lon="-118.441069163382053375244140625">
        <ele>2500.60009765625</ele>
        <time>2021-06-24T23:01:40.000Z</time>
        <extensions>
          <ns3:TrackPointExtension>
            <ns3:atemp>29.0</ns3:atemp>
            <ns3:hr>103</ns3:hr>
          </ns3:TrackPointExtension>
        </extensions>
      </trkpt>
      <trkpt lat="36.75436033867299556732177734375" lon="-118.4409979172050952911376953125">
        <ele>2501.199951171875</ele>
        <time>2021-06-24T23:01:45.000Z</time>
        <extensions>
          <ns3:TrackPointExtension>
            <ns3:atemp>29.0</ns3:atemp>
            <ns3:hr>104</ns3:hr>
          </ns3:TrackPointExtension>
        </extensions>
      </trkpt>
      <trkpt lat="36.7543659545481204986572265625" lon="-118.4409851767122745513916015625">
        <ele>2501.39990234375</ele>
        <time>2021-06-24T23:01:46.000Z</time>
        <extensions>
          <ns3:TrackPointExtension>
            <ns3:atemp>29.0</ns3:atemp>
            <ns3:hr>105</ns3:hr>
          </ns3:TrackPointExtension>
        </extensions>
      </trkpt>
      <trkpt lat="36.7543672956526279449462890625" lon="-118.4409749507904052734375">
        <ele>2501.60009765625</ele>
        <time>2021-06-24T23:01:47.000Z</time>
        <extensions>
          <ns3:TrackPointExtension>
            <ns3:atemp>29.0</ns3:atemp>
            <ns3:hr>106</ns3:hr>
          </ns3:TrackPointExtension>
        </extensions>
      </trkpt>
      <trkpt lat="36.75433821044862270355224609375" lon="-118.44090345315635204315185546875">
        <ele>2502</ele>
        <time>2021-06-24T23:01:53.000Z</time>
        <extensions>
          <ns3:TrackPointExtension>
            <ns3:atemp>29.0</ns3:atemp>
            <ns3:hr>105</ns3:hr>
          </ns3:TrackPointExtension>
        </extensions>
      </trkpt>
      <trkpt lat="36.7543364502489566802978515625" lon="-118.44089071266353130340576171875">
        <ele>2502.199951171875</ele>
        <time>2021-06-24T23:01:54.000Z</time>
        <extensions>
          <ns3:TrackPointExtension>
            <ns3:atemp>29.0</ns3:atemp>
            <ns3:hr>108</ns3:hr>
          </ns3:TrackPointExtension>
        </extensions>
      </trkpt>
      <trkpt lat="36.7543404735624790191650390625" lon="-118.4408366493880748748779296875">
        <ele>2502.39990234375</ele>
        <time>2021-06-24T23:01:58.000Z</time>
        <extensions>
          <ns3:TrackPointExtension>
            <ns3:atemp>29.0</ns3:atemp>
            <ns3:hr>109</ns3:hr>
          </ns3:TrackPointExtension>
        </extensions>
      </trkpt>
      <trkpt lat="36.7543361149728298187255859375" lon="-118.44082407653331756591796875">
        <ele>2502.60009765625</ele>
        <time>2021-06-24T23:01:59.000Z</time>
        <extensions>
          <ns3:TrackPointExtension>
            <ns3:atemp>29.0</ns3:atemp>
            <ns3:hr>110</ns3:hr>
          </ns3:TrackPointExtension>
        </extensions>
      </trkpt>
      <trkpt lat="36.754327230155467987060546875" lon="-118.44070077873766422271728515625">
        <ele>2502.800048828125</ele>
        <time>2021-06-24T23:02:07.000Z</time>
        <extensions>
          <ns3:TrackPointExtension>
            <ns3:atemp>29.0</ns3:atemp>
            <ns3:hr>109</ns3:hr>
          </ns3:TrackPointExtension>
        </extensions>
      </trkpt>
      <trkpt lat="36.7543163336813449859619140625" lon="-118.44065266661345958709716796875">
        <ele>2502.60009765625</ele>
        <time>2021-06-24T23:02:10.000Z</time>
        <extensions>
          <ns3:TrackPointExtension>
            <ns3:atemp>29.0</ns3:atemp>
            <ns3:hr>107</ns3:hr>
          </ns3:TrackPointExtension>
        </extensions>
      </trkpt>
      <trkpt lat="36.75430334173142910003662109375" lon="-118.44060773961246013641357421875">
        <ele>2502.199951171875</ele>
        <time>2021-06-24T23:02:14.000Z</time>
        <extensions>
          <ns3:TrackPointExtension>
            <ns3:atemp>29.0</ns3:atemp>
            <ns3:hr>106</ns3:hr>
          </ns3:TrackPointExtension>
        </extensions>
      </trkpt>
      <trkpt lat="36.75430200062692165374755859375" lon="-118.440542109310626983642578125">
        <ele>2501.800048828125</ele>
        <time>2021-06-24T23:02:19.000Z</time>
        <extensions>
          <ns3:TrackPointExtension>
            <ns3:atemp>29.0</ns3:atemp>
            <ns3:hr>106</ns3:hr>
          </ns3:TrackPointExtension>
        </extensions>
      </trkpt>
      <trkpt lat="36.7542931996285915374755859375" lon="-118.44054621644318103790283203125">
        <ele>2501.800048828125</ele>
        <time>2021-06-24T23:02:21.000Z</time>
        <extensions>
          <ns3:TrackPointExtension>
            <ns3:atemp>29.0</ns3:atemp>
            <ns3:hr>108</ns3:hr>
          </ns3:TrackPointExtension>
        </extensions>
      </trkpt>
      <trkpt lat="36.75425388850271701812744140625" lon="-118.440595082938671112060546875">
        <ele>2502</ele>
        <time>2021-06-24T23:02:30.000Z</time>
        <extensions>
          <ns3:TrackPointExtension>
            <ns3:atemp>29.0</ns3:atemp>
            <ns3:hr>105</ns3:hr>
          </ns3:TrackPointExtension>
        </extensions>
      </trkpt>
      <trkpt lat="36.754258833825588226318359375" lon="-118.44058980233967304229736328125">
        <ele>2502</ele>
        <time>2021-06-24T23:02:31.000Z</time>
        <extensions>
          <ns3:TrackPointExtension>
            <ns3:atemp>29.0</ns3:atemp>
            <ns3:hr>105</ns3:hr>
          </ns3:TrackPointExtension>
        </extensions>
      </trkpt>
      <trkpt lat="36.754260845482349395751953125" lon="-118.44055526889860630035400390625">
        <ele>2502.199951171875</ele>
        <time>2021-06-24T23:02:33.000Z</time>
        <extensions>
          <ns3:TrackPointExtension>
            <ns3:atemp>29.0</ns3:atemp>
            <ns3:hr>101</ns3:hr>
          </ns3:TrackPointExtension>
        </extensions>
      </trkpt>
      <trkpt lat="36.75425640307366847991943359375" lon="-118.44049374572932720184326171875">
        <ele>2502.39990234375</ele>
        <time>2021-06-24T23:02:37.000Z</time>
        <extensions>
          <ns3:TrackPointExtension>
            <ns3:atemp>29.0</ns3:atemp>
            <ns3:hr>101</ns3:hr>
          </ns3:TrackPointExtension>
        </extensions>
      </trkpt>
      <trkpt lat="36.75426344387233257293701171875" lon="-118.440433479845523834228515625">
        <ele>2502.60009765625</ele>
        <time>2021-06-24T23:02:42.000Z</time>
        <extensions>
          <ns3:TrackPointExtension>
            <ns3:atemp>29.0</ns3:atemp>
            <ns3:hr>100</ns3:hr>
          </ns3:TrackPointExtension>
        </extensions>
      </trkpt>
      <trkpt lat="36.7542774416506290435791015625" lon="-118.44036852009594440460205078125">
        <ele>2502.800048828125</ele>
        <time>2021-06-24T23:02:46.000Z</time>
        <extensions>
          <ns3:TrackPointExtension>
            <ns3:atemp>29.0</ns3:atemp>
            <ns3:hr>100</ns3:hr>
          </ns3:TrackPointExtension>
        </extensions>
      </trkpt>
      <trkpt lat="36.7542871646583080291748046875" lon="-118.440355360507965087890625">
        <ele>2503</ele>
        <time>2021-06-24T23:02:47.000Z</time>
        <extensions>
          <ns3:TrackPointExtension>
            <ns3:atemp>29.0</ns3:atemp>
            <ns3:hr>100</ns3:hr>
          </ns3:TrackPointExtension>
        </extensions>
      </trkpt>
      <trkpt lat="36.75429764203727245330810546875" lon="-118.44027631916105747222900390625">
        <ele>2503</ele>
        <time>2021-06-24T23:02:51.000Z</time>
        <extensions>
          <ns3:TrackPointExtension>
            <ns3:atemp>29.0</ns3:atemp>
            <ns3:hr>99</ns3:hr>
          </ns3:TrackPointExtension>
        </extensions>
      </trkpt>
      <trkpt lat="36.754308454692363739013671875" lon="-118.44023172743618488311767578125">
        <ele>2503.199951171875</ele>
        <time>2021-06-24T23:02:54.000Z</time>
        <extensions>
          <ns3:TrackPointExtension>
            <ns3:atemp>29.0</ns3:atemp>
            <ns3:hr>100</ns3:hr>
          </ns3:TrackPointExtension>
        </extensions>
      </trkpt>
      <trkpt lat="36.7543382942676544189453125" lon="-118.440188057720661163330078125">
        <ele>2503.39990234375</ele>
        <time>2021-06-24T23:02:57.000Z</time>
        <extensions>
          <ns3:TrackPointExtension>
            <ns3:atemp>29.0</ns3:atemp>
            <ns3:hr>101</ns3:hr>
          </ns3:TrackPointExtension>
        </extensions>
      </trkpt>
      <trkpt lat="36.75434022210538387298583984375" lon="-118.44017657451331615447998046875">
        <ele>2503.800048828125</ele>
        <time>2021-06-24T23:02:58.000Z</time>
        <extensions>
          <ns3:TrackPointExtension>
            <ns3:atemp>29.0</ns3:atemp>
            <ns3:hr>101</ns3:hr>
          </ns3:TrackPointExtension>
        </extensions>
      </trkpt>
      <trkpt lat="36.7543532140552997589111328125" lon="-118.4401045739650726318359375">
        <ele>2504.199951171875</ele>
        <time>2021-06-24T23:03:03.000Z</time>
        <extensions>
          <ns3:TrackPointExtension>
            <ns3:atemp>29.0</ns3:atemp>
            <ns3:hr>102</ns3:hr>
          </ns3:TrackPointExtension>
        </extensions>
      </trkpt>
      <trkpt lat="36.75434038974344730377197265625" lon="-118.44002251513302326202392578125">
        <ele>2504.39990234375</ele>
        <time>2021-06-24T23:03:09.000Z</time>
        <extensions>
          <ns3:TrackPointExtension>
            <ns3:atemp>29.0</ns3:atemp>
            <ns3:hr>105</ns3:hr>
          </ns3:TrackPointExtension>
        </extensions>
      </trkpt>
      <trkpt lat="36.754343993961811065673828125" lon="-118.43997339718043804168701171875">
        <ele>2504.39990234375</ele>
        <time>2021-06-24T23:03:11.000Z</time>
        <extensions>
          <ns3:TrackPointExtension>
            <ns3:atemp>30.0</ns3:atemp>
            <ns3:hr>106</ns3:hr>
          </ns3:TrackPointExtension>
        </extensions>
      </trkpt>
      <trkpt lat="36.75432714633643627166748046875" lon="-118.439933247864246368408203125">
        <ele>2504.800048828125</ele>
        <time>2021-06-24T23:03:15.000Z</time>
        <extensions>
          <ns3:TrackPointExtension>
            <ns3:atemp>30.0</ns3:atemp>
            <ns3:hr>107</ns3:hr>
          </ns3:TrackPointExtension>
        </extensions>
      </trkpt>
      <trkpt lat="36.75431893207132816314697265625" lon="-118.4399159811437129974365234375">
        <ele>2505</ele>
        <time>2021-06-24T23:03:16.000Z</time>
        <extensions>
          <ns3:TrackPointExtension>
            <ns3:atemp>30.0</ns3:atemp>
            <ns3:hr>107</ns3:hr>
          </ns3:TrackPointExtension>
        </extensions>
      </trkpt>
      <trkpt lat="36.75430702976882457733154296875" lon="-118.43988387845456600189208984375">
        <ele>2505</ele>
        <time>2021-06-24T23:03:18.000Z</time>
        <extensions>
          <ns3:TrackPointExtension>
            <ns3:atemp>30.0</ns3:atemp>
            <ns3:hr>107</ns3:hr>
          </ns3:TrackPointExtension>
        </extensions>
      </trkpt>
      <trkpt lat="36.7542945407330989837646484375" lon="-118.4398603253066539764404296875">
        <ele>2505.60009765625</ele>
        <time>2021-06-24T23:03:21.000Z</time>
        <extensions>
          <ns3:TrackPointExtension>
            <ns3:atemp>30.0</ns3:atemp>
            <ns3:hr>110</ns3:hr>
          </ns3:TrackPointExtension>
        </extensions>
      </trkpt>
      <trkpt lat="36.75429739058017730712890625" lon="-118.439846746623516082763671875">
        <ele>2505.60009765625</ele>
        <time>2021-06-24T23:03:22.000Z</time>
        <extensions>
          <ns3:TrackPointExtension>
            <ns3:atemp>30.0</ns3:atemp>
            <ns3:hr>110</ns3:hr>
          </ns3:TrackPointExtension>
        </extensions>
      </trkpt>
      <trkpt lat="36.7542915232479572296142578125" lon="-118.43983124010264873504638671875">
        <ele>2505.800048828125</ele>
        <time>2021-06-24T23:03:23.000Z</time>
        <extensions>
          <ns3:TrackPointExtension>
            <ns3:atemp>30.0</ns3:atemp>
            <ns3:hr>111</ns3:hr>
          </ns3:TrackPointExtension>
        </extensions>
      </trkpt>
      <trkpt lat="36.7542848177254199981689453125" lon="-118.43981866724789142608642578125">
        <ele>2506</ele>
        <time>2021-06-24T23:03:24.000Z</time>
        <extensions>
          <ns3:TrackPointExtension>
            <ns3:atemp>30.0</ns3:atemp>
            <ns3:hr>112</ns3:hr>
          </ns3:TrackPointExtension>
        </extensions>
      </trkpt>
      <trkpt lat="36.75427417270839214324951171875" lon="-118.43979754485189914703369140625">
        <ele>2506.199951171875</ele>
        <time>2021-06-24T23:03:26.000Z</time>
        <extensions>
          <ns3:TrackPointExtension>
            <ns3:atemp>30.0</ns3:atemp>
            <ns3:hr>113</ns3:hr>
          </ns3:TrackPointExtension>
        </extensions>
      </trkpt>
      <trkpt lat="36.7542623542249202728271484375" lon="-118.43978715129196643829345703125">
        <ele>2506.199951171875</ele>
        <time>2021-06-24T23:03:27.000Z</time>
        <extensions>
          <ns3:TrackPointExtension>
            <ns3:atemp>30.0</ns3:atemp>
            <ns3:hr>113</ns3:hr>
          </ns3:TrackPointExtension>
        </extensions>
      </trkpt>
      <trkpt lat="36.75424668006598949432373046875" lon="-118.43975043855607509613037109375">
        <ele>2506.199951171875</ele>
        <time>2021-06-24T23:03:29.000Z</time>
        <extensions>
          <ns3:TrackPointExtension>
            <ns3:atemp>30.0</ns3:atemp>
            <ns3:hr>114</ns3:hr>
          </ns3:TrackPointExtension>
        </extensions>
      </trkpt>
      <trkpt lat="36.75424768589437007904052734375" lon="-118.4397342614829540252685546875">
        <ele>2506.60009765625</ele>
        <time>2021-06-24T23:03:30.000Z</time>
        <extensions>
          <ns3:TrackPointExtension>
            <ns3:atemp>30.0</ns3:atemp>
            <ns3:hr>115</ns3:hr>
          </ns3:TrackPointExtension>
        </extensions>
      </trkpt>
      <trkpt lat="36.754252128303050994873046875" lon="-118.43972529284656047821044921875">
        <ele>2506.800048828125</ele>
        <time>2021-06-24T23:03:31.000Z</time>
        <extensions>
          <ns3:TrackPointExtension>
            <ns3:atemp>30.0</ns3:atemp>
            <ns3:hr>115</ns3:hr>
          </ns3:TrackPointExtension>
        </extensions>
      </trkpt>
      <trkpt lat="36.75425439141690731048583984375" lon="-118.4397094510495662689208984375">
        <ele>2507</ele>
        <time>2021-06-24T23:03:33.000Z</time>
        <extensions>
          <ns3:TrackPointExtension>
            <ns3:atemp>30.0</ns3:atemp>
            <ns3:hr>116</ns3:hr>
          </ns3:TrackPointExtension>
        </extensions>
      </trkpt>
      <trkpt lat="36.7542579956352710723876953125" lon="-118.43969427980482578277587890625">
        <ele>2507.39990234375</ele>
        <time>2021-06-24T23:03:34.000Z</time>
        <extensions>
          <ns3:TrackPointExtension>
            <ns3:atemp>30.0</ns3:atemp>
            <ns3:hr>116</ns3:hr>
          </ns3:TrackPointExtension>
        </extensions>
      </trkpt>
      <trkpt lat="36.7542524635791778564453125" lon="-118.43967835418879985809326171875">
        <ele>2507.39990234375</ele>
        <time>2021-06-24T23:03:36.000Z</time>
        <extensions>
          <ns3:TrackPointExtension>
            <ns3:atemp>30.0</ns3:atemp>
            <ns3:hr>116</ns3:hr>
          </ns3:TrackPointExtension>
        </extensions>
      </trkpt>
      <trkpt lat="36.75423528067767620086669921875" lon="-118.4396675415337085723876953125">
        <ele>2508</ele>
        <time>2021-06-24T23:03:38.000Z</time>
        <extensions>
          <ns3:TrackPointExtension>
            <ns3:atemp>30.0</ns3:atemp>
            <ns3:hr>117</ns3:hr>
          </ns3:TrackPointExtension>
        </extensions>
      </trkpt>
      <trkpt lat="36.75422941334545612335205078125" lon="-118.43965438194572925567626953125">
        <ele>2508.199951171875</ele>
        <time>2021-06-24T23:03:40.000Z</time>
        <extensions>
          <ns3:TrackPointExtension>
            <ns3:atemp>30.0</ns3:atemp>
            <ns3:hr>117</ns3:hr>
          </ns3:TrackPointExtension>
        </extensions>
      </trkpt>
      <trkpt lat="36.7542066983878612518310546875" lon="-118.43961934559047222137451171875">
        <ele>2508.39990234375</ele>
        <time>2021-06-24T23:03:44.000Z</time>
        <extensions>
          <ns3:TrackPointExtension>
            <ns3:atemp>30.0</ns3:atemp>
            <ns3:hr>117</ns3:hr>
          </ns3:TrackPointExtension>
        </extensions>
      </trkpt>
      <trkpt lat="36.7541979812085628509521484375" lon="-118.43961062841117382049560546875">
        <ele>2508.60009765625</ele>
        <time>2021-06-24T23:03:45.000Z</time>
        <extensions>
          <ns3:TrackPointExtension>
            <ns3:atemp>30.0</ns3:atemp>
            <ns3:hr>117</ns3:hr>
          </ns3:TrackPointExtension>
        </extensions>
      </trkpt>
      <trkpt lat="36.7541838996112346649169921875" lon="-118.43959269113838672637939453125">
        <ele>2508.39990234375</ele>
        <time>2021-06-24T23:03:46.000Z</time>
        <extensions>
          <ns3:TrackPointExtension>
            <ns3:atemp>30.0</ns3:atemp>
            <ns3:hr>117</ns3:hr>
          </ns3:TrackPointExtension>
        </extensions>
      </trkpt>
      <trkpt lat="36.75417878665030002593994140625" lon="-118.43954524956643581390380859375">
        <ele>2509</ele>
        <time>2021-06-24T23:03:49.000Z</time>
        <extensions>
          <ns3:TrackPointExtension>
            <ns3:atemp>30.0</ns3:atemp>
            <ns3:hr>119</ns3:hr>
          </ns3:TrackPointExtension>
        </extensions>
      </trkpt>
      <trkpt lat="36.75416286103427410125732421875" lon="-118.43949780799448490142822265625">
        <ele>2509.199951171875</ele>
        <time>2021-06-24T23:03:53.000Z</time>
        <extensions>
          <ns3:TrackPointExtension>
            <ns3:atemp>29.0</ns3:atemp>
            <ns3:hr>118</ns3:hr>
          </ns3:TrackPointExtension>
        </extensions>
      </trkpt>
      <trkpt lat="36.75415582023561000823974609375" lon="-118.439468555152416229248046875">
        <ele>2509.60009765625</ele>
        <time>2021-06-24T23:03:56.000Z</time>
        <extensions>
          <ns3:TrackPointExtension>
            <ns3:atemp>30.0</ns3:atemp>
            <ns3:hr>118</ns3:hr>
          </ns3:TrackPointExtension>
        </extensions>
      </trkpt>
      <trkpt lat="36.75415062345564365386962890625" lon="-118.43944030813872814178466796875">
        <ele>2509.800048828125</ele>
        <time>2021-06-24T23:03:59.000Z</time>
        <extensions>
          <ns3:TrackPointExtension>
            <ns3:atemp>30.0</ns3:atemp>
            <ns3:hr>118</ns3:hr>
          </ns3:TrackPointExtension>
        </extensions>
      </trkpt>
      <trkpt lat="36.75415582023561000823974609375" lon="-118.43941935338079929351806640625">
        <ele>2510</ele>
        <time>2021-06-24T23:04:01.000Z</time>
        <extensions>
          <ns3:TrackPointExtension>
            <ns3:atemp>30.0</ns3:atemp>
            <ns3:hr>118</ns3:hr>
          </ns3:TrackPointExtension>
        </extensions>
      </trkpt>
      <trkpt lat="36.75415657460689544677734375" lon="-118.43937995843589305877685546875">
        <ele>2510.199951171875</ele>
        <time>2021-06-24T23:04:03.000Z</time>
        <extensions>
          <ns3:TrackPointExtension>
            <ns3:atemp>30.0</ns3:atemp>
            <ns3:hr>117</ns3:hr>
          </ns3:TrackPointExtension>
        </extensions>
      </trkpt>
      <trkpt lat="36.75414106808602809906005859375" lon="-118.439356572926044464111328125">
        <ele>2510.60009765625</ele>
        <time>2021-06-24T23:04:05.000Z</time>
        <extensions>
          <ns3:TrackPointExtension>
            <ns3:atemp>30.0</ns3:atemp>
            <ns3:hr>117</ns3:hr>
          </ns3:TrackPointExtension>
        </extensions>
      </trkpt>
      <trkpt lat="36.7541212029755115509033203125" lon="-118.439300917088985443115234375">
        <ele>2510.800048828125</ele>
        <time>2021-06-24T23:04:11.000Z</time>
        <extensions>
          <ns3:TrackPointExtension>
            <ns3:atemp>30.0</ns3:atemp>
            <ns3:hr>116</ns3:hr>
          </ns3:TrackPointExtension>
        </extensions>
      </trkpt>
      <trkpt lat="36.75411231815814971923828125" lon="-118.43929077498614788055419921875">
        <ele>2511</ele>
        <time>2021-06-24T23:04:12.000Z</time>
        <extensions>
          <ns3:TrackPointExtension>
            <ns3:atemp>30.0</ns3:atemp>
            <ns3:hr>116</ns3:hr>
          </ns3:TrackPointExtension>
        </extensions>
      </trkpt>
      <trkpt lat="36.75410385243594646453857421875" lon="-118.43927987851202487945556640625">
        <ele>2511</ele>
        <time>2021-06-24T23:04:13.000Z</time>
        <extensions>
          <ns3:TrackPointExtension>
            <ns3:atemp>30.0</ns3:atemp>
            <ns3:hr>116</ns3:hr>
          </ns3:TrackPointExtension>
        </extensions>
      </trkpt>
      <trkpt lat="36.75407602451741695404052734375" lon="-118.43924853019416332244873046875">
        <ele>2511.199951171875</ele>
        <time>2021-06-24T23:04:15.000Z</time>
        <extensions>
          <ns3:TrackPointExtension>
            <ns3:atemp>30.0</ns3:atemp>
            <ns3:hr>115</ns3:hr>
          </ns3:TrackPointExtension>
        </extensions>
      </trkpt>
      <trkpt lat="36.75403721630573272705078125" lon="-118.43918667174875736236572265625">
        <ele>2511.800048828125</ele>
        <time>2021-06-24T23:04:19.000Z</time>
        <extensions>
          <ns3:TrackPointExtension>
            <ns3:atemp>30.0</ns3:atemp>
            <ns3:hr>113</ns3:hr>
          </ns3:TrackPointExtension>
        </extensions>
      </trkpt>
      <trkpt lat="36.75400637090206146240234375" lon="-118.439151383936405181884765625">
        <ele>2512</ele>
        <time>2021-06-24T23:04:22.000Z</time>
        <extensions>
          <ns3:TrackPointExtension>
            <ns3:atemp>30.0</ns3:atemp>
            <ns3:hr>110</ns3:hr>
          </ns3:TrackPointExtension>
        </extensions>
      </trkpt>
      <trkpt lat="36.7539763636887073516845703125" lon="-118.439111150801181793212890625">
        <ele>2512.199951171875</ele>
        <time>2021-06-24T23:04:25.000Z</time>
        <extensions>
          <ns3:TrackPointExtension>
            <ns3:atemp>30.0</ns3:atemp>
            <ns3:hr>113</ns3:hr>
          </ns3:TrackPointExtension>
        </extensions>
      </trkpt>
      <trkpt lat="36.75396521575748920440673828125" lon="-118.43910276889801025390625">
        <ele>2512.60009765625</ele>
        <time>2021-06-24T23:04:26.000Z</time>
        <extensions>
          <ns3:TrackPointExtension>
            <ns3:atemp>30.0</ns3:atemp>
            <ns3:hr>113</ns3:hr>
          </ns3:TrackPointExtension>
        </extensions>
      </trkpt>
      <trkpt lat="36.75394342280924320220947265625" lon="-118.43909312970936298370361328125">
        <ele>2512.800048828125</ele>
        <time>2021-06-24T23:04:28.000Z</time>
        <extensions>
          <ns3:TrackPointExtension>
            <ns3:atemp>30.0</ns3:atemp>
            <ns3:hr>112</ns3:hr>
          </ns3:TrackPointExtension>
        </extensions>
      </trkpt>
      <trkpt lat="36.7539180256426334381103515625" lon="-118.43905423767864704132080078125">
        <ele>2513.199951171875</ele>
        <time>2021-06-24T23:04:32.000Z</time>
        <extensions>
          <ns3:TrackPointExtension>
            <ns3:atemp>30.0</ns3:atemp>
            <ns3:hr>112</ns3:hr>
          </ns3:TrackPointExtension>
        </extensions>
      </trkpt>
      <trkpt lat="36.75389765761792659759521484375" lon="-118.4390422515571117401123046875">
        <ele>2513.60009765625</ele>
        <time>2021-06-24T23:04:36.000Z</time>
        <extensions>
          <ns3:TrackPointExtension>
            <ns3:atemp>30.0</ns3:atemp>
            <ns3:hr>110</ns3:hr>
          </ns3:TrackPointExtension>
        </extensions>
      </trkpt>
      <trkpt lat="36.75389078445732593536376953125" lon="-118.43903278000652790069580078125">
        <ele>2514.199951171875</ele>
        <time>2021-06-24T23:04:38.000Z</time>
        <extensions>
          <ns3:TrackPointExtension>
            <ns3:atemp>30.0</ns3:atemp>
            <ns3:hr>107</ns3:hr>
          </ns3:TrackPointExtension>
        </extensions>
      </trkpt>
      <trkpt lat="36.7538984119892120361328125" lon="-118.43903613276779651641845703125">
        <ele>2514.199951171875</ele>
        <time>2021-06-24T23:04:39.000Z</time>
        <extensions>
          <ns3:TrackPointExtension>
            <ns3:atemp>30.0</ns3:atemp>
            <ns3:hr>112</ns3:hr>
          </ns3:TrackPointExtension>
        </extensions>
      </trkpt>
      <trkpt lat="36.7539368011057376861572265625" lon="-118.439062200486660003662109375">
        <ele>2515.199951171875</ele>
        <time>2021-06-24T23:04:44.000Z</time>
        <extensions>
          <ns3:TrackPointExtension>
            <ns3:atemp>30.0</ns3:atemp>
            <ns3:hr>113</ns3:hr>
          </ns3:TrackPointExtension>
        </extensions>
      </trkpt>
      <trkpt lat="36.75395934842526912689208984375" lon="-118.43905608169734477996826171875">
        <ele>2515.39990234375</ele>
        <time>2021-06-24T23:04:46.000Z</time>
        <extensions>
          <ns3:TrackPointExtension>
            <ns3:atemp>30.0</ns3:atemp>
            <ns3:hr>111</ns3:hr>
          </ns3:TrackPointExtension>
        </extensions>
      </trkpt>
      <trkpt lat="36.75395951606333255767822265625" lon="-118.4390462748706340789794921875">
        <ele>2515.39990234375</ele>
        <time>2021-06-24T23:04:47.000Z</time>
        <extensions>
          <ns3:TrackPointExtension>
            <ns3:atemp>30.0</ns3:atemp>
            <ns3:hr>113</ns3:hr>
          </ns3:TrackPointExtension>
        </extensions>
      </trkpt>
      <trkpt lat="36.75394409336149692535400390625" lon="-118.43899154104292392730712890625">
        <ele>2516.199951171875</ele>
        <time>2021-06-24T23:04:50.000Z</time>
        <extensions>
          <ns3:TrackPointExtension>
            <ns3:atemp>30.0</ns3:atemp>
            <ns3:hr>114</ns3:hr>
          </ns3:TrackPointExtension>
        </extensions>
      </trkpt>
      <trkpt lat="36.75394543446600437164306640625" lon="-118.43897402286529541015625">
        <ele>2516.39990234375</ele>
        <time>2021-06-24T23:04:52.000Z</time>
        <extensions>
          <ns3:TrackPointExtension>
            <ns3:atemp>30.0</ns3:atemp>
            <ns3:hr>116</ns3:hr>
          </ns3:TrackPointExtension>
        </extensions>
      </trkpt>
      <trkpt lat="36.75395549274981021881103515625" lon="-118.43894979916512966156005859375">
        <ele>2517.199951171875</ele>
        <time>2021-06-24T23:04:55.000Z</time>
        <extensions>
          <ns3:TrackPointExtension>
            <ns3:atemp>30.0</ns3:atemp>
            <ns3:hr>118</ns3:hr>
          </ns3:TrackPointExtension>
        </extensions>
      </trkpt>
      <trkpt lat="36.75396102480590343475341796875" lon="-118.438953571021556854248046875">
        <ele>2517.39990234375</ele>
        <time>2021-06-24T23:04:57.000Z</time>
        <extensions>
          <ns3:TrackPointExtension>
            <ns3:atemp>29.0</ns3:atemp>
            <ns3:hr>119</ns3:hr>
          </ns3:TrackPointExtension>
        </extensions>
      </trkpt>
      <trkpt lat="36.7539636231958866119384765625" lon="-118.438949547708034515380859375">
        <ele>2517.800048828125</ele>
        <time>2021-06-24T23:04:59.000Z</time>
        <extensions>
          <ns3:TrackPointExtension>
            <ns3:atemp>29.0</ns3:atemp>
            <ns3:hr>119</ns3:hr>
          </ns3:TrackPointExtension>
        </extensions>
      </trkpt>
      <trkpt lat="36.7539676465094089508056640625" lon="-118.4389485418796539306640625">
        <ele>2517.800048828125</ele>
        <time>2021-06-24T23:05:00.000Z</time>
        <extensions>
          <ns3:TrackPointExtension>
            <ns3:atemp>30.0</ns3:atemp>
            <ns3:hr>119</ns3:hr>
          </ns3:TrackPointExtension>
        </extensions>
      </trkpt>
      <trkpt lat="36.753978542983531951904296875" lon="-118.43894183635711669921875">
        <ele>2518.39990234375</ele>
        <time>2021-06-24T23:05:02.000Z</time>
        <extensions>
          <ns3:TrackPointExtension>
            <ns3:atemp>30.0</ns3:atemp>
            <ns3:hr>120</ns3:hr>
          </ns3:TrackPointExtension>
        </extensions>
      </trkpt>
      <trkpt lat="36.7539880983531475067138671875" lon="-118.43893404118716716766357421875">
        <ele>2518.60009765625</ele>
        <time>2021-06-24T23:05:04.000Z</time>
        <extensions>
          <ns3:TrackPointExtension>
            <ns3:atemp>29.0</ns3:atemp>
            <ns3:hr>120</ns3:hr>
          </ns3:TrackPointExtension>
        </extensions>
      </trkpt>
      <trkpt lat="36.75400678999722003936767578125" lon="-118.43893177807331085205078125">
        <ele>2519</ele>
        <time>2021-06-24T23:05:07.000Z</time>
        <extensions>
          <ns3:TrackPointExtension>
            <ns3:atemp>29.0</ns3:atemp>
            <ns3:hr>121</ns3:hr>
          </ns3:TrackPointExtension>
        </extensions>
      </trkpt>
      <trkpt lat="36.7540269903838634490966796875" lon="-118.438918031752109527587890625">
        <ele>2520</ele>
        <time>2021-06-24T23:05:11.000Z</time>
        <extensions>
          <ns3:TrackPointExtension>
            <ns3:atemp>29.0</ns3:atemp>
            <ns3:hr>124</ns3:hr>
          </ns3:TrackPointExtension>
        </extensions>
      </trkpt>
      <trkpt lat="36.754038222134113311767578125" lon="-118.4389068000018596649169921875">
        <ele>2520.199951171875</ele>
        <time>2021-06-24T23:05:13.000Z</time>
        <extensions>
          <ns3:TrackPointExtension>
            <ns3:atemp>29.0</ns3:atemp>
            <ns3:hr>123</ns3:hr>
          </ns3:TrackPointExtension>
        </extensions>
      </trkpt>
      <trkpt lat="36.7540621943771839141845703125" lon="-118.43885307200253009796142578125">
        <ele>2521</ele>
        <time>2021-06-24T23:05:19.000Z</time>
        <extensions>
          <ns3:TrackPointExtension>
            <ns3:atemp>29.0</ns3:atemp>
            <ns3:hr>124</ns3:hr>
          </ns3:TrackPointExtension>
        </extensions>
      </trkpt>
      <trkpt lat="36.75405859015882015228271484375" lon="-118.4388387389481067657470703125">
        <ele>2521</ele>
        <time>2021-06-24T23:05:20.000Z</time>
        <extensions>
          <ns3:TrackPointExtension>
            <ns3:atemp>29.0</ns3:atemp>
            <ns3:hr>123</ns3:hr>
          </ns3:TrackPointExtension>
        </extensions>
      </trkpt>
      <trkpt lat="36.7540467716753482818603515625" lon="-118.438810743391513824462890625">
        <ele>2521.39990234375</ele>
        <time>2021-06-24T23:05:22.000Z</time>
        <extensions>
          <ns3:TrackPointExtension>
            <ns3:atemp>29.0</ns3:atemp>
            <ns3:hr>119</ns3:hr>
          </ns3:TrackPointExtension>
        </extensions>
      </trkpt>
      <trkpt lat="36.75404098816215991973876953125" lon="-118.4388063848018646240234375">
        <ele>2521.60009765625</ele>
        <time>2021-06-24T23:05:24.000Z</time>
        <extensions>
          <ns3:TrackPointExtension>
            <ns3:atemp>29.0</ns3:atemp>
            <ns3:hr>122</ns3:hr>
          </ns3:TrackPointExtension>
        </extensions>
      </trkpt>
      <trkpt lat="36.75403847359120845794677734375" lon="-118.4388062171638011932373046875">
        <ele>2521.800048828125</ele>
        <time>2021-06-24T23:05:25.000Z</time>
        <extensions>
          <ns3:TrackPointExtension>
            <ns3:atemp>29.0</ns3:atemp>
            <ns3:hr>118</ns3:hr>
          </ns3:TrackPointExtension>
        </extensions>
      </trkpt>
      <trkpt lat="36.7540352046489715576171875" lon="-118.43880697153508663177490234375">
        <ele>2521.800048828125</ele>
        <time>2021-06-24T23:05:26.000Z</time>
        <extensions>
          <ns3:TrackPointExtension>
            <ns3:atemp>29.0</ns3:atemp>
            <ns3:hr>122</ns3:hr>
          </ns3:TrackPointExtension>
        </extensions>
      </trkpt>
      <trkpt lat="36.75403210334479808807373046875" lon="-118.43880479224026203155517578125">
        <ele>2522</ele>
        <time>2021-06-24T23:05:27.000Z</time>
        <extensions>
          <ns3:TrackPointExtension>
            <ns3:atemp>29.0</ns3:atemp>
            <ns3:hr>123</ns3:hr>
          </ns3:TrackPointExtension>
        </extensions>
      </trkpt>
      <trkpt lat="36.75402246415615081787109375" lon="-118.43877998180687427520751953125">
        <ele>2522.60009765625</ele>
        <time>2021-06-24T23:05:32.000Z</time>
        <extensions>
          <ns3:TrackPointExtension>
            <ns3:atemp>29.0</ns3:atemp>
            <ns3:hr>124</ns3:hr>
          </ns3:TrackPointExtension>
        </extensions>
      </trkpt>
      <trkpt lat="36.7539924569427967071533203125" lon="-118.4387190453708171844482421875">
        <ele>2523.39990234375</ele>
        <time>2021-06-24T23:05:36.000Z</time>
        <extensions>
          <ns3:TrackPointExtension>
            <ns3:atemp>29.0</ns3:atemp>
            <ns3:hr>122</ns3:hr>
          </ns3:TrackPointExtension>
        </extensions>
      </trkpt>
      <trkpt lat="36.7539800517261028289794921875" lon="-118.43867202289402484893798828125">
        <ele>2523.60009765625</ele>
        <time>2021-06-24T23:05:39.000Z</time>
        <extensions>
          <ns3:TrackPointExtension>
            <ns3:atemp>29.0</ns3:atemp>
            <ns3:hr>121</ns3:hr>
          </ns3:TrackPointExtension>
        </extensions>
      </trkpt>
      <trkpt lat="36.7539404891431331634521484375" lon="-118.438610918819904327392578125">
        <ele>2524</ele>
        <time>2021-06-24T23:05:45.000Z</time>
        <extensions>
          <ns3:TrackPointExtension>
            <ns3:atemp>29.0</ns3:atemp>
            <ns3:hr>122</ns3:hr>
          </ns3:TrackPointExtension>
        </extensions>
      </trkpt>
      <trkpt lat="36.75392766483128070831298828125" lon="-118.43859918415546417236328125">
        <ele>2524.199951171875</ele>
        <time>2021-06-24T23:05:49.000Z</time>
        <extensions>
          <ns3:TrackPointExtension>
            <ns3:atemp>29.0</ns3:atemp>
            <ns3:hr>123</ns3:hr>
          </ns3:TrackPointExtension>
        </extensions>
      </trkpt>
      <trkpt lat="36.7539270780980587005615234375" lon="-118.4385953284800052642822265625">
        <ele>2524.800048828125</ele>
        <time>2021-06-24T23:05:50.000Z</time>
        <extensions>
          <ns3:TrackPointExtension>
            <ns3:atemp>29.0</ns3:atemp>
            <ns3:hr>123</ns3:hr>
          </ns3:TrackPointExtension>
        </extensions>
      </trkpt>
      <trkpt lat="36.753926575183868408203125" lon="-118.4385891258716583251953125">
        <ele>2524.800048828125</ele>
        <time>2021-06-24T23:05:51.000Z</time>
        <extensions>
          <ns3:TrackPointExtension>
            <ns3:atemp>29.0</ns3:atemp>
            <ns3:hr>123</ns3:hr>
          </ns3:TrackPointExtension>
        </extensions>
      </trkpt>
      <trkpt lat="36.75391928292810916900634765625" lon="-118.4385735355317592620849609375">
        <ele>2525.800048828125</ele>
        <time>2021-06-24T23:05:56.000Z</time>
        <extensions>
          <ns3:TrackPointExtension>
            <ns3:atemp>29.0</ns3:atemp>
            <ns3:hr>124</ns3:hr>
          </ns3:TrackPointExtension>
        </extensions>
      </trkpt>
      <trkpt lat="36.7539163492619991302490234375" lon="-118.4385648183524608612060546875">
        <ele>2525.800048828125</ele>
        <time>2021-06-24T23:05:57.000Z</time>
        <extensions>
          <ns3:TrackPointExtension>
            <ns3:atemp>29.0</ns3:atemp>
            <ns3:hr>124</ns3:hr>
          </ns3:TrackPointExtension>
        </extensions>
      </trkpt>
      <trkpt lat="36.75390855409204959869384765625" lon="-118.43856632709503173828125">
        <ele>2526.39990234375</ele>
        <time>2021-06-24T23:05:59.000Z</time>
        <extensions>
          <ns3:TrackPointExtension>
            <ns3:atemp>29.0</ns3:atemp>
            <ns3:hr>127</ns3:hr>
          </ns3:TrackPointExtension>
        </extensions>
      </trkpt>
      <trkpt lat="36.7538982443511486053466796875" lon="-118.438554592430591583251953125">
        <ele>2526.39990234375</ele>
        <time>2021-06-24T23:06:01.000Z</time>
        <extensions>
          <ns3:TrackPointExtension>
            <ns3:atemp>29.0</ns3:atemp>
            <ns3:hr>130</ns3:hr>
          </ns3:TrackPointExtension>
        </extensions>
      </trkpt>
      <trkpt lat="36.75388508476316928863525390625" lon="-118.43854243867099285125732421875">
        <ele>2526.60009765625</ele>
        <time>2021-06-24T23:06:05.000Z</time>
        <extensions>
          <ns3:TrackPointExtension>
            <ns3:atemp>29.0</ns3:atemp>
            <ns3:hr>128</ns3:hr>
          </ns3:TrackPointExtension>
        </extensions>
      </trkpt>
      <trkpt lat="36.753867231309413909912109375" lon="-118.438518382608890533447265625">
        <ele>2527</ele>
        <time>2021-06-24T23:06:07.000Z</time>
        <extensions>
          <ns3:TrackPointExtension>
            <ns3:atemp>29.0</ns3:atemp>
            <ns3:hr>128</ns3:hr>
          </ns3:TrackPointExtension>
        </extensions>
      </trkpt>
      <trkpt lat="36.7538563348352909088134765625" lon="-118.438511006534099578857421875">
        <ele>2527.39990234375</ele>
        <time>2021-06-24T23:06:09.000Z</time>
        <extensions>
          <ns3:TrackPointExtension>
            <ns3:atemp>29.0</ns3:atemp>
            <ns3:hr>128</ns3:hr>
          </ns3:TrackPointExtension>
        </extensions>
      </trkpt>
      <trkpt lat="36.75384468398988246917724609375" lon="-118.43850069679319858551025390625">
        <ele>2527.60009765625</ele>
        <time>2021-06-24T23:06:11.000Z</time>
        <extensions>
          <ns3:TrackPointExtension>
            <ns3:atemp>29.0</ns3:atemp>
            <ns3:hr>128</ns3:hr>
          </ns3:TrackPointExtension>
        </extensions>
      </trkpt>
      <trkpt lat="36.7538378946483135223388671875" lon="-118.43849415890872478485107421875">
        <ele>2527.800048828125</ele>
        <time>2021-06-24T23:06:12.000Z</time>
        <extensions>
          <ns3:TrackPointExtension>
            <ns3:atemp>29.0</ns3:atemp>
            <ns3:hr>128</ns3:hr>
          </ns3:TrackPointExtension>
        </extensions>
      </trkpt>
      <trkpt lat="36.753833703696727752685546875" lon="-118.43848477117717266082763671875">
        <ele>2528</ele>
        <time>2021-06-24T23:06:13.000Z</time>
        <extensions>
          <ns3:TrackPointExtension>
            <ns3:atemp>29.0</ns3:atemp>
            <ns3:hr>128</ns3:hr>
          </ns3:TrackPointExtension>
        </extensions>
      </trkpt>
      <trkpt lat="36.75382289104163646697998046875" lon="-118.4384803287684917449951171875">
        <ele>2528.39990234375</ele>
        <time>2021-06-24T23:06:17.000Z</time>
        <extensions>
          <ns3:TrackPointExtension>
            <ns3:atemp>29.0</ns3:atemp>
            <ns3:hr>126</ns3:hr>
          </ns3:TrackPointExtension>
        </extensions>
      </trkpt>
      <trkpt lat="36.753793470561504364013671875" lon="-118.43848049640655517578125">
        <ele>2529.39990234375</ele>
        <time>2021-06-24T23:06:19.000Z</time>
        <extensions>
          <ns3:TrackPointExtension>
            <ns3:atemp>29.0</ns3:atemp>
            <ns3:hr>125</ns3:hr>
          </ns3:TrackPointExtension>
        </extensions>
      </trkpt>
      <trkpt lat="36.753784753382205963134765625" lon="-118.4384642355144023895263671875">
        <ele>2529.39990234375</ele>
        <time>2021-06-24T23:06:22.000Z</time>
        <extensions>
          <ns3:TrackPointExtension>
            <ns3:atemp>29.0</ns3:atemp>
            <ns3:hr>123</ns3:hr>
          </ns3:TrackPointExtension>
        </extensions>
      </trkpt>
      <trkpt lat="36.7537859268486499786376953125" lon="-118.438461385667324066162109375">
        <ele>2529.60009765625</ele>
        <time>2021-06-24T23:06:24.000Z</time>
        <extensions>
          <ns3:TrackPointExtension>
            <ns3:atemp>29.0</ns3:atemp>
            <ns3:hr>121</ns3:hr>
          </ns3:TrackPointExtension>
        </extensions>
      </trkpt>
      <trkpt lat="36.7537805624306201934814453125" lon="-118.43844017945230007171630859375">
        <ele>2530.39990234375</ele>
        <time>2021-06-24T23:06:29.000Z</time>
        <extensions>
          <ns3:TrackPointExtension>
            <ns3:atemp>29.0</ns3:atemp>
            <ns3:hr>122</ns3:hr>
          </ns3:TrackPointExtension>
        </extensions>
      </trkpt>
      <trkpt lat="36.75378886051476001739501953125" lon="-118.4384347312152385711669921875">
        <ele>2530.800048828125</ele>
        <time>2021-06-24T23:06:31.000Z</time>
        <extensions>
          <ns3:TrackPointExtension>
            <ns3:atemp>29.0</ns3:atemp>
            <ns3:hr>122</ns3:hr>
          </ns3:TrackPointExtension>
        </extensions>
      </trkpt>
      <trkpt lat="36.75380679778754711151123046875" lon="-118.43840472400188446044921875">
        <ele>2531.60009765625</ele>
        <time>2021-06-24T23:06:39.000Z</time>
        <extensions>
          <ns3:TrackPointExtension>
            <ns3:atemp>29.0</ns3:atemp>
            <ns3:hr>120</ns3:hr>
          </ns3:TrackPointExtension>
        </extensions>
      </trkpt>
      <trkpt lat="36.75380327738821506500244140625" lon="-118.43839801847934722900390625">
        <ele>2531.800048828125</ele>
        <time>2021-06-24T23:06:41.000Z</time>
        <extensions>
          <ns3:TrackPointExtension>
            <ns3:atemp>29.0</ns3:atemp>
            <ns3:hr>119</ns3:hr>
          </ns3:TrackPointExtension>
        </extensions>
      </trkpt>
      <trkpt lat="36.7537996731698513031005859375" lon="-118.43839156441390514373779296875">
        <ele>2532.199951171875</ele>
        <time>2021-06-24T23:06:44.000Z</time>
        <extensions>
          <ns3:TrackPointExtension>
            <ns3:atemp>29.0</ns3:atemp>
            <ns3:hr>119</ns3:hr>
          </ns3:TrackPointExtension>
        </extensions>
      </trkpt>
      <trkpt lat="36.75379355438053607940673828125" lon="-118.43837547115981578826904296875">
        <ele>2532.60009765625</ele>
        <time>2021-06-24T23:06:47.000Z</time>
        <extensions>
          <ns3:TrackPointExtension>
            <ns3:atemp>29.0</ns3:atemp>
            <ns3:hr>122</ns3:hr>
          </ns3:TrackPointExtension>
        </extensions>
      </trkpt>
      <trkpt lat="36.753792464733123779296875" lon="-118.43837262131273746490478515625">
        <ele>2532.800048828125</ele>
        <time>2021-06-24T23:06:48.000Z</time>
        <extensions>
          <ns3:TrackPointExtension>
            <ns3:atemp>29.0</ns3:atemp>
            <ns3:hr>122</ns3:hr>
          </ns3:TrackPointExtension>
        </extensions>
      </trkpt>
      <trkpt lat="36.753800176084041595458984375" lon="-118.4383465535938739776611328125">
        <ele>2533.199951171875</ele>
        <time>2021-06-24T23:06:53.000Z</time>
        <extensions>
          <ns3:TrackPointExtension>
            <ns3:atemp>29.0</ns3:atemp>
            <ns3:hr>120</ns3:hr>
          </ns3:TrackPointExtension>
        </extensions>
      </trkpt>
      <trkpt lat="36.7538150958716869354248046875" lon="-118.43831076286733150482177734375">
        <ele>2534</ele>
        <time>2021-06-24T23:06:59.000Z</time>
        <extensions>
          <ns3:TrackPointExtension>
            <ns3:atemp>29.0</ns3:atemp>
            <ns3:hr>118</ns3:hr>
          </ns3:TrackPointExtension>
        </extensions>
      </trkpt>
      <trkpt lat="36.75382004119455814361572265625" lon="-118.43829073011875152587890625">
        <ele>2534</ele>
        <time>2021-06-24T23:07:01.000Z</time>
        <extensions>
          <ns3:TrackPointExtension>
            <ns3:atemp>29.0</ns3:atemp>
            <ns3:hr>119</ns3:hr>
          </ns3:TrackPointExtension>
        </extensions>
      </trkpt>
      <trkpt lat="36.75381819717586040496826171875" lon="-118.438260555267333984375">
        <ele>2535.800048828125</ele>
        <time>2021-06-24T23:07:07.000Z</time>
        <extensions>
          <ns3:TrackPointExtension>
            <ns3:atemp>29.0</ns3:atemp>
            <ns3:hr>118</ns3:hr>
          </ns3:TrackPointExtension>
        </extensions>
      </trkpt>
      <trkpt lat="36.75381593406200408935546875" lon="-118.4382432885468006134033203125">
        <ele>2535.800048828125</ele>
        <time>2021-06-24T23:07:09.000Z</time>
        <extensions>
          <ns3:TrackPointExtension>
            <ns3:atemp>29.0</ns3:atemp>
            <ns3:hr>118</ns3:hr>
          </ns3:TrackPointExtension>
        </extensions>
      </trkpt>
      <trkpt lat="36.7538114078342914581298828125" lon="-118.43821839429438114166259765625">
        <ele>2536</ele>
        <time>2021-06-24T23:07:12.000Z</time>
        <extensions>
          <ns3:TrackPointExtension>
            <ns3:atemp>29.0</ns3:atemp>
            <ns3:hr>118</ns3:hr>
          </ns3:TrackPointExtension>
        </extensions>
      </trkpt>
      <trkpt lat="36.75379891879856586456298828125" lon="-118.43821085058152675628662109375">
        <ele>2536</ele>
        <time>2021-06-24T23:07:14.000Z</time>
        <extensions>
          <ns3:TrackPointExtension>
            <ns3:atemp>29.0</ns3:atemp>
            <ns3:hr>119</ns3:hr>
          </ns3:TrackPointExtension>
        </extensions>
      </trkpt>
      <trkpt lat="36.7537857592105865478515625" lon="-118.43817430548369884490966796875">
        <ele>2536.199951171875</ele>
        <time>2021-06-24T23:07:17.000Z</time>
        <extensions>
          <ns3:TrackPointExtension>
            <ns3:atemp>29.0</ns3:atemp>
            <ns3:hr>119</ns3:hr>
          </ns3:TrackPointExtension>
        </extensions>
      </trkpt>
      <trkpt lat="36.753776371479034423828125" lon="-118.43815687112510204315185546875">
        <ele>2536.39990234375</ele>
        <time>2021-06-24T23:07:19.000Z</time>
        <extensions>
          <ns3:TrackPointExtension>
            <ns3:atemp>29.0</ns3:atemp>
            <ns3:hr>119</ns3:hr>
          </ns3:TrackPointExtension>
        </extensions>
      </trkpt>
      <trkpt lat="36.7537741921842098236083984375" lon="-118.43814790248870849609375">
        <ele>2536.39990234375</ele>
        <time>2021-06-24T23:07:20.000Z</time>
        <extensions>
          <ns3:TrackPointExtension>
            <ns3:atemp>29.0</ns3:atemp>
            <ns3:hr>120</ns3:hr>
          </ns3:TrackPointExtension>
        </extensions>
      </trkpt>
      <trkpt lat="36.75377008505165576934814453125" lon="-118.438134156167507171630859375">
        <ele>2536.60009765625</ele>
        <time>2021-06-24T23:07:22.000Z</time>
        <extensions>
          <ns3:TrackPointExtension>
            <ns3:atemp>29.0</ns3:atemp>
            <ns3:hr>120</ns3:hr>
          </ns3:TrackPointExtension>
        </extensions>
      </trkpt>
      <trkpt lat="36.753769330680370330810546875" lon="-118.43811563216149806976318359375">
        <ele>2536.800048828125</ele>
        <time>2021-06-24T23:07:24.000Z</time>
        <extensions>
          <ns3:TrackPointExtension>
            <ns3:atemp>29.0</ns3:atemp>
            <ns3:hr>120</ns3:hr>
          </ns3:TrackPointExtension>
        </extensions>
      </trkpt>
      <trkpt lat="36.7537614516913890838623046875" lon="-118.4380974434316158294677734375">
        <ele>2537.199951171875</ele>
        <time>2021-06-24T23:07:27.000Z</time>
        <extensions>
          <ns3:TrackPointExtension>
            <ns3:atemp>29.0</ns3:atemp>
            <ns3:hr>120</ns3:hr>
          </ns3:TrackPointExtension>
        </extensions>
      </trkpt>
      <trkpt lat="36.75375265069305896759033203125" lon="-118.43809266574680805206298828125">
        <ele>2537.39990234375</ele>
        <time>2021-06-24T23:07:28.000Z</time>
        <extensions>
          <ns3:TrackPointExtension>
            <ns3:atemp>29.0</ns3:atemp>
            <ns3:hr>119</ns3:hr>
          </ns3:TrackPointExtension>
        </extensions>
      </trkpt>
      <trkpt lat="36.75374343059957027435302734375" lon="-118.4380729682743549346923828125">
        <ele>2537.800048828125</ele>
        <time>2021-06-24T23:07:31.000Z</time>
        <extensions>
          <ns3:TrackPointExtension>
            <ns3:atemp>29.0</ns3:atemp>
            <ns3:hr>118</ns3:hr>
          </ns3:TrackPointExtension>
        </extensions>
      </trkpt>
      <trkpt lat="36.7537403292953968048095703125" lon="-118.438070118427276611328125">
        <ele>2538.199951171875</ele>
        <time>2021-06-24T23:07:32.000Z</time>
        <extensions>
          <ns3:TrackPointExtension>
            <ns3:atemp>29.0</ns3:atemp>
            <ns3:hr>118</ns3:hr>
          </ns3:TrackPointExtension>
        </extensions>
      </trkpt>
      <trkpt lat="36.75374192185699939727783203125" lon="-118.4380562044680118560791015625">
        <ele>2538.199951171875</ele>
        <time>2021-06-24T23:07:34.000Z</time>
        <extensions>
          <ns3:TrackPointExtension>
            <ns3:atemp>29.0</ns3:atemp>
            <ns3:hr>118</ns3:hr>
          </ns3:TrackPointExtension>
        </extensions>
      </trkpt>
      <trkpt lat="36.753728426992893218994140625" lon="-118.43802460469305515289306640625">
        <ele>2538.60009765625</ele>
        <time>2021-06-24T23:07:40.000Z</time>
        <extensions>
          <ns3:TrackPointExtension>
            <ns3:atemp>29.0</ns3:atemp>
            <ns3:hr>119</ns3:hr>
          </ns3:TrackPointExtension>
        </extensions>
      </trkpt>
      <trkpt lat="36.75372750498354434967041015625" lon="-118.438014127314090728759765625">
        <ele>2538.800048828125</ele>
        <time>2021-06-24T23:07:42.000Z</time>
        <extensions>
          <ns3:TrackPointExtension>
            <ns3:atemp>29.0</ns3:atemp>
            <ns3:hr>119</ns3:hr>
          </ns3:TrackPointExtension>
        </extensions>
      </trkpt>
      <trkpt lat="36.753713004291057586669921875" lon="-118.43800080008804798126220703125">
        <ele>2538.800048828125</ele>
        <time>2021-06-24T23:07:44.000Z</time>
        <extensions>
          <ns3:TrackPointExtension>
            <ns3:atemp>29.0</ns3:atemp>
            <ns3:hr>119</ns3:hr>
          </ns3:TrackPointExtension>
        </extensions>
      </trkpt>
      <trkpt lat="36.75369883887469768524169921875" lon="-118.43798168934881687164306640625">
        <ele>2538.800048828125</ele>
        <time>2021-06-24T23:07:46.000Z</time>
        <extensions>
          <ns3:TrackPointExtension>
            <ns3:atemp>29.0</ns3:atemp>
            <ns3:hr>120</ns3:hr>
          </ns3:TrackPointExtension>
        </extensions>
      </trkpt>
      <trkpt lat="36.7536591924726963043212890625" lon="-118.43796626664698123931884765625">
        <ele>2539.199951171875</ele>
        <time>2021-06-24T23:07:49.000Z</time>
        <extensions>
          <ns3:TrackPointExtension>
            <ns3:atemp>29.0</ns3:atemp>
            <ns3:hr>119</ns3:hr>
          </ns3:TrackPointExtension>
        </extensions>
      </trkpt>
      <trkpt lat="36.753653325140476226806640625" lon="-118.43796308152377605438232421875">
        <ele>2539.199951171875</ele>
        <time>2021-06-24T23:07:50.000Z</time>
        <extensions>
          <ns3:TrackPointExtension>
            <ns3:atemp>29.0</ns3:atemp>
            <ns3:hr>118</ns3:hr>
          </ns3:TrackPointExtension>
        </extensions>
      </trkpt>
      <trkpt lat="36.75364351831376552581787109375" lon="-118.43796744011342525482177734375">
        <ele>2539.60009765625</ele>
        <time>2021-06-24T23:07:53.000Z</time>
        <extensions>
          <ns3:TrackPointExtension>
            <ns3:atemp>29.0</ns3:atemp>
            <ns3:hr>117</ns3:hr>
          </ns3:TrackPointExtension>
        </extensions>
      </trkpt>
      <trkpt lat="36.75364234484732151031494140625" lon="-118.43794070184230804443359375">
        <ele>2540.199951171875</ele>
        <time>2021-06-24T23:07:56.000Z</time>
        <extensions>
          <ns3:TrackPointExtension>
            <ns3:atemp>29.0</ns3:atemp>
            <ns3:hr>116</ns3:hr>
          </ns3:TrackPointExtension>
        </extensions>
      </trkpt>
      <trkpt lat="36.75364150665700435638427734375" lon="-118.4379294700920581817626953125">
        <ele>2540.39990234375</ele>
        <time>2021-06-24T23:07:57.000Z</time>
        <extensions>
          <ns3:TrackPointExtension>
            <ns3:atemp>29.0</ns3:atemp>
            <ns3:hr>115</ns3:hr>
          </ns3:TrackPointExtension>
        </extensions>
      </trkpt>
      <trkpt lat="36.7536330409348011016845703125" lon="-118.4379043243825435638427734375">
        <ele>2540.60009765625</ele>
        <time>2021-06-24T23:08:01.000Z</time>
        <extensions>
          <ns3:TrackPointExtension>
            <ns3:atemp>29.0</ns3:atemp>
            <ns3:hr>112</ns3:hr>
          </ns3:TrackPointExtension>
        </extensions>
      </trkpt>
      <trkpt lat="36.7536132596433162689208984375" lon="-118.43786970712244510650634765625">
        <ele>2541.199951171875</ele>
        <time>2021-06-24T23:08:05.000Z</time>
        <extensions>
          <ns3:TrackPointExtension>
            <ns3:atemp>29.0</ns3:atemp>
            <ns3:hr>112</ns3:hr>
          </ns3:TrackPointExtension>
        </extensions>
      </trkpt>
      <trkpt lat="36.75360110588371753692626953125" lon="-118.43784414231777191162109375">
        <ele>2541.60009765625</ele>
        <time>2021-06-24T23:08:08.000Z</time>
        <extensions>
          <ns3:TrackPointExtension>
            <ns3:atemp>29.0</ns3:atemp>
            <ns3:hr>112</ns3:hr>
          </ns3:TrackPointExtension>
        </extensions>
      </trkpt>
      <trkpt lat="36.75355986692011356353759765625" lon="-118.4377960301935672760009765625">
        <ele>2542</ele>
        <time>2021-06-24T23:08:15.000Z</time>
        <extensions>
          <ns3:TrackPointExtension>
            <ns3:atemp>29.0</ns3:atemp>
            <ns3:hr>115</ns3:hr>
          </ns3:TrackPointExtension>
        </extensions>
      </trkpt>
      <trkpt lat="36.75355584360659122467041015625" lon="-118.437790833413600921630859375">
        <ele>2542.199951171875</ele>
        <time>2021-06-24T23:08:16.000Z</time>
        <extensions>
          <ns3:TrackPointExtension>
            <ns3:atemp>29.0</ns3:atemp>
            <ns3:hr>113</ns3:hr>
          </ns3:TrackPointExtension>
        </extensions>
      </trkpt>
      <trkpt lat="36.75353103317320346832275390625" lon="-118.4377755783498287200927734375">
        <ele>2542.39990234375</ele>
        <time>2021-06-24T23:08:20.000Z</time>
        <extensions>
          <ns3:TrackPointExtension>
            <ns3:atemp>30.0</ns3:atemp>
            <ns3:hr>115</ns3:hr>
          </ns3:TrackPointExtension>
        </extensions>
      </trkpt>
      <trkpt lat="36.75351678393781185150146484375" lon="-118.43776275403797626495361328125">
        <ele>2542.60009765625</ele>
        <time>2021-06-24T23:08:23.000Z</time>
        <extensions>
          <ns3:TrackPointExtension>
            <ns3:atemp>30.0</ns3:atemp>
            <ns3:hr>118</ns3:hr>
          </ns3:TrackPointExtension>
        </extensions>
      </trkpt>
      <trkpt lat="36.7535170353949069976806640625" lon="-118.4377574734389781951904296875">
        <ele>2542.60009765625</ele>
        <time>2021-06-24T23:08:24.000Z</time>
        <extensions>
          <ns3:TrackPointExtension>
            <ns3:atemp>30.0</ns3:atemp>
            <ns3:hr>118</ns3:hr>
          </ns3:TrackPointExtension>
        </extensions>
      </trkpt>
      <trkpt lat="36.753494739532470703125" lon="-118.4377222694456577301025390625">
        <ele>2543.199951171875</ele>
        <time>2021-06-24T23:08:29.000Z</time>
        <extensions>
          <ns3:TrackPointExtension>
            <ns3:atemp>30.0</ns3:atemp>
            <ns3:hr>117</ns3:hr>
          </ns3:TrackPointExtension>
        </extensions>
      </trkpt>
      <trkpt lat="36.7534880340099334716796875" lon="-118.43771665357053279876708984375">
        <ele>2543.39990234375</ele>
        <time>2021-06-24T23:08:30.000Z</time>
        <extensions>
          <ns3:TrackPointExtension>
            <ns3:atemp>30.0</ns3:atemp>
            <ns3:hr>117</ns3:hr>
          </ns3:TrackPointExtension>
        </extensions>
      </trkpt>
      <trkpt lat="36.75347973592579364776611328125" lon="-118.43768731690943241119384765625">
        <ele>2544.199951171875</ele>
        <time>2021-06-24T23:08:35.000Z</time>
        <extensions>
          <ns3:TrackPointExtension>
            <ns3:atemp>30.0</ns3:atemp>
            <ns3:hr>114</ns3:hr>
          </ns3:TrackPointExtension>
        </extensions>
      </trkpt>
      <trkpt lat="36.75347353331744670867919921875" lon="-118.43767189420759677886962890625">
        <ele>2544.39990234375</ele>
        <time>2021-06-24T23:08:37.000Z</time>
        <extensions>
          <ns3:TrackPointExtension>
            <ns3:atemp>30.0</ns3:atemp>
            <ns3:hr>114</ns3:hr>
          </ns3:TrackPointExtension>
        </extensions>
      </trkpt>
      <trkpt lat="36.75346850417554378509521484375" lon="-118.43766577541828155517578125">
        <ele>2544.39990234375</ele>
        <time>2021-06-24T23:08:38.000Z</time>
        <extensions>
          <ns3:TrackPointExtension>
            <ns3:atemp>30.0</ns3:atemp>
            <ns3:hr>114</ns3:hr>
          </ns3:TrackPointExtension>
        </extensions>
      </trkpt>
      <trkpt lat="36.75341284833848476409912109375" lon="-118.4375707246363162994384765625">
        <ele>2545.39990234375</ele>
        <time>2021-06-24T23:08:49.000Z</time>
        <extensions>
          <ns3:TrackPointExtension>
            <ns3:atemp>30.0</ns3:atemp>
            <ns3:hr>111</ns3:hr>
          </ns3:TrackPointExtension>
        </extensions>
      </trkpt>
      <trkpt lat="36.7534104175865650177001953125" lon="-118.43756075017154216766357421875">
        <ele>2545.39990234375</ele>
        <time>2021-06-24T23:08:50.000Z</time>
        <extensions>
          <ns3:TrackPointExtension>
            <ns3:atemp>30.0</ns3:atemp>
            <ns3:hr>111</ns3:hr>
          </ns3:TrackPointExtension>
        </extensions>
      </trkpt>
      <trkpt lat="36.75339759327471256256103515625" lon="-118.437513224780559539794921875">
        <ele>2546</ele>
        <time>2021-06-24T23:08:56.000Z</time>
        <extensions>
          <ns3:TrackPointExtension>
            <ns3:atemp>30.0</ns3:atemp>
            <ns3:hr>108</ns3:hr>
          </ns3:TrackPointExtension>
        </extensions>
      </trkpt>
      <trkpt lat="36.7533993534743785858154296875" lon="-118.4375097043812274932861328125">
        <ele>2546.199951171875</ele>
        <time>2021-06-24T23:08:57.000Z</time>
        <extensions>
          <ns3:TrackPointExtension>
            <ns3:atemp>30.0</ns3:atemp>
            <ns3:hr>107</ns3:hr>
          </ns3:TrackPointExtension>
        </extensions>
      </trkpt>
      <trkpt lat="36.75339189358055591583251953125" lon="-118.4375097043812274932861328125">
        <ele>2546.199951171875</ele>
        <time>2021-06-24T23:09:00.000Z</time>
        <extensions>
          <ns3:TrackPointExtension>
            <ns3:atemp>30.0</ns3:atemp>
            <ns3:hr>104</ns3:hr>
          </ns3:TrackPointExtension>
        </extensions>
      </trkpt>
      <trkpt lat="36.753394491970539093017578125" lon="-118.4375036694109439849853515625">
        <ele>2546</ele>
        <time>2021-06-24T23:09:03.000Z</time>
        <extensions>
          <ns3:TrackPointExtension>
            <ns3:atemp>30.0</ns3:atemp>
            <ns3:hr>101</ns3:hr>
          </ns3:TrackPointExtension>
        </extensions>
      </trkpt>
      <trkpt lat="36.7533809132874011993408203125" lon="-118.437495119869709014892578125">
        <ele>2546.199951171875</ele>
        <time>2021-06-24T23:09:07.000Z</time>
        <extensions>
          <ns3:TrackPointExtension>
            <ns3:atemp>30.0</ns3:atemp>
            <ns3:hr>100</ns3:hr>
          </ns3:TrackPointExtension>
        </extensions>
      </trkpt>
      <trkpt lat="36.75338099710643291473388671875" lon="-118.437491096556186676025390625">
        <ele>2546.60009765625</ele>
        <time>2021-06-24T23:09:09.000Z</time>
        <extensions>
          <ns3:TrackPointExtension>
            <ns3:atemp>30.0</ns3:atemp>
            <ns3:hr>101</ns3:hr>
          </ns3:TrackPointExtension>
        </extensions>
      </trkpt>
      <trkpt lat="36.75337580032646656036376953125" lon="-118.43745597638189792633056640625">
        <ele>2547.199951171875</ele>
        <time>2021-06-24T23:09:15.000Z</time>
        <extensions>
          <ns3:TrackPointExtension>
            <ns3:atemp>30.0</ns3:atemp>
            <ns3:hr>103</ns3:hr>
          </ns3:TrackPointExtension>
        </extensions>
      </trkpt>
      <trkpt lat="36.75334746949374675750732421875" lon="-118.43740157783031463623046875">
        <ele>2547.60009765625</ele>
        <time>2021-06-24T23:09:24.000Z</time>
        <extensions>
          <ns3:TrackPointExtension>
            <ns3:atemp>30.0</ns3:atemp>
            <ns3:hr>103</ns3:hr>
          </ns3:TrackPointExtension>
        </extensions>
      </trkpt>
      <trkpt lat="36.753346212208271026611328125" lon="-118.4373928606510162353515625">
        <ele>2547.60009765625</ele>
        <time>2021-06-24T23:09:25.000Z</time>
        <extensions>
          <ns3:TrackPointExtension>
            <ns3:atemp>30.0</ns3:atemp>
            <ns3:hr>102</ns3:hr>
          </ns3:TrackPointExtension>
        </extensions>
      </trkpt>
      <trkpt lat="36.75333447754383087158203125" lon="-118.43736092559993267059326171875">
        <ele>2548.800048828125</ele>
        <time>2021-06-24T23:09:30.000Z</time>
        <extensions>
          <ns3:TrackPointExtension>
            <ns3:atemp>30.0</ns3:atemp>
            <ns3:hr>101</ns3:hr>
          </ns3:TrackPointExtension>
        </extensions>
      </trkpt>
      <trkpt lat="36.75330908037722110748291015625" lon="-118.43732555396854877471923828125">
        <ele>2549.60009765625</ele>
        <time>2021-06-24T23:09:35.000Z</time>
        <extensions>
          <ns3:TrackPointExtension>
            <ns3:atemp>30.0</ns3:atemp>
            <ns3:hr>104</ns3:hr>
          </ns3:TrackPointExtension>
        </extensions>
      </trkpt>
      <trkpt lat="36.75330086611211299896240234375" lon="-118.4373139031231403350830078125">
        <ele>2549.800048828125</ele>
        <time>2021-06-24T23:09:37.000Z</time>
        <extensions>
          <ns3:TrackPointExtension>
            <ns3:atemp>30.0</ns3:atemp>
            <ns3:hr>105</ns3:hr>
          </ns3:TrackPointExtension>
        </extensions>
      </trkpt>
      <trkpt lat="36.75328812561929225921630859375" lon="-118.43727677129209041595458984375">
        <ele>2550.199951171875</ele>
        <time>2021-06-24T23:09:44.000Z</time>
        <extensions>
          <ns3:TrackPointExtension>
            <ns3:atemp>30.0</ns3:atemp>
            <ns3:hr>106</ns3:hr>
          </ns3:TrackPointExtension>
        </extensions>
      </trkpt>
      <trkpt lat="36.7533141933381557464599609375" lon="-118.43726369552314281463623046875">
        <ele>2550.800048828125</ele>
        <time>2021-06-24T23:09:49.000Z</time>
        <extensions>
          <ns3:TrackPointExtension>
            <ns3:atemp>30.0</ns3:atemp>
            <ns3:hr>105</ns3:hr>
          </ns3:TrackPointExtension>
        </extensions>
      </trkpt>
      <trkpt lat="36.7533373273909091949462890625" lon="-118.4372793696820735931396484375">
        <ele>2552</ele>
        <time>2021-06-24T23:09:53.000Z</time>
        <extensions>
          <ns3:TrackPointExtension>
            <ns3:atemp>30.0</ns3:atemp>
            <ns3:hr>103</ns3:hr>
          </ns3:TrackPointExtension>
        </extensions>
      </trkpt>
      <trkpt lat="36.7533789016306400299072265625" lon="-118.43728917650878429412841796875">
        <ele>2553.199951171875</ele>
        <time>2021-06-24T23:09:59.000Z</time>
        <extensions>
          <ns3:TrackPointExtension>
            <ns3:atemp>30.0</ns3:atemp>
            <ns3:hr>103</ns3:hr>
          </ns3:TrackPointExtension>
        </extensions>
      </trkpt>
      <trkpt lat="36.7534013651311397552490234375" lon="-118.43731029890477657318115234375">
        <ele>2553.60009765625</ele>
        <time>2021-06-24T23:10:03.000Z</time>
        <extensions>
          <ns3:TrackPointExtension>
            <ns3:atemp>30.0</ns3:atemp>
            <ns3:hr>106</ns3:hr>
          </ns3:TrackPointExtension>
        </extensions>
      </trkpt>
      <trkpt lat="36.7534053884446620941162109375" lon="-118.43731482513248920440673828125">
        <ele>2553.800048828125</ele>
        <time>2021-06-24T23:10:04.000Z</time>
        <extensions>
          <ns3:TrackPointExtension>
            <ns3:atemp>30.0</ns3:atemp>
            <ns3:hr>106</ns3:hr>
          </ns3:TrackPointExtension>
        </extensions>
      </trkpt>
      <trkpt lat="36.753438413143157958984375" lon="-118.437324129045009613037109375">
        <ele>2554</ele>
        <time>2021-06-24T23:10:10.000Z</time>
        <extensions>
          <ns3:TrackPointExtension>
            <ns3:atemp>30.0</ns3:atemp>
            <ns3:hr>109</ns3:hr>
          </ns3:TrackPointExtension>
        </extensions>
      </trkpt>
      <trkpt lat="36.75344570539891719818115234375" lon="-118.43733343295753002166748046875">
        <ele>2554.199951171875</ele>
        <time>2021-06-24T23:10:12.000Z</time>
        <extensions>
          <ns3:TrackPointExtension>
            <ns3:atemp>30.0</ns3:atemp>
            <ns3:hr>109</ns3:hr>
          </ns3:TrackPointExtension>
        </extensions>
      </trkpt>
      <trkpt lat="36.75346246920526027679443359375" lon="-118.4373457543551921844482421875">
        <ele>2555.199951171875</ele>
        <time>2021-06-24T23:10:15.000Z</time>
        <extensions>
          <ns3:TrackPointExtension>
            <ns3:atemp>30.0</ns3:atemp>
            <ns3:hr>109</ns3:hr>
          </ns3:TrackPointExtension>
        </extensions>
      </trkpt>
      <trkpt lat="36.7534875310957431793212890625" lon="-118.4373343549668788909912109375">
        <ele>2555.199951171875</ele>
        <time>2021-06-24T23:10:19.000Z</time>
        <extensions>
          <ns3:TrackPointExtension>
            <ns3:atemp>30.0</ns3:atemp>
            <ns3:hr>110</ns3:hr>
          </ns3:TrackPointExtension>
        </extensions>
      </trkpt>
      <trkpt lat="36.7535079829394817352294921875" lon="-118.43732857145369052886962890625">
        <ele>2556.39990234375</ele>
        <time>2021-06-24T23:10:23.000Z</time>
        <extensions>
          <ns3:TrackPointExtension>
            <ns3:atemp>30.0</ns3:atemp>
            <ns3:hr>111</ns3:hr>
          </ns3:TrackPointExtension>
        </extensions>
      </trkpt>
      <trkpt lat="36.75351443700492382049560546875" lon="-118.437328822910785675048828125">
        <ele>2556.199951171875</ele>
        <time>2021-06-24T23:10:24.000Z</time>
        <extensions>
          <ns3:TrackPointExtension>
            <ns3:atemp>30.0</ns3:atemp>
            <ns3:hr>111</ns3:hr>
          </ns3:TrackPointExtension>
        </extensions>
      </trkpt>
      <trkpt lat="36.753564812242984771728515625" lon="-118.43733376823365688323974609375">
        <ele>2557</ele>
        <time>2021-06-24T23:10:32.000Z</time>
        <extensions>
          <ns3:TrackPointExtension>
            <ns3:atemp>30.0</ns3:atemp>
            <ns3:hr>112</ns3:hr>
          </ns3:TrackPointExtension>
        </extensions>
      </trkpt>
      <trkpt lat="36.75361208617687225341796875" lon="-118.4373470954596996307373046875">
        <ele>2557.199951171875</ele>
        <time>2021-06-24T23:10:40.000Z</time>
        <extensions>
          <ns3:TrackPointExtension>
            <ns3:atemp>30.0</ns3:atemp>
            <ns3:hr>115</ns3:hr>
          </ns3:TrackPointExtension>
        </extensions>
      </trkpt>
      <trkpt lat="36.75361786969006061553955078125" lon="-118.43735103495419025421142578125">
        <ele>2557.39990234375</ele>
        <time>2021-06-24T23:10:41.000Z</time>
        <extensions>
          <ns3:TrackPointExtension>
            <ns3:atemp>30.0</ns3:atemp>
            <ns3:hr>116</ns3:hr>
          </ns3:TrackPointExtension>
        </extensions>
      </trkpt>
      <trkpt lat="36.75363496877253055572509765625" lon="-118.43735606409609317779541015625">
        <ele>2558.39990234375</ele>
        <time>2021-06-24T23:10:45.000Z</time>
        <extensions>
          <ns3:TrackPointExtension>
            <ns3:atemp>30.0</ns3:atemp>
            <ns3:hr>119</ns3:hr>
          </ns3:TrackPointExtension>
        </extensions>
      </trkpt>
      <trkpt lat="36.7536504752933979034423828125" lon="-118.437356986105442047119140625">
        <ele>2558.60009765625</ele>
        <time>2021-06-24T23:10:47.000Z</time>
        <extensions>
          <ns3:TrackPointExtension>
            <ns3:atemp>30.0</ns3:atemp>
            <ns3:hr>121</ns3:hr>
          </ns3:TrackPointExtension>
        </extensions>
      </trkpt>
      <trkpt lat="36.75366279669106006622314453125" lon="-118.4373553097248077392578125">
        <ele>2559</ele>
        <time>2021-06-24T23:10:50.000Z</time>
        <extensions>
          <ns3:TrackPointExtension>
            <ns3:atemp>30.0</ns3:atemp>
            <ns3:hr>121</ns3:hr>
          </ns3:TrackPointExtension>
        </extensions>
      </trkpt>
      <trkpt lat="36.75367503426969051361083984375" lon="-118.43736964277923107147216796875">
        <ele>2559.60009765625</ele>
        <time>2021-06-24T23:10:53.000Z</time>
        <extensions>
          <ns3:TrackPointExtension>
            <ns3:atemp>30.0</ns3:atemp>
            <ns3:hr>120</ns3:hr>
          </ns3:TrackPointExtension>
        </extensions>
      </trkpt>
      <trkpt lat="36.75370462238788604736328125" lon="-118.437383808195590972900390625">
        <ele>2559.800048828125</ele>
        <time>2021-06-24T23:10:59.000Z</time>
        <extensions>
          <ns3:TrackPointExtension>
            <ns3:atemp>30.0</ns3:atemp>
            <ns3:hr>119</ns3:hr>
          </ns3:TrackPointExtension>
        </extensions>
      </trkpt>
      <trkpt lat="36.75376606173813343048095703125" lon="-118.4373853169381618499755859375">
        <ele>2561</ele>
        <time>2021-06-24T23:11:07.000Z</time>
        <extensions>
          <ns3:TrackPointExtension>
            <ns3:atemp>30.0</ns3:atemp>
            <ns3:hr>118</ns3:hr>
          </ns3:TrackPointExtension>
        </extensions>
      </trkpt>
      <trkpt lat="36.75381232984364032745361328125" lon="-118.43742580153048038482666015625">
        <ele>2561.60009765625</ele>
        <time>2021-06-24T23:11:15.000Z</time>
        <extensions>
          <ns3:TrackPointExtension>
            <ns3:atemp>30.0</ns3:atemp>
            <ns3:hr>120</ns3:hr>
          </ns3:TrackPointExtension>
        </extensions>
      </trkpt>
      <trkpt lat="36.75383965484797954559326171875" lon="-118.4374449960887432098388671875">
        <ele>2562</ele>
        <time>2021-06-24T23:11:19.000Z</time>
        <extensions>
          <ns3:TrackPointExtension>
            <ns3:atemp>30.0</ns3:atemp>
            <ns3:hr>117</ns3:hr>
          </ns3:TrackPointExtension>
        </extensions>
      </trkpt>
      <trkpt lat="36.753884665668010711669921875" lon="-118.43745346181094646453857421875">
        <ele>2563</ele>
        <time>2021-06-24T23:11:26.000Z</time>
        <extensions>
          <ns3:TrackPointExtension>
            <ns3:atemp>30.0</ns3:atemp>
            <ns3:hr>119</ns3:hr>
          </ns3:TrackPointExtension>
        </extensions>
      </trkpt>
      <trkpt lat="36.7538915388286113739013671875" lon="-118.43745798803865909576416015625">
        <ele>2563</ele>
        <time>2021-06-24T23:11:27.000Z</time>
        <extensions>
          <ns3:TrackPointExtension>
            <ns3:atemp>30.0</ns3:atemp>
            <ns3:hr>119</ns3:hr>
          </ns3:TrackPointExtension>
        </extensions>
      </trkpt>
      <trkpt lat="36.75395264290273189544677734375" lon="-118.43747802078723907470703125">
        <ele>2564.39990234375</ele>
        <time>2021-06-24T23:11:36.000Z</time>
        <extensions>
          <ns3:TrackPointExtension>
            <ns3:atemp>31.0</ns3:atemp>
            <ns3:hr>121</ns3:hr>
          </ns3:TrackPointExtension>
        </extensions>
      </trkpt>
      <trkpt lat="36.75400041975080966949462890625" lon="-118.43744055368006229400634765625">
        <ele>2565.199951171875</ele>
        <time>2021-06-24T23:11:44.000Z</time>
        <extensions>
          <ns3:TrackPointExtension>
            <ns3:atemp>31.0</ns3:atemp>
            <ns3:hr>122</ns3:hr>
          </ns3:TrackPointExtension>
        </extensions>
      </trkpt>
      <trkpt lat="36.75399388186633586883544921875" lon="-118.437434099614620208740234375">
        <ele>2565.39990234375</ele>
        <time>2021-06-24T23:11:45.000Z</time>
        <extensions>
          <ns3:TrackPointExtension>
            <ns3:atemp>31.0</ns3:atemp>
            <ns3:hr>122</ns3:hr>
          </ns3:TrackPointExtension>
        </extensions>
      </trkpt>
      <trkpt lat="36.75397150218486785888671875" lon="-118.4373916871845722198486328125">
        <ele>2566.199951171875</ele>
        <time>2021-06-24T23:11:50.000Z</time>
        <extensions>
          <ns3:TrackPointExtension>
            <ns3:atemp>31.0</ns3:atemp>
            <ns3:hr>124</ns3:hr>
          </ns3:TrackPointExtension>
        </extensions>
      </trkpt>
      <trkpt lat="36.75395272672176361083984375" lon="-118.43736629001796245574951171875">
        <ele>2566.39990234375</ele>
        <time>2021-06-24T23:11:55.000Z</time>
        <extensions>
          <ns3:TrackPointExtension>
            <ns3:atemp>31.0</ns3:atemp>
            <ns3:hr>121</ns3:hr>
          </ns3:TrackPointExtension>
        </extensions>
      </trkpt>
      <trkpt lat="36.7539609409868717193603515625" lon="-118.437369056046009063720703125">
        <ele>2566.39990234375</ele>
        <time>2021-06-24T23:11:57.000Z</time>
        <extensions>
          <ns3:TrackPointExtension>
            <ns3:atemp>31.0</ns3:atemp>
            <ns3:hr>121</ns3:hr>
          </ns3:TrackPointExtension>
        </extensions>
      </trkpt>
      <trkpt lat="36.7539652995765209197998046875" lon="-118.43736134469509124755859375">
        <ele>2566.39990234375</ele>
        <time>2021-06-24T23:11:58.000Z</time>
        <extensions>
          <ns3:TrackPointExtension>
            <ns3:atemp>31.0</ns3:atemp>
            <ns3:hr>121</ns3:hr>
          </ns3:TrackPointExtension>
        </extensions>
      </trkpt>
      <trkpt lat="36.7539681494235992431640625" lon="-118.4373494423925876617431640625">
        <ele>2566.39990234375</ele>
        <time>2021-06-24T23:12:00.000Z</time>
        <extensions>
          <ns3:TrackPointExtension>
            <ns3:atemp>31.0</ns3:atemp>
            <ns3:hr>121</ns3:hr>
          </ns3:TrackPointExtension>
        </extensions>
      </trkpt>
      <trkpt lat="36.75396454520523548126220703125" lon="-118.4373440779745578765869140625">
        <ele>2566</ele>
        <time>2021-06-24T23:12:08.000Z</time>
        <extensions>
          <ns3:TrackPointExtension>
            <ns3:atemp>31.0</ns3:atemp>
            <ns3:hr>118</ns3:hr>
          </ns3:TrackPointExtension>
        </extensions>
      </trkpt>
      <trkpt lat="36.75396454520523548126220703125" lon="-118.4373440779745578765869140625">
        <ele>2566</ele>
        <time>2021-06-24T23:12:16.000Z</time>
        <extensions>
          <ns3:TrackPointExtension>
            <ns3:atemp>31.0</ns3:atemp>
            <ns3:hr>117</ns3:hr>
          </ns3:TrackPointExtension>
        </extensions>
      </trkpt>
      <trkpt lat="36.7539626173675060272216796875" lon="-118.4373615123331546783447265625">
        <ele>2566.199951171875</ele>
        <time>2021-06-24T23:12:22.000Z</time>
        <extensions>
          <ns3:TrackPointExtension>
            <ns3:atemp>31.0</ns3:atemp>
            <ns3:hr>114</ns3:hr>
          </ns3:TrackPointExtension>
        </extensions>
      </trkpt>
      <trkpt lat="36.75396555103361606597900390625" lon="-118.4373735822737216949462890625">
        <ele>2567.60009765625</ele>
        <time>2021-06-24T23:12:51.000Z</time>
        <extensions>
          <ns3:TrackPointExtension>
            <ns3:atemp>30.0</ns3:atemp>
            <ns3:hr>111</ns3:hr>
          </ns3:TrackPointExtension>
        </extensions>
      </trkpt>
      <trkpt lat="36.75396555103361606597900390625" lon="-118.43734768219292163848876953125">
        <ele>2568.800048828125</ele>
        <time>2021-06-24T23:12:57.000Z</time>
        <extensions>
          <ns3:TrackPointExtension>
            <ns3:atemp>30.0</ns3:atemp>
            <ns3:hr>110</ns3:hr>
          </ns3:TrackPointExtension>
        </extensions>
      </trkpt>
      <trkpt lat="36.7539351247251033782958984375" lon="-118.43721206299960613250732421875">
        <ele>2569.199951171875</ele>
        <time>2021-06-24T23:13:02.000Z</time>
        <extensions>
          <ns3:TrackPointExtension>
            <ns3:atemp>30.0</ns3:atemp>
            <ns3:hr>112</ns3:hr>
          </ns3:TrackPointExtension>
        </extensions>
      </trkpt>
      <trkpt lat="36.7539260722696781158447265625" lon="-118.43717090785503387451171875">
        <ele>2569.800048828125</ele>
        <time>2021-06-24T23:13:04.000Z</time>
        <extensions>
          <ns3:TrackPointExtension>
            <ns3:atemp>30.0</ns3:atemp>
            <ns3:hr>112</ns3:hr>
          </ns3:TrackPointExtension>
        </extensions>
      </trkpt>
      <trkpt lat="36.75391660071909427642822265625" lon="-118.437072671949863433837890625">
        <ele>2570.39990234375</ele>
        <time>2021-06-24T23:13:09.000Z</time>
        <extensions>
          <ns3:TrackPointExtension>
            <ns3:atemp>30.0</ns3:atemp>
            <ns3:hr>112</ns3:hr>
          </ns3:TrackPointExtension>
        </extensions>
      </trkpt>
      <trkpt lat="36.753912158310413360595703125" lon="-118.437057919800281524658203125">
        <ele>2570.60009765625</ele>
        <time>2021-06-24T23:13:10.000Z</time>
        <extensions>
          <ns3:TrackPointExtension>
            <ns3:atemp>30.0</ns3:atemp>
            <ns3:hr>113</ns3:hr>
          </ns3:TrackPointExtension>
        </extensions>
      </trkpt>
      <trkpt lat="36.75390335731208324432373046875" lon="-118.43703034333884716033935546875">
        <ele>2570.800048828125</ele>
        <time>2021-06-24T23:13:12.000Z</time>
        <extensions>
          <ns3:TrackPointExtension>
            <ns3:atemp>30.0</ns3:atemp>
            <ns3:hr>117</ns3:hr>
          </ns3:TrackPointExtension>
        </extensions>
      </trkpt>
      <trkpt lat="36.753909476101398468017578125" lon="-118.43701173551380634307861328125">
        <ele>2571</ele>
        <time>2021-06-24T23:13:14.000Z</time>
        <extensions>
          <ns3:TrackPointExtension>
            <ns3:atemp>30.0</ns3:atemp>
            <ns3:hr>121</ns3:hr>
          </ns3:TrackPointExtension>
        </extensions>
      </trkpt>
      <trkpt lat="36.7539146728813648223876953125" lon="-118.43699346296489238739013671875">
        <ele>2571.39990234375</ele>
        <time>2021-06-24T23:13:16.000Z</time>
        <extensions>
          <ns3:TrackPointExtension>
            <ns3:atemp>30.0</ns3:atemp>
            <ns3:hr>124</ns3:hr>
          </ns3:TrackPointExtension>
        </extensions>
      </trkpt>
      <trkpt lat="36.75391542725265026092529296875" lon="-118.43698273412883281707763671875">
        <ele>2571.60009765625</ele>
        <time>2021-06-24T23:13:18.000Z</time>
        <extensions>
          <ns3:TrackPointExtension>
            <ns3:atemp>30.0</ns3:atemp>
            <ns3:hr>126</ns3:hr>
          </ns3:TrackPointExtension>
        </extensions>
      </trkpt>
      <trkpt lat="36.7539163492619991302490234375" lon="-118.43697485513985157012939453125">
        <ele>2572.39990234375</ele>
        <time>2021-06-24T23:13:19.000Z</time>
        <extensions>
          <ns3:TrackPointExtension>
            <ns3:atemp>30.0</ns3:atemp>
            <ns3:hr>127</ns3:hr>
          </ns3:TrackPointExtension>
        </extensions>
      </trkpt>
      <trkpt lat="36.75386765040457248687744140625" lon="-118.436948955059051513671875">
        <ele>2573.39990234375</ele>
        <time>2021-06-24T23:13:27.000Z</time>
        <extensions>
          <ns3:TrackPointExtension>
            <ns3:atemp>30.0</ns3:atemp>
            <ns3:hr>126</ns3:hr>
          </ns3:TrackPointExtension>
        </extensions>
      </trkpt>
      <trkpt lat="36.7538348771631717681884765625" lon="-118.43689329922199249267578125">
        <ele>2574.60009765625</ele>
        <time>2021-06-24T23:13:33.000Z</time>
        <extensions>
          <ns3:TrackPointExtension>
            <ns3:atemp>30.0</ns3:atemp>
            <ns3:hr>128</ns3:hr>
          </ns3:TrackPointExtension>
        </extensions>
      </trkpt>
      <trkpt lat="36.7538120783865451812744140625" lon="-118.43684426508843898773193359375">
        <ele>2575.39990234375</ele>
        <time>2021-06-24T23:13:39.000Z</time>
        <extensions>
          <ns3:TrackPointExtension>
            <ns3:atemp>30.0</ns3:atemp>
            <ns3:hr>128</ns3:hr>
          </ns3:TrackPointExtension>
        </extensions>
      </trkpt>
      <trkpt lat="36.7538080550730228424072265625" lon="-118.4368357993662357330322265625">
        <ele>2575.60009765625</ele>
        <time>2021-06-24T23:13:40.000Z</time>
        <extensions>
          <ns3:TrackPointExtension>
            <ns3:atemp>30.0</ns3:atemp>
            <ns3:hr>128</ns3:hr>
          </ns3:TrackPointExtension>
        </extensions>
      </trkpt>
      <trkpt lat="36.75377896986901760101318359375" lon="-118.436774946749210357666015625">
        <ele>2576.39990234375</ele>
        <time>2021-06-24T23:13:48.000Z</time>
        <extensions>
          <ns3:TrackPointExtension>
            <ns3:atemp>30.0</ns3:atemp>
            <ns3:hr>129</ns3:hr>
          </ns3:TrackPointExtension>
        </extensions>
      </trkpt>
      <trkpt lat="36.75377394072711467742919921875" lon="-118.43675910495221614837646484375">
        <ele>2577</ele>
        <time>2021-06-24T23:13:50.000Z</time>
        <extensions>
          <ns3:TrackPointExtension>
            <ns3:atemp>30.0</ns3:atemp>
            <ns3:hr>129</ns3:hr>
          </ns3:TrackPointExtension>
        </extensions>
      </trkpt>
      <trkpt lat="36.75375265069305896759033203125" lon="-118.436723984777927398681640625">
        <ele>2577.199951171875</ele>
        <time>2021-06-24T23:13:56.000Z</time>
        <extensions>
          <ns3:TrackPointExtension>
            <ns3:atemp>30.0</ns3:atemp>
            <ns3:hr>126</ns3:hr>
          </ns3:TrackPointExtension>
        </extensions>
      </trkpt>
      <trkpt lat="36.753749214112758636474609375" lon="-118.43671803362667560577392578125">
        <ele>2577.60009765625</ele>
        <time>2021-06-24T23:13:57.000Z</time>
        <extensions>
          <ns3:TrackPointExtension>
            <ns3:atemp>30.0</ns3:atemp>
            <ns3:hr>126</ns3:hr>
          </ns3:TrackPointExtension>
        </extensions>
      </trkpt>
      <trkpt lat="36.75375013612210750579833984375" lon="-118.436711244285106658935546875">
        <ele>2577.800048828125</ele>
        <time>2021-06-24T23:13:58.000Z</time>
        <extensions>
          <ns3:TrackPointExtension>
            <ns3:atemp>30.0</ns3:atemp>
            <ns3:hr>125</ns3:hr>
          </ns3:TrackPointExtension>
        </extensions>
      </trkpt>
      <trkpt lat="36.753740496933460235595703125" lon="-118.43666262924671173095703125">
        <ele>2577.800048828125</ele>
        <time>2021-06-24T23:14:03.000Z</time>
        <extensions>
          <ns3:TrackPointExtension>
            <ns3:atemp>30.0</ns3:atemp>
            <ns3:hr>128</ns3:hr>
          </ns3:TrackPointExtension>
        </extensions>
      </trkpt>
      <trkpt lat="36.7537265829741954803466796875" lon="-118.43667729757726192474365234375">
        <ele>2577.60009765625</ele>
        <time>2021-06-24T23:14:05.000Z</time>
        <extensions>
          <ns3:TrackPointExtension>
            <ns3:atemp>30.0</ns3:atemp>
            <ns3:hr>127</ns3:hr>
          </ns3:TrackPointExtension>
        </extensions>
      </trkpt>
      <trkpt lat="36.75370923243463039398193359375" lon="-118.4366775490343570709228515625">
        <ele>2577.199951171875</ele>
        <time>2021-06-24T23:14:11.000Z</time>
        <extensions>
          <ns3:TrackPointExtension>
            <ns3:atemp>30.0</ns3:atemp>
            <ns3:hr>128</ns3:hr>
          </ns3:TrackPointExtension>
        </extensions>
      </trkpt>
      <trkpt lat="36.75370688550174236297607421875" lon="-118.43666807748377323150634765625">
        <ele>2578</ele>
        <time>2021-06-24T23:14:12.000Z</time>
        <extensions>
          <ns3:TrackPointExtension>
            <ns3:atemp>30.0</ns3:atemp>
            <ns3:hr>128</ns3:hr>
          </ns3:TrackPointExtension>
        </extensions>
      </trkpt>
      <trkpt lat="36.7536980845034122467041015625" lon="-118.43659901060163974761962890625">
        <ele>2579.39990234375</ele>
        <time>2021-06-24T23:14:19.000Z</time>
        <extensions>
          <ns3:TrackPointExtension>
            <ns3:atemp>30.0</ns3:atemp>
            <ns3:hr>128</ns3:hr>
          </ns3:TrackPointExtension>
        </extensions>
      </trkpt>
      <trkpt lat="36.7536833323538303375244140625" lon="-118.436525166034698486328125">
        <ele>2580.199951171875</ele>
        <time>2021-06-24T23:14:26.000Z</time>
        <extensions>
          <ns3:TrackPointExtension>
            <ns3:atemp>30.0</ns3:atemp>
            <ns3:hr>126</ns3:hr>
          </ns3:TrackPointExtension>
        </extensions>
      </trkpt>
      <trkpt lat="36.75367604009807109832763671875" lon="-118.43651334755122661590576171875">
        <ele>2580.39990234375</ele>
        <time>2021-06-24T23:14:28.000Z</time>
        <extensions>
          <ns3:TrackPointExtension>
            <ns3:atemp>30.0</ns3:atemp>
            <ns3:hr>125</ns3:hr>
          </ns3:TrackPointExtension>
        </extensions>
      </trkpt>
      <trkpt lat="36.7536638863384723663330078125" lon="-118.4365099109709262847900390625">
        <ele>2580.39990234375</ele>
        <time>2021-06-24T23:14:29.000Z</time>
        <extensions>
          <ns3:TrackPointExtension>
            <ns3:atemp>30.0</ns3:atemp>
            <ns3:hr>124</ns3:hr>
          </ns3:TrackPointExtension>
        </extensions>
      </trkpt>
      <trkpt lat="36.75363488495349884033203125" lon="-118.43651452101767063140869140625">
        <ele>2581</ele>
        <time>2021-06-24T23:14:32.000Z</time>
        <extensions>
          <ns3:TrackPointExtension>
            <ns3:atemp>30.0</ns3:atemp>
            <ns3:hr>122</ns3:hr>
          </ns3:TrackPointExtension>
        </extensions>
      </trkpt>
      <trkpt lat="36.7536236532032489776611328125" lon="-118.43649172224104404449462890625">
        <ele>2581.199951171875</ele>
        <time>2021-06-24T23:14:34.000Z</time>
        <extensions>
          <ns3:TrackPointExtension>
            <ns3:atemp>30.0</ns3:atemp>
            <ns3:hr>119</ns3:hr>
          </ns3:TrackPointExtension>
        </extensions>
      </trkpt>
      <trkpt lat="36.75362289883196353912353515625" lon="-118.43648367561399936676025390625">
        <ele>2581.39990234375</ele>
        <time>2021-06-24T23:14:35.000Z</time>
        <extensions>
          <ns3:TrackPointExtension>
            <ns3:atemp>30.0</ns3:atemp>
            <ns3:hr>118</ns3:hr>
          </ns3:TrackPointExtension>
        </extensions>
      </trkpt>
      <trkpt lat="36.75360965542495250701904296875" lon="-118.4364576078951358795166015625">
        <ele>2581.800048828125</ele>
        <time>2021-06-24T23:14:38.000Z</time>
        <extensions>
          <ns3:TrackPointExtension>
            <ns3:atemp>29.0</ns3:atemp>
            <ns3:hr>117</ns3:hr>
          </ns3:TrackPointExtension>
        </extensions>
      </trkpt>
      <trkpt lat="36.753609068691730499267578125" lon="-118.43643941916525363922119140625">
        <ele>2582.39990234375</ele>
        <time>2021-06-24T23:14:41.000Z</time>
        <extensions>
          <ns3:TrackPointExtension>
            <ns3:atemp>29.0</ns3:atemp>
            <ns3:hr>116</ns3:hr>
          </ns3:TrackPointExtension>
        </extensions>
      </trkpt>
      <trkpt lat="36.75361032597720623016357421875" lon="-118.43640957958996295928955078125">
        <ele>2583</ele>
        <time>2021-06-24T23:14:45.000Z</time>
        <extensions>
          <ns3:TrackPointExtension>
            <ns3:atemp>29.0</ns3:atemp>
            <ns3:hr>114</ns3:hr>
          </ns3:TrackPointExtension>
        </extensions>
      </trkpt>
      <trkpt lat="36.753609739243984222412109375" lon="-118.43637303449213504791259765625">
        <ele>2583.60009765625</ele>
        <time>2021-06-24T23:14:49.000Z</time>
        <extensions>
          <ns3:TrackPointExtension>
            <ns3:atemp>29.0</ns3:atemp>
            <ns3:hr>113</ns3:hr>
          </ns3:TrackPointExtension>
        </extensions>
      </trkpt>
      <trkpt lat="36.75360010005533695220947265625" lon="-118.4363543428480625152587890625">
        <ele>2583.800048828125</ele>
        <time>2021-06-24T23:14:51.000Z</time>
        <extensions>
          <ns3:TrackPointExtension>
            <ns3:atemp>29.0</ns3:atemp>
            <ns3:hr>113</ns3:hr>
          </ns3:TrackPointExtension>
        </extensions>
      </trkpt>
      <trkpt lat="36.75358316861093044281005859375" lon="-118.43631804920732975006103515625">
        <ele>2584.39990234375</ele>
        <time>2021-06-24T23:14:57.000Z</time>
        <extensions>
          <ns3:TrackPointExtension>
            <ns3:atemp>29.0</ns3:atemp>
            <ns3:hr>116</ns3:hr>
          </ns3:TrackPointExtension>
        </extensions>
      </trkpt>
      <trkpt lat="36.753588281571865081787109375" lon="-118.4363114275038242340087890625">
        <ele>2584.60009765625</ele>
        <time>2021-06-24T23:14:59.000Z</time>
        <extensions>
          <ns3:TrackPointExtension>
            <ns3:atemp>29.0</ns3:atemp>
            <ns3:hr>115</ns3:hr>
          </ns3:TrackPointExtension>
        </extensions>
      </trkpt>
      <trkpt lat="36.75359188579022884368896484375" lon="-118.43631218187510967254638671875">
        <ele>2584.800048828125</ele>
        <time>2021-06-24T23:15:00.000Z</time>
        <extensions>
          <ns3:TrackPointExtension>
            <ns3:atemp>29.0</ns3:atemp>
            <ns3:hr>117</ns3:hr>
          </ns3:TrackPointExtension>
        </extensions>
      </trkpt>
      <trkpt lat="36.75360227935016155242919921875" lon="-118.43631218187510967254638671875">
        <ele>2585.800048828125</ele>
        <time>2021-06-24T23:15:04.000Z</time>
        <extensions>
          <ns3:TrackPointExtension>
            <ns3:atemp>30.0</ns3:atemp>
            <ns3:hr>120</ns3:hr>
          </ns3:TrackPointExtension>
        </extensions>
      </trkpt>
      <trkpt lat="36.75360630266368389129638671875" lon="-118.43630857765674591064453125">
        <ele>2586</ele>
        <time>2021-06-24T23:15:05.000Z</time>
        <extensions>
          <ns3:TrackPointExtension>
            <ns3:atemp>30.0</ns3:atemp>
            <ns3:hr>121</ns3:hr>
          </ns3:TrackPointExtension>
        </extensions>
      </trkpt>
      <trkpt lat="36.7536194622516632080078125" lon="-118.43630128540098667144775390625">
        <ele>2586.39990234375</ele>
        <time>2021-06-24T23:15:08.000Z</time>
        <extensions>
          <ns3:TrackPointExtension>
            <ns3:atemp>30.0</ns3:atemp>
            <ns3:hr>124</ns3:hr>
          </ns3:TrackPointExtension>
        </extensions>
      </trkpt>
      <trkpt lat="36.75362558104097843170166015625" lon="-118.43630430288612842559814453125">
        <ele>2586.39990234375</ele>
        <time>2021-06-24T23:15:09.000Z</time>
        <extensions>
          <ns3:TrackPointExtension>
            <ns3:atemp>30.0</ns3:atemp>
            <ns3:hr>126</ns3:hr>
          </ns3:TrackPointExtension>
        </extensions>
      </trkpt>
      <trkpt lat="36.753663718700408935546875" lon="-118.4363117627799510955810546875">
        <ele>2587</ele>
        <time>2021-06-24T23:15:15.000Z</time>
        <extensions>
          <ns3:TrackPointExtension>
            <ns3:atemp>30.0</ns3:atemp>
            <ns3:hr>129</ns3:hr>
          </ns3:TrackPointExtension>
        </extensions>
      </trkpt>
      <trkpt lat="36.75366598181426525115966796875" lon="-118.43631067313253879547119140625">
        <ele>2587.199951171875</ele>
        <time>2021-06-24T23:15:16.000Z</time>
        <extensions>
          <ns3:TrackPointExtension>
            <ns3:atemp>30.0</ns3:atemp>
            <ns3:hr>129</ns3:hr>
          </ns3:TrackPointExtension>
        </extensions>
      </trkpt>
      <trkpt lat="36.75367134623229503631591796875" lon="-118.43630966730415821075439453125">
        <ele>2587.199951171875</ele>
        <time>2021-06-24T23:15:17.000Z</time>
        <extensions>
          <ns3:TrackPointExtension>
            <ns3:atemp>30.0</ns3:atemp>
            <ns3:hr>129</ns3:hr>
          </ns3:TrackPointExtension>
        </extensions>
      </trkpt>
      <trkpt lat="36.753701269626617431640625" lon="-118.4363248385488986968994140625">
        <ele>2588.199951171875</ele>
        <time>2021-06-24T23:15:26.000Z</time>
        <extensions>
          <ns3:TrackPointExtension>
            <ns3:atemp>30.0</ns3:atemp>
            <ns3:hr>129</ns3:hr>
          </ns3:TrackPointExtension>
        </extensions>
      </trkpt>
      <trkpt lat="36.75371308811008930206298828125" lon="-118.43632601201534271240234375">
        <ele>2588.39990234375</ele>
        <time>2021-06-24T23:15:28.000Z</time>
        <extensions>
          <ns3:TrackPointExtension>
            <ns3:atemp>30.0</ns3:atemp>
            <ns3:hr>128</ns3:hr>
          </ns3:TrackPointExtension>
        </extensions>
      </trkpt>
      <trkpt lat="36.75372214056551456451416015625" lon="-118.4362966753542423248291015625">
        <ele>2589.199951171875</ele>
        <time>2021-06-24T23:15:34.000Z</time>
        <extensions>
          <ns3:TrackPointExtension>
            <ns3:atemp>30.0</ns3:atemp>
            <ns3:hr>129</ns3:hr>
          </ns3:TrackPointExtension>
        </extensions>
      </trkpt>
      <trkpt lat="36.75372364930808544158935546875" lon="-118.43628577888011932373046875">
        <ele>2589.60009765625</ele>
        <time>2021-06-24T23:15:35.000Z</time>
        <extensions>
          <ns3:TrackPointExtension>
            <ns3:atemp>30.0</ns3:atemp>
            <ns3:hr>128</ns3:hr>
          </ns3:TrackPointExtension>
        </extensions>
      </trkpt>
      <trkpt lat="36.7537215538322925567626953125" lon="-118.43619466759264469146728515625">
        <ele>2590.39990234375</ele>
        <time>2021-06-24T23:15:44.000Z</time>
        <extensions>
          <ns3:TrackPointExtension>
            <ns3:atemp>30.0</ns3:atemp>
            <ns3:hr>128</ns3:hr>
          </ns3:TrackPointExtension>
        </extensions>
      </trkpt>
      <trkpt lat="36.75371727906167507171630859375" lon="-118.436184190213680267333984375">
        <ele>2590.800048828125</ele>
        <time>2021-06-24T23:15:45.000Z</time>
        <extensions>
          <ns3:TrackPointExtension>
            <ns3:atemp>30.0</ns3:atemp>
            <ns3:hr>128</ns3:hr>
          </ns3:TrackPointExtension>
        </extensions>
      </trkpt>
      <trkpt lat="36.75370990298688411712646484375" lon="-118.43614286743104457855224609375">
        <ele>2592</ele>
        <time>2021-06-24T23:15:50.000Z</time>
        <extensions>
          <ns3:TrackPointExtension>
            <ns3:atemp>30.0</ns3:atemp>
            <ns3:hr>128</ns3:hr>
          </ns3:TrackPointExtension>
        </extensions>
      </trkpt>
      <trkpt lat="36.75370370037853717803955078125" lon="-118.43610464595258235931396484375">
        <ele>2592.60009765625</ele>
        <time>2021-06-24T23:15:54.000Z</time>
        <extensions>
          <ns3:TrackPointExtension>
            <ns3:atemp>30.0</ns3:atemp>
            <ns3:hr>127</ns3:hr>
          </ns3:TrackPointExtension>
        </extensions>
      </trkpt>
      <trkpt lat="36.75369749777019023895263671875" lon="-118.43606650829315185546875">
        <ele>2592.39990234375</ele>
        <time>2021-06-24T23:15:58.000Z</time>
        <extensions>
          <ns3:TrackPointExtension>
            <ns3:atemp>30.0</ns3:atemp>
            <ns3:hr>124</ns3:hr>
          </ns3:TrackPointExtension>
        </extensions>
      </trkpt>
      <trkpt lat="36.75369531847536563873291015625" lon="-118.43602770008146762847900390625">
        <ele>2592.39990234375</ele>
        <time>2021-06-24T23:16:03.000Z</time>
        <extensions>
          <ns3:TrackPointExtension>
            <ns3:atemp>30.0</ns3:atemp>
            <ns3:hr>126</ns3:hr>
          </ns3:TrackPointExtension>
        </extensions>
      </trkpt>
      <trkpt lat="36.7536937259137630462646484375" lon="-118.435988388955593109130859375">
        <ele>2593</ele>
        <time>2021-06-24T23:16:08.000Z</time>
        <extensions>
          <ns3:TrackPointExtension>
            <ns3:atemp>30.0</ns3:atemp>
            <ns3:hr>128</ns3:hr>
          </ns3:TrackPointExtension>
        </extensions>
      </trkpt>
      <trkpt lat="36.7536964081227779388427734375" lon="-118.43594036065042018890380859375">
        <ele>2593</ele>
        <time>2021-06-24T23:16:14.000Z</time>
        <extensions>
          <ns3:TrackPointExtension>
            <ns3:atemp>30.0</ns3:atemp>
            <ns3:hr>129</ns3:hr>
          </ns3:TrackPointExtension>
        </extensions>
      </trkpt>
      <trkpt lat="36.7536980845034122467041015625" lon="-118.43591538257896900177001953125">
        <ele>2593.39990234375</ele>
        <time>2021-06-24T23:16:17.000Z</time>
        <extensions>
          <ns3:TrackPointExtension>
            <ns3:atemp>30.0</ns3:atemp>
            <ns3:hr>126</ns3:hr>
          </ns3:TrackPointExtension>
        </extensions>
      </trkpt>
      <trkpt lat="36.7536964081227779388427734375" lon="-118.43586676754057407379150390625">
        <ele>2593.60009765625</ele>
        <time>2021-06-24T23:16:22.000Z</time>
        <extensions>
          <ns3:TrackPointExtension>
            <ns3:atemp>30.0</ns3:atemp>
            <ns3:hr>122</ns3:hr>
          </ns3:TrackPointExtension>
        </extensions>
      </trkpt>
      <trkpt lat="36.75368408672511577606201171875" lon="-118.43583893962204456329345703125">
        <ele>2594.199951171875</ele>
        <time>2021-06-24T23:16:25.000Z</time>
        <extensions>
          <ns3:TrackPointExtension>
            <ns3:atemp>30.0</ns3:atemp>
            <ns3:hr>120</ns3:hr>
          </ns3:TrackPointExtension>
        </extensions>
      </trkpt>
      <trkpt lat="36.75368157215416431427001953125" lon="-118.4358306415379047393798828125">
        <ele>2594.60009765625</ele>
        <time>2021-06-24T23:16:26.000Z</time>
        <extensions>
          <ns3:TrackPointExtension>
            <ns3:atemp>30.0</ns3:atemp>
            <ns3:hr>123</ns3:hr>
          </ns3:TrackPointExtension>
        </extensions>
      </trkpt>
      <trkpt lat="36.7536799795925617218017578125" lon="-118.43580591492354869842529296875">
        <ele>2595</ele>
        <time>2021-06-24T23:16:29.000Z</time>
        <extensions>
          <ns3:TrackPointExtension>
            <ns3:atemp>30.0</ns3:atemp>
            <ns3:hr>124</ns3:hr>
          </ns3:TrackPointExtension>
        </extensions>
      </trkpt>
      <trkpt lat="36.7536756210029125213623046875" lon="-118.435793928802013397216796875">
        <ele>2595.60009765625</ele>
        <time>2021-06-24T23:16:31.000Z</time>
        <extensions>
          <ns3:TrackPointExtension>
            <ns3:atemp>30.0</ns3:atemp>
            <ns3:hr>123</ns3:hr>
          </ns3:TrackPointExtension>
        </extensions>
      </trkpt>
      <trkpt lat="36.7536803148686885833740234375" lon="-118.43578093685209751129150390625">
        <ele>2596.199951171875</ele>
        <time>2021-06-24T23:16:34.000Z</time>
        <extensions>
          <ns3:TrackPointExtension>
            <ns3:atemp>30.0</ns3:atemp>
            <ns3:hr>123</ns3:hr>
          </ns3:TrackPointExtension>
        </extensions>
      </trkpt>
      <trkpt lat="36.7536819912493228912353515625" lon="-118.43576618470251560211181640625">
        <ele>2596.60009765625</ele>
        <time>2021-06-24T23:16:36.000Z</time>
        <extensions>
          <ns3:TrackPointExtension>
            <ns3:atemp>30.0</ns3:atemp>
            <ns3:hr>122</ns3:hr>
          </ns3:TrackPointExtension>
        </extensions>
      </trkpt>
      <trkpt lat="36.75367536954581737518310546875" lon="-118.43575109727680683135986328125">
        <ele>2596.800048828125</ele>
        <time>2021-06-24T23:16:38.000Z</time>
        <extensions>
          <ns3:TrackPointExtension>
            <ns3:atemp>30.0</ns3:atemp>
            <ns3:hr>122</ns3:hr>
          </ns3:TrackPointExtension>
        </extensions>
      </trkpt>
      <trkpt lat="36.75367176532745361328125" lon="-118.43569477088749408721923828125">
        <ele>2597.800048828125</ele>
        <time>2021-06-24T23:16:47.000Z</time>
        <extensions>
          <ns3:TrackPointExtension>
            <ns3:atemp>30.0</ns3:atemp>
            <ns3:hr>124</ns3:hr>
          </ns3:TrackPointExtension>
        </extensions>
      </trkpt>
      <trkpt lat="36.75367570482194423675537109375" lon="-118.43568630516529083251953125">
        <ele>2598</ele>
        <time>2021-06-24T23:16:48.000Z</time>
        <extensions>
          <ns3:TrackPointExtension>
            <ns3:atemp>30.0</ns3:atemp>
            <ns3:hr>124</ns3:hr>
          </ns3:TrackPointExtension>
        </extensions>
      </trkpt>
      <trkpt lat="36.75367654301226139068603515625" lon="-118.43565277755260467529296875">
        <ele>2598.39990234375</ele>
        <time>2021-06-24T23:16:55.000Z</time>
        <extensions>
          <ns3:TrackPointExtension>
            <ns3:atemp>30.0</ns3:atemp>
            <ns3:hr>126</ns3:hr>
          </ns3:TrackPointExtension>
        </extensions>
      </trkpt>
      <trkpt lat="36.75366229377686977386474609375" lon="-118.43565453775227069854736328125">
        <ele>2598.800048828125</ele>
        <time>2021-06-24T23:17:03.000Z</time>
        <extensions>
          <ns3:TrackPointExtension>
            <ns3:atemp>30.0</ns3:atemp>
            <ns3:hr>125</ns3:hr>
          </ns3:TrackPointExtension>
        </extensions>
      </trkpt>
      <trkpt lat="36.75364452414214611053466796875" lon="-118.43565604649484157562255859375">
        <ele>2598.60009765625</ele>
        <time>2021-06-24T23:17:07.000Z</time>
        <extensions>
          <ns3:TrackPointExtension>
            <ns3:atemp>30.0</ns3:atemp>
            <ns3:hr>121</ns3:hr>
          </ns3:TrackPointExtension>
        </extensions>
      </trkpt>
      <trkpt lat="36.75364293158054351806640625" lon="-118.43565051443874835968017578125">
        <ele>2598.60009765625</ele>
        <time>2021-06-24T23:17:08.000Z</time>
        <extensions>
          <ns3:TrackPointExtension>
            <ns3:atemp>30.0</ns3:atemp>
            <ns3:hr>124</ns3:hr>
          </ns3:TrackPointExtension>
        </extensions>
      </trkpt>
      <trkpt lat="36.75364150665700435638427734375" lon="-118.435651101171970367431640625">
        <ele>2598.39990234375</ele>
        <time>2021-06-24T23:17:17.000Z</time>
        <extensions>
          <ns3:TrackPointExtension>
            <ns3:atemp>30.0</ns3:atemp>
            <ns3:hr>121</ns3:hr>
          </ns3:TrackPointExtension>
        </extensions>
      </trkpt>
      <trkpt lat="36.75364150665700435638427734375" lon="-118.435651101171970367431640625">
        <ele>2598.800048828125</ele>
        <time>2021-06-24T23:17:20.000Z</time>
        <extensions>
          <ns3:TrackPointExtension>
            <ns3:atemp>30.0</ns3:atemp>
            <ns3:hr>121</ns3:hr>
          </ns3:TrackPointExtension>
        </extensions>
      </trkpt>
      <trkpt lat="36.7536420933902263641357421875" lon="-118.4356448985636234283447265625">
        <ele>2598.39990234375</ele>
        <time>2021-06-24T23:17:29.000Z</time>
        <extensions>
          <ns3:TrackPointExtension>
            <ns3:atemp>30.0</ns3:atemp>
            <ns3:hr>124</ns3:hr>
          </ns3:TrackPointExtension>
        </extensions>
      </trkpt>
      <trkpt lat="36.75364703871309757232666015625" lon="-118.4356485866010189056396484375">
        <ele>2599.800048828125</ele>
        <time>2021-06-24T23:17:36.000Z</time>
        <extensions>
          <ns3:TrackPointExtension>
            <ns3:atemp>30.0</ns3:atemp>
            <ns3:hr>124</ns3:hr>
          </ns3:TrackPointExtension>
        </extensions>
      </trkpt>
      <trkpt lat="36.75370194017887115478515625" lon="-118.43565671704709529876708984375">
        <ele>2600.39990234375</ele>
        <time>2021-06-24T23:17:42.000Z</time>
        <extensions>
          <ns3:TrackPointExtension>
            <ns3:atemp>30.0</ns3:atemp>
            <ns3:hr>122</ns3:hr>
          </ns3:TrackPointExtension>
        </extensions>
      </trkpt>
      <trkpt lat="36.7537054605782032012939453125" lon="-118.43563425354659557342529296875">
        <ele>2601</ele>
        <time>2021-06-24T23:17:46.000Z</time>
        <extensions>
          <ns3:TrackPointExtension>
            <ns3:atemp>30.0</ns3:atemp>
            <ns3:hr>122</ns3:hr>
          </ns3:TrackPointExtension>
        </extensions>
      </trkpt>
      <trkpt lat="36.75367302261292934417724609375" lon="-118.43560609035193920135498046875">
        <ele>2601.60009765625</ele>
        <time>2021-06-24T23:17:49.000Z</time>
        <extensions>
          <ns3:TrackPointExtension>
            <ns3:atemp>30.0</ns3:atemp>
            <ns3:hr>122</ns3:hr>
          </ns3:TrackPointExtension>
        </extensions>
      </trkpt>
      <trkpt lat="36.75363228656351566314697265625" lon="-118.4355862252414226531982421875">
        <ele>2601.60009765625</ele>
        <time>2021-06-24T23:17:55.000Z</time>
        <extensions>
          <ns3:TrackPointExtension>
            <ns3:atemp>30.0</ns3:atemp>
            <ns3:hr>124</ns3:hr>
          </ns3:TrackPointExtension>
        </extensions>
      </trkpt>
      <trkpt lat="36.75363111309707164764404296875" lon="-118.4355969540774822235107421875">
        <ele>2601.199951171875</ele>
        <time>2021-06-24T23:17:57.000Z</time>
        <extensions>
          <ns3:TrackPointExtension>
            <ns3:atemp>30.0</ns3:atemp>
            <ns3:hr>121</ns3:hr>
          </ns3:TrackPointExtension>
        </extensions>
      </trkpt>
      <trkpt lat="36.75365877337753772735595703125" lon="-118.4355805255472660064697265625">
        <ele>2601</ele>
        <time>2021-06-24T23:18:01.000Z</time>
        <extensions>
          <ns3:TrackPointExtension>
            <ns3:atemp>30.0</ns3:atemp>
            <ns3:hr>119</ns3:hr>
          </ns3:TrackPointExtension>
        </extensions>
      </trkpt>
      <trkpt lat="36.75366514362394809722900390625" lon="-118.4355771727859973907470703125">
        <ele>2600.800048828125</ele>
        <time>2021-06-24T23:18:03.000Z</time>
        <extensions>
          <ns3:TrackPointExtension>
            <ns3:atemp>30.0</ns3:atemp>
            <ns3:hr>119</ns3:hr>
          </ns3:TrackPointExtension>
        </extensions>
      </trkpt>
      <trkpt lat="36.75366346724331378936767578125" lon="-118.43557122163474559783935546875">
        <ele>2600.800048828125</ele>
        <time>2021-06-24T23:18:06.000Z</time>
        <extensions>
          <ns3:TrackPointExtension>
            <ns3:atemp>30.0</ns3:atemp>
            <ns3:hr>115</ns3:hr>
          </ns3:TrackPointExtension>
        </extensions>
      </trkpt>
      <trkpt lat="36.7536498047411441802978515625" lon="-118.4355657733976840972900390625">
        <ele>2601.39990234375</ele>
        <time>2021-06-24T23:18:09.000Z</time>
        <extensions>
          <ns3:TrackPointExtension>
            <ns3:atemp>30.0</ns3:atemp>
            <ns3:hr>112</ns3:hr>
          </ns3:TrackPointExtension>
        </extensions>
      </trkpt>
      <trkpt lat="36.7536243237555027008056640625" lon="-118.435559235513210296630859375">
        <ele>2602.199951171875</ele>
        <time>2021-06-24T23:18:11.000Z</time>
        <extensions>
          <ns3:TrackPointExtension>
            <ns3:atemp>30.0</ns3:atemp>
            <ns3:hr>110</ns3:hr>
          </ns3:TrackPointExtension>
        </extensions>
      </trkpt>
      <trkpt lat="36.75356380641460418701171875" lon="-118.43552998267114162445068359375">
        <ele>2603</ele>
        <time>2021-06-24T23:18:16.000Z</time>
        <extensions>
          <ns3:TrackPointExtension>
            <ns3:atemp>29.0</ns3:atemp>
            <ns3:hr>108</ns3:hr>
          </ns3:TrackPointExtension>
        </extensions>
      </trkpt>
      <trkpt lat="36.75355131737887859344482421875" lon="-118.43552662990987300872802734375">
        <ele>2603.39990234375</ele>
        <time>2021-06-24T23:18:18.000Z</time>
        <extensions>
          <ns3:TrackPointExtension>
            <ns3:atemp>29.0</ns3:atemp>
            <ns3:hr>107</ns3:hr>
          </ns3:TrackPointExtension>
        </extensions>
      </trkpt>
      <trkpt lat="36.75353069789707660675048828125" lon="-118.43552310951054096221923828125">
        <ele>2602.800048828125</ele>
        <time>2021-06-24T23:18:21.000Z</time>
        <extensions>
          <ns3:TrackPointExtension>
            <ns3:atemp>29.0</ns3:atemp>
            <ns3:hr>104</ns3:hr>
          </ns3:TrackPointExtension>
        </extensions>
      </trkpt>
      <trkpt lat="36.75351628102362155914306640625" lon="-118.4355181641876697540283203125">
        <ele>2602.39990234375</ele>
        <time>2021-06-24T23:18:22.000Z</time>
        <extensions>
          <ns3:TrackPointExtension>
            <ns3:atemp>29.0</ns3:atemp>
            <ns3:hr>104</ns3:hr>
          </ns3:TrackPointExtension>
        </extensions>
      </trkpt>
      <trkpt lat="36.7535026185214519500732421875" lon="-118.4355164878070354461669921875">
        <ele>2602.199951171875</ele>
        <time>2021-06-24T23:18:23.000Z</time>
        <extensions>
          <ns3:TrackPointExtension>
            <ns3:atemp>29.0</ns3:atemp>
            <ns3:hr>104</ns3:hr>
          </ns3:TrackPointExtension>
        </extensions>
      </trkpt>
      <trkpt lat="36.7534731142222881317138671875" lon="-118.43548639677464962005615234375">
        <ele>2601.60009765625</ele>
        <time>2021-06-24T23:18:27.000Z</time>
        <extensions>
          <ns3:TrackPointExtension>
            <ns3:atemp>29.0</ns3:atemp>
            <ns3:hr>104</ns3:hr>
          </ns3:TrackPointExtension>
        </extensions>
      </trkpt>
      <trkpt lat="36.7534721083939075469970703125" lon="-118.43548622913658618927001953125">
        <ele>2601</ele>
        <time>2021-06-24T23:18:28.000Z</time>
        <extensions>
          <ns3:TrackPointExtension>
            <ns3:atemp>29.0</ns3:atemp>
            <ns3:hr>104</ns3:hr>
          </ns3:TrackPointExtension>
        </extensions>
      </trkpt>
      <trkpt lat="36.75347319804131984710693359375" lon="-118.43548589386045932769775390625">
        <ele>2601.60009765625</ele>
        <time>2021-06-24T23:18:29.000Z</time>
        <extensions>
          <ns3:TrackPointExtension>
            <ns3:atemp>29.0</ns3:atemp>
            <ns3:hr>103</ns3:hr>
          </ns3:TrackPointExtension>
        </extensions>
      </trkpt>
      <trkpt lat="36.7534519918262958526611328125" lon="-118.43547130934894084930419921875">
        <ele>2601.199951171875</ele>
        <time>2021-06-24T23:18:39.000Z</time>
        <extensions>
          <ns3:TrackPointExtension>
            <ns3:atemp>29.0</ns3:atemp>
            <ns3:hr>100</ns3:hr>
          </ns3:TrackPointExtension>
        </extensions>
      </trkpt>
      <trkpt lat="36.7534452863037586212158203125" lon="-118.43547231517732143402099609375">
        <ele>2601.199951171875</ele>
        <time>2021-06-24T23:18:40.000Z</time>
        <extensions>
          <ns3:TrackPointExtension>
            <ns3:atemp>29.0</ns3:atemp>
            <ns3:hr>102</ns3:hr>
          </ns3:TrackPointExtension>
        </extensions>
      </trkpt>
      <trkpt lat="36.7534342221915721893310546875" lon="-118.435482792556285858154296875">
        <ele>2601.199951171875</ele>
        <time>2021-06-24T23:18:43.000Z</time>
        <extensions>
          <ns3:TrackPointExtension>
            <ns3:atemp>29.0</ns3:atemp>
            <ns3:hr>100</ns3:hr>
          </ns3:TrackPointExtension>
        </extensions>
      </trkpt>
      <trkpt lat="36.7534342221915721893310546875" lon="-118.435482792556285858154296875">
        <ele>2601.199951171875</ele>
        <time>2021-06-24T23:18:46.000Z</time>
        <extensions>
          <ns3:TrackPointExtension>
            <ns3:atemp>29.0</ns3:atemp>
            <ns3:hr>97</ns3:hr>
          </ns3:TrackPointExtension>
        </extensions>
      </trkpt>
      <trkpt lat="36.7534342221915721893310546875" lon="-118.435482792556285858154296875">
        <ele>2602.199951171875</ele>
        <time>2021-06-24T23:18:52.000Z</time>
        <extensions>
          <ns3:TrackPointExtension>
            <ns3:atemp>28.0</ns3:atemp>
            <ns3:hr>96</ns3:hr>
          </ns3:TrackPointExtension>
        </extensions>
      </trkpt>
      <trkpt lat="36.7534338869154453277587890625" lon="-118.4354621730744838714599609375">
        <ele>2602.800048828125</ele>
        <time>2021-06-24T23:18:56.000Z</time>
        <extensions>
          <ns3:TrackPointExtension>
            <ns3:atemp>28.0</ns3:atemp>
            <ns3:hr>92</ns3:hr>
          </ns3:TrackPointExtension>
        </extensions>
      </trkpt>
      <trkpt lat="36.75343648530542850494384765625" lon="-118.43545035459101200103759765625">
        <ele>2602.800048828125</ele>
        <time>2021-06-24T23:18:57.000Z</time>
        <extensions>
          <ns3:TrackPointExtension>
            <ns3:atemp>28.0</ns3:atemp>
            <ns3:hr>91</ns3:hr>
          </ns3:TrackPointExtension>
        </extensions>
      </trkpt>
      <trkpt lat="36.75344184972345829010009765625" lon="-118.43541867099702358245849609375">
        <ele>2603.39990234375</ele>
        <time>2021-06-24T23:19:00.000Z</time>
        <extensions>
          <ns3:TrackPointExtension>
            <ns3:atemp>28.0</ns3:atemp>
            <ns3:hr>91</ns3:hr>
          </ns3:TrackPointExtension>
        </extensions>
      </trkpt>
      <trkpt lat="36.75343103706836700439453125" lon="-118.43539922498166561126708984375">
        <ele>2603.800048828125</ele>
        <time>2021-06-24T23:19:03.000Z</time>
        <extensions>
          <ns3:TrackPointExtension>
            <ns3:atemp>28.0</ns3:atemp>
            <ns3:hr>91</ns3:hr>
          </ns3:TrackPointExtension>
        </extensions>
      </trkpt>
      <trkpt lat="36.753417961299419403076171875" lon="-118.4353850595653057098388671875">
        <ele>2604.199951171875</ele>
        <time>2021-06-24T23:19:07.000Z</time>
        <extensions>
          <ns3:TrackPointExtension>
            <ns3:atemp>28.0</ns3:atemp>
            <ns3:hr>94</ns3:hr>
          </ns3:TrackPointExtension>
        </extensions>
      </trkpt>
      <trkpt lat="36.7534100823104381561279296875" lon="-118.43537651002407073974609375">
        <ele>2604.800048828125</ele>
        <time>2021-06-24T23:19:09.000Z</time>
        <extensions>
          <ns3:TrackPointExtension>
            <ns3:atemp>28.0</ns3:atemp>
            <ns3:hr>95</ns3:hr>
          </ns3:TrackPointExtension>
        </extensions>
      </trkpt>
      <trkpt lat="36.75340362824499607086181640625" lon="-118.43536854721605777740478515625">
        <ele>2605</ele>
        <time>2021-06-24T23:19:10.000Z</time>
        <extensions>
          <ns3:TrackPointExtension>
            <ns3:atemp>28.0</ns3:atemp>
            <ns3:hr>98</ns3:hr>
          </ns3:TrackPointExtension>
        </extensions>
      </trkpt>
      <trkpt lat="36.75338518805801868438720703125" lon="-118.43532823026180267333984375">
        <ele>2605.60009765625</ele>
        <time>2021-06-24T23:19:16.000Z</time>
        <extensions>
          <ns3:TrackPointExtension>
            <ns3:atemp>28.0</ns3:atemp>
            <ns3:hr>102</ns3:hr>
          </ns3:TrackPointExtension>
        </extensions>
      </trkpt>
      <trkpt lat="36.753384768962860107421875" lon="-118.43531942926347255706787109375">
        <ele>2605.800048828125</ele>
        <time>2021-06-24T23:19:17.000Z</time>
        <extensions>
          <ns3:TrackPointExtension>
            <ns3:atemp>28.0</ns3:atemp>
            <ns3:hr>103</ns3:hr>
          </ns3:TrackPointExtension>
        </extensions>
      </trkpt>
      <trkpt lat="36.75338451750576496124267578125" lon="-118.43530802987515926361083984375">
        <ele>2606</ele>
        <time>2021-06-24T23:19:18.000Z</time>
        <extensions>
          <ns3:TrackPointExtension>
            <ns3:atemp>28.0</ns3:atemp>
            <ns3:hr>105</ns3:hr>
          </ns3:TrackPointExtension>
        </extensions>
      </trkpt>
      <trkpt lat="36.75338837318122386932373046875" lon="-118.43529897741973400115966796875">
        <ele>2606.60009765625</ele>
        <time>2021-06-24T23:19:20.000Z</time>
        <extensions>
          <ns3:TrackPointExtension>
            <ns3:atemp>28.0</ns3:atemp>
            <ns3:hr>108</ns3:hr>
          </ns3:TrackPointExtension>
        </extensions>
      </trkpt>
      <trkpt lat="36.75338543951511383056640625" lon="-118.4352807886898517608642578125">
        <ele>2606.800048828125</ele>
        <time>2021-06-24T23:19:22.000Z</time>
        <extensions>
          <ns3:TrackPointExtension>
            <ns3:atemp>28.0</ns3:atemp>
            <ns3:hr>108</ns3:hr>
          </ns3:TrackPointExtension>
        </extensions>
      </trkpt>
      <trkpt lat="36.75338367931544780731201171875" lon="-118.4352690540254116058349609375">
        <ele>2606.800048828125</ele>
        <time>2021-06-24T23:19:24.000Z</time>
        <extensions>
          <ns3:TrackPointExtension>
            <ns3:atemp>28.0</ns3:atemp>
            <ns3:hr>111</ns3:hr>
          </ns3:TrackPointExtension>
        </extensions>
      </trkpt>
      <trkpt lat="36.75338803790509700775146484375" lon="-118.4352475963532924652099609375">
        <ele>2607.60009765625</ele>
        <time>2021-06-24T23:19:27.000Z</time>
        <extensions>
          <ns3:TrackPointExtension>
            <ns3:atemp>28.0</ns3:atemp>
            <ns3:hr>114</ns3:hr>
          </ns3:TrackPointExtension>
        </extensions>
      </trkpt>
      <trkpt lat="36.7533906362950801849365234375" lon="-118.4352395497262477874755859375">
        <ele>2607.800048828125</ele>
        <time>2021-06-24T23:19:28.000Z</time>
        <extensions>
          <ns3:TrackPointExtension>
            <ns3:atemp>28.0</ns3:atemp>
            <ns3:hr>116</ns3:hr>
          </ns3:TrackPointExtension>
        </extensions>
      </trkpt>
      <trkpt lat="36.75340396352112293243408203125" lon="-118.43521130271255970001220703125">
        <ele>2608.39990234375</ele>
        <time>2021-06-24T23:19:32.000Z</time>
        <extensions>
          <ns3:TrackPointExtension>
            <ns3:atemp>28.0</ns3:atemp>
            <ns3:hr>120</ns3:hr>
          </ns3:TrackPointExtension>
        </extensions>
      </trkpt>
      <trkpt lat="36.753408908843994140625" lon="-118.43520007096230983734130859375">
        <ele>2609</ele>
        <time>2021-06-24T23:19:34.000Z</time>
        <extensions>
          <ns3:TrackPointExtension>
            <ns3:atemp>28.0</ns3:atemp>
            <ns3:hr>120</ns3:hr>
          </ns3:TrackPointExtension>
        </extensions>
      </trkpt>
      <trkpt lat="36.7534087412059307098388671875" lon="-118.43516084365546703338623046875">
        <ele>2609.199951171875</ele>
        <time>2021-06-24T23:19:38.000Z</time>
        <extensions>
          <ns3:TrackPointExtension>
            <ns3:atemp>28.0</ns3:atemp>
            <ns3:hr>122</ns3:hr>
          </ns3:TrackPointExtension>
        </extensions>
      </trkpt>
      <trkpt lat="36.7534100823104381561279296875" lon="-118.435146845877170562744140625">
        <ele>2609.800048828125</ele>
        <time>2021-06-24T23:19:40.000Z</time>
        <extensions>
          <ns3:TrackPointExtension>
            <ns3:atemp>28.0</ns3:atemp>
            <ns3:hr>125</ns3:hr>
          </ns3:TrackPointExtension>
        </extensions>
      </trkpt>
      <trkpt lat="36.7534060589969158172607421875" lon="-118.43511625193059444427490234375">
        <ele>2610.199951171875</ele>
        <time>2021-06-24T23:19:43.000Z</time>
        <extensions>
          <ns3:TrackPointExtension>
            <ns3:atemp>28.0</ns3:atemp>
            <ns3:hr>123</ns3:hr>
          </ns3:TrackPointExtension>
        </extensions>
      </trkpt>
      <trkpt lat="36.753395162522792816162109375" lon="-118.4350863285362720489501953125">
        <ele>2610.60009765625</ele>
        <time>2021-06-24T23:19:46.000Z</time>
        <extensions>
          <ns3:TrackPointExtension>
            <ns3:atemp>28.0</ns3:atemp>
            <ns3:hr>122</ns3:hr>
          </ns3:TrackPointExtension>
        </extensions>
      </trkpt>
      <trkpt lat="36.75339306704699993133544921875" lon="-118.4350437484681606292724609375">
        <ele>2611.39990234375</ele>
        <time>2021-06-24T23:19:51.000Z</time>
        <extensions>
          <ns3:TrackPointExtension>
            <ns3:atemp>28.0</ns3:atemp>
            <ns3:hr>118</ns3:hr>
          </ns3:TrackPointExtension>
        </extensions>
      </trkpt>
      <trkpt lat="36.7533872835338115692138671875" lon="-118.43503461219370365142822265625">
        <ele>2611.60009765625</ele>
        <time>2021-06-24T23:19:53.000Z</time>
        <extensions>
          <ns3:TrackPointExtension>
            <ns3:atemp>28.0</ns3:atemp>
            <ns3:hr>116</ns3:hr>
          </ns3:TrackPointExtension>
        </extensions>
      </trkpt>
      <trkpt lat="36.75341050140559673309326171875" lon="-118.43499655835330486297607421875">
        <ele>2612.39990234375</ele>
        <time>2021-06-24T23:20:00.000Z</time>
        <extensions>
          <ns3:TrackPointExtension>
            <ns3:atemp>29.0</ns3:atemp>
            <ns3:hr>114</ns3:hr>
          </ns3:TrackPointExtension>
        </extensions>
      </trkpt>
      <trkpt lat="36.753419972956180572509765625" lon="-118.43499152921140193939208984375">
        <ele>2612.800048828125</ele>
        <time>2021-06-24T23:20:02.000Z</time>
        <extensions>
          <ns3:TrackPointExtension>
            <ns3:atemp>29.0</ns3:atemp>
            <ns3:hr>116</ns3:hr>
          </ns3:TrackPointExtension>
        </extensions>
      </trkpt>
      <trkpt lat="36.75342542119324207305908203125" lon="-118.43499027192592620849609375">
        <ele>2613</ele>
        <time>2021-06-24T23:20:03.000Z</time>
        <extensions>
          <ns3:TrackPointExtension>
            <ns3:atemp>29.0</ns3:atemp>
            <ns3:hr>117</ns3:hr>
          </ns3:TrackPointExtension>
        </extensions>
      </trkpt>
      <trkpt lat="36.7534419335424900054931640625" lon="-118.4349750168621540069580078125">
        <ele>2613.39990234375</ele>
        <time>2021-06-24T23:20:06.000Z</time>
        <extensions>
          <ns3:TrackPointExtension>
            <ns3:atemp>29.0</ns3:atemp>
            <ns3:hr>121</ns3:hr>
          </ns3:TrackPointExtension>
        </extensions>
      </trkpt>
      <trkpt lat="36.75345324911177158355712890625" lon="-118.43495951034128665924072265625">
        <ele>2613.39990234375</ele>
        <time>2021-06-24T23:20:09.000Z</time>
        <extensions>
          <ns3:TrackPointExtension>
            <ns3:atemp>29.0</ns3:atemp>
            <ns3:hr>124</ns3:hr>
          </ns3:TrackPointExtension>
        </extensions>
      </trkpt>
      <trkpt lat="36.75345643423497676849365234375" lon="-118.43495364300906658172607421875">
        <ele>2613.39990234375</ele>
        <time>2021-06-24T23:20:10.000Z</time>
        <extensions>
          <ns3:TrackPointExtension>
            <ns3:atemp>29.0</ns3:atemp>
            <ns3:hr>125</ns3:hr>
          </ns3:TrackPointExtension>
        </extensions>
      </trkpt>
      <trkpt lat="36.75345744006335735321044921875" lon="-118.43494735658168792724609375">
        <ele>2613.39990234375</ele>
        <time>2021-06-24T23:20:11.000Z</time>
        <extensions>
          <ns3:TrackPointExtension>
            <ns3:atemp>29.0</ns3:atemp>
            <ns3:hr>125</ns3:hr>
          </ns3:TrackPointExtension>
        </extensions>
      </trkpt>
      <trkpt lat="36.753480993211269378662109375" lon="-118.43491273932158946990966796875">
        <ele>2614.199951171875</ele>
        <time>2021-06-24T23:20:18.000Z</time>
        <extensions>
          <ns3:TrackPointExtension>
            <ns3:atemp>29.0</ns3:atemp>
            <ns3:hr>125</ns3:hr>
          </ns3:TrackPointExtension>
        </extensions>
      </trkpt>
      <trkpt lat="36.75348929129540920257568359375" lon="-118.43490921892225742340087890625">
        <ele>2614.39990234375</ele>
        <time>2021-06-24T23:20:20.000Z</time>
        <extensions>
          <ns3:TrackPointExtension>
            <ns3:atemp>29.0</ns3:atemp>
            <ns3:hr>124</ns3:hr>
          </ns3:TrackPointExtension>
        </extensions>
      </trkpt>
      <trkpt lat="36.753526590764522552490234375" lon="-118.4348754398524761199951171875">
        <ele>2615.199951171875</ele>
        <time>2021-06-24T23:20:29.000Z</time>
        <extensions>
          <ns3:TrackPointExtension>
            <ns3:atemp>29.0</ns3:atemp>
            <ns3:hr>124</ns3:hr>
          </ns3:TrackPointExtension>
        </extensions>
      </trkpt>
      <trkpt lat="36.7535421811044216156005859375" lon="-118.4348633699119091033935546875">
        <ele>2615.60009765625</ele>
        <time>2021-06-24T23:20:32.000Z</time>
        <extensions>
          <ns3:TrackPointExtension>
            <ns3:atemp>29.0</ns3:atemp>
            <ns3:hr>124</ns3:hr>
          </ns3:TrackPointExtension>
        </extensions>
      </trkpt>
      <trkpt lat="36.7535626329481601715087890625" lon="-118.43485892750322818756103515625">
        <ele>2616.39990234375</ele>
        <time>2021-06-24T23:20:36.000Z</time>
        <extensions>
          <ns3:TrackPointExtension>
            <ns3:atemp>29.0</ns3:atemp>
            <ns3:hr>123</ns3:hr>
          </ns3:TrackPointExtension>
        </extensions>
      </trkpt>
      <trkpt lat="36.753573529422283172607421875" lon="-118.4348476119339466094970703125">
        <ele>2616.60009765625</ele>
        <time>2021-06-24T23:20:39.000Z</time>
        <extensions>
          <ns3:TrackPointExtension>
            <ns3:atemp>29.0</ns3:atemp>
            <ns3:hr>121</ns3:hr>
          </ns3:TrackPointExtension>
        </extensions>
      </trkpt>
      <trkpt lat="36.7535690031945705413818359375" lon="-118.43481115065515041351318359375">
        <ele>2616.800048828125</ele>
        <time>2021-06-24T23:20:44.000Z</time>
        <extensions>
          <ns3:TrackPointExtension>
            <ns3:atemp>29.0</ns3:atemp>
            <ns3:hr>120</ns3:hr>
          </ns3:TrackPointExtension>
        </extensions>
      </trkpt>
      <trkpt lat="36.7535639740526676177978515625" lon="-118.43477644957602024078369140625">
        <ele>2616.800048828125</ele>
        <time>2021-06-24T23:20:46.000Z</time>
        <extensions>
          <ns3:TrackPointExtension>
            <ns3:atemp>29.0</ns3:atemp>
            <ns3:hr>120</ns3:hr>
          </ns3:TrackPointExtension>
        </extensions>
      </trkpt>
      <trkpt lat="36.7535550892353057861328125" lon="-118.43472146429121494293212890625">
        <ele>2617.39990234375</ele>
        <time>2021-06-24T23:20:51.000Z</time>
        <extensions>
          <ns3:TrackPointExtension>
            <ns3:atemp>29.0</ns3:atemp>
            <ns3:hr>120</ns3:hr>
          </ns3:TrackPointExtension>
        </extensions>
      </trkpt>
      <trkpt lat="36.75355031155049800872802734375" lon="-118.4347175247967243194580078125">
        <ele>2617.800048828125</ele>
        <time>2021-06-24T23:20:52.000Z</time>
        <extensions>
          <ns3:TrackPointExtension>
            <ns3:atemp>29.0</ns3:atemp>
            <ns3:hr>120</ns3:hr>
          </ns3:TrackPointExtension>
        </extensions>
      </trkpt>
      <trkpt lat="36.75354343838989734649658203125" lon="-118.43464619480073451995849609375">
        <ele>2618.39990234375</ele>
        <time>2021-06-24T23:21:00.000Z</time>
        <extensions>
          <ns3:TrackPointExtension>
            <ns3:atemp>29.0</ns3:atemp>
            <ns3:hr>119</ns3:hr>
          </ns3:TrackPointExtension>
        </extensions>
      </trkpt>
      <trkpt lat="36.7535428516566753387451171875" lon="-118.43462473712861537933349609375">
        <ele>2619</ele>
        <time>2021-06-24T23:21:05.000Z</time>
        <extensions>
          <ns3:TrackPointExtension>
            <ns3:atemp>29.0</ns3:atemp>
            <ns3:hr>118</ns3:hr>
          </ns3:TrackPointExtension>
        </extensions>
      </trkpt>
      <trkpt lat="36.75352600403130054473876953125" lon="-118.43457746319472789764404296875">
        <ele>2619.199951171875</ele>
        <time>2021-06-24T23:21:09.000Z</time>
        <extensions>
          <ns3:TrackPointExtension>
            <ns3:atemp>29.0</ns3:atemp>
            <ns3:hr>117</ns3:hr>
          </ns3:TrackPointExtension>
        </extensions>
      </trkpt>
      <trkpt lat="36.7535264231264591217041015625" lon="-118.43453940935432910919189453125">
        <ele>2620</ele>
        <time>2021-06-24T23:21:14.000Z</time>
        <extensions>
          <ns3:TrackPointExtension>
            <ns3:atemp>29.0</ns3:atemp>
            <ns3:hr>117</ns3:hr>
          </ns3:TrackPointExtension>
        </extensions>
      </trkpt>
      <trkpt lat="36.7535309493541717529296875" lon="-118.4345317818224430084228515625">
        <ele>2620.199951171875</ele>
        <time>2021-06-24T23:21:15.000Z</time>
        <extensions>
          <ns3:TrackPointExtension>
            <ns3:atemp>29.0</ns3:atemp>
            <ns3:hr>117</ns3:hr>
          </ns3:TrackPointExtension>
        </extensions>
      </trkpt>
      <trkpt lat="36.7535106651484966278076171875" lon="-118.43446766026318073272705078125">
        <ele>2620.60009765625</ele>
        <time>2021-06-24T23:21:22.000Z</time>
        <extensions>
          <ns3:TrackPointExtension>
            <ns3:atemp>29.0</ns3:atemp>
            <ns3:hr>117</ns3:hr>
          </ns3:TrackPointExtension>
        </extensions>
      </trkpt>
      <trkpt lat="36.7534969188272953033447265625" lon="-118.4344248287379741668701171875">
        <ele>2621.39990234375</ele>
        <time>2021-06-24T23:21:28.000Z</time>
        <extensions>
          <ns3:TrackPointExtension>
            <ns3:atemp>29.0</ns3:atemp>
            <ns3:hr>118</ns3:hr>
          </ns3:TrackPointExtension>
        </extensions>
      </trkpt>
      <trkpt lat="36.7534962482750415802001953125" lon="-118.43442575074732303619384765625">
        <ele>2621.60009765625</ele>
        <time>2021-06-24T23:21:29.000Z</time>
        <extensions>
          <ns3:TrackPointExtension>
            <ns3:atemp>29.0</ns3:atemp>
            <ns3:hr>118</ns3:hr>
          </ns3:TrackPointExtension>
        </extensions>
      </trkpt>
      <trkpt lat="36.7535099945962429046630859375" lon="-118.43437135219573974609375">
        <ele>2622.39990234375</ele>
        <time>2021-06-24T23:21:38.000Z</time>
        <extensions>
          <ns3:TrackPointExtension>
            <ns3:atemp>29.0</ns3:atemp>
            <ns3:hr>118</ns3:hr>
          </ns3:TrackPointExtension>
        </extensions>
      </trkpt>
      <trkpt lat="36.7535046301782131195068359375" lon="-118.43435584567487239837646484375">
        <ele>2622.60009765625</ele>
        <time>2021-06-24T23:21:39.000Z</time>
        <extensions>
          <ns3:TrackPointExtension>
            <ns3:atemp>29.0</ns3:atemp>
            <ns3:hr>119</ns3:hr>
          </ns3:TrackPointExtension>
        </extensions>
      </trkpt>
      <trkpt lat="36.7535086534917354583740234375" lon="-118.4342776425182819366455078125">
        <ele>2622.800048828125</ele>
        <time>2021-06-24T23:21:46.000Z</time>
        <extensions>
          <ns3:TrackPointExtension>
            <ns3:atemp>29.0</ns3:atemp>
            <ns3:hr>118</ns3:hr>
          </ns3:TrackPointExtension>
        </extensions>
      </trkpt>
      <trkpt lat="36.75351192243397235870361328125" lon="-118.43426330946385860443115234375">
        <ele>2623.60009765625</ele>
        <time>2021-06-24T23:21:48.000Z</time>
        <extensions>
          <ns3:TrackPointExtension>
            <ns3:atemp>29.0</ns3:atemp>
            <ns3:hr>117</ns3:hr>
          </ns3:TrackPointExtension>
        </extensions>
      </trkpt>
      <trkpt lat="36.75351284444332122802734375" lon="-118.43423120677471160888671875">
        <ele>2624.39990234375</ele>
        <time>2021-06-24T23:21:55.000Z</time>
        <extensions>
          <ns3:TrackPointExtension>
            <ns3:atemp>29.0</ns3:atemp>
            <ns3:hr>119</ns3:hr>
          </ns3:TrackPointExtension>
        </extensions>
      </trkpt>
      <trkpt lat="36.75353455357253551483154296875" lon="-118.4342283569276332855224609375">
        <ele>2624.800048828125</ele>
        <time>2021-06-24T23:22:00.000Z</time>
        <extensions>
          <ns3:TrackPointExtension>
            <ns3:atemp>29.0</ns3:atemp>
            <ns3:hr>116</ns3:hr>
          </ns3:TrackPointExtension>
        </extensions>
      </trkpt>
      <trkpt lat="36.7535522393882274627685546875" lon="-118.43423380516469478607177734375">
        <ele>2624.800048828125</ele>
        <time>2021-06-24T23:22:03.000Z</time>
        <extensions>
          <ns3:TrackPointExtension>
            <ns3:atemp>29.0</ns3:atemp>
            <ns3:hr>114</ns3:hr>
          </ns3:TrackPointExtension>
        </extensions>
      </trkpt>
      <trkpt lat="36.7535685002803802490234375" lon="-118.43424704857170581817626953125">
        <ele>2625.199951171875</ele>
        <time>2021-06-24T23:22:07.000Z</time>
        <extensions>
          <ns3:TrackPointExtension>
            <ns3:atemp>29.0</ns3:atemp>
            <ns3:hr>117</ns3:hr>
          </ns3:TrackPointExtension>
        </extensions>
      </trkpt>
      <trkpt lat="36.7536008544266223907470703125" lon="-118.434246294200420379638671875">
        <ele>2626</ele>
        <time>2021-06-24T23:22:12.000Z</time>
        <extensions>
          <ns3:TrackPointExtension>
            <ns3:atemp>29.0</ns3:atemp>
            <ns3:hr>118</ns3:hr>
          </ns3:TrackPointExtension>
        </extensions>
      </trkpt>
      <trkpt lat="36.75360806286334991455078125" lon="-118.4342424385249614715576171875">
        <ele>2626</ele>
        <time>2021-06-24T23:22:13.000Z</time>
        <extensions>
          <ns3:TrackPointExtension>
            <ns3:atemp>29.0</ns3:atemp>
            <ns3:hr>118</ns3:hr>
          </ns3:TrackPointExtension>
        </extensions>
      </trkpt>
      <trkpt lat="36.75363329239189624786376953125" lon="-118.43421377241611480712890625">
        <ele>2626.800048828125</ele>
        <time>2021-06-24T23:22:20.000Z</time>
        <extensions>
          <ns3:TrackPointExtension>
            <ns3:atemp>29.0</ns3:atemp>
            <ns3:hr>117</ns3:hr>
          </ns3:TrackPointExtension>
        </extensions>
      </trkpt>
      <trkpt lat="36.753637231886386871337890625" lon="-118.434197343885898590087890625">
        <ele>2627</ele>
        <time>2021-06-24T23:22:23.000Z</time>
        <extensions>
          <ns3:TrackPointExtension>
            <ns3:atemp>29.0</ns3:atemp>
            <ns3:hr>117</ns3:hr>
          </ns3:TrackPointExtension>
        </extensions>
      </trkpt>
      <trkpt lat="36.753658354282379150390625" lon="-118.434172533452510833740234375">
        <ele>2627.800048828125</ele>
        <time>2021-06-24T23:22:28.000Z</time>
        <extensions>
          <ns3:TrackPointExtension>
            <ns3:atemp>29.0</ns3:atemp>
            <ns3:hr>117</ns3:hr>
          </ns3:TrackPointExtension>
        </extensions>
      </trkpt>
      <trkpt lat="36.753663383424282073974609375" lon="-118.4341750480234622955322265625">
        <ele>2628</ele>
        <time>2021-06-24T23:22:30.000Z</time>
        <extensions>
          <ns3:TrackPointExtension>
            <ns3:atemp>29.0</ns3:atemp>
            <ns3:hr>115</ns3:hr>
          </ns3:TrackPointExtension>
        </extensions>
      </trkpt>
      <trkpt lat="36.75368852913379669189453125" lon="-118.4341500699520111083984375">
        <ele>2628.60009765625</ele>
        <time>2021-06-24T23:22:35.000Z</time>
        <extensions>
          <ns3:TrackPointExtension>
            <ns3:atemp>29.0</ns3:atemp>
            <ns3:hr>113</ns3:hr>
          </ns3:TrackPointExtension>
        </extensions>
      </trkpt>
      <trkpt lat="36.753709651529788970947265625" lon="-118.4341418556869029998779296875">
        <ele>2629.199951171875</ele>
        <time>2021-06-24T23:22:38.000Z</time>
        <extensions>
          <ns3:TrackPointExtension>
            <ns3:atemp>29.0</ns3:atemp>
            <ns3:hr>113</ns3:hr>
          </ns3:TrackPointExtension>
        </extensions>
      </trkpt>
      <trkpt lat="36.75374217331409454345703125" lon="-118.43411863781511783599853515625">
        <ele>2630</ele>
        <time>2021-06-24T23:22:44.000Z</time>
        <extensions>
          <ns3:TrackPointExtension>
            <ns3:atemp>29.0</ns3:atemp>
            <ns3:hr>113</ns3:hr>
          </ns3:TrackPointExtension>
        </extensions>
      </trkpt>
      <trkpt lat="36.7537523992359638214111328125" lon="-118.43411729671061038970947265625">
        <ele>2630.199951171875</ele>
        <time>2021-06-24T23:22:46.000Z</time>
        <extensions>
          <ns3:TrackPointExtension>
            <ns3:atemp>29.0</ns3:atemp>
            <ns3:hr>113</ns3:hr>
          </ns3:TrackPointExtension>
        </extensions>
      </trkpt>
      <trkpt lat="36.75378978252410888671875" lon="-118.43409097753465175628662109375">
        <ele>2630.60009765625</ele>
        <time>2021-06-24T23:22:52.000Z</time>
        <extensions>
          <ns3:TrackPointExtension>
            <ns3:atemp>30.0</ns3:atemp>
            <ns3:hr>113</ns3:hr>
          </ns3:TrackPointExtension>
        </extensions>
      </trkpt>
      <trkpt lat="36.7538060434162616729736328125" lon="-118.43404990620911121368408203125">
        <ele>2631.60009765625</ele>
        <time>2021-06-24T23:22:57.000Z</time>
        <extensions>
          <ns3:TrackPointExtension>
            <ns3:atemp>30.0</ns3:atemp>
            <ns3:hr>114</ns3:hr>
          </ns3:TrackPointExtension>
        </extensions>
      </trkpt>
      <trkpt lat="36.75380143336951732635498046875" lon="-118.4340318851172924041748046875">
        <ele>2631.800048828125</ele>
        <time>2021-06-24T23:22:59.000Z</time>
        <extensions>
          <ns3:TrackPointExtension>
            <ns3:atemp>30.0</ns3:atemp>
            <ns3:hr>114</ns3:hr>
          </ns3:TrackPointExtension>
        </extensions>
      </trkpt>
      <trkpt lat="36.7537463642656803131103515625" lon="-118.4339326433837413787841796875">
        <ele>2632.800048828125</ele>
        <time>2021-06-24T23:23:08.000Z</time>
        <extensions>
          <ns3:TrackPointExtension>
            <ns3:atemp>30.0</ns3:atemp>
            <ns3:hr>112</ns3:hr>
          </ns3:TrackPointExtension>
        </extensions>
      </trkpt>
      <trkpt lat="36.75374343059957027435302734375" lon="-118.43391738831996917724609375">
        <ele>2632.800048828125</ele>
        <time>2021-06-24T23:23:09.000Z</time>
        <extensions>
          <ns3:TrackPointExtension>
            <ns3:atemp>30.0</ns3:atemp>
            <ns3:hr>112</ns3:hr>
          </ns3:TrackPointExtension>
        </extensions>
      </trkpt>
      <trkpt lat="36.753748543560504913330078125" lon="-118.4338893927633762359619140625">
        <ele>2633</ele>
        <time>2021-06-24T23:23:14.000Z</time>
        <extensions>
          <ns3:TrackPointExtension>
            <ns3:atemp>30.0</ns3:atemp>
            <ns3:hr>113</ns3:hr>
          </ns3:TrackPointExtension>
        </extensions>
      </trkpt>
      <trkpt lat="36.75375826656818389892578125" lon="-118.43386617489159107208251953125">
        <ele>2633.60009765625</ele>
        <time>2021-06-24T23:23:18.000Z</time>
        <extensions>
          <ns3:TrackPointExtension>
            <ns3:atemp>29.0</ns3:atemp>
            <ns3:hr>114</ns3:hr>
          </ns3:TrackPointExtension>
        </extensions>
      </trkpt>
      <trkpt lat="36.7537349648773670196533203125" lon="-118.43379844911396503448486328125">
        <ele>2633.800048828125</ele>
        <time>2021-06-24T23:23:23.000Z</time>
        <extensions>
          <ns3:TrackPointExtension>
            <ns3:atemp>29.0</ns3:atemp>
            <ns3:hr>117</ns3:hr>
          </ns3:TrackPointExtension>
        </extensions>
      </trkpt>
      <trkpt lat="36.7537133395671844482421875" lon="-118.43376190401613712310791015625">
        <ele>2633.800048828125</ele>
        <time>2021-06-24T23:23:26.000Z</time>
        <extensions>
          <ns3:TrackPointExtension>
            <ns3:atemp>29.0</ns3:atemp>
            <ns3:hr>116</ns3:hr>
          </ns3:TrackPointExtension>
        </extensions>
      </trkpt>
      <trkpt lat="36.75370655022561550140380859375" lon="-118.4337539412081241607666015625">
        <ele>2633.800048828125</ele>
        <time>2021-06-24T23:23:27.000Z</time>
        <extensions>
          <ns3:TrackPointExtension>
            <ns3:atemp>29.0</ns3:atemp>
            <ns3:hr>116</ns3:hr>
          </ns3:TrackPointExtension>
        </extensions>
      </trkpt>
      <trkpt lat="36.75369531847536563873291015625" lon="-118.433682359755039215087890625">
        <ele>2634.60009765625</ele>
        <time>2021-06-24T23:23:35.000Z</time>
        <extensions>
          <ns3:TrackPointExtension>
            <ns3:atemp>29.0</ns3:atemp>
            <ns3:hr>116</ns3:hr>
          </ns3:TrackPointExtension>
        </extensions>
      </trkpt>
      <trkpt lat="36.75367302261292934417724609375" lon="-118.4336543641984462738037109375">
        <ele>2635</ele>
        <time>2021-06-24T23:23:39.000Z</time>
        <extensions>
          <ns3:TrackPointExtension>
            <ns3:atemp>29.0</ns3:atemp>
            <ns3:hr>118</ns3:hr>
          </ns3:TrackPointExtension>
        </extensions>
      </trkpt>
      <trkpt lat="36.75367067568004131317138671875" lon="-118.43362770974636077880859375">
        <ele>2635.199951171875</ele>
        <time>2021-06-24T23:23:42.000Z</time>
        <extensions>
          <ns3:TrackPointExtension>
            <ns3:atemp>29.0</ns3:atemp>
            <ns3:hr>116</ns3:hr>
          </ns3:TrackPointExtension>
        </extensions>
      </trkpt>
      <trkpt lat="36.75367243587970733642578125" lon="-118.43362293206155300140380859375">
        <ele>2635.39990234375</ele>
        <time>2021-06-24T23:23:43.000Z</time>
        <extensions>
          <ns3:TrackPointExtension>
            <ns3:atemp>29.0</ns3:atemp>
            <ns3:hr>116</ns3:hr>
          </ns3:TrackPointExtension>
        </extensions>
      </trkpt>
      <trkpt lat="36.7536833323538303375244140625" lon="-118.43360650353133678436279296875">
        <ele>2636</ele>
        <time>2021-06-24T23:23:47.000Z</time>
        <extensions>
          <ns3:TrackPointExtension>
            <ns3:atemp>29.0</ns3:atemp>
            <ns3:hr>118</ns3:hr>
          </ns3:TrackPointExtension>
        </extensions>
      </trkpt>
      <trkpt lat="36.75370621494948863983154296875" lon="-118.43361027538776397705078125">
        <ele>2636.800048828125</ele>
        <time>2021-06-24T23:23:50.000Z</time>
        <extensions>
          <ns3:TrackPointExtension>
            <ns3:atemp>29.0</ns3:atemp>
            <ns3:hr>115</ns3:hr>
          </ns3:TrackPointExtension>
        </extensions>
      </trkpt>
      <trkpt lat="36.75372876226902008056640625" lon="-118.433609940111637115478515625">
        <ele>2637.39990234375</ele>
        <time>2021-06-24T23:23:53.000Z</time>
        <extensions>
          <ns3:TrackPointExtension>
            <ns3:atemp>29.0</ns3:atemp>
            <ns3:hr>113</ns3:hr>
          </ns3:TrackPointExtension>
        </extensions>
      </trkpt>
      <trkpt lat="36.75374024547636508941650390625" lon="-118.433597870171070098876953125">
        <ele>2638.39990234375</ele>
        <time>2021-06-24T23:23:59.000Z</time>
        <extensions>
          <ns3:TrackPointExtension>
            <ns3:atemp>29.0</ns3:atemp>
            <ns3:hr>111</ns3:hr>
          </ns3:TrackPointExtension>
        </extensions>
      </trkpt>
      <trkpt lat="36.7537869326770305633544921875" lon="-118.4335668571293354034423828125">
        <ele>2639.39990234375</ele>
        <time>2021-06-24T23:24:08.000Z</time>
        <extensions>
          <ns3:TrackPointExtension>
            <ns3:atemp>29.0</ns3:atemp>
            <ns3:hr>110</ns3:hr>
          </ns3:TrackPointExtension>
        </extensions>
      </trkpt>
      <trkpt lat="36.7538000084459781646728515625" lon="-118.43356375582516193389892578125">
        <ele>2639.60009765625</ele>
        <time>2021-06-24T23:24:10.000Z</time>
        <extensions>
          <ns3:TrackPointExtension>
            <ns3:atemp>29.0</ns3:atemp>
            <ns3:hr>109</ns3:hr>
          </ns3:TrackPointExtension>
        </extensions>
      </trkpt>
      <trkpt lat="36.75382398068904876708984375" lon="-118.4335728920996189117431640625">
        <ele>2640.199951171875</ele>
        <time>2021-06-24T23:24:15.000Z</time>
        <extensions>
          <ns3:TrackPointExtension>
            <ns3:atemp>29.0</ns3:atemp>
            <ns3:hr>112</ns3:hr>
          </ns3:TrackPointExtension>
        </extensions>
      </trkpt>
      <trkpt lat="36.7538462765514850616455078125" lon="-118.43357079662382602691650390625">
        <ele>2640.39990234375</ele>
        <time>2021-06-24T23:24:17.000Z</time>
        <extensions>
          <ns3:TrackPointExtension>
            <ns3:atemp>29.0</ns3:atemp>
            <ns3:hr>113</ns3:hr>
          </ns3:TrackPointExtension>
        </extensions>
      </trkpt>
      <trkpt lat="36.75385843031108379364013671875" lon="-118.43357549048960208892822265625">
        <ele>2640.60009765625</ele>
        <time>2021-06-24T23:24:18.000Z</time>
        <extensions>
          <ns3:TrackPointExtension>
            <ns3:atemp>29.0</ns3:atemp>
            <ns3:hr>113</ns3:hr>
          </ns3:TrackPointExtension>
        </extensions>
      </trkpt>
      <trkpt lat="36.75388474948704242706298828125" lon="-118.43358873389661312103271484375">
        <ele>2641.39990234375</ele>
        <time>2021-06-24T23:24:23.000Z</time>
        <extensions>
          <ns3:TrackPointExtension>
            <ns3:atemp>29.0</ns3:atemp>
            <ns3:hr>116</ns3:hr>
          </ns3:TrackPointExtension>
        </extensions>
      </trkpt>
      <trkpt lat="36.75389212556183338165283203125" lon="-118.433590829372406005859375">
        <ele>2641.60009765625</ele>
        <time>2021-06-24T23:24:24.000Z</time>
        <extensions>
          <ns3:TrackPointExtension>
            <ns3:atemp>29.0</ns3:atemp>
            <ns3:hr>116</ns3:hr>
          </ns3:TrackPointExtension>
        </extensions>
      </trkpt>
      <trkpt lat="36.75390285439789295196533203125" lon="-118.43359543941915035247802734375">
        <ele>2641.60009765625</ele>
        <time>2021-06-24T23:24:25.000Z</time>
        <extensions>
          <ns3:TrackPointExtension>
            <ns3:atemp>29.0</ns3:atemp>
            <ns3:hr>116</ns3:hr>
          </ns3:TrackPointExtension>
        </extensions>
      </trkpt>
      <trkpt lat="36.7539357952773571014404296875" lon="-118.4336104430258274078369140625">
        <ele>2642.39990234375</ele>
        <time>2021-06-24T23:24:29.000Z</time>
        <extensions>
          <ns3:TrackPointExtension>
            <ns3:atemp>29.0</ns3:atemp>
            <ns3:hr>119</ns3:hr>
          </ns3:TrackPointExtension>
        </extensions>
      </trkpt>
      <trkpt lat="36.753953061997890472412109375" lon="-118.4336221776902675628662109375">
        <ele>2642.60009765625</ele>
        <time>2021-06-24T23:24:32.000Z</time>
        <extensions>
          <ns3:TrackPointExtension>
            <ns3:atemp>29.0</ns3:atemp>
            <ns3:hr>122</ns3:hr>
          </ns3:TrackPointExtension>
        </extensions>
      </trkpt>
      <trkpt lat="36.75395750440657138824462890625" lon="-118.4336221776902675628662109375">
        <ele>2642.800048828125</ele>
        <time>2021-06-24T23:24:33.000Z</time>
        <extensions>
          <ns3:TrackPointExtension>
            <ns3:atemp>29.0</ns3:atemp>
            <ns3:hr>122</ns3:hr>
          </ns3:TrackPointExtension>
        </extensions>
      </trkpt>
      <trkpt lat="36.7539761960506439208984375" lon="-118.43361295759677886962890625">
        <ele>2643.199951171875</ele>
        <time>2021-06-24T23:24:36.000Z</time>
        <extensions>
          <ns3:TrackPointExtension>
            <ns3:atemp>29.0</ns3:atemp>
            <ns3:hr>125</ns3:hr>
          </ns3:TrackPointExtension>
        </extensions>
      </trkpt>
      <trkpt lat="36.7540112324059009552001953125" lon="-118.4336080960929393768310546875">
        <ele>2643.199951171875</ele>
        <time>2021-06-24T23:24:40.000Z</time>
        <extensions>
          <ns3:TrackPointExtension>
            <ns3:atemp>29.0</ns3:atemp>
            <ns3:hr>126</ns3:hr>
          </ns3:TrackPointExtension>
        </extensions>
      </trkpt>
      <trkpt lat="36.75403947941958904266357421875" lon="-118.43360734172165393829345703125">
        <ele>2643.800048828125</ele>
        <time>2021-06-24T23:24:43.000Z</time>
        <extensions>
          <ns3:TrackPointExtension>
            <ns3:atemp>29.0</ns3:atemp>
            <ns3:hr>126</ns3:hr>
          </ns3:TrackPointExtension>
        </extensions>
      </trkpt>
      <trkpt lat="36.7540735937654972076416015625" lon="-118.433558642864227294921875">
        <ele>2644.199951171875</ele>
        <time>2021-06-24T23:24:49.000Z</time>
        <extensions>
          <ns3:TrackPointExtension>
            <ns3:atemp>29.0</ns3:atemp>
            <ns3:hr>124</ns3:hr>
          </ns3:TrackPointExtension>
        </extensions>
      </trkpt>
      <trkpt lat="36.75405574031174182891845703125" lon="-118.43349401839077472686767578125">
        <ele>2645</ele>
        <time>2021-06-24T23:24:54.000Z</time>
        <extensions>
          <ns3:TrackPointExtension>
            <ns3:atemp>29.0</ns3:atemp>
            <ns3:hr>122</ns3:hr>
          </ns3:TrackPointExtension>
        </extensions>
      </trkpt>
      <trkpt lat="36.754067055881023406982421875" lon="-118.43347943387925624847412109375">
        <ele>2645.39990234375</ele>
        <time>2021-06-24T23:24:57.000Z</time>
        <extensions>
          <ns3:TrackPointExtension>
            <ns3:atemp>29.0</ns3:atemp>
            <ns3:hr>121</ns3:hr>
          </ns3:TrackPointExtension>
        </extensions>
      </trkpt>
      <trkpt lat="36.75408222712576389312744140625" lon="-118.4334538690745830535888671875">
        <ele>2645.60009765625</ele>
        <time>2021-06-24T23:25:02.000Z</time>
        <extensions>
          <ns3:TrackPointExtension>
            <ns3:atemp>29.0</ns3:atemp>
            <ns3:hr>120</ns3:hr>
          </ns3:TrackPointExtension>
        </extensions>
      </trkpt>
      <trkpt lat="36.7540861666202545166015625" lon="-118.433419167995452880859375">
        <ele>2646</ele>
        <time>2021-06-24T23:25:05.000Z</time>
        <extensions>
          <ns3:TrackPointExtension>
            <ns3:atemp>29.0</ns3:atemp>
            <ns3:hr>119</ns3:hr>
          </ns3:TrackPointExtension>
        </extensions>
      </trkpt>
      <trkpt lat="36.75409463234245777130126953125" lon="-118.43336963094770908355712890625">
        <ele>2646</ele>
        <time>2021-06-24T23:25:10.000Z</time>
        <extensions>
          <ns3:TrackPointExtension>
            <ns3:atemp>29.0</ns3:atemp>
            <ns3:hr>119</ns3:hr>
          </ns3:TrackPointExtension>
        </extensions>
      </trkpt>
      <trkpt lat="36.7540984041988849639892578125" lon="-118.4333318285644054412841796875">
        <ele>2647</ele>
        <time>2021-06-24T23:25:14.000Z</time>
        <extensions>
          <ns3:TrackPointExtension>
            <ns3:atemp>29.0</ns3:atemp>
            <ns3:hr>120</ns3:hr>
          </ns3:TrackPointExtension>
        </extensions>
      </trkpt>
      <trkpt lat="36.75410519354045391082763671875" lon="-118.433313556015491485595703125">
        <ele>2647.199951171875</ele>
        <time>2021-06-24T23:25:16.000Z</time>
        <extensions>
          <ns3:TrackPointExtension>
            <ns3:atemp>29.0</ns3:atemp>
            <ns3:hr>120</ns3:hr>
          </ns3:TrackPointExtension>
        </extensions>
      </trkpt>
      <trkpt lat="36.7541124857962131500244140625" lon="-118.43323744833469390869140625">
        <ele>2648.199951171875</ele>
        <time>2021-06-24T23:25:24.000Z</time>
        <extensions>
          <ns3:TrackPointExtension>
            <ns3:atemp>29.0</ns3:atemp>
            <ns3:hr>118</ns3:hr>
          </ns3:TrackPointExtension>
        </extensions>
      </trkpt>
      <trkpt lat="36.75410921685397624969482421875" lon="-118.4332086145877838134765625">
        <ele>2648.199951171875</ele>
        <time>2021-06-24T23:25:26.000Z</time>
        <extensions>
          <ns3:TrackPointExtension>
            <ns3:atemp>29.0</ns3:atemp>
            <ns3:hr>118</ns3:hr>
          </ns3:TrackPointExtension>
        </extensions>
      </trkpt>
      <trkpt lat="36.7541178502142429351806640625" lon="-118.4331952035427093505859375">
        <ele>2649</ele>
        <time>2021-06-24T23:25:32.000Z</time>
        <extensions>
          <ns3:TrackPointExtension>
            <ns3:atemp>29.0</ns3:atemp>
            <ns3:hr>120</ns3:hr>
          </ns3:TrackPointExtension>
        </extensions>
      </trkpt>
      <trkpt lat="36.7541129887104034423828125" lon="-118.4332017414271831512451171875">
        <ele>2649.199951171875</ele>
        <time>2021-06-24T23:25:34.000Z</time>
        <extensions>
          <ns3:TrackPointExtension>
            <ns3:atemp>29.0</ns3:atemp>
            <ns3:hr>121</ns3:hr>
          </ns3:TrackPointExtension>
        </extensions>
      </trkpt>
      <trkpt lat="36.7541114799678325653076171875" lon="-118.43322764150798320770263671875">
        <ele>2649.60009765625</ele>
        <time>2021-06-24T23:25:38.000Z</time>
        <extensions>
          <ns3:TrackPointExtension>
            <ns3:atemp>29.0</ns3:atemp>
            <ns3:hr>121</ns3:hr>
          </ns3:TrackPointExtension>
        </extensions>
      </trkpt>
      <trkpt lat="36.7541191913187503814697265625" lon="-118.43324088491499423980712890625">
        <ele>2649.800048828125</ele>
        <time>2021-06-24T23:25:41.000Z</time>
        <extensions>
          <ns3:TrackPointExtension>
            <ns3:atemp>29.0</ns3:atemp>
            <ns3:hr>118</ns3:hr>
          </ns3:TrackPointExtension>
        </extensions>
      </trkpt>
      <trkpt lat="36.75411374308168888092041015625" lon="-118.43328111805021762847900390625">
        <ele>2650.199951171875</ele>
        <time>2021-06-24T23:25:44.000Z</time>
        <extensions>
          <ns3:TrackPointExtension>
            <ns3:atemp>29.0</ns3:atemp>
            <ns3:hr>120</ns3:hr>
          </ns3:TrackPointExtension>
        </extensions>
      </trkpt>
      <trkpt lat="36.754130758345127105712890625" lon="-118.433286733925342559814453125">
        <ele>2650.39990234375</ele>
        <time>2021-06-24T23:25:45.000Z</time>
        <extensions>
          <ns3:TrackPointExtension>
            <ns3:atemp>29.0</ns3:atemp>
            <ns3:hr>119</ns3:hr>
          </ns3:TrackPointExtension>
        </extensions>
      </trkpt>
      <trkpt lat="36.75417694263160228729248046875" lon="-118.4332728199660778045654296875">
        <ele>2651</ele>
        <time>2021-06-24T23:25:50.000Z</time>
        <extensions>
          <ns3:TrackPointExtension>
            <ns3:atemp>29.0</ns3:atemp>
            <ns3:hr>119</ns3:hr>
          </ns3:TrackPointExtension>
        </extensions>
      </trkpt>
      <trkpt lat="36.754183731973171234130859375" lon="-118.4332533739507198333740234375">
        <ele>2651.60009765625</ele>
        <time>2021-06-24T23:25:51.000Z</time>
        <extensions>
          <ns3:TrackPointExtension>
            <ns3:atemp>29.0</ns3:atemp>
            <ns3:hr>119</ns3:hr>
          </ns3:TrackPointExtension>
        </extensions>
      </trkpt>
      <trkpt lat="36.75418716855347156524658203125" lon="-118.43323702923953533172607421875">
        <ele>2651.60009765625</ele>
        <time>2021-06-24T23:25:52.000Z</time>
        <extensions>
          <ns3:TrackPointExtension>
            <ns3:atemp>29.0</ns3:atemp>
            <ns3:hr>118</ns3:hr>
          </ns3:TrackPointExtension>
        </extensions>
      </trkpt>
      <trkpt lat="36.75418683327734470367431640625" lon="-118.43322537839412689208984375">
        <ele>2651.800048828125</ele>
        <time>2021-06-24T23:25:53.000Z</time>
        <extensions>
          <ns3:TrackPointExtension>
            <ns3:atemp>29.0</ns3:atemp>
            <ns3:hr>117</ns3:hr>
          </ns3:TrackPointExtension>
        </extensions>
      </trkpt>
      <trkpt lat="36.75418616272509098052978515625" lon="-118.43320886604487895965576171875">
        <ele>2652.60009765625</ele>
        <time>2021-06-24T23:25:55.000Z</time>
        <extensions>
          <ns3:TrackPointExtension>
            <ns3:atemp>29.0</ns3:atemp>
            <ns3:hr>118</ns3:hr>
          </ns3:TrackPointExtension>
        </extensions>
      </trkpt>
      <trkpt lat="36.754186414182186126708984375" lon="-118.43320526182651519775390625">
        <ele>2652.60009765625</ele>
        <time>2021-06-24T23:25:56.000Z</time>
        <extensions>
          <ns3:TrackPointExtension>
            <ns3:atemp>29.0</ns3:atemp>
            <ns3:hr>118</ns3:hr>
          </ns3:TrackPointExtension>
        </extensions>
      </trkpt>
      <trkpt lat="36.75419270060956478118896484375" lon="-118.4331849776208400726318359375">
        <ele>2652.800048828125</ele>
        <time>2021-06-24T23:25:59.000Z</time>
        <extensions>
          <ns3:TrackPointExtension>
            <ns3:atemp>29.0</ns3:atemp>
            <ns3:hr>119</ns3:hr>
          </ns3:TrackPointExtension>
        </extensions>
      </trkpt>
      <trkpt lat="36.75419772975146770477294921875" lon="-118.433179445564746856689453125">
        <ele>2653</ele>
        <time>2021-06-24T23:26:00.000Z</time>
        <extensions>
          <ns3:TrackPointExtension>
            <ns3:atemp>29.0</ns3:atemp>
            <ns3:hr>119</ns3:hr>
          </ns3:TrackPointExtension>
        </extensions>
      </trkpt>
      <trkpt lat="36.754203848540782928466796875" lon="-118.4331635199487209320068359375">
        <ele>2653.39990234375</ele>
        <time>2021-06-24T23:26:02.000Z</time>
        <extensions>
          <ns3:TrackPointExtension>
            <ns3:atemp>29.0</ns3:atemp>
            <ns3:hr>119</ns3:hr>
          </ns3:TrackPointExtension>
        </extensions>
      </trkpt>
      <trkpt lat="36.754229329526424407958984375" lon="-118.433138541877269744873046875">
        <ele>2653.800048828125</ele>
        <time>2021-06-24T23:26:07.000Z</time>
        <extensions>
          <ns3:TrackPointExtension>
            <ns3:atemp>29.0</ns3:atemp>
            <ns3:hr>121</ns3:hr>
          </ns3:TrackPointExtension>
        </extensions>
      </trkpt>
      <trkpt lat="36.75423569977283477783203125" lon="-118.433068133890628814697265625">
        <ele>2654.199951171875</ele>
        <time>2021-06-24T23:26:14.000Z</time>
        <extensions>
          <ns3:TrackPointExtension>
            <ns3:atemp>29.0</ns3:atemp>
            <ns3:hr>121</ns3:hr>
          </ns3:TrackPointExtension>
        </extensions>
      </trkpt>
      <trkpt lat="36.75422270782291889190673828125" lon="-118.432986326515674591064453125">
        <ele>2654.60009765625</ele>
        <time>2021-06-24T23:26:21.000Z</time>
        <extensions>
          <ns3:TrackPointExtension>
            <ns3:atemp>29.0</ns3:atemp>
            <ns3:hr>118</ns3:hr>
          </ns3:TrackPointExtension>
        </extensions>
      </trkpt>
      <trkpt lat="36.7542157508432865142822265625" lon="-118.43297299928963184356689453125">
        <ele>2654.60009765625</ele>
        <time>2021-06-24T23:26:22.000Z</time>
        <extensions>
          <ns3:TrackPointExtension>
            <ns3:atemp>29.0</ns3:atemp>
            <ns3:hr>118</ns3:hr>
          </ns3:TrackPointExtension>
        </extensions>
      </trkpt>
      <trkpt lat="36.754173003137111663818359375" lon="-118.43291600234806537628173828125">
        <ele>2655</ele>
        <time>2021-06-24T23:26:27.000Z</time>
        <extensions>
          <ns3:TrackPointExtension>
            <ns3:atemp>29.0</ns3:atemp>
            <ns3:hr>118</ns3:hr>
          </ns3:TrackPointExtension>
        </extensions>
      </trkpt>
      <trkpt lat="36.75416990183293819427490234375" lon="-118.4328885935246944427490234375">
        <ele>2655</ele>
        <time>2021-06-24T23:26:30.000Z</time>
        <extensions>
          <ns3:TrackPointExtension>
            <ns3:atemp>29.0</ns3:atemp>
            <ns3:hr>117</ns3:hr>
          </ns3:TrackPointExtension>
        </extensions>
      </trkpt>
      <trkpt lat="36.7541651241481304168701171875" lon="-118.43287778086960315704345703125">
        <ele>2655</ele>
        <time>2021-06-24T23:26:32.000Z</time>
        <extensions>
          <ns3:TrackPointExtension>
            <ns3:atemp>29.0</ns3:atemp>
            <ns3:hr>117</ns3:hr>
          </ns3:TrackPointExtension>
        </extensions>
      </trkpt>
      <trkpt lat="36.75413914024829864501953125" lon="-118.43284911476075649261474609375">
        <ele>2655.199951171875</ele>
        <time>2021-06-24T23:26:37.000Z</time>
        <extensions>
          <ns3:TrackPointExtension>
            <ns3:atemp>29.0</ns3:atemp>
            <ns3:hr>113</ns3:hr>
          </ns3:TrackPointExtension>
        </extensions>
      </trkpt>
      <trkpt lat="36.75412665121257305145263671875" lon="-118.43282547779381275177001953125">
        <ele>2655.199951171875</ele>
        <time>2021-06-24T23:26:40.000Z</time>
        <extensions>
          <ns3:TrackPointExtension>
            <ns3:atemp>29.0</ns3:atemp>
            <ns3:hr>111</ns3:hr>
          </ns3:TrackPointExtension>
        </extensions>
      </trkpt>
      <trkpt lat="36.75412178970873355865478515625" lon="-118.43277300707995891571044921875">
        <ele>2656.199951171875</ele>
        <time>2021-06-24T23:26:46.000Z</time>
        <extensions>
          <ns3:TrackPointExtension>
            <ns3:atemp>29.0</ns3:atemp>
            <ns3:hr>111</ns3:hr>
          </ns3:TrackPointExtension>
        </extensions>
      </trkpt>
      <trkpt lat="36.7541118152439594268798828125" lon="-118.4327360428869724273681640625">
        <ele>2656.800048828125</ele>
        <time>2021-06-24T23:26:50.000Z</time>
        <extensions>
          <ns3:TrackPointExtension>
            <ns3:atemp>29.0</ns3:atemp>
            <ns3:hr>111</ns3:hr>
          </ns3:TrackPointExtension>
        </extensions>
      </trkpt>
      <trkpt lat="36.7541158385574817657470703125" lon="-118.43267292715609073638916015625">
        <ele>2657.199951171875</ele>
        <time>2021-06-24T23:26:59.000Z</time>
        <extensions>
          <ns3:TrackPointExtension>
            <ns3:atemp>29.0</ns3:atemp>
            <ns3:hr>112</ns3:hr>
          </ns3:TrackPointExtension>
        </extensions>
      </trkpt>
      <trkpt lat="36.7541205324232578277587890625" lon="-118.4326646290719509124755859375">
        <ele>2657.39990234375</ele>
        <time>2021-06-24T23:27:00.000Z</time>
        <extensions>
          <ns3:TrackPointExtension>
            <ns3:atemp>29.0</ns3:atemp>
            <ns3:hr>112</ns3:hr>
          </ns3:TrackPointExtension>
        </extensions>
      </trkpt>
      <trkpt lat="36.7541041038930416107177734375" lon="-118.43258944340050220489501953125">
        <ele>2657.800048828125</ele>
        <time>2021-06-24T23:27:07.000Z</time>
        <extensions>
          <ns3:TrackPointExtension>
            <ns3:atemp>29.0</ns3:atemp>
            <ns3:hr>113</ns3:hr>
          </ns3:TrackPointExtension>
        </extensions>
      </trkpt>
      <trkpt lat="36.75408407114446163177490234375" lon="-118.43256144784390926361083984375">
        <ele>2657.800048828125</ele>
        <time>2021-06-24T23:27:11.000Z</time>
        <extensions>
          <ns3:TrackPointExtension>
            <ns3:atemp>29.0</ns3:atemp>
            <ns3:hr>116</ns3:hr>
          </ns3:TrackPointExtension>
        </extensions>
      </trkpt>
      <trkpt lat="36.754073090851306915283203125" lon="-118.43254334293305873870849609375">
        <ele>2657.800048828125</ele>
        <time>2021-06-24T23:27:14.000Z</time>
        <extensions>
          <ns3:TrackPointExtension>
            <ns3:atemp>29.0</ns3:atemp>
            <ns3:hr>117</ns3:hr>
          </ns3:TrackPointExtension>
        </extensions>
      </trkpt>
      <trkpt lat="36.7540727555751800537109375" lon="-118.4324929676949977874755859375">
        <ele>2657.800048828125</ele>
        <time>2021-06-24T23:27:21.000Z</time>
        <extensions>
          <ns3:TrackPointExtension>
            <ns3:atemp>29.0</ns3:atemp>
            <ns3:hr>116</ns3:hr>
          </ns3:TrackPointExtension>
        </extensions>
      </trkpt>
      <trkpt lat="36.75407367758452892303466796875" lon="-118.43245281837880611419677734375">
        <ele>2658</ele>
        <time>2021-06-24T23:27:27.000Z</time>
        <extensions>
          <ns3:TrackPointExtension>
            <ns3:atemp>29.0</ns3:atemp>
            <ns3:hr>113</ns3:hr>
          </ns3:TrackPointExtension>
        </extensions>
      </trkpt>
      <trkpt lat="36.75407686270773410797119140625" lon="-118.4324413351714611053466796875">
        <ele>2658.199951171875</ele>
        <time>2021-06-24T23:27:29.000Z</time>
        <extensions>
          <ns3:TrackPointExtension>
            <ns3:atemp>29.0</ns3:atemp>
            <ns3:hr>111</ns3:hr>
          </ns3:TrackPointExtension>
        </extensions>
      </trkpt>
      <trkpt lat="36.75408155657351016998291015625" lon="-118.43242884613573551177978515625">
        <ele>2658.39990234375</ele>
        <time>2021-06-24T23:27:31.000Z</time>
        <extensions>
          <ns3:TrackPointExtension>
            <ns3:atemp>29.0</ns3:atemp>
            <ns3:hr>110</ns3:hr>
          </ns3:TrackPointExtension>
        </extensions>
      </trkpt>
      <trkpt lat="36.75409479998052120208740234375" lon="-118.432390876114368438720703125">
        <ele>2660</ele>
        <time>2021-06-24T23:27:36.000Z</time>
        <extensions>
          <ns3:TrackPointExtension>
            <ns3:atemp>29.0</ns3:atemp>
            <ns3:hr>109</ns3:hr>
          </ns3:TrackPointExtension>
        </extensions>
      </trkpt>
      <trkpt lat="36.75411307252943515777587890625" lon="-118.43236397020518779754638671875">
        <ele>2660.199951171875</ele>
        <time>2021-06-24T23:27:39.000Z</time>
        <extensions>
          <ns3:TrackPointExtension>
            <ns3:atemp>29.0</ns3:atemp>
            <ns3:hr>110</ns3:hr>
          </ns3:TrackPointExtension>
        </extensions>
      </trkpt>
      <trkpt lat="36.7541255615651607513427734375" lon="-118.432322479784488677978515625">
        <ele>2660.199951171875</ele>
        <time>2021-06-24T23:27:43.000Z</time>
        <extensions>
          <ns3:TrackPointExtension>
            <ns3:atemp>29.0</ns3:atemp>
            <ns3:hr>113</ns3:hr>
          </ns3:TrackPointExtension>
        </extensions>
      </trkpt>
      <trkpt lat="36.75412430427968502044677734375" lon="-118.432302363216876983642578125">
        <ele>2660.199951171875</ele>
        <time>2021-06-24T23:27:45.000Z</time>
        <extensions>
          <ns3:TrackPointExtension>
            <ns3:atemp>29.0</ns3:atemp>
            <ns3:hr>117</ns3:hr>
          </ns3:TrackPointExtension>
        </extensions>
      </trkpt>
      <trkpt lat="36.75411860458552837371826171875" lon="-118.43228568322956562042236328125">
        <ele>2660.60009765625</ele>
        <time>2021-06-24T23:27:47.000Z</time>
        <extensions>
          <ns3:TrackPointExtension>
            <ns3:atemp>29.0</ns3:atemp>
            <ns3:hr>120</ns3:hr>
          </ns3:TrackPointExtension>
        </extensions>
      </trkpt>
      <trkpt lat="36.75411893986165523529052734375" lon="-118.43228132463991641998291015625">
        <ele>2660.60009765625</ele>
        <time>2021-06-24T23:27:48.000Z</time>
        <extensions>
          <ns3:TrackPointExtension>
            <ns3:atemp>29.0</ns3:atemp>
            <ns3:hr>122</ns3:hr>
          </ns3:TrackPointExtension>
        </extensions>
      </trkpt>
      <trkpt lat="36.75410293042659759521484375" lon="-118.43227579258382320404052734375">
        <ele>2659.800048828125</ele>
        <time>2021-06-24T23:27:53.000Z</time>
        <extensions>
          <ns3:TrackPointExtension>
            <ns3:atemp>29.0</ns3:atemp>
            <ns3:hr>123</ns3:hr>
          </ns3:TrackPointExtension>
        </extensions>
      </trkpt>
      <trkpt lat="36.75410854630172252655029296875" lon="-118.43227587640285491943359375">
        <ele>2659.60009765625</ele>
        <time>2021-06-24T23:27:59.000Z</time>
        <extensions>
          <ns3:TrackPointExtension>
            <ns3:atemp>29.0</ns3:atemp>
            <ns3:hr>120</ns3:hr>
          </ns3:TrackPointExtension>
        </extensions>
      </trkpt>
      <trkpt lat="36.75410854630172252655029296875" lon="-118.43227587640285491943359375">
        <ele>2659.60009765625</ele>
        <time>2021-06-24T23:28:04.000Z</time>
        <extensions>
          <ns3:TrackPointExtension>
            <ns3:atemp>29.0</ns3:atemp>
            <ns3:hr>117</ns3:hr>
          </ns3:TrackPointExtension>
        </extensions>
      </trkpt>
      <trkpt lat="36.75410854630172252655029296875" lon="-118.43227587640285491943359375">
        <ele>2659.60009765625</ele>
        <time>2021-06-24T23:28:05.000Z</time>
        <extensions>
          <ns3:TrackPointExtension>
            <ns3:atemp>29.0</ns3:atemp>
            <ns3:hr>117</ns3:hr>
          </ns3:TrackPointExtension>
        </extensions>
      </trkpt>
      <trkpt lat="36.7541071213781833648681640625" lon="-118.432274200022220611572265625">
        <ele>2660.39990234375</ele>
        <time>2021-06-24T23:28:15.000Z</time>
        <extensions>
          <ns3:TrackPointExtension>
            <ns3:atemp>29.0</ns3:atemp>
            <ns3:hr>114</ns3:hr>
          </ns3:TrackPointExtension>
        </extensions>
      </trkpt>
      <trkpt lat="36.7541041038930416107177734375" lon="-118.432272858917713165283203125">
        <ele>2660.39990234375</ele>
        <time>2021-06-24T23:28:22.000Z</time>
        <extensions>
          <ns3:TrackPointExtension>
            <ns3:atemp>29.0</ns3:atemp>
            <ns3:hr>110</ns3:hr>
          </ns3:TrackPointExtension>
        </extensions>
      </trkpt>
      <trkpt lat="36.7541041038930416107177734375" lon="-118.43227210454642772674560546875">
        <ele>2660.60009765625</ele>
        <time>2021-06-24T23:28:24.000Z</time>
        <extensions>
          <ns3:TrackPointExtension>
            <ns3:atemp>29.0</ns3:atemp>
            <ns3:hr>107</ns3:hr>
          </ns3:TrackPointExtension>
        </extensions>
      </trkpt>
      <trkpt lat="36.7541041038930416107177734375" lon="-118.43227176927030086517333984375">
        <ele>2660.39990234375</ele>
        <time>2021-06-24T23:28:27.000Z</time>
        <extensions>
          <ns3:TrackPointExtension>
            <ns3:atemp>29.0</ns3:atemp>
            <ns3:hr>104</ns3:hr>
          </ns3:TrackPointExtension>
        </extensions>
      </trkpt>
      <trkpt lat="36.75410301424562931060791015625" lon="-118.43227185308933258056640625">
        <ele>2659.800048828125</ele>
        <time>2021-06-24T23:28:34.000Z</time>
        <extensions>
          <ns3:TrackPointExtension>
            <ns3:atemp>29.0</ns3:atemp>
            <ns3:hr>101</ns3:hr>
          </ns3:TrackPointExtension>
        </extensions>
      </trkpt>
      <trkpt lat="36.75410251133143901824951171875" lon="-118.43227294273674488067626953125">
        <ele>2659.60009765625</ele>
        <time>2021-06-24T23:28:38.000Z</time>
        <extensions>
          <ns3:TrackPointExtension>
            <ns3:atemp>29.0</ns3:atemp>
            <ns3:hr>98</ns3:hr>
          </ns3:TrackPointExtension>
        </extensions>
      </trkpt>
      <trkpt lat="36.7541014216840267181396484375" lon="-118.43227378092706203460693359375">
        <ele>2659.60009765625</ele>
        <time>2021-06-24T23:28:41.000Z</time>
        <extensions>
          <ns3:TrackPointExtension>
            <ns3:atemp>29.0</ns3:atemp>
            <ns3:hr>94</ns3:hr>
          </ns3:TrackPointExtension>
        </extensions>
      </trkpt>
      <trkpt lat="36.75410117022693157196044921875" lon="-118.43227713368833065032958984375">
        <ele>2659.800048828125</ele>
        <time>2021-06-24T23:28:47.000Z</time>
        <extensions>
          <ns3:TrackPointExtension>
            <ns3:atemp>29.0</ns3:atemp>
            <ns3:hr>91</ns3:hr>
          </ns3:TrackPointExtension>
        </extensions>
      </trkpt>
      <trkpt lat="36.75410117022693157196044921875" lon="-118.432280234992504119873046875">
        <ele>2660.199951171875</ele>
        <time>2021-06-24T23:28:53.000Z</time>
        <extensions>
          <ns3:TrackPointExtension>
            <ns3:atemp>29.0</ns3:atemp>
            <ns3:hr>91</ns3:hr>
          </ns3:TrackPointExtension>
        </extensions>
      </trkpt>
      <trkpt lat="36.754114329814910888671875" lon="-118.43227780424058437347412109375">
        <ele>2660.199951171875</ele>
        <time>2021-06-24T23:29:08.000Z</time>
        <extensions>
          <ns3:TrackPointExtension>
            <ns3:atemp>29.0</ns3:atemp>
            <ns3:hr>87</ns3:hr>
          </ns3:TrackPointExtension>
        </extensions>
      </trkpt>
      <trkpt lat="36.75412304699420928955078125" lon="-118.43227545730769634246826171875">
        <ele>2660.199951171875</ele>
        <time>2021-06-24T23:29:15.000Z</time>
        <extensions>
          <ns3:TrackPointExtension>
            <ns3:atemp>29.0</ns3:atemp>
            <ns3:hr>84</ns3:hr>
          </ns3:TrackPointExtension>
        </extensions>
      </trkpt>
      <trkpt lat="36.75412966869771480560302734375" lon="-118.432268165051937103271484375">
        <ele>2660.199951171875</ele>
        <time>2021-06-24T23:29:32.000Z</time>
        <extensions>
          <ns3:TrackPointExtension>
            <ns3:atemp>29.0</ns3:atemp>
            <ns3:hr>87</ns3:hr>
          </ns3:TrackPointExtension>
        </extensions>
      </trkpt>
      <trkpt lat="36.754085160791873931884765625" lon="-118.4323060512542724609375">
        <ele>2660.199951171875</ele>
        <time>2021-06-24T23:30:00.000Z</time>
        <extensions>
          <ns3:TrackPointExtension>
            <ns3:atemp>29.0</ns3:atemp>
            <ns3:hr>84</ns3:hr>
          </ns3:TrackPointExtension>
        </extensions>
      </trkpt>
      <trkpt lat="36.75408557988703250885009765625" lon="-118.43230982311069965362548828125">
        <ele>2660.199951171875</ele>
        <time>2021-06-24T23:30:14.000Z</time>
        <extensions>
          <ns3:TrackPointExtension>
            <ns3:atemp>29.0</ns3:atemp>
            <ns3:hr>81</ns3:hr>
          </ns3:TrackPointExtension>
        </extensions>
      </trkpt>
      <trkpt lat="36.7540873400866985321044921875" lon="-118.43231183476746082305908203125">
        <ele>2660.199951171875</ele>
        <time>2021-06-24T23:30:28.000Z</time>
        <extensions>
          <ns3:TrackPointExtension>
            <ns3:atemp>29.0</ns3:atemp>
            <ns3:hr>78</ns3:hr>
          </ns3:TrackPointExtension>
        </extensions>
      </trkpt>
      <trkpt lat="36.7540910281240940093994140625" lon="-118.43230647034943103790283203125">
        <ele>2660.199951171875</ele>
        <time>2021-06-24T23:30:45.000Z</time>
        <extensions>
          <ns3:TrackPointExtension>
            <ns3:atemp>29.0</ns3:atemp>
            <ns3:hr>81</ns3:hr>
          </ns3:TrackPointExtension>
        </extensions>
      </trkpt>
      <trkpt lat="36.754095219075679779052734375" lon="-118.43228987418115139007568359375">
        <ele>2660.199951171875</ele>
        <time>2021-06-24T23:30:58.000Z</time>
        <extensions>
          <ns3:TrackPointExtension>
            <ns3:atemp>29.0</ns3:atemp>
            <ns3:hr>78</ns3:hr>
          </ns3:TrackPointExtension>
        </extensions>
      </trkpt>
      <trkpt lat="36.75409899093210697174072265625" lon="-118.432283587753772735595703125">
        <ele>2660.199951171875</ele>
        <time>2021-06-24T23:31:14.000Z</time>
        <extensions>
          <ns3:TrackPointExtension>
            <ns3:atemp>29.0</ns3:atemp>
            <ns3:hr>81</ns3:hr>
          </ns3:TrackPointExtension>
        </extensions>
      </trkpt>
      <trkpt lat="36.7540995776653289794921875" lon="-118.43228283338248729705810546875">
        <ele>2660.199951171875</ele>
        <time>2021-06-24T23:31:27.000Z</time>
        <extensions>
          <ns3:TrackPointExtension>
            <ns3:atemp>29.0</ns3:atemp>
            <ns3:hr>78</ns3:hr>
          </ns3:TrackPointExtension>
        </extensions>
      </trkpt>
      <trkpt lat="36.7540997453033924102783203125" lon="-118.43228266574442386627197265625">
        <ele>2660.199951171875</ele>
        <time>2021-06-24T23:31:37.000Z</time>
        <extensions>
          <ns3:TrackPointExtension>
            <ns3:atemp>29.0</ns3:atemp>
            <ns3:hr>81</ns3:hr>
          </ns3:TrackPointExtension>
        </extensions>
      </trkpt>
      <trkpt lat="36.7540997453033924102783203125" lon="-118.43228300102055072784423828125">
        <ele>2660.199951171875</ele>
        <time>2021-06-24T23:31:47.000Z</time>
        <extensions>
          <ns3:TrackPointExtension>
            <ns3:atemp>29.0</ns3:atemp>
            <ns3:hr>78</ns3:hr>
          </ns3:TrackPointExtension>
        </extensions>
      </trkpt>
      <trkpt lat="36.75409966148436069488525390625" lon="-118.43228316865861415863037109375">
        <ele>2660.199951171875</ele>
        <time>2021-06-24T23:31:50.000Z</time>
        <extensions>
          <ns3:TrackPointExtension>
            <ns3:atemp>29.0</ns3:atemp>
            <ns3:hr>75</ns3:hr>
          </ns3:TrackPointExtension>
        </extensions>
      </trkpt>
      <trkpt lat="36.75412765704095363616943359375" lon="-118.432212509214878082275390625">
        <ele>2660.199951171875</ele>
        <time>2021-06-24T23:31:59.000Z</time>
        <extensions>
          <ns3:TrackPointExtension>
            <ns3:atemp>29.0</ns3:atemp>
            <ns3:hr>73</ns3:hr>
          </ns3:TrackPointExtension>
        </extensions>
      </trkpt>
      <trkpt lat="36.75414592958986759185791015625" lon="-118.43215651810169219970703125">
        <ele>2660.199951171875</ele>
        <time>2021-06-24T23:32:02.000Z</time>
        <extensions>
          <ns3:TrackPointExtension>
            <ns3:atemp>29.0</ns3:atemp>
            <ns3:hr>76</ns3:hr>
          </ns3:TrackPointExtension>
        </extensions>
      </trkpt>
      <trkpt lat="36.75416286103427410125732421875" lon="-118.43211092054843902587890625">
        <ele>2663.60009765625</ele>
        <time>2021-06-24T23:32:05.000Z</time>
        <extensions>
          <ns3:TrackPointExtension>
            <ns3:atemp>29.0</ns3:atemp>
            <ns3:hr>76</ns3:hr>
          </ns3:TrackPointExtension>
        </extensions>
      </trkpt>
      <trkpt lat="36.75415716134011745452880859375" lon="-118.43207848258316516876220703125">
        <ele>2663.60009765625</ele>
        <time>2021-06-24T23:32:08.000Z</time>
        <extensions>
          <ns3:TrackPointExtension>
            <ns3:atemp>29.0</ns3:atemp>
            <ns3:hr>77</ns3:hr>
          </ns3:TrackPointExtension>
        </extensions>
      </trkpt>
      <trkpt lat="36.75416805781424045562744140625" lon="-118.432023413479328155517578125">
        <ele>2664.60009765625</ele>
        <time>2021-06-24T23:32:14.000Z</time>
        <extensions>
          <ns3:TrackPointExtension>
            <ns3:atemp>29.0</ns3:atemp>
            <ns3:hr>80</ns3:hr>
          </ns3:TrackPointExtension>
        </extensions>
      </trkpt>
      <trkpt lat="36.75417258404195308685302734375" lon="-118.4320145286619663238525390625">
        <ele>2664.800048828125</ele>
        <time>2021-06-24T23:32:15.000Z</time>
        <extensions>
          <ns3:TrackPointExtension>
            <ns3:atemp>29.0</ns3:atemp>
            <ns3:hr>82</ns3:hr>
          </ns3:TrackPointExtension>
        </extensions>
      </trkpt>
      <trkpt lat="36.75417493097484111785888671875" lon="-118.432005979120731353759765625">
        <ele>2664.800048828125</ele>
        <time>2021-06-24T23:32:16.000Z</time>
        <extensions>
          <ns3:TrackPointExtension>
            <ns3:atemp>29.0</ns3:atemp>
            <ns3:hr>83</ns3:hr>
          </ns3:TrackPointExtension>
        </extensions>
      </trkpt>
      <trkpt lat="36.75417476333677768707275390625" lon="-118.4319967590272426605224609375">
        <ele>2665</ele>
        <time>2021-06-24T23:32:17.000Z</time>
        <extensions>
          <ns3:TrackPointExtension>
            <ns3:atemp>29.0</ns3:atemp>
            <ns3:hr>86</ns3:hr>
          </ns3:TrackPointExtension>
        </extensions>
      </trkpt>
      <trkpt lat="36.75418205559253692626953125" lon="-118.4319816716015338897705078125">
        <ele>2665.199951171875</ele>
        <time>2021-06-24T23:32:19.000Z</time>
        <extensions>
          <ns3:TrackPointExtension>
            <ns3:atemp>29.0</ns3:atemp>
            <ns3:hr>90</ns3:hr>
          </ns3:TrackPointExtension>
        </extensions>
      </trkpt>
      <trkpt lat="36.7541895993053913116455078125" lon="-118.43195510096848011016845703125">
        <ele>2665.60009765625</ele>
        <time>2021-06-24T23:32:21.000Z</time>
        <extensions>
          <ns3:TrackPointExtension>
            <ns3:atemp>29.0</ns3:atemp>
            <ns3:hr>93</ns3:hr>
          </ns3:TrackPointExtension>
        </extensions>
      </trkpt>
      <trkpt lat="36.7541976459324359893798828125" lon="-118.4319431148469448089599609375">
        <ele>2666</ele>
        <time>2021-06-24T23:32:22.000Z</time>
        <extensions>
          <ns3:TrackPointExtension>
            <ns3:atemp>29.0</ns3:atemp>
            <ns3:hr>94</ns3:hr>
          </ns3:TrackPointExtension>
        </extensions>
      </trkpt>
      <trkpt lat="36.75420125015079975128173828125" lon="-118.43193314038217067718505859375">
        <ele>2666</ele>
        <time>2021-06-24T23:32:23.000Z</time>
        <extensions>
          <ns3:TrackPointExtension>
            <ns3:atemp>29.0</ns3:atemp>
            <ns3:hr>96</ns3:hr>
          </ns3:TrackPointExtension>
        </extensions>
      </trkpt>
      <trkpt lat="36.75420896150171756744384765625" lon="-118.43190707266330718994140625">
        <ele>2666.199951171875</ele>
        <time>2021-06-24T23:32:26.000Z</time>
        <extensions>
          <ns3:TrackPointExtension>
            <ns3:atemp>29.0</ns3:atemp>
            <ns3:hr>99</ns3:hr>
          </ns3:TrackPointExtension>
        </extensions>
      </trkpt>
      <trkpt lat="36.75421650521457195281982421875" lon="-118.43185342848300933837890625">
        <ele>2667.39990234375</ele>
        <time>2021-06-24T23:32:31.000Z</time>
        <extensions>
          <ns3:TrackPointExtension>
            <ns3:atemp>29.0</ns3:atemp>
            <ns3:hr>102</ns3:hr>
          </ns3:TrackPointExtension>
        </extensions>
      </trkpt>
      <trkpt lat="36.7541988193988800048828125" lon="-118.431814201176166534423828125">
        <ele>2668</ele>
        <time>2021-06-24T23:32:34.000Z</time>
        <extensions>
          <ns3:TrackPointExtension>
            <ns3:atemp>29.0</ns3:atemp>
            <ns3:hr>106</ns3:hr>
          </ns3:TrackPointExtension>
        </extensions>
      </trkpt>
      <trkpt lat="36.754201836884021759033203125" lon="-118.431790731847286224365234375">
        <ele>2668.39990234375</ele>
        <time>2021-06-24T23:32:37.000Z</time>
        <extensions>
          <ns3:TrackPointExtension>
            <ns3:atemp>29.0</ns3:atemp>
            <ns3:hr>110</ns3:hr>
          </ns3:TrackPointExtension>
        </extensions>
      </trkpt>
      <trkpt lat="36.75420125015079975128173828125" lon="-118.43178243376314640045166015625">
        <ele>2668.39990234375</ele>
        <time>2021-06-24T23:32:38.000Z</time>
        <extensions>
          <ns3:TrackPointExtension>
            <ns3:atemp>29.0</ns3:atemp>
            <ns3:hr>110</ns3:hr>
          </ns3:TrackPointExtension>
        </extensions>
      </trkpt>
      <trkpt lat="36.75420292653143405914306640625" lon="-118.43176030553877353668212890625">
        <ele>2668.39990234375</ele>
        <time>2021-06-24T23:32:41.000Z</time>
        <extensions>
          <ns3:TrackPointExtension>
            <ns3:atemp>29.0</ns3:atemp>
            <ns3:hr>113</ns3:hr>
          </ns3:TrackPointExtension>
        </extensions>
      </trkpt>
      <trkpt lat="36.7542036809027194976806640625" lon="-118.4317486546933650970458984375">
        <ele>2668.39990234375</ele>
        <time>2021-06-24T23:32:42.000Z</time>
        <extensions>
          <ns3:TrackPointExtension>
            <ns3:atemp>29.0</ns3:atemp>
            <ns3:hr>113</ns3:hr>
          </ns3:TrackPointExtension>
        </extensions>
      </trkpt>
      <trkpt lat="36.75420979969203472137451171875" lon="-118.43171252869069576263427734375">
        <ele>2669</ele>
        <time>2021-06-24T23:32:45.000Z</time>
        <extensions>
          <ns3:TrackPointExtension>
            <ns3:atemp>29.0</ns3:atemp>
            <ns3:hr>113</ns3:hr>
          </ns3:TrackPointExtension>
        </extensions>
      </trkpt>
      <trkpt lat="36.75421449355781078338623046875" lon="-118.431678749620914459228515625">
        <ele>2669.39990234375</ele>
        <time>2021-06-24T23:32:48.000Z</time>
        <extensions>
          <ns3:TrackPointExtension>
            <ns3:atemp>29.0</ns3:atemp>
            <ns3:hr>114</ns3:hr>
          </ns3:TrackPointExtension>
        </extensions>
      </trkpt>
      <trkpt lat="36.75421918742358684539794921875" lon="-118.43166626058518886566162109375">
        <ele>2669.60009765625</ele>
        <time>2021-06-24T23:32:49.000Z</time>
        <extensions>
          <ns3:TrackPointExtension>
            <ns3:atemp>29.0</ns3:atemp>
            <ns3:hr>115</ns3:hr>
          </ns3:TrackPointExtension>
        </extensions>
      </trkpt>
      <trkpt lat="36.75422891043126583099365234375" lon="-118.4316011331975460052490234375">
        <ele>2670.39990234375</ele>
        <time>2021-06-24T23:32:56.000Z</time>
        <extensions>
          <ns3:TrackPointExtension>
            <ns3:atemp>30.0</ns3:atemp>
            <ns3:hr>115</ns3:hr>
          </ns3:TrackPointExtension>
        </extensions>
      </trkpt>
      <trkpt lat="36.75421801395714282989501953125" lon="-118.4315619058907032012939453125">
        <ele>2671</ele>
        <time>2021-06-24T23:33:00.000Z</time>
        <extensions>
          <ns3:TrackPointExtension>
            <ns3:atemp>30.0</ns3:atemp>
            <ns3:hr>113</ns3:hr>
          </ns3:TrackPointExtension>
        </extensions>
      </trkpt>
      <trkpt lat="36.7542083747684955596923828125" lon="-118.4315206669270992279052734375">
        <ele>2671.39990234375</ele>
        <time>2021-06-24T23:33:04.000Z</time>
        <extensions>
          <ns3:TrackPointExtension>
            <ns3:atemp>30.0</ns3:atemp>
            <ns3:hr>110</ns3:hr>
          </ns3:TrackPointExtension>
        </extensions>
      </trkpt>
      <trkpt lat="36.75420493818819522857666015625" lon="-118.4315096028149127960205078125">
        <ele>2671.60009765625</ele>
        <time>2021-06-24T23:33:05.000Z</time>
        <extensions>
          <ns3:TrackPointExtension>
            <ns3:atemp>30.0</ns3:atemp>
            <ns3:hr>110</ns3:hr>
          </ns3:TrackPointExtension>
        </extensions>
      </trkpt>
      <trkpt lat="36.75419236533343791961669921875" lon="-118.4314891509711742401123046875">
        <ele>2672</ele>
        <time>2021-06-24T23:33:07.000Z</time>
        <extensions>
          <ns3:TrackPointExtension>
            <ns3:atemp>30.0</ns3:atemp>
            <ns3:hr>110</ns3:hr>
          </ns3:TrackPointExtension>
        </extensions>
      </trkpt>
      <trkpt lat="36.75418867729604244232177734375" lon="-118.43144648708403110504150390625">
        <ele>2672.39990234375</ele>
        <time>2021-06-24T23:33:12.000Z</time>
        <extensions>
          <ns3:TrackPointExtension>
            <ns3:atemp>30.0</ns3:atemp>
            <ns3:hr>107</ns3:hr>
          </ns3:TrackPointExtension>
        </extensions>
      </trkpt>
      <trkpt lat="36.7541872523725032806396484375" lon="-118.4314194135367870330810546875">
        <ele>2672.800048828125</ele>
        <time>2021-06-24T23:33:15.000Z</time>
        <extensions>
          <ns3:TrackPointExtension>
            <ns3:atemp>30.0</ns3:atemp>
            <ns3:hr>104</ns3:hr>
          </ns3:TrackPointExtension>
        </extensions>
      </trkpt>
      <trkpt lat="36.75418901257216930389404296875" lon="-118.43141363002359867095947265625">
        <ele>2672.800048828125</ele>
        <time>2021-06-24T23:33:16.000Z</time>
        <extensions>
          <ns3:TrackPointExtension>
            <ns3:atemp>30.0</ns3:atemp>
            <ns3:hr>104</ns3:hr>
          </ns3:TrackPointExtension>
        </extensions>
      </trkpt>
      <trkpt lat="36.7541761882603168487548828125" lon="-118.4314029850065708160400390625">
        <ele>2672.800048828125</ele>
        <time>2021-06-24T23:33:18.000Z</time>
        <extensions>
          <ns3:TrackPointExtension>
            <ns3:atemp>30.0</ns3:atemp>
            <ns3:hr>102</ns3:hr>
          </ns3:TrackPointExtension>
        </extensions>
      </trkpt>
      <trkpt lat="36.7541493661701679229736328125" lon="-118.43141614459455013275146484375">
        <ele>2672.800048828125</ele>
        <time>2021-06-24T23:33:28.000Z</time>
        <extensions>
          <ns3:TrackPointExtension>
            <ns3:atemp>30.0</ns3:atemp>
            <ns3:hr>98</ns3:hr>
          </ns3:TrackPointExtension>
        </extensions>
      </trkpt>
      <trkpt lat="36.75414643250405788421630859375" lon="-118.43141161836683750152587890625">
        <ele>2672.60009765625</ele>
        <time>2021-06-24T23:33:30.000Z</time>
        <extensions>
          <ns3:TrackPointExtension>
            <ns3:atemp>30.0</ns3:atemp>
            <ns3:hr>100</ns3:hr>
          </ns3:TrackPointExtension>
        </extensions>
      </trkpt>
      <trkpt lat="36.75414643250405788421630859375" lon="-118.43141161836683750152587890625">
        <ele>2672.199951171875</ele>
        <time>2021-06-24T23:33:35.000Z</time>
        <extensions>
          <ns3:TrackPointExtension>
            <ns3:atemp>30.0</ns3:atemp>
            <ns3:hr>104</ns3:hr>
          </ns3:TrackPointExtension>
        </extensions>
      </trkpt>
      <trkpt lat="36.75414643250405788421630859375" lon="-118.43141161836683750152587890625">
        <ele>2672</ele>
        <time>2021-06-24T23:33:37.000Z</time>
        <extensions>
          <ns3:TrackPointExtension>
            <ns3:atemp>30.0</ns3:atemp>
            <ns3:hr>107</ns3:hr>
          </ns3:TrackPointExtension>
        </extensions>
      </trkpt>
      <trkpt lat="36.7541446723043918609619140625" lon="-118.4314090199768543243408203125">
        <ele>2672.60009765625</ele>
        <time>2021-06-24T23:33:46.000Z</time>
        <extensions>
          <ns3:TrackPointExtension>
            <ns3:atemp>30.0</ns3:atemp>
            <ns3:hr>107</ns3:hr>
          </ns3:TrackPointExtension>
        </extensions>
      </trkpt>
      <trkpt lat="36.7541424930095672607421875" lon="-118.43140575103461742401123046875">
        <ele>2673</ele>
        <time>2021-06-24T23:33:49.000Z</time>
        <extensions>
          <ns3:TrackPointExtension>
            <ns3:atemp>30.0</ns3:atemp>
            <ns3:hr>108</ns3:hr>
          </ns3:TrackPointExtension>
        </extensions>
      </trkpt>
      <trkpt lat="36.7541805468499660491943359375" lon="-118.43142419122159481048583984375">
        <ele>2673</ele>
        <time>2021-06-24T23:33:55.000Z</time>
        <extensions>
          <ns3:TrackPointExtension>
            <ns3:atemp>30.0</ns3:atemp>
            <ns3:hr>108</ns3:hr>
          </ns3:TrackPointExtension>
        </extensions>
      </trkpt>
      <trkpt lat="36.7542415671050548553466796875" lon="-118.43147800303995609283447265625">
        <ele>2673.39990234375</ele>
        <time>2021-06-24T23:34:01.000Z</time>
        <extensions>
          <ns3:TrackPointExtension>
            <ns3:atemp>30.0</ns3:atemp>
            <ns3:hr>112</ns3:hr>
          </ns3:TrackPointExtension>
        </extensions>
      </trkpt>
      <trkpt lat="36.754296384751796722412109375" lon="-118.43153164722025394439697265625">
        <ele>2674</ele>
        <time>2021-06-24T23:34:09.000Z</time>
        <extensions>
          <ns3:TrackPointExtension>
            <ns3:atemp>30.0</ns3:atemp>
            <ns3:hr>114</ns3:hr>
          </ns3:TrackPointExtension>
        </extensions>
      </trkpt>
      <trkpt lat="36.7542978934943675994873046875" lon="-118.43155293725430965423583984375">
        <ele>2674.199951171875</ele>
        <time>2021-06-24T23:34:11.000Z</time>
        <extensions>
          <ns3:TrackPointExtension>
            <ns3:atemp>30.0</ns3:atemp>
            <ns3:hr>114</ns3:hr>
          </ns3:TrackPointExtension>
        </extensions>
      </trkpt>
      <trkpt lat="36.75433217547833919525146484375" lon="-118.43160993419587612152099609375">
        <ele>2674.60009765625</ele>
        <time>2021-06-24T23:34:16.000Z</time>
        <extensions>
          <ns3:TrackPointExtension>
            <ns3:atemp>30.0</ns3:atemp>
            <ns3:hr>112</ns3:hr>
          </ns3:TrackPointExtension>
        </extensions>
      </trkpt>
      <trkpt lat="36.75435447134077548980712890625" lon="-118.43165167607367038726806640625">
        <ele>2675.199951171875</ele>
        <time>2021-06-24T23:34:20.000Z</time>
        <extensions>
          <ns3:TrackPointExtension>
            <ns3:atemp>30.0</ns3:atemp>
            <ns3:hr>111</ns3:hr>
          </ns3:TrackPointExtension>
        </extensions>
      </trkpt>
      <trkpt lat="36.754398308694362640380859375" lon="-118.43169626779854297637939453125">
        <ele>2675.800048828125</ele>
        <time>2021-06-24T23:34:26.000Z</time>
        <extensions>
          <ns3:TrackPointExtension>
            <ns3:atemp>30.0</ns3:atemp>
            <ns3:hr>111</ns3:hr>
          </ns3:TrackPointExtension>
        </extensions>
      </trkpt>
      <trkpt lat="36.7544222809374332427978515625" lon="-118.43172962777316570281982421875">
        <ele>2676.39990234375</ele>
        <time>2021-06-24T23:34:30.000Z</time>
        <extensions>
          <ns3:TrackPointExtension>
            <ns3:atemp>30.0</ns3:atemp>
            <ns3:hr>109</ns3:hr>
          </ns3:TrackPointExtension>
        </extensions>
      </trkpt>
      <trkpt lat="36.75442772917449474334716796875" lon="-118.4317506663501262664794921875">
        <ele>2676.60009765625</ele>
        <time>2021-06-24T23:34:33.000Z</time>
        <extensions>
          <ns3:TrackPointExtension>
            <ns3:atemp>30.0</ns3:atemp>
            <ns3:hr>110</ns3:hr>
          </ns3:TrackPointExtension>
        </extensions>
      </trkpt>
      <trkpt lat="36.75443912856280803680419921875" lon="-118.43177053146064281463623046875">
        <ele>2676.60009765625</ele>
        <time>2021-06-24T23:34:35.000Z</time>
        <extensions>
          <ns3:TrackPointExtension>
            <ns3:atemp>30.0</ns3:atemp>
            <ns3:hr>108</ns3:hr>
          </ns3:TrackPointExtension>
        </extensions>
      </trkpt>
      <trkpt lat="36.75444767810404300689697265625" lon="-118.43177841044962406158447265625">
        <ele>2676.60009765625</ele>
        <time>2021-06-24T23:34:36.000Z</time>
        <extensions>
          <ns3:TrackPointExtension>
            <ns3:atemp>30.0</ns3:atemp>
            <ns3:hr>110</ns3:hr>
          </ns3:TrackPointExtension>
        </extensions>
      </trkpt>
      <trkpt lat="36.7545208521187305450439453125" lon="-118.4318448789417743682861328125">
        <ele>2677</ele>
        <time>2021-06-24T23:34:43.000Z</time>
        <extensions>
          <ns3:TrackPointExtension>
            <ns3:atemp>30.0</ns3:atemp>
            <ns3:hr>109</ns3:hr>
          </ns3:TrackPointExtension>
        </extensions>
      </trkpt>
      <trkpt lat="36.75453904084861278533935546875" lon="-118.4318636544048786163330078125">
        <ele>2677.60009765625</ele>
        <time>2021-06-24T23:34:45.000Z</time>
        <extensions>
          <ns3:TrackPointExtension>
            <ns3:atemp>30.0</ns3:atemp>
            <ns3:hr>108</ns3:hr>
          </ns3:TrackPointExtension>
        </extensions>
      </trkpt>
      <trkpt lat="36.75454943440854549407958984375" lon="-118.4318676777184009552001953125">
        <ele>2678.800048828125</ele>
        <time>2021-06-24T23:34:49.000Z</time>
        <extensions>
          <ns3:TrackPointExtension>
            <ns3:atemp>30.0</ns3:atemp>
            <ns3:hr>108</ns3:hr>
          </ns3:TrackPointExtension>
        </extensions>
      </trkpt>
      <trkpt lat="36.75456200726330280303955078125" lon="-118.431869857013225555419921875">
        <ele>2679</ele>
        <time>2021-06-24T23:34:51.000Z</time>
        <extensions>
          <ns3:TrackPointExtension>
            <ns3:atemp>30.0</ns3:atemp>
            <ns3:hr>109</ns3:hr>
          </ns3:TrackPointExtension>
        </extensions>
      </trkpt>
      <trkpt lat="36.7546314932405948638916015625" lon="-118.43190447427332401275634765625">
        <ele>2679.60009765625</ele>
        <time>2021-06-24T23:35:00.000Z</time>
        <extensions>
          <ns3:TrackPointExtension>
            <ns3:atemp>30.0</ns3:atemp>
            <ns3:hr>109</ns3:hr>
          </ns3:TrackPointExtension>
        </extensions>
      </trkpt>
      <trkpt lat="36.75468220375478267669677734375" lon="-118.43192509375512599945068359375">
        <ele>2680</ele>
        <time>2021-06-24T23:35:06.000Z</time>
        <extensions>
          <ns3:TrackPointExtension>
            <ns3:atemp>30.0</ns3:atemp>
            <ns3:hr>109</ns3:hr>
          </ns3:TrackPointExtension>
        </extensions>
      </trkpt>
      <trkpt lat="36.75468991510570049285888671875" lon="-118.4319065697491168975830078125">
        <ele>2680.199951171875</ele>
        <time>2021-06-24T23:35:08.000Z</time>
        <extensions>
          <ns3:TrackPointExtension>
            <ns3:atemp>30.0</ns3:atemp>
            <ns3:hr>108</ns3:hr>
          </ns3:TrackPointExtension>
        </extensions>
      </trkpt>
      <trkpt lat="36.7546908371150493621826171875" lon="-118.43183188699185848236083984375">
        <ele>2681.199951171875</ele>
        <time>2021-06-24T23:35:15.000Z</time>
        <extensions>
          <ns3:TrackPointExtension>
            <ns3:atemp>30.0</ns3:atemp>
            <ns3:hr>106</ns3:hr>
          </ns3:TrackPointExtension>
        </extensions>
      </trkpt>
      <trkpt lat="36.75469100475311279296875" lon="-118.431798107922077178955078125">
        <ele>2681.39990234375</ele>
        <time>2021-06-24T23:35:18.000Z</time>
        <extensions>
          <ns3:TrackPointExtension>
            <ns3:atemp>30.0</ns3:atemp>
            <ns3:hr>105</ns3:hr>
          </ns3:TrackPointExtension>
        </extensions>
      </trkpt>
      <trkpt lat="36.75470533780753612518310546875" lon="-118.43175745569169521331787109375">
        <ele>2681.800048828125</ele>
        <time>2021-06-24T23:35:22.000Z</time>
        <extensions>
          <ns3:TrackPointExtension>
            <ns3:atemp>30.0</ns3:atemp>
            <ns3:hr>102</ns3:hr>
          </ns3:TrackPointExtension>
        </extensions>
      </trkpt>
      <trkpt lat="36.75470148213207721710205078125" lon="-118.4317385964095592498779296875">
        <ele>2682.199951171875</ele>
        <time>2021-06-24T23:35:24.000Z</time>
        <extensions>
          <ns3:TrackPointExtension>
            <ns3:atemp>30.0</ns3:atemp>
            <ns3:hr>102</ns3:hr>
          </ns3:TrackPointExtension>
        </extensions>
      </trkpt>
      <trkpt lat="36.7547029070556163787841796875" lon="-118.43172158114612102508544921875">
        <ele>2682.60009765625</ele>
        <time>2021-06-24T23:35:27.000Z</time>
        <extensions>
          <ns3:TrackPointExtension>
            <ns3:atemp>30.0</ns3:atemp>
            <ns3:hr>103</ns3:hr>
          </ns3:TrackPointExtension>
        </extensions>
      </trkpt>
      <trkpt lat="36.75470902584493160247802734375" lon="-118.4317107684910297393798828125">
        <ele>2683</ele>
        <time>2021-06-24T23:35:30.000Z</time>
        <extensions>
          <ns3:TrackPointExtension>
            <ns3:atemp>30.0</ns3:atemp>
            <ns3:hr>103</ns3:hr>
          </ns3:TrackPointExtension>
        </extensions>
      </trkpt>
      <trkpt lat="36.75471522845327854156494140625" lon="-118.4317147918045520782470703125">
        <ele>2683.39990234375</ele>
        <time>2021-06-24T23:35:32.000Z</time>
        <extensions>
          <ns3:TrackPointExtension>
            <ns3:atemp>30.0</ns3:atemp>
            <ns3:hr>103</ns3:hr>
          </ns3:TrackPointExtension>
        </extensions>
      </trkpt>
      <trkpt lat="36.7547213472425937652587890625" lon="-118.43171621672809123992919921875">
        <ele>2683.39990234375</ele>
        <time>2021-06-24T23:35:34.000Z</time>
        <extensions>
          <ns3:TrackPointExtension>
            <ns3:atemp>30.0</ns3:atemp>
            <ns3:hr>103</ns3:hr>
          </ns3:TrackPointExtension>
        </extensions>
      </trkpt>
      <trkpt lat="36.75472377799451351165771484375" lon="-118.43171395361423492431640625">
        <ele>2683</ele>
        <time>2021-06-24T23:35:36.000Z</time>
        <extensions>
          <ns3:TrackPointExtension>
            <ns3:atemp>30.0</ns3:atemp>
            <ns3:hr>104</ns3:hr>
          </ns3:TrackPointExtension>
        </extensions>
      </trkpt>
      <trkpt lat="36.75474137999117374420166015625" lon="-118.43172493390738964080810546875">
        <ele>2683.60009765625</ele>
        <time>2021-06-24T23:35:39.000Z</time>
        <extensions>
          <ns3:TrackPointExtension>
            <ns3:atemp>30.0</ns3:atemp>
            <ns3:hr>104</ns3:hr>
          </ns3:TrackPointExtension>
        </extensions>
      </trkpt>
      <trkpt lat="36.7547743208706378936767578125" lon="-118.43175779096782207489013671875">
        <ele>2684.60009765625</ele>
        <time>2021-06-24T23:35:43.000Z</time>
        <extensions>
          <ns3:TrackPointExtension>
            <ns3:atemp>30.0</ns3:atemp>
            <ns3:hr>105</ns3:hr>
          </ns3:TrackPointExtension>
        </extensions>
      </trkpt>
      <trkpt lat="36.7548031546175479888916015625" lon="-118.4317845292389392852783203125">
        <ele>2685.39990234375</ele>
        <time>2021-06-24T23:35:47.000Z</time>
        <extensions>
          <ns3:TrackPointExtension>
            <ns3:atemp>30.0</ns3:atemp>
            <ns3:hr>108</ns3:hr>
          </ns3:TrackPointExtension>
        </extensions>
      </trkpt>
      <trkpt lat="36.75481430254876613616943359375" lon="-118.43179282732307910919189453125">
        <ele>2685.60009765625</ele>
        <time>2021-06-24T23:35:49.000Z</time>
        <extensions>
          <ns3:TrackPointExtension>
            <ns3:atemp>30.0</ns3:atemp>
            <ns3:hr>111</ns3:hr>
          </ns3:TrackPointExtension>
        </extensions>
      </trkpt>
      <trkpt lat="36.7548497579991817474365234375" lon="-118.43181730248034000396728515625">
        <ele>2685.800048828125</ele>
        <time>2021-06-24T23:35:52.000Z</time>
        <extensions>
          <ns3:TrackPointExtension>
            <ns3:atemp>30.0</ns3:atemp>
            <ns3:hr>113</ns3:hr>
          </ns3:TrackPointExtension>
        </extensions>
      </trkpt>
      <trkpt lat="36.7548752389848232269287109375" lon="-118.43180959112942218780517578125">
        <ele>2685.800048828125</ele>
        <time>2021-06-24T23:35:55.000Z</time>
        <extensions>
          <ns3:TrackPointExtension>
            <ns3:atemp>30.0</ns3:atemp>
            <ns3:hr>113</ns3:hr>
          </ns3:TrackPointExtension>
        </extensions>
      </trkpt>
      <trkpt lat="36.75486727617681026458740234375" lon="-118.43171554617583751678466796875">
        <ele>2686</ele>
        <time>2021-06-24T23:36:02.000Z</time>
        <extensions>
          <ns3:TrackPointExtension>
            <ns3:atemp>30.0</ns3:atemp>
            <ns3:hr>114</ns3:hr>
          </ns3:TrackPointExtension>
        </extensions>
      </trkpt>
      <trkpt lat="36.75485671497881412506103515625" lon="-118.43167263083159923553466796875">
        <ele>2686.39990234375</ele>
        <time>2021-06-24T23:36:06.000Z</time>
        <extensions>
          <ns3:TrackPointExtension>
            <ns3:atemp>30.0</ns3:atemp>
            <ns3:hr>110</ns3:hr>
          </ns3:TrackPointExtension>
        </extensions>
      </trkpt>
      <trkpt lat="36.75485939718782901763916015625" lon="-118.43166433274745941162109375">
        <ele>2687</ele>
        <time>2021-06-24T23:36:07.000Z</time>
        <extensions>
          <ns3:TrackPointExtension>
            <ns3:atemp>30.0</ns3:atemp>
            <ns3:hr>112</ns3:hr>
          </ns3:TrackPointExtension>
        </extensions>
      </trkpt>
      <trkpt lat="36.7548655159771442413330078125" lon="-118.43162812292575836181640625">
        <ele>2687</ele>
        <time>2021-06-24T23:36:10.000Z</time>
        <extensions>
          <ns3:TrackPointExtension>
            <ns3:atemp>30.0</ns3:atemp>
            <ns3:hr>111</ns3:hr>
          </ns3:TrackPointExtension>
        </extensions>
      </trkpt>
      <trkpt lat="36.7548309825360774993896484375" lon="-118.43154757283627986907958984375">
        <ele>2687.199951171875</ele>
        <time>2021-06-24T23:36:15.000Z</time>
        <extensions>
          <ns3:TrackPointExtension>
            <ns3:atemp>30.0</ns3:atemp>
            <ns3:hr>110</ns3:hr>
          </ns3:TrackPointExtension>
        </extensions>
      </trkpt>
      <trkpt lat="36.75481279380619525909423828125" lon="-118.4314958564937114715576171875">
        <ele>2687.39990234375</ele>
        <time>2021-06-24T23:36:20.000Z</time>
        <extensions>
          <ns3:TrackPointExtension>
            <ns3:atemp>30.0</ns3:atemp>
            <ns3:hr>107</ns3:hr>
          </ns3:TrackPointExtension>
        </extensions>
      </trkpt>
      <trkpt lat="36.7548098601400852203369140625" lon="-118.43147699721157550811767578125">
        <ele>2688</ele>
        <time>2021-06-24T23:36:23.000Z</time>
        <extensions>
          <ns3:TrackPointExtension>
            <ns3:atemp>30.0</ns3:atemp>
            <ns3:hr>105</ns3:hr>
          </ns3:TrackPointExtension>
        </extensions>
      </trkpt>
      <trkpt lat="36.7547941021621227264404296875" lon="-118.431421257555484771728515625">
        <ele>2688.199951171875</ele>
        <time>2021-06-24T23:36:29.000Z</time>
        <extensions>
          <ns3:TrackPointExtension>
            <ns3:atemp>30.0</ns3:atemp>
            <ns3:hr>108</ns3:hr>
          </ns3:TrackPointExtension>
        </extensions>
      </trkpt>
      <trkpt lat="36.75479250960052013397216796875" lon="-118.431411199271678924560546875">
        <ele>2688.199951171875</ele>
        <time>2021-06-24T23:36:30.000Z</time>
        <extensions>
          <ns3:TrackPointExtension>
            <ns3:atemp>30.0</ns3:atemp>
            <ns3:hr>109</ns3:hr>
          </ns3:TrackPointExtension>
        </extensions>
      </trkpt>
      <trkpt lat="36.754784882068634033203125" lon="-118.43138546682894229888916015625">
        <ele>2689</ele>
        <time>2021-06-24T23:36:33.000Z</time>
        <extensions>
          <ns3:TrackPointExtension>
            <ns3:atemp>30.0</ns3:atemp>
            <ns3:hr>109</ns3:hr>
          </ns3:TrackPointExtension>
        </extensions>
      </trkpt>
      <trkpt lat="36.7547642625868320465087890625" lon="-118.43130759894847869873046875">
        <ele>2690</ele>
        <time>2021-06-24T23:36:40.000Z</time>
        <extensions>
          <ns3:TrackPointExtension>
            <ns3:atemp>30.0</ns3:atemp>
            <ns3:hr>111</ns3:hr>
          </ns3:TrackPointExtension>
        </extensions>
      </trkpt>
      <trkpt lat="36.75476384349167346954345703125" lon="-118.4312977083027362823486328125">
        <ele>2690.199951171875</ele>
        <time>2021-06-24T23:36:41.000Z</time>
        <extensions>
          <ns3:TrackPointExtension>
            <ns3:atemp>30.0</ns3:atemp>
            <ns3:hr>112</ns3:hr>
          </ns3:TrackPointExtension>
        </extensions>
      </trkpt>
      <trkpt lat="36.75475060008466243743896484375" lon="-118.43122973106801509857177734375">
        <ele>2691.199951171875</ele>
        <time>2021-06-24T23:36:49.000Z</time>
        <extensions>
          <ns3:TrackPointExtension>
            <ns3:atemp>30.0</ns3:atemp>
            <ns3:hr>110</ns3:hr>
          </ns3:TrackPointExtension>
        </extensions>
      </trkpt>
      <trkpt lat="36.7547451518476009368896484375" lon="-118.43121715821325778961181640625">
        <ele>2691.199951171875</ele>
        <time>2021-06-24T23:36:50.000Z</time>
        <extensions>
          <ns3:TrackPointExtension>
            <ns3:atemp>30.0</ns3:atemp>
            <ns3:hr>110</ns3:hr>
          </ns3:TrackPointExtension>
        </extensions>
      </trkpt>
      <trkpt lat="36.7547474987804889678955078125" lon="-118.4311682917177677154541015625">
        <ele>2692.199951171875</ele>
        <time>2021-06-24T23:36:56.000Z</time>
        <extensions>
          <ns3:TrackPointExtension>
            <ns3:atemp>30.0</ns3:atemp>
            <ns3:hr>113</ns3:hr>
          </ns3:TrackPointExtension>
        </extensions>
      </trkpt>
      <trkpt lat="36.75474322400987148284912109375" lon="-118.43113317154347896575927734375">
        <ele>2692.199951171875</ele>
        <time>2021-06-24T23:37:00.000Z</time>
        <extensions>
          <ns3:TrackPointExtension>
            <ns3:atemp>30.0</ns3:atemp>
            <ns3:hr>115</ns3:hr>
          </ns3:TrackPointExtension>
        </extensions>
      </trkpt>
      <trkpt lat="36.754736602306365966796875" lon="-118.43109763227403163909912109375">
        <ele>2692.60009765625</ele>
        <time>2021-06-24T23:37:04.000Z</time>
        <extensions>
          <ns3:TrackPointExtension>
            <ns3:atemp>31.0</ns3:atemp>
            <ns3:hr>118</ns3:hr>
          </ns3:TrackPointExtension>
        </extensions>
      </trkpt>
      <trkpt lat="36.75473433919250965118408203125" lon="-118.431083969771862030029296875">
        <ele>2692.800048828125</ele>
        <time>2021-06-24T23:37:06.000Z</time>
        <extensions>
          <ns3:TrackPointExtension>
            <ns3:atemp>31.0</ns3:atemp>
            <ns3:hr>118</ns3:hr>
          </ns3:TrackPointExtension>
        </extensions>
      </trkpt>
      <trkpt lat="36.7547298967838287353515625" lon="-118.4310680441558361053466796875">
        <ele>2693.39990234375</ele>
        <time>2021-06-24T23:37:08.000Z</time>
        <extensions>
          <ns3:TrackPointExtension>
            <ns3:atemp>31.0</ns3:atemp>
            <ns3:hr>118</ns3:hr>
          </ns3:TrackPointExtension>
        </extensions>
      </trkpt>
      <trkpt lat="36.75472981296479701995849609375" lon="-118.4310308285057544708251953125">
        <ele>2694.800048828125</ele>
        <time>2021-06-24T23:37:12.000Z</time>
        <extensions>
          <ns3:TrackPointExtension>
            <ns3:atemp>31.0</ns3:atemp>
            <ns3:hr>120</ns3:hr>
          </ns3:TrackPointExtension>
        </extensions>
      </trkpt>
      <trkpt lat="36.7547236941754817962646484375" lon="-118.4310117177665233612060546875">
        <ele>2695.199951171875</ele>
        <time>2021-06-24T23:37:14.000Z</time>
        <extensions>
          <ns3:TrackPointExtension>
            <ns3:atemp>31.0</ns3:atemp>
            <ns3:hr>120</ns3:hr>
          </ns3:TrackPointExtension>
        </extensions>
      </trkpt>
      <trkpt lat="36.75470014102756977081298828125" lon="-118.43097710050642490386962890625">
        <ele>2695.800048828125</ele>
        <time>2021-06-24T23:37:17.000Z</time>
        <extensions>
          <ns3:TrackPointExtension>
            <ns3:atemp>31.0</ns3:atemp>
            <ns3:hr>121</ns3:hr>
          </ns3:TrackPointExtension>
        </extensions>
      </trkpt>
      <trkpt lat="36.75468220375478267669677734375" lon="-118.4309233725070953369140625">
        <ele>2695.800048828125</ele>
        <time>2021-06-24T23:37:25.000Z</time>
        <extensions>
          <ns3:TrackPointExtension>
            <ns3:atemp>30.0</ns3:atemp>
            <ns3:hr>123</ns3:hr>
          </ns3:TrackPointExtension>
        </extensions>
      </trkpt>
      <trkpt lat="36.75467331893742084503173828125" lon="-118.43087601475417613983154296875">
        <ele>2696</ele>
        <time>2021-06-24T23:37:31.000Z</time>
        <extensions>
          <ns3:TrackPointExtension>
            <ns3:atemp>30.0</ns3:atemp>
            <ns3:hr>120</ns3:hr>
          </ns3:TrackPointExtension>
        </extensions>
      </trkpt>
      <trkpt lat="36.754677593708038330078125" lon="-118.430858664214611053466796875">
        <ele>2696</ele>
        <time>2021-06-24T23:37:33.000Z</time>
        <extensions>
          <ns3:TrackPointExtension>
            <ns3:atemp>30.0</ns3:atemp>
            <ns3:hr>119</ns3:hr>
          </ns3:TrackPointExtension>
        </extensions>
      </trkpt>
      <trkpt lat="36.75467281602323055267333984375" lon="-118.43079906888306140899658203125">
        <ele>2697</ele>
        <time>2021-06-24T23:37:39.000Z</time>
        <extensions>
          <ns3:TrackPointExtension>
            <ns3:atemp>30.0</ns3:atemp>
            <ns3:hr>117</ns3:hr>
          </ns3:TrackPointExtension>
        </extensions>
      </trkpt>
      <trkpt lat="36.75467432476580142974853515625" lon="-118.43077878467738628387451171875">
        <ele>2697.39990234375</ele>
        <time>2021-06-24T23:37:42.000Z</time>
        <extensions>
          <ns3:TrackPointExtension>
            <ns3:atemp>30.0</ns3:atemp>
            <ns3:hr>118</ns3:hr>
          </ns3:TrackPointExtension>
        </extensions>
      </trkpt>
      <trkpt lat="36.75467885099351406097412109375" lon="-118.430766128003597259521484375">
        <ele>2697.800048828125</ele>
        <time>2021-06-24T23:37:44.000Z</time>
        <extensions>
          <ns3:TrackPointExtension>
            <ns3:atemp>30.0</ns3:atemp>
            <ns3:hr>119</ns3:hr>
          </ns3:TrackPointExtension>
        </extensions>
      </trkpt>
      <trkpt lat="36.75467935390770435333251953125" lon="-118.43073586933314800262451171875">
        <ele>2697.800048828125</ele>
        <time>2021-06-24T23:37:47.000Z</time>
        <extensions>
          <ns3:TrackPointExtension>
            <ns3:atemp>30.0</ns3:atemp>
            <ns3:hr>121</ns3:hr>
          </ns3:TrackPointExtension>
        </extensions>
      </trkpt>
      <trkpt lat="36.75468119792640209197998046875" lon="-118.4307248890399932861328125">
        <ele>2698.199951171875</ele>
        <time>2021-06-24T23:37:48.000Z</time>
        <extensions>
          <ns3:TrackPointExtension>
            <ns3:atemp>30.0</ns3:atemp>
            <ns3:hr>121</ns3:hr>
          </ns3:TrackPointExtension>
        </extensions>
      </trkpt>
      <trkpt lat="36.7546834610402584075927734375" lon="-118.43071843497455120086669921875">
        <ele>2698.60009765625</ele>
        <time>2021-06-24T23:37:49.000Z</time>
        <extensions>
          <ns3:TrackPointExtension>
            <ns3:atemp>30.0</ns3:atemp>
            <ns3:hr>121</ns3:hr>
          </ns3:TrackPointExtension>
        </extensions>
      </trkpt>
      <trkpt lat="36.75467549823224544525146484375" lon="-118.43069295398890972137451171875">
        <ele>2699</ele>
        <time>2021-06-24T23:37:52.000Z</time>
        <extensions>
          <ns3:TrackPointExtension>
            <ns3:atemp>30.0</ns3:atemp>
            <ns3:hr>123</ns3:hr>
          </ns3:TrackPointExtension>
        </extensions>
      </trkpt>
      <trkpt lat="36.75467021763324737548828125" lon="-118.43068457208573818206787109375">
        <ele>2699.800048828125</ele>
        <time>2021-06-24T23:37:53.000Z</time>
        <extensions>
          <ns3:TrackPointExtension>
            <ns3:atemp>30.0</ns3:atemp>
            <ns3:hr>124</ns3:hr>
          </ns3:TrackPointExtension>
        </extensions>
      </trkpt>
      <trkpt lat="36.75467113964259624481201171875" lon="-118.4306834824383258819580078125">
        <ele>2700</ele>
        <time>2021-06-24T23:37:54.000Z</time>
        <extensions>
          <ns3:TrackPointExtension>
            <ns3:atemp>30.0</ns3:atemp>
            <ns3:hr>124</ns3:hr>
          </ns3:TrackPointExtension>
        </extensions>
      </trkpt>
      <trkpt lat="36.75466896034777164459228515625" lon="-118.43066378496587276458740234375">
        <ele>2700.39990234375</ele>
        <time>2021-06-24T23:37:56.000Z</time>
        <extensions>
          <ns3:TrackPointExtension>
            <ns3:atemp>30.0</ns3:atemp>
            <ns3:hr>127</ns3:hr>
          </ns3:TrackPointExtension>
        </extensions>
      </trkpt>
      <trkpt lat="36.75465152598917484283447265625" lon="-118.43063008971512317657470703125">
        <ele>2700.39990234375</ele>
        <time>2021-06-24T23:38:00.000Z</time>
        <extensions>
          <ns3:TrackPointExtension>
            <ns3:atemp>30.0</ns3:atemp>
            <ns3:hr>129</ns3:hr>
          </ns3:TrackPointExtension>
        </extensions>
      </trkpt>
      <trkpt lat="36.75462872721254825592041015625" lon="-118.43059890903532505035400390625">
        <ele>2700.39990234375</ele>
        <time>2021-06-24T23:38:04.000Z</time>
        <extensions>
          <ns3:TrackPointExtension>
            <ns3:atemp>30.0</ns3:atemp>
            <ns3:hr>127</ns3:hr>
          </ns3:TrackPointExtension>
        </extensions>
      </trkpt>
      <trkpt lat="36.7546217702329158782958984375" lon="-118.430605195462703704833984375">
        <ele>2700.39990234375</ele>
        <time>2021-06-24T23:38:06.000Z</time>
        <extensions>
          <ns3:TrackPointExtension>
            <ns3:atemp>30.0</ns3:atemp>
            <ns3:hr>126</ns3:hr>
          </ns3:TrackPointExtension>
        </extensions>
      </trkpt>
      <trkpt lat="36.75463040359318256378173828125" lon="-118.43060594983398914337158203125">
        <ele>2700.199951171875</ele>
        <time>2021-06-24T23:38:13.000Z</time>
        <extensions>
          <ns3:TrackPointExtension>
            <ns3:atemp>30.0</ns3:atemp>
            <ns3:hr>123</ns3:hr>
          </ns3:TrackPointExtension>
        </extensions>
      </trkpt>
      <trkpt lat="36.7546333372592926025390625" lon="-118.43061022460460662841796875">
        <ele>2700.39990234375</ele>
        <time>2021-06-24T23:38:17.000Z</time>
        <extensions>
          <ns3:TrackPointExtension>
            <ns3:atemp>30.0</ns3:atemp>
            <ns3:hr>120</ns3:hr>
          </ns3:TrackPointExtension>
        </extensions>
      </trkpt>
      <trkpt lat="36.7546333372592926025390625" lon="-118.43061022460460662841796875">
        <ele>2700.60009765625</ele>
        <time>2021-06-24T23:38:20.000Z</time>
        <extensions>
          <ns3:TrackPointExtension>
            <ns3:atemp>30.0</ns3:atemp>
            <ns3:hr>117</ns3:hr>
          </ns3:TrackPointExtension>
        </extensions>
      </trkpt>
      <trkpt lat="36.7546333372592926025390625" lon="-118.43061022460460662841796875">
        <ele>2700.800048828125</ele>
        <time>2021-06-24T23:38:21.000Z</time>
        <extensions>
          <ns3:TrackPointExtension>
            <ns3:atemp>30.0</ns3:atemp>
            <ns3:hr>116</ns3:hr>
          </ns3:TrackPointExtension>
        </extensions>
      </trkpt>
      <trkpt lat="36.75462738610804080963134765625" lon="-118.43057527206838130950927734375">
        <ele>2701.800048828125</ele>
        <time>2021-06-24T23:38:33.000Z</time>
        <extensions>
          <ns3:TrackPointExtension>
            <ns3:atemp>30.0</ns3:atemp>
            <ns3:hr>115</ns3:hr>
          </ns3:TrackPointExtension>
        </extensions>
      </trkpt>
      <trkpt lat="36.75462319515645503997802734375" lon="-118.430563621222972869873046875">
        <ele>2701.800048828125</ele>
        <time>2021-06-24T23:38:34.000Z</time>
        <extensions>
          <ns3:TrackPointExtension>
            <ns3:atemp>30.0</ns3:atemp>
            <ns3:hr>115</ns3:hr>
          </ns3:TrackPointExtension>
        </extensions>
      </trkpt>
      <trkpt lat="36.75459536723792552947998046875" lon="-118.430488519370555877685546875">
        <ele>2702.199951171875</ele>
        <time>2021-06-24T23:38:42.000Z</time>
        <extensions>
          <ns3:TrackPointExtension>
            <ns3:atemp>30.0</ns3:atemp>
            <ns3:hr>114</ns3:hr>
          </ns3:TrackPointExtension>
        </extensions>
      </trkpt>
      <trkpt lat="36.7545909248292446136474609375" lon="-118.4304930455982685089111328125">
        <ele>2702.199951171875</ele>
        <time>2021-06-24T23:38:43.000Z</time>
        <extensions>
          <ns3:TrackPointExtension>
            <ns3:atemp>30.0</ns3:atemp>
            <ns3:hr>113</ns3:hr>
          </ns3:TrackPointExtension>
        </extensions>
      </trkpt>
      <trkpt lat="36.75456837750971317291259765625" lon="-118.4304960630834102630615234375">
        <ele>2701.60009765625</ele>
        <time>2021-06-24T23:38:47.000Z</time>
        <extensions>
          <ns3:TrackPointExtension>
            <ns3:atemp>30.0</ns3:atemp>
            <ns3:hr>109</ns3:hr>
          </ns3:TrackPointExtension>
        </extensions>
      </trkpt>
      <trkpt lat="36.75457776524126529693603515625" lon="-118.43050553463399410247802734375">
        <ele>2701.800048828125</ele>
        <time>2021-06-24T23:38:51.000Z</time>
        <extensions>
          <ns3:TrackPointExtension>
            <ns3:atemp>30.0</ns3:atemp>
            <ns3:hr>107</ns3:hr>
          </ns3:TrackPointExtension>
        </extensions>
      </trkpt>
      <trkpt lat="36.75457776524126529693603515625" lon="-118.43050553463399410247802734375">
        <ele>2702.199951171875</ele>
        <time>2021-06-24T23:38:58.000Z</time>
        <extensions>
          <ns3:TrackPointExtension>
            <ns3:atemp>30.0</ns3:atemp>
            <ns3:hr>110</ns3:hr>
          </ns3:TrackPointExtension>
        </extensions>
      </trkpt>
      <trkpt lat="36.75457776524126529693603515625" lon="-118.43050519935786724090576171875">
        <ele>2703</ele>
        <time>2021-06-24T23:39:06.000Z</time>
        <extensions>
          <ns3:TrackPointExtension>
            <ns3:atemp>30.0</ns3:atemp>
            <ns3:hr>110</ns3:hr>
          </ns3:TrackPointExtension>
        </extensions>
      </trkpt>
      <trkpt lat="36.75458304584026336669921875" lon="-118.430499248206615447998046875">
        <ele>2704.199951171875</ele>
        <time>2021-06-24T23:39:11.000Z</time>
        <extensions>
          <ns3:TrackPointExtension>
            <ns3:atemp>30.0</ns3:atemp>
            <ns3:hr>112</ns3:hr>
          </ns3:TrackPointExtension>
        </extensions>
      </trkpt>
      <trkpt lat="36.754602491855621337890625" lon="-118.43046312220394611358642578125">
        <ele>2704.39990234375</ele>
        <time>2021-06-24T23:39:15.000Z</time>
        <extensions>
          <ns3:TrackPointExtension>
            <ns3:atemp>30.0</ns3:atemp>
            <ns3:hr>115</ns3:hr>
          </ns3:TrackPointExtension>
        </extensions>
      </trkpt>
      <trkpt lat="36.75462403334677219390869140625" lon="-118.4304145909845829010009765625">
        <ele>2704.39990234375</ele>
        <time>2021-06-24T23:39:18.000Z</time>
        <extensions>
          <ns3:TrackPointExtension>
            <ns3:atemp>30.0</ns3:atemp>
            <ns3:hr>116</ns3:hr>
          </ns3:TrackPointExtension>
        </extensions>
      </trkpt>
      <trkpt lat="36.75465169362723827362060546875" lon="-118.43033689074218273162841796875">
        <ele>2705.39990234375</ele>
        <time>2021-06-24T23:39:25.000Z</time>
        <extensions>
          <ns3:TrackPointExtension>
            <ns3:atemp>30.0</ns3:atemp>
            <ns3:hr>115</ns3:hr>
          </ns3:TrackPointExtension>
        </extensions>
      </trkpt>
      <trkpt lat="36.7546506039798259735107421875" lon="-118.430328257381916046142578125">
        <ele>2705.39990234375</ele>
        <time>2021-06-24T23:39:26.000Z</time>
        <extensions>
          <ns3:TrackPointExtension>
            <ns3:atemp>30.0</ns3:atemp>
            <ns3:hr>115</ns3:hr>
          </ns3:TrackPointExtension>
        </extensions>
      </trkpt>
      <trkpt lat="36.754674576222896575927734375" lon="-118.430286683142185211181640625">
        <ele>2705.199951171875</ele>
        <time>2021-06-24T23:39:33.000Z</time>
        <extensions>
          <ns3:TrackPointExtension>
            <ns3:atemp>30.0</ns3:atemp>
            <ns3:hr>116</ns3:hr>
          </ns3:TrackPointExtension>
        </extensions>
      </trkpt>
      <trkpt lat="36.754692681133747100830078125" lon="-118.4302777983248233795166015625">
        <ele>2706.60009765625</ele>
        <time>2021-06-24T23:39:39.000Z</time>
        <extensions>
          <ns3:TrackPointExtension>
            <ns3:atemp>30.0</ns3:atemp>
            <ns3:hr>116</ns3:hr>
          </ns3:TrackPointExtension>
        </extensions>
      </trkpt>
      <trkpt lat="36.754710786044597625732421875" lon="-118.43029640614986419677734375">
        <ele>2707.199951171875</ele>
        <time>2021-06-24T23:39:42.000Z</time>
        <extensions>
          <ns3:TrackPointExtension>
            <ns3:atemp>30.0</ns3:atemp>
            <ns3:hr>117</ns3:hr>
          </ns3:TrackPointExtension>
        </extensions>
      </trkpt>
      <trkpt lat="36.7547454871237277984619140625" lon="-118.430310823023319244384765625">
        <ele>2707.60009765625</ele>
        <time>2021-06-24T23:39:46.000Z</time>
        <extensions>
          <ns3:TrackPointExtension>
            <ns3:atemp>30.0</ns3:atemp>
            <ns3:hr>119</ns3:hr>
          </ns3:TrackPointExtension>
        </extensions>
      </trkpt>
      <trkpt lat="36.7547837086021900177001953125" lon="-118.43031526543200016021728515625">
        <ele>2708.199951171875</ele>
        <time>2021-06-24T23:39:50.000Z</time>
        <extensions>
          <ns3:TrackPointExtension>
            <ns3:atemp>30.0</ns3:atemp>
            <ns3:hr>116</ns3:hr>
          </ns3:TrackPointExtension>
        </extensions>
      </trkpt>
      <trkpt lat="36.75479225814342498779296875" lon="-118.4303133375942707061767578125">
        <ele>2708.199951171875</ele>
        <time>2021-06-24T23:39:52.000Z</time>
        <extensions>
          <ns3:TrackPointExtension>
            <ns3:atemp>30.0</ns3:atemp>
            <ns3:hr>116</ns3:hr>
          </ns3:TrackPointExtension>
        </extensions>
      </trkpt>
      <trkpt lat="36.7548350058495998382568359375" lon="-118.43032448552548885345458984375">
        <ele>2708.60009765625</ele>
        <time>2021-06-24T23:39:58.000Z</time>
        <extensions>
          <ns3:TrackPointExtension>
            <ns3:atemp>30.0</ns3:atemp>
            <ns3:hr>114</ns3:hr>
          </ns3:TrackPointExtension>
        </extensions>
      </trkpt>
      <trkpt lat="36.754865683615207672119140625" lon="-118.4303347952663898468017578125">
        <ele>2709.39990234375</ele>
        <time>2021-06-24T23:40:02.000Z</time>
        <extensions>
          <ns3:TrackPointExtension>
            <ns3:atemp>30.0</ns3:atemp>
            <ns3:hr>116</ns3:hr>
          </ns3:TrackPointExtension>
        </extensions>
      </trkpt>
      <trkpt lat="36.75491086207330226898193359375" lon="-118.43034393154084682464599609375">
        <ele>2709.800048828125</ele>
        <time>2021-06-24T23:40:08.000Z</time>
        <extensions>
          <ns3:TrackPointExtension>
            <ns3:atemp>30.0</ns3:atemp>
            <ns3:hr>116</ns3:hr>
          </ns3:TrackPointExtension>
        </extensions>
      </trkpt>
      <trkpt lat="36.75495478324592113494873046875" lon="-118.4303639642894268035888671875">
        <ele>2709.60009765625</ele>
        <time>2021-06-24T23:40:14.000Z</time>
        <extensions>
          <ns3:TrackPointExtension>
            <ns3:atemp>30.0</ns3:atemp>
            <ns3:hr>113</ns3:hr>
          </ns3:TrackPointExtension>
        </extensions>
      </trkpt>
      <trkpt lat="36.75498940050601959228515625" lon="-118.43038869090378284454345703125">
        <ele>2710.199951171875</ele>
        <time>2021-06-24T23:40:19.000Z</time>
        <extensions>
          <ns3:TrackPointExtension>
            <ns3:atemp>30.0</ns3:atemp>
            <ns3:hr>110</ns3:hr>
          </ns3:TrackPointExtension>
        </extensions>
      </trkpt>
      <trkpt lat="36.7550023086369037628173828125" lon="-118.430395312607288360595703125">
        <ele>2711.199951171875</ele>
        <time>2021-06-24T23:40:21.000Z</time>
        <extensions>
          <ns3:TrackPointExtension>
            <ns3:atemp>30.0</ns3:atemp>
            <ns3:hr>109</ns3:hr>
          </ns3:TrackPointExtension>
        </extensions>
      </trkpt>
      <trkpt lat="36.75503793172538280487060546875" lon="-118.4304145909845829010009765625">
        <ele>2712</ele>
        <time>2021-06-24T23:40:26.000Z</time>
        <extensions>
          <ns3:TrackPointExtension>
            <ns3:atemp>30.0</ns3:atemp>
            <ns3:hr>108</ns3:hr>
          </ns3:TrackPointExtension>
        </extensions>
      </trkpt>
      <trkpt lat="36.75505335442721843719482421875" lon="-118.430413417518138885498046875">
        <ele>2712.39990234375</ele>
        <time>2021-06-24T23:40:28.000Z</time>
        <extensions>
          <ns3:TrackPointExtension>
            <ns3:atemp>30.0</ns3:atemp>
            <ns3:hr>107</ns3:hr>
          </ns3:TrackPointExtension>
        </extensions>
      </trkpt>
      <trkpt lat="36.755080260336399078369140625" lon="-118.43042121268808841705322265625">
        <ele>2712.800048828125</ele>
        <time>2021-06-24T23:40:32.000Z</time>
        <extensions>
          <ns3:TrackPointExtension>
            <ns3:atemp>30.0</ns3:atemp>
            <ns3:hr>110</ns3:hr>
          </ns3:TrackPointExtension>
        </extensions>
      </trkpt>
      <trkpt lat="36.75510984845459461212158203125" lon="-118.4304212965071201324462890625">
        <ele>2713.39990234375</ele>
        <time>2021-06-24T23:40:37.000Z</time>
        <extensions>
          <ns3:TrackPointExtension>
            <ns3:atemp>30.0</ns3:atemp>
            <ns3:hr>110</ns3:hr>
          </ns3:TrackPointExtension>
        </extensions>
      </trkpt>
      <trkpt lat="36.7551434598863124847412109375" lon="-118.43046429567039012908935546875">
        <ele>2713.800048828125</ele>
        <time>2021-06-24T23:40:45.000Z</time>
        <extensions>
          <ns3:TrackPointExtension>
            <ns3:atemp>30.0</ns3:atemp>
            <ns3:hr>110</ns3:hr>
          </ns3:TrackPointExtension>
        </extensions>
      </trkpt>
      <trkpt lat="36.75517044961452484130859375" lon="-118.43049664981663227081298828125">
        <ele>2714.39990234375</ele>
        <time>2021-06-24T23:40:50.000Z</time>
        <extensions>
          <ns3:TrackPointExtension>
            <ns3:atemp>30.0</ns3:atemp>
            <ns3:hr>111</ns3:hr>
          </ns3:TrackPointExtension>
        </extensions>
      </trkpt>
      <trkpt lat="36.75519366748631000518798828125" lon="-118.430511653423309326171875">
        <ele>2715</ele>
        <time>2021-06-24T23:40:54.000Z</time>
        <extensions>
          <ns3:TrackPointExtension>
            <ns3:atemp>30.0</ns3:atemp>
            <ns3:hr>109</ns3:hr>
          </ns3:TrackPointExtension>
        </extensions>
      </trkpt>
      <trkpt lat="36.7552131973206996917724609375" lon="-118.430520705878734588623046875">
        <ele>2715.39990234375</ele>
        <time>2021-06-24T23:40:57.000Z</time>
        <extensions>
          <ns3:TrackPointExtension>
            <ns3:atemp>30.0</ns3:atemp>
            <ns3:hr>111</ns3:hr>
          </ns3:TrackPointExtension>
        </extensions>
      </trkpt>
      <trkpt lat="36.7552380077540874481201171875" lon="-118.43054987490177154541015625">
        <ele>2716.199951171875</ele>
        <time>2021-06-24T23:41:02.000Z</time>
        <extensions>
          <ns3:TrackPointExtension>
            <ns3:atemp>30.0</ns3:atemp>
            <ns3:hr>113</ns3:hr>
          </ns3:TrackPointExtension>
        </extensions>
      </trkpt>
      <trkpt lat="36.75526457838714122772216796875" lon="-118.43056873418390750885009765625">
        <ele>2716.199951171875</ele>
        <time>2021-06-24T23:41:07.000Z</time>
        <extensions>
          <ns3:TrackPointExtension>
            <ns3:atemp>30.0</ns3:atemp>
            <ns3:hr>116</ns3:hr>
          </ns3:TrackPointExtension>
        </extensions>
      </trkpt>
      <trkpt lat="36.7552712000906467437744140625" lon="-118.43057326041162014007568359375">
        <ele>2716.199951171875</ele>
        <time>2021-06-24T23:41:08.000Z</time>
        <extensions>
          <ns3:TrackPointExtension>
            <ns3:atemp>30.0</ns3:atemp>
            <ns3:hr>116</ns3:hr>
          </ns3:TrackPointExtension>
        </extensions>
      </trkpt>
      <trkpt lat="36.75527027808129787445068359375" lon="-118.4305704943835735321044921875">
        <ele>2716.199951171875</ele>
        <time>2021-06-24T23:41:14.000Z</time>
        <extensions>
          <ns3:TrackPointExtension>
            <ns3:atemp>30.0</ns3:atemp>
            <ns3:hr>115</ns3:hr>
          </ns3:TrackPointExtension>
        </extensions>
      </trkpt>
      <trkpt lat="36.7552665062248706817626953125" lon="-118.43055951409041881561279296875">
        <ele>2717.39990234375</ele>
        <time>2021-06-24T23:41:25.000Z</time>
        <extensions>
          <ns3:TrackPointExtension>
            <ns3:atemp>30.0</ns3:atemp>
            <ns3:hr>114</ns3:hr>
          </ns3:TrackPointExtension>
        </extensions>
      </trkpt>
      <trkpt lat="36.7552852816879749298095703125" lon="-118.4305679798126220703125">
        <ele>2717.60009765625</ele>
        <time>2021-06-24T23:41:29.000Z</time>
        <extensions>
          <ns3:TrackPointExtension>
            <ns3:atemp>30.0</ns3:atemp>
            <ns3:hr>113</ns3:hr>
          </ns3:TrackPointExtension>
        </extensions>
      </trkpt>
      <trkpt lat="36.7554019577801227569580078125" lon="-118.43065758235752582550048828125">
        <ele>2717.39990234375</ele>
        <time>2021-06-24T23:41:40.000Z</time>
        <extensions>
          <ns3:TrackPointExtension>
            <ns3:atemp>30.0</ns3:atemp>
            <ns3:hr>112</ns3:hr>
          </ns3:TrackPointExtension>
        </extensions>
      </trkpt>
      <trkpt lat="36.755410172045230865478515625" lon="-118.430647440254688262939453125">
        <ele>2718.199951171875</ele>
        <time>2021-06-24T23:41:47.000Z</time>
        <extensions>
          <ns3:TrackPointExtension>
            <ns3:atemp>30.0</ns3:atemp>
            <ns3:hr>113</ns3:hr>
          </ns3:TrackPointExtension>
        </extensions>
      </trkpt>
      <trkpt lat="36.755423583090305328369140625" lon="-118.43065741471946239471435546875">
        <ele>2718.39990234375</ele>
        <time>2021-06-24T23:41:55.000Z</time>
        <extensions>
          <ns3:TrackPointExtension>
            <ns3:atemp>30.0</ns3:atemp>
            <ns3:hr>114</ns3:hr>
          </ns3:TrackPointExtension>
        </extensions>
      </trkpt>
      <trkpt lat="36.755423583090305328369140625" lon="-118.43065741471946239471435546875">
        <ele>2718.60009765625</ele>
        <time>2021-06-24T23:41:57.000Z</time>
        <extensions>
          <ns3:TrackPointExtension>
            <ns3:atemp>30.0</ns3:atemp>
            <ns3:hr>114</ns3:hr>
          </ns3:TrackPointExtension>
        </extensions>
      </trkpt>
      <trkpt lat="36.755423583090305328369140625" lon="-118.43065741471946239471435546875">
        <ele>2719.199951171875</ele>
        <time>2021-06-24T23:42:04.000Z</time>
        <extensions>
          <ns3:TrackPointExtension>
            <ns3:atemp>30.0</ns3:atemp>
            <ns3:hr>111</ns3:hr>
          </ns3:TrackPointExtension>
        </extensions>
      </trkpt>
      <trkpt lat="36.755423583090305328369140625" lon="-118.43065741471946239471435546875">
        <ele>2719.60009765625</ele>
        <time>2021-06-24T23:42:06.000Z</time>
        <extensions>
          <ns3:TrackPointExtension>
            <ns3:atemp>30.0</ns3:atemp>
            <ns3:hr>110</ns3:hr>
          </ns3:TrackPointExtension>
        </extensions>
      </trkpt>
      <trkpt lat="36.7554237507283687591552734375" lon="-118.4306482784450054168701171875">
        <ele>2719.39990234375</ele>
        <time>2021-06-24T23:42:26.000Z</time>
        <extensions>
          <ns3:TrackPointExtension>
            <ns3:atemp>30.0</ns3:atemp>
            <ns3:hr>114</ns3:hr>
          </ns3:TrackPointExtension>
        </extensions>
      </trkpt>
      <trkpt lat="36.75538837909698486328125" lon="-118.43061516992747783660888671875">
        <ele>2719.199951171875</ele>
        <time>2021-06-24T23:42:55.000Z</time>
        <extensions>
          <ns3:TrackPointExtension>
            <ns3:atemp>30.0</ns3:atemp>
            <ns3:hr>111</ns3:hr>
          </ns3:TrackPointExtension>
        </extensions>
      </trkpt>
      <trkpt lat="36.75538393668830394744873046875" lon="-118.43061667867004871368408203125">
        <ele>2719</ele>
        <time>2021-06-24T23:43:00.000Z</time>
        <extensions>
          <ns3:TrackPointExtension>
            <ns3:atemp>30.0</ns3:atemp>
            <ns3:hr>108</ns3:hr>
          </ns3:TrackPointExtension>
        </extensions>
      </trkpt>
      <trkpt lat="36.755383014678955078125" lon="-118.43063008971512317657470703125">
        <ele>2719.60009765625</ele>
        <time>2021-06-24T23:43:13.000Z</time>
        <extensions>
          <ns3:TrackPointExtension>
            <ns3:atemp>30.0</ns3:atemp>
            <ns3:hr>110</ns3:hr>
          </ns3:TrackPointExtension>
        </extensions>
      </trkpt>
      <trkpt lat="36.75540380179882049560546875" lon="-118.43063578940927982330322265625">
        <ele>2720.60009765625</ele>
        <time>2021-06-24T23:43:26.000Z</time>
        <extensions>
          <ns3:TrackPointExtension>
            <ns3:atemp>30.0</ns3:atemp>
            <ns3:hr>108</ns3:hr>
          </ns3:TrackPointExtension>
        </extensions>
      </trkpt>
      <trkpt lat="36.755418889224529266357421875" lon="-118.4305718354880809783935546875">
        <ele>2721.199951171875</ele>
        <time>2021-06-24T23:43:32.000Z</time>
        <extensions>
          <ns3:TrackPointExtension>
            <ns3:atemp>30.0</ns3:atemp>
            <ns3:hr>108</ns3:hr>
          </ns3:TrackPointExtension>
        </extensions>
      </trkpt>
      <trkpt lat="36.7554314620792865753173828125" lon="-118.43051995150744915008544921875">
        <ele>2721.800048828125</ele>
        <time>2021-06-24T23:43:36.000Z</time>
        <extensions>
          <ns3:TrackPointExtension>
            <ns3:atemp>30.0</ns3:atemp>
            <ns3:hr>109</ns3:hr>
          </ns3:TrackPointExtension>
        </extensions>
      </trkpt>
      <trkpt lat="36.7554214037954807281494140625" lon="-118.43048684298992156982421875">
        <ele>2722.39990234375</ele>
        <time>2021-06-24T23:43:39.000Z</time>
        <extensions>
          <ns3:TrackPointExtension>
            <ns3:atemp>30.0</ns3:atemp>
            <ns3:hr>109</ns3:hr>
          </ns3:TrackPointExtension>
        </extensions>
      </trkpt>
      <trkpt lat="36.7554165422916412353515625" lon="-118.43041098676621913909912109375">
        <ele>2723</ele>
        <time>2021-06-24T23:43:46.000Z</time>
        <extensions>
          <ns3:TrackPointExtension>
            <ns3:atemp>30.0</ns3:atemp>
            <ns3:hr>111</ns3:hr>
          </ns3:TrackPointExtension>
        </extensions>
      </trkpt>
      <trkpt lat="36.755418218672275543212890625" lon="-118.4303914569318294525146484375">
        <ele>2723.199951171875</ele>
        <time>2021-06-24T23:43:48.000Z</time>
        <extensions>
          <ns3:TrackPointExtension>
            <ns3:atemp>30.0</ns3:atemp>
            <ns3:hr>111</ns3:hr>
          </ns3:TrackPointExtension>
        </extensions>
      </trkpt>
      <trkpt lat="36.755412183701992034912109375" lon="-118.43034158460795879364013671875">
        <ele>2724</ele>
        <time>2021-06-24T23:43:53.000Z</time>
        <extensions>
          <ns3:TrackPointExtension>
            <ns3:atemp>30.0</ns3:atemp>
            <ns3:hr>110</ns3:hr>
          </ns3:TrackPointExtension>
        </extensions>
      </trkpt>
      <trkpt lat="36.75541411153972148895263671875" lon="-118.430284671485424041748046875">
        <ele>2724.199951171875</ele>
        <time>2021-06-24T23:43:58.000Z</time>
        <extensions>
          <ns3:TrackPointExtension>
            <ns3:atemp>30.0</ns3:atemp>
            <ns3:hr>108</ns3:hr>
          </ns3:TrackPointExtension>
        </extensions>
      </trkpt>
      <trkpt lat="36.7554136924445629119873046875" lon="-118.43026245944201946258544921875">
        <ele>2724.199951171875</ele>
        <time>2021-06-24T23:44:00.000Z</time>
        <extensions>
          <ns3:TrackPointExtension>
            <ns3:atemp>30.0</ns3:atemp>
            <ns3:hr>111</ns3:hr>
          </ns3:TrackPointExtension>
        </extensions>
      </trkpt>
      <trkpt lat="36.7554173804819583892822265625" lon="-118.4302461147308349609375">
        <ele>2724.800048828125</ele>
        <time>2021-06-24T23:44:02.000Z</time>
        <extensions>
          <ns3:TrackPointExtension>
            <ns3:atemp>30.0</ns3:atemp>
            <ns3:hr>116</ns3:hr>
          </ns3:TrackPointExtension>
        </extensions>
      </trkpt>
      <trkpt lat="36.75542215816676616668701171875" lon="-118.4302157722413539886474609375">
        <ele>2725.199951171875</ele>
        <time>2021-06-24T23:44:05.000Z</time>
        <extensions>
          <ns3:TrackPointExtension>
            <ns3:atemp>30.0</ns3:atemp>
            <ns3:hr>115</ns3:hr>
          </ns3:TrackPointExtension>
        </extensions>
      </trkpt>
      <trkpt lat="36.7554237507283687591552734375" lon="-118.43020512722432613372802734375">
        <ele>2725.199951171875</ele>
        <time>2021-06-24T23:44:06.000Z</time>
        <extensions>
          <ns3:TrackPointExtension>
            <ns3:atemp>30.0</ns3:atemp>
            <ns3:hr>115</ns3:hr>
          </ns3:TrackPointExtension>
        </extensions>
      </trkpt>
      <trkpt lat="36.75543305464088916778564453125" lon="-118.430147878825664520263671875">
        <ele>2726.199951171875</ele>
        <time>2021-06-24T23:44:12.000Z</time>
        <extensions>
          <ns3:TrackPointExtension>
            <ns3:atemp>30.0</ns3:atemp>
            <ns3:hr>120</ns3:hr>
          </ns3:TrackPointExtension>
        </extensions>
      </trkpt>
      <trkpt lat="36.7554468847811222076416015625" lon="-118.43012834899127483367919921875">
        <ele>2726.199951171875</ele>
        <time>2021-06-24T23:44:14.000Z</time>
        <extensions>
          <ns3:TrackPointExtension>
            <ns3:atemp>30.0</ns3:atemp>
            <ns3:hr>121</ns3:hr>
          </ns3:TrackPointExtension>
        </extensions>
      </trkpt>
      <trkpt lat="36.7554606311023235321044921875" lon="-118.4300907142460346221923828125">
        <ele>2726.60009765625</ele>
        <time>2021-06-24T23:44:19.000Z</time>
        <extensions>
          <ns3:TrackPointExtension>
            <ns3:atemp>30.0</ns3:atemp>
            <ns3:hr>122</ns3:hr>
          </ns3:TrackPointExtension>
        </extensions>
      </trkpt>
      <trkpt lat="36.755498684942722320556640625" lon="-118.430039249360561370849609375">
        <ele>2727</ele>
        <time>2021-06-24T23:44:25.000Z</time>
        <extensions>
          <ns3:TrackPointExtension>
            <ns3:atemp>30.0</ns3:atemp>
            <ns3:hr>122</ns3:hr>
          </ns3:TrackPointExtension>
        </extensions>
      </trkpt>
      <trkpt lat="36.755519807338714599609375" lon="-118.4300256706774234771728515625">
        <ele>2727.199951171875</ele>
        <time>2021-06-24T23:44:27.000Z</time>
        <extensions>
          <ns3:TrackPointExtension>
            <ns3:atemp>30.0</ns3:atemp>
            <ns3:hr>123</ns3:hr>
          </ns3:TrackPointExtension>
        </extensions>
      </trkpt>
      <trkpt lat="36.75552844069898128509521484375" lon="-118.4300092421472072601318359375">
        <ele>2727.60009765625</ele>
        <time>2021-06-24T23:44:29.000Z</time>
        <extensions>
          <ns3:TrackPointExtension>
            <ns3:atemp>30.0</ns3:atemp>
            <ns3:hr>123</ns3:hr>
          </ns3:TrackPointExtension>
        </extensions>
      </trkpt>
      <trkpt lat="36.7554995231330394744873046875" lon="-118.42994327656924724578857421875">
        <ele>2728</ele>
        <time>2021-06-24T23:44:35.000Z</time>
        <extensions>
          <ns3:TrackPointExtension>
            <ns3:atemp>30.0</ns3:atemp>
            <ns3:hr>123</ns3:hr>
          </ns3:TrackPointExtension>
        </extensions>
      </trkpt>
      <trkpt lat="36.755498684942722320556640625" lon="-118.42991796322166919708251953125">
        <ele>2728.800048828125</ele>
        <time>2021-06-24T23:44:38.000Z</time>
        <extensions>
          <ns3:TrackPointExtension>
            <ns3:atemp>30.0</ns3:atemp>
            <ns3:hr>123</ns3:hr>
          </ns3:TrackPointExtension>
        </extensions>
      </trkpt>
      <trkpt lat="36.75550304353237152099609375" lon="-118.4298908896744251251220703125">
        <ele>2729.39990234375</ele>
        <time>2021-06-24T23:44:41.000Z</time>
        <extensions>
          <ns3:TrackPointExtension>
            <ns3:atemp>30.0</ns3:atemp>
            <ns3:hr>119</ns3:hr>
          </ns3:TrackPointExtension>
        </extensions>
      </trkpt>
      <trkpt lat="36.75550195388495922088623046875" lon="-118.4298707731068134307861328125">
        <ele>2729.800048828125</ele>
        <time>2021-06-24T23:44:43.000Z</time>
        <extensions>
          <ns3:TrackPointExtension>
            <ns3:atemp>30.0</ns3:atemp>
            <ns3:hr>123</ns3:hr>
          </ns3:TrackPointExtension>
        </extensions>
      </trkpt>
      <trkpt lat="36.75552290864288806915283203125" lon="-118.42984353192150592803955078125">
        <ele>2730.199951171875</ele>
        <time>2021-06-24T23:44:48.000Z</time>
        <extensions>
          <ns3:TrackPointExtension>
            <ns3:atemp>30.0</ns3:atemp>
            <ns3:hr>120</ns3:hr>
          </ns3:TrackPointExtension>
        </extensions>
      </trkpt>
      <trkpt lat="36.75552793778479099273681640625" lon="-118.42983380891382694244384765625">
        <ele>2730.199951171875</ele>
        <time>2021-06-24T23:44:49.000Z</time>
        <extensions>
          <ns3:TrackPointExtension>
            <ns3:atemp>30.0</ns3:atemp>
            <ns3:hr>121</ns3:hr>
          </ns3:TrackPointExtension>
        </extensions>
      </trkpt>
      <trkpt lat="36.7555350624024868011474609375" lon="-118.4297745488584041595458984375">
        <ele>2731.199951171875</ele>
        <time>2021-06-24T23:44:55.000Z</time>
        <extensions>
          <ns3:TrackPointExtension>
            <ns3:atemp>30.0</ns3:atemp>
            <ns3:hr>121</ns3:hr>
          </ns3:TrackPointExtension>
        </extensions>
      </trkpt>
      <trkpt lat="36.75553430803120136260986328125" lon="-118.42975770123302936553955078125">
        <ele>2731.39990234375</ele>
        <time>2021-06-24T23:44:57.000Z</time>
        <extensions>
          <ns3:TrackPointExtension>
            <ns3:atemp>30.0</ns3:atemp>
            <ns3:hr>125</ns3:hr>
          </ns3:TrackPointExtension>
        </extensions>
      </trkpt>
      <trkpt lat="36.755540929734706878662109375" lon="-118.42975317500531673431396484375">
        <ele>2731.60009765625</ele>
        <time>2021-06-24T23:44:58.000Z</time>
        <extensions>
          <ns3:TrackPointExtension>
            <ns3:atemp>30.0</ns3:atemp>
            <ns3:hr>126</ns3:hr>
          </ns3:TrackPointExtension>
        </extensions>
      </trkpt>
      <trkpt lat="36.75557152368128299713134765625" lon="-118.42977077700197696685791015625">
        <ele>2732.39990234375</ele>
        <time>2021-06-24T23:45:03.000Z</time>
        <extensions>
          <ns3:TrackPointExtension>
            <ns3:atemp>30.0</ns3:atemp>
            <ns3:hr>127</ns3:hr>
          </ns3:TrackPointExtension>
        </extensions>
      </trkpt>
      <trkpt lat="36.75558350980281829833984375" lon="-118.4297705255448818206787109375">
        <ele>2732.39990234375</ele>
        <time>2021-06-24T23:45:05.000Z</time>
        <extensions>
          <ns3:TrackPointExtension>
            <ns3:atemp>30.0</ns3:atemp>
            <ns3:hr>128</ns3:hr>
          </ns3:TrackPointExtension>
        </extensions>
      </trkpt>
      <trkpt lat="36.7556128464639186859130859375" lon="-118.42978167347609996795654296875">
        <ele>2733</ele>
        <time>2021-06-24T23:45:10.000Z</time>
        <extensions>
          <ns3:TrackPointExtension>
            <ns3:atemp>30.0</ns3:atemp>
            <ns3:hr>131</ns3:hr>
          </ns3:TrackPointExtension>
        </extensions>
      </trkpt>
      <trkpt lat="36.75563715398311614990234375" lon="-118.42978251166641712188720703125">
        <ele>2733</ele>
        <time>2021-06-24T23:45:12.000Z</time>
        <extensions>
          <ns3:TrackPointExtension>
            <ns3:atemp>30.0</ns3:atemp>
            <ns3:hr>131</ns3:hr>
          </ns3:TrackPointExtension>
        </extensions>
      </trkpt>
      <trkpt lat="36.75565433688461780548095703125" lon="-118.4297872893512248992919921875">
        <ele>2733</ele>
        <time>2021-06-24T23:45:14.000Z</time>
        <extensions>
          <ns3:TrackPointExtension>
            <ns3:atemp>30.0</ns3:atemp>
            <ns3:hr>131</ns3:hr>
          </ns3:TrackPointExtension>
        </extensions>
      </trkpt>
      <trkpt lat="36.75565416924655437469482421875" lon="-118.42981251887977123260498046875">
        <ele>2733.39990234375</ele>
        <time>2021-06-24T23:45:18.000Z</time>
        <extensions>
          <ns3:TrackPointExtension>
            <ns3:atemp>30.0</ns3:atemp>
            <ns3:hr>128</ns3:hr>
          </ns3:TrackPointExtension>
        </extensions>
      </trkpt>
      <trkpt lat="36.75566825084388256072998046875" lon="-118.429828695952892303466796875">
        <ele>2733.39990234375</ele>
        <time>2021-06-24T23:45:19.000Z</time>
        <extensions>
          <ns3:TrackPointExtension>
            <ns3:atemp>30.0</ns3:atemp>
            <ns3:hr>128</ns3:hr>
          </ns3:TrackPointExtension>
        </extensions>
      </trkpt>
      <trkpt lat="36.7556726932525634765625" lon="-118.429832048714160919189453125">
        <ele>2733.800048828125</ele>
        <time>2021-06-24T23:45:20.000Z</time>
        <extensions>
          <ns3:TrackPointExtension>
            <ns3:atemp>30.0</ns3:atemp>
            <ns3:hr>129</ns3:hr>
          </ns3:TrackPointExtension>
        </extensions>
      </trkpt>
      <trkpt lat="36.7556788958609104156494140625" lon="-118.42983305454254150390625">
        <ele>2733.800048828125</ele>
        <time>2021-06-24T23:45:21.000Z</time>
        <extensions>
          <ns3:TrackPointExtension>
            <ns3:atemp>30.0</ns3:atemp>
            <ns3:hr>129</ns3:hr>
          </ns3:TrackPointExtension>
        </extensions>
      </trkpt>
      <trkpt lat="36.75569959916174411773681640625" lon="-118.42983682639896869659423828125">
        <ele>2734.39990234375</ele>
        <time>2021-06-24T23:45:24.000Z</time>
        <extensions>
          <ns3:TrackPointExtension>
            <ns3:atemp>30.0</ns3:atemp>
            <ns3:hr>131</ns3:hr>
          </ns3:TrackPointExtension>
        </extensions>
      </trkpt>
      <trkpt lat="36.75574184395372867584228515625" lon="-118.42982894740998744964599609375">
        <ele>2735.39990234375</ele>
        <time>2021-06-24T23:45:28.000Z</time>
        <extensions>
          <ns3:TrackPointExtension>
            <ns3:atemp>30.0</ns3:atemp>
            <ns3:hr>128</ns3:hr>
          </ns3:TrackPointExtension>
        </extensions>
      </trkpt>
      <trkpt lat="36.7557476274669170379638671875" lon="-118.42982232570648193359375">
        <ele>2735.60009765625</ele>
        <time>2021-06-24T23:45:29.000Z</time>
        <extensions>
          <ns3:TrackPointExtension>
            <ns3:atemp>30.0</ns3:atemp>
            <ns3:hr>128</ns3:hr>
          </ns3:TrackPointExtension>
        </extensions>
      </trkpt>
      <trkpt lat="36.75575542263686656951904296875" lon="-118.42981503345072269439697265625">
        <ele>2735.60009765625</ele>
        <time>2021-06-24T23:45:30.000Z</time>
        <extensions>
          <ns3:TrackPointExtension>
            <ns3:atemp>30.0</ns3:atemp>
            <ns3:hr>127</ns3:hr>
          </ns3:TrackPointExtension>
        </extensions>
      </trkpt>
      <trkpt lat="36.75576279871165752410888671875" lon="-118.42979474924504756927490234375">
        <ele>2736.199951171875</ele>
        <time>2021-06-24T23:45:32.000Z</time>
        <extensions>
          <ns3:TrackPointExtension>
            <ns3:atemp>30.0</ns3:atemp>
            <ns3:hr>126</ns3:hr>
          </ns3:TrackPointExtension>
        </extensions>
      </trkpt>
      <trkpt lat="36.75575911067426204681396484375" lon="-118.42976641841232776641845703125">
        <ele>2736.199951171875</ele>
        <time>2021-06-24T23:45:34.000Z</time>
        <extensions>
          <ns3:TrackPointExtension>
            <ns3:atemp>30.0</ns3:atemp>
            <ns3:hr>125</ns3:hr>
          </ns3:TrackPointExtension>
        </extensions>
      </trkpt>
      <trkpt lat="36.7557778023183345794677734375" lon="-118.42974278144538402557373046875">
        <ele>2736.60009765625</ele>
        <time>2021-06-24T23:45:36.000Z</time>
        <extensions>
          <ns3:TrackPointExtension>
            <ns3:atemp>30.0</ns3:atemp>
            <ns3:hr>125</ns3:hr>
          </ns3:TrackPointExtension>
        </extensions>
      </trkpt>
      <trkpt lat="36.75578610040247440338134765625" lon="-118.42973255552351474761962890625">
        <ele>2736.60009765625</ele>
        <time>2021-06-24T23:45:37.000Z</time>
        <extensions>
          <ns3:TrackPointExtension>
            <ns3:atemp>30.0</ns3:atemp>
            <ns3:hr>125</ns3:hr>
          </ns3:TrackPointExtension>
        </extensions>
      </trkpt>
      <trkpt lat="36.75581560470163822174072265625" lon="-118.42966885305941104888916015625">
        <ele>2737.199951171875</ele>
        <time>2021-06-24T23:45:42.000Z</time>
        <extensions>
          <ns3:TrackPointExtension>
            <ns3:atemp>30.0</ns3:atemp>
            <ns3:hr>124</ns3:hr>
          </ns3:TrackPointExtension>
        </extensions>
      </trkpt>
      <trkpt lat="36.75581744872033596038818359375" lon="-118.42965829186141490936279296875">
        <ele>2737.39990234375</ele>
        <time>2021-06-24T23:45:43.000Z</time>
        <extensions>
          <ns3:TrackPointExtension>
            <ns3:atemp>30.0</ns3:atemp>
            <ns3:hr>124</ns3:hr>
          </ns3:TrackPointExtension>
        </extensions>
      </trkpt>
      <trkpt lat="36.7558242380619049072265625" lon="-118.42962585389614105224609375">
        <ele>2737.60009765625</ele>
        <time>2021-06-24T23:45:46.000Z</time>
        <extensions>
          <ns3:TrackPointExtension>
            <ns3:atemp>30.0</ns3:atemp>
            <ns3:hr>125</ns3:hr>
          </ns3:TrackPointExtension>
        </extensions>
      </trkpt>
      <trkpt lat="36.75583387725055217742919921875" lon="-118.42961487360298633575439453125">
        <ele>2737.800048828125</ele>
        <time>2021-06-24T23:45:47.000Z</time>
        <extensions>
          <ns3:TrackPointExtension>
            <ns3:atemp>30.0</ns3:atemp>
            <ns3:hr>125</ns3:hr>
          </ns3:TrackPointExtension>
        </extensions>
      </trkpt>
      <trkpt lat="36.7558401636779308319091796875" lon="-118.42958696186542510986328125">
        <ele>2738</ele>
        <time>2021-06-24T23:45:51.000Z</time>
        <extensions>
          <ns3:TrackPointExtension>
            <ns3:atemp>30.0</ns3:atemp>
            <ns3:hr>124</ns3:hr>
          </ns3:TrackPointExtension>
        </extensions>
      </trkpt>
      <trkpt lat="36.755865477025508880615234375" lon="-118.42956022359430789947509765625">
        <ele>2739</ele>
        <time>2021-06-24T23:45:56.000Z</time>
        <extensions>
          <ns3:TrackPointExtension>
            <ns3:atemp>30.0</ns3:atemp>
            <ns3:hr>123</ns3:hr>
          </ns3:TrackPointExtension>
        </extensions>
      </trkpt>
      <trkpt lat="36.7558673210442066192626953125" lon="-118.4295527637004852294921875">
        <ele>2739</ele>
        <time>2021-06-24T23:45:57.000Z</time>
        <extensions>
          <ns3:TrackPointExtension>
            <ns3:atemp>30.0</ns3:atemp>
            <ns3:hr>123</ns3:hr>
          </ns3:TrackPointExtension>
        </extensions>
      </trkpt>
      <trkpt lat="36.75585717894136905670166015625" lon="-118.4294624067842960357666015625">
        <ele>2739.800048828125</ele>
        <time>2021-06-24T23:46:05.000Z</time>
        <extensions>
          <ns3:TrackPointExtension>
            <ns3:atemp>30.0</ns3:atemp>
            <ns3:hr>124</ns3:hr>
          </ns3:TrackPointExtension>
        </extensions>
      </trkpt>
      <trkpt lat="36.75587394274771213531494140625" lon="-118.4294570423662662506103515625">
        <ele>2740.199951171875</ele>
        <time>2021-06-24T23:46:07.000Z</time>
        <extensions>
          <ns3:TrackPointExtension>
            <ns3:atemp>30.0</ns3:atemp>
            <ns3:hr>125</ns3:hr>
          </ns3:TrackPointExtension>
        </extensions>
      </trkpt>
      <trkpt lat="36.75589137710630893707275390625" lon="-118.42945310287177562713623046875">
        <ele>2740.800048828125</ele>
        <time>2021-06-24T23:46:10.000Z</time>
        <extensions>
          <ns3:TrackPointExtension>
            <ns3:atemp>30.0</ns3:atemp>
            <ns3:hr>127</ns3:hr>
          </ns3:TrackPointExtension>
        </extensions>
      </trkpt>
      <trkpt lat="36.7558985017240047454833984375" lon="-118.42944740317761898040771484375">
        <ele>2740.800048828125</ele>
        <time>2021-06-24T23:46:11.000Z</time>
        <extensions>
          <ns3:TrackPointExtension>
            <ns3:atemp>30.0</ns3:atemp>
            <ns3:hr>127</ns3:hr>
          </ns3:TrackPointExtension>
        </extensions>
      </trkpt>
      <trkpt lat="36.75590612925589084625244140625" lon="-118.42942561022937297821044921875">
        <ele>2741</ele>
        <time>2021-06-24T23:46:14.000Z</time>
        <extensions>
          <ns3:TrackPointExtension>
            <ns3:atemp>30.0</ns3:atemp>
            <ns3:hr>127</ns3:hr>
          </ns3:TrackPointExtension>
        </extensions>
      </trkpt>
      <trkpt lat="36.7559181153774261474609375" lon="-118.4294030629098415374755859375">
        <ele>2741.39990234375</ele>
        <time>2021-06-24T23:46:17.000Z</time>
        <extensions>
          <ns3:TrackPointExtension>
            <ns3:atemp>30.0</ns3:atemp>
            <ns3:hr>128</ns3:hr>
          </ns3:TrackPointExtension>
        </extensions>
      </trkpt>
      <trkpt lat="36.7559266649186611175537109375" lon="-118.42940046451985836029052734375">
        <ele>2741.39990234375</ele>
        <time>2021-06-24T23:46:18.000Z</time>
        <extensions>
          <ns3:TrackPointExtension>
            <ns3:atemp>30.0</ns3:atemp>
            <ns3:hr>128</ns3:hr>
          </ns3:TrackPointExtension>
        </extensions>
      </trkpt>
      <trkpt lat="36.75594066269695758819580078125" lon="-118.42937146313488483428955078125">
        <ele>2741.60009765625</ele>
        <time>2021-06-24T23:46:21.000Z</time>
        <extensions>
          <ns3:TrackPointExtension>
            <ns3:atemp>30.0</ns3:atemp>
            <ns3:hr>127</ns3:hr>
          </ns3:TrackPointExtension>
        </extensions>
      </trkpt>
      <trkpt lat="36.7559529840946197509765625" lon="-118.429361321032047271728515625">
        <ele>2742.199951171875</ele>
        <time>2021-06-24T23:46:24.000Z</time>
        <extensions>
          <ns3:TrackPointExtension>
            <ns3:atemp>30.0</ns3:atemp>
            <ns3:hr>126</ns3:hr>
          </ns3:TrackPointExtension>
        </extensions>
      </trkpt>
      <trkpt lat="36.75596438348293304443359375" lon="-118.4293624944984912872314453125">
        <ele>2742.60009765625</ele>
        <time>2021-06-24T23:46:25.000Z</time>
        <extensions>
          <ns3:TrackPointExtension>
            <ns3:atemp>30.0</ns3:atemp>
            <ns3:hr>126</ns3:hr>
          </ns3:TrackPointExtension>
        </extensions>
      </trkpt>
      <trkpt lat="36.75597234629094600677490234375" lon="-118.42935754917562007904052734375">
        <ele>2742.60009765625</ele>
        <time>2021-06-24T23:46:26.000Z</time>
        <extensions>
          <ns3:TrackPointExtension>
            <ns3:atemp>30.0</ns3:atemp>
            <ns3:hr>125</ns3:hr>
          </ns3:TrackPointExtension>
        </extensions>
      </trkpt>
      <trkpt lat="36.75598139874637126922607421875" lon="-118.42932301573455333709716796875">
        <ele>2742.800048828125</ele>
        <time>2021-06-24T23:46:29.000Z</time>
        <extensions>
          <ns3:TrackPointExtension>
            <ns3:atemp>30.0</ns3:atemp>
            <ns3:hr>124</ns3:hr>
          </ns3:TrackPointExtension>
        </extensions>
      </trkpt>
      <trkpt lat="36.75600252114236354827880859375" lon="-118.42928747646510601043701171875">
        <ele>2743.199951171875</ele>
        <time>2021-06-24T23:46:33.000Z</time>
        <extensions>
          <ns3:TrackPointExtension>
            <ns3:atemp>30.0</ns3:atemp>
            <ns3:hr>122</ns3:hr>
          </ns3:TrackPointExtension>
        </extensions>
      </trkpt>
      <trkpt lat="36.755991540849208831787109375" lon="-118.4292317368090152740478515625">
        <ele>2744</ele>
        <time>2021-06-24T23:46:38.000Z</time>
        <extensions>
          <ns3:TrackPointExtension>
            <ns3:atemp>30.0</ns3:atemp>
            <ns3:hr>120</ns3:hr>
          </ns3:TrackPointExtension>
        </extensions>
      </trkpt>
      <trkpt lat="36.7559816502034664154052734375" lon="-118.429199717938899993896484375">
        <ele>2744.199951171875</ele>
        <time>2021-06-24T23:46:41.000Z</time>
        <extensions>
          <ns3:TrackPointExtension>
            <ns3:atemp>30.0</ns3:atemp>
            <ns3:hr>120</ns3:hr>
          </ns3:TrackPointExtension>
        </extensions>
      </trkpt>
      <trkpt lat="36.756002269685268402099609375" lon="-118.429132997989654541015625">
        <ele>2744.800048828125</ele>
        <time>2021-06-24T23:46:47.000Z</time>
        <extensions>
          <ns3:TrackPointExtension>
            <ns3:atemp>30.0</ns3:atemp>
            <ns3:hr>120</ns3:hr>
          </ns3:TrackPointExtension>
        </extensions>
      </trkpt>
      <trkpt lat="36.75600972957909107208251953125" lon="-118.42907876707613468170166015625">
        <ele>2745</ele>
        <time>2021-06-24T23:46:51.000Z</time>
        <extensions>
          <ns3:TrackPointExtension>
            <ns3:atemp>30.0</ns3:atemp>
            <ns3:hr>120</ns3:hr>
          </ns3:TrackPointExtension>
        </extensions>
      </trkpt>
      <trkpt lat="36.75599950365722179412841796875" lon="-118.4290243685245513916015625">
        <ele>2745.800048828125</ele>
        <time>2021-06-24T23:46:54.000Z</time>
        <extensions>
          <ns3:TrackPointExtension>
            <ns3:atemp>30.0</ns3:atemp>
            <ns3:hr>119</ns3:hr>
          </ns3:TrackPointExtension>
        </extensions>
      </trkpt>
      <trkpt lat="36.75599112175405025482177734375" lon="-118.42897030524909496307373046875">
        <ele>2746.199951171875</ele>
        <time>2021-06-24T23:46:59.000Z</time>
        <extensions>
          <ns3:TrackPointExtension>
            <ns3:atemp>30.0</ns3:atemp>
            <ns3:hr>120</ns3:hr>
          </ns3:TrackPointExtension>
        </extensions>
      </trkpt>
      <trkpt lat="36.75598584115505218505859375" lon="-118.428948931396007537841796875">
        <ele>2746.39990234375</ele>
        <time>2021-06-24T23:47:01.000Z</time>
        <extensions>
          <ns3:TrackPointExtension>
            <ns3:atemp>30.0</ns3:atemp>
            <ns3:hr>120</ns3:hr>
          </ns3:TrackPointExtension>
        </extensions>
      </trkpt>
      <trkpt lat="36.755978129804134368896484375" lon="-118.42892219312489032745361328125">
        <ele>2746.60009765625</ele>
        <time>2021-06-24T23:47:03.000Z</time>
        <extensions>
          <ns3:TrackPointExtension>
            <ns3:atemp>30.0</ns3:atemp>
            <ns3:hr>119</ns3:hr>
          </ns3:TrackPointExtension>
        </extensions>
      </trkpt>
      <trkpt lat="36.7559628747403621673583984375" lon="-118.4288662858307361602783203125">
        <ele>2747.199951171875</ele>
        <time>2021-06-24T23:47:08.000Z</time>
        <extensions>
          <ns3:TrackPointExtension>
            <ns3:atemp>30.0</ns3:atemp>
            <ns3:hr>118</ns3:hr>
          </ns3:TrackPointExtension>
        </extensions>
      </trkpt>
      <trkpt lat="36.75596212036907672882080078125" lon="-118.42885597608983516693115234375">
        <ele>2747.39990234375</ele>
        <time>2021-06-24T23:47:09.000Z</time>
        <extensions>
          <ns3:TrackPointExtension>
            <ns3:atemp>30.0</ns3:atemp>
            <ns3:hr>117</ns3:hr>
          </ns3:TrackPointExtension>
        </extensions>
      </trkpt>
      <trkpt lat="36.755961365997791290283203125" lon="-118.4288072772324085235595703125">
        <ele>2747.60009765625</ele>
        <time>2021-06-24T23:47:13.000Z</time>
        <extensions>
          <ns3:TrackPointExtension>
            <ns3:atemp>30.0</ns3:atemp>
            <ns3:hr>115</ns3:hr>
          </ns3:TrackPointExtension>
        </extensions>
      </trkpt>
      <trkpt lat="36.7559739388525485992431640625" lon="-118.42879344709217548370361328125">
        <ele>2747.800048828125</ele>
        <time>2021-06-24T23:47:16.000Z</time>
        <extensions>
          <ns3:TrackPointExtension>
            <ns3:atemp>30.0</ns3:atemp>
            <ns3:hr>115</ns3:hr>
          </ns3:TrackPointExtension>
        </extensions>
      </trkpt>
      <trkpt lat="36.75598324276506900787353515625" lon="-118.42879571020603179931640625">
        <ele>2748</ele>
        <time>2021-06-24T23:47:17.000Z</time>
        <extensions>
          <ns3:TrackPointExtension>
            <ns3:atemp>30.0</ns3:atemp>
            <ns3:hr>115</ns3:hr>
          </ns3:TrackPointExtension>
        </extensions>
      </trkpt>
      <trkpt lat="36.75600972957909107208251953125" lon="-118.42880736105144023895263671875">
        <ele>2748</ele>
        <time>2021-06-24T23:47:19.000Z</time>
        <extensions>
          <ns3:TrackPointExtension>
            <ns3:atemp>30.0</ns3:atemp>
            <ns3:hr>116</ns3:hr>
          </ns3:TrackPointExtension>
        </extensions>
      </trkpt>
      <trkpt lat="36.7560195364058017730712890625" lon="-118.4288096241652965545654296875">
        <ele>2748.39990234375</ele>
        <time>2021-06-24T23:47:20.000Z</time>
        <extensions>
          <ns3:TrackPointExtension>
            <ns3:atemp>30.0</ns3:atemp>
            <ns3:hr>118</ns3:hr>
          </ns3:TrackPointExtension>
        </extensions>
      </trkpt>
      <trkpt lat="36.75604158081114292144775390625" lon="-118.42879881151020526885986328125">
        <ele>2748.60009765625</ele>
        <time>2021-06-24T23:47:23.000Z</time>
        <extensions>
          <ns3:TrackPointExtension>
            <ns3:atemp>30.0</ns3:atemp>
            <ns3:hr>119</ns3:hr>
          </ns3:TrackPointExtension>
        </extensions>
      </trkpt>
      <trkpt lat="36.75605935044586658477783203125" lon="-118.42878908850252628326416015625">
        <ele>2748.800048828125</ele>
        <time>2021-06-24T23:47:26.000Z</time>
        <extensions>
          <ns3:TrackPointExtension>
            <ns3:atemp>30.0</ns3:atemp>
            <ns3:hr>119</ns3:hr>
          </ns3:TrackPointExtension>
        </extensions>
      </trkpt>
      <trkpt lat="36.75606739707291126251220703125" lon="-118.42873829416930675506591796875">
        <ele>2749.199951171875</ele>
        <time>2021-06-24T23:47:30.000Z</time>
        <extensions>
          <ns3:TrackPointExtension>
            <ns3:atemp>30.0</ns3:atemp>
            <ns3:hr>120</ns3:hr>
          </ns3:TrackPointExtension>
        </extensions>
      </trkpt>
      <trkpt lat="36.75607460550963878631591796875" lon="-118.42873695306479930877685546875">
        <ele>2749.60009765625</ele>
        <time>2021-06-24T23:47:31.000Z</time>
        <extensions>
          <ns3:TrackPointExtension>
            <ns3:atemp>30.0</ns3:atemp>
            <ns3:hr>120</ns3:hr>
          </ns3:TrackPointExtension>
        </extensions>
      </trkpt>
      <trkpt lat="36.75609312951564788818359375" lon="-118.4287154115736484527587890625">
        <ele>2749.800048828125</ele>
        <time>2021-06-24T23:47:36.000Z</time>
        <extensions>
          <ns3:TrackPointExtension>
            <ns3:atemp>30.0</ns3:atemp>
            <ns3:hr>118</ns3:hr>
          </ns3:TrackPointExtension>
        </extensions>
      </trkpt>
      <trkpt lat="36.75616529770195484161376953125" lon="-118.42866696417331695556640625">
        <ele>2750.199951171875</ele>
        <time>2021-06-24T23:47:45.000Z</time>
        <extensions>
          <ns3:TrackPointExtension>
            <ns3:atemp>30.0</ns3:atemp>
            <ns3:hr>118</ns3:hr>
          </ns3:TrackPointExtension>
        </extensions>
      </trkpt>
      <trkpt lat="36.75618206150829792022705078125" lon="-118.42865481041371822357177734375">
        <ele>2750.60009765625</ele>
        <time>2021-06-24T23:47:49.000Z</time>
        <extensions>
          <ns3:TrackPointExtension>
            <ns3:atemp>30.0</ns3:atemp>
            <ns3:hr>118</ns3:hr>
          </ns3:TrackPointExtension>
        </extensions>
      </trkpt>
      <trkpt lat="36.75620737485587596893310546875" lon="-118.42865891754627227783203125">
        <ele>2751.199951171875</ele>
        <time>2021-06-24T23:47:52.000Z</time>
        <extensions>
          <ns3:TrackPointExtension>
            <ns3:atemp>30.0</ns3:atemp>
            <ns3:hr>118</ns3:hr>
          </ns3:TrackPointExtension>
        </extensions>
      </trkpt>
      <trkpt lat="36.756211817264556884765625" lon="-118.428649865090847015380859375">
        <ele>2751.199951171875</ele>
        <time>2021-06-24T23:47:53.000Z</time>
        <extensions>
          <ns3:TrackPointExtension>
            <ns3:atemp>30.0</ns3:atemp>
            <ns3:hr>119</ns3:hr>
          </ns3:TrackPointExtension>
        </extensions>
      </trkpt>
      <trkpt lat="36.756246350705623626708984375" lon="-118.4286480210721492767333984375">
        <ele>2751.800048828125</ele>
        <time>2021-06-24T23:47:57.000Z</time>
        <extensions>
          <ns3:TrackPointExtension>
            <ns3:atemp>30.0</ns3:atemp>
            <ns3:hr>122</ns3:hr>
          </ns3:TrackPointExtension>
        </extensions>
      </trkpt>
      <trkpt lat="36.75627074204385280609130859375" lon="-118.4286574088037014007568359375">
        <ele>2752</ele>
        <time>2021-06-24T23:48:00.000Z</time>
        <extensions>
          <ns3:TrackPointExtension>
            <ns3:atemp>30.0</ns3:atemp>
            <ns3:hr>124</ns3:hr>
          </ns3:TrackPointExtension>
        </extensions>
      </trkpt>
      <trkpt lat="36.756322123110294342041015625" lon="-118.4286389686167240142822265625">
        <ele>2752.60009765625</ele>
        <time>2021-06-24T23:48:07.000Z</time>
        <extensions>
          <ns3:TrackPointExtension>
            <ns3:atemp>30.0</ns3:atemp>
            <ns3:hr>125</ns3:hr>
          </ns3:TrackPointExtension>
        </extensions>
      </trkpt>
      <trkpt lat="36.75632807426154613494873046875" lon="-118.42861759476363658905029296875">
        <ele>2752.60009765625</ele>
        <time>2021-06-24T23:48:09.000Z</time>
        <extensions>
          <ns3:TrackPointExtension>
            <ns3:atemp>30.0</ns3:atemp>
            <ns3:hr>125</ns3:hr>
          </ns3:TrackPointExtension>
        </extensions>
      </trkpt>
      <trkpt lat="36.75633310340344905853271484375" lon="-118.42859479598701000213623046875">
        <ele>2752.800048828125</ele>
        <time>2021-06-24T23:48:11.000Z</time>
        <extensions>
          <ns3:TrackPointExtension>
            <ns3:atemp>30.0</ns3:atemp>
            <ns3:hr>125</ns3:hr>
          </ns3:TrackPointExtension>
        </extensions>
      </trkpt>
      <trkpt lat="36.75633528269827365875244140625" lon="-118.428533188998699188232421875">
        <ele>2753</ele>
        <time>2021-06-24T23:48:16.000Z</time>
        <extensions>
          <ns3:TrackPointExtension>
            <ns3:atemp>30.0</ns3:atemp>
            <ns3:hr>122</ns3:hr>
          </ns3:TrackPointExtension>
        </extensions>
      </trkpt>
      <trkpt lat="36.75632975064218044281005859375" lon="-118.42852287925779819488525390625">
        <ele>2753.199951171875</ele>
        <time>2021-06-24T23:48:17.000Z</time>
        <extensions>
          <ns3:TrackPointExtension>
            <ns3:atemp>30.0</ns3:atemp>
            <ns3:hr>121</ns3:hr>
          </ns3:TrackPointExtension>
        </extensions>
      </trkpt>
      <trkpt lat="36.7563380487263202667236328125" lon="-118.428501002490520477294921875">
        <ele>2753.39990234375</ele>
        <time>2021-06-24T23:48:20.000Z</time>
        <extensions>
          <ns3:TrackPointExtension>
            <ns3:atemp>30.0</ns3:atemp>
            <ns3:hr>118</ns3:hr>
          </ns3:TrackPointExtension>
        </extensions>
      </trkpt>
      <trkpt lat="36.75638758577406406402587890625" lon="-118.4284709952771663665771484375">
        <ele>2754</ele>
        <time>2021-06-24T23:48:25.000Z</time>
        <extensions>
          <ns3:TrackPointExtension>
            <ns3:atemp>30.0</ns3:atemp>
            <ns3:hr>118</ns3:hr>
          </ns3:TrackPointExtension>
        </extensions>
      </trkpt>
      <trkpt lat="36.75644223578274250030517578125" lon="-118.4284528903663158416748046875">
        <ele>2754.800048828125</ele>
        <time>2021-06-24T23:48:31.000Z</time>
        <extensions>
          <ns3:TrackPointExtension>
            <ns3:atemp>30.0</ns3:atemp>
            <ns3:hr>115</ns3:hr>
          </ns3:TrackPointExtension>
        </extensions>
      </trkpt>
      <trkpt lat="36.75647408701479434967041015625" lon="-118.428437300026416778564453125">
        <ele>2755</ele>
        <time>2021-06-24T23:48:35.000Z</time>
        <extensions>
          <ns3:TrackPointExtension>
            <ns3:atemp>30.0</ns3:atemp>
            <ns3:hr>114</ns3:hr>
          </ns3:TrackPointExtension>
        </extensions>
      </trkpt>
      <trkpt lat="36.75648272037506103515625" lon="-118.428433276712894439697265625">
        <ele>2755.199951171875</ele>
        <time>2021-06-24T23:48:36.000Z</time>
        <extensions>
          <ns3:TrackPointExtension>
            <ns3:atemp>30.0</ns3:atemp>
            <ns3:hr>114</ns3:hr>
          </ns3:TrackPointExtension>
        </extensions>
      </trkpt>
      <trkpt lat="36.75650442950427532196044921875" lon="-118.42841492034494876861572265625">
        <ele>2755.39990234375</ele>
        <time>2021-06-24T23:48:39.000Z</time>
        <extensions>
          <ns3:TrackPointExtension>
            <ns3:atemp>30.0</ns3:atemp>
            <ns3:hr>111</ns3:hr>
          </ns3:TrackPointExtension>
        </extensions>
      </trkpt>
      <trkpt lat="36.7565338499844074249267578125" lon="-118.42839471995830535888671875">
        <ele>2755</ele>
        <time>2021-06-24T23:48:43.000Z</time>
        <extensions>
          <ns3:TrackPointExtension>
            <ns3:atemp>30.0</ns3:atemp>
            <ns3:hr>114</ns3:hr>
          </ns3:TrackPointExtension>
        </extensions>
      </trkpt>
      <trkpt lat="36.75653644837439060211181640625" lon="-118.428387008607387542724609375">
        <ele>2755</ele>
        <time>2021-06-24T23:48:44.000Z</time>
        <extensions>
          <ns3:TrackPointExtension>
            <ns3:atemp>30.0</ns3:atemp>
            <ns3:hr>114</ns3:hr>
          </ns3:TrackPointExtension>
        </extensions>
      </trkpt>
      <trkpt lat="36.7565586604177951812744140625" lon="-118.42835524119436740875244140625">
        <ele>2755.199951171875</ele>
        <time>2021-06-24T23:48:48.000Z</time>
        <extensions>
          <ns3:TrackPointExtension>
            <ns3:atemp>30.0</ns3:atemp>
            <ns3:hr>117</ns3:hr>
          </ns3:TrackPointExtension>
        </extensions>
      </trkpt>
      <trkpt lat="36.756625212728977203369140625" lon="-118.42830981127917766571044921875">
        <ele>2755.800048828125</ele>
        <time>2021-06-24T23:48:55.000Z</time>
        <extensions>
          <ns3:TrackPointExtension>
            <ns3:atemp>30.0</ns3:atemp>
            <ns3:hr>117</ns3:hr>
          </ns3:TrackPointExtension>
        </extensions>
      </trkpt>
      <trkpt lat="36.7566408030688762664794921875" lon="-118.4282879345118999481201171875">
        <ele>2756.60009765625</ele>
        <time>2021-06-24T23:48:58.000Z</time>
        <extensions>
          <ns3:TrackPointExtension>
            <ns3:atemp>30.0</ns3:atemp>
            <ns3:hr>115</ns3:hr>
          </ns3:TrackPointExtension>
        </extensions>
      </trkpt>
      <trkpt lat="36.756670139729976654052734375" lon="-118.42825717292726039886474609375">
        <ele>2756.800048828125</ele>
        <time>2021-06-24T23:49:02.000Z</time>
        <extensions>
          <ns3:TrackPointExtension>
            <ns3:atemp>30.0</ns3:atemp>
            <ns3:hr>117</ns3:hr>
          </ns3:TrackPointExtension>
        </extensions>
      </trkpt>
      <trkpt lat="36.75671313889324665069580078125" lon="-118.42821124009788036346435546875">
        <ele>2757.199951171875</ele>
        <time>2021-06-24T23:49:10.000Z</time>
        <extensions>
          <ns3:TrackPointExtension>
            <ns3:atemp>30.0</ns3:atemp>
            <ns3:hr>118</ns3:hr>
          </ns3:TrackPointExtension>
        </extensions>
      </trkpt>
      <trkpt lat="36.7567420564591884613037109375" lon="-118.42817611992359161376953125">
        <ele>2757.800048828125</ele>
        <time>2021-06-24T23:49:15.000Z</time>
        <extensions>
          <ns3:TrackPointExtension>
            <ns3:atemp>30.0</ns3:atemp>
            <ns3:hr>119</ns3:hr>
          </ns3:TrackPointExtension>
        </extensions>
      </trkpt>
      <trkpt lat="36.75675052218139171600341796875" lon="-118.4281310252845287322998046875">
        <ele>2758.199951171875</ele>
        <time>2021-06-24T23:49:20.000Z</time>
        <extensions>
          <ns3:TrackPointExtension>
            <ns3:atemp>30.0</ns3:atemp>
            <ns3:hr>117</ns3:hr>
          </ns3:TrackPointExtension>
        </extensions>
      </trkpt>
      <trkpt lat="36.75675990991294384002685546875" lon="-118.42811551876366138458251953125">
        <ele>2758.39990234375</ele>
        <time>2021-06-24T23:49:23.000Z</time>
        <extensions>
          <ns3:TrackPointExtension>
            <ns3:atemp>30.0</ns3:atemp>
            <ns3:hr>114</ns3:hr>
          </ns3:TrackPointExtension>
        </extensions>
      </trkpt>
      <trkpt lat="36.75676862709224224090576171875" lon="-118.428089283406734466552734375">
        <ele>2758.60009765625</ele>
        <time>2021-06-24T23:49:26.000Z</time>
        <extensions>
          <ns3:TrackPointExtension>
            <ns3:atemp>30.0</ns3:atemp>
            <ns3:hr>112</ns3:hr>
          </ns3:TrackPointExtension>
        </extensions>
      </trkpt>
      <trkpt lat="36.75677835009992122650146484375" lon="-118.42806891538202762603759765625">
        <ele>2758.60009765625</ele>
        <time>2021-06-24T23:49:29.000Z</time>
        <extensions>
          <ns3:TrackPointExtension>
            <ns3:atemp>30.0</ns3:atemp>
            <ns3:hr>112</ns3:hr>
          </ns3:TrackPointExtension>
        </extensions>
      </trkpt>
      <trkpt lat="36.7568014003336429595947265625" lon="-118.4280260838568210601806640625">
        <ele>2758.60009765625</ele>
        <time>2021-06-24T23:49:34.000Z</time>
        <extensions>
          <ns3:TrackPointExtension>
            <ns3:atemp>30.0</ns3:atemp>
            <ns3:hr>111</ns3:hr>
          </ns3:TrackPointExtension>
        </extensions>
      </trkpt>
      <trkpt lat="36.75680927932262420654296875" lon="-118.42800655402243137359619140625">
        <ele>2758.800048828125</ele>
        <time>2021-06-24T23:49:36.000Z</time>
        <extensions>
          <ns3:TrackPointExtension>
            <ns3:atemp>30.0</ns3:atemp>
            <ns3:hr>110</ns3:hr>
          </ns3:TrackPointExtension>
        </extensions>
      </trkpt>
      <trkpt lat="36.75679586827754974365234375" lon="-118.427957855165004730224609375">
        <ele>2759.39990234375</ele>
        <time>2021-06-24T23:49:41.000Z</time>
        <extensions>
          <ns3:TrackPointExtension>
            <ns3:atemp>30.0</ns3:atemp>
            <ns3:hr>110</ns3:hr>
          </ns3:TrackPointExtension>
        </extensions>
      </trkpt>
      <trkpt lat="36.75679142586886882781982421875" lon="-118.42789742164313793182373046875">
        <ele>2759.39990234375</ele>
        <time>2021-06-24T23:49:47.000Z</time>
        <extensions>
          <ns3:TrackPointExtension>
            <ns3:atemp>30.0</ns3:atemp>
            <ns3:hr>114</ns3:hr>
          </ns3:TrackPointExtension>
        </extensions>
      </trkpt>
      <trkpt lat="36.7567916773259639739990234375" lon="-118.427871353924274444580078125">
        <ele>2760</ele>
        <time>2021-06-24T23:49:49.000Z</time>
        <extensions>
          <ns3:TrackPointExtension>
            <ns3:atemp>30.0</ns3:atemp>
            <ns3:hr>117</ns3:hr>
          </ns3:TrackPointExtension>
        </extensions>
      </trkpt>
      <trkpt lat="36.7567884922027587890625" lon="-118.42782936058938503265380859375">
        <ele>2760.39990234375</ele>
        <time>2021-06-24T23:49:52.000Z</time>
        <extensions>
          <ns3:TrackPointExtension>
            <ns3:atemp>30.0</ns3:atemp>
            <ns3:hr>119</ns3:hr>
          </ns3:TrackPointExtension>
        </extensions>
      </trkpt>
      <trkpt lat="36.75681330263614654541015625" lon="-118.42773933894932270050048828125">
        <ele>2760.800048828125</ele>
        <time>2021-06-24T23:50:01.000Z</time>
        <extensions>
          <ns3:TrackPointExtension>
            <ns3:atemp>30.0</ns3:atemp>
            <ns3:hr>118</ns3:hr>
          </ns3:TrackPointExtension>
        </extensions>
      </trkpt>
      <trkpt lat="36.7568372748792171478271484375" lon="-118.42766876332461833953857421875">
        <ele>2760.199951171875</ele>
        <time>2021-06-24T23:50:08.000Z</time>
        <extensions>
          <ns3:TrackPointExtension>
            <ns3:atemp>30.0</ns3:atemp>
            <ns3:hr>118</ns3:hr>
          </ns3:TrackPointExtension>
        </extensions>
      </trkpt>
      <trkpt lat="36.7568677850067615509033203125" lon="-118.42761461623013019561767578125">
        <ele>2760.39990234375</ele>
        <time>2021-06-24T23:50:14.000Z</time>
        <extensions>
          <ns3:TrackPointExtension>
            <ns3:atemp>30.0</ns3:atemp>
            <ns3:hr>116</ns3:hr>
          </ns3:TrackPointExtension>
        </extensions>
      </trkpt>
      <trkpt lat="36.7568741552531719207763671875" lon="-118.4275724552571773529052734375">
        <ele>2761</ele>
        <time>2021-06-24T23:50:18.000Z</time>
        <extensions>
          <ns3:TrackPointExtension>
            <ns3:atemp>30.0</ns3:atemp>
            <ns3:hr>114</ns3:hr>
          </ns3:TrackPointExtension>
        </extensions>
      </trkpt>
      <trkpt lat="36.75688144750893115997314453125" lon="-118.42754504643380641937255859375">
        <ele>2761.60009765625</ele>
        <time>2021-06-24T23:50:21.000Z</time>
        <extensions>
          <ns3:TrackPointExtension>
            <ns3:atemp>30.0</ns3:atemp>
            <ns3:hr>113</ns3:hr>
          </ns3:TrackPointExtension>
        </extensions>
      </trkpt>
      <trkpt lat="36.7568989656865596771240234375" lon="-118.4275154583156108856201171875">
        <ele>2762</ele>
        <time>2021-06-24T23:50:25.000Z</time>
        <extensions>
          <ns3:TrackPointExtension>
            <ns3:atemp>30.0</ns3:atemp>
            <ns3:hr>112</ns3:hr>
          </ns3:TrackPointExtension>
        </extensions>
      </trkpt>
      <trkpt lat="36.75690508447587490081787109375" lon="-118.42750984244048595428466796875">
        <ele>2762.199951171875</ele>
        <time>2021-06-24T23:50:26.000Z</time>
        <extensions>
          <ns3:TrackPointExtension>
            <ns3:atemp>30.0</ns3:atemp>
            <ns3:hr>112</ns3:hr>
          </ns3:TrackPointExtension>
        </extensions>
      </trkpt>
      <trkpt lat="36.75690994597971439361572265625" lon="-118.42750078998506069183349609375">
        <ele>2762.39990234375</ele>
        <time>2021-06-24T23:50:27.000Z</time>
        <extensions>
          <ns3:TrackPointExtension>
            <ns3:atemp>30.0</ns3:atemp>
            <ns3:hr>111</ns3:hr>
          </ns3:TrackPointExtension>
        </extensions>
      </trkpt>
      <trkpt lat="36.75690458156168460845947265625" lon="-118.4274587966501712799072265625">
        <ele>2763.199951171875</ele>
        <time>2021-06-24T23:50:32.000Z</time>
        <extensions>
          <ns3:TrackPointExtension>
            <ns3:atemp>30.0</ns3:atemp>
            <ns3:hr>114</ns3:hr>
          </ns3:TrackPointExtension>
        </extensions>
      </trkpt>
      <trkpt lat="36.75691413693130016326904296875" lon="-118.42744446359574794769287109375">
        <ele>2763.39990234375</ele>
        <time>2021-06-24T23:50:34.000Z</time>
        <extensions>
          <ns3:TrackPointExtension>
            <ns3:atemp>30.0</ns3:atemp>
            <ns3:hr>115</ns3:hr>
          </ns3:TrackPointExtension>
        </extensions>
      </trkpt>
      <trkpt lat="36.75692469812929630279541015625" lon="-118.42743985354900360107421875">
        <ele>2763.60009765625</ele>
        <time>2021-06-24T23:50:35.000Z</time>
        <extensions>
          <ns3:TrackPointExtension>
            <ns3:atemp>30.0</ns3:atemp>
            <ns3:hr>115</ns3:hr>
          </ns3:TrackPointExtension>
        </extensions>
      </trkpt>
      <trkpt lat="36.75692771561443805694580078125" lon="-118.42742719687521457672119140625">
        <ele>2763.60009765625</ele>
        <time>2021-06-24T23:50:36.000Z</time>
        <extensions>
          <ns3:TrackPointExtension>
            <ns3:atemp>30.0</ns3:atemp>
            <ns3:hr>116</ns3:hr>
          </ns3:TrackPointExtension>
        </extensions>
      </trkpt>
      <trkpt lat="36.756929643452167510986328125" lon="-118.42738025821745395660400390625">
        <ele>2764.39990234375</ele>
        <time>2021-06-24T23:50:41.000Z</time>
        <extensions>
          <ns3:TrackPointExtension>
            <ns3:atemp>30.0</ns3:atemp>
            <ns3:hr>117</ns3:hr>
          </ns3:TrackPointExtension>
        </extensions>
      </trkpt>
      <trkpt lat="36.756934337317943572998046875" lon="-118.4273702837526798248291015625">
        <ele>2764.60009765625</ele>
        <time>2021-06-24T23:50:43.000Z</time>
        <extensions>
          <ns3:TrackPointExtension>
            <ns3:atemp>30.0</ns3:atemp>
            <ns3:hr>118</ns3:hr>
          </ns3:TrackPointExtension>
        </extensions>
      </trkpt>
      <trkpt lat="36.75693257711827754974365234375" lon="-118.42736198566854000091552734375">
        <ele>2765.199951171875</ele>
        <time>2021-06-24T23:50:44.000Z</time>
        <extensions>
          <ns3:TrackPointExtension>
            <ns3:atemp>30.0</ns3:atemp>
            <ns3:hr>118</ns3:hr>
          </ns3:TrackPointExtension>
        </extensions>
      </trkpt>
      <trkpt lat="36.75692888908088207244873046875" lon="-118.42733600176870822906494140625">
        <ele>2766</ele>
        <time>2021-06-24T23:50:47.000Z</time>
        <extensions>
          <ns3:TrackPointExtension>
            <ns3:atemp>30.0</ns3:atemp>
            <ns3:hr>120</ns3:hr>
          </ns3:TrackPointExtension>
        </extensions>
      </trkpt>
      <trkpt lat="36.756933666765689849853515625" lon="-118.4273277036845684051513671875">
        <ele>2766</ele>
        <time>2021-06-24T23:50:48.000Z</time>
        <extensions>
          <ns3:TrackPointExtension>
            <ns3:atemp>30.0</ns3:atemp>
            <ns3:hr>121</ns3:hr>
          </ns3:TrackPointExtension>
        </extensions>
      </trkpt>
      <trkpt lat="36.75693534314632415771484375" lon="-118.427310772240161895751953125">
        <ele>2766</ele>
        <time>2021-06-24T23:50:50.000Z</time>
        <extensions>
          <ns3:TrackPointExtension>
            <ns3:atemp>30.0</ns3:atemp>
            <ns3:hr>121</ns3:hr>
          </ns3:TrackPointExtension>
        </extensions>
      </trkpt>
      <trkpt lat="36.75693308003246784210205078125" lon="-118.42730264179408550262451171875">
        <ele>2766.199951171875</ele>
        <time>2021-06-24T23:50:51.000Z</time>
        <extensions>
          <ns3:TrackPointExtension>
            <ns3:atemp>30.0</ns3:atemp>
            <ns3:hr>122</ns3:hr>
          </ns3:TrackPointExtension>
        </extensions>
      </trkpt>
      <trkpt lat="36.75695185549557209014892578125" lon="-118.4272720478475093841552734375">
        <ele>2766.800048828125</ele>
        <time>2021-06-24T23:50:56.000Z</time>
        <extensions>
          <ns3:TrackPointExtension>
            <ns3:atemp>30.0</ns3:atemp>
            <ns3:hr>122</ns3:hr>
          </ns3:TrackPointExtension>
        </extensions>
      </trkpt>
      <trkpt lat="36.75695872865617275238037109375" lon="-118.42726014554500579833984375">
        <ele>2767.199951171875</ele>
        <time>2021-06-24T23:50:58.000Z</time>
        <extensions>
          <ns3:TrackPointExtension>
            <ns3:atemp>30.0</ns3:atemp>
            <ns3:hr>121</ns3:hr>
          </ns3:TrackPointExtension>
        </extensions>
      </trkpt>
      <trkpt lat="36.7569673620164394378662109375" lon="-118.4272567927837371826171875">
        <ele>2767.60009765625</ele>
        <time>2021-06-24T23:50:59.000Z</time>
        <extensions>
          <ns3:TrackPointExtension>
            <ns3:atemp>30.0</ns3:atemp>
            <ns3:hr>122</ns3:hr>
          </ns3:TrackPointExtension>
        </extensions>
      </trkpt>
      <trkpt lat="36.75698488019406795501708984375" lon="-118.42723273672163486480712890625">
        <ele>2768.60009765625</ele>
        <time>2021-06-24T23:51:03.000Z</time>
        <extensions>
          <ns3:TrackPointExtension>
            <ns3:atemp>30.0</ns3:atemp>
            <ns3:hr>123</ns3:hr>
          </ns3:TrackPointExtension>
        </extensions>
      </trkpt>
      <trkpt lat="36.757013462483882904052734375" lon="-118.4272106923162937164306640625">
        <ele>2769</ele>
        <time>2021-06-24T23:51:06.000Z</time>
        <extensions>
          <ns3:TrackPointExtension>
            <ns3:atemp>30.0</ns3:atemp>
            <ns3:hr>126</ns3:hr>
          </ns3:TrackPointExtension>
        </extensions>
      </trkpt>
      <trkpt lat="36.75702008418738842010498046875" lon="-118.4271838702261447906494140625">
        <ele>2769.199951171875</ele>
        <time>2021-06-24T23:51:09.000Z</time>
        <extensions>
          <ns3:TrackPointExtension>
            <ns3:atemp>30.0</ns3:atemp>
            <ns3:hr>127</ns3:hr>
          </ns3:TrackPointExtension>
        </extensions>
      </trkpt>
      <trkpt lat="36.75703902728855609893798828125" lon="-118.4271738119423389434814453125">
        <ele>2769.60009765625</ele>
        <time>2021-06-24T23:51:11.000Z</time>
        <extensions>
          <ns3:TrackPointExtension>
            <ns3:atemp>30.0</ns3:atemp>
            <ns3:hr>128</ns3:hr>
          </ns3:TrackPointExtension>
        </extensions>
      </trkpt>
      <trkpt lat="36.75704640336334705352783203125" lon="-118.427170626819133758544921875">
        <ele>2769.60009765625</ele>
        <time>2021-06-24T23:51:12.000Z</time>
        <extensions>
          <ns3:TrackPointExtension>
            <ns3:atemp>30.0</ns3:atemp>
            <ns3:hr>128</ns3:hr>
          </ns3:TrackPointExtension>
        </extensions>
      </trkpt>
      <trkpt lat="36.75710373558104038238525390625" lon="-118.42711991630494594573974609375">
        <ele>2770.39990234375</ele>
        <time>2021-06-24T23:51:20.000Z</time>
        <extensions>
          <ns3:TrackPointExtension>
            <ns3:atemp>30.0</ns3:atemp>
            <ns3:hr>129</ns3:hr>
          </ns3:TrackPointExtension>
        </extensions>
      </trkpt>
      <trkpt lat="36.75712619908154010772705078125" lon="-118.4271057508885860443115234375">
        <ele>2770.60009765625</ele>
        <time>2021-06-24T23:51:25.000Z</time>
        <extensions>
          <ns3:TrackPointExtension>
            <ns3:atemp>30.0</ns3:atemp>
            <ns3:hr>130</ns3:hr>
          </ns3:TrackPointExtension>
        </extensions>
      </trkpt>
      <trkpt lat="36.75713424570858478546142578125" lon="-118.42709275893867015838623046875">
        <ele>2771</ele>
        <time>2021-06-24T23:51:28.000Z</time>
        <extensions>
          <ns3:TrackPointExtension>
            <ns3:atemp>30.0</ns3:atemp>
            <ns3:hr>129</ns3:hr>
          </ns3:TrackPointExtension>
        </extensions>
      </trkpt>
      <trkpt lat="36.7571490816771984100341796875" lon="-118.42705805785953998565673828125">
        <ele>2772</ele>
        <time>2021-06-24T23:51:34.000Z</time>
        <extensions>
          <ns3:TrackPointExtension>
            <ns3:atemp>29.0</ns3:atemp>
            <ns3:hr>129</ns3:hr>
          </ns3:TrackPointExtension>
        </extensions>
      </trkpt>
      <trkpt lat="36.7571541108191013336181640625" lon="-118.42705436982214450836181640625">
        <ele>2772</ele>
        <time>2021-06-24T23:51:35.000Z</time>
        <extensions>
          <ns3:TrackPointExtension>
            <ns3:atemp>29.0</ns3:atemp>
            <ns3:hr>128</ns3:hr>
          </ns3:TrackPointExtension>
        </extensions>
      </trkpt>
      <trkpt lat="36.7571628279983997344970703125" lon="-118.4270507656037807464599609375">
        <ele>2772.199951171875</ele>
        <time>2021-06-24T23:51:36.000Z</time>
        <extensions>
          <ns3:TrackPointExtension>
            <ns3:atemp>29.0</ns3:atemp>
            <ns3:hr>127</ns3:hr>
          </ns3:TrackPointExtension>
        </extensions>
      </trkpt>
      <trkpt lat="36.7571802623569965362548828125" lon="-118.4270169027149677276611328125">
        <ele>2773</ele>
        <time>2021-06-24T23:51:42.000Z</time>
        <extensions>
          <ns3:TrackPointExtension>
            <ns3:atemp>29.0</ns3:atemp>
            <ns3:hr>124</ns3:hr>
          </ns3:TrackPointExtension>
        </extensions>
      </trkpt>
      <trkpt lat="36.75718621350824832916259765625" lon="-118.4270108677446842193603515625">
        <ele>2773</ele>
        <time>2021-06-24T23:51:43.000Z</time>
        <extensions>
          <ns3:TrackPointExtension>
            <ns3:atemp>29.0</ns3:atemp>
            <ns3:hr>123</ns3:hr>
          </ns3:TrackPointExtension>
        </extensions>
      </trkpt>
      <trkpt lat="36.75720063038170337677001953125" lon="-118.426996953785419464111328125">
        <ele>2773.39990234375</ele>
        <time>2021-06-24T23:51:46.000Z</time>
        <extensions>
          <ns3:TrackPointExtension>
            <ns3:atemp>29.0</ns3:atemp>
            <ns3:hr>120</ns3:hr>
          </ns3:TrackPointExtension>
        </extensions>
      </trkpt>
      <trkpt lat="36.75720180384814739227294921875" lon="-118.4269724786281585693359375">
        <ele>2773.60009765625</ele>
        <time>2021-06-24T23:51:48.000Z</time>
        <extensions>
          <ns3:TrackPointExtension>
            <ns3:atemp>29.0</ns3:atemp>
            <ns3:hr>120</ns3:hr>
          </ns3:TrackPointExtension>
        </extensions>
      </trkpt>
      <trkpt lat="36.757209599018096923828125" lon="-118.4269548766314983367919921875">
        <ele>2773.800048828125</ele>
        <time>2021-06-24T23:51:50.000Z</time>
        <extensions>
          <ns3:TrackPointExtension>
            <ns3:atemp>29.0</ns3:atemp>
            <ns3:hr>117</ns3:hr>
          </ns3:TrackPointExtension>
        </extensions>
      </trkpt>
      <trkpt lat="36.75720532424747943878173828125" lon="-118.42694523744285106658935546875">
        <ele>2774</ele>
        <time>2021-06-24T23:51:51.000Z</time>
        <extensions>
          <ns3:TrackPointExtension>
            <ns3:atemp>29.0</ns3:atemp>
            <ns3:hr>119</ns3:hr>
          </ns3:TrackPointExtension>
        </extensions>
      </trkpt>
      <trkpt lat="36.75720951519906520843505859375" lon="-118.42693920247256755828857421875">
        <ele>2774</ele>
        <time>2021-06-24T23:51:52.000Z</time>
        <extensions>
          <ns3:TrackPointExtension>
            <ns3:atemp>29.0</ns3:atemp>
            <ns3:hr>120</ns3:hr>
          </ns3:TrackPointExtension>
        </extensions>
      </trkpt>
      <trkpt lat="36.75721823237836360931396484375" lon="-118.4269273839890956878662109375">
        <ele>2774.199951171875</ele>
        <time>2021-06-24T23:51:54.000Z</time>
        <extensions>
          <ns3:TrackPointExtension>
            <ns3:atemp>29.0</ns3:atemp>
            <ns3:hr>121</ns3:hr>
          </ns3:TrackPointExtension>
        </extensions>
      </trkpt>
      <trkpt lat="36.75723306834697723388671875" lon="-118.42690072953701019287109375">
        <ele>2774.199951171875</ele>
        <time>2021-06-24T23:51:57.000Z</time>
        <extensions>
          <ns3:TrackPointExtension>
            <ns3:atemp>29.0</ns3:atemp>
            <ns3:hr>117</ns3:hr>
          </ns3:TrackPointExtension>
        </extensions>
      </trkpt>
      <trkpt lat="36.75722678191959857940673828125" lon="-118.42689410783350467681884765625">
        <ele>2774.60009765625</ele>
        <time>2021-06-24T23:51:58.000Z</time>
        <extensions>
          <ns3:TrackPointExtension>
            <ns3:atemp>29.0</ns3:atemp>
            <ns3:hr>121</ns3:hr>
          </ns3:TrackPointExtension>
        </extensions>
      </trkpt>
      <trkpt lat="36.757234744727611541748046875" lon="-118.4268948622047901153564453125">
        <ele>2774.60009765625</ele>
        <time>2021-06-24T23:51:59.000Z</time>
        <extensions>
          <ns3:TrackPointExtension>
            <ns3:atemp>29.0</ns3:atemp>
            <ns3:hr>121</ns3:hr>
          </ns3:TrackPointExtension>
        </extensions>
      </trkpt>
      <trkpt lat="36.75726366229355335235595703125" lon="-118.4268630109727382659912109375">
        <ele>2774.800048828125</ele>
        <time>2021-06-24T23:52:03.000Z</time>
        <extensions>
          <ns3:TrackPointExtension>
            <ns3:atemp>29.0</ns3:atemp>
            <ns3:hr>123</ns3:hr>
          </ns3:TrackPointExtension>
        </extensions>
      </trkpt>
      <trkpt lat="36.75728277303278446197509765625" lon="-118.42683191411197185516357421875">
        <ele>2775</ele>
        <time>2021-06-24T23:52:07.000Z</time>
        <extensions>
          <ns3:TrackPointExtension>
            <ns3:atemp>29.0</ns3:atemp>
            <ns3:hr>124</ns3:hr>
          </ns3:TrackPointExtension>
        </extensions>
      </trkpt>
      <trkpt lat="36.75732267089188098907470703125" lon="-118.426751196384429931640625">
        <ele>2775.800048828125</ele>
        <time>2021-06-24T23:52:16.000Z</time>
        <extensions>
          <ns3:TrackPointExtension>
            <ns3:atemp>30.0</ns3:atemp>
            <ns3:hr>125</ns3:hr>
          </ns3:TrackPointExtension>
        </extensions>
      </trkpt>
      <trkpt lat="36.7573187313973903656005859375" lon="-118.42671289108693599700927734375">
        <ele>2776.199951171875</ele>
        <time>2021-06-24T23:52:21.000Z</time>
        <extensions>
          <ns3:TrackPointExtension>
            <ns3:atemp>29.0</ns3:atemp>
            <ns3:hr>128</ns3:hr>
          </ns3:TrackPointExtension>
        </extensions>
      </trkpt>
      <trkpt lat="36.75732568837702274322509765625" lon="-118.4267047606408596038818359375">
        <ele>2776.199951171875</ele>
        <time>2021-06-24T23:52:24.000Z</time>
        <extensions>
          <ns3:TrackPointExtension>
            <ns3:atemp>30.0</ns3:atemp>
            <ns3:hr>131</ns3:hr>
          </ns3:TrackPointExtension>
        </extensions>
      </trkpt>
      <trkpt lat="36.75733205862343311309814453125" lon="-118.4266963787376880645751953125">
        <ele>2776.60009765625</ele>
        <time>2021-06-24T23:52:36.000Z</time>
        <extensions>
          <ns3:TrackPointExtension>
            <ns3:atemp>29.0</ns3:atemp>
            <ns3:hr>131</ns3:hr>
          </ns3:TrackPointExtension>
        </extensions>
      </trkpt>
      <trkpt lat="36.75733205862343311309814453125" lon="-118.4266963787376880645751953125">
        <ele>2776.60009765625</ele>
        <time>2021-06-24T23:52:42.000Z</time>
        <extensions>
          <ns3:TrackPointExtension>
            <ns3:atemp>29.0</ns3:atemp>
            <ns3:hr>128</ns3:hr>
          </ns3:TrackPointExtension>
        </extensions>
      </trkpt>
      <trkpt lat="36.757327951490879058837890625" lon="-118.42665857635438442230224609375">
        <ele>2777</ele>
        <time>2021-06-24T23:52:45.000Z</time>
        <extensions>
          <ns3:TrackPointExtension>
            <ns3:atemp>29.0</ns3:atemp>
            <ns3:hr>127</ns3:hr>
          </ns3:TrackPointExtension>
        </extensions>
      </trkpt>
      <trkpt lat="36.7573230899870395660400390625" lon="-118.4266232885420322418212890625">
        <ele>2777.39990234375</ele>
        <time>2021-06-24T23:52:47.000Z</time>
        <extensions>
          <ns3:TrackPointExtension>
            <ns3:atemp>29.0</ns3:atemp>
            <ns3:hr>126</ns3:hr>
          </ns3:TrackPointExtension>
        </extensions>
      </trkpt>
      <trkpt lat="36.75732937641441822052001953125" lon="-118.42653192579746246337890625">
        <ele>2778.60009765625</ele>
        <time>2021-06-24T23:52:53.000Z</time>
        <extensions>
          <ns3:TrackPointExtension>
            <ns3:atemp>29.0</ns3:atemp>
            <ns3:hr>125</ns3:hr>
          </ns3:TrackPointExtension>
        </extensions>
      </trkpt>
      <trkpt lat="36.75732962787151336669921875" lon="-118.42652178369462490081787109375">
        <ele>2778.60009765625</ele>
        <time>2021-06-24T23:52:54.000Z</time>
        <extensions>
          <ns3:TrackPointExtension>
            <ns3:atemp>29.0</ns3:atemp>
            <ns3:hr>125</ns3:hr>
          </ns3:TrackPointExtension>
        </extensions>
      </trkpt>
      <trkpt lat="36.75737195648252964019775390625" lon="-118.42648565769195556640625">
        <ele>2779.60009765625</ele>
        <time>2021-06-24T23:53:02.000Z</time>
        <extensions>
          <ns3:TrackPointExtension>
            <ns3:atemp>29.0</ns3:atemp>
            <ns3:hr>125</ns3:hr>
          </ns3:TrackPointExtension>
        </extensions>
      </trkpt>
      <trkpt lat="36.75737681798636913299560546875" lon="-118.426454477012157440185546875">
        <ele>2781.39990234375</ele>
        <time>2021-06-24T23:53:06.000Z</time>
        <extensions>
          <ns3:TrackPointExtension>
            <ns3:atemp>29.0</ns3:atemp>
            <ns3:hr>128</ns3:hr>
          </ns3:TrackPointExtension>
        </extensions>
      </trkpt>
      <trkpt lat="36.75737916491925716400146484375" lon="-118.4264435805380344390869140625">
        <ele>2781.60009765625</ele>
        <time>2021-06-24T23:53:07.000Z</time>
        <extensions>
          <ns3:TrackPointExtension>
            <ns3:atemp>29.0</ns3:atemp>
            <ns3:hr>129</ns3:hr>
          </ns3:TrackPointExtension>
        </extensions>
      </trkpt>
      <trkpt lat="36.7573914863169193267822265625" lon="-118.42643058858811855316162109375">
        <ele>2782</ele>
        <time>2021-06-24T23:53:09.000Z</time>
        <extensions>
          <ns3:TrackPointExtension>
            <ns3:atemp>29.0</ns3:atemp>
            <ns3:hr>133</ns3:hr>
          </ns3:TrackPointExtension>
        </extensions>
      </trkpt>
      <trkpt lat="36.757422499358654022216796875" lon="-118.42639203183352947235107421875">
        <ele>2782.60009765625</ele>
        <time>2021-06-24T23:53:15.000Z</time>
        <extensions>
          <ns3:TrackPointExtension>
            <ns3:atemp>29.0</ns3:atemp>
            <ns3:hr>136</ns3:hr>
          </ns3:TrackPointExtension>
        </extensions>
      </trkpt>
      <trkpt lat="36.75743029452860355377197265625" lon="-118.42636722140014171600341796875">
        <ele>2783.39990234375</ele>
        <time>2021-06-24T23:53:18.000Z</time>
        <extensions>
          <ns3:TrackPointExtension>
            <ns3:atemp>29.0</ns3:atemp>
            <ns3:hr>137</ns3:hr>
          </ns3:TrackPointExtension>
        </extensions>
      </trkpt>
      <trkpt lat="36.75744957290589809417724609375" lon="-118.4262965619564056396484375">
        <ele>2783.60009765625</ele>
        <time>2021-06-24T23:53:27.000Z</time>
        <extensions>
          <ns3:TrackPointExtension>
            <ns3:atemp>29.0</ns3:atemp>
            <ns3:hr>135</ns3:hr>
          </ns3:TrackPointExtension>
        </extensions>
      </trkpt>
      <trkpt lat="36.75744806416332721710205078125" lon="-118.42628960497677326202392578125">
        <ele>2784</ele>
        <time>2021-06-24T23:53:28.000Z</time>
        <extensions>
          <ns3:TrackPointExtension>
            <ns3:atemp>29.0</ns3:atemp>
            <ns3:hr>135</ns3:hr>
          </ns3:TrackPointExtension>
        </extensions>
      </trkpt>
      <trkpt lat="36.7574551887810230255126953125" lon="-118.4262638725340366363525390625">
        <ele>2784.60009765625</ele>
        <time>2021-06-24T23:53:31.000Z</time>
        <extensions>
          <ns3:TrackPointExtension>
            <ns3:atemp>29.0</ns3:atemp>
            <ns3:hr>133</ns3:hr>
          </ns3:TrackPointExtension>
        </extensions>
      </trkpt>
      <trkpt lat="36.757486872375011444091796875" lon="-118.4261860884726047515869140625">
        <ele>2786.199951171875</ele>
        <time>2021-06-24T23:53:41.000Z</time>
        <extensions>
          <ns3:TrackPointExtension>
            <ns3:atemp>29.0</ns3:atemp>
            <ns3:hr>132</ns3:hr>
          </ns3:TrackPointExtension>
        </extensions>
      </trkpt>
      <trkpt lat="36.7575058154761791229248046875" lon="-118.42611995525658130645751953125">
        <ele>2786.60009765625</ele>
        <time>2021-06-24T23:53:48.000Z</time>
        <extensions>
          <ns3:TrackPointExtension>
            <ns3:atemp>29.0</ns3:atemp>
            <ns3:hr>132</ns3:hr>
          </ns3:TrackPointExtension>
        </extensions>
      </trkpt>
      <trkpt lat="36.757528781890869140625" lon="-118.4260412491858005523681640625">
        <ele>2787.199951171875</ele>
        <time>2021-06-24T23:53:56.000Z</time>
        <extensions>
          <ns3:TrackPointExtension>
            <ns3:atemp>29.0</ns3:atemp>
            <ns3:hr>133</ns3:hr>
          </ns3:TrackPointExtension>
        </extensions>
      </trkpt>
      <trkpt lat="36.757529787719249725341796875" lon="-118.42602909542620182037353515625">
        <ele>2787.39990234375</ele>
        <time>2021-06-24T23:53:57.000Z</time>
        <extensions>
          <ns3:TrackPointExtension>
            <ns3:atemp>29.0</ns3:atemp>
            <ns3:hr>134</ns3:hr>
          </ns3:TrackPointExtension>
        </extensions>
      </trkpt>
      <trkpt lat="36.75754294730722904205322265625" lon="-118.4259949810802936553955078125">
        <ele>2788</ele>
        <time>2021-06-24T23:54:01.000Z</time>
        <extensions>
          <ns3:TrackPointExtension>
            <ns3:atemp>29.0</ns3:atemp>
            <ns3:hr>131</ns3:hr>
          </ns3:TrackPointExtension>
        </extensions>
      </trkpt>
      <trkpt lat="36.757549233734607696533203125" lon="-118.4259611181914806365966796875">
        <ele>2788.39990234375</ele>
        <time>2021-06-24T23:54:05.000Z</time>
        <extensions>
          <ns3:TrackPointExtension>
            <ns3:atemp>29.0</ns3:atemp>
            <ns3:hr>131</ns3:hr>
          </ns3:TrackPointExtension>
        </extensions>
      </trkpt>
      <trkpt lat="36.75756390206515789031982421875" lon="-118.42594318091869354248046875">
        <ele>2788.60009765625</ele>
        <time>2021-06-24T23:54:08.000Z</time>
        <extensions>
          <ns3:TrackPointExtension>
            <ns3:atemp>29.0</ns3:atemp>
            <ns3:hr>130</ns3:hr>
          </ns3:TrackPointExtension>
        </extensions>
      </trkpt>
      <trkpt lat="36.75761285237967967987060546875" lon="-118.42588844709098339080810546875">
        <ele>2789.800048828125</ele>
        <time>2021-06-24T23:54:16.000Z</time>
        <extensions>
          <ns3:TrackPointExtension>
            <ns3:atemp>29.0</ns3:atemp>
            <ns3:hr>132</ns3:hr>
          </ns3:TrackPointExtension>
        </extensions>
      </trkpt>
      <trkpt lat="36.7576167918741703033447265625" lon="-118.4258776344358921051025390625">
        <ele>2789.800048828125</ele>
        <time>2021-06-24T23:54:17.000Z</time>
        <extensions>
          <ns3:TrackPointExtension>
            <ns3:atemp>29.0</ns3:atemp>
            <ns3:hr>131</ns3:hr>
          </ns3:TrackPointExtension>
        </extensions>
      </trkpt>
      <trkpt lat="36.7576253414154052734375" lon="-118.4258370660245418548583984375">
        <ele>2790.199951171875</ele>
        <time>2021-06-24T23:54:21.000Z</time>
        <extensions>
          <ns3:TrackPointExtension>
            <ns3:atemp>29.0</ns3:atemp>
            <ns3:hr>127</ns3:hr>
          </ns3:TrackPointExtension>
        </extensions>
      </trkpt>
      <trkpt lat="36.757627688348293304443359375" lon="-118.42582792975008487701416015625">
        <ele>2790.60009765625</ele>
        <time>2021-06-24T23:54:22.000Z</time>
        <extensions>
          <ns3:TrackPointExtension>
            <ns3:atemp>29.0</ns3:atemp>
            <ns3:hr>126</ns3:hr>
          </ns3:TrackPointExtension>
        </extensions>
      </trkpt>
      <trkpt lat="36.75765710882842540740966796875" lon="-118.4258209727704524993896484375">
        <ele>2790.800048828125</ele>
        <time>2021-06-24T23:54:25.000Z</time>
        <extensions>
          <ns3:TrackPointExtension>
            <ns3:atemp>29.0</ns3:atemp>
            <ns3:hr>123</ns3:hr>
          </ns3:TrackPointExtension>
        </extensions>
      </trkpt>
      <trkpt lat="36.75765149295330047607421875" lon="-118.4257978387176990509033203125">
        <ele>2790.800048828125</ele>
        <time>2021-06-24T23:54:27.000Z</time>
        <extensions>
          <ns3:TrackPointExtension>
            <ns3:atemp>29.0</ns3:atemp>
            <ns3:hr>122</ns3:hr>
          </ns3:TrackPointExtension>
        </extensions>
      </trkpt>
      <trkpt lat="36.75765492953360080718994140625" lon="-118.42577897943556308746337890625">
        <ele>2791</ele>
        <time>2021-06-24T23:54:30.000Z</time>
        <extensions>
          <ns3:TrackPointExtension>
            <ns3:atemp>29.0</ns3:atemp>
            <ns3:hr>121</ns3:hr>
          </ns3:TrackPointExtension>
        </extensions>
      </trkpt>
      <trkpt lat="36.7576570250093936920166015625" lon="-118.4257693402469158172607421875">
        <ele>2791</ele>
        <time>2021-06-24T23:54:31.000Z</time>
        <extensions>
          <ns3:TrackPointExtension>
            <ns3:atemp>29.0</ns3:atemp>
            <ns3:hr>121</ns3:hr>
          </ns3:TrackPointExtension>
        </extensions>
      </trkpt>
      <trkpt lat="36.75766096450388431549072265625" lon="-118.42576087452471256256103515625">
        <ele>2791</ele>
        <time>2021-06-24T23:54:32.000Z</time>
        <extensions>
          <ns3:TrackPointExtension>
            <ns3:atemp>29.0</ns3:atemp>
            <ns3:hr>120</ns3:hr>
          </ns3:TrackPointExtension>
        </extensions>
      </trkpt>
      <trkpt lat="36.75767420791089534759521484375" lon="-118.4257314540445804595947265625">
        <ele>2791.800048828125</ele>
        <time>2021-06-24T23:54:36.000Z</time>
        <extensions>
          <ns3:TrackPointExtension>
            <ns3:atemp>29.0</ns3:atemp>
            <ns3:hr>119</ns3:hr>
          </ns3:TrackPointExtension>
        </extensions>
      </trkpt>
      <trkpt lat="36.75767923705279827117919921875" lon="-118.4257217310369014739990234375">
        <ele>2792</ele>
        <time>2021-06-24T23:54:37.000Z</time>
        <extensions>
          <ns3:TrackPointExtension>
            <ns3:atemp>29.0</ns3:atemp>
            <ns3:hr>118</ns3:hr>
          </ns3:TrackPointExtension>
        </extensions>
      </trkpt>
      <trkpt lat="36.7576910555362701416015625" lon="-118.4256979264318943023681640625">
        <ele>2792.199951171875</ele>
        <time>2021-06-24T23:54:40.000Z</time>
        <extensions>
          <ns3:TrackPointExtension>
            <ns3:atemp>29.0</ns3:atemp>
            <ns3:hr>117</ns3:hr>
          </ns3:TrackPointExtension>
        </extensions>
      </trkpt>
      <trkpt lat="36.75771309994161128997802734375" lon="-118.425651825964450836181640625">
        <ele>2792.60009765625</ele>
        <time>2021-06-24T23:54:45.000Z</time>
        <extensions>
          <ns3:TrackPointExtension>
            <ns3:atemp>29.0</ns3:atemp>
            <ns3:hr>114</ns3:hr>
          </ns3:TrackPointExtension>
        </extensions>
      </trkpt>
      <trkpt lat="36.7577177099883556365966796875" lon="-118.4256315417587757110595703125">
        <ele>2792.800048828125</ele>
        <time>2021-06-24T23:54:47.000Z</time>
        <extensions>
          <ns3:TrackPointExtension>
            <ns3:atemp>29.0</ns3:atemp>
            <ns3:hr>116</ns3:hr>
          </ns3:TrackPointExtension>
        </extensions>
      </trkpt>
      <trkpt lat="36.7577213980257511138916015625" lon="-118.42559985816478729248046875">
        <ele>2793</ele>
        <time>2021-06-24T23:54:50.000Z</time>
        <extensions>
          <ns3:TrackPointExtension>
            <ns3:atemp>29.0</ns3:atemp>
            <ns3:hr>117</ns3:hr>
          </ns3:TrackPointExtension>
        </extensions>
      </trkpt>
      <trkpt lat="36.75775400362908840179443359375" lon="-118.42556289397180080413818359375">
        <ele>2794</ele>
        <time>2021-06-24T23:54:55.000Z</time>
        <extensions>
          <ns3:TrackPointExtension>
            <ns3:atemp>29.0</ns3:atemp>
            <ns3:hr>119</ns3:hr>
          </ns3:TrackPointExtension>
        </extensions>
      </trkpt>
      <trkpt lat="36.75775500945746898651123046875" lon="-118.42554696835577487945556640625">
        <ele>2794.199951171875</ele>
        <time>2021-06-24T23:54:57.000Z</time>
        <extensions>
          <ns3:TrackPointExtension>
            <ns3:atemp>29.0</ns3:atemp>
            <ns3:hr>120</ns3:hr>
          </ns3:TrackPointExtension>
        </extensions>
      </trkpt>
      <trkpt lat="36.75775852985680103302001953125" lon="-118.4254568628966808319091796875">
        <ele>2795.199951171875</ele>
        <time>2021-06-24T23:55:05.000Z</time>
        <extensions>
          <ns3:TrackPointExtension>
            <ns3:atemp>29.0</ns3:atemp>
            <ns3:hr>122</ns3:hr>
          </ns3:TrackPointExtension>
        </extensions>
      </trkpt>
      <trkpt lat="36.75776657648384571075439453125" lon="-118.42540548183023929595947265625">
        <ele>2795.199951171875</ele>
        <time>2021-06-24T23:55:11.000Z</time>
        <extensions>
          <ns3:TrackPointExtension>
            <ns3:atemp>29.0</ns3:atemp>
            <ns3:hr>119</ns3:hr>
          </ns3:TrackPointExtension>
        </extensions>
      </trkpt>
      <trkpt lat="36.7577582783997058868408203125" lon="-118.42539207078516483306884765625">
        <ele>2795.39990234375</ele>
        <time>2021-06-24T23:55:12.000Z</time>
        <extensions>
          <ns3:TrackPointExtension>
            <ns3:atemp>29.0</ns3:atemp>
            <ns3:hr>119</ns3:hr>
          </ns3:TrackPointExtension>
        </extensions>
      </trkpt>
      <trkpt lat="36.75772533752024173736572265625" lon="-118.42536558397114276885986328125">
        <ele>2795.39990234375</ele>
        <time>2021-06-24T23:55:16.000Z</time>
        <extensions>
          <ns3:TrackPointExtension>
            <ns3:atemp>29.0</ns3:atemp>
            <ns3:hr>118</ns3:hr>
          </ns3:TrackPointExtension>
        </extensions>
      </trkpt>
      <trkpt lat="36.7577160336077213287353515625" lon="-118.4253666736185550689697265625">
        <ele>2795.39990234375</ele>
        <time>2021-06-24T23:55:17.000Z</time>
        <extensions>
          <ns3:TrackPointExtension>
            <ns3:atemp>29.0</ns3:atemp>
            <ns3:hr>118</ns3:hr>
          </ns3:TrackPointExtension>
        </extensions>
      </trkpt>
      <trkpt lat="36.75772902555763721466064453125" lon="-118.425362817943096160888671875">
        <ele>2794.60009765625</ele>
        <time>2021-06-24T23:55:26.000Z</time>
        <extensions>
          <ns3:TrackPointExtension>
            <ns3:atemp>29.0</ns3:atemp>
            <ns3:hr>118</ns3:hr>
          </ns3:TrackPointExtension>
        </extensions>
      </trkpt>
      <trkpt lat="36.75772902555763721466064453125" lon="-118.425362817943096160888671875">
        <ele>2794.800048828125</ele>
        <time>2021-06-24T23:55:30.000Z</time>
        <extensions>
          <ns3:TrackPointExtension>
            <ns3:atemp>28.0</ns3:atemp>
            <ns3:hr>121</ns3:hr>
          </ns3:TrackPointExtension>
        </extensions>
      </trkpt>
      <trkpt lat="36.75772902555763721466064453125" lon="-118.425362817943096160888671875">
        <ele>2794</ele>
        <time>2021-06-24T23:55:33.000Z</time>
        <extensions>
          <ns3:TrackPointExtension>
            <ns3:atemp>28.0</ns3:atemp>
            <ns3:hr>122</ns3:hr>
          </ns3:TrackPointExtension>
        </extensions>
      </trkpt>
      <trkpt lat="36.75772835500538349151611328125" lon="-118.425362817943096160888671875">
        <ele>2794</ele>
        <time>2021-06-24T23:55:39.000Z</time>
        <extensions>
          <ns3:TrackPointExtension>
            <ns3:atemp>28.0</ns3:atemp>
            <ns3:hr>119</ns3:hr>
          </ns3:TrackPointExtension>
        </extensions>
      </trkpt>
      <trkpt lat="36.75772248767316341400146484375" lon="-118.4253653325140476226806640625">
        <ele>2794.800048828125</ele>
        <time>2021-06-24T23:55:51.000Z</time>
        <extensions>
          <ns3:TrackPointExtension>
            <ns3:atemp>28.0</ns3:atemp>
            <ns3:hr>117</ns3:hr>
          </ns3:TrackPointExtension>
        </extensions>
      </trkpt>
      <trkpt lat="36.7577113397419452667236328125" lon="-118.42537379823625087738037109375">
        <ele>2795.60009765625</ele>
        <time>2021-06-24T23:55:54.000Z</time>
        <extensions>
          <ns3:TrackPointExtension>
            <ns3:atemp>28.0</ns3:atemp>
            <ns3:hr>116</ns3:hr>
          </ns3:TrackPointExtension>
        </extensions>
      </trkpt>
      <trkpt lat="36.75769834779202938079833984375" lon="-118.42538150958716869354248046875">
        <ele>2795.800048828125</ele>
        <time>2021-06-24T23:55:58.000Z</time>
        <extensions>
          <ns3:TrackPointExtension>
            <ns3:atemp>28.0</ns3:atemp>
            <ns3:hr>116</ns3:hr>
          </ns3:TrackPointExtension>
        </extensions>
      </trkpt>
      <trkpt lat="36.75769834779202938079833984375" lon="-118.42538150958716869354248046875">
        <ele>2796.60009765625</ele>
        <time>2021-06-24T23:56:00.000Z</time>
        <extensions>
          <ns3:TrackPointExtension>
            <ns3:atemp>28.0</ns3:atemp>
            <ns3:hr>115</ns3:hr>
          </ns3:TrackPointExtension>
        </extensions>
      </trkpt>
      <trkpt lat="36.75769834779202938079833984375" lon="-118.42538150958716869354248046875">
        <ele>2796.800048828125</ele>
        <time>2021-06-24T23:56:04.000Z</time>
        <extensions>
          <ns3:TrackPointExtension>
            <ns3:atemp>28.0</ns3:atemp>
            <ns3:hr>112</ns3:hr>
          </ns3:TrackPointExtension>
        </extensions>
      </trkpt>
      <trkpt lat="36.75768761895596981048583984375" lon="-118.4253841079771518707275390625">
        <ele>2797.199951171875</ele>
        <time>2021-06-24T23:56:07.000Z</time>
        <extensions>
          <ns3:TrackPointExtension>
            <ns3:atemp>28.0</ns3:atemp>
            <ns3:hr>109</ns3:hr>
          </ns3:TrackPointExtension>
        </extensions>
      </trkpt>
      <trkpt lat="36.757687032222747802734375" lon="-118.4253844432532787322998046875">
        <ele>2797.60009765625</ele>
        <time>2021-06-24T23:56:09.000Z</time>
        <extensions>
          <ns3:TrackPointExtension>
            <ns3:atemp>28.0</ns3:atemp>
            <ns3:hr>108</ns3:hr>
          </ns3:TrackPointExtension>
        </extensions>
      </trkpt>
      <trkpt lat="36.75768611021339893341064453125" lon="-118.42538603581488132476806640625">
        <ele>2797</ele>
        <time>2021-06-24T23:56:20.000Z</time>
        <extensions>
          <ns3:TrackPointExtension>
            <ns3:atemp>27.0</ns3:atemp>
            <ns3:hr>111</ns3:hr>
          </ns3:TrackPointExtension>
        </extensions>
      </trkpt>
      <trkpt lat="36.75769147463142871856689453125" lon="-118.42538452707231044769287109375">
        <ele>2797.60009765625</ele>
        <time>2021-06-24T23:56:30.000Z</time>
        <extensions>
          <ns3:TrackPointExtension>
            <ns3:atemp>27.0</ns3:atemp>
            <ns3:hr>111</ns3:hr>
          </ns3:TrackPointExtension>
        </extensions>
      </trkpt>
      <trkpt lat="36.757696755230426788330078125" lon="-118.425383605062961578369140625">
        <ele>2798.39990234375</ele>
        <time>2021-06-24T23:56:35.000Z</time>
        <extensions>
          <ns3:TrackPointExtension>
            <ns3:atemp>27.0</ns3:atemp>
            <ns3:hr>108</ns3:hr>
          </ns3:TrackPointExtension>
        </extensions>
      </trkpt>
      <trkpt lat="36.757698766887187957763671875" lon="-118.42538033612072467803955078125">
        <ele>2798.800048828125</ele>
        <time>2021-06-24T23:56:38.000Z</time>
        <extensions>
          <ns3:TrackPointExtension>
            <ns3:atemp>27.0</ns3:atemp>
            <ns3:hr>107</ns3:hr>
          </ns3:TrackPointExtension>
        </extensions>
      </trkpt>
      <trkpt lat="36.75770622678101062774658203125" lon="-118.425376228988170623779296875">
        <ele>2799.39990234375</ele>
        <time>2021-06-24T23:56:43.000Z</time>
        <extensions>
          <ns3:TrackPointExtension>
            <ns3:atemp>27.0</ns3:atemp>
            <ns3:hr>110</ns3:hr>
          </ns3:TrackPointExtension>
        </extensions>
      </trkpt>
      <trkpt lat="36.75771846435964107513427734375" lon="-118.42533792369067668914794921875">
        <ele>2799.800048828125</ele>
        <time>2021-06-24T23:56:55.000Z</time>
        <extensions>
          <ns3:TrackPointExtension>
            <ns3:atemp>27.0</ns3:atemp>
            <ns3:hr>109</ns3:hr>
          </ns3:TrackPointExtension>
        </extensions>
      </trkpt>
      <trkpt lat="36.7577170394361019134521484375" lon="-118.42530070804059505462646484375">
        <ele>2799.800048828125</ele>
        <time>2021-06-24T23:56:58.000Z</time>
        <extensions>
          <ns3:TrackPointExtension>
            <ns3:atemp>27.0</ns3:atemp>
            <ns3:hr>112</ns3:hr>
          </ns3:TrackPointExtension>
        </extensions>
      </trkpt>
      <trkpt lat="36.7577089928090572357177734375" lon="-118.42525443993508815765380859375">
        <ele>2799.800048828125</ele>
        <time>2021-06-24T23:57:00.000Z</time>
        <extensions>
          <ns3:TrackPointExtension>
            <ns3:atemp>27.0</ns3:atemp>
            <ns3:hr>112</ns3:hr>
          </ns3:TrackPointExtension>
        </extensions>
      </trkpt>
      <trkpt lat="36.75771025009453296661376953125" lon="-118.4252375923097133636474609375">
        <ele>2800</ele>
        <time>2021-06-24T23:57:01.000Z</time>
        <extensions>
          <ns3:TrackPointExtension>
            <ns3:atemp>27.0</ns3:atemp>
            <ns3:hr>112</ns3:hr>
          </ns3:TrackPointExtension>
        </extensions>
      </trkpt>
      <trkpt lat="36.7577267624437808990478515625" lon="-118.42517414130270481109619140625">
        <ele>2800.199951171875</ele>
        <time>2021-06-24T23:57:04.000Z</time>
        <extensions>
          <ns3:TrackPointExtension>
            <ns3:atemp>27.0</ns3:atemp>
            <ns3:hr>109</ns3:hr>
          </ns3:TrackPointExtension>
        </extensions>
      </trkpt>
      <trkpt lat="36.7577324621379375457763671875" lon="-118.4251520968973636627197265625">
        <ele>2800.60009765625</ele>
        <time>2021-06-24T23:57:05.000Z</time>
        <extensions>
          <ns3:TrackPointExtension>
            <ns3:atemp>27.0</ns3:atemp>
            <ns3:hr>108</ns3:hr>
          </ns3:TrackPointExtension>
        </extensions>
      </trkpt>
      <trkpt lat="36.75774059258401393890380859375" lon="-118.42513407580554485321044921875">
        <ele>2800.800048828125</ele>
        <time>2021-06-24T23:57:06.000Z</time>
        <extensions>
          <ns3:TrackPointExtension>
            <ns3:atemp>27.0</ns3:atemp>
            <ns3:hr>109</ns3:hr>
          </ns3:TrackPointExtension>
        </extensions>
      </trkpt>
      <trkpt lat="36.75774671137332916259765625" lon="-118.425122089684009552001953125">
        <ele>2801</ele>
        <time>2021-06-24T23:57:08.000Z</time>
        <extensions>
          <ns3:TrackPointExtension>
            <ns3:atemp>27.0</ns3:atemp>
            <ns3:hr>110</ns3:hr>
          </ns3:TrackPointExtension>
        </extensions>
      </trkpt>
      <trkpt lat="36.757751069962978363037109375" lon="-118.42511664144694805145263671875">
        <ele>2801</ele>
        <time>2021-06-24T23:57:09.000Z</time>
        <extensions>
          <ns3:TrackPointExtension>
            <ns3:atemp>27.0</ns3:atemp>
            <ns3:hr>113</ns3:hr>
          </ns3:TrackPointExtension>
        </extensions>
      </trkpt>
      <trkpt lat="36.7577713541686534881591796875" lon="-118.4251007996499538421630859375">
        <ele>2801.60009765625</ele>
        <time>2021-06-24T23:57:12.000Z</time>
        <extensions>
          <ns3:TrackPointExtension>
            <ns3:atemp>27.0</ns3:atemp>
            <ns3:hr>113</ns3:hr>
          </ns3:TrackPointExtension>
        </extensions>
      </trkpt>
      <trkpt lat="36.75780563615262508392333984375" lon="-118.4251095168292522430419921875">
        <ele>2802</ele>
        <time>2021-06-24T23:57:17.000Z</time>
        <extensions>
          <ns3:TrackPointExtension>
            <ns3:atemp>27.0</ns3:atemp>
            <ns3:hr>115</ns3:hr>
          </ns3:TrackPointExtension>
        </extensions>
      </trkpt>
      <trkpt lat="36.75781016238033771514892578125" lon="-118.42511479742825031280517578125">
        <ele>2802.199951171875</ele>
        <time>2021-06-24T23:57:18.000Z</time>
        <extensions>
          <ns3:TrackPointExtension>
            <ns3:atemp>27.0</ns3:atemp>
            <ns3:hr>114</ns3:hr>
          </ns3:TrackPointExtension>
        </extensions>
      </trkpt>
      <trkpt lat="36.75780546851456165313720703125" lon="-118.4251246042549610137939453125">
        <ele>2802.60009765625</ele>
        <time>2021-06-24T23:57:20.000Z</time>
        <extensions>
          <ns3:TrackPointExtension>
            <ns3:atemp>27.0</ns3:atemp>
            <ns3:hr>115</ns3:hr>
          </ns3:TrackPointExtension>
        </extensions>
      </trkpt>
      <trkpt lat="36.7578125931322574615478515625" lon="-118.42514748685061931610107421875">
        <ele>2803.199951171875</ele>
        <time>2021-06-24T23:57:23.000Z</time>
        <extensions>
          <ns3:TrackPointExtension>
            <ns3:atemp>27.0</ns3:atemp>
            <ns3:hr>115</ns3:hr>
          </ns3:TrackPointExtension>
        </extensions>
      </trkpt>
      <trkpt lat="36.75782742910087108612060546875" lon="-118.4251531027257442474365234375">
        <ele>2803.60009765625</ele>
        <time>2021-06-24T23:57:26.000Z</time>
        <extensions>
          <ns3:TrackPointExtension>
            <ns3:atemp>27.0</ns3:atemp>
            <ns3:hr>114</ns3:hr>
          </ns3:TrackPointExtension>
        </extensions>
      </trkpt>
      <trkpt lat="36.75783698447048664093017578125" lon="-118.4251698665320873260498046875">
        <ele>2804.39990234375</ele>
        <time>2021-06-24T23:57:28.000Z</time>
        <extensions>
          <ns3:TrackPointExtension>
            <ns3:atemp>27.0</ns3:atemp>
            <ns3:hr>114</ns3:hr>
          </ns3:TrackPointExtension>
        </extensions>
      </trkpt>
      <trkpt lat="36.75785425119102001190185546875" lon="-118.42522225342690944671630859375">
        <ele>2804.60009765625</ele>
        <time>2021-06-24T23:57:32.000Z</time>
        <extensions>
          <ns3:TrackPointExtension>
            <ns3:atemp>27.0</ns3:atemp>
            <ns3:hr>115</ns3:hr>
          </ns3:TrackPointExtension>
        </extensions>
      </trkpt>
      <trkpt lat="36.75785542465746402740478515625" lon="-118.42523851431906223297119140625">
        <ele>2804.800048828125</ele>
        <time>2021-06-24T23:57:34.000Z</time>
        <extensions>
          <ns3:TrackPointExtension>
            <ns3:atemp>27.0</ns3:atemp>
            <ns3:hr>113</ns3:hr>
          </ns3:TrackPointExtension>
        </extensions>
      </trkpt>
      <trkpt lat="36.7578561790287494659423828125" lon="-118.4252781607210636138916015625">
        <ele>2804.800048828125</ele>
        <time>2021-06-24T23:57:41.000Z</time>
        <extensions>
          <ns3:TrackPointExtension>
            <ns3:atemp>27.0</ns3:atemp>
            <ns3:hr>114</ns3:hr>
          </ns3:TrackPointExtension>
        </extensions>
      </trkpt>
      <trkpt lat="36.75785609520971775054931640625" lon="-118.42527933418750762939453125">
        <ele>2804.800048828125</ele>
        <time>2021-06-24T23:57:42.000Z</time>
        <extensions>
          <ns3:TrackPointExtension>
            <ns3:atemp>28.0</ns3:atemp>
            <ns3:hr>116</ns3:hr>
          </ns3:TrackPointExtension>
        </extensions>
      </trkpt>
      <trkpt lat="36.757840253412723541259765625" lon="-118.425249494612216949462890625">
        <ele>2803.800048828125</ele>
        <time>2021-06-24T23:57:48.000Z</time>
        <extensions>
          <ns3:TrackPointExtension>
            <ns3:atemp>28.0</ns3:atemp>
            <ns3:hr>113</ns3:hr>
          </ns3:TrackPointExtension>
        </extensions>
      </trkpt>
      <trkpt lat="36.757840253412723541259765625" lon="-118.425249494612216949462890625">
        <ele>2804.199951171875</ele>
        <time>2021-06-24T23:57:49.000Z</time>
        <extensions>
          <ns3:TrackPointExtension>
            <ns3:atemp>28.0</ns3:atemp>
            <ns3:hr>114</ns3:hr>
          </ns3:TrackPointExtension>
        </extensions>
      </trkpt>
      <trkpt lat="36.7578360624611377716064453125" lon="-118.42525058425962924957275390625">
        <ele>2804.60009765625</ele>
        <time>2021-06-24T23:58:03.000Z</time>
        <extensions>
          <ns3:TrackPointExtension>
            <ns3:atemp>28.0</ns3:atemp>
            <ns3:hr>111</ns3:hr>
          </ns3:TrackPointExtension>
        </extensions>
      </trkpt>
      <trkpt lat="36.7578357271850109100341796875" lon="-118.4252593852579593658447265625">
        <ele>2805.60009765625</ele>
        <time>2021-06-24T23:58:07.000Z</time>
        <extensions>
          <ns3:TrackPointExtension>
            <ns3:atemp>28.0</ns3:atemp>
            <ns3:hr>108</ns3:hr>
          </ns3:TrackPointExtension>
        </extensions>
      </trkpt>
      <trkpt lat="36.7578357271850109100341796875" lon="-118.42526198364794254302978515625">
        <ele>2806</ele>
        <time>2021-06-24T23:58:12.000Z</time>
        <extensions>
          <ns3:TrackPointExtension>
            <ns3:atemp>28.0</ns3:atemp>
            <ns3:hr>111</ns3:hr>
          </ns3:TrackPointExtension>
        </extensions>
      </trkpt>
      <trkpt lat="36.75787906162440776824951171875" lon="-118.42523499391973018646240234375">
        <ele>2806.199951171875</ele>
        <time>2021-06-24T23:58:16.000Z</time>
        <extensions>
          <ns3:TrackPointExtension>
            <ns3:atemp>28.0</ns3:atemp>
            <ns3:hr>113</ns3:hr>
          </ns3:TrackPointExtension>
        </extensions>
      </trkpt>
      <trkpt lat="36.75795164890587329864501953125" lon="-118.4251742251217365264892578125">
        <ele>2806.60009765625</ele>
        <time>2021-06-24T23:58:24.000Z</time>
        <extensions>
          <ns3:TrackPointExtension>
            <ns3:atemp>28.0</ns3:atemp>
            <ns3:hr>110</ns3:hr>
          </ns3:TrackPointExtension>
        </extensions>
      </trkpt>
      <trkpt lat="36.75795600749552249908447265625" lon="-118.42516056261956691741943359375">
        <ele>2806.60009765625</ele>
        <time>2021-06-24T23:58:25.000Z</time>
        <extensions>
          <ns3:TrackPointExtension>
            <ns3:atemp>28.0</ns3:atemp>
            <ns3:hr>109</ns3:hr>
          </ns3:TrackPointExtension>
        </extensions>
      </trkpt>
      <trkpt lat="36.75795785151422023773193359375" lon="-118.425131477415561676025390625">
        <ele>2806.60009765625</ele>
        <time>2021-06-24T23:58:27.000Z</time>
        <extensions>
          <ns3:TrackPointExtension>
            <ns3:atemp>28.0</ns3:atemp>
            <ns3:hr>109</ns3:hr>
          </ns3:TrackPointExtension>
        </extensions>
      </trkpt>
      <trkpt lat="36.75797344185411930084228515625" lon="-118.4250907413661479949951171875">
        <ele>2807</ele>
        <time>2021-06-24T23:58:31.000Z</time>
        <extensions>
          <ns3:TrackPointExtension>
            <ns3:atemp>28.0</ns3:atemp>
            <ns3:hr>109</ns3:hr>
          </ns3:TrackPointExtension>
        </extensions>
      </trkpt>
      <trkpt lat="36.757983751595020294189453125" lon="-118.42505696229636669158935546875">
        <ele>2807.800048828125</ele>
        <time>2021-06-24T23:58:35.000Z</time>
        <extensions>
          <ns3:TrackPointExtension>
            <ns3:atemp>28.0</ns3:atemp>
            <ns3:hr>110</ns3:hr>
          </ns3:TrackPointExtension>
        </extensions>
      </trkpt>
      <trkpt lat="36.7579909600317478179931640625" lon="-118.425051681697368621826171875">
        <ele>2807.800048828125</ele>
        <time>2021-06-24T23:58:37.000Z</time>
        <extensions>
          <ns3:TrackPointExtension>
            <ns3:atemp>28.0</ns3:atemp>
            <ns3:hr>109</ns3:hr>
          </ns3:TrackPointExtension>
        </extensions>
      </trkpt>
      <trkpt lat="36.758003532886505126953125" lon="-118.42502628453075885772705078125">
        <ele>2808.800048828125</ele>
        <time>2021-06-24T23:58:42.000Z</time>
        <extensions>
          <ns3:TrackPointExtension>
            <ns3:atemp>28.0</ns3:atemp>
            <ns3:hr>109</ns3:hr>
          </ns3:TrackPointExtension>
        </extensions>
      </trkpt>
      <trkpt lat="36.75803278572857379913330078125" lon="-118.425018489360809326171875">
        <ele>2808.800048828125</ele>
        <time>2021-06-24T23:58:45.000Z</time>
        <extensions>
          <ns3:TrackPointExtension>
            <ns3:atemp>28.0</ns3:atemp>
            <ns3:hr>111</ns3:hr>
          </ns3:TrackPointExtension>
        </extensions>
      </trkpt>
      <trkpt lat="36.75803831778466701507568359375" lon="-118.4250010550022125244140625">
        <ele>2808.800048828125</ele>
        <time>2021-06-24T23:58:47.000Z</time>
        <extensions>
          <ns3:TrackPointExtension>
            <ns3:atemp>28.0</ns3:atemp>
            <ns3:hr>112</ns3:hr>
          </ns3:TrackPointExtension>
        </extensions>
      </trkpt>
      <trkpt lat="36.7580355517566204071044921875" lon="-118.4249801002442836761474609375">
        <ele>2809.199951171875</ele>
        <time>2021-06-24T23:58:49.000Z</time>
        <extensions>
          <ns3:TrackPointExtension>
            <ns3:atemp>28.0</ns3:atemp>
            <ns3:hr>114</ns3:hr>
          </ns3:TrackPointExtension>
        </extensions>
      </trkpt>
      <trkpt lat="36.75802993588149547576904296875" lon="-118.424930982291698455810546875">
        <ele>2809.800048828125</ele>
        <time>2021-06-24T23:58:54.000Z</time>
        <extensions>
          <ns3:TrackPointExtension>
            <ns3:atemp>28.0</ns3:atemp>
            <ns3:hr>114</ns3:hr>
          </ns3:TrackPointExtension>
        </extensions>
      </trkpt>
      <trkpt lat="36.75804301165044307708740234375" lon="-118.424918241798877716064453125">
        <ele>2810</ele>
        <time>2021-06-24T23:58:56.000Z</time>
        <extensions>
          <ns3:TrackPointExtension>
            <ns3:atemp>28.0</ns3:atemp>
            <ns3:hr>114</ns3:hr>
          </ns3:TrackPointExtension>
        </extensions>
      </trkpt>
      <trkpt lat="36.75805105827748775482177734375" lon="-118.424910195171833038330078125">
        <ele>2810.199951171875</ele>
        <time>2021-06-24T23:58:59.000Z</time>
        <extensions>
          <ns3:TrackPointExtension>
            <ns3:atemp>28.0</ns3:atemp>
            <ns3:hr>114</ns3:hr>
          </ns3:TrackPointExtension>
        </extensions>
      </trkpt>
      <trkpt lat="36.7580544948577880859375" lon="-118.42486032284796237945556640625">
        <ele>2811</ele>
        <time>2021-06-24T23:59:04.000Z</time>
        <extensions>
          <ns3:TrackPointExtension>
            <ns3:atemp>28.0</ns3:atemp>
            <ns3:hr>115</ns3:hr>
          </ns3:TrackPointExtension>
        </extensions>
      </trkpt>
      <trkpt lat="36.758064217865467071533203125" lon="-118.42480768449604511260986328125">
        <ele>2811.199951171875</ele>
        <time>2021-06-24T23:59:10.000Z</time>
        <extensions>
          <ns3:TrackPointExtension>
            <ns3:atemp>28.0</ns3:atemp>
            <ns3:hr>112</ns3:hr>
          </ns3:TrackPointExtension>
        </extensions>
      </trkpt>
      <trkpt lat="36.75806991755962371826171875" lon="-118.424802906811237335205078125">
        <ele>2811.60009765625</ele>
        <time>2021-06-24T23:59:11.000Z</time>
        <extensions>
          <ns3:TrackPointExtension>
            <ns3:atemp>28.0</ns3:atemp>
            <ns3:hr>112</ns3:hr>
          </ns3:TrackPointExtension>
        </extensions>
      </trkpt>
      <trkpt lat="36.758079640567302703857421875" lon="-118.4247812815010547637939453125">
        <ele>2812</ele>
        <time>2021-06-24T23:59:14.000Z</time>
        <extensions>
          <ns3:TrackPointExtension>
            <ns3:atemp>28.0</ns3:atemp>
            <ns3:hr>111</ns3:hr>
          </ns3:TrackPointExtension>
        </extensions>
      </trkpt>
      <trkpt lat="36.75808332860469818115234375" lon="-118.4247541241347789764404296875">
        <ele>2812.39990234375</ele>
        <time>2021-06-24T23:59:17.000Z</time>
        <extensions>
          <ns3:TrackPointExtension>
            <ns3:atemp>28.0</ns3:atemp>
            <ns3:hr>114</ns3:hr>
          </ns3:TrackPointExtension>
        </extensions>
      </trkpt>
      <trkpt lat="36.75806094892323017120361328125" lon="-118.42470626346766948699951171875">
        <ele>2813</ele>
        <time>2021-06-24T23:59:22.000Z</time>
        <extensions>
          <ns3:TrackPointExtension>
            <ns3:atemp>28.0</ns3:atemp>
            <ns3:hr>113</ns3:hr>
          </ns3:TrackPointExtension>
        </extensions>
      </trkpt>
      <trkpt lat="36.7580627091228961944580078125" lon="-118.42469687573611736297607421875">
        <ele>2813.39990234375</ele>
        <time>2021-06-24T23:59:24.000Z</time>
        <extensions>
          <ns3:TrackPointExtension>
            <ns3:atemp>28.0</ns3:atemp>
            <ns3:hr>115</ns3:hr>
          </ns3:TrackPointExtension>
        </extensions>
      </trkpt>
      <trkpt lat="36.758066229522228240966796875" lon="-118.424684219062328338623046875">
        <ele>2813.60009765625</ele>
        <time>2021-06-24T23:59:26.000Z</time>
        <extensions>
          <ns3:TrackPointExtension>
            <ns3:atemp>28.0</ns3:atemp>
            <ns3:hr>115</ns3:hr>
          </ns3:TrackPointExtension>
        </extensions>
      </trkpt>
      <trkpt lat="36.75808073021471500396728515625" lon="-118.42467675916850566864013671875">
        <ele>2814.199951171875</ele>
        <time>2021-06-24T23:59:29.000Z</time>
        <extensions>
          <ns3:TrackPointExtension>
            <ns3:atemp>28.0</ns3:atemp>
            <ns3:hr>116</ns3:hr>
          </ns3:TrackPointExtension>
        </extensions>
      </trkpt>
      <trkpt lat="36.75810872577130794525146484375" lon="-118.4246870689094066619873046875">
        <ele>2814.199951171875</ele>
        <time>2021-06-24T23:59:31.000Z</time>
        <extensions>
          <ns3:TrackPointExtension>
            <ns3:atemp>28.0</ns3:atemp>
            <ns3:hr>117</ns3:hr>
          </ns3:TrackPointExtension>
        </extensions>
      </trkpt>
      <trkpt lat="36.75811928696930408477783203125" lon="-118.424700312316417694091796875">
        <ele>2814.800048828125</ele>
        <time>2021-06-24T23:59:34.000Z</time>
        <extensions>
          <ns3:TrackPointExtension>
            <ns3:atemp>28.0</ns3:atemp>
            <ns3:hr>117</ns3:hr>
          </ns3:TrackPointExtension>
        </extensions>
      </trkpt>
      <trkpt lat="36.7581378109753131866455078125" lon="-118.4247112087905406951904296875">
        <ele>2815.60009765625</ele>
        <time>2021-06-24T23:59:40.000Z</time>
        <extensions>
          <ns3:TrackPointExtension>
            <ns3:atemp>28.0</ns3:atemp>
            <ns3:hr>115</ns3:hr>
          </ns3:TrackPointExtension>
        </extensions>
      </trkpt>
      <trkpt lat="36.75814694724977016448974609375" lon="-118.42470425181090831756591796875">
        <ele>2815.60009765625</ele>
        <time>2021-06-24T23:59:41.000Z</time>
        <extensions>
          <ns3:TrackPointExtension>
            <ns3:atemp>28.0</ns3:atemp>
            <ns3:hr>114</ns3:hr>
          </ns3:TrackPointExtension>
        </extensions>
      </trkpt>
      <trkpt lat="36.7581716738641262054443359375" lon="-118.424676172435283660888671875">
        <ele>2816.800048828125</ele>
        <time>2021-06-24T23:59:46.000Z</time>
        <extensions>
          <ns3:TrackPointExtension>
            <ns3:atemp>28.0</ns3:atemp>
            <ns3:hr>115</ns3:hr>
          </ns3:TrackPointExtension>
        </extensions>
      </trkpt>
      <trkpt lat="36.75820000469684600830078125" lon="-118.4246458299458026885986328125">
        <ele>2817.199951171875</ele>
        <time>2021-06-24T23:59:51.000Z</time>
        <extensions>
          <ns3:TrackPointExtension>
            <ns3:atemp>28.0</ns3:atemp>
            <ns3:hr>118</ns3:hr>
          </ns3:TrackPointExtension>
        </extensions>
      </trkpt>
      <trkpt lat="36.7582095600664615631103515625" lon="-118.4246136434376239776611328125">
        <ele>2818</ele>
        <time>2021-06-24T23:59:54.000Z</time>
        <extensions>
          <ns3:TrackPointExtension>
            <ns3:atemp>28.0</ns3:atemp>
            <ns3:hr>119</ns3:hr>
          </ns3:TrackPointExtension>
        </extensions>
      </trkpt>
      <trkpt lat="36.75822322256863117218017578125" lon="-118.42459780164062976837158203125">
        <ele>2818.199951171875</ele>
        <time>2021-06-24T23:59:56.000Z</time>
        <extensions>
          <ns3:TrackPointExtension>
            <ns3:atemp>28.0</ns3:atemp>
            <ns3:hr>120</ns3:hr>
          </ns3:TrackPointExtension>
        </extensions>
      </trkpt>
      <trkpt lat="36.75823914818465709686279296875" lon="-118.42452420853078365325927734375">
        <ele>2818.60009765625</ele>
        <time>2021-06-25T00:00:02.000Z</time>
        <extensions>
          <ns3:TrackPointExtension>
            <ns3:atemp>28.0</ns3:atemp>
            <ns3:hr>117</ns3:hr>
          </ns3:TrackPointExtension>
        </extensions>
      </trkpt>
      <trkpt lat="36.758217774331569671630859375" lon="-118.4244315885007381439208984375">
        <ele>2818.800048828125</ele>
        <time>2021-06-25T00:00:08.000Z</time>
        <extensions>
          <ns3:TrackPointExtension>
            <ns3:atemp>28.0</ns3:atemp>
            <ns3:hr>115</ns3:hr>
          </ns3:TrackPointExtension>
        </extensions>
      </trkpt>
      <trkpt lat="36.75821484066545963287353515625" lon="-118.424419350922107696533203125">
        <ele>2819</ele>
        <time>2021-06-25T00:00:09.000Z</time>
        <extensions>
          <ns3:TrackPointExtension>
            <ns3:atemp>28.0</ns3:atemp>
            <ns3:hr>115</ns3:hr>
          </ns3:TrackPointExtension>
        </extensions>
      </trkpt>
      <trkpt lat="36.7582041956484317779541015625" lon="-118.42435908503830432891845703125">
        <ele>2819.199951171875</ele>
        <time>2021-06-25T00:00:14.000Z</time>
        <extensions>
          <ns3:TrackPointExtension>
            <ns3:atemp>28.0</ns3:atemp>
            <ns3:hr>115</ns3:hr>
          </ns3:TrackPointExtension>
        </extensions>
      </trkpt>
      <trkpt lat="36.75818952731788158416748046875" lon="-118.42427610419690608978271484375">
        <ele>2819.60009765625</ele>
        <time>2021-06-25T00:00:21.000Z</time>
        <extensions>
          <ns3:TrackPointExtension>
            <ns3:atemp>28.0</ns3:atemp>
            <ns3:hr>118</ns3:hr>
          </ns3:TrackPointExtension>
        </extensions>
      </trkpt>
      <trkpt lat="36.7581780441105365753173828125" lon="-118.42425749637186527252197265625">
        <ele>2819.60009765625</ele>
        <time>2021-06-25T00:00:22.000Z</time>
        <extensions>
          <ns3:TrackPointExtension>
            <ns3:atemp>28.0</ns3:atemp>
            <ns3:hr>118</ns3:hr>
          </ns3:TrackPointExtension>
        </extensions>
      </trkpt>
      <trkpt lat="36.7582041956484317779541015625" lon="-118.42421541921794414520263671875">
        <ele>2819.60009765625</ele>
        <time>2021-06-25T00:00:27.000Z</time>
        <extensions>
          <ns3:TrackPointExtension>
            <ns3:atemp>28.0</ns3:atemp>
            <ns3:hr>118</ns3:hr>
          </ns3:TrackPointExtension>
        </extensions>
      </trkpt>
      <trkpt lat="36.758203022181987762451171875" lon="-118.42418373562395572662353515625">
        <ele>2820</ele>
        <time>2021-06-25T00:00:30.000Z</time>
        <extensions>
          <ns3:TrackPointExtension>
            <ns3:atemp>28.0</ns3:atemp>
            <ns3:hr>121</ns3:hr>
          </ns3:TrackPointExtension>
        </extensions>
      </trkpt>
      <trkpt lat="36.75820536911487579345703125" lon="-118.42415548861026763916015625">
        <ele>2820.60009765625</ele>
        <time>2021-06-25T00:00:33.000Z</time>
        <extensions>
          <ns3:TrackPointExtension>
            <ns3:atemp>28.0</ns3:atemp>
            <ns3:hr>120</ns3:hr>
          </ns3:TrackPointExtension>
        </extensions>
      </trkpt>
      <trkpt lat="36.7582202889025211334228515625" lon="-118.4241023473441600799560546875">
        <ele>2820.60009765625</ele>
        <time>2021-06-25T00:00:38.000Z</time>
        <extensions>
          <ns3:TrackPointExtension>
            <ns3:atemp>28.0</ns3:atemp>
            <ns3:hr>118</ns3:hr>
          </ns3:TrackPointExtension>
        </extensions>
      </trkpt>
      <trkpt lat="36.758215092122554779052734375" lon="-118.42407091520726680755615234375">
        <ele>2820.60009765625</ele>
        <time>2021-06-25T00:00:40.000Z</time>
        <extensions>
          <ns3:TrackPointExtension>
            <ns3:atemp>28.0</ns3:atemp>
            <ns3:hr>117</ns3:hr>
          </ns3:TrackPointExtension>
        </extensions>
      </trkpt>
      <trkpt lat="36.7581730149686336517333984375" lon="-118.4239482879638671875">
        <ele>2821</ele>
        <time>2021-06-25T00:00:49.000Z</time>
        <extensions>
          <ns3:TrackPointExtension>
            <ns3:atemp>28.0</ns3:atemp>
            <ns3:hr>118</ns3:hr>
          </ns3:TrackPointExtension>
        </extensions>
      </trkpt>
      <trkpt lat="36.75816823728382587432861328125" lon="-118.42392171733081340789794921875">
        <ele>2821.199951171875</ele>
        <time>2021-06-25T00:00:51.000Z</time>
        <extensions>
          <ns3:TrackPointExtension>
            <ns3:atemp>28.0</ns3:atemp>
            <ns3:hr>118</ns3:hr>
          </ns3:TrackPointExtension>
        </extensions>
      </trkpt>
      <trkpt lat="36.75817427225410938262939453125" lon="-118.42385684140026569366455078125">
        <ele>2822</ele>
        <time>2021-06-25T00:00:57.000Z</time>
        <extensions>
          <ns3:TrackPointExtension>
            <ns3:atemp>28.0</ns3:atemp>
            <ns3:hr>117</ns3:hr>
          </ns3:TrackPointExtension>
        </extensions>
      </trkpt>
      <trkpt lat="36.75817058421671390533447265625" lon="-118.42381090857088565826416015625">
        <ele>2822.199951171875</ele>
        <time>2021-06-25T00:01:01.000Z</time>
        <extensions>
          <ns3:TrackPointExtension>
            <ns3:atemp>28.0</ns3:atemp>
            <ns3:hr>119</ns3:hr>
          </ns3:TrackPointExtension>
        </extensions>
      </trkpt>
      <trkpt lat="36.75816102884709835052490234375" lon="-118.423760868608951568603515625">
        <ele>2822.800048828125</ele>
        <time>2021-06-25T00:01:05.000Z</time>
        <extensions>
          <ns3:TrackPointExtension>
            <ns3:atemp>28.0</ns3:atemp>
            <ns3:hr>116</ns3:hr>
          </ns3:TrackPointExtension>
        </extensions>
      </trkpt>
      <trkpt lat="36.7581658065319061279296875" lon="-118.4237436018884181976318359375">
        <ele>2823</ele>
        <time>2021-06-25T00:01:07.000Z</time>
        <extensions>
          <ns3:TrackPointExtension>
            <ns3:atemp>28.0</ns3:atemp>
            <ns3:hr>115</ns3:hr>
          </ns3:TrackPointExtension>
        </extensions>
      </trkpt>
      <trkpt lat="36.75816387869417667388916015625" lon="-118.423732034862041473388671875">
        <ele>2823.199951171875</ele>
        <time>2021-06-25T00:01:08.000Z</time>
        <extensions>
          <ns3:TrackPointExtension>
            <ns3:atemp>28.0</ns3:atemp>
            <ns3:hr>114</ns3:hr>
          </ns3:TrackPointExtension>
        </extensions>
      </trkpt>
      <trkpt lat="36.75816153176128864288330078125" lon="-118.42367000877857208251953125">
        <ele>2824.800048828125</ele>
        <time>2021-06-25T00:01:14.000Z</time>
        <extensions>
          <ns3:TrackPointExtension>
            <ns3:atemp>28.0</ns3:atemp>
            <ns3:hr>114</ns3:hr>
          </ns3:TrackPointExtension>
        </extensions>
      </trkpt>
      <trkpt lat="36.75815264694392681121826171875" lon="-118.423584513366222381591796875">
        <ele>2826</ele>
        <time>2021-06-25T00:01:22.000Z</time>
        <extensions>
          <ns3:TrackPointExtension>
            <ns3:atemp>28.0</ns3:atemp>
            <ns3:hr>114</ns3:hr>
          </ns3:TrackPointExtension>
        </extensions>
      </trkpt>
      <trkpt lat="36.75816672854125499725341796875" lon="-118.4235736168920993804931640625">
        <ele>2826.199951171875</ele>
        <time>2021-06-25T00:01:24.000Z</time>
        <extensions>
          <ns3:TrackPointExtension>
            <ns3:atemp>28.0</ns3:atemp>
            <ns3:hr>115</ns3:hr>
          </ns3:TrackPointExtension>
        </extensions>
      </trkpt>
      <trkpt lat="36.75817075185477733612060546875" lon="-118.42353128828108310699462890625">
        <ele>2827.199951171875</ele>
        <time>2021-06-25T00:01:29.000Z</time>
        <extensions>
          <ns3:TrackPointExtension>
            <ns3:atemp>28.0</ns3:atemp>
            <ns3:hr>116</ns3:hr>
          </ns3:TrackPointExtension>
        </extensions>
      </trkpt>
      <trkpt lat="36.758164800703525543212890625" lon="-118.4234921447932720184326171875">
        <ele>2827.199951171875</ele>
        <time>2021-06-25T00:01:32.000Z</time>
        <extensions>
          <ns3:TrackPointExtension>
            <ns3:atemp>28.0</ns3:atemp>
            <ns3:hr>116</ns3:hr>
          </ns3:TrackPointExtension>
        </extensions>
      </trkpt>
      <trkpt lat="36.75816915929317474365234375" lon="-118.42347462661564350128173828125">
        <ele>2827.39990234375</ele>
        <time>2021-06-25T00:01:37.000Z</time>
        <extensions>
          <ns3:TrackPointExtension>
            <ns3:atemp>28.0</ns3:atemp>
            <ns3:hr>113</ns3:hr>
          </ns3:TrackPointExtension>
        </extensions>
      </trkpt>
      <trkpt lat="36.7581974901258945465087890625" lon="-118.423527516424655914306640625">
        <ele>2828.39990234375</ele>
        <time>2021-06-25T00:01:44.000Z</time>
        <extensions>
          <ns3:TrackPointExtension>
            <ns3:atemp>28.0</ns3:atemp>
            <ns3:hr>112</ns3:hr>
          </ns3:TrackPointExtension>
        </extensions>
      </trkpt>
      <trkpt lat="36.7582256533205509185791015625" lon="-118.4235957451164722442626953125">
        <ele>2829.60009765625</ele>
        <time>2021-06-25T00:01:51.000Z</time>
        <extensions>
          <ns3:TrackPointExtension>
            <ns3:atemp>28.0</ns3:atemp>
            <ns3:hr>111</ns3:hr>
          </ns3:TrackPointExtension>
        </extensions>
      </trkpt>
      <trkpt lat="36.75824652425944805145263671875" lon="-118.4236349724233150482177734375">
        <ele>2829.800048828125</ele>
        <time>2021-06-25T00:01:57.000Z</time>
        <extensions>
          <ns3:TrackPointExtension>
            <ns3:atemp>28.0</ns3:atemp>
            <ns3:hr>112</ns3:hr>
          </ns3:TrackPointExtension>
        </extensions>
      </trkpt>
      <trkpt lat="36.75827183760702610015869140625" lon="-118.42360563576221466064453125">
        <ele>2830.800048828125</ele>
        <time>2021-06-25T00:02:01.000Z</time>
        <extensions>
          <ns3:TrackPointExtension>
            <ns3:atemp>28.0</ns3:atemp>
            <ns3:hr>113</ns3:hr>
          </ns3:TrackPointExtension>
        </extensions>
      </trkpt>
      <trkpt lat="36.7582890205085277557373046875" lon="-118.4235856868326663970947265625">
        <ele>2831</ele>
        <time>2021-06-25T00:02:03.000Z</time>
        <extensions>
          <ns3:TrackPointExtension>
            <ns3:atemp>28.0</ns3:atemp>
            <ns3:hr>113</ns3:hr>
          </ns3:TrackPointExtension>
        </extensions>
      </trkpt>
      <trkpt lat="36.75827619619667530059814453125" lon="-118.42350999824702739715576171875">
        <ele>2831.39990234375</ele>
        <time>2021-06-25T00:02:09.000Z</time>
        <extensions>
          <ns3:TrackPointExtension>
            <ns3:atemp>28.0</ns3:atemp>
            <ns3:hr>114</ns3:hr>
          </ns3:TrackPointExtension>
        </extensions>
      </trkpt>
      <trkpt lat="36.75828608684241771697998046875" lon="-118.42350228689610958099365234375">
        <ele>2831.800048828125</ele>
        <time>2021-06-25T00:02:11.000Z</time>
        <extensions>
          <ns3:TrackPointExtension>
            <ns3:atemp>28.0</ns3:atemp>
            <ns3:hr>115</ns3:hr>
          </ns3:TrackPointExtension>
        </extensions>
      </trkpt>
      <trkpt lat="36.75830016843974590301513671875" lon="-118.423458449542522430419921875">
        <ele>2832.39990234375</ele>
        <time>2021-06-25T00:02:17.000Z</time>
        <extensions>
          <ns3:TrackPointExtension>
            <ns3:atemp>28.0</ns3:atemp>
            <ns3:hr>115</ns3:hr>
          </ns3:TrackPointExtension>
        </extensions>
      </trkpt>
      <trkpt lat="36.7583010904490947723388671875" lon="-118.42343875207006931304931640625">
        <ele>2833</ele>
        <time>2021-06-25T00:02:19.000Z</time>
        <extensions>
          <ns3:TrackPointExtension>
            <ns3:atemp>28.0</ns3:atemp>
            <ns3:hr>114</ns3:hr>
          </ns3:TrackPointExtension>
        </extensions>
      </trkpt>
      <trkpt lat="36.75832497887313365936279296875" lon="-118.423399440944194793701171875">
        <ele>2833.800048828125</ele>
        <time>2021-06-25T00:02:23.000Z</time>
        <extensions>
          <ns3:TrackPointExtension>
            <ns3:atemp>28.0</ns3:atemp>
            <ns3:hr>114</ns3:hr>
          </ns3:TrackPointExtension>
        </extensions>
      </trkpt>
      <trkpt lat="36.7583321034908294677734375" lon="-118.42337940819561481475830078125">
        <ele>2834.199951171875</ele>
        <time>2021-06-25T00:02:25.000Z</time>
        <extensions>
          <ns3:TrackPointExtension>
            <ns3:atemp>28.0</ns3:atemp>
            <ns3:hr>114</ns3:hr>
          </ns3:TrackPointExtension>
        </extensions>
      </trkpt>
      <trkpt lat="36.7583161778748035430908203125" lon="-118.42331754975020885467529296875">
        <ele>2835.199951171875</ele>
        <time>2021-06-25T00:02:30.000Z</time>
        <extensions>
          <ns3:TrackPointExtension>
            <ns3:atemp>28.0</ns3:atemp>
            <ns3:hr>114</ns3:hr>
          </ns3:TrackPointExtension>
        </extensions>
      </trkpt>
      <trkpt lat="36.758311651647090911865234375" lon="-118.42326273210346698760986328125">
        <ele>2835.199951171875</ele>
        <time>2021-06-25T00:02:34.000Z</time>
        <extensions>
          <ns3:TrackPointExtension>
            <ns3:atemp>28.0</ns3:atemp>
            <ns3:hr>111</ns3:hr>
          </ns3:TrackPointExtension>
        </extensions>
      </trkpt>
      <trkpt lat="36.7583423294126987457275390625" lon="-118.42324513010680675506591796875">
        <ele>2835</ele>
        <time>2021-06-25T00:02:37.000Z</time>
        <extensions>
          <ns3:TrackPointExtension>
            <ns3:atemp>28.0</ns3:atemp>
            <ns3:hr>110</ns3:hr>
          </ns3:TrackPointExtension>
        </extensions>
      </trkpt>
      <trkpt lat="36.7583406530320644378662109375" lon="-118.4232173860073089599609375">
        <ele>2835</ele>
        <time>2021-06-25T00:02:41.000Z</time>
        <extensions>
          <ns3:TrackPointExtension>
            <ns3:atemp>28.0</ns3:atemp>
            <ns3:hr>107</ns3:hr>
          </ns3:TrackPointExtension>
        </extensions>
      </trkpt>
      <trkpt lat="36.75833009183406829833984375" lon="-118.42321336269378662109375">
        <ele>2835.199951171875</ele>
        <time>2021-06-25T00:02:44.000Z</time>
        <extensions>
          <ns3:TrackPointExtension>
            <ns3:atemp>28.0</ns3:atemp>
            <ns3:hr>108</ns3:hr>
          </ns3:TrackPointExtension>
        </extensions>
      </trkpt>
      <trkpt lat="36.75832732580602169036865234375" lon="-118.42321059666574001312255859375">
        <ele>2835.39990234375</ele>
        <time>2021-06-25T00:02:45.000Z</time>
        <extensions>
          <ns3:TrackPointExtension>
            <ns3:atemp>28.0</ns3:atemp>
            <ns3:hr>107</ns3:hr>
          </ns3:TrackPointExtension>
        </extensions>
      </trkpt>
      <trkpt lat="36.7583235539495944976806640625" lon="-118.42320892028510570526123046875">
        <ele>2835.39990234375</ele>
        <time>2021-06-25T00:02:49.000Z</time>
        <extensions>
          <ns3:TrackPointExtension>
            <ns3:atemp>28.0</ns3:atemp>
            <ns3:hr>110</ns3:hr>
          </ns3:TrackPointExtension>
        </extensions>
      </trkpt>
      <trkpt lat="36.758323721587657928466796875" lon="-118.42321059666574001312255859375">
        <ele>2835.199951171875</ele>
        <time>2021-06-25T00:02:51.000Z</time>
        <extensions>
          <ns3:TrackPointExtension>
            <ns3:atemp>28.0</ns3:atemp>
            <ns3:hr>111</ns3:hr>
          </ns3:TrackPointExtension>
        </extensions>
      </trkpt>
      <trkpt lat="36.75832129083573818206787109375" lon="-118.42321059666574001312255859375">
        <ele>2835.39990234375</ele>
        <time>2021-06-25T00:03:03.000Z</time>
        <extensions>
          <ns3:TrackPointExtension>
            <ns3:atemp>28.0</ns3:atemp>
            <ns3:hr>110</ns3:hr>
          </ns3:TrackPointExtension>
        </extensions>
      </trkpt>
      <trkpt lat="36.7583148367702960968017578125" lon="-118.423210345208644866943359375">
        <ele>2835.39990234375</ele>
        <time>2021-06-25T00:03:09.000Z</time>
        <extensions>
          <ns3:TrackPointExtension>
            <ns3:atemp>27.0</ns3:atemp>
            <ns3:hr>113</ns3:hr>
          </ns3:TrackPointExtension>
        </extensions>
      </trkpt>
      <trkpt lat="36.7582896910607814788818359375" lon="-118.42320573516190052032470703125">
        <ele>2835.60009765625</ele>
        <time>2021-06-25T00:03:21.000Z</time>
        <extensions>
          <ns3:TrackPointExtension>
            <ns3:atemp>27.0</ns3:atemp>
            <ns3:hr>109</ns3:hr>
          </ns3:TrackPointExtension>
        </extensions>
      </trkpt>
      <trkpt lat="36.7582886852324008941650390625" lon="-118.423194587230682373046875">
        <ele>2836</ele>
        <time>2021-06-25T00:03:23.000Z</time>
        <extensions>
          <ns3:TrackPointExtension>
            <ns3:atemp>27.0</ns3:atemp>
            <ns3:hr>106</ns3:hr>
          </ns3:TrackPointExtension>
        </extensions>
      </trkpt>
      <trkpt lat="36.7582685686647891998291015625" lon="-118.4231743030250072479248046875">
        <ele>2835.60009765625</ele>
        <time>2021-06-25T00:03:27.000Z</time>
        <extensions>
          <ns3:TrackPointExtension>
            <ns3:atemp>27.0</ns3:atemp>
            <ns3:hr>103</ns3:hr>
          </ns3:TrackPointExtension>
        </extensions>
      </trkpt>
      <trkpt lat="36.7582635395228862762451171875" lon="-118.42316851951181888580322265625">
        <ele>2835.800048828125</ele>
        <time>2021-06-25T00:03:32.000Z</time>
        <extensions>
          <ns3:TrackPointExtension>
            <ns3:atemp>27.0</ns3:atemp>
            <ns3:hr>102</ns3:hr>
          </ns3:TrackPointExtension>
        </extensions>
      </trkpt>
      <trkpt lat="36.75826261751353740692138671875" lon="-118.42316449619829654693603515625">
        <ele>2836.60009765625</ele>
        <time>2021-06-25T00:03:39.000Z</time>
        <extensions>
          <ns3:TrackPointExtension>
            <ns3:atemp>27.0</ns3:atemp>
            <ns3:hr>102</ns3:hr>
          </ns3:TrackPointExtension>
        </extensions>
      </trkpt>
      <trkpt lat="36.75826446153223514556884765625" lon="-118.42316600494086742401123046875">
        <ele>2836.800048828125</ele>
        <time>2021-06-25T00:03:47.000Z</time>
        <extensions>
          <ns3:TrackPointExtension>
            <ns3:atemp>27.0</ns3:atemp>
            <ns3:hr>101</ns3:hr>
          </ns3:TrackPointExtension>
        </extensions>
      </trkpt>
      <trkpt lat="36.75825976766645908355712890625" lon="-118.42316600494086742401123046875">
        <ele>2837</ele>
        <time>2021-06-25T00:03:50.000Z</time>
        <extensions>
          <ns3:TrackPointExtension>
            <ns3:atemp>26.0</ns3:atemp>
            <ns3:hr>98</ns3:hr>
          </ns3:TrackPointExtension>
        </extensions>
      </trkpt>
      <trkpt lat="36.7582648806273937225341796875" lon="-118.42317488975822925567626953125">
        <ele>2837.199951171875</ele>
        <time>2021-06-25T00:03:57.000Z</time>
        <extensions>
          <ns3:TrackPointExtension>
            <ns3:atemp>26.0</ns3:atemp>
            <ns3:hr>95</ns3:hr>
          </ns3:TrackPointExtension>
        </extensions>
      </trkpt>
      <trkpt lat="36.7582690715789794921875" lon="-118.42317556031048297882080078125">
        <ele>2837.199951171875</ele>
        <time>2021-06-25T00:04:00.000Z</time>
        <extensions>
          <ns3:TrackPointExtension>
            <ns3:atemp>26.0</ns3:atemp>
            <ns3:hr>92</ns3:hr>
          </ns3:TrackPointExtension>
        </extensions>
      </trkpt>
      <trkpt lat="36.75827133469283580780029296875" lon="-118.42317572794854640960693359375">
        <ele>2837.199951171875</ele>
        <time>2021-06-25T00:04:02.000Z</time>
        <extensions>
          <ns3:TrackPointExtension>
            <ns3:atemp>26.0</ns3:atemp>
            <ns3:hr>89</ns3:hr>
          </ns3:TrackPointExtension>
        </extensions>
      </trkpt>
      <trkpt lat="36.7582323588430881500244140625" lon="-118.4232044778764247894287109375">
        <ele>2836.60009765625</ele>
        <time>2021-06-25T00:04:32.000Z</time>
        <extensions>
          <ns3:TrackPointExtension>
            <ns3:atemp>27.0</ns3:atemp>
            <ns3:hr>86</ns3:hr>
          </ns3:TrackPointExtension>
        </extensions>
      </trkpt>
      <trkpt lat="36.7582119069993495941162109375" lon="-118.42320154421031475067138671875">
        <ele>2836.39990234375</ele>
        <time>2021-06-25T00:04:54.000Z</time>
        <extensions>
          <ns3:TrackPointExtension>
            <ns3:atemp>27.0</ns3:atemp>
            <ns3:hr>89</ns3:hr>
          </ns3:TrackPointExtension>
        </extensions>
      </trkpt>
      <trkpt lat="36.75822825171053409576416015625" lon="-118.42320322059094905853271484375">
        <ele>2837</ele>
        <time>2021-06-25T00:05:04.000Z</time>
        <extensions>
          <ns3:TrackPointExtension>
            <ns3:atemp>26.0</ns3:atemp>
            <ns3:hr>86</ns3:hr>
          </ns3:TrackPointExtension>
        </extensions>
      </trkpt>
      <trkpt lat="36.7582575045526027679443359375" lon="-118.42324429191648960113525390625">
        <ele>2837.60009765625</ele>
        <time>2021-06-25T00:05:24.000Z</time>
        <extensions>
          <ns3:TrackPointExtension>
            <ns3:atemp>26.0</ns3:atemp>
            <ns3:hr>85</ns3:hr>
          </ns3:TrackPointExtension>
        </extensions>
      </trkpt>
      <trkpt lat="36.75827166996896266937255859375" lon="-118.42324345372617244720458984375">
        <ele>2838.39990234375</ele>
        <time>2021-06-25T00:05:35.000Z</time>
        <extensions>
          <ns3:TrackPointExtension>
            <ns3:atemp>26.0</ns3:atemp>
            <ns3:hr>81</ns3:hr>
          </ns3:TrackPointExtension>
        </extensions>
      </trkpt>
      <trkpt lat="36.75827234052121639251708984375" lon="-118.423240184783935546875">
        <ele>2838.199951171875</ele>
        <time>2021-06-25T00:05:39.000Z</time>
        <extensions>
          <ns3:TrackPointExtension>
            <ns3:atemp>26.0</ns3:atemp>
            <ns3:hr>78</ns3:hr>
          </ns3:TrackPointExtension>
        </extensions>
      </trkpt>
      <trkpt lat="36.7582725919783115386962890625" lon="-118.4232349880039691925048828125">
        <ele>2838.60009765625</ele>
        <time>2021-06-25T00:05:43.000Z</time>
        <extensions>
          <ns3:TrackPointExtension>
            <ns3:atemp>26.0</ns3:atemp>
            <ns3:hr>77</ns3:hr>
          </ns3:TrackPointExtension>
        </extensions>
      </trkpt>
      <trkpt lat="36.75830150954425334930419921875" lon="-118.4231476485729217529296875">
        <ele>2839.39990234375</ele>
        <time>2021-06-25T00:05:53.000Z</time>
        <extensions>
          <ns3:TrackPointExtension>
            <ns3:atemp>26.0</ns3:atemp>
            <ns3:hr>77</ns3:hr>
          </ns3:TrackPointExtension>
        </extensions>
      </trkpt>
      <trkpt lat="36.7583124898374080657958984375" lon="-118.423111103475093841552734375">
        <ele>2839.800048828125</ele>
        <time>2021-06-25T00:05:55.000Z</time>
        <extensions>
          <ns3:TrackPointExtension>
            <ns3:atemp>26.0</ns3:atemp>
            <ns3:hr>78</ns3:hr>
          </ns3:TrackPointExtension>
        </extensions>
      </trkpt>
      <trkpt lat="36.75831709988415241241455078125" lon="-118.4230911545455455780029296875">
        <ele>2839.800048828125</ele>
        <time>2021-06-25T00:05:56.000Z</time>
        <extensions>
          <ns3:TrackPointExtension>
            <ns3:atemp>26.0</ns3:atemp>
            <ns3:hr>78</ns3:hr>
          </ns3:TrackPointExtension>
        </extensions>
      </trkpt>
      <trkpt lat="36.75834677182137966156005859375" lon="-118.4230318106710910797119140625">
        <ele>2840.199951171875</ele>
        <time>2021-06-25T00:05:59.000Z</time>
        <extensions>
          <ns3:TrackPointExtension>
            <ns3:atemp>26.0</ns3:atemp>
            <ns3:hr>78</ns3:hr>
          </ns3:TrackPointExtension>
        </extensions>
      </trkpt>
      <trkpt lat="36.75835163332521915435791015625" lon="-118.423025943338871002197265625">
        <ele>2840.199951171875</ele>
        <time>2021-06-25T00:06:00.000Z</time>
        <extensions>
          <ns3:TrackPointExtension>
            <ns3:atemp>26.0</ns3:atemp>
            <ns3:hr>80</ns3:hr>
          </ns3:TrackPointExtension>
        </extensions>
      </trkpt>
      <trkpt lat="36.75836051814258098602294921875" lon="-118.42301177792251110076904296875">
        <ele>2840.60009765625</ele>
        <time>2021-06-25T00:06:03.000Z</time>
        <extensions>
          <ns3:TrackPointExtension>
            <ns3:atemp>26.0</ns3:atemp>
            <ns3:hr>83</ns3:hr>
          </ns3:TrackPointExtension>
        </extensions>
      </trkpt>
      <trkpt lat="36.75837761722505092620849609375" lon="-118.4229671023786067962646484375">
        <ele>2840.800048828125</ele>
        <time>2021-06-25T00:06:06.000Z</time>
        <extensions>
          <ns3:TrackPointExtension>
            <ns3:atemp>26.0</ns3:atemp>
            <ns3:hr>84</ns3:hr>
          </ns3:TrackPointExtension>
        </extensions>
      </trkpt>
      <trkpt lat="36.75838105380535125732421875" lon="-118.42295561917126178741455078125">
        <ele>2841.199951171875</ele>
        <time>2021-06-25T00:06:07.000Z</time>
        <extensions>
          <ns3:TrackPointExtension>
            <ns3:atemp>26.0</ns3:atemp>
            <ns3:hr>85</ns3:hr>
          </ns3:TrackPointExtension>
        </extensions>
      </trkpt>
      <trkpt lat="36.75839253701269626617431640625" lon="-118.422937095165252685546875">
        <ele>2841.39990234375</ele>
        <time>2021-06-25T00:06:09.000Z</time>
        <extensions>
          <ns3:TrackPointExtension>
            <ns3:atemp>26.0</ns3:atemp>
            <ns3:hr>88</ns3:hr>
          </ns3:TrackPointExtension>
        </extensions>
      </trkpt>
      <trkpt lat="36.75839656032621860504150390625" lon="-118.4229225106537342071533203125">
        <ele>2841.60009765625</ele>
        <time>2021-06-25T00:06:11.000Z</time>
        <extensions>
          <ns3:TrackPointExtension>
            <ns3:atemp>26.0</ns3:atemp>
            <ns3:hr>92</ns3:hr>
          </ns3:TrackPointExtension>
        </extensions>
      </trkpt>
      <trkpt lat="36.75840117037296295166015625" lon="-118.4228982031345367431640625">
        <ele>2841.800048828125</ele>
        <time>2021-06-25T00:06:13.000Z</time>
        <extensions>
          <ns3:TrackPointExtension>
            <ns3:atemp>26.0</ns3:atemp>
            <ns3:hr>95</ns3:hr>
          </ns3:TrackPointExtension>
        </extensions>
      </trkpt>
      <trkpt lat="36.758405528962612152099609375" lon="-118.42288956977427005767822265625">
        <ele>2842</ele>
        <time>2021-06-25T00:06:14.000Z</time>
        <extensions>
          <ns3:TrackPointExtension>
            <ns3:atemp>26.0</ns3:atemp>
            <ns3:hr>98</ns3:hr>
          </ns3:TrackPointExtension>
        </extensions>
      </trkpt>
      <trkpt lat="36.75840125419199466705322265625" lon="-118.42287071049213409423828125">
        <ele>2842.60009765625</ele>
        <time>2021-06-25T00:06:16.000Z</time>
        <extensions>
          <ns3:TrackPointExtension>
            <ns3:atemp>26.0</ns3:atemp>
            <ns3:hr>101</ns3:hr>
          </ns3:TrackPointExtension>
        </extensions>
      </trkpt>
      <trkpt lat="36.75840091891586780548095703125" lon="-118.4228624962270259857177734375">
        <ele>2842.800048828125</ele>
        <time>2021-06-25T00:06:17.000Z</time>
        <extensions>
          <ns3:TrackPointExtension>
            <ns3:atemp>26.0</ns3:atemp>
            <ns3:hr>102</ns3:hr>
          </ns3:TrackPointExtension>
        </extensions>
      </trkpt>
      <trkpt lat="36.75840242765843868255615234375" lon="-118.4228303097188472747802734375">
        <ele>2843</ele>
        <time>2021-06-25T00:06:20.000Z</time>
        <extensions>
          <ns3:TrackPointExtension>
            <ns3:atemp>26.0</ns3:atemp>
            <ns3:hr>105</ns3:hr>
          </ns3:TrackPointExtension>
        </extensions>
      </trkpt>
      <trkpt lat="36.75840787589550018310546875" lon="-118.42281974852085113525390625">
        <ele>2843.199951171875</ele>
        <time>2021-06-25T00:06:22.000Z</time>
        <extensions>
          <ns3:TrackPointExtension>
            <ns3:atemp>26.0</ns3:atemp>
            <ns3:hr>107</ns3:hr>
          </ns3:TrackPointExtension>
        </extensions>
      </trkpt>
      <trkpt lat="36.75841013900935649871826171875" lon="-118.4227981232106685638427734375">
        <ele>2843.39990234375</ele>
        <time>2021-06-25T00:06:24.000Z</time>
        <extensions>
          <ns3:TrackPointExtension>
            <ns3:atemp>26.0</ns3:atemp>
            <ns3:hr>109</ns3:hr>
          </ns3:TrackPointExtension>
        </extensions>
      </trkpt>
      <trkpt lat="36.758416257798671722412109375" lon="-118.4227144718170166015625">
        <ele>2843.800048828125</ele>
        <time>2021-06-25T00:06:34.000Z</time>
        <extensions>
          <ns3:TrackPointExtension>
            <ns3:atemp>26.0</ns3:atemp>
            <ns3:hr>111</ns3:hr>
          </ns3:TrackPointExtension>
        </extensions>
      </trkpt>
      <trkpt lat="36.758420281112194061279296875" lon="-118.422724865376949310302734375">
        <ele>2843.800048828125</ele>
        <time>2021-06-25T00:06:36.000Z</time>
        <extensions>
          <ns3:TrackPointExtension>
            <ns3:atemp>26.0</ns3:atemp>
            <ns3:hr>110</ns3:hr>
          </ns3:TrackPointExtension>
        </extensions>
      </trkpt>
      <trkpt lat="36.7584191076457500457763671875" lon="-118.422728218138217926025390625">
        <ele>2844.60009765625</ele>
        <time>2021-06-25T00:06:38.000Z</time>
        <extensions>
          <ns3:TrackPointExtension>
            <ns3:atemp>26.0</ns3:atemp>
            <ns3:hr>111</ns3:hr>
          </ns3:TrackPointExtension>
        </extensions>
      </trkpt>
      <trkpt lat="36.758426316082477569580078125" lon="-118.4227345883846282958984375">
        <ele>2844.800048828125</ele>
        <time>2021-06-25T00:06:40.000Z</time>
        <extensions>
          <ns3:TrackPointExtension>
            <ns3:atemp>26.0</ns3:atemp>
            <ns3:hr>107</ns3:hr>
          </ns3:TrackPointExtension>
        </extensions>
      </trkpt>
      <trkpt lat="36.75845741294324398040771484375" lon="-118.42267801053822040557861328125">
        <ele>2845.60009765625</ele>
        <time>2021-06-25T00:06:46.000Z</time>
        <extensions>
          <ns3:TrackPointExtension>
            <ns3:atemp>26.0</ns3:atemp>
            <ns3:hr>109</ns3:hr>
          </ns3:TrackPointExtension>
        </extensions>
      </trkpt>
      <trkpt lat="36.75846956670284271240234375" lon="-118.4226648509502410888671875">
        <ele>2845.800048828125</ele>
        <time>2021-06-25T00:06:47.000Z</time>
        <extensions>
          <ns3:TrackPointExtension>
            <ns3:atemp>26.0</ns3:atemp>
            <ns3:hr>107</ns3:hr>
          </ns3:TrackPointExtension>
        </extensions>
      </trkpt>
      <trkpt lat="36.75847417674958705902099609375" lon="-118.4226432256400585174560546875">
        <ele>2845.800048828125</ele>
        <time>2021-06-25T00:06:49.000Z</time>
        <extensions>
          <ns3:TrackPointExtension>
            <ns3:atemp>26.0</ns3:atemp>
            <ns3:hr>110</ns3:hr>
          </ns3:TrackPointExtension>
        </extensions>
      </trkpt>
      <trkpt lat="36.75846512429416179656982421875" lon="-118.4226160682737827301025390625">
        <ele>2846</ele>
        <time>2021-06-25T00:06:51.000Z</time>
        <extensions>
          <ns3:TrackPointExtension>
            <ns3:atemp>26.0</ns3:atemp>
            <ns3:hr>107</ns3:hr>
          </ns3:TrackPointExtension>
        </extensions>
      </trkpt>
      <trkpt lat="36.75847493112087249755859375" lon="-118.422590084373950958251953125">
        <ele>2846.199951171875</ele>
        <time>2021-06-25T00:06:54.000Z</time>
        <extensions>
          <ns3:TrackPointExtension>
            <ns3:atemp>26.0</ns3:atemp>
            <ns3:hr>105</ns3:hr>
          </ns3:TrackPointExtension>
        </extensions>
      </trkpt>
      <trkpt lat="36.75849228166043758392333984375" lon="-118.42256183736026287078857421875">
        <ele>2846.800048828125</ele>
        <time>2021-06-25T00:06:57.000Z</time>
        <extensions>
          <ns3:TrackPointExtension>
            <ns3:atemp>26.0</ns3:atemp>
            <ns3:hr>102</ns3:hr>
          </ns3:TrackPointExtension>
        </extensions>
      </trkpt>
      <trkpt lat="36.758499406278133392333984375" lon="-118.42253987677395343780517578125">
        <ele>2846.800048828125</ele>
        <time>2021-06-25T00:06:59.000Z</time>
        <extensions>
          <ns3:TrackPointExtension>
            <ns3:atemp>26.0</ns3:atemp>
            <ns3:hr>107</ns3:hr>
          </ns3:TrackPointExtension>
        </extensions>
      </trkpt>
      <trkpt lat="36.7585079558193683624267578125" lon="-118.42253015376627445220947265625">
        <ele>2846.800048828125</ele>
        <time>2021-06-25T00:07:00.000Z</time>
        <extensions>
          <ns3:TrackPointExtension>
            <ns3:atemp>26.0</ns3:atemp>
            <ns3:hr>107</ns3:hr>
          </ns3:TrackPointExtension>
        </extensions>
      </trkpt>
      <trkpt lat="36.75851005129516124725341796875" lon="-118.422519676387310028076171875">
        <ele>2846.800048828125</ele>
        <time>2021-06-25T00:07:01.000Z</time>
        <extensions>
          <ns3:TrackPointExtension>
            <ns3:atemp>26.0</ns3:atemp>
            <ns3:hr>107</ns3:hr>
          </ns3:TrackPointExtension>
        </extensions>
      </trkpt>
      <trkpt lat="36.75848700106143951416015625" lon="-118.42246544547379016876220703125">
        <ele>2847.800048828125</ele>
        <time>2021-06-25T00:07:07.000Z</time>
        <extensions>
          <ns3:TrackPointExtension>
            <ns3:atemp>26.0</ns3:atemp>
            <ns3:hr>107</ns3:hr>
          </ns3:TrackPointExtension>
        </extensions>
      </trkpt>
      <trkpt lat="36.7584700696170330047607421875" lon="-118.422453291714191436767578125">
        <ele>2847.800048828125</ele>
        <time>2021-06-25T00:07:09.000Z</time>
        <extensions>
          <ns3:TrackPointExtension>
            <ns3:atemp>26.0</ns3:atemp>
            <ns3:hr>108</ns3:hr>
          </ns3:TrackPointExtension>
        </extensions>
      </trkpt>
      <trkpt lat="36.75847685895860195159912109375" lon="-118.42243828810751438140869140625">
        <ele>2848</ele>
        <time>2021-06-25T00:07:11.000Z</time>
        <extensions>
          <ns3:TrackPointExtension>
            <ns3:atemp>26.0</ns3:atemp>
            <ns3:hr>109</ns3:hr>
          </ns3:TrackPointExtension>
        </extensions>
      </trkpt>
      <trkpt lat="36.75848909653723239898681640625" lon="-118.4224189259111881256103515625">
        <ele>2848</ele>
        <time>2021-06-25T00:07:13.000Z</time>
        <extensions>
          <ns3:TrackPointExtension>
            <ns3:atemp>26.0</ns3:atemp>
            <ns3:hr>110</ns3:hr>
          </ns3:TrackPointExtension>
        </extensions>
      </trkpt>
      <trkpt lat="36.75849915482103824615478515625" lon="-118.42236050404608249664306640625">
        <ele>2848.60009765625</ele>
        <time>2021-06-25T00:07:18.000Z</time>
        <extensions>
          <ns3:TrackPointExtension>
            <ns3:atemp>26.0</ns3:atemp>
            <ns3:hr>110</ns3:hr>
          </ns3:TrackPointExtension>
        </extensions>
      </trkpt>
      <trkpt lat="36.75849747844040393829345703125" lon="-118.4223062731325626373291015625">
        <ele>2848.800048828125</ele>
        <time>2021-06-25T00:07:22.000Z</time>
        <extensions>
          <ns3:TrackPointExtension>
            <ns3:atemp>26.0</ns3:atemp>
            <ns3:hr>107</ns3:hr>
          </ns3:TrackPointExtension>
        </extensions>
      </trkpt>
      <trkpt lat="36.7584911920130252838134765625" lon="-118.4222901798784732818603515625">
        <ele>2849</ele>
        <time>2021-06-25T00:07:23.000Z</time>
        <extensions>
          <ns3:TrackPointExtension>
            <ns3:atemp>26.0</ns3:atemp>
            <ns3:hr>106</ns3:hr>
          </ns3:TrackPointExtension>
        </extensions>
      </trkpt>
      <trkpt lat="36.75848037935793399810791015625" lon="-118.42227333225309848785400390625">
        <ele>2849</ele>
        <time>2021-06-25T00:07:24.000Z</time>
        <extensions>
          <ns3:TrackPointExtension>
            <ns3:atemp>26.0</ns3:atemp>
            <ns3:hr>105</ns3:hr>
          </ns3:TrackPointExtension>
        </extensions>
      </trkpt>
      <trkpt lat="36.75847769714891910552978515625" lon="-118.4222583286464214324951171875">
        <ele>2849</ele>
        <time>2021-06-25T00:07:25.000Z</time>
        <extensions>
          <ns3:TrackPointExtension>
            <ns3:atemp>26.0</ns3:atemp>
            <ns3:hr>108</ns3:hr>
          </ns3:TrackPointExtension>
        </extensions>
      </trkpt>
      <trkpt lat="36.75847568549215793609619140625" lon="-118.422249443829059600830078125">
        <ele>2849.199951171875</ele>
        <time>2021-06-25T00:07:26.000Z</time>
        <extensions>
          <ns3:TrackPointExtension>
            <ns3:atemp>26.0</ns3:atemp>
            <ns3:hr>105</ns3:hr>
          </ns3:TrackPointExtension>
        </extensions>
      </trkpt>
      <trkpt lat="36.758491694927215576171875" lon="-118.422182388603687286376953125">
        <ele>2850</ele>
        <time>2021-06-25T00:07:32.000Z</time>
        <extensions>
          <ns3:TrackPointExtension>
            <ns3:atemp>26.0</ns3:atemp>
            <ns3:hr>105</ns3:hr>
          </ns3:TrackPointExtension>
        </extensions>
      </trkpt>
      <trkpt lat="36.7584849894046783447265625" lon="-118.42217626981437206268310546875">
        <ele>2850</ele>
        <time>2021-06-25T00:07:33.000Z</time>
        <extensions>
          <ns3:TrackPointExtension>
            <ns3:atemp>26.0</ns3:atemp>
            <ns3:hr>105</ns3:hr>
          </ns3:TrackPointExtension>
        </extensions>
      </trkpt>
      <trkpt lat="36.7584472708404064178466796875" lon="-118.42210636474192142486572265625">
        <ele>2850</ele>
        <time>2021-06-25T00:07:40.000Z</time>
        <extensions>
          <ns3:TrackPointExtension>
            <ns3:atemp>26.0</ns3:atemp>
            <ns3:hr>104</ns3:hr>
          </ns3:TrackPointExtension>
        </extensions>
      </trkpt>
      <trkpt lat="36.7584432475268840789794921875" lon="-118.422086499631404876708984375">
        <ele>2850</ele>
        <time>2021-06-25T00:07:41.000Z</time>
        <extensions>
          <ns3:TrackPointExtension>
            <ns3:atemp>26.0</ns3:atemp>
            <ns3:hr>103</ns3:hr>
          </ns3:TrackPointExtension>
        </extensions>
      </trkpt>
      <trkpt lat="36.75841835327446460723876953125" lon="-118.42202070169150829315185546875">
        <ele>2850.199951171875</ele>
        <time>2021-06-25T00:07:45.000Z</time>
        <extensions>
          <ns3:TrackPointExtension>
            <ns3:atemp>26.0</ns3:atemp>
            <ns3:hr>100</ns3:hr>
          </ns3:TrackPointExtension>
        </extensions>
      </trkpt>
      <trkpt lat="36.7584053613245487213134765625" lon="-118.42201366089284420013427734375">
        <ele>2850.60009765625</ele>
        <time>2021-06-25T00:07:47.000Z</time>
        <extensions>
          <ns3:TrackPointExtension>
            <ns3:atemp>26.0</ns3:atemp>
            <ns3:hr>99</ns3:hr>
          </ns3:TrackPointExtension>
        </extensions>
      </trkpt>
      <trkpt lat="36.75840661861002445220947265625" lon="-118.42201198451220989227294921875">
        <ele>2850.800048828125</ele>
        <time>2021-06-25T00:07:48.000Z</time>
        <extensions>
          <ns3:TrackPointExtension>
            <ns3:atemp>26.0</ns3:atemp>
            <ns3:hr>99</ns3:hr>
          </ns3:TrackPointExtension>
        </extensions>
      </trkpt>
      <trkpt lat="36.75842405296862125396728515625" lon="-118.4219877608120441436767578125">
        <ele>2850.800048828125</ele>
        <time>2021-06-25T00:07:51.000Z</time>
        <extensions>
          <ns3:TrackPointExtension>
            <ns3:atemp>26.0</ns3:atemp>
            <ns3:hr>99</ns3:hr>
          </ns3:TrackPointExtension>
        </extensions>
      </trkpt>
      <trkpt lat="36.7584232985973358154296875" lon="-118.421971499919891357421875">
        <ele>2851</ele>
        <time>2021-06-25T00:07:52.000Z</time>
        <extensions>
          <ns3:TrackPointExtension>
            <ns3:atemp>26.0</ns3:atemp>
            <ns3:hr>98</ns3:hr>
          </ns3:TrackPointExtension>
        </extensions>
      </trkpt>
      <trkpt lat="36.75841097719967365264892578125" lon="-118.421941660344600677490234375">
        <ele>2851</ele>
        <time>2021-06-25T00:07:54.000Z</time>
        <extensions>
          <ns3:TrackPointExtension>
            <ns3:atemp>26.0</ns3:atemp>
            <ns3:hr>98</ns3:hr>
          </ns3:TrackPointExtension>
        </extensions>
      </trkpt>
      <trkpt lat="36.75838013179600238800048828125" lon="-118.4218787960708141326904296875">
        <ele>2851.199951171875</ele>
        <time>2021-06-25T00:07:59.000Z</time>
        <extensions>
          <ns3:TrackPointExtension>
            <ns3:atemp>26.0</ns3:atemp>
            <ns3:hr>98</ns3:hr>
          </ns3:TrackPointExtension>
        </extensions>
      </trkpt>
      <trkpt lat="36.758382730185985565185546875" lon="-118.42186890542507171630859375">
        <ele>2851.199951171875</ele>
        <time>2021-06-25T00:08:00.000Z</time>
        <extensions>
          <ns3:TrackPointExtension>
            <ns3:atemp>26.0</ns3:atemp>
            <ns3:hr>99</ns3:hr>
          </ns3:TrackPointExtension>
        </extensions>
      </trkpt>
      <trkpt lat="36.75839002244174480438232421875" lon="-118.42180025763809680938720703125">
        <ele>2851.39990234375</ele>
        <time>2021-06-25T00:08:06.000Z</time>
        <extensions>
          <ns3:TrackPointExtension>
            <ns3:atemp>26.0</ns3:atemp>
            <ns3:hr>95</ns3:hr>
          </ns3:TrackPointExtension>
        </extensions>
      </trkpt>
      <trkpt lat="36.75838700495660305023193359375" lon="-118.421778045594692230224609375">
        <ele>2851.39990234375</ele>
        <time>2021-06-25T00:08:08.000Z</time>
        <extensions>
          <ns3:TrackPointExtension>
            <ns3:atemp>26.0</ns3:atemp>
            <ns3:hr>98</ns3:hr>
          </ns3:TrackPointExtension>
        </extensions>
      </trkpt>
      <trkpt lat="36.7583978176116943359375" lon="-118.4217725135385990142822265625">
        <ele>2851.39990234375</ele>
        <time>2021-06-25T00:08:10.000Z</time>
        <extensions>
          <ns3:TrackPointExtension>
            <ns3:atemp>26.0</ns3:atemp>
            <ns3:hr>97</ns3:hr>
          </ns3:TrackPointExtension>
        </extensions>
      </trkpt>
      <trkpt lat="36.75843067467212677001953125" lon="-118.42177209444344043731689453125">
        <ele>2851.39990234375</ele>
        <time>2021-06-25T00:08:12.000Z</time>
        <extensions>
          <ns3:TrackPointExtension>
            <ns3:atemp>26.0</ns3:atemp>
            <ns3:hr>97</ns3:hr>
          </ns3:TrackPointExtension>
        </extensions>
      </trkpt>
      <trkpt lat="36.758433692157268524169921875" lon="-118.421767316758632659912109375">
        <ele>2851.39990234375</ele>
        <time>2021-06-25T00:08:13.000Z</time>
        <extensions>
          <ns3:TrackPointExtension>
            <ns3:atemp>26.0</ns3:atemp>
            <ns3:hr>97</ns3:hr>
          </ns3:TrackPointExtension>
        </extensions>
      </trkpt>
      <trkpt lat="36.7584506236016750335693359375" lon="-118.42174141667783260345458984375">
        <ele>2851.39990234375</ele>
        <time>2021-06-25T00:08:23.000Z</time>
        <extensions>
          <ns3:TrackPointExtension>
            <ns3:atemp>26.0</ns3:atemp>
            <ns3:hr>94</ns3:hr>
          </ns3:TrackPointExtension>
        </extensions>
      </trkpt>
      <trkpt lat="36.75844852812588214874267578125" lon="-118.42174150049686431884765625">
        <ele>2851.60009765625</ele>
        <time>2021-06-25T00:08:27.000Z</time>
        <extensions>
          <ns3:TrackPointExtension>
            <ns3:atemp>26.0</ns3:atemp>
            <ns3:hr>97</ns3:hr>
          </ns3:TrackPointExtension>
        </extensions>
      </trkpt>
      <trkpt lat="36.7584502883255481719970703125" lon="-118.421745859086513519287109375">
        <ele>2851.60009765625</ele>
        <time>2021-06-25T00:08:30.000Z</time>
        <extensions>
          <ns3:TrackPointExtension>
            <ns3:atemp>26.0</ns3:atemp>
            <ns3:hr>100</ns3:hr>
          </ns3:TrackPointExtension>
        </extensions>
      </trkpt>
      <trkpt lat="36.75844685174524784088134765625" lon="-118.42174342833459377288818359375">
        <ele>2851.800048828125</ele>
        <time>2021-06-25T00:08:34.000Z</time>
        <extensions>
          <ns3:TrackPointExtension>
            <ns3:atemp>26.0</ns3:atemp>
            <ns3:hr>101</ns3:hr>
          </ns3:TrackPointExtension>
        </extensions>
      </trkpt>
      <trkpt lat="36.758427657186985015869140625" lon="-118.4217000938951969146728515625">
        <ele>2851.800048828125</ele>
        <time>2021-06-25T00:08:43.000Z</time>
        <extensions>
          <ns3:TrackPointExtension>
            <ns3:atemp>26.0</ns3:atemp>
            <ns3:hr>100</ns3:hr>
          </ns3:TrackPointExtension>
        </extensions>
      </trkpt>
      <trkpt lat="36.7583896033465862274169921875" lon="-118.42161552049219608306884765625">
        <ele>2851.39990234375</ele>
        <time>2021-06-25T00:08:50.000Z</time>
        <extensions>
          <ns3:TrackPointExtension>
            <ns3:atemp>26.0</ns3:atemp>
            <ns3:hr>98</ns3:hr>
          </ns3:TrackPointExtension>
        </extensions>
      </trkpt>
      <trkpt lat="36.75838105380535125732421875" lon="-118.42152667231857776641845703125">
        <ele>2851.800048828125</ele>
        <time>2021-06-25T00:08:57.000Z</time>
        <extensions>
          <ns3:TrackPointExtension>
            <ns3:atemp>27.0</ns3:atemp>
            <ns3:hr>98</ns3:hr>
          </ns3:TrackPointExtension>
        </extensions>
      </trkpt>
      <trkpt lat="36.75839555449783802032470703125" lon="-118.42150068841874599456787109375">
        <ele>2852</ele>
        <time>2021-06-25T00:09:02.000Z</time>
        <extensions>
          <ns3:TrackPointExtension>
            <ns3:atemp>27.0</ns3:atemp>
            <ns3:hr>98</ns3:hr>
          </ns3:TrackPointExtension>
        </extensions>
      </trkpt>
      <trkpt lat="36.75840695388615131378173828125" lon="-118.42149683274328708648681640625">
        <ele>2852.199951171875</ele>
        <time>2021-06-25T00:09:05.000Z</time>
        <extensions>
          <ns3:TrackPointExtension>
            <ns3:atemp>27.0</ns3:atemp>
            <ns3:hr>99</ns3:hr>
          </ns3:TrackPointExtension>
        </extensions>
      </trkpt>
      <trkpt lat="36.7584197781980037689208984375" lon="-118.4214858524501323699951171875">
        <ele>2852.800048828125</ele>
        <time>2021-06-25T00:09:08.000Z</time>
        <extensions>
          <ns3:TrackPointExtension>
            <ns3:atemp>27.0</ns3:atemp>
            <ns3:hr>100</ns3:hr>
          </ns3:TrackPointExtension>
        </extensions>
      </trkpt>
      <trkpt lat="36.75841583870351314544677734375" lon="-118.42144243419170379638671875">
        <ele>2853.199951171875</ele>
        <time>2021-06-25T00:09:12.000Z</time>
        <extensions>
          <ns3:TrackPointExtension>
            <ns3:atemp>27.0</ns3:atemp>
            <ns3:hr>102</ns3:hr>
          </ns3:TrackPointExtension>
        </extensions>
      </trkpt>
      <trkpt lat="36.7584040202200412750244140625" lon="-118.4214120917022228240966796875">
        <ele>2853.199951171875</ele>
        <time>2021-06-25T00:09:15.000Z</time>
        <extensions>
          <ns3:TrackPointExtension>
            <ns3:atemp>27.0</ns3:atemp>
            <ns3:hr>99</ns3:hr>
          </ns3:TrackPointExtension>
        </extensions>
      </trkpt>
      <trkpt lat="36.7584053613245487213134765625" lon="-118.4214020334184169769287109375">
        <ele>2853.60009765625</ele>
        <time>2021-06-25T00:09:16.000Z</time>
        <extensions>
          <ns3:TrackPointExtension>
            <ns3:atemp>27.0</ns3:atemp>
            <ns3:hr>99</ns3:hr>
          </ns3:TrackPointExtension>
        </extensions>
      </trkpt>
      <trkpt lat="36.75837862305343151092529296875" lon="-118.4213411808013916015625">
        <ele>2854.199951171875</ele>
        <time>2021-06-25T00:09:21.000Z</time>
        <extensions>
          <ns3:TrackPointExtension>
            <ns3:atemp>27.0</ns3:atemp>
            <ns3:hr>98</ns3:hr>
          </ns3:TrackPointExtension>
        </extensions>
      </trkpt>
      <trkpt lat="36.758367978036403656005859375" lon="-118.42131662182509899139404296875">
        <ele>2854.199951171875</ele>
        <time>2021-06-25T00:09:23.000Z</time>
        <extensions>
          <ns3:TrackPointExtension>
            <ns3:atemp>27.0</ns3:atemp>
            <ns3:hr>97</ns3:hr>
          </ns3:TrackPointExtension>
        </extensions>
      </trkpt>
      <trkpt lat="36.758343167603015899658203125" lon="-118.42122760601341724395751953125">
        <ele>2854.39990234375</ele>
        <time>2021-06-25T00:09:31.000Z</time>
        <extensions>
          <ns3:TrackPointExtension>
            <ns3:atemp>27.0</ns3:atemp>
            <ns3:hr>97</ns3:hr>
          </ns3:TrackPointExtension>
        </extensions>
      </trkpt>
      <trkpt lat="36.7583455145359039306640625" lon="-118.4212290309369564056396484375">
        <ele>2854.39990234375</ele>
        <time>2021-06-25T00:09:33.000Z</time>
        <extensions>
          <ns3:TrackPointExtension>
            <ns3:atemp>27.0</ns3:atemp>
            <ns3:hr>100</ns3:hr>
          </ns3:TrackPointExtension>
        </extensions>
      </trkpt>
      <trkpt lat="36.75834618508815765380859375" lon="-118.4212327189743518829345703125">
        <ele>2854.199951171875</ele>
        <time>2021-06-25T00:09:35.000Z</time>
        <extensions>
          <ns3:TrackPointExtension>
            <ns3:atemp>27.0</ns3:atemp>
            <ns3:hr>101</ns3:hr>
          </ns3:TrackPointExtension>
        </extensions>
      </trkpt>
      <trkpt lat="36.7583399824798107147216796875" lon="-118.42126532457768917083740234375">
        <ele>2854.199951171875</ele>
        <time>2021-06-25T00:09:39.000Z</time>
        <extensions>
          <ns3:TrackPointExtension>
            <ns3:atemp>27.0</ns3:atemp>
            <ns3:hr>96</ns3:hr>
          </ns3:TrackPointExtension>
        </extensions>
      </trkpt>
      <trkpt lat="36.7583423294126987457275390625" lon="-118.42127035371959209442138671875">
        <ele>2854.199951171875</ele>
        <time>2021-06-25T00:09:42.000Z</time>
        <extensions>
          <ns3:TrackPointExtension>
            <ns3:atemp>27.0</ns3:atemp>
            <ns3:hr>96</ns3:hr>
          </ns3:TrackPointExtension>
        </extensions>
      </trkpt>
      <trkpt lat="36.7583423294126987457275390625" lon="-118.42127035371959209442138671875">
        <ele>2854.39990234375</ele>
        <time>2021-06-25T00:09:47.000Z</time>
        <extensions>
          <ns3:TrackPointExtension>
            <ns3:atemp>27.0</ns3:atemp>
            <ns3:hr>93</ns3:hr>
          </ns3:TrackPointExtension>
        </extensions>
      </trkpt>
      <trkpt lat="36.7583423294126987457275390625" lon="-118.42127035371959209442138671875">
        <ele>2854.39990234375</ele>
        <time>2021-06-25T00:09:48.000Z</time>
        <extensions>
          <ns3:TrackPointExtension>
            <ns3:atemp>27.0</ns3:atemp>
            <ns3:hr>96</ns3:hr>
          </ns3:TrackPointExtension>
        </extensions>
      </trkpt>
      <trkpt lat="36.75834216177463531494140625" lon="-118.4212672524154186248779296875">
        <ele>2854.199951171875</ele>
        <time>2021-06-25T00:10:00.000Z</time>
        <extensions>
          <ns3:TrackPointExtension>
            <ns3:atemp>27.0</ns3:atemp>
            <ns3:hr>97</ns3:hr>
          </ns3:TrackPointExtension>
        </extensions>
      </trkpt>
      <trkpt lat="36.75834023393690586090087890625" lon="-118.4212722815573215484619140625">
        <ele>2854.199951171875</ele>
        <time>2021-06-25T00:10:07.000Z</time>
        <extensions>
          <ns3:TrackPointExtension>
            <ns3:atemp>27.0</ns3:atemp>
            <ns3:hr>100</ns3:hr>
          </ns3:TrackPointExtension>
        </extensions>
      </trkpt>
      <trkpt lat="36.75832447595894336700439453125" lon="-118.42120237648487091064453125">
        <ele>2855</ele>
        <time>2021-06-25T00:10:16.000Z</time>
        <extensions>
          <ns3:TrackPointExtension>
            <ns3:atemp>27.0</ns3:atemp>
            <ns3:hr>101</ns3:hr>
          </ns3:TrackPointExtension>
        </extensions>
      </trkpt>
      <trkpt lat="36.7583188600838184356689453125" lon="-118.42117044143378734588623046875">
        <ele>2855</ele>
        <time>2021-06-25T00:10:18.000Z</time>
        <extensions>
          <ns3:TrackPointExtension>
            <ns3:atemp>27.0</ns3:atemp>
            <ns3:hr>101</ns3:hr>
          </ns3:TrackPointExtension>
        </extensions>
      </trkpt>
      <trkpt lat="36.75832112319767475128173828125" lon="-118.4211440384387969970703125">
        <ele>2855.39990234375</ele>
        <time>2021-06-25T00:10:20.000Z</time>
        <extensions>
          <ns3:TrackPointExtension>
            <ns3:atemp>27.0</ns3:atemp>
            <ns3:hr>102</ns3:hr>
          </ns3:TrackPointExtension>
        </extensions>
      </trkpt>
      <trkpt lat="36.75832665525376796722412109375" lon="-118.42111260630190372467041015625">
        <ele>2855.800048828125</ele>
        <time>2021-06-25T00:10:23.000Z</time>
        <extensions>
          <ns3:TrackPointExtension>
            <ns3:atemp>27.0</ns3:atemp>
            <ns3:hr>102</ns3:hr>
          </ns3:TrackPointExtension>
        </extensions>
      </trkpt>
      <trkpt lat="36.758332438766956329345703125" lon="-118.4211049787700176239013671875">
        <ele>2856</ele>
        <time>2021-06-25T00:10:24.000Z</time>
        <extensions>
          <ns3:TrackPointExtension>
            <ns3:atemp>27.0</ns3:atemp>
            <ns3:hr>102</ns3:hr>
          </ns3:TrackPointExtension>
        </extensions>
      </trkpt>
      <trkpt lat="36.7583401501178741455078125" lon="-118.421090729534626007080078125">
        <ele>2856.39990234375</ele>
        <time>2021-06-25T00:10:26.000Z</time>
        <extensions>
          <ns3:TrackPointExtension>
            <ns3:atemp>27.0</ns3:atemp>
            <ns3:hr>102</ns3:hr>
          </ns3:TrackPointExtension>
        </extensions>
      </trkpt>
      <trkpt lat="36.7583292536437511444091796875" lon="-118.4210126101970672607421875">
        <ele>2856.199951171875</ele>
        <time>2021-06-25T00:10:33.000Z</time>
        <extensions>
          <ns3:TrackPointExtension>
            <ns3:atemp>27.0</ns3:atemp>
            <ns3:hr>101</ns3:hr>
          </ns3:TrackPointExtension>
        </extensions>
      </trkpt>
      <trkpt lat="36.75833453424274921417236328125" lon="-118.42091110534965991973876953125">
        <ele>2856.800048828125</ele>
        <time>2021-06-25T00:10:42.000Z</time>
        <extensions>
          <ns3:TrackPointExtension>
            <ns3:atemp>27.0</ns3:atemp>
            <ns3:hr>103</ns3:hr>
          </ns3:TrackPointExtension>
        </extensions>
      </trkpt>
      <trkpt lat="36.7583334445953369140625" lon="-118.4208947606384754180908203125">
        <ele>2857.60009765625</ele>
        <time>2021-06-25T00:10:44.000Z</time>
        <extensions>
          <ns3:TrackPointExtension>
            <ns3:atemp>27.0</ns3:atemp>
            <ns3:hr>104</ns3:hr>
          </ns3:TrackPointExtension>
        </extensions>
      </trkpt>
      <trkpt lat="36.75829899497330188751220703125" lon="-118.42084187082946300506591796875">
        <ele>2857</ele>
        <time>2021-06-25T00:10:50.000Z</time>
        <extensions>
          <ns3:TrackPointExtension>
            <ns3:atemp>27.0</ns3:atemp>
            <ns3:hr>107</ns3:hr>
          </ns3:TrackPointExtension>
        </extensions>
      </trkpt>
      <trkpt lat="36.758294217288494110107421875" lon="-118.42083499766886234283447265625">
        <ele>2857</ele>
        <time>2021-06-25T00:10:51.000Z</time>
        <extensions>
          <ns3:TrackPointExtension>
            <ns3:atemp>27.0</ns3:atemp>
            <ns3:hr>108</ns3:hr>
          </ns3:TrackPointExtension>
        </extensions>
      </trkpt>
      <trkpt lat="36.75829027779400348663330078125" lon="-118.42082527466118335723876953125">
        <ele>2856</ele>
        <time>2021-06-25T00:10:52.000Z</time>
        <extensions>
          <ns3:TrackPointExtension>
            <ns3:atemp>27.0</ns3:atemp>
            <ns3:hr>108</ns3:hr>
          </ns3:TrackPointExtension>
        </extensions>
      </trkpt>
      <trkpt lat="36.75828273408114910125732421875" lon="-118.4207712113857269287109375">
        <ele>2855.800048828125</ele>
        <time>2021-06-25T00:10:58.000Z</time>
        <extensions>
          <ns3:TrackPointExtension>
            <ns3:atemp>27.0</ns3:atemp>
            <ns3:hr>106</ns3:hr>
          </ns3:TrackPointExtension>
        </extensions>
      </trkpt>
      <trkpt lat="36.75826035439968109130859375" lon="-118.4206593967974185943603515625">
        <ele>2855.39990234375</ele>
        <time>2021-06-25T00:11:08.000Z</time>
        <extensions>
          <ns3:TrackPointExtension>
            <ns3:atemp>27.0</ns3:atemp>
            <ns3:hr>103</ns3:hr>
          </ns3:TrackPointExtension>
        </extensions>
      </trkpt>
      <trkpt lat="36.75823688507080078125" lon="-118.4205967001616954803466796875">
        <ele>2856.199951171875</ele>
        <time>2021-06-25T00:11:15.000Z</time>
        <extensions>
          <ns3:TrackPointExtension>
            <ns3:atemp>27.0</ns3:atemp>
            <ns3:hr>100</ns3:hr>
          </ns3:TrackPointExtension>
        </extensions>
      </trkpt>
      <trkpt lat="36.75820679403841495513916015625" lon="-118.4205137193202972412109375">
        <ele>2855.800048828125</ele>
        <time>2021-06-25T00:11:23.000Z</time>
        <extensions>
          <ns3:TrackPointExtension>
            <ns3:atemp>27.0</ns3:atemp>
            <ns3:hr>101</ns3:hr>
          </ns3:TrackPointExtension>
        </extensions>
      </trkpt>
      <trkpt lat="36.75820394419133663177490234375" lon="-118.42048983089625835418701171875">
        <ele>2855.800048828125</ele>
        <time>2021-06-25T00:11:25.000Z</time>
        <extensions>
          <ns3:TrackPointExtension>
            <ns3:atemp>27.0</ns3:atemp>
            <ns3:hr>99</ns3:hr>
          </ns3:TrackPointExtension>
        </extensions>
      </trkpt>
      <trkpt lat="36.75821417011320590972900390625" lon="-118.4204681217670440673828125">
        <ele>2855.800048828125</ele>
        <time>2021-06-25T00:11:28.000Z</time>
        <extensions>
          <ns3:TrackPointExtension>
            <ns3:atemp>27.0</ns3:atemp>
            <ns3:hr>95</ns3:hr>
          </ns3:TrackPointExtension>
        </extensions>
      </trkpt>
      <trkpt lat="36.758215762674808502197265625" lon="-118.4204679541289806365966796875">
        <ele>2855.800048828125</ele>
        <time>2021-06-25T00:11:29.000Z</time>
        <extensions>
          <ns3:TrackPointExtension>
            <ns3:atemp>27.0</ns3:atemp>
            <ns3:hr>94</ns3:hr>
          </ns3:TrackPointExtension>
        </extensions>
      </trkpt>
      <trkpt lat="36.75821517594158649444580078125" lon="-118.4204635955393314361572265625">
        <ele>2855.800048828125</ele>
        <time>2021-06-25T00:11:30.000Z</time>
        <extensions>
          <ns3:TrackPointExtension>
            <ns3:atemp>27.0</ns3:atemp>
            <ns3:hr>93</ns3:hr>
          </ns3:TrackPointExtension>
        </extensions>
      </trkpt>
      <trkpt lat="36.75827099941670894622802734375" lon="-118.42041389085352420806884765625">
        <ele>2857.199951171875</ele>
        <time>2021-06-25T00:11:37.000Z</time>
        <extensions>
          <ns3:TrackPointExtension>
            <ns3:atemp>27.0</ns3:atemp>
            <ns3:hr>92</ns3:hr>
          </ns3:TrackPointExtension>
        </extensions>
      </trkpt>
      <trkpt lat="36.75830662250518798828125" lon="-118.42040215618908405303955078125">
        <ele>2858</ele>
        <time>2021-06-25T00:11:41.000Z</time>
        <extensions>
          <ns3:TrackPointExtension>
            <ns3:atemp>27.0</ns3:atemp>
            <ns3:hr>94</ns3:hr>
          </ns3:TrackPointExtension>
        </extensions>
      </trkpt>
      <trkpt lat="36.7583057843148708343505859375" lon="-118.420390672981739044189453125">
        <ele>2858.199951171875</ele>
        <time>2021-06-25T00:11:42.000Z</time>
        <extensions>
          <ns3:TrackPointExtension>
            <ns3:atemp>27.0</ns3:atemp>
            <ns3:hr>95</ns3:hr>
          </ns3:TrackPointExtension>
        </extensions>
      </trkpt>
      <trkpt lat="36.75830972380936145782470703125" lon="-118.42037625610828399658203125">
        <ele>2858.60009765625</ele>
        <time>2021-06-25T00:11:44.000Z</time>
        <extensions>
          <ns3:TrackPointExtension>
            <ns3:atemp>27.0</ns3:atemp>
            <ns3:hr>98</ns3:hr>
          </ns3:TrackPointExtension>
        </extensions>
      </trkpt>
      <trkpt lat="36.758315004408359527587890625" lon="-118.42035840265452861785888671875">
        <ele>2859</ele>
        <time>2021-06-25T00:11:46.000Z</time>
        <extensions>
          <ns3:TrackPointExtension>
            <ns3:atemp>27.0</ns3:atemp>
            <ns3:hr>99</ns3:hr>
          </ns3:TrackPointExtension>
        </extensions>
      </trkpt>
      <trkpt lat="36.75831609405577182769775390625" lon="-118.4203516133129596710205078125">
        <ele>2859.39990234375</ele>
        <time>2021-06-25T00:11:47.000Z</time>
        <extensions>
          <ns3:TrackPointExtension>
            <ns3:atemp>27.0</ns3:atemp>
            <ns3:hr>101</ns3:hr>
          </ns3:TrackPointExtension>
        </extensions>
      </trkpt>
      <trkpt lat="36.75831693224608898162841796875" lon="-118.42033929191529750823974609375">
        <ele>2859.800048828125</ele>
        <time>2021-06-25T00:11:49.000Z</time>
        <extensions>
          <ns3:TrackPointExtension>
            <ns3:atemp>27.0</ns3:atemp>
            <ns3:hr>102</ns3:hr>
          </ns3:TrackPointExtension>
        </extensions>
      </trkpt>
      <trkpt lat="36.75832246430218219757080078125" lon="-118.42032906599342823028564453125">
        <ele>2859.800048828125</ele>
        <time>2021-06-25T00:11:50.000Z</time>
        <extensions>
          <ns3:TrackPointExtension>
            <ns3:atemp>27.0</ns3:atemp>
            <ns3:hr>103</ns3:hr>
          </ns3:TrackPointExtension>
        </extensions>
      </trkpt>
      <trkpt lat="36.75832481123507022857666015625" lon="-118.420319594442844390869140625">
        <ele>2860</ele>
        <time>2021-06-25T00:11:51.000Z</time>
        <extensions>
          <ns3:TrackPointExtension>
            <ns3:atemp>27.0</ns3:atemp>
            <ns3:hr>104</ns3:hr>
          </ns3:TrackPointExtension>
        </extensions>
      </trkpt>
      <trkpt lat="36.7583373002707958221435546875" lon="-118.42029972933232784271240234375">
        <ele>2860.199951171875</ele>
        <time>2021-06-25T00:11:54.000Z</time>
        <extensions>
          <ns3:TrackPointExtension>
            <ns3:atemp>27.0</ns3:atemp>
            <ns3:hr>106</ns3:hr>
          </ns3:TrackPointExtension>
        </extensions>
      </trkpt>
      <trkpt lat="36.7583456821739673614501953125" lon="-118.4202838875353336334228515625">
        <ele>2860.39990234375</ele>
        <time>2021-06-25T00:11:56.000Z</time>
        <extensions>
          <ns3:TrackPointExtension>
            <ns3:atemp>27.0</ns3:atemp>
            <ns3:hr>107</ns3:hr>
          </ns3:TrackPointExtension>
        </extensions>
      </trkpt>
      <trkpt lat="36.75834962166845798492431640625" lon="-118.42027039267122745513916015625">
        <ele>2860.60009765625</ele>
        <time>2021-06-25T00:11:57.000Z</time>
        <extensions>
          <ns3:TrackPointExtension>
            <ns3:atemp>27.0</ns3:atemp>
            <ns3:hr>108</ns3:hr>
          </ns3:TrackPointExtension>
        </extensions>
      </trkpt>
      <trkpt lat="36.75835213623940944671630859375" lon="-118.4202468395233154296875">
        <ele>2860.800048828125</ele>
        <time>2021-06-25T00:11:58.000Z</time>
        <extensions>
          <ns3:TrackPointExtension>
            <ns3:atemp>27.0</ns3:atemp>
            <ns3:hr>108</ns3:hr>
          </ns3:TrackPointExtension>
        </extensions>
      </trkpt>
      <trkpt lat="36.75835582427680492401123046875" lon="-118.4202077798545360565185546875">
        <ele>2861.199951171875</ele>
        <time>2021-06-25T00:12:00.000Z</time>
        <extensions>
          <ns3:TrackPointExtension>
            <ns3:atemp>27.0</ns3:atemp>
            <ns3:hr>109</ns3:hr>
          </ns3:TrackPointExtension>
        </extensions>
      </trkpt>
      <trkpt lat="36.75834358669817447662353515625" lon="-118.4201843105256557464599609375">
        <ele>2861.60009765625</ele>
        <time>2021-06-25T00:12:02.000Z</time>
        <extensions>
          <ns3:TrackPointExtension>
            <ns3:atemp>27.0</ns3:atemp>
            <ns3:hr>110</ns3:hr>
          </ns3:TrackPointExtension>
        </extensions>
      </trkpt>
      <trkpt lat="36.75834995694458484649658203125" lon="-118.42014935798943042755126953125">
        <ele>2861.60009765625</ele>
        <time>2021-06-25T00:12:05.000Z</time>
        <extensions>
          <ns3:TrackPointExtension>
            <ns3:atemp>27.0</ns3:atemp>
            <ns3:hr>109</ns3:hr>
          </ns3:TrackPointExtension>
        </extensions>
      </trkpt>
      <trkpt lat="36.75835196860134601593017578125" lon="-118.42013779096305370330810546875">
        <ele>2861.800048828125</ele>
        <time>2021-06-25T00:12:06.000Z</time>
        <extensions>
          <ns3:TrackPointExtension>
            <ns3:atemp>27.0</ns3:atemp>
            <ns3:hr>109</ns3:hr>
          </ns3:TrackPointExtension>
        </extensions>
      </trkpt>
      <trkpt lat="36.7583460174500942230224609375" lon="-118.4201199375092983245849609375">
        <ele>2862</ele>
        <time>2021-06-25T00:12:08.000Z</time>
        <extensions>
          <ns3:TrackPointExtension>
            <ns3:atemp>27.0</ns3:atemp>
            <ns3:hr>108</ns3:hr>
          </ns3:TrackPointExtension>
        </extensions>
      </trkpt>
      <trkpt lat="36.75833277404308319091796875" lon="-118.4201001562178134918212890625">
        <ele>2861.800048828125</ele>
        <time>2021-06-25T00:12:11.000Z</time>
        <extensions>
          <ns3:TrackPointExtension>
            <ns3:atemp>27.0</ns3:atemp>
            <ns3:hr>106</ns3:hr>
          </ns3:TrackPointExtension>
        </extensions>
      </trkpt>
      <trkpt lat="36.75830997526645660400390625" lon="-118.42002815566956996917724609375">
        <ele>2861.60009765625</ele>
        <time>2021-06-25T00:12:16.000Z</time>
        <extensions>
          <ns3:TrackPointExtension>
            <ns3:atemp>27.0</ns3:atemp>
            <ns3:hr>105</ns3:hr>
          </ns3:TrackPointExtension>
        </extensions>
      </trkpt>
      <trkpt lat="36.75829664804041385650634765625" lon="-118.4199653752148151397705078125">
        <ele>2862.800048828125</ele>
        <time>2021-06-25T00:12:21.000Z</time>
        <extensions>
          <ns3:TrackPointExtension>
            <ns3:atemp>27.0</ns3:atemp>
            <ns3:hr>105</ns3:hr>
          </ns3:TrackPointExtension>
        </extensions>
      </trkpt>
      <trkpt lat="36.7583077959716320037841796875" lon="-118.4199398942291736602783203125">
        <ele>2863</ele>
        <time>2021-06-25T00:12:24.000Z</time>
        <extensions>
          <ns3:TrackPointExtension>
            <ns3:atemp>27.0</ns3:atemp>
            <ns3:hr>103</ns3:hr>
          </ns3:TrackPointExtension>
        </extensions>
      </trkpt>
      <trkpt lat="36.75832263194024562835693359375" lon="-118.41989882290363311767578125">
        <ele>2864</ele>
        <time>2021-06-25T00:12:28.000Z</time>
        <extensions>
          <ns3:TrackPointExtension>
            <ns3:atemp>27.0</ns3:atemp>
            <ns3:hr>105</ns3:hr>
          </ns3:TrackPointExtension>
        </extensions>
      </trkpt>
      <trkpt lat="36.758327744901180267333984375" lon="-118.4198845736682415008544921875">
        <ele>2864</ele>
        <time>2021-06-25T00:12:30.000Z</time>
        <extensions>
          <ns3:TrackPointExtension>
            <ns3:atemp>27.0</ns3:atemp>
            <ns3:hr>105</ns3:hr>
          </ns3:TrackPointExtension>
        </extensions>
      </trkpt>
      <trkpt lat="36.75835297442972660064697265625" lon="-118.41983051039278507232666015625">
        <ele>2864</ele>
        <time>2021-06-25T00:12:35.000Z</time>
        <extensions>
          <ns3:TrackPointExtension>
            <ns3:atemp>27.0</ns3:atemp>
            <ns3:hr>107</ns3:hr>
          </ns3:TrackPointExtension>
        </extensions>
      </trkpt>
      <trkpt lat="36.75837543793022632598876953125" lon="-118.4198202006518840789794921875">
        <ele>2864.199951171875</ele>
        <time>2021-06-25T00:12:38.000Z</time>
        <extensions>
          <ns3:TrackPointExtension>
            <ns3:atemp>27.0</ns3:atemp>
            <ns3:hr>110</ns3:hr>
          </ns3:TrackPointExtension>
        </extensions>
      </trkpt>
      <trkpt lat="36.75840117037296295166015625" lon="-118.41982631944119930267333984375">
        <ele>2864.60009765625</ele>
        <time>2021-06-25T00:12:41.000Z</time>
        <extensions>
          <ns3:TrackPointExtension>
            <ns3:atemp>27.0</ns3:atemp>
            <ns3:hr>114</ns3:hr>
          </ns3:TrackPointExtension>
        </extensions>
      </trkpt>
      <trkpt lat="36.75842572934925556182861328125" lon="-118.41982715763151645660400390625">
        <ele>2864.800048828125</ele>
        <time>2021-06-25T00:12:45.000Z</time>
        <extensions>
          <ns3:TrackPointExtension>
            <ns3:atemp>27.0</ns3:atemp>
            <ns3:hr>114</ns3:hr>
          </ns3:TrackPointExtension>
        </extensions>
      </trkpt>
      <trkpt lat="36.7584388889372348785400390625" lon="-118.41983637772500514984130859375">
        <ele>2864.800048828125</ele>
        <time>2021-06-25T00:12:47.000Z</time>
        <extensions>
          <ns3:TrackPointExtension>
            <ns3:atemp>27.0</ns3:atemp>
            <ns3:hr>115</ns3:hr>
          </ns3:TrackPointExtension>
        </extensions>
      </trkpt>
      <trkpt lat="36.75845389254391193389892578125" lon="-118.41984492726624011993408203125">
        <ele>2865</ele>
        <time>2021-06-25T00:12:49.000Z</time>
        <extensions>
          <ns3:TrackPointExtension>
            <ns3:atemp>27.0</ns3:atemp>
            <ns3:hr>115</ns3:hr>
          </ns3:TrackPointExtension>
        </extensions>
      </trkpt>
      <trkpt lat="36.75847484730184078216552734375" lon="-118.41985984705388545989990234375">
        <ele>2865</ele>
        <time>2021-06-25T00:12:52.000Z</time>
        <extensions>
          <ns3:TrackPointExtension>
            <ns3:atemp>27.0</ns3:atemp>
            <ns3:hr>114</ns3:hr>
          </ns3:TrackPointExtension>
        </extensions>
      </trkpt>
      <trkpt lat="36.75848758779466152191162109375" lon="-118.4198634512722492218017578125">
        <ele>2865</ele>
        <time>2021-06-25T00:12:53.000Z</time>
        <extensions>
          <ns3:TrackPointExtension>
            <ns3:atemp>27.0</ns3:atemp>
            <ns3:hr>114</ns3:hr>
          </ns3:TrackPointExtension>
        </extensions>
      </trkpt>
      <trkpt lat="36.7585237137973308563232421875" lon="-118.41984811238944530487060546875">
        <ele>2865</ele>
        <time>2021-06-25T00:12:57.000Z</time>
        <extensions>
          <ns3:TrackPointExtension>
            <ns3:atemp>27.0</ns3:atemp>
            <ns3:hr>112</ns3:hr>
          </ns3:TrackPointExtension>
        </extensions>
      </trkpt>
      <trkpt lat="36.7585337720811367034912109375" lon="-118.41983252204954624176025390625">
        <ele>2865</ele>
        <time>2021-06-25T00:12:59.000Z</time>
        <extensions>
          <ns3:TrackPointExtension>
            <ns3:atemp>27.0</ns3:atemp>
            <ns3:hr>112</ns3:hr>
          </ns3:TrackPointExtension>
        </extensions>
      </trkpt>
      <trkpt lat="36.75855045206844806671142578125" lon="-118.4198232181370258331298828125">
        <ele>2865</ele>
        <time>2021-06-25T00:13:01.000Z</time>
        <extensions>
          <ns3:TrackPointExtension>
            <ns3:atemp>27.0</ns3:atemp>
            <ns3:hr>111</ns3:hr>
          </ns3:TrackPointExtension>
        </extensions>
      </trkpt>
      <trkpt lat="36.75856788642704486846923828125" lon="-118.4198161773383617401123046875">
        <ele>2865.39990234375</ele>
        <time>2021-06-25T00:13:04.000Z</time>
        <extensions>
          <ns3:TrackPointExtension>
            <ns3:atemp>27.0</ns3:atemp>
            <ns3:hr>110</ns3:hr>
          </ns3:TrackPointExtension>
        </extensions>
      </trkpt>
      <trkpt lat="36.75857953727245330810546875" lon="-118.41980821453034877777099609375">
        <ele>2865.39990234375</ele>
        <time>2021-06-25T00:13:06.000Z</time>
        <extensions>
          <ns3:TrackPointExtension>
            <ns3:atemp>27.0</ns3:atemp>
            <ns3:hr>109</ns3:hr>
          </ns3:TrackPointExtension>
        </extensions>
      </trkpt>
      <trkpt lat="36.75860946066677570343017578125" lon="-118.41976664029061794281005859375">
        <ele>2865.39990234375</ele>
        <time>2021-06-25T00:13:09.000Z</time>
        <extensions>
          <ns3:TrackPointExtension>
            <ns3:atemp>27.0</ns3:atemp>
            <ns3:hr>107</ns3:hr>
          </ns3:TrackPointExtension>
        </extensions>
      </trkpt>
      <trkpt lat="36.75862790085375308990478515625" lon="-118.419736213982105255126953125">
        <ele>2865.199951171875</ele>
        <time>2021-06-25T00:13:12.000Z</time>
        <extensions>
          <ns3:TrackPointExtension>
            <ns3:atemp>27.0</ns3:atemp>
            <ns3:hr>108</ns3:hr>
          </ns3:TrackPointExtension>
        </extensions>
      </trkpt>
      <trkpt lat="36.75864181481301784515380859375" lon="-118.41973252594470977783203125">
        <ele>2865.199951171875</ele>
        <time>2021-06-25T00:13:14.000Z</time>
        <extensions>
          <ns3:TrackPointExtension>
            <ns3:atemp>27.0</ns3:atemp>
            <ns3:hr>105</ns3:hr>
          </ns3:TrackPointExtension>
        </extensions>
      </trkpt>
      <trkpt lat="36.758650280535221099853515625" lon="-118.41971911489963531494140625">
        <ele>2865.199951171875</ele>
        <time>2021-06-25T00:13:16.000Z</time>
        <extensions>
          <ns3:TrackPointExtension>
            <ns3:atemp>27.0</ns3:atemp>
            <ns3:hr>102</ns3:hr>
          </ns3:TrackPointExtension>
        </extensions>
      </trkpt>
      <trkpt lat="36.7586732469499111175537109375" lon="-118.4197152592241764068603515625">
        <ele>2865.39990234375</ele>
        <time>2021-06-25T00:13:18.000Z</time>
        <extensions>
          <ns3:TrackPointExtension>
            <ns3:atemp>27.0</ns3:atemp>
            <ns3:hr>102</ns3:hr>
          </ns3:TrackPointExtension>
        </extensions>
      </trkpt>
      <trkpt lat="36.75868975929915904998779296875" lon="-118.419700004160404205322265625">
        <ele>2865.800048828125</ele>
        <time>2021-06-25T00:13:20.000Z</time>
        <extensions>
          <ns3:TrackPointExtension>
            <ns3:atemp>27.0</ns3:atemp>
            <ns3:hr>103</ns3:hr>
          </ns3:TrackPointExtension>
        </extensions>
      </trkpt>
      <trkpt lat="36.75868204794824123382568359375" lon="-118.41966622509062290191650390625">
        <ele>2865.800048828125</ele>
        <time>2021-06-25T00:13:23.000Z</time>
        <extensions>
          <ns3:TrackPointExtension>
            <ns3:atemp>26.0</ns3:atemp>
            <ns3:hr>102</ns3:hr>
          </ns3:TrackPointExtension>
        </extensions>
      </trkpt>
      <trkpt lat="36.7586947046220302581787109375" lon="-118.41964493505656719207763671875">
        <ele>2866</ele>
        <time>2021-06-25T00:13:25.000Z</time>
        <extensions>
          <ns3:TrackPointExtension>
            <ns3:atemp>27.0</ns3:atemp>
            <ns3:hr>101</ns3:hr>
          </ns3:TrackPointExtension>
        </extensions>
      </trkpt>
      <trkpt lat="36.7587317526340484619140625" lon="-118.41958760283887386322021484375">
        <ele>2866.800048828125</ele>
        <time>2021-06-25T00:13:32.000Z</time>
        <extensions>
          <ns3:TrackPointExtension>
            <ns3:atemp>26.0</ns3:atemp>
            <ns3:hr>102</ns3:hr>
          </ns3:TrackPointExtension>
        </extensions>
      </trkpt>
      <trkpt lat="36.75872839987277984619140625" lon="-118.419577963650226593017578125">
        <ele>2866.800048828125</ele>
        <time>2021-06-25T00:13:34.000Z</time>
        <extensions>
          <ns3:TrackPointExtension>
            <ns3:atemp>27.0</ns3:atemp>
            <ns3:hr>104</ns3:hr>
          </ns3:TrackPointExtension>
        </extensions>
      </trkpt>
      <trkpt lat="36.75872311927378177642822265625" lon="-118.4195586852729320526123046875">
        <ele>2866.60009765625</ele>
        <time>2021-06-25T00:13:37.000Z</time>
        <extensions>
          <ns3:TrackPointExtension>
            <ns3:atemp>27.0</ns3:atemp>
            <ns3:hr>106</ns3:hr>
          </ns3:TrackPointExtension>
        </extensions>
      </trkpt>
      <trkpt lat="36.7587205208837985992431640625" lon="-118.41951803304255008697509765625">
        <ele>2867</ele>
        <time>2021-06-25T00:13:42.000Z</time>
        <extensions>
          <ns3:TrackPointExtension>
            <ns3:atemp>27.0</ns3:atemp>
            <ns3:hr>106</ns3:hr>
          </ns3:TrackPointExtension>
        </extensions>
      </trkpt>
      <trkpt lat="36.75870266743004322052001953125" lon="-118.41948769055306911468505859375">
        <ele>2867</ele>
        <time>2021-06-25T00:13:47.000Z</time>
        <extensions>
          <ns3:TrackPointExtension>
            <ns3:atemp>27.0</ns3:atemp>
            <ns3:hr>104</ns3:hr>
          </ns3:TrackPointExtension>
        </extensions>
      </trkpt>
      <trkpt lat="36.75870350562036037445068359375" lon="-118.4194778837263584136962890625">
        <ele>2867</ele>
        <time>2021-06-25T00:13:50.000Z</time>
        <extensions>
          <ns3:TrackPointExtension>
            <ns3:atemp>27.0</ns3:atemp>
            <ns3:hr>104</ns3:hr>
          </ns3:TrackPointExtension>
        </extensions>
      </trkpt>
      <trkpt lat="36.7587178386747837066650390625" lon="-118.41941476799547672271728515625">
        <ele>2866.60009765625</ele>
        <time>2021-06-25T00:13:55.000Z</time>
        <extensions>
          <ns3:TrackPointExtension>
            <ns3:atemp>27.0</ns3:atemp>
            <ns3:hr>105</ns3:hr>
          </ns3:TrackPointExtension>
        </extensions>
      </trkpt>
      <trkpt lat="36.75870032049715518951416015625" lon="-118.41933782212436199188232421875">
        <ele>2867</ele>
        <time>2021-06-25T00:14:01.000Z</time>
        <extensions>
          <ns3:TrackPointExtension>
            <ns3:atemp>27.0</ns3:atemp>
            <ns3:hr>104</ns3:hr>
          </ns3:TrackPointExtension>
        </extensions>
      </trkpt>
      <trkpt lat="36.7586977221071720123291015625" lon="-118.4193236567080020904541015625">
        <ele>2867.199951171875</ele>
        <time>2021-06-25T00:14:03.000Z</time>
        <extensions>
          <ns3:TrackPointExtension>
            <ns3:atemp>27.0</ns3:atemp>
            <ns3:hr>104</ns3:hr>
          </ns3:TrackPointExtension>
        </extensions>
      </trkpt>
      <trkpt lat="36.75866880454123020172119140625" lon="-118.41923589818179607391357421875">
        <ele>2867.199951171875</ele>
        <time>2021-06-25T00:14:09.000Z</time>
        <extensions>
          <ns3:TrackPointExtension>
            <ns3:atemp>27.0</ns3:atemp>
            <ns3:hr>102</ns3:hr>
          </ns3:TrackPointExtension>
        </extensions>
      </trkpt>
      <trkpt lat="36.75865463912487030029296875" lon="-118.41921309940516948699951171875">
        <ele>2866.800048828125</ele>
        <time>2021-06-25T00:14:12.000Z</time>
        <extensions>
          <ns3:TrackPointExtension>
            <ns3:atemp>27.0</ns3:atemp>
            <ns3:hr>102</ns3:hr>
          </ns3:TrackPointExtension>
        </extensions>
      </trkpt>
      <trkpt lat="36.7586665414273738861083984375" lon="-118.4191885404288768768310546875">
        <ele>2866.800048828125</ele>
        <time>2021-06-25T00:14:15.000Z</time>
        <extensions>
          <ns3:TrackPointExtension>
            <ns3:atemp>27.0</ns3:atemp>
            <ns3:hr>103</ns3:hr>
          </ns3:TrackPointExtension>
        </extensions>
      </trkpt>
      <trkpt lat="36.75870736129581928253173828125" lon="-118.41911436058580875396728515625">
        <ele>2867</ele>
        <time>2021-06-25T00:14:22.000Z</time>
        <extensions>
          <ns3:TrackPointExtension>
            <ns3:atemp>27.0</ns3:atemp>
            <ns3:hr>100</ns3:hr>
          </ns3:TrackPointExtension>
        </extensions>
      </trkpt>
      <trkpt lat="36.7586982250213623046875" lon="-118.41906993649899959564208984375">
        <ele>2867.199951171875</ele>
        <time>2021-06-25T00:14:26.000Z</time>
        <extensions>
          <ns3:TrackPointExtension>
            <ns3:atemp>27.0</ns3:atemp>
            <ns3:hr>98</ns3:hr>
          </ns3:TrackPointExtension>
        </extensions>
      </trkpt>
      <trkpt lat="36.75869260914623737335205078125" lon="-118.41904160566627979278564453125">
        <ele>2867.39990234375</ele>
        <time>2021-06-25T00:14:28.000Z</time>
        <extensions>
          <ns3:TrackPointExtension>
            <ns3:atemp>27.0</ns3:atemp>
            <ns3:hr>97</ns3:hr>
          </ns3:TrackPointExtension>
        </extensions>
      </trkpt>
      <trkpt lat="36.7587081156671047210693359375" lon="-118.4189555235207080841064453125">
        <ele>2867.800048828125</ele>
        <time>2021-06-25T00:14:33.000Z</time>
        <extensions>
          <ns3:TrackPointExtension>
            <ns3:atemp>26.0</ns3:atemp>
            <ns3:hr>97</ns3:hr>
          </ns3:TrackPointExtension>
        </extensions>
      </trkpt>
      <trkpt lat="36.75868372432887554168701171875" lon="-118.418922163546085357666015625">
        <ele>2867.800048828125</ele>
        <time>2021-06-25T00:14:35.000Z</time>
        <extensions>
          <ns3:TrackPointExtension>
            <ns3:atemp>26.0</ns3:atemp>
            <ns3:hr>98</ns3:hr>
          </ns3:TrackPointExtension>
        </extensions>
      </trkpt>
      <trkpt lat="36.7586826346814632415771484375" lon="-118.418892323970794677734375">
        <ele>2868</ele>
        <time>2021-06-25T00:14:37.000Z</time>
        <extensions>
          <ns3:TrackPointExtension>
            <ns3:atemp>26.0</ns3:atemp>
            <ns3:hr>95</ns3:hr>
          </ns3:TrackPointExtension>
        </extensions>
      </trkpt>
      <trkpt lat="36.75867903046309947967529296875" lon="-118.41887966729700565338134765625">
        <ele>2868.199951171875</ele>
        <time>2021-06-25T00:14:38.000Z</time>
        <extensions>
          <ns3:TrackPointExtension>
            <ns3:atemp>26.0</ns3:atemp>
            <ns3:hr>95</ns3:hr>
          </ns3:TrackPointExtension>
        </extensions>
      </trkpt>
      <trkpt lat="36.75868012011051177978515625" lon="-118.41882468201220035552978515625">
        <ele>2867.39990234375</ele>
        <time>2021-06-25T00:14:42.000Z</time>
        <extensions>
          <ns3:TrackPointExtension>
            <ns3:atemp>26.0</ns3:atemp>
            <ns3:hr>93</ns3:hr>
          </ns3:TrackPointExtension>
        </extensions>
      </trkpt>
      <trkpt lat="36.7586942017078399658203125" lon="-118.4188016317784786224365234375">
        <ele>2867</ele>
        <time>2021-06-25T00:14:45.000Z</time>
        <extensions>
          <ns3:TrackPointExtension>
            <ns3:atemp>26.0</ns3:atemp>
            <ns3:hr>93</ns3:hr>
          </ns3:TrackPointExtension>
        </extensions>
      </trkpt>
      <trkpt lat="36.75869462080299854278564453125" lon="-118.41879450716078281402587890625">
        <ele>2867.199951171875</ele>
        <time>2021-06-25T00:14:46.000Z</time>
        <extensions>
          <ns3:TrackPointExtension>
            <ns3:atemp>26.0</ns3:atemp>
            <ns3:hr>92</ns3:hr>
          </ns3:TrackPointExtension>
        </extensions>
      </trkpt>
      <trkpt lat="36.75870534963905811309814453125" lon="-118.418762572109699249267578125">
        <ele>2867</ele>
        <time>2021-06-25T00:14:49.000Z</time>
        <extensions>
          <ns3:TrackPointExtension>
            <ns3:atemp>26.0</ns3:atemp>
            <ns3:hr>91</ns3:hr>
          </ns3:TrackPointExtension>
        </extensions>
      </trkpt>
      <trkpt lat="36.7587563954293727874755859375" lon="-118.41867707669734954833984375">
        <ele>2867.199951171875</ele>
        <time>2021-06-25T00:14:56.000Z</time>
        <extensions>
          <ns3:TrackPointExtension>
            <ns3:atemp>26.0</ns3:atemp>
            <ns3:hr>93</ns3:hr>
          </ns3:TrackPointExtension>
        </extensions>
      </trkpt>
      <trkpt lat="36.758754551410675048828125" lon="-118.41858185827732086181640625">
        <ele>2868</ele>
        <time>2021-06-25T00:15:03.000Z</time>
        <extensions>
          <ns3:TrackPointExtension>
            <ns3:atemp>26.0</ns3:atemp>
            <ns3:hr>93</ns3:hr>
          </ns3:TrackPointExtension>
        </extensions>
      </trkpt>
      <trkpt lat="36.75876251421868801116943359375" lon="-118.4185780026018619537353515625">
        <ele>2868</ele>
        <time>2021-06-25T00:15:05.000Z</time>
        <extensions>
          <ns3:TrackPointExtension>
            <ns3:atemp>26.0</ns3:atemp>
            <ns3:hr>95</ns3:hr>
          </ns3:TrackPointExtension>
        </extensions>
      </trkpt>
      <trkpt lat="36.758797466754913330078125" lon="-118.41851103119552135467529296875">
        <ele>2868.60009765625</ele>
        <time>2021-06-25T00:15:10.000Z</time>
        <extensions>
          <ns3:TrackPointExtension>
            <ns3:atemp>26.0</ns3:atemp>
            <ns3:hr>94</ns3:hr>
          </ns3:TrackPointExtension>
        </extensions>
      </trkpt>
      <trkpt lat="36.758809871971607208251953125" lon="-118.418484628200531005859375">
        <ele>2868.60009765625</ele>
        <time>2021-06-25T00:15:12.000Z</time>
        <extensions>
          <ns3:TrackPointExtension>
            <ns3:atemp>26.0</ns3:atemp>
            <ns3:hr>95</ns3:hr>
          </ns3:TrackPointExtension>
        </extensions>
      </trkpt>
      <trkpt lat="36.758823283016681671142578125" lon="-118.418468534946441650390625">
        <ele>2868.39990234375</ele>
        <time>2021-06-25T00:15:14.000Z</time>
        <extensions>
          <ns3:TrackPointExtension>
            <ns3:atemp>26.0</ns3:atemp>
            <ns3:hr>96</ns3:hr>
          </ns3:TrackPointExtension>
        </extensions>
      </trkpt>
      <trkpt lat="36.7588304914534091949462890625" lon="-118.41845185495913028717041015625">
        <ele>2868.39990234375</ele>
        <time>2021-06-25T00:15:16.000Z</time>
        <extensions>
          <ns3:TrackPointExtension>
            <ns3:atemp>26.0</ns3:atemp>
            <ns3:hr>97</ns3:hr>
          </ns3:TrackPointExtension>
        </extensions>
      </trkpt>
      <trkpt lat="36.7588395439088344573974609375" lon="-118.4184215962886810302734375">
        <ele>2868.199951171875</ele>
        <time>2021-06-25T00:15:19.000Z</time>
        <extensions>
          <ns3:TrackPointExtension>
            <ns3:atemp>26.0</ns3:atemp>
            <ns3:hr>96</ns3:hr>
          </ns3:TrackPointExtension>
        </extensions>
      </trkpt>
      <trkpt lat="36.75884909927845001220703125" lon="-118.41838429681956768035888671875">
        <ele>2868</ele>
        <time>2021-06-25T00:15:23.000Z</time>
        <extensions>
          <ns3:TrackPointExtension>
            <ns3:atemp>26.0</ns3:atemp>
            <ns3:hr>92</ns3:hr>
          </ns3:TrackPointExtension>
        </extensions>
      </trkpt>
      <trkpt lat="36.75888321362435817718505859375" lon="-118.41824113391339778900146484375">
        <ele>2868.199951171875</ele>
        <time>2021-06-25T00:15:32.000Z</time>
        <extensions>
          <ns3:TrackPointExtension>
            <ns3:atemp>26.0</ns3:atemp>
            <ns3:hr>94</ns3:hr>
          </ns3:TrackPointExtension>
        </extensions>
      </trkpt>
      <trkpt lat="36.75888287834823131561279296875" lon="-118.4182273037731647491455078125">
        <ele>2868.39990234375</ele>
        <time>2021-06-25T00:15:33.000Z</time>
        <extensions>
          <ns3:TrackPointExtension>
            <ns3:atemp>26.0</ns3:atemp>
            <ns3:hr>94</ns3:hr>
          </ns3:TrackPointExtension>
        </extensions>
      </trkpt>
      <trkpt lat="36.75887734629213809967041015625" lon="-118.41814289800822734832763671875">
        <ele>2868.800048828125</ele>
        <time>2021-06-25T00:15:39.000Z</time>
        <extensions>
          <ns3:TrackPointExtension>
            <ns3:atemp>26.0</ns3:atemp>
            <ns3:hr>93</ns3:hr>
          </ns3:TrackPointExtension>
        </extensions>
      </trkpt>
      <trkpt lat="36.75887516699731349945068359375" lon="-118.41811104677617549896240234375">
        <ele>2869.39990234375</ele>
        <time>2021-06-25T00:15:42.000Z</time>
        <extensions>
          <ns3:TrackPointExtension>
            <ns3:atemp>26.0</ns3:atemp>
            <ns3:hr>90</ns3:hr>
          </ns3:TrackPointExtension>
        </extensions>
      </trkpt>
      <trkpt lat="36.758885644376277923583984375" lon="-118.418048433959484100341796875">
        <ele>2869.60009765625</ele>
        <time>2021-06-25T00:15:47.000Z</time>
        <extensions>
          <ns3:TrackPointExtension>
            <ns3:atemp>26.0</ns3:atemp>
            <ns3:hr>90</ns3:hr>
          </ns3:TrackPointExtension>
        </extensions>
      </trkpt>
      <trkpt lat="36.75890014506876468658447265625" lon="-118.41801431961357593536376953125">
        <ele>2869.800048828125</ele>
        <time>2021-06-25T00:15:50.000Z</time>
        <extensions>
          <ns3:TrackPointExtension>
            <ns3:atemp>26.0</ns3:atemp>
            <ns3:hr>94</ns3:hr>
          </ns3:TrackPointExtension>
        </extensions>
      </trkpt>
      <trkpt lat="36.7589196749031543731689453125" lon="-118.4179683029651641845703125">
        <ele>2870.199951171875</ele>
        <time>2021-06-25T00:15:53.000Z</time>
        <extensions>
          <ns3:TrackPointExtension>
            <ns3:atemp>26.0</ns3:atemp>
            <ns3:hr>100</ns3:hr>
          </ns3:TrackPointExtension>
        </extensions>
      </trkpt>
      <trkpt lat="36.75892629660665988922119140625" lon="-118.4179548919200897216796875">
        <ele>2870.199951171875</ele>
        <time>2021-06-25T00:15:54.000Z</time>
        <extensions>
          <ns3:TrackPointExtension>
            <ns3:atemp>26.0</ns3:atemp>
            <ns3:hr>98</ns3:hr>
          </ns3:TrackPointExtension>
        </extensions>
      </trkpt>
      <trkpt lat="36.7589424736797809600830078125" lon="-118.41792731545865535736083984375">
        <ele>2870.800048828125</ele>
        <time>2021-06-25T00:15:57.000Z</time>
        <extensions>
          <ns3:TrackPointExtension>
            <ns3:atemp>26.0</ns3:atemp>
            <ns3:hr>101</ns3:hr>
          </ns3:TrackPointExtension>
        </extensions>
      </trkpt>
      <trkpt lat="36.75895378924906253814697265625" lon="-118.41789722442626953125">
        <ele>2871.199951171875</ele>
        <time>2021-06-25T00:15:59.000Z</time>
        <extensions>
          <ns3:TrackPointExtension>
            <ns3:atemp>26.0</ns3:atemp>
            <ns3:hr>103</ns3:hr>
          </ns3:TrackPointExtension>
        </extensions>
      </trkpt>
      <trkpt lat="36.7589582316577434539794921875" lon="-118.4178839810192584991455078125">
        <ele>2871.60009765625</ele>
        <time>2021-06-25T00:16:00.000Z</time>
        <extensions>
          <ns3:TrackPointExtension>
            <ns3:atemp>26.0</ns3:atemp>
            <ns3:hr>102</ns3:hr>
          </ns3:TrackPointExtension>
        </extensions>
      </trkpt>
      <trkpt lat="36.7589552141726016998291015625" lon="-118.41786411590874195098876953125">
        <ele>2871.800048828125</ele>
        <time>2021-06-25T00:16:01.000Z</time>
        <extensions>
          <ns3:TrackPointExtension>
            <ns3:atemp>26.0</ns3:atemp>
            <ns3:hr>105</ns3:hr>
          </ns3:TrackPointExtension>
        </extensions>
      </trkpt>
      <trkpt lat="36.75895370543003082275390625" lon="-118.41785456053912639617919921875">
        <ele>2872</ele>
        <time>2021-06-25T00:16:02.000Z</time>
        <extensions>
          <ns3:TrackPointExtension>
            <ns3:atemp>26.0</ns3:atemp>
            <ns3:hr>105</ns3:hr>
          </ns3:TrackPointExtension>
        </extensions>
      </trkpt>
      <trkpt lat="36.75895496271550655364990234375" lon="-118.41782505623996257781982421875">
        <ele>2872</ele>
        <time>2021-06-25T00:16:05.000Z</time>
        <extensions>
          <ns3:TrackPointExtension>
            <ns3:atemp>26.0</ns3:atemp>
            <ns3:hr>106</ns3:hr>
          </ns3:TrackPointExtension>
        </extensions>
      </trkpt>
      <trkpt lat="36.75897273235023021697998046875" lon="-118.41777074150741100311279296875">
        <ele>2872</ele>
        <time>2021-06-25T00:16:10.000Z</time>
        <extensions>
          <ns3:TrackPointExtension>
            <ns3:atemp>26.0</ns3:atemp>
            <ns3:hr>108</ns3:hr>
          </ns3:TrackPointExtension>
        </extensions>
      </trkpt>
      <trkpt lat="36.758998967707157135009765625" lon="-118.417758755385875701904296875">
        <ele>2872.39990234375</ele>
        <time>2021-06-25T00:16:13.000Z</time>
        <extensions>
          <ns3:TrackPointExtension>
            <ns3:atemp>26.0</ns3:atemp>
            <ns3:hr>108</ns3:hr>
          </ns3:TrackPointExtension>
        </extensions>
      </trkpt>
      <trkpt lat="36.7590276338160037994384765625" lon="-118.41770519502460956573486328125">
        <ele>2873.39990234375</ele>
        <time>2021-06-25T00:16:20.000Z</time>
        <extensions>
          <ns3:TrackPointExtension>
            <ns3:atemp>26.0</ns3:atemp>
            <ns3:hr>108</ns3:hr>
          </ns3:TrackPointExtension>
        </extensions>
      </trkpt>
      <trkpt lat="36.75904029048979282379150390625" lon="-118.4176898561418056488037109375">
        <ele>2873.800048828125</ele>
        <time>2021-06-25T00:16:22.000Z</time>
        <extensions>
          <ns3:TrackPointExtension>
            <ns3:atemp>26.0</ns3:atemp>
            <ns3:hr>111</ns3:hr>
          </ns3:TrackPointExtension>
        </extensions>
      </trkpt>
      <trkpt lat="36.7590621672570705413818359375" lon="-118.41763772070407867431640625">
        <ele>2874.60009765625</ele>
        <time>2021-06-25T00:16:28.000Z</time>
        <extensions>
          <ns3:TrackPointExtension>
            <ns3:atemp>26.0</ns3:atemp>
            <ns3:hr>113</ns3:hr>
          </ns3:TrackPointExtension>
        </extensions>
      </trkpt>
      <trkpt lat="36.759070716798305511474609375" lon="-118.4176020137965679168701171875">
        <ele>2875.60009765625</ele>
        <time>2021-06-25T00:16:32.000Z</time>
        <extensions>
          <ns3:TrackPointExtension>
            <ns3:atemp>26.0</ns3:atemp>
            <ns3:hr>115</ns3:hr>
          </ns3:TrackPointExtension>
        </extensions>
      </trkpt>
      <trkpt lat="36.75906811840832233428955078125" lon="-118.4175570867955684661865234375">
        <ele>2876</ele>
        <time>2021-06-25T00:16:36.000Z</time>
        <extensions>
          <ns3:TrackPointExtension>
            <ns3:atemp>26.0</ns3:atemp>
            <ns3:hr>114</ns3:hr>
          </ns3:TrackPointExtension>
        </extensions>
      </trkpt>
      <trkpt lat="36.75904716365039348602294921875" lon="-118.41751836240291595458984375">
        <ele>2876.39990234375</ele>
        <time>2021-06-25T00:16:40.000Z</time>
        <extensions>
          <ns3:TrackPointExtension>
            <ns3:atemp>26.0</ns3:atemp>
            <ns3:hr>111</ns3:hr>
          </ns3:TrackPointExtension>
        </extensions>
      </trkpt>
      <trkpt lat="36.7590455710887908935546875" lon="-118.417489863932132720947265625">
        <ele>2876.800048828125</ele>
        <time>2021-06-25T00:16:43.000Z</time>
        <extensions>
          <ns3:TrackPointExtension>
            <ns3:atemp>26.0</ns3:atemp>
            <ns3:hr>109</ns3:hr>
          </ns3:TrackPointExtension>
        </extensions>
      </trkpt>
      <trkpt lat="36.7590321600437164306640625" lon="-118.41743328608572483062744140625">
        <ele>2877.800048828125</ele>
        <time>2021-06-25T00:16:49.000Z</time>
        <extensions>
          <ns3:TrackPointExtension>
            <ns3:atemp>27.0</ns3:atemp>
            <ns3:hr>109</ns3:hr>
          </ns3:TrackPointExtension>
        </extensions>
      </trkpt>
      <trkpt lat="36.75903123803436756134033203125" lon="-118.41742071323096752166748046875">
        <ele>2878</ele>
        <time>2021-06-25T00:16:50.000Z</time>
        <extensions>
          <ns3:TrackPointExtension>
            <ns3:atemp>27.0</ns3:atemp>
            <ns3:hr>109</ns3:hr>
          </ns3:TrackPointExtension>
        </extensions>
      </trkpt>
      <trkpt lat="36.759032495319843292236328125" lon="-118.4173730202019214630126953125">
        <ele>2878.199951171875</ele>
        <time>2021-06-25T00:16:54.000Z</time>
        <extensions>
          <ns3:TrackPointExtension>
            <ns3:atemp>27.0</ns3:atemp>
            <ns3:hr>106</ns3:hr>
          </ns3:TrackPointExtension>
        </extensions>
      </trkpt>
      <trkpt lat="36.75904624164104461669921875" lon="-118.41734175570309162139892578125">
        <ele>2878.199951171875</ele>
        <time>2021-06-25T00:16:56.000Z</time>
        <extensions>
          <ns3:TrackPointExtension>
            <ns3:atemp>27.0</ns3:atemp>
            <ns3:hr>105</ns3:hr>
          </ns3:TrackPointExtension>
        </extensions>
      </trkpt>
      <trkpt lat="36.75904749892652034759521484375" lon="-118.41729171574115753173828125">
        <ele>2878.800048828125</ele>
        <time>2021-06-25T00:17:02.000Z</time>
        <extensions>
          <ns3:TrackPointExtension>
            <ns3:atemp>27.0</ns3:atemp>
            <ns3:hr>107</ns3:hr>
          </ns3:TrackPointExtension>
        </extensions>
      </trkpt>
      <trkpt lat="36.75906099379062652587890625" lon="-118.41724938713014125823974609375">
        <ele>2880.199951171875</ele>
        <time>2021-06-25T00:17:07.000Z</time>
        <extensions>
          <ns3:TrackPointExtension>
            <ns3:atemp>27.0</ns3:atemp>
            <ns3:hr>108</ns3:hr>
          </ns3:TrackPointExtension>
        </extensions>
      </trkpt>
      <trkpt lat="36.75906476564705371856689453125" lon="-118.41723446734249591827392578125">
        <ele>2880.39990234375</ele>
        <time>2021-06-25T00:17:09.000Z</time>
        <extensions>
          <ns3:TrackPointExtension>
            <ns3:atemp>27.0</ns3:atemp>
            <ns3:hr>108</ns3:hr>
          </ns3:TrackPointExtension>
        </extensions>
      </trkpt>
      <trkpt lat="36.75906124524772167205810546875" lon="-118.41722658835351467132568359375">
        <ele>2880.60009765625</ele>
        <time>2021-06-25T00:17:10.000Z</time>
        <extensions>
          <ns3:TrackPointExtension>
            <ns3:atemp>27.0</ns3:atemp>
            <ns3:hr>109</ns3:hr>
          </ns3:TrackPointExtension>
        </extensions>
      </trkpt>
      <trkpt lat="36.75906359218060970306396484375" lon="-118.41721150092780590057373046875">
        <ele>2881.199951171875</ele>
        <time>2021-06-25T00:17:12.000Z</time>
        <extensions>
          <ns3:TrackPointExtension>
            <ns3:atemp>27.0</ns3:atemp>
            <ns3:hr>109</ns3:hr>
          </ns3:TrackPointExtension>
        </extensions>
      </trkpt>
      <trkpt lat="36.7590618319809436798095703125" lon="-118.4171919710934162139892578125">
        <ele>2881.39990234375</ele>
        <time>2021-06-25T00:17:14.000Z</time>
        <extensions>
          <ns3:TrackPointExtension>
            <ns3:atemp>27.0</ns3:atemp>
            <ns3:hr>109</ns3:hr>
          </ns3:TrackPointExtension>
        </extensions>
      </trkpt>
      <trkpt lat="36.759055294096469879150390625" lon="-118.41718333773314952850341796875">
        <ele>2881.39990234375</ele>
        <time>2021-06-25T00:17:15.000Z</time>
        <extensions>
          <ns3:TrackPointExtension>
            <ns3:atemp>27.0</ns3:atemp>
            <ns3:hr>109</ns3:hr>
          </ns3:TrackPointExtension>
        </extensions>
      </trkpt>
      <trkpt lat="36.75904548726975917816162109375" lon="-118.41717612929642200469970703125">
        <ele>2881.39990234375</ele>
        <time>2021-06-25T00:17:16.000Z</time>
        <extensions>
          <ns3:TrackPointExtension>
            <ns3:atemp>27.0</ns3:atemp>
            <ns3:hr>109</ns3:hr>
          </ns3:TrackPointExtension>
        </extensions>
      </trkpt>
      <trkpt lat="36.75905420444905757904052734375" lon="-118.41714997775852680206298828125">
        <ele>2881.39990234375</ele>
        <time>2021-06-25T00:17:19.000Z</time>
        <extensions>
          <ns3:TrackPointExtension>
            <ns3:atemp>27.0</ns3:atemp>
            <ns3:hr>110</ns3:hr>
          </ns3:TrackPointExtension>
        </extensions>
      </trkpt>
      <trkpt lat="36.7590735666453838348388671875" lon="-118.417152576148509979248046875">
        <ele>2881.800048828125</ele>
        <time>2021-06-25T00:17:23.000Z</time>
        <extensions>
          <ns3:TrackPointExtension>
            <ns3:atemp>27.0</ns3:atemp>
            <ns3:hr>111</ns3:hr>
          </ns3:TrackPointExtension>
        </extensions>
      </trkpt>
      <trkpt lat="36.7590866424143314361572265625" lon="-118.41715115122497081756591796875">
        <ele>2882.199951171875</ele>
        <time>2021-06-25T00:17:26.000Z</time>
        <extensions>
          <ns3:TrackPointExtension>
            <ns3:atemp>27.0</ns3:atemp>
            <ns3:hr>110</ns3:hr>
          </ns3:TrackPointExtension>
        </extensions>
      </trkpt>
      <trkpt lat="36.75911254249513149261474609375" lon="-118.4171872772276401519775390625">
        <ele>2883.199951171875</ele>
        <time>2021-06-25T00:17:31.000Z</time>
        <extensions>
          <ns3:TrackPointExtension>
            <ns3:atemp>27.0</ns3:atemp>
            <ns3:hr>112</ns3:hr>
          </ns3:TrackPointExtension>
        </extensions>
      </trkpt>
      <trkpt lat="36.759118326008319854736328125" lon="-118.4171956591308116912841796875">
        <ele>2883.39990234375</ele>
        <time>2021-06-25T00:17:32.000Z</time>
        <extensions>
          <ns3:TrackPointExtension>
            <ns3:atemp>27.0</ns3:atemp>
            <ns3:hr>111</ns3:hr>
          </ns3:TrackPointExtension>
        </extensions>
      </trkpt>
      <trkpt lat="36.75914556719362735748291015625" lon="-118.4172261692583560943603515625">
        <ele>2884.39990234375</ele>
        <time>2021-06-25T00:17:36.000Z</time>
        <extensions>
          <ns3:TrackPointExtension>
            <ns3:atemp>27.0</ns3:atemp>
            <ns3:hr>113</ns3:hr>
          </ns3:TrackPointExtension>
        </extensions>
      </trkpt>
      <trkpt lat="36.7591728083789348602294921875" lon="-118.41723849065601825714111328125">
        <ele>2884.39990234375</ele>
        <time>2021-06-25T00:17:39.000Z</time>
        <extensions>
          <ns3:TrackPointExtension>
            <ns3:atemp>27.0</ns3:atemp>
            <ns3:hr>116</ns3:hr>
          </ns3:TrackPointExtension>
        </extensions>
      </trkpt>
      <trkpt lat="36.7591788433492183685302734375" lon="-118.4172462858259677886962890625">
        <ele>2884.39990234375</ele>
        <time>2021-06-25T00:17:40.000Z</time>
        <extensions>
          <ns3:TrackPointExtension>
            <ns3:atemp>27.0</ns3:atemp>
            <ns3:hr>118</ns3:hr>
          </ns3:TrackPointExtension>
        </extensions>
      </trkpt>
      <trkpt lat="36.7591989599168300628662109375" lon="-118.41727889142930507659912109375">
        <ele>2884.199951171875</ele>
        <time>2021-06-25T00:17:44.000Z</time>
        <extensions>
          <ns3:TrackPointExtension>
            <ns3:atemp>27.0</ns3:atemp>
            <ns3:hr>121</ns3:hr>
          </ns3:TrackPointExtension>
        </extensions>
      </trkpt>
      <trkpt lat="36.75921949557960033416748046875" lon="-118.4172737784683704376220703125">
        <ele>2884.199951171875</ele>
        <time>2021-06-25T00:17:47.000Z</time>
        <extensions>
          <ns3:TrackPointExtension>
            <ns3:atemp>27.0</ns3:atemp>
            <ns3:hr>123</ns3:hr>
          </ns3:TrackPointExtension>
        </extensions>
      </trkpt>
      <trkpt lat="36.759206168353557586669921875" lon="-118.417210914194583892822265625">
        <ele>2884.800048828125</ele>
        <time>2021-06-25T00:17:52.000Z</time>
        <extensions>
          <ns3:TrackPointExtension>
            <ns3:atemp>27.0</ns3:atemp>
            <ns3:hr>126</ns3:hr>
          </ns3:TrackPointExtension>
        </extensions>
      </trkpt>
      <trkpt lat="36.7592096887528896331787109375" lon="-118.41720052063465118408203125">
        <ele>2884.800048828125</ele>
        <time>2021-06-25T00:17:53.000Z</time>
        <extensions>
          <ns3:TrackPointExtension>
            <ns3:atemp>27.0</ns3:atemp>
            <ns3:hr>126</ns3:hr>
          </ns3:TrackPointExtension>
        </extensions>
      </trkpt>
      <trkpt lat="36.759205497801303863525390625" lon="-118.41718786396086215972900390625">
        <ele>2885.199951171875</ele>
        <time>2021-06-25T00:17:55.000Z</time>
        <extensions>
          <ns3:TrackPointExtension>
            <ns3:atemp>27.0</ns3:atemp>
            <ns3:hr>126</ns3:hr>
          </ns3:TrackPointExtension>
        </extensions>
      </trkpt>
      <trkpt lat="36.75920625217258930206298828125" lon="-118.4171785600483417510986328125">
        <ele>2885.39990234375</ele>
        <time>2021-06-25T00:17:56.000Z</time>
        <extensions>
          <ns3:TrackPointExtension>
            <ns3:atemp>27.0</ns3:atemp>
            <ns3:hr>126</ns3:hr>
          </ns3:TrackPointExtension>
        </extensions>
      </trkpt>
      <trkpt lat="36.75919854082167148590087890625" lon="-118.417164646089076995849609375">
        <ele>2885.800048828125</ele>
        <time>2021-06-25T00:17:58.000Z</time>
        <extensions>
          <ns3:TrackPointExtension>
            <ns3:atemp>27.0</ns3:atemp>
            <ns3:hr>126</ns3:hr>
          </ns3:TrackPointExtension>
        </extensions>
      </trkpt>
      <trkpt lat="36.75919644534587860107421875" lon="-118.41715358197689056396484375">
        <ele>2886</ele>
        <time>2021-06-25T00:17:59.000Z</time>
        <extensions>
          <ns3:TrackPointExtension>
            <ns3:atemp>27.0</ns3:atemp>
            <ns3:hr>126</ns3:hr>
          </ns3:TrackPointExtension>
        </extensions>
      </trkpt>
      <trkpt lat="36.75919703207910060882568359375" lon="-118.417143188416957855224609375">
        <ele>2886</ele>
        <time>2021-06-25T00:18:00.000Z</time>
        <extensions>
          <ns3:TrackPointExtension>
            <ns3:atemp>27.0</ns3:atemp>
            <ns3:hr>126</ns3:hr>
          </ns3:TrackPointExtension>
        </extensions>
      </trkpt>
      <trkpt lat="36.75919736735522747039794921875" lon="-118.41712030582129955291748046875">
        <ele>2886.39990234375</ele>
        <time>2021-06-25T00:18:02.000Z</time>
        <extensions>
          <ns3:TrackPointExtension>
            <ns3:atemp>27.0</ns3:atemp>
            <ns3:hr>126</ns3:hr>
          </ns3:TrackPointExtension>
        </extensions>
      </trkpt>
      <trkpt lat="36.75919803790748119354248046875" lon="-118.4170960821211338043212890625">
        <ele>2886.800048828125</ele>
        <time>2021-06-25T00:18:04.000Z</time>
        <extensions>
          <ns3:TrackPointExtension>
            <ns3:atemp>27.0</ns3:atemp>
            <ns3:hr>125</ns3:hr>
          </ns3:TrackPointExtension>
        </extensions>
      </trkpt>
      <trkpt lat="36.759200803935527801513671875" lon="-118.41707722283899784088134765625">
        <ele>2886.800048828125</ele>
        <time>2021-06-25T00:18:06.000Z</time>
        <extensions>
          <ns3:TrackPointExtension>
            <ns3:atemp>27.0</ns3:atemp>
            <ns3:hr>125</ns3:hr>
          </ns3:TrackPointExtension>
        </extensions>
      </trkpt>
      <trkpt lat="36.759188063442707061767578125" lon="-118.41704034246504306793212890625">
        <ele>2887.199951171875</ele>
        <time>2021-06-25T00:18:09.000Z</time>
        <extensions>
          <ns3:TrackPointExtension>
            <ns3:atemp>27.0</ns3:atemp>
            <ns3:hr>124</ns3:hr>
          </ns3:TrackPointExtension>
        </extensions>
      </trkpt>
      <trkpt lat="36.75918580032885074615478515625" lon="-118.417017795145511627197265625">
        <ele>2887.39990234375</ele>
        <time>2021-06-25T00:18:13.000Z</time>
        <extensions>
          <ns3:TrackPointExtension>
            <ns3:atemp>27.0</ns3:atemp>
            <ns3:hr>121</ns3:hr>
          </ns3:TrackPointExtension>
        </extensions>
      </trkpt>
      <trkpt lat="36.7591795139014720916748046875" lon="-118.41700740158557891845703125">
        <ele>2887.800048828125</ele>
        <time>2021-06-25T00:18:15.000Z</time>
        <extensions>
          <ns3:TrackPointExtension>
            <ns3:atemp>27.0</ns3:atemp>
            <ns3:hr>120</ns3:hr>
          </ns3:TrackPointExtension>
        </extensions>
      </trkpt>
      <trkpt lat="36.75920306704938411712646484375" lon="-118.416981585323810577392578125">
        <ele>2887.39990234375</ele>
        <time>2021-06-25T00:18:20.000Z</time>
        <extensions>
          <ns3:TrackPointExtension>
            <ns3:atemp>27.0</ns3:atemp>
            <ns3:hr>118</ns3:hr>
          </ns3:TrackPointExtension>
        </extensions>
      </trkpt>
      <trkpt lat="36.7592060007154941558837890625" lon="-118.41697345487773418426513671875">
        <ele>2886.800048828125</ele>
        <time>2021-06-25T00:18:24.000Z</time>
        <extensions>
          <ns3:TrackPointExtension>
            <ns3:atemp>27.0</ns3:atemp>
            <ns3:hr>117</ns3:hr>
          </ns3:TrackPointExtension>
        </extensions>
      </trkpt>
      <trkpt lat="36.75916098989546298980712890625" lon="-118.41692366637289524078369140625">
        <ele>2888.39990234375</ele>
        <time>2021-06-25T00:18:32.000Z</time>
        <extensions>
          <ns3:TrackPointExtension>
            <ns3:atemp>27.0</ns3:atemp>
            <ns3:hr>115</ns3:hr>
          </ns3:TrackPointExtension>
        </extensions>
      </trkpt>
      <trkpt lat="36.75915998406708240509033203125" lon="-118.41691427864134311676025390625">
        <ele>2889.199951171875</ele>
        <time>2021-06-25T00:18:33.000Z</time>
        <extensions>
          <ns3:TrackPointExtension>
            <ns3:atemp>27.0</ns3:atemp>
            <ns3:hr>115</ns3:hr>
          </ns3:TrackPointExtension>
        </extensions>
      </trkpt>
      <trkpt lat="36.759148500859737396240234375" lon="-118.416878320276737213134765625">
        <ele>2889.60009765625</ele>
        <time>2021-06-25T00:18:38.000Z</time>
        <extensions>
          <ns3:TrackPointExtension>
            <ns3:atemp>27.0</ns3:atemp>
            <ns3:hr>113</ns3:hr>
          </ns3:TrackPointExtension>
        </extensions>
      </trkpt>
      <trkpt lat="36.7591272108256816864013671875" lon="-118.416828028857707977294921875">
        <ele>2890.199951171875</ele>
        <time>2021-06-25T00:18:45.000Z</time>
        <extensions>
          <ns3:TrackPointExtension>
            <ns3:atemp>27.0</ns3:atemp>
            <ns3:hr>111</ns3:hr>
          </ns3:TrackPointExtension>
        </extensions>
      </trkpt>
      <trkpt lat="36.7591094411909580230712890625" lon="-118.41681294143199920654296875">
        <ele>2891</ele>
        <time>2021-06-25T00:18:48.000Z</time>
        <extensions>
          <ns3:TrackPointExtension>
            <ns3:atemp>27.0</ns3:atemp>
            <ns3:hr>108</ns3:hr>
          </ns3:TrackPointExtension>
        </extensions>
      </trkpt>
      <trkpt lat="36.7591034062206745147705078125" lon="-118.4167876280844211578369140625">
        <ele>2891.39990234375</ele>
        <time>2021-06-25T00:18:51.000Z</time>
        <extensions>
          <ns3:TrackPointExtension>
            <ns3:atemp>27.0</ns3:atemp>
            <ns3:hr>106</ns3:hr>
          </ns3:TrackPointExtension>
        </extensions>
      </trkpt>
      <trkpt lat="36.759097874164581298828125" lon="-118.41676793061196804046630859375">
        <ele>2891.800048828125</ele>
        <time>2021-06-25T00:18:54.000Z</time>
        <extensions>
          <ns3:TrackPointExtension>
            <ns3:atemp>27.0</ns3:atemp>
            <ns3:hr>106</ns3:hr>
          </ns3:TrackPointExtension>
        </extensions>
      </trkpt>
      <trkpt lat="36.75908488221466541290283203125" lon="-118.41675871051847934722900390625">
        <ele>2891.800048828125</ele>
        <time>2021-06-25T00:18:56.000Z</time>
        <extensions>
          <ns3:TrackPointExtension>
            <ns3:atemp>27.0</ns3:atemp>
            <ns3:hr>105</ns3:hr>
          </ns3:TrackPointExtension>
        </extensions>
      </trkpt>
      <trkpt lat="36.759076081216335296630859375" lon="-118.41675116680562496185302734375">
        <ele>2892.39990234375</ele>
        <time>2021-06-25T00:18:59.000Z</time>
        <extensions>
          <ns3:TrackPointExtension>
            <ns3:atemp>27.0</ns3:atemp>
            <ns3:hr>107</ns3:hr>
          </ns3:TrackPointExtension>
        </extensions>
      </trkpt>
      <trkpt lat="36.7590671963989734649658203125" lon="-118.41675150208175182342529296875">
        <ele>2892.800048828125</ele>
        <time>2021-06-25T00:19:00.000Z</time>
        <extensions>
          <ns3:TrackPointExtension>
            <ns3:atemp>27.0</ns3:atemp>
            <ns3:hr>107</ns3:hr>
          </ns3:TrackPointExtension>
        </extensions>
      </trkpt>
      <trkpt lat="36.75904087722301483154296875" lon="-118.416725434362888336181640625">
        <ele>2893.800048828125</ele>
        <time>2021-06-25T00:19:06.000Z</time>
        <extensions>
          <ns3:TrackPointExtension>
            <ns3:atemp>27.0</ns3:atemp>
            <ns3:hr>108</ns3:hr>
          </ns3:TrackPointExtension>
        </extensions>
      </trkpt>
      <trkpt lat="36.75903257913887500762939453125" lon="-118.41670322231948375701904296875">
        <ele>2894.199951171875</ele>
        <time>2021-06-25T00:19:10.000Z</time>
        <extensions>
          <ns3:TrackPointExtension>
            <ns3:atemp>27.0</ns3:atemp>
            <ns3:hr>110</ns3:hr>
          </ns3:TrackPointExtension>
        </extensions>
      </trkpt>
      <trkpt lat="36.75901313312351703643798828125" lon="-118.41667338274419307708740234375">
        <ele>2895</ele>
        <time>2021-06-25T00:19:16.000Z</time>
        <extensions>
          <ns3:TrackPointExtension>
            <ns3:atemp>27.0</ns3:atemp>
            <ns3:hr>111</ns3:hr>
          </ns3:TrackPointExtension>
        </extensions>
      </trkpt>
      <trkpt lat="36.7589927650988101959228515625" lon="-118.41665661893784999847412109375">
        <ele>2895.60009765625</ele>
        <time>2021-06-25T00:19:19.000Z</time>
        <extensions>
          <ns3:TrackPointExtension>
            <ns3:atemp>27.0</ns3:atemp>
            <ns3:hr>110</ns3:hr>
          </ns3:TrackPointExtension>
        </extensions>
      </trkpt>
      <trkpt lat="36.7589562200009822845458984375" lon="-118.41662124730646610260009765625">
        <ele>2895.60009765625</ele>
        <time>2021-06-25T00:19:25.000Z</time>
        <extensions>
          <ns3:TrackPointExtension>
            <ns3:atemp>27.0</ns3:atemp>
            <ns3:hr>107</ns3:hr>
          </ns3:TrackPointExtension>
        </extensions>
      </trkpt>
      <trkpt lat="36.758955381810665130615234375" lon="-118.41662175022065639495849609375">
        <ele>2895.39990234375</ele>
        <time>2021-06-25T00:19:26.000Z</time>
        <extensions>
          <ns3:TrackPointExtension>
            <ns3:atemp>27.0</ns3:atemp>
            <ns3:hr>106</ns3:hr>
          </ns3:TrackPointExtension>
        </extensions>
      </trkpt>
      <trkpt lat="36.75893886946141719818115234375" lon="-118.41661303304135799407958984375">
        <ele>2895.800048828125</ele>
        <time>2021-06-25T00:19:38.000Z</time>
        <extensions>
          <ns3:TrackPointExtension>
            <ns3:atemp>27.0</ns3:atemp>
            <ns3:hr>110</ns3:hr>
          </ns3:TrackPointExtension>
        </extensions>
      </trkpt>
      <trkpt lat="36.75893886946141719818115234375" lon="-118.41661303304135799407958984375">
        <ele>2895.800048828125</ele>
        <time>2021-06-25T00:19:40.000Z</time>
        <extensions>
          <ns3:TrackPointExtension>
            <ns3:atemp>27.0</ns3:atemp>
            <ns3:hr>113</ns3:hr>
          </ns3:TrackPointExtension>
        </extensions>
      </trkpt>
      <trkpt lat="36.75893886946141719818115234375" lon="-118.41661303304135799407958984375">
        <ele>2895.60009765625</ele>
        <time>2021-06-25T00:19:42.000Z</time>
        <extensions>
          <ns3:TrackPointExtension>
            <ns3:atemp>27.0</ns3:atemp>
            <ns3:hr>117</ns3:hr>
          </ns3:TrackPointExtension>
        </extensions>
      </trkpt>
      <trkpt lat="36.75893886946141719818115234375" lon="-118.41661303304135799407958984375">
        <ele>2895.60009765625</ele>
        <time>2021-06-25T00:19:44.000Z</time>
        <extensions>
          <ns3:TrackPointExtension>
            <ns3:atemp>27.0</ns3:atemp>
            <ns3:hr>120</ns3:hr>
          </ns3:TrackPointExtension>
        </extensions>
      </trkpt>
      <trkpt lat="36.75893601961433887481689453125" lon="-118.41662225313484668731689453125">
        <ele>2896</ele>
        <time>2021-06-25T00:19:55.000Z</time>
        <extensions>
          <ns3:TrackPointExtension>
            <ns3:atemp>27.0</ns3:atemp>
            <ns3:hr>118</ns3:hr>
          </ns3:TrackPointExtension>
        </extensions>
      </trkpt>
      <trkpt lat="36.7589329183101654052734375" lon="-118.416622169315814971923828125">
        <ele>2895</ele>
        <time>2021-06-25T00:20:02.000Z</time>
        <extensions>
          <ns3:TrackPointExtension>
            <ns3:atemp>27.0</ns3:atemp>
            <ns3:hr>117</ns3:hr>
          </ns3:TrackPointExtension>
        </extensions>
      </trkpt>
      <trkpt lat="36.7589179985225200653076171875" lon="-118.4166199900209903717041015625">
        <ele>2895</ele>
        <time>2021-06-25T00:20:12.000Z</time>
        <extensions>
          <ns3:TrackPointExtension>
            <ns3:atemp>27.0</ns3:atemp>
            <ns3:hr>114</ns3:hr>
          </ns3:TrackPointExtension>
        </extensions>
      </trkpt>
      <trkpt lat="36.75891690887510776519775390625" lon="-118.4166122786700725555419921875">
        <ele>2895</ele>
        <time>2021-06-25T00:20:17.000Z</time>
        <extensions>
          <ns3:TrackPointExtension>
            <ns3:atemp>27.0</ns3:atemp>
            <ns3:hr>111</ns3:hr>
          </ns3:TrackPointExtension>
        </extensions>
      </trkpt>
      <trkpt lat="36.75891690887510776519775390625" lon="-118.41659274883568286895751953125">
        <ele>2895.39990234375</ele>
        <time>2021-06-25T00:20:23.000Z</time>
        <extensions>
          <ns3:TrackPointExtension>
            <ns3:atemp>27.0</ns3:atemp>
            <ns3:hr>108</ns3:hr>
          </ns3:TrackPointExtension>
        </extensions>
      </trkpt>
      <trkpt lat="36.75892059691250324249267578125" lon="-118.41654195450246334075927734375">
        <ele>2896</ele>
        <time>2021-06-25T00:20:27.000Z</time>
        <extensions>
          <ns3:TrackPointExtension>
            <ns3:atemp>27.0</ns3:atemp>
            <ns3:hr>107</ns3:hr>
          </ns3:TrackPointExtension>
        </extensions>
      </trkpt>
      <trkpt lat="36.75893736071884632110595703125" lon="-118.4164721332490444183349609375">
        <ele>2896</ele>
        <time>2021-06-25T00:20:31.000Z</time>
        <extensions>
          <ns3:TrackPointExtension>
            <ns3:atemp>27.0</ns3:atemp>
            <ns3:hr>105</ns3:hr>
          </ns3:TrackPointExtension>
        </extensions>
      </trkpt>
      <trkpt lat="36.7589478380978107452392578125" lon="-118.41643198393285274505615234375">
        <ele>2896</ele>
        <time>2021-06-25T00:20:34.000Z</time>
        <extensions>
          <ns3:TrackPointExtension>
            <ns3:atemp>27.0</ns3:atemp>
            <ns3:hr>105</ns3:hr>
          </ns3:TrackPointExtension>
        </extensions>
      </trkpt>
      <trkpt lat="36.75895278342068195343017578125" lon="-118.4163749031722545623779296875">
        <ele>2896</ele>
        <time>2021-06-25T00:20:38.000Z</time>
        <extensions>
          <ns3:TrackPointExtension>
            <ns3:atemp>27.0</ns3:atemp>
            <ns3:hr>102</ns3:hr>
          </ns3:TrackPointExtension>
        </extensions>
      </trkpt>
      <trkpt lat="36.7589595727622509002685546875" lon="-118.41635135002434253692626953125">
        <ele>2896.199951171875</ele>
        <time>2021-06-25T00:20:40.000Z</time>
        <extensions>
          <ns3:TrackPointExtension>
            <ns3:atemp>27.0</ns3:atemp>
            <ns3:hr>99</ns3:hr>
          </ns3:TrackPointExtension>
        </extensions>
      </trkpt>
      <trkpt lat="36.75897172652184963226318359375" lon="-118.4162951074540615081787109375">
        <ele>2896.199951171875</ele>
        <time>2021-06-25T00:20:45.000Z</time>
        <extensions>
          <ns3:TrackPointExtension>
            <ns3:atemp>27.0</ns3:atemp>
            <ns3:hr>98</ns3:hr>
          </ns3:TrackPointExtension>
        </extensions>
      </trkpt>
      <trkpt lat="36.758999638259410858154296875" lon="-118.41620215214788913726806640625">
        <ele>2895.800048828125</ele>
        <time>2021-06-25T00:20:53.000Z</time>
        <extensions>
          <ns3:TrackPointExtension>
            <ns3:atemp>27.0</ns3:atemp>
            <ns3:hr>101</ns3:hr>
          </ns3:TrackPointExtension>
        </extensions>
      </trkpt>
      <trkpt lat="36.75900760106742382049560546875" lon="-118.41619695536792278289794921875">
        <ele>2895.800048828125</ele>
        <time>2021-06-25T00:20:54.000Z</time>
        <extensions>
          <ns3:TrackPointExtension>
            <ns3:atemp>27.0</ns3:atemp>
            <ns3:hr>101</ns3:hr>
          </ns3:TrackPointExtension>
        </extensions>
      </trkpt>
      <trkpt lat="36.75902956165373325347900390625" lon="-118.4161006473004817962646484375">
        <ele>2895.39990234375</ele>
        <time>2021-06-25T00:21:02.000Z</time>
        <extensions>
          <ns3:TrackPointExtension>
            <ns3:atemp>27.0</ns3:atemp>
            <ns3:hr>101</ns3:hr>
          </ns3:TrackPointExtension>
        </extensions>
      </trkpt>
      <trkpt lat="36.75903559662401676177978515625" lon="-118.41608782298862934112548828125">
        <ele>2895</ele>
        <time>2021-06-25T00:21:03.000Z</time>
        <extensions>
          <ns3:TrackPointExtension>
            <ns3:atemp>27.0</ns3:atemp>
            <ns3:hr>101</ns3:hr>
          </ns3:TrackPointExtension>
        </extensions>
      </trkpt>
      <trkpt lat="36.759037189185619354248046875" lon="-118.41607273556292057037353515625">
        <ele>2894.800048828125</ele>
        <time>2021-06-25T00:21:04.000Z</time>
        <extensions>
          <ns3:TrackPointExtension>
            <ns3:atemp>27.0</ns3:atemp>
            <ns3:hr>100</ns3:hr>
          </ns3:TrackPointExtension>
        </extensions>
      </trkpt>
      <trkpt lat="36.7590554617345333099365234375" lon="-118.41601322405040264129638671875">
        <ele>2894.199951171875</ele>
        <time>2021-06-25T00:21:09.000Z</time>
        <extensions>
          <ns3:TrackPointExtension>
            <ns3:atemp>27.0</ns3:atemp>
            <ns3:hr>98</ns3:hr>
          </ns3:TrackPointExtension>
        </extensions>
      </trkpt>
      <trkpt lat="36.7590785957872867584228515625" lon="-118.41595865786075592041015625">
        <ele>2894</ele>
        <time>2021-06-25T00:21:14.000Z</time>
        <extensions>
          <ns3:TrackPointExtension>
            <ns3:atemp>27.0</ns3:atemp>
            <ns3:hr>95</ns3:hr>
          </ns3:TrackPointExtension>
        </extensions>
      </trkpt>
      <trkpt lat="36.7590849660336971282958984375" lon="-118.41593611054122447967529296875">
        <ele>2894</ele>
        <time>2021-06-25T00:21:16.000Z</time>
        <extensions>
          <ns3:TrackPointExtension>
            <ns3:atemp>27.0</ns3:atemp>
            <ns3:hr>94</ns3:hr>
          </ns3:TrackPointExtension>
        </extensions>
      </trkpt>
      <trkpt lat="36.75908404402434825897216796875" lon="-118.41590945608913898468017578125">
        <ele>2894</ele>
        <time>2021-06-25T00:21:18.000Z</time>
        <extensions>
          <ns3:TrackPointExtension>
            <ns3:atemp>27.0</ns3:atemp>
            <ns3:hr>92</ns3:hr>
          </ns3:TrackPointExtension>
        </extensions>
      </trkpt>
      <trkpt lat="36.75908857025206089019775390625" lon="-118.41579780913889408111572265625">
        <ele>2894.60009765625</ele>
        <time>2021-06-25T00:21:26.000Z</time>
        <extensions>
          <ns3:TrackPointExtension>
            <ns3:atemp>27.0</ns3:atemp>
            <ns3:hr>91</ns3:hr>
          </ns3:TrackPointExtension>
        </extensions>
      </trkpt>
      <trkpt lat="36.75909183919429779052734375" lon="-118.41577492654323577880859375">
        <ele>2894.60009765625</ele>
        <time>2021-06-25T00:21:28.000Z</time>
        <extensions>
          <ns3:TrackPointExtension>
            <ns3:atemp>27.0</ns3:atemp>
            <ns3:hr>90</ns3:hr>
          </ns3:TrackPointExtension>
        </extensions>
      </trkpt>
      <trkpt lat="36.759081780910491943359375" lon="-118.415755145251750946044921875">
        <ele>2894.60009765625</ele>
        <time>2021-06-25T00:21:30.000Z</time>
        <extensions>
          <ns3:TrackPointExtension>
            <ns3:atemp>27.0</ns3:atemp>
            <ns3:hr>90</ns3:hr>
          </ns3:TrackPointExtension>
        </extensions>
      </trkpt>
      <trkpt lat="36.759076416492462158203125" lon="-118.4157217852771282196044921875">
        <ele>2894.60009765625</ele>
        <time>2021-06-25T00:21:32.000Z</time>
        <extensions>
          <ns3:TrackPointExtension>
            <ns3:atemp>27.0</ns3:atemp>
            <ns3:hr>90</ns3:hr>
          </ns3:TrackPointExtension>
        </extensions>
      </trkpt>
      <trkpt lat="36.75908857025206089019775390625" lon="-118.4156084619462490081787109375">
        <ele>2894.39990234375</ele>
        <time>2021-06-25T00:21:40.000Z</time>
        <extensions>
          <ns3:TrackPointExtension>
            <ns3:atemp>27.0</ns3:atemp>
            <ns3:hr>91</ns3:hr>
          </ns3:TrackPointExtension>
        </extensions>
      </trkpt>
      <trkpt lat="36.7591164819896221160888671875" lon="-118.415555991232395172119140625">
        <ele>2894</ele>
        <time>2021-06-25T00:21:46.000Z</time>
        <extensions>
          <ns3:TrackPointExtension>
            <ns3:atemp>27.0</ns3:atemp>
            <ns3:hr>89</ns3:hr>
          </ns3:TrackPointExtension>
        </extensions>
      </trkpt>
      <trkpt lat="36.7591154761612415313720703125" lon="-118.41554299928247928619384765625">
        <ele>2894</ele>
        <time>2021-06-25T00:21:47.000Z</time>
        <extensions>
          <ns3:TrackPointExtension>
            <ns3:atemp>27.0</ns3:atemp>
            <ns3:hr>89</ns3:hr>
          </ns3:TrackPointExtension>
        </extensions>
      </trkpt>
      <trkpt lat="36.75911237485706806182861328125" lon="-118.4154951386153697967529296875">
        <ele>2894.39990234375</ele>
        <time>2021-06-25T00:21:52.000Z</time>
        <extensions>
          <ns3:TrackPointExtension>
            <ns3:atemp>27.0</ns3:atemp>
            <ns3:hr>92</ns3:hr>
          </ns3:TrackPointExtension>
        </extensions>
      </trkpt>
      <trkpt lat="36.75910784862935543060302734375" lon="-118.41545230709016323089599609375">
        <ele>2894.39990234375</ele>
        <time>2021-06-25T00:21:56.000Z</time>
        <extensions>
          <ns3:TrackPointExtension>
            <ns3:atemp>27.0</ns3:atemp>
            <ns3:hr>95</ns3:hr>
          </ns3:TrackPointExtension>
        </extensions>
      </trkpt>
      <trkpt lat="36.75909745506942272186279296875" lon="-118.4153834916651248931884765625">
        <ele>2894.60009765625</ele>
        <time>2021-06-25T00:22:02.000Z</time>
        <extensions>
          <ns3:TrackPointExtension>
            <ns3:atemp>27.0</ns3:atemp>
            <ns3:hr>95</ns3:hr>
          </ns3:TrackPointExtension>
        </extensions>
      </trkpt>
      <trkpt lat="36.759104914963245391845703125" lon="-118.4153744392096996307373046875">
        <ele>2894.60009765625</ele>
        <time>2021-06-25T00:22:03.000Z</time>
        <extensions>
          <ns3:TrackPointExtension>
            <ns3:atemp>27.0</ns3:atemp>
            <ns3:hr>94</ns3:hr>
          </ns3:TrackPointExtension>
        </extensions>
      </trkpt>
      <trkpt lat="36.7591179907321929931640625" lon="-118.41531283222138881683349609375">
        <ele>2894.60009765625</ele>
        <time>2021-06-25T00:22:08.000Z</time>
        <extensions>
          <ns3:TrackPointExtension>
            <ns3:atemp>27.0</ns3:atemp>
            <ns3:hr>93</ns3:hr>
          </ns3:TrackPointExtension>
        </extensions>
      </trkpt>
      <trkpt lat="36.75912226550281047821044921875" lon="-118.41530553996562957763671875">
        <ele>2894.60009765625</ele>
        <time>2021-06-25T00:22:09.000Z</time>
        <extensions>
          <ns3:TrackPointExtension>
            <ns3:atemp>27.0</ns3:atemp>
            <ns3:hr>92</ns3:hr>
          </ns3:TrackPointExtension>
        </extensions>
      </trkpt>
      <trkpt lat="36.75913953222334384918212890625" lon="-118.41525533236563205718994140625">
        <ele>2894.60009765625</ele>
        <time>2021-06-25T00:22:15.000Z</time>
        <extensions>
          <ns3:TrackPointExtension>
            <ns3:atemp>27.0</ns3:atemp>
            <ns3:hr>90</ns3:hr>
          </ns3:TrackPointExtension>
        </extensions>
      </trkpt>
      <trkpt lat="36.759141124784946441650390625" lon="-118.41524208895862102508544921875">
        <ele>2894.60009765625</ele>
        <time>2021-06-25T00:22:16.000Z</time>
        <extensions>
          <ns3:TrackPointExtension>
            <ns3:atemp>27.0</ns3:atemp>
            <ns3:hr>89</ns3:hr>
          </ns3:TrackPointExtension>
        </extensions>
      </trkpt>
      <trkpt lat="36.75915244035422801971435546875" lon="-118.4151920489966869354248046875">
        <ele>2894.199951171875</ele>
        <time>2021-06-25T00:22:20.000Z</time>
        <extensions>
          <ns3:TrackPointExtension>
            <ns3:atemp>27.0</ns3:atemp>
            <ns3:hr>90</ns3:hr>
          </ns3:TrackPointExtension>
        </extensions>
      </trkpt>
      <trkpt lat="36.75916668958961963653564453125" lon="-118.41515474952757358551025390625">
        <ele>2894.199951171875</ele>
        <time>2021-06-25T00:22:23.000Z</time>
        <extensions>
          <ns3:TrackPointExtension>
            <ns3:atemp>27.0</ns3:atemp>
            <ns3:hr>88</ns3:hr>
          </ns3:TrackPointExtension>
        </extensions>
      </trkpt>
      <trkpt lat="36.7591962777078151702880859375" lon="-118.41505718417465686798095703125">
        <ele>2893.800048828125</ele>
        <time>2021-06-25T00:22:31.000Z</time>
        <extensions>
          <ns3:TrackPointExtension>
            <ns3:atemp>27.0</ns3:atemp>
            <ns3:hr>87</ns3:hr>
          </ns3:TrackPointExtension>
        </extensions>
      </trkpt>
      <trkpt lat="36.759199462831020355224609375" lon="-118.41504536569118499755859375">
        <ele>2893.800048828125</ele>
        <time>2021-06-25T00:22:32.000Z</time>
        <extensions>
          <ns3:TrackPointExtension>
            <ns3:atemp>27.0</ns3:atemp>
            <ns3:hr>86</ns3:hr>
          </ns3:TrackPointExtension>
        </extensions>
      </trkpt>
      <trkpt lat="36.7592291347682476043701171875" lon="-118.41500018723309040069580078125">
        <ele>2893.60009765625</ele>
        <time>2021-06-25T00:22:36.000Z</time>
        <extensions>
          <ns3:TrackPointExtension>
            <ns3:atemp>27.0</ns3:atemp>
            <ns3:hr>86</ns3:hr>
          </ns3:TrackPointExtension>
        </extensions>
      </trkpt>
      <trkpt lat="36.75924262963235378265380859375" lon="-118.414976298809051513671875">
        <ele>2893.60009765625</ele>
        <time>2021-06-25T00:22:38.000Z</time>
        <extensions>
          <ns3:TrackPointExtension>
            <ns3:atemp>27.0</ns3:atemp>
            <ns3:hr>87</ns3:hr>
          </ns3:TrackPointExtension>
        </extensions>
      </trkpt>
      <trkpt lat="36.759239025413990020751953125" lon="-118.41489784419536590576171875">
        <ele>2893.800048828125</ele>
        <time>2021-06-25T00:22:43.000Z</time>
        <extensions>
          <ns3:TrackPointExtension>
            <ns3:atemp>27.0</ns3:atemp>
            <ns3:hr>86</ns3:hr>
          </ns3:TrackPointExtension>
        </extensions>
      </trkpt>
      <trkpt lat="36.759226620197296142578125" lon="-118.41486507095396518707275390625">
        <ele>2893.800048828125</ele>
        <time>2021-06-25T00:22:45.000Z</time>
        <extensions>
          <ns3:TrackPointExtension>
            <ns3:atemp>27.0</ns3:atemp>
            <ns3:hr>86</ns3:hr>
          </ns3:TrackPointExtension>
        </extensions>
      </trkpt>
      <trkpt lat="36.75924279727041721343994140625" lon="-118.41479164548218250274658203125">
        <ele>2894.39990234375</ele>
        <time>2021-06-25T00:22:52.000Z</time>
        <extensions>
          <ns3:TrackPointExtension>
            <ns3:atemp>27.0</ns3:atemp>
            <ns3:hr>86</ns3:hr>
          </ns3:TrackPointExtension>
        </extensions>
      </trkpt>
      <trkpt lat="36.759245395660400390625" lon="-118.41478108428418636322021484375">
        <ele>2894.39990234375</ele>
        <time>2021-06-25T00:22:53.000Z</time>
        <extensions>
          <ns3:TrackPointExtension>
            <ns3:atemp>27.0</ns3:atemp>
            <ns3:hr>86</ns3:hr>
          </ns3:TrackPointExtension>
        </extensions>
      </trkpt>
      <trkpt lat="36.75928202457726001739501953125" lon="-118.414702713489532470703125">
        <ele>2894.800048828125</ele>
        <time>2021-06-25T00:23:00.000Z</time>
        <extensions>
          <ns3:TrackPointExtension>
            <ns3:atemp>27.0</ns3:atemp>
            <ns3:hr>85</ns3:hr>
          </ns3:TrackPointExtension>
        </extensions>
      </trkpt>
      <trkpt lat="36.75928495824337005615234375" lon="-118.4146881289780139923095703125">
        <ele>2895</ele>
        <time>2021-06-25T00:23:01.000Z</time>
        <extensions>
          <ns3:TrackPointExtension>
            <ns3:atemp>27.0</ns3:atemp>
            <ns3:hr>86</ns3:hr>
          </ns3:TrackPointExtension>
        </extensions>
      </trkpt>
      <trkpt lat="36.75930364988744258880615234375" lon="-118.4146777354180812835693359375">
        <ele>2895</ele>
        <time>2021-06-25T00:23:04.000Z</time>
        <extensions>
          <ns3:TrackPointExtension>
            <ns3:atemp>27.0</ns3:atemp>
            <ns3:hr>89</ns3:hr>
          </ns3:TrackPointExtension>
        </extensions>
      </trkpt>
      <trkpt lat="36.7593189887702465057373046875" lon="-118.41466340236365795135498046875">
        <ele>2895</ele>
        <time>2021-06-25T00:23:06.000Z</time>
        <extensions>
          <ns3:TrackPointExtension>
            <ns3:atemp>27.0</ns3:atemp>
            <ns3:hr>91</ns3:hr>
          </ns3:TrackPointExtension>
        </extensions>
      </trkpt>
      <trkpt lat="36.7593183182179927825927734375" lon="-118.4146301262080669403076171875">
        <ele>2895</ele>
        <time>2021-06-25T00:23:08.000Z</time>
        <extensions>
          <ns3:TrackPointExtension>
            <ns3:atemp>27.0</ns3:atemp>
            <ns3:hr>92</ns3:hr>
          </ns3:TrackPointExtension>
        </extensions>
      </trkpt>
      <trkpt lat="36.7592976987361907958984375" lon="-118.414575643837451934814453125">
        <ele>2895</ele>
        <time>2021-06-25T00:23:11.000Z</time>
        <extensions>
          <ns3:TrackPointExtension>
            <ns3:atemp>27.0</ns3:atemp>
            <ns3:hr>95</ns3:hr>
          </ns3:TrackPointExtension>
        </extensions>
      </trkpt>
      <trkpt lat="36.75929593853652477264404296875" lon="-118.41456122696399688720703125">
        <ele>2895</ele>
        <time>2021-06-25T00:23:12.000Z</time>
        <extensions>
          <ns3:TrackPointExtension>
            <ns3:atemp>27.0</ns3:atemp>
            <ns3:hr>92</ns3:hr>
          </ns3:TrackPointExtension>
        </extensions>
      </trkpt>
      <trkpt lat="36.75930080004036426544189453125" lon="-118.41454555280506610870361328125">
        <ele>2895</ele>
        <time>2021-06-25T00:23:13.000Z</time>
        <extensions>
          <ns3:TrackPointExtension>
            <ns3:atemp>27.0</ns3:atemp>
            <ns3:hr>93</ns3:hr>
          </ns3:TrackPointExtension>
        </extensions>
      </trkpt>
      <trkpt lat="36.75930909812450408935546875" lon="-118.41453080065548419952392578125">
        <ele>2895</ele>
        <time>2021-06-25T00:23:14.000Z</time>
        <extensions>
          <ns3:TrackPointExtension>
            <ns3:atemp>27.0</ns3:atemp>
            <ns3:hr>92</ns3:hr>
          </ns3:TrackPointExtension>
        </extensions>
      </trkpt>
      <trkpt lat="36.759312450885772705078125" lon="-118.41448822058737277984619140625">
        <ele>2895.199951171875</ele>
        <time>2021-06-25T00:23:17.000Z</time>
        <extensions>
          <ns3:TrackPointExtension>
            <ns3:atemp>27.0</ns3:atemp>
            <ns3:hr>95</ns3:hr>
          </ns3:TrackPointExtension>
        </extensions>
      </trkpt>
      <trkpt lat="36.75930130295455455780029296875" lon="-118.41446491889655590057373046875">
        <ele>2895.199951171875</ele>
        <time>2021-06-25T00:23:19.000Z</time>
        <extensions>
          <ns3:TrackPointExtension>
            <ns3:atemp>27.0</ns3:atemp>
            <ns3:hr>98</ns3:hr>
          </ns3:TrackPointExtension>
        </extensions>
      </trkpt>
      <trkpt lat="36.75929845310747623443603515625" lon="-118.41445083729922771453857421875">
        <ele>2895.39990234375</ele>
        <time>2021-06-25T00:23:20.000Z</time>
        <extensions>
          <ns3:TrackPointExtension>
            <ns3:atemp>27.0</ns3:atemp>
            <ns3:hr>100</ns3:hr>
          </ns3:TrackPointExtension>
        </extensions>
      </trkpt>
      <trkpt lat="36.75930381752550601959228515625" lon="-118.41436408460140228271484375">
        <ele>2896.39990234375</ele>
        <time>2021-06-25T00:23:26.000Z</time>
        <extensions>
          <ns3:TrackPointExtension>
            <ns3:atemp>27.0</ns3:atemp>
            <ns3:hr>99</ns3:hr>
          </ns3:TrackPointExtension>
        </extensions>
      </trkpt>
      <trkpt lat="36.759307421743869781494140625" lon="-118.414346314966678619384765625">
        <ele>2896.60009765625</ele>
        <time>2021-06-25T00:23:27.000Z</time>
        <extensions>
          <ns3:TrackPointExtension>
            <ns3:atemp>27.0</ns3:atemp>
            <ns3:hr>98</ns3:hr>
          </ns3:TrackPointExtension>
        </extensions>
      </trkpt>
      <trkpt lat="36.75931513309478759765625" lon="-118.4142800979316234588623046875">
        <ele>2896.800048828125</ele>
        <time>2021-06-25T00:23:30.000Z</time>
        <extensions>
          <ns3:TrackPointExtension>
            <ns3:atemp>27.0</ns3:atemp>
            <ns3:hr>101</ns3:hr>
          </ns3:TrackPointExtension>
        </extensions>
      </trkpt>
      <trkpt lat="36.75931236706674098968505859375" lon="-118.41418680734932422637939453125">
        <ele>2897</ele>
        <time>2021-06-25T00:23:36.000Z</time>
        <extensions>
          <ns3:TrackPointExtension>
            <ns3:atemp>27.0</ns3:atemp>
            <ns3:hr>102</ns3:hr>
          </ns3:TrackPointExtension>
        </extensions>
      </trkpt>
      <trkpt lat="36.7593287117779254913330078125" lon="-118.41405856423079967498779296875">
        <ele>2896.800048828125</ele>
        <time>2021-06-25T00:23:47.000Z</time>
        <extensions>
          <ns3:TrackPointExtension>
            <ns3:atemp>27.0</ns3:atemp>
            <ns3:hr>102</ns3:hr>
          </ns3:TrackPointExtension>
        </extensions>
      </trkpt>
      <trkpt lat="36.75932946614921092987060546875" lon="-118.41404532082378864288330078125">
        <ele>2896.800048828125</ele>
        <time>2021-06-25T00:23:48.000Z</time>
        <extensions>
          <ns3:TrackPointExtension>
            <ns3:atemp>27.0</ns3:atemp>
            <ns3:hr>102</ns3:hr>
          </ns3:TrackPointExtension>
        </extensions>
      </trkpt>
      <trkpt lat="36.75931890495121479034423828125" lon="-118.41401045210659503936767578125">
        <ele>2896</ele>
        <time>2021-06-25T00:23:52.000Z</time>
        <extensions>
          <ns3:TrackPointExtension>
            <ns3:atemp>27.0</ns3:atemp>
            <ns3:hr>102</ns3:hr>
          </ns3:TrackPointExtension>
        </extensions>
      </trkpt>
      <trkpt lat="36.759330220520496368408203125" lon="-118.41396384872496128082275390625">
        <ele>2895.60009765625</ele>
        <time>2021-06-25T00:23:58.000Z</time>
        <extensions>
          <ns3:TrackPointExtension>
            <ns3:atemp>27.0</ns3:atemp>
            <ns3:hr>103</ns3:hr>
          </ns3:TrackPointExtension>
        </extensions>
      </trkpt>
      <trkpt lat="36.7593334056437015533447265625" lon="-118.4139584004878997802734375">
        <ele>2895.39990234375</ele>
        <time>2021-06-25T00:23:59.000Z</time>
        <extensions>
          <ns3:TrackPointExtension>
            <ns3:atemp>27.0</ns3:atemp>
            <ns3:hr>101</ns3:hr>
          </ns3:TrackPointExtension>
        </extensions>
      </trkpt>
      <trkpt lat="36.75930683501064777374267578125" lon="-118.413943313062191009521484375">
        <ele>2894.800048828125</ele>
        <time>2021-06-25T00:24:02.000Z</time>
        <extensions>
          <ns3:TrackPointExtension>
            <ns3:atemp>27.0</ns3:atemp>
            <ns3:hr>98</ns3:hr>
          </ns3:TrackPointExtension>
        </extensions>
      </trkpt>
      <trkpt lat="36.75930784083902835845947265625" lon="-118.41394825838506221771240234375">
        <ele>2894.60009765625</ele>
        <time>2021-06-25T00:24:06.000Z</time>
        <extensions>
          <ns3:TrackPointExtension>
            <ns3:atemp>27.0</ns3:atemp>
            <ns3:hr>100</ns3:hr>
          </ns3:TrackPointExtension>
        </extensions>
      </trkpt>
      <trkpt lat="36.75931236706674098968505859375" lon="-118.41395043767988681793212890625">
        <ele>2894.60009765625</ele>
        <time>2021-06-25T00:24:07.000Z</time>
        <extensions>
          <ns3:TrackPointExtension>
            <ns3:atemp>27.0</ns3:atemp>
            <ns3:hr>101</ns3:hr>
          </ns3:TrackPointExtension>
        </extensions>
      </trkpt>
      <trkpt lat="36.7593191564083099365234375" lon="-118.4139485098421573638916015625">
        <ele>2894.60009765625</ele>
        <time>2021-06-25T00:24:12.000Z</time>
        <extensions>
          <ns3:TrackPointExtension>
            <ns3:atemp>27.0</ns3:atemp>
            <ns3:hr>104</ns3:hr>
          </ns3:TrackPointExtension>
        </extensions>
      </trkpt>
      <trkpt lat="36.7593191564083099365234375" lon="-118.4139485098421573638916015625">
        <ele>2894.800048828125</ele>
        <time>2021-06-25T00:24:24.000Z</time>
        <extensions>
          <ns3:TrackPointExtension>
            <ns3:atemp>27.0</ns3:atemp>
            <ns3:hr>101</ns3:hr>
          </ns3:TrackPointExtension>
        </extensions>
      </trkpt>
      <trkpt lat="36.7593191564083099365234375" lon="-118.41394926421344280242919921875">
        <ele>2894.800048828125</ele>
        <time>2021-06-25T00:24:26.000Z</time>
        <extensions>
          <ns3:TrackPointExtension>
            <ns3:atemp>27.0</ns3:atemp>
            <ns3:hr>97</ns3:hr>
          </ns3:TrackPointExtension>
        </extensions>
      </trkpt>
      <trkpt lat="36.75931957550346851348876953125" lon="-118.41395043767988681793212890625">
        <ele>2894.800048828125</ele>
        <time>2021-06-25T00:24:28.000Z</time>
        <extensions>
          <ns3:TrackPointExtension>
            <ns3:atemp>27.0</ns3:atemp>
            <ns3:hr>94</ns3:hr>
          </ns3:TrackPointExtension>
        </extensions>
      </trkpt>
      <trkpt lat="36.75932125188410282135009765625" lon="-118.41395110823214054107666015625">
        <ele>2895</ele>
        <time>2021-06-25T00:24:30.000Z</time>
        <extensions>
          <ns3:TrackPointExtension>
            <ns3:atemp>27.0</ns3:atemp>
            <ns3:hr>94</ns3:hr>
          </ns3:TrackPointExtension>
        </extensions>
      </trkpt>
      <trkpt lat="36.75931555218994617462158203125" lon="-118.413977511227130889892578125">
        <ele>2895.60009765625</ele>
        <time>2021-06-25T00:25:09.000Z</time>
        <extensions>
          <ns3:TrackPointExtension>
            <ns3:atemp>27.0</ns3:atemp>
            <ns3:hr>97</ns3:hr>
          </ns3:TrackPointExtension>
        </extensions>
      </trkpt>
      <trkpt lat="36.7593116126954555511474609375" lon="-118.413935601711273193359375">
        <ele>2895.199951171875</ele>
        <time>2021-06-25T00:25:24.000Z</time>
        <extensions>
          <ns3:TrackPointExtension>
            <ns3:atemp>27.0</ns3:atemp>
            <ns3:hr>94</ns3:hr>
          </ns3:TrackPointExtension>
        </extensions>
      </trkpt>
      <trkpt lat="36.75930432043969631195068359375" lon="-118.4139112941920757293701171875">
        <ele>2895.199951171875</ele>
        <time>2021-06-25T00:25:33.000Z</time>
        <extensions>
          <ns3:TrackPointExtension>
            <ns3:atemp>27.0</ns3:atemp>
            <ns3:hr>91</ns3:hr>
          </ns3:TrackPointExtension>
        </extensions>
      </trkpt>
      <trkpt lat="36.75922083668410778045654296875" lon="-118.413897715508937835693359375">
        <ele>2895.199951171875</ele>
        <time>2021-06-25T00:25:42.000Z</time>
        <extensions>
          <ns3:TrackPointExtension>
            <ns3:atemp>27.0</ns3:atemp>
            <ns3:hr>89</ns3:hr>
          </ns3:TrackPointExtension>
        </extensions>
      </trkpt>
      <trkpt lat="36.7591852135956287384033203125" lon="-118.4139035828411579132080078125">
        <ele>2895.199951171875</ele>
        <time>2021-06-25T00:25:44.000Z</time>
        <extensions>
          <ns3:TrackPointExtension>
            <ns3:atemp>27.0</ns3:atemp>
            <ns3:hr>89</ns3:hr>
          </ns3:TrackPointExtension>
        </extensions>
      </trkpt>
      <trkpt lat="36.75912360660731792449951171875" lon="-118.41392613016068935394287109375">
        <ele>2895.199951171875</ele>
        <time>2021-06-25T00:25:48.000Z</time>
        <extensions>
          <ns3:TrackPointExtension>
            <ns3:atemp>27.0</ns3:atemp>
            <ns3:hr>88</ns3:hr>
          </ns3:TrackPointExtension>
        </extensions>
      </trkpt>
      <trkpt lat="36.7590708844363689422607421875" lon="-118.41390366666018962860107421875">
        <ele>2895</ele>
        <time>2021-06-25T00:25:54.000Z</time>
        <extensions>
          <ns3:TrackPointExtension>
            <ns3:atemp>27.0</ns3:atemp>
            <ns3:hr>88</ns3:hr>
          </ns3:TrackPointExtension>
        </extensions>
      </trkpt>
      <trkpt lat="36.759059987962245941162109375" lon="-118.413909785449504852294921875">
        <ele>2895</ele>
        <time>2021-06-25T00:25:55.000Z</time>
        <extensions>
          <ns3:TrackPointExtension>
            <ns3:atemp>27.0</ns3:atemp>
            <ns3:hr>88</ns3:hr>
          </ns3:TrackPointExtension>
        </extensions>
      </trkpt>
      <trkpt lat="36.75904582254588603973388671875" lon="-118.4139190055429935455322265625">
        <ele>2895</ele>
        <time>2021-06-25T00:25:56.000Z</time>
        <extensions>
          <ns3:TrackPointExtension>
            <ns3:atemp>27.0</ns3:atemp>
            <ns3:hr>87</ns3:hr>
          </ns3:TrackPointExtension>
        </extensions>
      </trkpt>
      <trkpt lat="36.75901564769446849822998046875" lon="-118.41395898722112178802490234375">
        <ele>2895</ele>
        <time>2021-06-25T00:25:59.000Z</time>
        <extensions>
          <ns3:TrackPointExtension>
            <ns3:atemp>27.0</ns3:atemp>
            <ns3:hr>83</ns3:hr>
          </ns3:TrackPointExtension>
        </extensions>
      </trkpt>
      <trkpt lat="36.75900223664939403533935546875" lon="-118.41396871022880077362060546875">
        <ele>2895</ele>
        <time>2021-06-25T00:26:00.000Z</time>
        <extensions>
          <ns3:TrackPointExtension>
            <ns3:atemp>27.0</ns3:atemp>
            <ns3:hr>81</ns3:hr>
          </ns3:TrackPointExtension>
        </extensions>
      </trkpt>
      <trkpt lat="36.7589813657104969024658203125" lon="-118.41398916207253932952880859375">
        <ele>2895</ele>
        <time>2021-06-25T00:26:02.000Z</time>
        <extensions>
          <ns3:TrackPointExtension>
            <ns3:atemp>27.0</ns3:atemp>
            <ns3:hr>78</ns3:hr>
          </ns3:TrackPointExtension>
        </extensions>
      </trkpt>
      <trkpt lat="36.7589629255235195159912109375" lon="-118.4140165708959102630615234375">
        <ele>2895.199951171875</ele>
        <time>2021-06-25T00:26:04.000Z</time>
        <extensions>
          <ns3:TrackPointExtension>
            <ns3:atemp>27.0</ns3:atemp>
            <ns3:hr>77</ns3:hr>
          </ns3:TrackPointExtension>
        </extensions>
      </trkpt>
      <trkpt lat="36.7589575611054897308349609375" lon="-118.41402838937938213348388671875">
        <ele>2895.39990234375</ele>
        <time>2021-06-25T00:26:05.000Z</time>
        <extensions>
          <ns3:TrackPointExtension>
            <ns3:atemp>27.0</ns3:atemp>
            <ns3:hr>76</ns3:hr>
          </ns3:TrackPointExtension>
        </extensions>
      </trkpt>
      <trkpt lat="36.758951358497142791748046875" lon="-118.41403174214065074920654296875">
        <ele>2895.60009765625</ele>
        <time>2021-06-25T00:26:07.000Z</time>
        <extensions>
          <ns3:TrackPointExtension>
            <ns3:atemp>27.0</ns3:atemp>
            <ns3:hr>75</ns3:hr>
          </ns3:TrackPointExtension>
        </extensions>
      </trkpt>
      <trkpt lat="36.75893803127110004425048828125" lon="-118.41405370272696018218994140625">
        <ele>2895.60009765625</ele>
        <time>2021-06-25T00:26:09.000Z</time>
        <extensions>
          <ns3:TrackPointExtension>
            <ns3:atemp>27.0</ns3:atemp>
            <ns3:hr>75</ns3:hr>
          </ns3:TrackPointExtension>
        </extensions>
      </trkpt>
      <trkpt lat="36.7589525319635868072509765625" lon="-118.41404364444315433502197265625">
        <ele>2895.39990234375</ele>
        <time>2021-06-25T00:26:13.000Z</time>
        <extensions>
          <ns3:TrackPointExtension>
            <ns3:atemp>27.0</ns3:atemp>
            <ns3:hr>75</ns3:hr>
          </ns3:TrackPointExtension>
        </extensions>
      </trkpt>
      <trkpt lat="36.7589421384036540985107421875" lon="-118.4140276350080966949462890625">
        <ele>2895.39990234375</ele>
        <time>2021-06-25T00:26:17.000Z</time>
        <extensions>
          <ns3:TrackPointExtension>
            <ns3:atemp>27.0</ns3:atemp>
            <ns3:hr>78</ns3:hr>
          </ns3:TrackPointExtension>
        </extensions>
      </trkpt>
      <trkpt lat="36.75892830826342105865478515625" lon="-118.4140226058661937713623046875">
        <ele>2895</ele>
        <time>2021-06-25T00:26:19.000Z</time>
        <extensions>
          <ns3:TrackPointExtension>
            <ns3:atemp>27.0</ns3:atemp>
            <ns3:hr>81</ns3:hr>
          </ns3:TrackPointExtension>
        </extensions>
      </trkpt>
      <trkpt lat="36.75891975872218608856201171875" lon="-118.41401380486786365509033203125">
        <ele>2895</ele>
        <time>2021-06-25T00:26:20.000Z</time>
        <extensions>
          <ns3:TrackPointExtension>
            <ns3:atemp>27.0</ns3:atemp>
            <ns3:hr>82</ns3:hr>
          </ns3:TrackPointExtension>
        </extensions>
      </trkpt>
      <trkpt lat="36.75890165381133556365966796875" lon="-118.4139880724251270294189453125">
        <ele>2894.60009765625</ele>
        <time>2021-06-25T00:26:22.000Z</time>
        <extensions>
          <ns3:TrackPointExtension>
            <ns3:atemp>27.0</ns3:atemp>
            <ns3:hr>85</ns3:hr>
          </ns3:TrackPointExtension>
        </extensions>
      </trkpt>
      <trkpt lat="36.75888874568045139312744140625" lon="-118.4139753319323062896728515625">
        <ele>2894.60009765625</ele>
        <time>2021-06-25T00:26:24.000Z</time>
        <extensions>
          <ns3:TrackPointExtension>
            <ns3:atemp>27.0</ns3:atemp>
            <ns3:hr>86</ns3:hr>
          </ns3:TrackPointExtension>
        </extensions>
      </trkpt>
      <trkpt lat="36.75886125303804874420166015625" lon="-118.41394674964249134063720703125">
        <ele>2894.60009765625</ele>
        <time>2021-06-25T00:26:27.000Z</time>
        <extensions>
          <ns3:TrackPointExtension>
            <ns3:atemp>27.0</ns3:atemp>
            <ns3:hr>88</ns3:hr>
          </ns3:TrackPointExtension>
        </extensions>
      </trkpt>
      <trkpt lat="36.758827306330204010009765625" lon="-118.41391556896269321441650390625">
        <ele>2894.60009765625</ele>
        <time>2021-06-25T00:26:30.000Z</time>
        <extensions>
          <ns3:TrackPointExtension>
            <ns3:atemp>27.0</ns3:atemp>
            <ns3:hr>88</ns3:hr>
          </ns3:TrackPointExtension>
        </extensions>
      </trkpt>
      <trkpt lat="36.75881800241768360137939453125" lon="-118.41390148736536502838134765625">
        <ele>2894.60009765625</ele>
        <time>2021-06-25T00:26:33.000Z</time>
        <extensions>
          <ns3:TrackPointExtension>
            <ns3:atemp>26.0</ns3:atemp>
            <ns3:hr>87</ns3:hr>
          </ns3:TrackPointExtension>
        </extensions>
      </trkpt>
      <trkpt lat="36.7588278092443943023681640625" lon="-118.413914479315280914306640625">
        <ele>2894.800048828125</ele>
        <time>2021-06-25T00:26:35.000Z</time>
        <extensions>
          <ns3:TrackPointExtension>
            <ns3:atemp>26.0</ns3:atemp>
            <ns3:hr>86</ns3:hr>
          </ns3:TrackPointExtension>
        </extensions>
      </trkpt>
      <trkpt lat="36.75882454030215740203857421875" lon="-118.4139173291623592376708984375">
        <ele>2894.60009765625</ele>
        <time>2021-06-25T00:26:36.000Z</time>
        <extensions>
          <ns3:TrackPointExtension>
            <ns3:atemp>26.0</ns3:atemp>
            <ns3:hr>86</ns3:hr>
          </ns3:TrackPointExtension>
        </extensions>
      </trkpt>
      <trkpt lat="36.75880006514489650726318359375" lon="-118.41390701942145824432373046875">
        <ele>2895</ele>
        <time>2021-06-25T00:26:46.000Z</time>
        <extensions>
          <ns3:TrackPointExtension>
            <ns3:atemp>26.0</ns3:atemp>
            <ns3:hr>86</ns3:hr>
          </ns3:TrackPointExtension>
        </extensions>
      </trkpt>
      <trkpt lat="36.75883644260466098785400390625" lon="-118.41395932249724864959716796875">
        <ele>2895.60009765625</ele>
        <time>2021-06-25T00:26:53.000Z</time>
        <extensions>
          <ns3:TrackPointExtension>
            <ns3:atemp>26.0</ns3:atemp>
            <ns3:hr>85</ns3:hr>
          </ns3:TrackPointExtension>
        </extensions>
      </trkpt>
      <trkpt lat="36.758864857256412506103515625" lon="-118.41397943906486034393310546875">
        <ele>2895.60009765625</ele>
        <time>2021-06-25T00:26:57.000Z</time>
        <extensions>
          <ns3:TrackPointExtension>
            <ns3:atemp>26.0</ns3:atemp>
            <ns3:hr>82</ns3:hr>
          </ns3:TrackPointExtension>
        </extensions>
      </trkpt>
      <trkpt lat="36.75889159552752971649169921875" lon="-118.41400735080242156982421875">
        <ele>2896</ele>
        <time>2021-06-25T00:27:00.000Z</time>
        <extensions>
          <ns3:TrackPointExtension>
            <ns3:atemp>26.0</ns3:atemp>
            <ns3:hr>81</ns3:hr>
          </ns3:TrackPointExtension>
        </extensions>
      </trkpt>
      <trkpt lat="36.7589602433145046234130859375" lon="-118.4140361845493316650390625">
        <ele>2895.800048828125</ele>
        <time>2021-06-25T00:27:07.000Z</time>
        <extensions>
          <ns3:TrackPointExtension>
            <ns3:atemp>26.0</ns3:atemp>
            <ns3:hr>83</ns3:hr>
          </ns3:TrackPointExtension>
        </extensions>
      </trkpt>
      <trkpt lat="36.7589986324310302734375" lon="-118.41404213570058345794677734375">
        <ele>2895.800048828125</ele>
        <time>2021-06-25T00:27:12.000Z</time>
        <extensions>
          <ns3:TrackPointExtension>
            <ns3:atemp>27.0</ns3:atemp>
            <ns3:hr>82</ns3:hr>
          </ns3:TrackPointExtension>
        </extensions>
      </trkpt>
      <trkpt lat="36.75901430658996105194091796875" lon="-118.41403149068355560302734375">
        <ele>2895.800048828125</ele>
        <time>2021-06-25T00:27:14.000Z</time>
        <extensions>
          <ns3:TrackPointExtension>
            <ns3:atemp>27.0</ns3:atemp>
            <ns3:hr>84</ns3:hr>
          </ns3:TrackPointExtension>
        </extensions>
      </trkpt>
      <trkpt lat="36.75902017392218112945556640625" lon="-118.4140388667583465576171875">
        <ele>2896.199951171875</ele>
        <time>2021-06-25T00:27:17.000Z</time>
        <extensions>
          <ns3:TrackPointExtension>
            <ns3:atemp>27.0</ns3:atemp>
            <ns3:hr>85</ns3:hr>
          </ns3:TrackPointExtension>
        </extensions>
      </trkpt>
    </trkseg>
  </trk>
</gpx>
